<?xml version='1.0' encoding='UTF-8'?><gpx version="1.1" creator="JPX - https://github.com/jenetics/jpx" xmlns="http://www.topografix.com/GPX/1/1"><trk><trkseg><trkpt lat="46.017589216149034" lon="13.306857130492157"><ele>76.0</ele><time>2026-04-11T10:00:40Z</time></trkpt><trkpt lat="46.01762060821498" lon="13.306940282280637"><ele>76.0</ele><time>2026-04-11T10:00:45Z</time></trkpt><trkpt lat="46.01755008251099" lon="13.306968727324001"><ele>76.0</ele><time>2026-04-11T10:00:48Z</time></trkpt><trkpt lat="46.01745074360673" lon="13.306961475752946"><ele>76.0</ele><time>2026-04-11T10:01:29Z</time></trkpt><trkpt lat="46.01737703943762" lon="13.3068900171733"><ele>76.0</ele><time>2026-04-11T10:01:31Z</time></trkpt><trkpt lat="46.01733825139786" lon="13.306790731565854"><ele>76.0</ele><time>2026-04-11T10:01:33Z</time></trkpt><trkpt lat="46.01731695294108" lon="13.306677467516613"><ele>76.0</ele><time>2026-04-11T10:01:35Z</time></trkpt><trkpt lat="46.01731356054703" lon="13.306530306022657"><ele>76.0</ele><time>2026-04-11T10:01:37Z</time></trkpt><trkpt lat="46.01733951792529" lon="13.306377901647732"><ele>76.0</ele><time>2026-04-11T10:01:39Z</time></trkpt><trkpt lat="46.01736814359808" lon="13.306200036877215"><ele>76.0</ele><time>2026-04-11T10:01:41Z</time></trkpt><trkpt lat="46.01738257077605" lon="13.306095510087724"><ele>76.0</ele><time>2026-04-11T10:01:42Z</time></trkpt><trkpt lat="46.017399763971945" lon="13.30598694687104"><ele>75.8</ele><time>2026-04-11T10:01:43Z</time></trkpt><trkpt lat="46.017418199615626" lon="13.305872476351297"><ele>75.6</ele><time>2026-04-11T10:01:44Z</time></trkpt><trkpt lat="46.01743279006287" lon="13.30574995661671"><ele>75.4</ele><time>2026-04-11T10:01:45Z</time></trkpt><trkpt lat="46.01744881545565" lon="13.305621678006192"><ele>75.2</ele><time>2026-04-11T10:01:46Z</time></trkpt><trkpt lat="46.017473114780856" lon="13.305489168330592"><ele>75.0</ele><time>2026-04-11T10:01:47Z</time></trkpt><trkpt lat="46.017500203906096" lon="13.30535006594022"><ele>74.83333333333333</ele><time>2026-04-11T10:01:47.999Z</time></trkpt><trkpt lat="46.01752714931241" lon="13.305207544193319"><ele>74.66666666666667</ele><time>2026-04-11T10:01:48.999Z</time></trkpt><trkpt lat="46.01755769938388" lon="13.305092649338379"><ele>74.5</ele><time>2026-04-11T10:01:49.999Z</time></trkpt><trkpt lat="46.017604798464895" lon="13.305019035981006"><ele>74.33333333333334</ele><time>2026-04-11T10:01:50.999Z</time></trkpt><trkpt lat="46.01767172791572" lon="13.304991194907279"><ele>74.16666666666667</ele><time>2026-04-11T10:01:51.999Z</time></trkpt><trkpt lat="46.0177507531209" lon="13.30500495105921"><ele>74.0</ele><time>2026-04-11T10:01:52.999Z</time></trkpt><trkpt lat="46.01782510073502" lon="13.305046688051375"><ele>74.0</ele><time>2026-04-11T10:01:53.999Z</time></trkpt><trkpt lat="46.01790324266349" lon="13.305098441901595"><ele>74.0</ele><time>2026-04-11T10:01:54.999Z</time></trkpt><trkpt lat="46.017993001947886" lon="13.305142403578401"><ele>74.0</ele><time>2026-04-11T10:01:55.999Z</time></trkpt><trkpt lat="46.01809022956121" lon="13.305211313225321"><ele>74.0</ele><time>2026-04-11T10:01:56.999Z</time></trkpt><trkpt lat="46.01818405343848" lon="13.305288125983491"><ele>74.0</ele><time>2026-04-11T10:01:57.999Z</time></trkpt><trkpt lat="46.018264212458966" lon="13.30533832911125"><ele>74.16666666666667</ele><time>2026-04-11T10:01:58.999Z</time></trkpt><trkpt lat="46.01832509381545" lon="13.305380112440965"><ele>74.33333333333334</ele><time>2026-04-11T10:01:59.999Z</time></trkpt><trkpt lat="46.01843158451989" lon="13.305433451752409"><ele>74.5</ele><time>2026-04-11T10:02:01.999Z</time></trkpt><trkpt lat="46.01855172983818" lon="13.305453520185768"><ele>74.66666666666667</ele><time>2026-04-11T10:02:04Z</time></trkpt><trkpt lat="46.01862090160625" lon="13.305437589642342"><ele>74.83333333333333</ele><time>2026-04-11T10:02:05Z</time></trkpt><trkpt lat="46.01868315605969" lon="13.305421888491006"><ele>75.0</ele><time>2026-04-11T10:02:06Z</time></trkpt><trkpt lat="46.0187489768786" lon="13.305440419597593"><ele>75.0</ele><time>2026-04-11T10:02:07Z</time></trkpt><trkpt lat="46.01881378388178" lon="13.305501608684754"><ele>75.0</ele><time>2026-04-11T10:02:08Z</time></trkpt><trkpt lat="46.018873588527484" lon="13.3055887409679"><ele>75.0</ele><time>2026-04-11T10:02:09Z</time></trkpt><trkpt lat="46.01894480159426" lon="13.305684449652652"><ele>75.0</ele><time>2026-04-11T10:02:10Z</time></trkpt><trkpt lat="46.01903872084983" lon="13.305775321644543"><ele>75.0</ele><time>2026-04-11T10:02:11Z</time></trkpt><trkpt lat="46.019139740910695" lon="13.305863001222969"><ele>75.25</ele><time>2026-04-11T10:02:12Z</time></trkpt><trkpt lat="46.0192508999985" lon="13.305953188096774"><ele>75.5</ele><time>2026-04-11T10:02:13Z</time></trkpt><trkpt lat="46.01936985694804" lon="13.306038875944077"><ele>75.75</ele><time>2026-04-11T10:02:14Z</time></trkpt><trkpt lat="46.019474407277954" lon="13.306100280666131"><ele>76.0</ele><time>2026-04-11T10:02:15Z</time></trkpt><trkpt lat="46.01956230045766" lon="13.306156586278304"><ele>76.0</ele><time>2026-04-11T10:02:16Z</time></trkpt><trkpt lat="46.01965123556848" lon="13.306217679782739"><ele>76.0</ele><time>2026-04-11T10:02:17Z</time></trkpt><trkpt lat="46.019743292969615" lon="13.306272490327533"><ele>76.0</ele><time>2026-04-11T10:02:18Z</time></trkpt><trkpt lat="46.01982850395217" lon="13.306323438197612"><ele>76.0</ele><time>2026-04-11T10:02:19Z</time></trkpt><trkpt lat="46.01989704339124" lon="13.306371412275393"><ele>76.0</ele><time>2026-04-11T10:02:20Z</time></trkpt><trkpt lat="46.01995616757486" lon="13.306413530098709"><ele>76.0</ele><time>2026-04-11T10:02:21Z</time></trkpt><trkpt lat="46.02001946083303" lon="13.306453913889852"><ele>76.14285714285714</ele><time>2026-04-11T10:02:22Z</time></trkpt><trkpt lat="46.02007957075277" lon="13.30649128090781"><ele>76.28571428571429</ele><time>2026-04-11T10:02:23Z</time></trkpt><trkpt lat="46.02014343150785" lon="13.306532883786657"><ele>76.42857142857143</ele><time>2026-04-11T10:02:24Z</time></trkpt><trkpt lat="46.02020938077847" lon="13.306575665907967"><ele>76.57142857142857</ele><time>2026-04-11T10:02:25Z</time></trkpt><trkpt lat="46.020264318742065" lon="13.306622213642303"><ele>76.71428571428572</ele><time>2026-04-11T10:02:26Z</time></trkpt><trkpt lat="46.020321589510054" lon="13.306665831751237"><ele>76.85714285714286</ele><time>2026-04-11T10:02:27Z</time></trkpt><trkpt lat="46.020394767348336" lon="13.306714559598552"><ele>77.0</ele><time>2026-04-11T10:02:28Z</time></trkpt><trkpt lat="46.020482632886306" lon="13.306796349440226"><ele>77.0</ele><time>2026-04-11T10:02:29Z</time></trkpt><trkpt lat="46.02057455627465" lon="13.30686183112808"><ele>77.0</ele><time>2026-04-11T10:02:30Z</time></trkpt><trkpt lat="46.02065503546193" lon="13.306911322549858"><ele>77.0</ele><time>2026-04-11T10:02:31Z</time></trkpt><trkpt lat="46.02074231681084" lon="13.306962278082569"><ele>77.0</ele><time>2026-04-11T10:02:32Z</time></trkpt><trkpt lat="46.020838715404516" lon="13.30701100804448"><ele>77.0</ele><time>2026-04-11T10:02:33Z</time></trkpt><trkpt lat="46.02092622484826" lon="13.307045614494207"><ele>77.4</ele><time>2026-04-11T10:02:34Z</time></trkpt><trkpt lat="46.021012232929706" lon="13.307075994094099"><ele>77.80000000000001</ele><time>2026-04-11T10:02:35Z</time></trkpt><trkpt lat="46.02109999831793" lon="13.307104653576252"><ele>78.2</ele><time>2026-04-11T10:02:36Z</time></trkpt><trkpt lat="46.02119261769889" lon="13.307123785066734"><ele>78.60000000000001</ele><time>2026-04-11T10:02:37Z</time></trkpt><trkpt lat="46.021290568618035" lon="13.307136099890911"><ele>79.0</ele><time>2026-04-11T10:02:38Z</time></trkpt><trkpt lat="46.02140030692711" lon="13.30714100120165"><ele>79.0</ele><time>2026-04-11T10:02:39Z</time></trkpt><trkpt lat="46.0215116345252" lon="13.307147158139019"><ele>79.0</ele><time>2026-04-11T10:02:40Z</time></trkpt><trkpt lat="46.02163085603226" lon="13.307152858187555"><ele>79.0</ele><time>2026-04-11T10:02:41Z</time></trkpt><trkpt lat="46.021755035187255" lon="13.307156216171945"><ele>79.0</ele><time>2026-04-11T10:02:42Z</time></trkpt><trkpt lat="46.021876153471936" lon="13.307155130096522"><ele>79.0</ele><time>2026-04-11T10:02:43Z</time></trkpt><trkpt lat="46.02199672821773" lon="13.30716724466194"><ele>79.0</ele><time>2026-04-11T10:02:44Z</time></trkpt><trkpt lat="46.02212353137048" lon="13.307170647521447"><ele>79.0</ele><time>2026-04-11T10:02:45Z</time></trkpt><trkpt lat="46.02226209759072" lon="13.307181389641904"><ele>79.0</ele><time>2026-04-11T10:02:46Z</time></trkpt><trkpt lat="46.02240113068081" lon="13.30720051136091"><ele>79.25</ele><time>2026-04-11T10:02:47Z</time></trkpt><trkpt lat="46.02252486547781" lon="13.30722372685821"><ele>79.5</ele><time>2026-04-11T10:02:48Z</time></trkpt><trkpt lat="46.02265002951802" lon="13.307262782545266"><ele>79.75</ele><time>2026-04-11T10:02:49Z</time></trkpt><trkpt lat="46.02277824175752" lon="13.307311817279192"><ele>80.0</ele><time>2026-04-11T10:02:50Z</time></trkpt><trkpt lat="46.02289736200649" lon="13.30736006016521"><ele>80.0</ele><time>2026-04-11T10:02:51Z</time></trkpt><trkpt lat="46.023020587862774" lon="13.307415634489702"><ele>80.0</ele><time>2026-04-11T10:02:52Z</time></trkpt><trkpt lat="46.0231481119048" lon="13.307470933356779"><ele>80.0</ele><time>2026-04-11T10:02:53Z</time></trkpt><trkpt lat="46.023276918763166" lon="13.307525093778626"><ele>80.0</ele><time>2026-04-11T10:02:54Z</time></trkpt><trkpt lat="46.0234064151836" lon="13.307579756555143"><ele>80.0</ele><time>2026-04-11T10:02:55Z</time></trkpt><trkpt lat="46.02353829817414" lon="13.307638555273215"><ele>80.0</ele><time>2026-04-11T10:02:56Z</time></trkpt><trkpt lat="46.023674735230365" lon="13.307694189794"><ele>80.0</ele><time>2026-04-11T10:02:57Z</time></trkpt><trkpt lat="46.02381161517273" lon="13.307756038537464"><ele>80.0</ele><time>2026-04-11T10:02:58Z</time></trkpt><trkpt lat="46.02394975668235" lon="13.30781480105222"><ele>80.0</ele><time>2026-04-11T10:02:59Z</time></trkpt><trkpt lat="46.02408690767842" lon="13.307873368751016"><ele>80.0</ele><time>2026-04-11T10:03:00Z</time></trkpt><trkpt lat="46.02422282096893" lon="13.307932506775785"><ele>80.0</ele><time>2026-04-11T10:03:01Z</time></trkpt><trkpt lat="46.02435879889197" lon="13.30799203362"><ele>80.0</ele><time>2026-04-11T10:03:02Z</time></trkpt><trkpt lat="46.0245016641926" lon="13.30805041394397"><ele>80.66666666666667</ele><time>2026-04-11T10:03:03Z</time></trkpt><trkpt lat="46.024650024801" lon="13.308107069593593"><ele>81.33333333333333</ele><time>2026-04-11T10:03:04Z</time></trkpt><trkpt lat="46.024805789665535" lon="13.30815534990879"><ele>82.0</ele><time>2026-04-11T10:03:05Z</time></trkpt><trkpt lat="46.02496717189171" lon="13.308195399507397"><ele>82.0</ele><time>2026-04-11T10:03:06Z</time></trkpt><trkpt lat="46.02513293734292" lon="13.308231553981985"><ele>82.0</ele><time>2026-04-11T10:03:07Z</time></trkpt><trkpt lat="46.02529709323086" lon="13.308266177668115"><ele>82.0</ele><time>2026-04-11T10:03:08Z</time></trkpt><trkpt lat="46.02546686282977" lon="13.308301728120277"><ele>82.0</ele><time>2026-04-11T10:03:09Z</time></trkpt><trkpt lat="46.02563306807482" lon="13.308336342752638"><ele>82.0</ele><time>2026-04-11T10:03:10Z</time></trkpt><trkpt lat="46.02580038592671" lon="13.308370709222103"><ele>82.0</ele><time>2026-04-11T10:03:11Z</time></trkpt><trkpt lat="46.025966187797316" lon="13.308406788072213"><ele>81.66666666666666</ele><time>2026-04-11T10:03:12Z</time></trkpt><trkpt lat="46.026130298891474" lon="13.308441921915136"><ele>81.33333333333333</ele><time>2026-04-11T10:03:13Z</time></trkpt><trkpt lat="46.02628952317694" lon="13.30847397748366"><ele>81.0</ele><time>2026-04-11T10:03:14Z</time></trkpt><trkpt lat="46.02644458087508" lon="13.308503896755452"><ele>81.0</ele><time>2026-04-11T10:03:15Z</time></trkpt><trkpt lat="46.02659732779943" lon="13.308536827404433"><ele>81.0</ele><time>2026-04-11T10:03:16Z</time></trkpt><trkpt lat="46.026751202155154" lon="13.308571902230135"><ele>81.0</ele><time>2026-04-11T10:03:17Z</time></trkpt><trkpt lat="46.02690739667737" lon="13.308606652128828"><ele>81.66666666666667</ele><time>2026-04-11T10:03:18Z</time></trkpt><trkpt lat="46.027068199418906" lon="13.308641259698923"><ele>82.33333333333334</ele><time>2026-04-11T10:03:19Z</time></trkpt><trkpt lat="46.027229528380545" lon="13.308675899945415"><ele>83.0</ele><time>2026-04-11T10:03:20Z</time></trkpt><trkpt lat="46.027386062122225" lon="13.308705630487966"><ele>82.33333333333334</ele><time>2026-04-11T10:03:21Z</time></trkpt><trkpt lat="46.02754365742907" lon="13.308726329567603"><ele>81.66666666666667</ele><time>2026-04-11T10:03:22Z</time></trkpt><trkpt lat="46.027704444882914" lon="13.308730257712936"><ele>81.0</ele><time>2026-04-11T10:03:23Z</time></trkpt><trkpt lat="46.0278664113972" lon="13.308722217106633"><ele>81.0</ele><time>2026-04-11T10:03:24Z</time></trkpt><trkpt lat="46.02802844902211" lon="13.308702769929393"><ele>81.0</ele><time>2026-04-11T10:03:25Z</time></trkpt><trkpt lat="46.02818800713233" lon="13.3086658309256"><ele>81.0</ele><time>2026-04-11T10:03:26Z</time></trkpt><trkpt lat="46.028342221765996" lon="13.308606201524013"><ele>81.0</ele><time>2026-04-11T10:03:27Z</time></trkpt><trkpt lat="46.028490660931475" lon="13.308536518838745"><ele>81.0</ele><time>2026-04-11T10:03:28Z</time></trkpt><trkpt lat="46.028631637210545" lon="13.308462437563055"><ele>81.0</ele><time>2026-04-11T10:03:29Z</time></trkpt><trkpt lat="46.028768125957555" lon="13.308383344912764"><ele>81.0</ele><time>2026-04-11T10:03:30Z</time></trkpt><trkpt lat="46.02890483946889" lon="13.308299807703873"><ele>81.0</ele><time>2026-04-11T10:03:31Z</time></trkpt><trkpt lat="46.029044293467514" lon="13.308210442036717"><ele>81.0</ele><time>2026-04-11T10:03:32Z</time></trkpt><trkpt lat="46.029184979745615" lon="13.30812376045637"><ele>81.5</ele><time>2026-04-11T10:03:33Z</time></trkpt><trkpt lat="46.029326006011416" lon="13.308038691276227"><ele>82.0</ele><time>2026-04-11T10:03:34Z</time></trkpt><trkpt lat="46.029464361630794" lon="13.307953726941582"><ele>82.5</ele><time>2026-04-11T10:03:35Z</time></trkpt><trkpt lat="46.02959292861449" lon="13.307871532083198"><ele>83.0</ele><time>2026-04-11T10:03:36Z</time></trkpt><trkpt lat="46.02971305335658" lon="13.307800781268941"><ele>83.0</ele><time>2026-04-11T10:03:37Z</time></trkpt><trkpt lat="46.029831198674316" lon="13.307734994837185"><ele>83.0</ele><time>2026-04-11T10:03:38Z</time></trkpt><trkpt lat="46.02994543787505" lon="13.307676055295527"><ele>83.0</ele><time>2026-04-11T10:03:39Z</time></trkpt><trkpt lat="46.030056417774084" lon="13.307620682333685"><ele>83.0</ele><time>2026-04-11T10:03:40Z</time></trkpt><trkpt lat="46.03016666209618" lon="13.307567821698623"><ele>83.0</ele><time>2026-04-11T10:03:41Z</time></trkpt><trkpt lat="46.03027648734667" lon="13.307517605695246"><ele>83.0</ele><time>2026-04-11T10:03:42Z</time></trkpt><trkpt lat="46.03039612287648" lon="13.307489563927131"><ele>83.0</ele><time>2026-04-11T10:03:43Z</time></trkpt><trkpt lat="46.030519212633756" lon="13.30743577982226"><ele>83.0</ele><time>2026-04-11T10:03:44Z</time></trkpt><trkpt lat="46.030644446000004" lon="13.307361211639703"><ele>83.0</ele><time>2026-04-11T10:03:45Z</time></trkpt><trkpt lat="46.0307736752529" lon="13.307309148505908"><ele>83.0</ele><time>2026-04-11T10:03:46Z</time></trkpt><trkpt lat="46.03090426531762" lon="13.30725543446071"><ele>83.0</ele><time>2026-04-11T10:03:47Z</time></trkpt><trkpt lat="46.03103971017719" lon="13.307223768469381"><ele>83.0</ele><time>2026-04-11T10:03:48Z</time></trkpt><trkpt lat="46.03116961817756" lon="13.307169659104401"><ele>83.25</ele><time>2026-04-11T10:03:49Z</time></trkpt><trkpt lat="46.03129296798331" lon="13.307093718670968"><ele>83.5</ele><time>2026-04-11T10:03:49.999Z</time></trkpt><trkpt lat="46.031425859528326" lon="13.30706314469042"><ele>83.75</ele><time>2026-04-11T10:03:50.999Z</time></trkpt><trkpt lat="46.031552409291564" lon="13.307010706873664"><ele>84.0</ele><time>2026-04-11T10:03:51.999Z</time></trkpt><trkpt lat="46.03166997448934" lon="13.306961991952258"><ele>84.0</ele><time>2026-04-11T10:03:52.999Z</time></trkpt><trkpt lat="46.03177566299135" lon="13.306918198312955"><ele>84.0</ele><time>2026-04-11T10:03:53.999Z</time></trkpt><trkpt lat="46.031867472024786" lon="13.306880155832001"><ele>84.0</ele><time>2026-04-11T10:03:54.999Z</time></trkpt><trkpt lat="46.031954062749776" lon="13.306844275655207"><ele>84.0</ele><time>2026-04-11T10:03:55.999Z</time></trkpt><trkpt lat="46.032044381022686" lon="13.306806850912219"><ele>84.0</ele><time>2026-04-11T10:03:56.999Z</time></trkpt><trkpt lat="46.03213831845357" lon="13.30676792651036"><ele>84.0</ele><time>2026-04-11T10:03:57.999Z</time></trkpt><trkpt lat="46.032234024808844" lon="13.30672826912889"><ele>84.0</ele><time>2026-04-11T10:03:58.999Z</time></trkpt><trkpt lat="46.032331095289955" lon="13.306688046500147"><ele>84.0</ele><time>2026-04-11T10:03:59.999Z</time></trkpt><trkpt lat="46.03242477587795" lon="13.30665123509667"><ele>84.0</ele><time>2026-04-11T10:04:00.999Z</time></trkpt><trkpt lat="46.0325091698683" lon="13.306613063977379"><ele>84.0</ele><time>2026-04-11T10:04:01.999Z</time></trkpt><trkpt lat="46.03257988462683" lon="13.306537714317038"><ele>84.16666666666667</ele><time>2026-04-11T10:04:02.999Z</time></trkpt><trkpt lat="46.03266103859398" lon="13.306489580186007"><ele>84.33333333333333</ele><time>2026-04-11T10:04:03.999Z</time></trkpt><trkpt lat="46.032744781930504" lon="13.306444844980508"><ele>84.5</ele><time>2026-04-11T10:04:04.999Z</time></trkpt><trkpt lat="46.03282980459111" lon="13.306407206908323"><ele>84.66666666666666</ele><time>2026-04-11T10:04:05.999Z</time></trkpt><trkpt lat="46.03291541648448" lon="13.306376444197047"><ele>84.83333333333333</ele><time>2026-04-11T10:04:06.999Z</time></trkpt><trkpt lat="46.033003577291154" lon="13.30635060077377"><ele>85.0</ele><time>2026-04-11T10:04:07.999Z</time></trkpt><trkpt lat="46.033101584446534" lon="13.30633824588224"><ele>85.2</ele><time>2026-04-11T10:04:09Z</time></trkpt><trkpt lat="46.033199199446614" lon="13.306334921206265"><ele>85.4</ele><time>2026-04-11T10:04:10Z</time></trkpt><trkpt lat="46.03329284006476" lon="13.306331239284688"><ele>85.6</ele><time>2026-04-11T10:04:11Z</time></trkpt><trkpt lat="46.03338833088269" lon="13.306325447037656"><ele>85.8</ele><time>2026-04-11T10:04:12Z</time></trkpt><trkpt lat="46.03348756343514" lon="13.306322324036367"><ele>86.0</ele><time>2026-04-11T10:04:13Z</time></trkpt><trkpt lat="46.03359957993358" lon="13.306316439641222"><ele>85.66666666666667</ele><time>2026-04-11T10:04:14Z</time></trkpt><trkpt lat="46.033720262575365" lon="13.30631388225813"><ele>85.33333333333334</ele><time>2026-04-11T10:04:15Z</time></trkpt><trkpt lat="46.033817614913076" lon="13.30631546490545"><ele>85.0</ele><time>2026-04-11T10:04:16Z</time></trkpt><trkpt lat="46.03390035703014" lon="13.306313007057586"><ele>84.66666666666667</ele><time>2026-04-11T10:04:17Z</time></trkpt><trkpt lat="46.033975955556265" lon="13.306313213319633"><ele>84.33333333333333</ele><time>2026-04-11T10:04:18Z</time></trkpt><trkpt lat="46.0340391461539" lon="13.306308110846288"><ele>84.0</ele><time>2026-04-11T10:04:19Z</time></trkpt><trkpt lat="46.03410446381087" lon="13.306303634027817"><ele>84.0</ele><time>2026-04-11T10:04:20Z</time></trkpt><trkpt lat="46.034178449883" lon="13.306298669669243"><ele>84.0</ele><time>2026-04-11T10:04:21Z</time></trkpt><trkpt lat="46.03426653912103" lon="13.306316611593621"><ele>84.0</ele><time>2026-04-11T10:04:22Z</time></trkpt><trkpt lat="46.03437463505903" lon="13.306313298622422"><ele>84.0</ele><time>2026-04-11T10:04:23Z</time></trkpt><trkpt lat="46.034504847886566" lon="13.306308786794085"><ele>84.0</ele><time>2026-04-11T10:04:24Z</time></trkpt><trkpt lat="46.034657506921505" lon="13.306302990163298"><ele>84.0</ele><time>2026-04-11T10:04:25Z</time></trkpt><trkpt lat="46.03484528281768" lon="13.306295860132916"><ele>84.0</ele><time>2026-04-11T10:04:26Z</time></trkpt><trkpt lat="46.03506517896307" lon="13.306288862684754"><ele>84.0</ele><time>2026-04-11T10:04:27Z</time></trkpt><trkpt lat="46.035240478038084" lon="13.306282778821302"><ele>84.0</ele><time>2026-04-11T10:04:28Z</time></trkpt><trkpt lat="46.035416872294725" lon="13.306276563665195"><ele>84.0</ele><time>2026-04-11T10:04:29Z</time></trkpt><trkpt lat="46.03560702628015" lon="13.30626986138894"><ele>84.0</ele><time>2026-04-11T10:04:30Z</time></trkpt><trkpt lat="46.035813148691865" lon="13.306262379623318"><ele>84.33333333333333</ele><time>2026-04-11T10:04:31Z</time></trkpt><trkpt lat="46.03600938448158" lon="13.306255313028911"><ele>84.66666666666666</ele><time>2026-04-11T10:04:32Z</time></trkpt><trkpt lat="46.03616823786203" lon="13.30624959260331"><ele>85.0</ele><time>2026-04-11T10:04:33Z</time></trkpt><trkpt lat="46.03630819115176" lon="13.306244552782214"><ele>85.0</ele><time>2026-04-11T10:04:34Z</time></trkpt><trkpt lat="46.03644777832244" lon="13.30624032026147"><ele>85.0</ele><time>2026-04-11T10:04:35Z</time></trkpt><trkpt lat="46.036584280335596" lon="13.30623620710965"><ele>85.0</ele><time>2026-04-11T10:04:36Z</time></trkpt><trkpt lat="46.03672594414803" lon="13.306231938419911"><ele>85.0</ele><time>2026-04-11T10:04:37Z</time></trkpt><trkpt lat="46.03687433609747" lon="13.306227466993928"><ele>85.33333333333333</ele><time>2026-04-11T10:04:38Z</time></trkpt><trkpt lat="46.03702800635767" lon="13.306222836519419"><ele>85.66666666666667</ele><time>2026-04-11T10:04:39Z</time></trkpt><trkpt lat="46.03718159871879" lon="13.306218208405104"><ele>86.0</ele><time>2026-04-11T10:04:40Z</time></trkpt><trkpt lat="46.03733832197449" lon="13.30621313411736"><ele>86.0</ele><time>2026-04-11T10:04:41Z</time></trkpt><trkpt lat="46.03749463561061" lon="13.306207917553808"><ele>86.0</ele><time>2026-04-11T10:04:42Z</time></trkpt><trkpt lat="46.0376572130521" lon="13.30620256356631"><ele>86.0</ele><time>2026-04-11T10:04:43Z</time></trkpt><trkpt lat="46.03782084350104" lon="13.30619858507545"><ele>86.0</ele><time>2026-04-11T10:04:44Z</time></trkpt><trkpt lat="46.037978627044296" lon="13.306195085843777"><ele>86.0</ele><time>2026-04-11T10:04:45Z</time></trkpt><trkpt lat="46.03812027016578" lon="13.306191944564636"><ele>86.0</ele><time>2026-04-11T10:04:46Z</time></trkpt><trkpt lat="46.03825298143657" lon="13.306189001366985"><ele>86.0</ele><time>2026-04-11T10:04:47Z</time></trkpt><trkpt lat="46.03838001060436" lon="13.306185382753732"><ele>85.8</ele><time>2026-04-11T10:04:48Z</time></trkpt><trkpt lat="46.03849032802789" lon="13.306182325280218"><ele>85.6</ele><time>2026-04-11T10:04:49Z</time></trkpt><trkpt lat="46.03859721629967" lon="13.306179362847793"><ele>85.4</ele><time>2026-04-11T10:04:50Z</time></trkpt><trkpt lat="46.03870417189218" lon="13.306176398548908"><ele>85.2</ele><time>2026-04-11T10:04:51Z</time></trkpt><trkpt lat="46.03880390238818" lon="13.306173634495249"><ele>85.0</ele><time>2026-04-11T10:04:52Z</time></trkpt><trkpt lat="46.03888972321935" lon="13.30617115801941"><ele>85.0</ele><time>2026-04-11T10:04:53Z</time></trkpt><trkpt lat="46.038964970426164" lon="13.306168976940512"><ele>85.0</ele><time>2026-04-11T10:04:54Z</time></trkpt><trkpt lat="46.03903723308524" lon="13.306166882370704"><ele>85.0</ele><time>2026-04-11T10:04:55Z</time></trkpt><trkpt lat="46.03911224196554" lon="13.306164925676057"><ele>85.0</ele><time>2026-04-11T10:04:56Z</time></trkpt><trkpt lat="46.039196152243775" lon="13.306162774131117"><ele>85.0</ele><time>2026-04-11T10:04:57Z</time></trkpt><trkpt lat="46.03934505705635" lon="13.306158956056466"><ele>85.33333333333333</ele><time>2026-04-11T10:04:58Z</time></trkpt><trkpt lat="46.03955077195502" lon="13.306153681316975"><ele>85.66666666666667</ele><time>2026-04-11T10:04:59Z</time></trkpt><trkpt lat="46.03973476979252" lon="13.306148963423132"><ele>86.0</ele><time>2026-04-11T10:05:00Z</time></trkpt><trkpt lat="46.03988132367861" lon="13.30614520562983"><ele>86.19999999999999</ele><time>2026-04-11T10:05:01Z</time></trkpt><trkpt lat="46.04000596605033" lon="13.306142009671616"><ele>86.39999999999999</ele><time>2026-04-11T10:05:02Z</time></trkpt><trkpt lat="46.04011239121182" lon="13.306136615782483"><ele>86.6</ele><time>2026-04-11T10:05:03Z</time></trkpt><trkpt lat="46.0402016641258" lon="13.306123860806801"><ele>86.8</ele><time>2026-04-11T10:05:04Z</time></trkpt><trkpt lat="46.04027621755869" lon="13.306170610357839"><ele>87.0</ele><time>2026-04-11T10:05:05Z</time></trkpt><trkpt lat="46.04033616938264" lon="13.306240232635838"><ele>87.0</ele><time>2026-04-11T10:05:06Z</time></trkpt><trkpt lat="46.04038637510702" lon="13.306333706535945"><ele>87.0</ele><time>2026-04-11T10:05:07Z</time></trkpt><trkpt lat="46.04043534845511" lon="13.306453677216728"><ele>87.0</ele><time>2026-04-11T10:05:08Z</time></trkpt><trkpt lat="46.0404865116939" lon="13.306570575789612"><ele>87.0</ele><time>2026-04-11T10:05:09Z</time></trkpt><trkpt lat="46.040533111466" lon="13.306688072438023"><ele>87.0</ele><time>2026-04-11T10:05:10Z</time></trkpt><trkpt lat="46.040573183932544" lon="13.30682240495475"><ele>87.25</ele><time>2026-04-11T10:05:11Z</time></trkpt><trkpt lat="46.04061216277054" lon="13.306965550379465"><ele>87.5</ele><time>2026-04-11T10:05:12Z</time></trkpt><trkpt lat="46.040655118624564" lon="13.30712421236479"><ele>87.75</ele><time>2026-04-11T10:05:13Z</time></trkpt><trkpt lat="46.04069835663238" lon="13.307295980570215"><ele>88.0</ele><time>2026-04-11T10:05:14Z</time></trkpt><trkpt lat="46.04074262275877" lon="13.307479775124158"><ele>88.0</ele><time>2026-04-11T10:05:15Z</time></trkpt><trkpt lat="46.04078758885914" lon="13.30765998170777"><ele>88.0</ele><time>2026-04-11T10:05:16Z</time></trkpt><trkpt lat="46.0408339527505" lon="13.307844284794642"><ele>88.0</ele><time>2026-04-11T10:05:17Z</time></trkpt><trkpt lat="46.040881620801166" lon="13.308037364915403"><ele>88.0</ele><time>2026-04-11T10:05:18Z</time></trkpt><trkpt lat="46.040927163421664" lon="13.308226364073342"><ele>88.0</ele><time>2026-04-11T10:05:19Z</time></trkpt><trkpt lat="46.04097017339743" lon="13.30841082143458"><ele>88.0</ele><time>2026-04-11T10:05:20Z</time></trkpt><trkpt lat="46.04101557983593" lon="13.308591242116794"><ele>88.0</ele><time>2026-04-11T10:05:21Z</time></trkpt><trkpt lat="46.041066487970234" lon="13.308767235799563"><ele>88.0</ele><time>2026-04-11T10:05:22Z</time></trkpt><trkpt lat="46.04112511389648" lon="13.308939490486072"><ele>88.0</ele><time>2026-04-11T10:05:23Z</time></trkpt><trkpt lat="46.04119514187412" lon="13.309116622615635"><ele>88.0</ele><time>2026-04-11T10:05:24Z</time></trkpt><trkpt lat="46.04128336544432" lon="13.309290565502858"><ele>88.0</ele><time>2026-04-11T10:05:25Z</time></trkpt><trkpt lat="46.041381909002276" lon="13.309464537873833"><ele>88.0</ele><time>2026-04-11T10:05:26Z</time></trkpt><trkpt lat="46.04148822748151" lon="13.309625021768145"><ele>88.0</ele><time>2026-04-11T10:05:27Z</time></trkpt><trkpt lat="46.04160127854143" lon="13.30977490794193"><ele>88.0</ele><time>2026-04-11T10:05:28Z</time></trkpt><trkpt lat="46.041722650099956" lon="13.309913403567109"><ele>88.0</ele><time>2026-04-11T10:05:29Z</time></trkpt><trkpt lat="46.041851014400265" lon="13.31003827953727"><ele>87.66666666666666</ele><time>2026-04-11T10:05:30Z</time></trkpt><trkpt lat="46.041985869237415" lon="13.310145814761745"><ele>87.33333333333333</ele><time>2026-04-11T10:05:31Z</time></trkpt><trkpt lat="46.04212802154454" lon="13.31023392678752"><ele>87.0</ele><time>2026-04-11T10:05:32Z</time></trkpt><trkpt lat="46.04226871710817" lon="13.31031686364994"><ele>87.0</ele><time>2026-04-11T10:05:33Z</time></trkpt><trkpt lat="46.04240992639989" lon="13.310396646078136"><ele>87.0</ele><time>2026-04-11T10:05:34Z</time></trkpt><trkpt lat="46.04255283866402" lon="13.310477075109171"><ele>87.0</ele><time>2026-04-11T10:05:35Z</time></trkpt><trkpt lat="46.042691652222125" lon="13.3105811096837"><ele>86.0</ele><time>2026-04-11T10:05:36Z</time></trkpt><trkpt lat="46.04285517343916" lon="13.310651427971331"><ele>85.0</ele><time>2026-04-11T10:05:37Z</time></trkpt><trkpt lat="46.04301145509535" lon="13.310741882579107"><ele>84.0</ele><time>2026-04-11T10:05:38Z</time></trkpt><trkpt lat="46.04316275149905" lon="13.310830629160396"><ele>84.66666666666667</ele><time>2026-04-11T10:05:39Z</time></trkpt><trkpt lat="46.04330736957859" lon="13.310916200621914"><ele>85.33333333333334</ele><time>2026-04-11T10:05:40Z</time></trkpt><trkpt lat="46.043450440850314" lon="13.310997628917384"><ele>86.0</ele><time>2026-04-11T10:05:41Z</time></trkpt><trkpt lat="46.04359056538562" lon="13.31107854093722"><ele>86.0</ele><time>2026-04-11T10:05:42Z</time></trkpt><trkpt lat="46.04373168686077" lon="13.311159080438603"><ele>86.0</ele><time>2026-04-11T10:05:43Z</time></trkpt><trkpt lat="46.043879523838804" lon="13.311243086312857"><ele>86.0</ele><time>2026-04-11T10:05:44Z</time></trkpt><trkpt lat="46.0440316709764" lon="13.311330436998862"><ele>86.66666666666667</ele><time>2026-04-11T10:05:45Z</time></trkpt><trkpt lat="46.04419485528644" lon="13.311426955995245"><ele>87.33333333333333</ele><time>2026-04-11T10:05:46Z</time></trkpt><trkpt lat="46.04436557280442" lon="13.311527596154153"><ele>88.0</ele><time>2026-04-11T10:05:47Z</time></trkpt><trkpt lat="46.044543397816916" lon="13.311630394778431"><ele>88.0</ele><time>2026-04-11T10:05:48Z</time></trkpt><trkpt lat="46.044730012340665" lon="13.311737510216187"><ele>88.0</ele><time>2026-04-11T10:05:49Z</time></trkpt><trkpt lat="46.04492036628611" lon="13.311846349220916"><ele>88.0</ele><time>2026-04-11T10:05:50Z</time></trkpt><trkpt lat="46.04509970083617" lon="13.311949411886955"><ele>88.0</ele><time>2026-04-11T10:05:51Z</time></trkpt><trkpt lat="46.04527648592365" lon="13.31205741689767"><ele>88.0</ele><time>2026-04-11T10:05:52Z</time></trkpt><trkpt lat="46.045453875411376" lon="13.312163549740271"><ele>88.0</ele><time>2026-04-11T10:05:53Z</time></trkpt><trkpt lat="46.045635221507546" lon="13.312266378214773"><ele>88.0</ele><time>2026-04-11T10:05:54Z</time></trkpt><trkpt lat="46.04582821857799" lon="13.312364491696691"><ele>88.0</ele><time>2026-04-11T10:05:55Z</time></trkpt><trkpt lat="46.04603697346463" lon="13.31245535774653"><ele>88.0</ele><time>2026-04-11T10:05:56Z</time></trkpt><trkpt lat="46.0462573951509" lon="13.312537418034987"><ele>88.0</ele><time>2026-04-11T10:05:57Z</time></trkpt><trkpt lat="46.04647592297651" lon="13.31261042186246"><ele>88.0</ele><time>2026-04-11T10:05:58Z</time></trkpt><trkpt lat="46.04669248258708" lon="13.312679882499072"><ele>88.0</ele><time>2026-04-11T10:05:59Z</time></trkpt><trkpt lat="46.04690979205828" lon="13.312752942087462"><ele>88.0</ele><time>2026-04-11T10:05:59.999Z</time></trkpt><trkpt lat="46.047124689557215" lon="13.31282813863968"><ele>88.0</ele><time>2026-04-11T10:06:00.999Z</time></trkpt><trkpt lat="46.047339954522336" lon="13.312902588046338"><ele>88.0</ele><time>2026-04-11T10:06:01.999Z</time></trkpt><trkpt lat="46.047552997568545" lon="13.312976089932858"><ele>88.0</ele><time>2026-04-11T10:06:02.999Z</time></trkpt><trkpt lat="46.047766924855935" lon="13.31305023892027"><ele>88.0</ele><time>2026-04-11T10:06:03.999Z</time></trkpt><trkpt lat="46.047980418926215" lon="13.31312139454612"><ele>88.0</ele><time>2026-04-11T10:06:04.999Z</time></trkpt><trkpt lat="46.04819723648551" lon="13.313193884015948"><ele>87.33333333333333</ele><time>2026-04-11T10:06:05.999Z</time></trkpt><trkpt lat="46.04841247336318" lon="13.313267955808262"><ele>86.66666666666667</ele><time>2026-04-11T10:06:06.999Z</time></trkpt><trkpt lat="46.04862274434871" lon="13.313340584648762"><ele>86.0</ele><time>2026-04-11T10:06:07.999Z</time></trkpt><trkpt lat="46.04882975538144" lon="13.313410982510769"><ele>86.0</ele><time>2026-04-11T10:06:08.999Z</time></trkpt><trkpt lat="46.04902904994808" lon="13.31347761132317"><ele>86.0</ele><time>2026-04-11T10:06:09.999Z</time></trkpt><trkpt lat="46.04922117340263" lon="13.313543910528296"><ele>86.0</ele><time>2026-04-11T10:06:10.999Z</time></trkpt><trkpt lat="46.04940735065552" lon="13.313608840899713"><ele>86.33333333333334</ele><time>2026-04-11T10:06:11.999Z</time></trkpt><trkpt lat="46.04959160640635" lon="13.313672084255419"><ele>86.66666666666667</ele><time>2026-04-11T10:06:12.999Z</time></trkpt><trkpt lat="46.04977333542567" lon="13.313731231217664"><ele>87.0</ele><time>2026-04-11T10:06:13.999Z</time></trkpt><trkpt lat="46.049957770760884" lon="13.313783224611552"><ele>87.33333333333333</ele><time>2026-04-11T10:06:15Z</time></trkpt><trkpt lat="46.050149615107074" lon="13.313826899081507"><ele>87.66666666666666</ele><time>2026-04-11T10:06:16Z</time></trkpt><trkpt lat="46.050342612487626" lon="13.313884236551631"><ele>88.0</ele><time>2026-04-11T10:06:17Z</time></trkpt><trkpt lat="46.05054215134129" lon="13.31388336208805"><ele>88.0</ele><time>2026-04-11T10:06:18Z</time></trkpt><trkpt lat="46.05073994529205" lon="13.313896507783163"><ele>88.0</ele><time>2026-04-11T10:06:19Z</time></trkpt><trkpt lat="46.0509387689475" lon="13.31390588838527"><ele>88.0</ele><time>2026-04-11T10:06:20Z</time></trkpt><trkpt lat="46.05113801179753" lon="13.313914620610289"><ele>88.33333333333333</ele><time>2026-04-11T10:06:21Z</time></trkpt><trkpt lat="46.05133503223527" lon="13.313925693716214"><ele>88.66666666666667</ele><time>2026-04-11T10:06:22Z</time></trkpt><trkpt lat="46.05153047364316" lon="13.313934520364787"><ele>89.0</ele><time>2026-04-11T10:06:23Z</time></trkpt><trkpt lat="46.05172590605929" lon="13.313942472201473"><ele>89.0</ele><time>2026-04-11T10:06:24Z</time></trkpt><trkpt lat="46.05191056194438" lon="13.313947792861088"><ele>89.0</ele><time>2026-04-11T10:06:25Z</time></trkpt><trkpt lat="46.052075344046834" lon="13.313953314727756"><ele>89.0</ele><time>2026-04-11T10:06:26Z</time></trkpt><trkpt lat="46.05222175647353" lon="13.313959451869897"><ele>89.0</ele><time>2026-04-11T10:06:27Z</time></trkpt><trkpt lat="46.05236370101663" lon="13.313965310999532"><ele>89.0</ele><time>2026-04-11T10:06:28Z</time></trkpt><trkpt lat="46.05250131227196" lon="13.313970270633924"><ele>89.0</ele><time>2026-04-11T10:06:29Z</time></trkpt><trkpt lat="46.052621276107644" lon="13.313976395755352"><ele>89.0</ele><time>2026-04-11T10:06:30Z</time></trkpt><trkpt lat="46.052735685015094" lon="13.313986908063825"><ele>89.0</ele><time>2026-04-11T10:06:31Z</time></trkpt><trkpt lat="46.052848982573" lon="13.314013635259936"><ele>89.0</ele><time>2026-04-11T10:06:32Z</time></trkpt><trkpt lat="46.05296096977273" lon="13.314050276259877"><ele>89.0</ele><time>2026-04-11T10:06:33Z</time></trkpt><trkpt lat="46.05306409825163" lon="13.314104598791094"><ele>89.0</ele><time>2026-04-11T10:06:34Z</time></trkpt><trkpt lat="46.05316729774058" lon="13.314141211549995"><ele>89.0</ele><time>2026-04-11T10:06:35Z</time></trkpt><trkpt lat="46.05325953599485" lon="13.314209666703672"><ele>89.2</ele><time>2026-04-11T10:06:36Z</time></trkpt><trkpt lat="46.053366960489505" lon="13.314186941449284"><ele>89.4</ele><time>2026-04-11T10:06:37Z</time></trkpt><trkpt lat="46.05346804294505" lon="13.314119622787093"><ele>89.6</ele><time>2026-04-11T10:06:38Z</time></trkpt><trkpt lat="46.053562002420385" lon="13.314077641529678"><ele>89.8</ele><time>2026-04-11T10:06:39Z</time></trkpt><trkpt lat="46.05366008517676" lon="13.314038609507033"><ele>90.0</ele><time>2026-04-11T10:06:40Z</time></trkpt><trkpt lat="46.05374775635552" lon="13.313983414345113"><ele>90.0</ele><time>2026-04-11T10:06:41Z</time></trkpt><trkpt lat="46.053862845111276" lon="13.314024828295269"><ele>90.0</ele><time>2026-04-11T10:06:42Z</time></trkpt><trkpt lat="46.053972929590934" lon="13.314032882781966"><ele>90.0</ele><time>2026-04-11T10:06:43Z</time></trkpt><trkpt lat="46.05408952650722" lon="13.314034099666383"><ele>90.0</ele><time>2026-04-11T10:06:44Z</time></trkpt><trkpt lat="46.05421549178328" lon="13.314038631179091"><ele>90.0</ele><time>2026-04-11T10:06:45Z</time></trkpt><trkpt lat="46.054355966821625" lon="13.31404711783709"><ele>90.0</ele><time>2026-04-11T10:06:46Z</time></trkpt><trkpt lat="46.05450620293926" lon="13.314051073411374"><ele>90.0</ele><time>2026-04-11T10:06:47Z</time></trkpt><trkpt lat="46.054668017971615" lon="13.314053811656217"><ele>90.0</ele><time>2026-04-11T10:06:48Z</time></trkpt><trkpt lat="46.05483464651268" lon="13.314058379032996"><ele>90.0</ele><time>2026-04-11T10:06:49Z</time></trkpt><trkpt lat="46.05500134813166" lon="13.314060398986662"><ele>90.0</ele><time>2026-04-11T10:06:50Z</time></trkpt><trkpt lat="46.05517360646254" lon="13.314053802954751"><ele>91.0</ele><time>2026-04-11T10:06:51Z</time></trkpt><trkpt lat="46.055357589604256" lon="13.3140412215578"><ele>92.0</ele><time>2026-04-11T10:06:52Z</time></trkpt><trkpt lat="46.055549449860074" lon="13.314025226971477"><ele>93.0</ele><time>2026-04-11T10:06:53Z</time></trkpt><trkpt lat="46.055750467313906" lon="13.314002602851135"><ele>93.0</ele><time>2026-04-11T10:06:54Z</time></trkpt><trkpt lat="46.05595631800984" lon="13.313973945283358"><ele>93.0</ele><time>2026-04-11T10:06:55Z</time></trkpt><trkpt lat="46.056163812464135" lon="13.31393653107584"><ele>93.0</ele><time>2026-04-11T10:06:56Z</time></trkpt><trkpt lat="46.056363674601954" lon="13.313893586561012"><ele>93.0</ele><time>2026-04-11T10:06:57Z</time></trkpt><trkpt lat="46.056554592395116" lon="13.31384834939882"><ele>93.0</ele><time>2026-04-11T10:06:58Z</time></trkpt><trkpt lat="46.056740023093234" lon="13.31380086797728"><ele>93.0</ele><time>2026-04-11T10:06:59Z</time></trkpt><trkpt lat="46.05692036618797" lon="13.313751353730462"><ele>93.0</ele><time>2026-04-11T10:07:00Z</time></trkpt><trkpt lat="46.05710343472999" lon="13.313696282118965"><ele>93.0</ele><time>2026-04-11T10:07:01Z</time></trkpt><trkpt lat="46.05728869716188" lon="13.313630486049387"><ele>93.0</ele><time>2026-04-11T10:07:02Z</time></trkpt><trkpt lat="46.057473429476026" lon="13.313559179102551"><ele>93.0</ele><time>2026-04-11T10:07:03Z</time></trkpt><trkpt lat="46.05765736592076" lon="13.313483411889022"><ele>93.0</ele><time>2026-04-11T10:07:04Z</time></trkpt><trkpt lat="46.057844119755764" lon="13.313398269225164"><ele>93.0</ele><time>2026-04-11T10:07:05Z</time></trkpt><trkpt lat="46.058028810662336" lon="13.313310010097203"><ele>93.0</ele><time>2026-04-11T10:07:06Z</time></trkpt><trkpt lat="46.05820726664286" lon="13.313221286555628"><ele>93.0</ele><time>2026-04-11T10:07:07Z</time></trkpt><trkpt lat="46.05838516664927" lon="13.313128636549681"><ele>93.0</ele><time>2026-04-11T10:07:08Z</time></trkpt><trkpt lat="46.05857028961104" lon="13.313050796966795"><ele>93.33333333333333</ele><time>2026-04-11T10:07:09Z</time></trkpt><trkpt lat="46.058752913508876" lon="13.312944029097713"><ele>93.66666666666666</ele><time>2026-04-11T10:07:10Z</time></trkpt><trkpt lat="46.058933794321" lon="13.312826926329777"><ele>94.0</ele><time>2026-04-11T10:07:11Z</time></trkpt><trkpt lat="46.059112825158806" lon="13.312707105411327"><ele>94.0</ele><time>2026-04-11T10:07:12Z</time></trkpt><trkpt lat="46.059283019280954" lon="13.312561824789704"><ele>94.0</ele><time>2026-04-11T10:07:13Z</time></trkpt><trkpt lat="46.05945958570644" lon="13.312433800306161"><ele>94.0</ele><time>2026-04-11T10:07:14Z</time></trkpt><trkpt lat="46.05964514301528" lon="13.312326373568101"><ele>94.0</ele><time>2026-04-11T10:07:15Z</time></trkpt><trkpt lat="46.05982551375093" lon="13.312195577020773"><ele>94.0</ele><time>2026-04-11T10:07:16Z</time></trkpt><trkpt lat="46.06000212889355" lon="13.31204100140183"><ele>94.0</ele><time>2026-04-11T10:07:17Z</time></trkpt><trkpt lat="46.06018788813456" lon="13.311906202480499"><ele>94.33333333333333</ele><time>2026-04-11T10:07:18Z</time></trkpt><trkpt lat="46.060372331531525" lon="13.311775271155685"><ele>94.66666666666667</ele><time>2026-04-11T10:07:19Z</time></trkpt><trkpt lat="46.060558249363005" lon="13.311643248532455"><ele>95.0</ele><time>2026-04-11T10:07:20Z</time></trkpt><trkpt lat="46.06074292734495" lon="13.311509657533803"><ele>95.66666666666667</ele><time>2026-04-11T10:07:21Z</time></trkpt><trkpt lat="46.06092954803436" lon="13.311373887985997"><ele>96.33333333333334</ele><time>2026-04-11T10:07:22Z</time></trkpt><trkpt lat="46.061116113761365" lon="13.311238085269474"><ele>97.0</ele><time>2026-04-11T10:07:23Z</time></trkpt><trkpt lat="46.06129976427911" lon="13.311102050360466"><ele>97.0</ele><time>2026-04-11T10:07:24Z</time></trkpt><trkpt lat="46.06147934707295" lon="13.310970680486548"><ele>97.0</ele><time>2026-04-11T10:07:25Z</time></trkpt><trkpt lat="46.061655908375364" lon="13.3108422096861"><ele>97.0</ele><time>2026-04-11T10:07:26Z</time></trkpt><trkpt lat="46.06182718690614" lon="13.310718280505814"><ele>96.66666666666667</ele><time>2026-04-11T10:07:27Z</time></trkpt><trkpt lat="46.06199943311299" lon="13.310594148622434"><ele>96.33333333333334</ele><time>2026-04-11T10:07:28Z</time></trkpt><trkpt lat="46.06217898253556" lon="13.310465831591022"><ele>96.0</ele><time>2026-04-11T10:07:29Z</time></trkpt><trkpt lat="46.062361708960545" lon="13.310334643613615"><ele>97.0</ele><time>2026-04-11T10:07:30Z</time></trkpt><trkpt lat="46.062536945696124" lon="13.310210489184177"><ele>98.0</ele><time>2026-04-11T10:07:31Z</time></trkpt><trkpt lat="46.06271191169263" lon="13.310090565936896"><ele>99.0</ele><time>2026-04-11T10:07:32Z</time></trkpt><trkpt lat="46.0628864009409" lon="13.309961363345916"><ele>99.0</ele><time>2026-04-11T10:07:33Z</time></trkpt><trkpt lat="46.06306435866313" lon="13.309828831490222"><ele>99.0</ele><time>2026-04-11T10:07:34Z</time></trkpt><trkpt lat="46.06324964996615" lon="13.309696042751154"><ele>99.0</ele><time>2026-04-11T10:07:35Z</time></trkpt><trkpt lat="46.063440936932885" lon="13.309555749528615"><ele>99.33333333333334</ele><time>2026-04-11T10:07:36Z</time></trkpt><trkpt lat="46.06363037324798" lon="13.309418920002997"><ele>99.66666666666667</ele><time>2026-04-11T10:07:37Z</time></trkpt><trkpt lat="46.06381713218362" lon="13.309283287978165"><ele>100.0</ele><time>2026-04-11T10:07:38Z</time></trkpt><trkpt lat="46.06400334385897" lon="13.30914743175897"><ele>100.0</ele><time>2026-04-11T10:07:39Z</time></trkpt><trkpt lat="46.06418731511754" lon="13.309016140800003"><ele>100.0</ele><time>2026-04-11T10:07:40Z</time></trkpt><trkpt lat="46.06436713284972" lon="13.30888648323263"><ele>100.0</ele><time>2026-04-11T10:07:41Z</time></trkpt><trkpt lat="46.06454352290563" lon="13.308757964194111"><ele>100.0</ele><time>2026-04-11T10:07:42Z</time></trkpt><trkpt lat="46.06471840929347" lon="13.308632960309572"><ele>100.0</ele><time>2026-04-11T10:07:43Z</time></trkpt><trkpt lat="46.06489287866576" lon="13.308509979684933"><ele>100.0</ele><time>2026-04-11T10:07:44Z</time></trkpt><trkpt lat="46.06506897156161" lon="13.308399734663658"><ele>100.0</ele><time>2026-04-11T10:07:45Z</time></trkpt><trkpt lat="46.0652483992525" lon="13.308303921662846"><ele>100.0</ele><time>2026-04-11T10:07:46Z</time></trkpt><trkpt lat="46.06543515479648" lon="13.308234371044387"><ele>100.0</ele><time>2026-04-11T10:07:47Z</time></trkpt><trkpt lat="46.06561773264786" lon="13.308165791959471"><ele>100.33333333333334</ele><time>2026-04-11T10:07:48Z</time></trkpt><trkpt lat="46.06579920942736" lon="13.308114056431208"><ele>100.66666666666666</ele><time>2026-04-11T10:07:49Z</time></trkpt><trkpt lat="46.065977415311984" lon="13.308079538538275"><ele>101.0</ele><time>2026-04-11T10:07:50Z</time></trkpt><trkpt lat="46.0661544241013" lon="13.308055672967573"><ele>101.0</ele><time>2026-04-11T10:07:51Z</time></trkpt><trkpt lat="46.0663317824411" lon="13.308045645243075"><ele>101.0</ele><time>2026-04-11T10:07:52Z</time></trkpt><trkpt lat="46.06650907419701" lon="13.308052263833403"><ele>101.0</ele><time>2026-04-11T10:07:53Z</time></trkpt><trkpt lat="46.06668806104153" lon="13.308074343496502"><ele>101.66666666666666</ele><time>2026-04-11T10:07:54Z</time></trkpt><trkpt lat="46.066873491686" lon="13.308107040618816"><ele>102.33333333333334</ele><time>2026-04-11T10:07:55Z</time></trkpt><trkpt lat="46.06706288912568" lon="13.308145442470027"><ele>103.0</ele><time>2026-04-11T10:07:56Z</time></trkpt><trkpt lat="46.06725138997863" lon="13.308190949180373"><ele>103.0</ele><time>2026-04-11T10:07:57Z</time></trkpt><trkpt lat="46.067437422104305" lon="13.308239670347549"><ele>103.0</ele><time>2026-04-11T10:07:58Z</time></trkpt><trkpt lat="46.06761791238808" lon="13.308286681997224"><ele>103.0</ele><time>2026-04-11T10:07:59Z</time></trkpt><trkpt lat="46.06779046001363" lon="13.308332925264146"><ele>102.33333333333334</ele><time>2026-04-11T10:08:00Z</time></trkpt><trkpt lat="46.067956540015544" lon="13.308376844107046"><ele>101.66666666666666</ele><time>2026-04-11T10:08:01Z</time></trkpt><trkpt lat="46.06811985151785" lon="13.308419887788993"><ele>101.0</ele><time>2026-04-11T10:08:02Z</time></trkpt><trkpt lat="46.06827768128559" lon="13.308461213521296"><ele>101.0</ele><time>2026-04-11T10:08:03Z</time></trkpt><trkpt lat="46.06842316942685" lon="13.3084997903074"><ele>101.0</ele><time>2026-04-11T10:08:04Z</time></trkpt><trkpt lat="46.06856302679188" lon="13.30853576322436"><ele>101.0</ele><time>2026-04-11T10:08:05Z</time></trkpt><trkpt lat="46.06869825567854" lon="13.30857122637966"><ele>101.0</ele><time>2026-04-11T10:08:06Z</time></trkpt><trkpt lat="46.06881752745917" lon="13.308602542898939"><ele>101.0</ele><time>2026-04-11T10:08:07Z</time></trkpt><trkpt lat="46.0689331723919" lon="13.308633409510835"><ele>101.0</ele><time>2026-04-11T10:08:08Z</time></trkpt><trkpt lat="46.06904452812735" lon="13.308663861387833"><ele>101.0</ele><time>2026-04-11T10:08:09Z</time></trkpt><trkpt lat="46.069153472049365" lon="13.308693014802987"><ele>101.0</ele><time>2026-04-11T10:08:10Z</time></trkpt><trkpt lat="46.06925905978193" lon="13.30872167274319"><ele>101.0</ele><time>2026-04-11T10:08:10.999Z</time></trkpt><trkpt lat="46.06936183844775" lon="13.308756324041653"><ele>101.0</ele><time>2026-04-11T10:08:11.999Z</time></trkpt><trkpt lat="46.06945546910558" lon="13.308799465739328"><ele>101.0</ele><time>2026-04-11T10:08:12.999Z</time></trkpt><trkpt lat="46.06954893294463" lon="13.308855973675168"><ele>101.0</ele><time>2026-04-11T10:08:13.999Z</time></trkpt><trkpt lat="46.06963993729987" lon="13.308926449205797"><ele>101.0</ele><time>2026-04-11T10:08:14.999Z</time></trkpt><trkpt lat="46.06972417570397" lon="13.309009326710285"><ele>101.0</ele><time>2026-04-11T10:08:15.999Z</time></trkpt><trkpt lat="46.06978987883536" lon="13.309101887278624"><ele>100.99999999999999</ele><time>2026-04-11T10:08:16.999Z</time></trkpt><trkpt lat="46.069851687451745" lon="13.30918662957848"><ele>101.0</ele><time>2026-04-11T10:08:17.999Z</time></trkpt><trkpt lat="46.06990073457393" lon="13.309255707856119"><ele>101.0</ele><time>2026-04-11T10:08:18.999Z</time></trkpt><trkpt lat="46.069986291763584" lon="13.309220833478523"><ele>101.0</ele><time>2026-04-11T10:08:19.999Z</time></trkpt><trkpt lat="46.07005287591554" lon="13.309179028348845"><ele>100.99999999999999</ele><time>2026-04-11T10:08:21Z</time></trkpt><trkpt lat="46.0701217771986" lon="13.309123963863"><ele>101.0</ele><time>2026-04-11T10:08:22Z</time></trkpt><trkpt lat="46.07021327985349" lon="13.309083169416647"><ele>101.19999999999999</ele><time>2026-04-11T10:08:23Z</time></trkpt><trkpt lat="46.07031380445901" lon="13.309066067696781"><ele>101.39999999999999</ele><time>2026-04-11T10:08:24Z</time></trkpt><trkpt lat="46.07041001960128" lon="13.309064817169302"><ele>101.6</ele><time>2026-04-11T10:08:25Z</time></trkpt><trkpt lat="46.07051188038867" lon="13.309073182918496"><ele>101.8</ele><time>2026-04-11T10:08:26Z</time></trkpt><trkpt lat="46.070627429686894" lon="13.3090872793538"><ele>102.0</ele><time>2026-04-11T10:08:27Z</time></trkpt><trkpt lat="46.070754848309434" lon="13.309109443546111"><ele>102.5</ele><time>2026-04-11T10:08:28Z</time></trkpt><trkpt lat="46.070893726648826" lon="13.309170729265967"><ele>103.0</ele><time>2026-04-11T10:08:29Z</time></trkpt><trkpt lat="46.071040673058036" lon="13.309186643571099"><ele>103.5</ele><time>2026-04-11T10:08:30Z</time></trkpt><trkpt lat="46.07118842320334" lon="13.309227371053485"><ele>104.0</ele><time>2026-04-11T10:08:31Z</time></trkpt><trkpt lat="46.07134050739498" lon="13.309272395178489"><ele>104.0</ele><time>2026-04-11T10:08:32Z</time></trkpt><trkpt lat="46.071497118885794" lon="13.30931759778381"><ele>104.0</ele><time>2026-04-11T10:08:33Z</time></trkpt><trkpt lat="46.07165582791133" lon="13.309360241018062"><ele>104.0</ele><time>2026-04-11T10:08:34Z</time></trkpt><trkpt lat="46.07181755793501" lon="13.30939907117626"><ele>104.33333333333333</ele><time>2026-04-11T10:08:35Z</time></trkpt><trkpt lat="46.07198618392105" lon="13.309441646322751"><ele>104.66666666666666</ele><time>2026-04-11T10:08:36Z</time></trkpt><trkpt lat="46.07214833997863" lon="13.30948524139666"><ele>105.0</ele><time>2026-04-11T10:08:37Z</time></trkpt><trkpt lat="46.07229705935992" lon="13.309519311579875"><ele>104.66666666666666</ele><time>2026-04-11T10:08:38Z</time></trkpt><trkpt lat="46.07244470237766" lon="13.309548781756279"><ele>104.33333333333333</ele><time>2026-04-11T10:08:39Z</time></trkpt><trkpt lat="46.07259876849429" lon="13.30956846861656"><ele>104.0</ele><time>2026-04-11T10:08:40Z</time></trkpt><trkpt lat="46.07275828380286" lon="13.309566802722596"><ele>104.0</ele><time>2026-04-11T10:08:41Z</time></trkpt><trkpt lat="46.072925976578645" lon="13.309552172459668"><ele>104.0</ele><time>2026-04-11T10:08:42Z</time></trkpt><trkpt lat="46.073099291539215" lon="13.309542627704834"><ele>104.0</ele><time>2026-04-11T10:08:43Z</time></trkpt><trkpt lat="46.073273506597275" lon="13.309537455694665"><ele>104.33333333333333</ele><time>2026-04-11T10:08:44Z</time></trkpt><trkpt lat="46.07344676779112" lon="13.309525097767084"><ele>104.66666666666666</ele><time>2026-04-11T10:08:45Z</time></trkpt><trkpt lat="46.073617723744114" lon="13.309521955787751"><ele>105.0</ele><time>2026-04-11T10:08:46Z</time></trkpt><trkpt lat="46.073801066432225" lon="13.309511029127876"><ele>105.0</ele><time>2026-04-11T10:08:47Z</time></trkpt><trkpt lat="46.07398107795477" lon="13.309500042822165"><ele>105.0</ele><time>2026-04-11T10:08:48Z</time></trkpt><trkpt lat="46.07414840748521" lon="13.309493705205702"><ele>105.0</ele><time>2026-04-11T10:08:49Z</time></trkpt><trkpt lat="46.07431143768615" lon="13.309488256605524"><ele>104.66666666666666</ele><time>2026-04-11T10:08:50Z</time></trkpt><trkpt lat="46.07447388944663" lon="13.309482340482823"><ele>104.33333333333333</ele><time>2026-04-11T10:08:51Z</time></trkpt><trkpt lat="46.07463623226005" lon="13.309477270708108"><ele>104.0</ele><time>2026-04-11T10:08:52Z</time></trkpt><trkpt lat="46.07479709894691" lon="13.309470247862746"><ele>104.5</ele><time>2026-04-11T10:08:53Z</time></trkpt><trkpt lat="46.0749506581336" lon="13.309463984829447"><ele>105.0</ele><time>2026-04-11T10:08:54Z</time></trkpt><trkpt lat="46.07509832975939" lon="13.309458256847815"><ele>105.5</ele><time>2026-04-11T10:08:55Z</time></trkpt><trkpt lat="46.07522976257695" lon="13.309451164972652"><ele>106.0</ele><time>2026-04-11T10:08:56Z</time></trkpt><trkpt lat="46.07535959201667" lon="13.309445375463627"><ele>106.0</ele><time>2026-04-11T10:08:57Z</time></trkpt><trkpt lat="46.07548842322313" lon="13.309443304803187"><ele>106.0</ele><time>2026-04-11T10:08:58Z</time></trkpt><trkpt lat="46.075616735975416" lon="13.309441713503496"><ele>106.0</ele><time>2026-04-11T10:08:59Z</time></trkpt><trkpt lat="46.07575059790651" lon="13.309433034217875"><ele>106.0</ele><time>2026-04-11T10:09:00Z</time></trkpt><trkpt lat="46.07590055576396" lon="13.309429387040325"><ele>105.33333333333334</ele><time>2026-04-11T10:09:01Z</time></trkpt><trkpt lat="46.07605970099002" lon="13.309421043936718"><ele>104.66666666666666</ele><time>2026-04-11T10:09:02Z</time></trkpt><trkpt lat="46.07621800966618" lon="13.309411156416813"><ele>104.0</ele><time>2026-04-11T10:09:03Z</time></trkpt><trkpt lat="46.07636858127925" lon="13.309417790558593"><ele>104.0</ele><time>2026-04-11T10:09:04Z</time></trkpt><trkpt lat="46.076515388765955" lon="13.309397533808713"><ele>104.0</ele><time>2026-04-11T10:09:05Z</time></trkpt><trkpt lat="46.07664479962492" lon="13.309397890484632"><ele>104.0</ele><time>2026-04-11T10:09:06Z</time></trkpt><trkpt lat="46.07676465533998" lon="13.309401079144607"><ele>104.0</ele><time>2026-04-11T10:09:07Z</time></trkpt><trkpt lat="46.076903565460306" lon="13.309393628056196"><ele>104.5</ele><time>2026-04-11T10:09:08Z</time></trkpt><trkpt lat="46.07704466512886" lon="13.309388947664525"><ele>105.0</ele><time>2026-04-11T10:09:09Z</time></trkpt><trkpt lat="46.07718988091615" lon="13.309381701906556"><ele>105.5</ele><time>2026-04-11T10:09:10Z</time></trkpt><trkpt lat="46.077338711437754" lon="13.309375345352557"><ele>106.0</ele><time>2026-04-11T10:09:11Z</time></trkpt><trkpt lat="46.07748465299322" lon="13.309370489475205"><ele>106.33333333333334</ele><time>2026-04-11T10:09:12Z</time></trkpt><trkpt lat="46.07763469387446" lon="13.309361486141121"><ele>106.66666666666666</ele><time>2026-04-11T10:09:13Z</time></trkpt><trkpt lat="46.077798278654775" lon="13.309351949607553"><ele>107.0</ele><time>2026-04-11T10:09:14Z</time></trkpt><trkpt lat="46.07799041942894" lon="13.30934430029268"><ele>107.0</ele><time>2026-04-11T10:09:15Z</time></trkpt><trkpt lat="46.07815204190888" lon="13.309339631088111"><ele>107.0</ele><time>2026-04-11T10:09:16Z</time></trkpt><trkpt lat="46.07829652487461" lon="13.309332544790442"><ele>107.0</ele><time>2026-04-11T10:09:17Z</time></trkpt><trkpt lat="46.07843832861729" lon="13.30932615456001"><ele>107.0</ele><time>2026-04-11T10:09:18Z</time></trkpt><trkpt lat="46.078578256356266" lon="13.309320418082677"><ele>107.25</ele><time>2026-04-11T10:09:19Z</time></trkpt><trkpt lat="46.078712902930455" lon="13.3093144837663"><ele>107.5</ele><time>2026-04-11T10:09:20Z</time></trkpt><trkpt lat="46.07884578785545" lon="13.309300044735338"><ele>107.75</ele><time>2026-04-11T10:09:21Z</time></trkpt><trkpt lat="46.07897539063744" lon="13.309270581950603"><ele>108.0</ele><time>2026-04-11T10:09:22Z</time></trkpt><trkpt lat="46.07910200740554" lon="13.309225232151398"><ele>108.25</ele><time>2026-04-11T10:09:23Z</time></trkpt><trkpt lat="46.07922409917066" lon="13.309173421678203"><ele>108.5</ele><time>2026-04-11T10:09:24Z</time></trkpt><trkpt lat="46.0793437622153" lon="13.309128108446187"><ele>108.75</ele><time>2026-04-11T10:09:25Z</time></trkpt><trkpt lat="46.079452275162694" lon="13.309083637824846"><ele>109.0</ele><time>2026-04-11T10:09:26Z</time></trkpt><trkpt lat="46.079551063747374" lon="13.30903701207441"><ele>109.0</ele><time>2026-04-11T10:09:27Z</time></trkpt><trkpt lat="46.07966607008287" lon="13.30898633436362"><ele>109.0</ele><time>2026-04-11T10:09:28Z</time></trkpt><trkpt lat="46.07977366687443" lon="13.308935734429303"><ele>109.0</ele><time>2026-04-11T10:09:29Z</time></trkpt><trkpt lat="46.079880735418755" lon="13.308888000465965"><ele>109.0</ele><time>2026-04-11T10:09:30Z</time></trkpt><trkpt lat="46.079989169197916" lon="13.308840277894571"><ele>108.75</ele><time>2026-04-11T10:09:31Z</time></trkpt><trkpt lat="46.08010377544436" lon="13.30878783156842"><ele>108.5</ele><time>2026-04-11T10:09:32Z</time></trkpt><trkpt lat="46.080223048758434" lon="13.308735071659358"><ele>108.25</ele><time>2026-04-11T10:09:33Z</time></trkpt><trkpt lat="46.080331563044425" lon="13.308689855395967"><ele>108.0</ele><time>2026-04-11T10:09:34Z</time></trkpt><trkpt lat="46.0804211052033" lon="13.308648002920297"><ele>108.0</ele><time>2026-04-11T10:09:35Z</time></trkpt><trkpt lat="46.08049856369246" lon="13.308610903559641"><ele>108.0</ele><time>2026-04-11T10:09:36Z</time></trkpt><trkpt lat="46.080567782012366" lon="13.30857682037022"><ele>108.0</ele><time>2026-04-11T10:09:37Z</time></trkpt><trkpt lat="46.08066753337052" lon="13.308529252909421"><ele>108.0</ele><time>2026-04-11T10:09:39Z</time></trkpt><trkpt lat="46.08073351176287" lon="13.308491121689189"><ele>108.0</ele><time>2026-04-11T10:09:43Z</time></trkpt><trkpt lat="46.08079747829022" lon="13.308470355228641"><ele>108.0</ele><time>2026-04-11T10:09:50Z</time></trkpt><trkpt lat="46.080866612027464" lon="13.308439001793086"><ele>108.2</ele><time>2026-04-11T10:09:57Z</time></trkpt><trkpt lat="46.080929021468734" lon="13.308407776363174"><ele>108.4</ele><time>2026-04-11T10:10:12Z</time></trkpt><trkpt lat="46.08095985717279" lon="13.30822406909597"><ele>108.60000000000001</ele><time>2026-04-11T10:10:14Z</time></trkpt><trkpt lat="46.08091816473835" lon="13.308073400608864"><ele>108.80000000000001</ele><time>2026-04-11T10:10:15Z</time></trkpt><trkpt lat="46.08084363336046" lon="13.307918686824006"><ele>109.0</ele><time>2026-04-11T10:10:16Z</time></trkpt><trkpt lat="46.0807735131188" lon="13.307756976162956"><ele>109.25</ele><time>2026-04-11T10:10:17Z</time></trkpt><trkpt lat="46.08070966259867" lon="13.307608485773919"><ele>109.5</ele><time>2026-04-11T10:10:18Z</time></trkpt><trkpt lat="46.0806431931175" lon="13.307439437098688"><ele>109.75</ele><time>2026-04-11T10:10:18.999Z</time></trkpt><trkpt lat="46.080562801175965" lon="13.307250993118943"><ele>110.0</ele><time>2026-04-11T10:10:19.999Z</time></trkpt><trkpt lat="46.08047856750547" lon="13.307063291421734"><ele>110.0</ele><time>2026-04-11T10:10:20.999Z</time></trkpt><trkpt lat="46.08039090398035" lon="13.306859154616514"><ele>110.0</ele><time>2026-04-11T10:10:21.999Z</time></trkpt><trkpt lat="46.08030116865046" lon="13.30664583534405"><ele>110.0</ele><time>2026-04-11T10:10:22.999Z</time></trkpt><trkpt lat="46.08021625264587" lon="13.30644412338107"><ele>109.66666666666666</ele><time>2026-04-11T10:10:23.999Z</time></trkpt><trkpt lat="46.08013554648562" lon="13.306252543578381"><ele>109.33333333333334</ele><time>2026-04-11T10:10:24.999Z</time></trkpt><trkpt lat="46.0800562982234" lon="13.306064297776112"><ele>109.0</ele><time>2026-04-11T10:10:25.999Z</time></trkpt><trkpt lat="46.07997725029936" lon="13.305879356844793"><ele>109.25</ele><time>2026-04-11T10:10:27Z</time></trkpt><trkpt lat="46.07990366092765" lon="13.305702069127033"><ele>109.5</ele><time>2026-04-11T10:10:28Z</time></trkpt><trkpt lat="46.079833766143004" lon="13.305535882000868"><ele>109.75</ele><time>2026-04-11T10:10:29Z</time></trkpt><trkpt lat="46.07976627438734" lon="13.305372085467848"><ele>110.0</ele><time>2026-04-11T10:10:30Z</time></trkpt><trkpt lat="46.079704401950885" lon="13.305201537148069"><ele>110.0</ele><time>2026-04-11T10:10:31Z</time></trkpt><trkpt lat="46.07964917420979" lon="13.305033936132267"><ele>110.0</ele><time>2026-04-11T10:10:32Z</time></trkpt><trkpt lat="46.079608559848694" lon="13.304879442487316"><ele>110.0</ele><time>2026-04-11T10:10:33Z</time></trkpt><trkpt lat="46.07957718747953" lon="13.3047308553247"><ele>110.0</ele><time>2026-04-11T10:10:34Z</time></trkpt><trkpt lat="46.079553631165446" lon="13.304578496669258"><ele>109.8</ele><time>2026-04-11T10:10:35Z</time></trkpt><trkpt lat="46.079554203003994" lon="13.304428319935575"><ele>109.6</ele><time>2026-04-11T10:10:36Z</time></trkpt><trkpt lat="46.07958062851668" lon="13.304283982854608"><ele>109.4</ele><time>2026-04-11T10:10:37Z</time></trkpt><trkpt lat="46.079621178154426" lon="13.304150983202366"><ele>109.2</ele><time>2026-04-11T10:10:38Z</time></trkpt><trkpt lat="46.079626077343946" lon="13.304035532193362"><ele>109.0</ele><time>2026-04-11T10:10:39Z</time></trkpt><trkpt lat="46.079587797588665" lon="13.303941438718585"><ele>109.0</ele><time>2026-04-11T10:10:40Z</time></trkpt><trkpt lat="46.07953352058609" lon="13.303859902026852"><ele>109.0</ele><time>2026-04-11T10:10:41Z</time></trkpt><trkpt lat="46.07943964108235" lon="13.303835352192607"><ele>109.0</ele><time>2026-04-11T10:10:42Z</time></trkpt><trkpt lat="46.07936367687458" lon="13.303738754183769"><ele>109.0</ele><time>2026-04-11T10:10:43Z</time></trkpt><trkpt lat="46.079287718327194" lon="13.303596144332763"><ele>109.0</ele><time>2026-04-11T10:10:44Z</time></trkpt><trkpt lat="46.079222043002254" lon="13.303427614507429"><ele>109.0</ele><time>2026-04-11T10:10:45Z</time></trkpt><trkpt lat="46.07917363463874" lon="13.30325564080038"><ele>109.0</ele><time>2026-04-11T10:10:46Z</time></trkpt><trkpt lat="46.07912338608916" lon="13.303059570091888"><ele>109.0</ele><time>2026-04-11T10:10:47Z</time></trkpt><trkpt lat="46.079069774052066" lon="13.302842756317332"><ele>109.0</ele><time>2026-04-11T10:10:48Z</time></trkpt><trkpt lat="46.07901401207663" lon="13.302606554470056"><ele>109.0</ele><time>2026-04-11T10:10:49Z</time></trkpt><trkpt lat="46.07895622874831" lon="13.302361828199883"><ele>109.0</ele><time>2026-04-11T10:10:50Z</time></trkpt><trkpt lat="46.07889536542588" lon="13.302115052486727"><ele>109.0</ele><time>2026-04-11T10:10:51Z</time></trkpt><trkpt lat="46.07882810658049" lon="13.301851622306152"><ele>109.0</ele><time>2026-04-11T10:10:52Z</time></trkpt><trkpt lat="46.0787623023734" lon="13.301583339468916"><ele>109.0</ele><time>2026-04-11T10:10:53Z</time></trkpt><trkpt lat="46.07870064731124" lon="13.301325781253404"><ele>109.0</ele><time>2026-04-11T10:10:54Z</time></trkpt><trkpt lat="46.07864252149926" lon="13.30108484642534"><ele>108.66666666666667</ele><time>2026-04-11T10:10:55Z</time></trkpt><trkpt lat="46.07858410780635" lon="13.300848381400272"><ele>108.33333333333334</ele><time>2026-04-11T10:10:56Z</time></trkpt><trkpt lat="46.07852722790037" lon="13.300615324837409"><ele>108.0</ele><time>2026-04-11T10:10:57Z</time></trkpt><trkpt lat="46.07847307586069" lon="13.300394648018555"><ele>108.0</ele><time>2026-04-11T10:10:58Z</time></trkpt><trkpt lat="46.07842473658506" lon="13.300193454288127"><ele>108.0</ele><time>2026-04-11T10:10:59Z</time></trkpt><trkpt lat="46.07838010112065" lon="13.30000117859909"><ele>108.0</ele><time>2026-04-11T10:11:00Z</time></trkpt><trkpt lat="46.07833563898488" lon="13.299804973962704"><ele>108.0</ele><time>2026-04-11T10:11:01Z</time></trkpt><trkpt lat="46.078297731330174" lon="13.299619086068043"><ele>108.0</ele><time>2026-04-11T10:11:02Z</time></trkpt><trkpt lat="46.07826825521372" lon="13.299444451612194"><ele>108.0</ele><time>2026-04-11T10:11:03Z</time></trkpt><trkpt lat="46.07823631429453" lon="13.29924358481141"><ele>108.0</ele><time>2026-04-11T10:11:04Z</time></trkpt><trkpt lat="46.07821054687107" lon="13.299050941874434"><ele>108.0</ele><time>2026-04-11T10:11:05Z</time></trkpt><trkpt lat="46.07819305385215" lon="13.298865256853139"><ele>108.2</ele><time>2026-04-11T10:11:06Z</time></trkpt><trkpt lat="46.07818527059279" lon="13.298703732692298"><ele>108.4</ele><time>2026-04-11T10:11:07Z</time></trkpt><trkpt lat="46.078180288874236" lon="13.298552338063912"><ele>108.60000000000001</ele><time>2026-04-11T10:11:08Z</time></trkpt><trkpt lat="46.078178765406456" lon="13.298423800863699"><ele>108.80000000000001</ele><time>2026-04-11T10:11:09Z</time></trkpt><trkpt lat="46.078184290438756" lon="13.298318382793823"><ele>109.0</ele><time>2026-04-11T10:11:10Z</time></trkpt><trkpt lat="46.07819622539436" lon="13.298192555868985"><ele>109.00000000000001</ele><time>2026-04-11T10:11:12Z</time></trkpt><trkpt lat="46.07824027784007" lon="13.298092134478791"><ele>109.0</ele><time>2026-04-11T10:11:14Z</time></trkpt><trkpt lat="46.07832904338743" lon="13.297995948276295"><ele>109.0</ele><time>2026-04-11T10:11:16Z</time></trkpt><trkpt lat="46.078382137292465" lon="13.297922813451816"><ele>109.0</ele><time>2026-04-11T10:11:17Z</time></trkpt><trkpt lat="46.07842500518953" lon="13.297825887869074"><ele>109.00000000000001</ele><time>2026-04-11T10:11:18Z</time></trkpt><trkpt lat="46.07845376405225" lon="13.297699966583044"><ele>109.0</ele><time>2026-04-11T10:11:19Z</time></trkpt><trkpt lat="46.0784655362081" lon="13.297551218912373"><ele>109.0</ele><time>2026-04-11T10:11:20Z</time></trkpt><trkpt lat="46.078491362564144" lon="13.297396021697674"><ele>109.0</ele><time>2026-04-11T10:11:21Z</time></trkpt><trkpt lat="46.07853367176045" lon="13.297253173083812"><ele>109.0</ele><time>2026-04-11T10:11:22Z</time></trkpt><trkpt lat="46.07864749346894" lon="13.297149391580223"><ele>109.0</ele><time>2026-04-11T10:11:23Z</time></trkpt><trkpt lat="46.07877431662416" lon="13.297073145998196"><ele>109.0</ele><time>2026-04-11T10:11:24Z</time></trkpt><trkpt lat="46.07891247420752" lon="13.297007463446597"><ele>109.0</ele><time>2026-04-11T10:11:25Z</time></trkpt><trkpt lat="46.079048479619544" lon="13.296951957925701"><ele>109.0</ele><time>2026-04-11T10:11:26Z</time></trkpt><trkpt lat="46.07919287892719" lon="13.29689645544295"><ele>109.0</ele><time>2026-04-11T10:11:27Z</time></trkpt><trkpt lat="46.07935364016725" lon="13.296831551772314"><ele>109.0</ele><time>2026-04-11T10:11:28Z</time></trkpt><trkpt lat="46.07952656001594" lon="13.296760210190397"><ele>109.0</ele><time>2026-04-11T10:11:29Z</time></trkpt><trkpt lat="46.07970559104318" lon="13.29669118247292"><ele>109.0</ele><time>2026-04-11T10:11:30Z</time></trkpt><trkpt lat="46.07988294185633" lon="13.296625614237419"><ele>109.66666666666667</ele><time>2026-04-11T10:11:31Z</time></trkpt><trkpt lat="46.08006645612746" lon="13.296551023801278"><ele>110.33333333333334</ele><time>2026-04-11T10:11:32Z</time></trkpt><trkpt lat="46.080254298292736" lon="13.296471182719339"><ele>111.0</ele><time>2026-04-11T10:11:33Z</time></trkpt><trkpt lat="46.080441558326385" lon="13.296393444348407"><ele>111.33333333333334</ele><time>2026-04-11T10:11:34Z</time></trkpt><trkpt lat="46.08062661149757" lon="13.296320636042678"><ele>111.66666666666667</ele><time>2026-04-11T10:11:35Z</time></trkpt><trkpt lat="46.08081715700851" lon="13.296241404490303"><ele>112.0</ele><time>2026-04-11T10:11:36Z</time></trkpt><trkpt lat="46.08100569900222" lon="13.296161086737643"><ele>112.0</ele><time>2026-04-11T10:11:37Z</time></trkpt><trkpt lat="46.08119564286774" lon="13.296082641089534"><ele>112.0</ele><time>2026-04-11T10:11:38Z</time></trkpt><trkpt lat="46.08138458312683" lon="13.296004567553645"><ele>112.0</ele><time>2026-04-11T10:11:39Z</time></trkpt><trkpt lat="46.08157654904745" lon="13.295925258073629"><ele>111.33333333333334</ele><time>2026-04-11T10:11:40Z</time></trkpt><trkpt lat="46.08176549357143" lon="13.295846167219793"><ele>110.66666666666666</ele><time>2026-04-11T10:11:41Z</time></trkpt><trkpt lat="46.08195101133231" lon="13.29576960960196"><ele>110.0</ele><time>2026-04-11T10:11:42Z</time></trkpt><trkpt lat="46.08213505885304" lon="13.295694373328784"><ele>110.0</ele><time>2026-04-11T10:11:43Z</time></trkpt><trkpt lat="46.08231578216239" lon="13.295620344453637"><ele>110.0</ele><time>2026-04-11T10:11:44Z</time></trkpt><trkpt lat="46.08249516046878" lon="13.295548441298392"><ele>110.0</ele><time>2026-04-11T10:11:45Z</time></trkpt><trkpt lat="46.08267139221271" lon="13.29547698909167"><ele>110.66666666666666</ele><time>2026-04-11T10:11:46Z</time></trkpt><trkpt lat="46.0828462405113" lon="13.295405687142981"><ele>111.33333333333334</ele><time>2026-04-11T10:11:47Z</time></trkpt><trkpt lat="46.08301938799412" lon="13.29533605154447"><ele>112.0</ele><time>2026-04-11T10:11:48Z</time></trkpt><trkpt lat="46.08319333876517" lon="13.295265704694556"><ele>112.66666666666667</ele><time>2026-04-11T10:11:49Z</time></trkpt><trkpt lat="46.08336522603476" lon="13.29519328414038"><ele>113.33333333333334</ele><time>2026-04-11T10:11:50Z</time></trkpt><trkpt lat="46.08353916537209" lon="13.29511815305066"><ele>114.0</ele><time>2026-04-11T10:11:51Z</time></trkpt><trkpt lat="46.08371441439268" lon="13.295045132908802"><ele>114.0</ele><time>2026-04-11T10:11:52Z</time></trkpt><trkpt lat="46.0838883253504" lon="13.294975480653747"><ele>114.0</ele><time>2026-04-11T10:11:53Z</time></trkpt><trkpt lat="46.08406011545258" lon="13.294906794904593"><ele>114.0</ele><time>2026-04-11T10:11:54Z</time></trkpt><trkpt lat="46.084229840951025" lon="13.29483687636647"><ele>113.66666666666666</ele><time>2026-04-11T10:11:55Z</time></trkpt><trkpt lat="46.084400560033664" lon="13.294767612878383"><ele>113.33333333333333</ele><time>2026-04-11T10:11:56Z</time></trkpt><trkpt lat="46.08457184450261" lon="13.29469744627461"><ele>113.0</ele><time>2026-04-11T10:11:57Z</time></trkpt><trkpt lat="46.08474153903217" lon="13.294628177893507"><ele>113.0</ele><time>2026-04-11T10:11:58Z</time></trkpt><trkpt lat="46.08490734562319" lon="13.294559297980504"><ele>113.0</ele><time>2026-04-11T10:11:59Z</time></trkpt><trkpt lat="46.08506989083798" lon="13.29449415382832"><ele>113.0</ele><time>2026-04-11T10:12:00Z</time></trkpt><trkpt lat="46.08522999506751" lon="13.294426315663635"><ele>113.0</ele><time>2026-04-11T10:12:01Z</time></trkpt><trkpt lat="46.08538995548537" lon="13.294360243829496"><ele>113.0</ele><time>2026-04-11T10:12:02Z</time></trkpt><trkpt lat="46.085551171884035" lon="13.294292967410259"><ele>113.0</ele><time>2026-04-11T10:12:03Z</time></trkpt><trkpt lat="46.08571754610381" lon="13.294225343054226"><ele>114.33333333333333</ele><time>2026-04-11T10:12:04Z</time></trkpt><trkpt lat="46.08588454514191" lon="13.29415856262756"><ele>115.66666666666666</ele><time>2026-04-11T10:12:05Z</time></trkpt><trkpt lat="46.08605061288401" lon="13.294091292501804"><ele>117.0</ele><time>2026-04-11T10:12:06Z</time></trkpt><trkpt lat="46.08621383719025" lon="13.294025550783983"><ele>117.0</ele><time>2026-04-11T10:12:07Z</time></trkpt><trkpt lat="46.08637776064427" lon="13.293959019745847"><ele>117.0</ele><time>2026-04-11T10:12:08Z</time></trkpt><trkpt lat="46.086542370939895" lon="13.293888799283861"><ele>117.0</ele><time>2026-04-11T10:12:09Z</time></trkpt><trkpt lat="46.086709346857546" lon="13.293820717111505"><ele>116.0</ele><time>2026-04-11T10:12:10Z</time></trkpt><trkpt lat="46.08687432988641" lon="13.293754201670746"><ele>115.0</ele><time>2026-04-11T10:12:11Z</time></trkpt><trkpt lat="46.0870310798419" lon="13.293688069346793"><ele>114.0</ele><time>2026-04-11T10:12:12Z</time></trkpt><trkpt lat="46.08718667024679" lon="13.29362141706726"><ele>114.0</ele><time>2026-04-11T10:12:13Z</time></trkpt><trkpt lat="46.08734309714938" lon="13.293555625854586"><ele>114.0</ele><time>2026-04-11T10:12:14Z</time></trkpt><trkpt lat="46.087502228550655" lon="13.293489041630073"><ele>114.0</ele><time>2026-04-11T10:12:15Z</time></trkpt><trkpt lat="46.08766363233952" lon="13.29342614424854"><ele>114.0</ele><time>2026-04-11T10:12:16Z</time></trkpt><trkpt lat="46.08782710893161" lon="13.29335890374579"><ele>114.0</ele><time>2026-04-11T10:12:17Z</time></trkpt><trkpt lat="46.0879924728323" lon="13.29329303103824"><ele>114.0</ele><time>2026-04-11T10:12:18Z</time></trkpt><trkpt lat="46.08815741103867" lon="13.293226051805451"><ele>114.0</ele><time>2026-04-11T10:12:19Z</time></trkpt><trkpt lat="46.08832132895709" lon="13.293159420052064"><ele>114.0</ele><time>2026-04-11T10:12:20Z</time></trkpt><trkpt lat="46.08848689197516" lon="13.293093544838344"><ele>114.0</ele><time>2026-04-11T10:12:20.999Z</time></trkpt><trkpt lat="46.08865466769739" lon="13.293021045860284"><ele>114.0</ele><time>2026-04-11T10:12:21.999Z</time></trkpt><trkpt lat="46.08882640503175" lon="13.292950678274371"><ele>114.0</ele><time>2026-04-11T10:12:22.999Z</time></trkpt><trkpt lat="46.08899520298111" lon="13.292884049243444"><ele>114.0</ele><time>2026-04-11T10:12:23.999Z</time></trkpt><trkpt lat="46.08916034645001" lon="13.292817267261988"><ele>114.33333333333334</ele><time>2026-04-11T10:12:24.999Z</time></trkpt><trkpt lat="46.089321639323124" lon="13.292747851562865"><ele>114.66666666666667</ele><time>2026-04-11T10:12:25.999Z</time></trkpt><trkpt lat="46.08948159396257" lon="13.292680880023264"><ele>115.0</ele><time>2026-04-11T10:12:26.999Z</time></trkpt><trkpt lat="46.0896415585988" lon="13.292614763014544"><ele>115.0</ele><time>2026-04-11T10:12:27.999Z</time></trkpt><trkpt lat="46.08980018468635" lon="13.292546382969853"><ele>115.0</ele><time>2026-04-11T10:12:28.999Z</time></trkpt><trkpt lat="46.089964210723394" lon="13.292489418256315"><ele>115.0</ele><time>2026-04-11T10:12:29.999Z</time></trkpt><trkpt lat="46.09012405594581" lon="13.292418115795806"><ele>115.33333333333334</ele><time>2026-04-11T10:12:30.999Z</time></trkpt><trkpt lat="46.0902865200038" lon="13.29235460375141"><ele>115.66666666666666</ele><time>2026-04-11T10:12:31.999Z</time></trkpt><trkpt lat="46.09045004131464" lon="13.292288223203986"><ele>116.0</ele><time>2026-04-11T10:12:33Z</time></trkpt><trkpt lat="46.090615328286404" lon="13.292220651502392"><ele>116.0</ele><time>2026-04-11T10:12:34Z</time></trkpt><trkpt lat="46.09078501111328" lon="13.292151040547013"><ele>116.0</ele><time>2026-04-11T10:12:35Z</time></trkpt><trkpt lat="46.0909582885771" lon="13.29207976549816"><ele>116.0</ele><time>2026-04-11T10:12:36Z</time></trkpt><trkpt lat="46.09114403572112" lon="13.29200334257363"><ele>116.0</ele><time>2026-04-11T10:12:37Z</time></trkpt><trkpt lat="46.09134713434808" lon="13.29192015061379"><ele>116.0</ele><time>2026-04-11T10:12:38Z</time></trkpt><trkpt lat="46.091568790720125" lon="13.291818991211"><ele>116.0</ele><time>2026-04-11T10:12:39Z</time></trkpt><trkpt lat="46.09179817922987" lon="13.291707036924333"><ele>115.5</ele><time>2026-04-11T10:12:40Z</time></trkpt><trkpt lat="46.092036994803145" lon="13.291580288482972"><ele>115.0</ele><time>2026-04-11T10:12:41Z</time></trkpt><trkpt lat="46.092279106593764" lon="13.29144331407183"><ele>115.0</ele><time>2026-04-11T10:12:42Z</time></trkpt><trkpt lat="46.09252781300641" lon="13.291302772644103"><ele>115.0</ele><time>2026-04-11T10:12:43Z</time></trkpt><trkpt lat="46.09278297365635" lon="13.291160668834788"><ele>115.0</ele><time>2026-04-11T10:12:44Z</time></trkpt><trkpt lat="46.093038832075884" lon="13.291016487799084"><ele>115.0</ele><time>2026-04-11T10:12:45Z</time></trkpt><trkpt lat="46.093289926279674" lon="13.290873075180743"><ele>116.0</ele><time>2026-04-11T10:12:46Z</time></trkpt><trkpt lat="46.093536109018316" lon="13.290781199959904"><ele>117.0</ele><time>2026-04-11T10:12:47Z</time></trkpt><trkpt lat="46.09374831610542" lon="13.290646592594259"><ele>117.0</ele><time>2026-04-11T10:12:48Z</time></trkpt><trkpt lat="46.093958777911794" lon="13.290538504245015"><ele>117.0</ele><time>2026-04-11T10:12:49Z</time></trkpt><trkpt lat="46.094155991074864" lon="13.29043517446973"><ele>117.0</ele><time>2026-04-11T10:12:50Z</time></trkpt><trkpt lat="46.094339253604154" lon="13.290340615179092"><ele>117.0</ele><time>2026-04-11T10:12:51Z</time></trkpt><trkpt lat="46.09450779368333" lon="13.290253135839766"><ele>117.0</ele><time>2026-04-11T10:12:52Z</time></trkpt><trkpt lat="46.09466382126841" lon="13.290171996945622"><ele>117.0</ele><time>2026-04-11T10:12:53Z</time></trkpt><trkpt lat="46.09481439158172" lon="13.290092893949097"><ele>117.25</ele><time>2026-04-11T10:12:54Z</time></trkpt><trkpt lat="46.09495370913843" lon="13.290018231119374"><ele>117.5</ele><time>2026-04-11T10:12:55Z</time></trkpt><trkpt lat="46.09507551782421" lon="13.289955228810495"><ele>117.75</ele><time>2026-04-11T10:12:56Z</time></trkpt><trkpt lat="46.09518368663537" lon="13.289902404012109"><ele>118.0</ele><time>2026-04-11T10:12:57Z</time></trkpt><trkpt lat="46.09527011469845" lon="13.289869344601922"><ele>118.00000000000001</ele><time>2026-04-11T10:12:58Z</time></trkpt><trkpt lat="46.09534460342574" lon="13.289854236049997"><ele>118.0</ele><time>2026-04-11T10:12:59Z</time></trkpt><trkpt lat="46.09541705993928" lon="13.289850894287156"><ele>118.0</ele><time>2026-04-11T10:13:00Z</time></trkpt><trkpt lat="46.0954872003184" lon="13.289823985310077"><ele>118.0</ele><time>2026-04-11T10:13:01Z</time></trkpt><trkpt lat="46.09556806056355" lon="13.289875912193187"><ele>118.00000000000001</ele><time>2026-04-11T10:13:02Z</time></trkpt><trkpt lat="46.09569131224495" lon="13.289846759729237"><ele>118.0</ele><time>2026-04-11T10:13:04Z</time></trkpt><trkpt lat="46.09575277578851" lon="13.28977724344469"><ele>118.75</ele><time>2026-04-11T10:13:05Z</time></trkpt><trkpt lat="46.09580948696438" lon="13.289688501574517"><ele>119.5</ele><time>2026-04-11T10:13:06Z</time></trkpt><trkpt lat="46.095891944009175" lon="13.289585405257842"><ele>120.25</ele><time>2026-04-11T10:13:07Z</time></trkpt><trkpt lat="46.09600237207414" lon="13.289489745715782"><ele>121.0</ele><time>2026-04-11T10:13:08Z</time></trkpt><trkpt lat="46.09613062124753" lon="13.289412541876587"><ele>121.0</ele><time>2026-04-11T10:13:09Z</time></trkpt><trkpt lat="46.096276267311964" lon="13.289335893315421"><ele>121.0</ele><time>2026-04-11T10:13:10Z</time></trkpt><trkpt lat="46.09642452614931" lon="13.289254194787572"><ele>121.0</ele><time>2026-04-11T10:13:11Z</time></trkpt><trkpt lat="46.096577135561695" lon="13.289171779433033"><ele>121.0</ele><time>2026-04-11T10:13:12Z</time></trkpt><trkpt lat="46.096742079402155" lon="13.289085886503875"><ele>121.0</ele><time>2026-04-11T10:13:13Z</time></trkpt><trkpt lat="46.09691515198512" lon="13.288994478423888"><ele>121.0</ele><time>2026-04-11T10:13:14Z</time></trkpt><trkpt lat="46.097090907877245" lon="13.288898362645392"><ele>120.66666666666667</ele><time>2026-04-11T10:13:15Z</time></trkpt><trkpt lat="46.0972731819304" lon="13.288797330482112"><ele>120.33333333333334</ele><time>2026-04-11T10:13:16Z</time></trkpt><trkpt lat="46.09746028648926" lon="13.288691938917262"><ele>120.0</ele><time>2026-04-11T10:13:17Z</time></trkpt><trkpt lat="46.09764272387785" lon="13.288582075109451"><ele>120.0</ele><time>2026-04-11T10:13:18Z</time></trkpt><trkpt lat="46.0978173451249" lon="13.288461767729075"><ele>120.0</ele><time>2026-04-11T10:13:19Z</time></trkpt><trkpt lat="46.097983416404354" lon="13.288326499723338"><ele>120.0</ele><time>2026-04-11T10:13:20Z</time></trkpt><trkpt lat="46.098145332364695" lon="13.288173120064823"><ele>120.0</ele><time>2026-04-11T10:13:21Z</time></trkpt><trkpt lat="46.09830664158035" lon="13.288007785781922"><ele>120.0</ele><time>2026-04-11T10:13:22Z</time></trkpt><trkpt lat="46.09847101344701" lon="13.287831648223419"><ele>120.0</ele><time>2026-04-11T10:13:23Z</time></trkpt><trkpt lat="46.09863543119684" lon="13.287633036305268"><ele>120.0</ele><time>2026-04-11T10:13:24Z</time></trkpt><trkpt lat="46.0987970748689" lon="13.287412858029384"><ele>120.0</ele><time>2026-04-11T10:13:25Z</time></trkpt><trkpt lat="46.09895042812254" lon="13.287179666796293"><ele>120.0</ele><time>2026-04-11T10:13:26Z</time></trkpt><trkpt lat="46.099093839004226" lon="13.286936646178816"><ele>119.66666666666666</ele><time>2026-04-11T10:13:27Z</time></trkpt><trkpt lat="46.09923026859068" lon="13.286691758082052"><ele>119.33333333333333</ele><time>2026-04-11T10:13:28Z</time></trkpt><trkpt lat="46.09936532871778" lon="13.286446287785985"><ele>119.0</ele><time>2026-04-11T10:13:29Z</time></trkpt><trkpt lat="46.09949789442073" lon="13.286205648130379"><ele>119.0</ele><time>2026-04-11T10:13:30Z</time></trkpt><trkpt lat="46.09963068402888" lon="13.285966319889082"><ele>119.0</ele><time>2026-04-11T10:13:31Z</time></trkpt><trkpt lat="46.09976584021714" lon="13.285732200797534"><ele>119.0</ele><time>2026-04-11T10:13:32Z</time></trkpt><trkpt lat="46.09991546533455" lon="13.28549954470085"><ele>119.5</ele><time>2026-04-11T10:13:33Z</time></trkpt><trkpt lat="46.10007970068366" lon="13.285263962194083"><ele>120.0</ele><time>2026-04-11T10:13:34Z</time></trkpt><trkpt lat="46.100252020590155" lon="13.285035382946193"><ele>120.0</ele><time>2026-04-11T10:13:35Z</time></trkpt><trkpt lat="46.100424858172154" lon="13.284833164178128"><ele>120.0</ele><time>2026-04-11T10:13:36Z</time></trkpt><trkpt lat="46.10059920427311" lon="13.284643119394268"><ele>120.0</ele><time>2026-04-11T10:13:37Z</time></trkpt><trkpt lat="46.100779893635" lon="13.284469012763589"><ele>120.5</ele><time>2026-04-11T10:13:38Z</time></trkpt><trkpt lat="46.10097310774978" lon="13.284313182479988"><ele>121.0</ele><time>2026-04-11T10:13:39Z</time></trkpt><trkpt lat="46.10117969264013" lon="13.284158234755315"><ele>121.0</ele><time>2026-04-11T10:13:40Z</time></trkpt><trkpt lat="46.10138383553291" lon="13.284016488754226"><ele>121.0</ele><time>2026-04-11T10:13:41Z</time></trkpt><trkpt lat="46.10158961503916" lon="13.283899933279983"><ele>121.0</ele><time>2026-04-11T10:13:42Z</time></trkpt><trkpt lat="46.10179905361773" lon="13.283804683573955"><ele>121.5</ele><time>2026-04-11T10:13:43Z</time></trkpt><trkpt lat="46.10201638072256" lon="13.2837198377636"><ele>122.0</ele><time>2026-04-11T10:13:44Z</time></trkpt><trkpt lat="46.10223450179593" lon="13.283642430560581"><ele>122.33333333333333</ele><time>2026-04-11T10:13:45Z</time></trkpt><trkpt lat="46.10244754420316" lon="13.28358085180483"><ele>122.66666666666666</ele><time>2026-04-11T10:13:46Z</time></trkpt><trkpt lat="46.10265997417485" lon="13.283532616373437"><ele>123.0</ele><time>2026-04-11T10:13:47Z</time></trkpt><trkpt lat="46.10288141081782" lon="13.283479150228382"><ele>123.0</ele><time>2026-04-11T10:13:48Z</time></trkpt><trkpt lat="46.103107226447236" lon="13.283423514233908"><ele>123.0</ele><time>2026-04-11T10:13:49Z</time></trkpt><trkpt lat="46.10333393879129" lon="13.283364466057485"><ele>122.5</ele><time>2026-04-11T10:13:50Z</time></trkpt><trkpt lat="46.10356227369185" lon="13.283303584385521"><ele>122.0</ele><time>2026-04-11T10:13:51Z</time></trkpt><trkpt lat="46.103793412704185" lon="13.283246214273088"><ele>122.0</ele><time>2026-04-11T10:13:52Z</time></trkpt><trkpt lat="46.104025574300074" lon="13.283190286124361"><ele>122.0</ele><time>2026-04-11T10:13:53Z</time></trkpt><trkpt lat="46.10425796529752" lon="13.283136501346489"><ele>122.0</ele><time>2026-04-11T10:13:54Z</time></trkpt><trkpt lat="46.104486237128704" lon="13.28308014603385"><ele>122.0</ele><time>2026-04-11T10:13:55Z</time></trkpt><trkpt lat="46.10471107505" lon="13.283021825673412"><ele>122.0</ele><time>2026-04-11T10:13:56Z</time></trkpt><trkpt lat="46.10493334441391" lon="13.282964922208615"><ele>122.0</ele><time>2026-04-11T10:13:57Z</time></trkpt><trkpt lat="46.105154604213546" lon="13.282908067424506"><ele>122.0</ele><time>2026-04-11T10:13:58Z</time></trkpt><trkpt lat="46.10537970760532" lon="13.282851905034532"><ele>122.0</ele><time>2026-04-11T10:13:59Z</time></trkpt><trkpt lat="46.10560646470157" lon="13.282796594748527"><ele>122.0</ele><time>2026-04-11T10:14:00Z</time></trkpt><trkpt lat="46.10582951590113" lon="13.282738933845899"><ele>122.0</ele><time>2026-04-11T10:14:01Z</time></trkpt><trkpt lat="46.10605148373353" lon="13.282681209509365"><ele>122.0</ele><time>2026-04-11T10:14:02Z</time></trkpt><trkpt lat="46.10627244195339" lon="13.282622567305593"><ele>122.0</ele><time>2026-04-11T10:14:03Z</time></trkpt><trkpt lat="46.10649473536227" lon="13.282563555386973"><ele>122.33333333333333</ele><time>2026-04-11T10:14:04Z</time></trkpt><trkpt lat="46.10671606062703" lon="13.282505340526097"><ele>122.66666666666666</ele><time>2026-04-11T10:14:05Z</time></trkpt><trkpt lat="46.10693518054971" lon="13.282445971063348"><ele>123.0</ele><time>2026-04-11T10:14:06Z</time></trkpt><trkpt lat="46.107154287285475" lon="13.282387307831048"><ele>123.0</ele><time>2026-04-11T10:14:07Z</time></trkpt><trkpt lat="46.107376300584434" lon="13.282329422321718"><ele>123.0</ele><time>2026-04-11T10:14:08Z</time></trkpt><trkpt lat="46.107600794566956" lon="13.28226568308408"><ele>125.0</ele><time>2026-04-11T10:14:09Z</time></trkpt><trkpt lat="46.107827455221866" lon="13.282188580648302"><ele>127.0</ele><time>2026-04-11T10:14:10Z</time></trkpt><trkpt lat="46.10805353202435" lon="13.282095461046499"><ele>128.0</ele><time>2026-04-11T10:14:11Z</time></trkpt><trkpt lat="46.108279671587304" lon="13.281985811755987"><ele>129.0</ele><time>2026-04-11T10:14:12Z</time></trkpt><trkpt lat="46.10850571721425" lon="13.281865858295554"><ele>129.0</ele><time>2026-04-11T10:14:13Z</time></trkpt><trkpt lat="46.108731457534766" lon="13.281738997247055"><ele>129.0</ele><time>2026-04-11T10:14:14Z</time></trkpt><trkpt lat="46.10895626670002" lon="13.281609663603943"><ele>128.0</ele><time>2026-04-11T10:14:15Z</time></trkpt><trkpt lat="46.10917848969985" lon="13.28148347302666"><ele>127.0</ele><time>2026-04-11T10:14:16Z</time></trkpt><trkpt lat="46.10939980375016" lon="13.281365393062403"><ele>125.5</ele><time>2026-04-11T10:14:17Z</time></trkpt><trkpt lat="46.10961483985237" lon="13.281249135998033"><ele>124.0</ele><time>2026-04-11T10:14:18Z</time></trkpt><trkpt lat="46.10982259264547" lon="13.281133604674615"><ele>125.0</ele><time>2026-04-11T10:14:19Z</time></trkpt><trkpt lat="46.11002723839753" lon="13.281019450464244"><ele>126.0</ele><time>2026-04-11T10:14:20Z</time></trkpt><trkpt lat="46.11022624491913" lon="13.280908946481606"><ele>127.0</ele><time>2026-04-11T10:14:21Z</time></trkpt><trkpt lat="46.11042084235251" lon="13.280805953935147"><ele>127.0</ele><time>2026-04-11T10:14:22Z</time></trkpt><trkpt lat="46.110611402153026" lon="13.280715708622022"><ele>127.0</ele><time>2026-04-11T10:14:23Z</time></trkpt><trkpt lat="46.11079965344257" lon="13.280633172669079"><ele>127.0</ele><time>2026-04-11T10:14:23.999Z</time></trkpt><trkpt lat="46.11098378603134" lon="13.280559958631313"><ele>127.33333333333334</ele><time>2026-04-11T10:14:24.999Z</time></trkpt><trkpt lat="46.11116594498947" lon="13.280485387045923"><ele>127.66666666666666</ele><time>2026-04-11T10:14:25.999Z</time></trkpt><trkpt lat="46.11134651969998" lon="13.280409283276047"><ele>128.0</ele><time>2026-04-11T10:14:26.999Z</time></trkpt><trkpt lat="46.111528946557655" lon="13.280332451003815"><ele>128.33333333333331</ele><time>2026-04-11T10:14:27.999Z</time></trkpt><trkpt lat="46.111714820656516" lon="13.280254786457542"><ele>128.66666666666666</ele><time>2026-04-11T10:14:28.999Z</time></trkpt><trkpt lat="46.11190208389219" lon="13.280177251224453"><ele>129.0</ele><time>2026-04-11T10:14:29.999Z</time></trkpt><trkpt lat="46.112073715806275" lon="13.280105277376848"><ele>129.0</ele><time>2026-04-11T10:14:30.999Z</time></trkpt><trkpt lat="46.112230593942705" lon="13.28003735344845"><ele>129.0</ele><time>2026-04-11T10:14:31.999Z</time></trkpt><trkpt lat="46.11237488479248" lon="13.279972027253363"><ele>129.0</ele><time>2026-04-11T10:14:32.999Z</time></trkpt><trkpt lat="46.11250169147389" lon="13.279913403264043"><ele>129.0</ele><time>2026-04-11T10:14:33.999Z</time></trkpt><trkpt lat="46.11261850874768" lon="13.279851427270298"><ele>128.75</ele><time>2026-04-11T10:14:34.999Z</time></trkpt><trkpt lat="46.11272471848755" lon="13.279768211263187"><ele>128.5</ele><time>2026-04-11T10:14:35.999Z</time></trkpt><trkpt lat="46.11282081444155" lon="13.279668997274458"><ele>128.25</ele><time>2026-04-11T10:14:36.999Z</time></trkpt><trkpt lat="46.11290884508614" lon="13.27956405083332"><ele>128.0</ele><time>2026-04-11T10:14:37.999Z</time></trkpt><trkpt lat="46.11299404098567" lon="13.27946635558537"><ele>128.20000000000002</ele><time>2026-04-11T10:14:39Z</time></trkpt><trkpt lat="46.113079024972116" lon="13.27938390400321"><ele>128.4</ele><time>2026-04-11T10:14:40Z</time></trkpt><trkpt lat="46.11317142009746" lon="13.2793230157278"><ele>128.60000000000002</ele><time>2026-04-11T10:14:41Z</time></trkpt><trkpt lat="46.11325721804161" lon="13.279297128712452"><ele>128.8</ele><time>2026-04-11T10:14:42Z</time></trkpt><trkpt lat="46.11334995973421" lon="13.279330949261041"><ele>129.0</ele><time>2026-04-11T10:14:43Z</time></trkpt><trkpt lat="46.11344358136096" lon="13.279408422302406"><ele>129.0</ele><time>2026-04-11T10:14:44Z</time></trkpt><trkpt lat="46.113535216807655" lon="13.279482431822832"><ele>129.0</ele><time>2026-04-11T10:14:45Z</time></trkpt><trkpt lat="46.11364278964364" lon="13.27952716500394"><ele>129.0</ele><time>2026-04-11T10:14:46Z</time></trkpt><trkpt lat="46.11377011564904" lon="13.279530383582808"><ele>129.0</ele><time>2026-04-11T10:14:47Z</time></trkpt><trkpt lat="46.1139132039713" lon="13.27949090050251"><ele>129.0</ele><time>2026-04-11T10:14:48Z</time></trkpt><trkpt lat="46.11405866601706" lon="13.279469113697033"><ele>129.0</ele><time>2026-04-11T10:14:49Z</time></trkpt><trkpt lat="46.114202516039136" lon="13.279473504820563"><ele>129.0</ele><time>2026-04-11T10:14:50Z</time></trkpt><trkpt lat="46.11434416063659" lon="13.27950084909827"><ele>129.0</ele><time>2026-04-11T10:14:51Z</time></trkpt><trkpt lat="46.11447746434658" lon="13.279579414246676"><ele>129.33333333333334</ele><time>2026-04-11T10:14:52Z</time></trkpt><trkpt lat="46.114605150064094" lon="13.279693100519319"><ele>129.66666666666669</ele><time>2026-04-11T10:14:53Z</time></trkpt><trkpt lat="46.11472110668034" lon="13.27983495062146"><ele>130.0</ele><time>2026-04-11T10:14:54Z</time></trkpt><trkpt lat="46.11483822504899" lon="13.279988389932905"><ele>130.0</ele><time>2026-04-11T10:14:55Z</time></trkpt><trkpt lat="46.114967791998936" lon="13.280131189599345"><ele>130.0</ele><time>2026-04-11T10:14:56Z</time></trkpt><trkpt lat="46.115116886894796" lon="13.280273382888206"><ele>130.0</ele><time>2026-04-11T10:14:57Z</time></trkpt><trkpt lat="46.11527123609603" lon="13.2804118867242"><ele>130.0</ele><time>2026-04-11T10:14:58Z</time></trkpt><trkpt lat="46.11542632825081" lon="13.280536374395698"><ele>130.0</ele><time>2026-04-11T10:14:59Z</time></trkpt><trkpt lat="46.11558408734969" lon="13.280656958795147"><ele>130.0</ele><time>2026-04-11T10:15:00Z</time></trkpt><trkpt lat="46.11574255635168" lon="13.280787129746653"><ele>131.0</ele><time>2026-04-11T10:15:01Z</time></trkpt><trkpt lat="46.11590869168326" lon="13.280918179912302"><ele>132.0</ele><time>2026-04-11T10:15:02Z</time></trkpt><trkpt lat="46.11607374660759" lon="13.281039068479153"><ele>133.0</ele><time>2026-04-11T10:15:03Z</time></trkpt><trkpt lat="46.116241038245604" lon="13.281142044396102"><ele>133.0</ele><time>2026-04-11T10:15:04Z</time></trkpt><trkpt lat="46.11641463214714" lon="13.281230007701804"><ele>133.0</ele><time>2026-04-11T10:15:05Z</time></trkpt><trkpt lat="46.11659476124296" lon="13.281310966103149"><ele>133.0</ele><time>2026-04-11T10:15:06Z</time></trkpt><trkpt lat="46.11678469728246" lon="13.281376782671938"><ele>133.0</ele><time>2026-04-11T10:15:07Z</time></trkpt><trkpt lat="46.11698072175346" lon="13.281427741518701"><ele>133.0</ele><time>2026-04-11T10:15:08Z</time></trkpt><trkpt lat="46.11717988065018" lon="13.28146850568429"><ele>133.0</ele><time>2026-04-11T10:15:09Z</time></trkpt><trkpt lat="46.1173753588572" lon="13.281504165302115"><ele>133.0</ele><time>2026-04-11T10:15:10Z</time></trkpt><trkpt lat="46.117566858484906" lon="13.281543588854987"><ele>133.0</ele><time>2026-04-11T10:15:11Z</time></trkpt><trkpt lat="46.11775384935391" lon="13.28158025183242"><ele>133.0</ele><time>2026-04-11T10:15:12Z</time></trkpt><trkpt lat="46.117919973554315" lon="13.281612817785183"><ele>133.0</ele><time>2026-04-11T10:15:13Z</time></trkpt><trkpt lat="46.11808270661452" lon="13.281642467813214"><ele>133.0</ele><time>2026-04-11T10:15:14Z</time></trkpt><trkpt lat="46.118237724137614" lon="13.281654519374445"><ele>133.0</ele><time>2026-04-11T10:15:15Z</time></trkpt><trkpt lat="46.118386121854954" lon="13.281634058539568"><ele>132.66666666666669</ele><time>2026-04-11T10:15:16Z</time></trkpt><trkpt lat="46.11854609363284" lon="13.281569071971958"><ele>132.33333333333334</ele><time>2026-04-11T10:15:17Z</time></trkpt><trkpt lat="46.11870605997782" lon="13.281456309214546"><ele>132.0</ele><time>2026-04-11T10:15:18Z</time></trkpt><trkpt lat="46.118850908339766" lon="13.281304907514448"><ele>132.0</ele><time>2026-04-11T10:15:19Z</time></trkpt><trkpt lat="46.11900054629197" lon="13.28113628838817"><ele>132.0</ele><time>2026-04-11T10:15:20Z</time></trkpt><trkpt lat="46.11915720155129" lon="13.280972234840512"><ele>132.0</ele><time>2026-04-11T10:15:21Z</time></trkpt><trkpt lat="46.11931951026118" lon="13.28081025976766"><ele>132.33333333333334</ele><time>2026-04-11T10:15:22Z</time></trkpt><trkpt lat="46.119489753059696" lon="13.280651626989481"><ele>132.66666666666669</ele><time>2026-04-11T10:15:23Z</time></trkpt><trkpt lat="46.11967064780955" lon="13.280508022307838"><ele>133.0</ele><time>2026-04-11T10:15:24Z</time></trkpt><trkpt lat="46.11984680959688" lon="13.280384319400577"><ele>132.66666666666669</ele><time>2026-04-11T10:15:25Z</time></trkpt><trkpt lat="46.120031018822" lon="13.280281673459642"><ele>132.33333333333334</ele><time>2026-04-11T10:15:26Z</time></trkpt><trkpt lat="46.1202252700366" lon="13.280186137116836"><ele>132.0</ele><time>2026-04-11T10:15:27Z</time></trkpt><trkpt lat="46.120426470419154" lon="13.280086159292019"><ele>132.0</ele><time>2026-04-11T10:15:28Z</time></trkpt><trkpt lat="46.1206359016094" lon="13.279981236169567"><ele>132.0</ele><time>2026-04-11T10:15:29Z</time></trkpt><trkpt lat="46.12085038996962" lon="13.279877182009109"><ele>132.0</ele><time>2026-04-11T10:15:30Z</time></trkpt><trkpt lat="46.121066363489156" lon="13.279771900616979"><ele>134.0</ele><time>2026-04-11T10:15:31Z</time></trkpt><trkpt lat="46.12128342819477" lon="13.279663889033122"><ele>136.0</ele><time>2026-04-11T10:15:32Z</time></trkpt><trkpt lat="46.12149965567117" lon="13.27955400958977"><ele>136.0</ele><time>2026-04-11T10:15:33Z</time></trkpt><trkpt lat="46.12171966875708" lon="13.279442149085229"><ele>136.0</ele><time>2026-04-11T10:15:34Z</time></trkpt><trkpt lat="46.12194147992037" lon="13.27932605646548"><ele>136.0</ele><time>2026-04-11T10:15:35Z</time></trkpt><trkpt lat="46.12216363590349" lon="13.27920565162273"><ele>136.0</ele><time>2026-04-11T10:15:36Z</time></trkpt><trkpt lat="46.122383869765194" lon="13.279081148123598"><ele>136.0</ele><time>2026-04-11T10:15:37Z</time></trkpt><trkpt lat="46.12260475300937" lon="13.278955378015574"><ele>136.0</ele><time>2026-04-11T10:15:38Z</time></trkpt><trkpt lat="46.122821637782515" lon="13.278833373551597"><ele>136.0</ele><time>2026-04-11T10:15:39Z</time></trkpt><trkpt lat="46.123036343697834" lon="13.278715454344358"><ele>136.0</ele><time>2026-04-11T10:15:40Z</time></trkpt><trkpt lat="46.12325056675108" lon="13.27860116118548"><ele>136.5</ele><time>2026-04-11T10:15:41Z</time></trkpt><trkpt lat="46.12346673233418" lon="13.278485917714244"><ele>137.0</ele><time>2026-04-11T10:15:42Z</time></trkpt><trkpt lat="46.123687279466594" lon="13.278365123339357"><ele>137.0</ele><time>2026-04-11T10:15:43Z</time></trkpt><trkpt lat="46.1239131134396" lon="13.278242205436086"><ele>137.0</ele><time>2026-04-11T10:15:44Z</time></trkpt><trkpt lat="46.12414025443109" lon="13.278123281522745"><ele>136.5</ele><time>2026-04-11T10:15:45Z</time></trkpt><trkpt lat="46.12436327990445" lon="13.278006676141311"><ele>136.0</ele><time>2026-04-11T10:15:46Z</time></trkpt><trkpt lat="46.12458242791404" lon="13.277897180182059"><ele>136.0</ele><time>2026-04-11T10:15:47Z</time></trkpt><trkpt lat="46.12479916307557" lon="13.277789755497983"><ele>136.0</ele><time>2026-04-11T10:15:48Z</time></trkpt><trkpt lat="46.1250139609698" lon="13.277661804707641"><ele>138.0</ele><time>2026-04-11T10:15:49Z</time></trkpt><trkpt lat="46.12523505084046" lon="13.277518582491501"><ele>140.0</ele><time>2026-04-11T10:15:50Z</time></trkpt><trkpt lat="46.12545861231893" lon="13.277376569718315"><ele>139.5</ele><time>2026-04-11T10:15:51Z</time></trkpt><trkpt lat="46.125673172346694" lon="13.277234425796198"><ele>139.0</ele><time>2026-04-11T10:15:52Z</time></trkpt><trkpt lat="46.1258842075633" lon="13.277097154474893"><ele>138.0</ele><time>2026-04-11T10:15:53Z</time></trkpt><trkpt lat="46.12609381946339" lon="13.276965247748919"><ele>137.0</ele><time>2026-04-11T10:15:54Z</time></trkpt><trkpt lat="46.12630132578002" lon="13.276839760255484"><ele>137.0</ele><time>2026-04-11T10:15:55Z</time></trkpt><trkpt lat="46.12650162626962" lon="13.276715369692225"><ele>137.0</ele><time>2026-04-11T10:15:56Z</time></trkpt><trkpt lat="46.12670083946662" lon="13.276587679012861"><ele>137.0</ele><time>2026-04-11T10:15:57Z</time></trkpt><trkpt lat="46.12690467011705" lon="13.27646788804907"><ele>137.33333333333331</ele><time>2026-04-11T10:15:58Z</time></trkpt><trkpt lat="46.127113160306315" lon="13.276364183477344"><ele>137.66666666666666</ele><time>2026-04-11T10:15:59Z</time></trkpt><trkpt lat="46.12732555411131" lon="13.276271135283148"><ele>138.0</ele><time>2026-04-11T10:16:00Z</time></trkpt><trkpt lat="46.127543200652305" lon="13.276189789464484"><ele>138.0</ele><time>2026-04-11T10:16:01Z</time></trkpt><trkpt lat="46.127764360233" lon="13.276113046737306"><ele>138.0</ele><time>2026-04-11T10:16:02Z</time></trkpt><trkpt lat="46.12797696558445" lon="13.276044372177315"><ele>138.0</ele><time>2026-04-11T10:16:03Z</time></trkpt><trkpt lat="46.128184206013316" lon="13.275990749337435"><ele>138.66666666666666</ele><time>2026-04-11T10:16:04Z</time></trkpt><trkpt lat="46.12839031201076" lon="13.275954004964099"><ele>139.33333333333331</ele><time>2026-04-11T10:16:05Z</time></trkpt><trkpt lat="46.128598238207445" lon="13.275930591757358"><ele>140.0</ele><time>2026-04-11T10:16:06Z</time></trkpt><trkpt lat="46.128809380625455" lon="13.275922236597232"><ele>140.0</ele><time>2026-04-11T10:16:07Z</time></trkpt><trkpt lat="46.12902239786794" lon="13.275934622971713"><ele>140.0</ele><time>2026-04-11T10:16:08Z</time></trkpt><trkpt lat="46.1292333245292" lon="13.275968469773712"><ele>140.0</ele><time>2026-04-11T10:16:09Z</time></trkpt><trkpt lat="46.129440167575886" lon="13.276015562556159"><ele>140.33333333333331</ele><time>2026-04-11T10:16:10Z</time></trkpt><trkpt lat="46.12964361166356" lon="13.276071028017915"><ele>140.66666666666666</ele><time>2026-04-11T10:16:11Z</time></trkpt><trkpt lat="46.12984410728963" lon="13.276131377512467"><ele>141.0</ele><time>2026-04-11T10:16:12Z</time></trkpt><trkpt lat="46.130039902140155" lon="13.276203691475555"><ele>141.0</ele><time>2026-04-11T10:16:13Z</time></trkpt><trkpt lat="46.130237437028086" lon="13.276283201043919"><ele>141.0</ele><time>2026-04-11T10:16:14Z</time></trkpt><trkpt lat="46.130441680827374" lon="13.276368069134271"><ele>141.0</ele><time>2026-04-11T10:16:15Z</time></trkpt><trkpt lat="46.13064586945754" lon="13.276448844293562"><ele>141.33333333333334</ele><time>2026-04-11T10:16:16Z</time></trkpt><trkpt lat="46.1308482988297" lon="13.276527616934784"><ele>141.66666666666669</ele><time>2026-04-11T10:16:17Z</time></trkpt><trkpt lat="46.1310431005463" lon="13.276614739347615"><ele>142.0</ele><time>2026-04-11T10:16:18Z</time></trkpt><trkpt lat="46.13123574529979" lon="13.276719611937649"><ele>142.0</ele><time>2026-04-11T10:16:19Z</time></trkpt><trkpt lat="46.13142616014409" lon="13.276836207870145"><ele>142.0</ele><time>2026-04-11T10:16:20Z</time></trkpt><trkpt lat="46.13161885487905" lon="13.276950910329203"><ele>142.0</ele><time>2026-04-11T10:16:21Z</time></trkpt><trkpt lat="46.13181663612603" lon="13.277053917578904"><ele>142.33333333333334</ele><time>2026-04-11T10:16:22Z</time></trkpt><trkpt lat="46.1320206823603" lon="13.277137018807766"><ele>142.66666666666666</ele><time>2026-04-11T10:16:23Z</time></trkpt><trkpt lat="46.132225840362786" lon="13.27718228739962"><ele>143.0</ele><time>2026-04-11T10:16:24Z</time></trkpt><trkpt lat="46.13242982501439" lon="13.277194967295248"><ele>142.33333333333331</ele><time>2026-04-11T10:16:24.999Z</time></trkpt><trkpt lat="46.13263049928168" lon="13.27719192460109"><ele>141.66666666666666</ele><time>2026-04-11T10:16:25.999Z</time></trkpt><trkpt lat="46.13283006389008" lon="13.277179409883646"><ele>141.0</ele><time>2026-04-11T10:16:26.999Z</time></trkpt><trkpt lat="46.13302804972083" lon="13.27716016743056"><ele>141.33333333333334</ele><time>2026-04-11T10:16:27.999Z</time></trkpt><trkpt lat="46.133228561716024" lon="13.27713384961591"><ele>141.66666666666669</ele><time>2026-04-11T10:16:28.999Z</time></trkpt><trkpt lat="46.13343205962715" lon="13.277101002702137"><ele>142.0</ele><time>2026-04-11T10:16:29.999Z</time></trkpt><trkpt lat="46.1336368953257" lon="13.277066626753564"><ele>142.0</ele><time>2026-04-11T10:16:30.999Z</time></trkpt><trkpt lat="46.13384622859947" lon="13.277030810772029"><ele>142.0</ele><time>2026-04-11T10:16:31.999Z</time></trkpt><trkpt lat="46.13405942247453" lon="13.27699269995965"><ele>142.0</ele><time>2026-04-11T10:16:32.999Z</time></trkpt><trkpt lat="46.13427786709899" lon="13.276947615796164"><ele>142.0</ele><time>2026-04-11T10:16:33.999Z</time></trkpt><trkpt lat="46.13449628248731" lon="13.276892888543177"><ele>142.0</ele><time>2026-04-11T10:16:34.999Z</time></trkpt><trkpt lat="46.134719344617835" lon="13.276843693670871"><ele>142.0</ele><time>2026-04-11T10:16:35.999Z</time></trkpt><trkpt lat="46.13494378240631" lon="13.276801535221042"><ele>142.33333333333334</ele><time>2026-04-11T10:16:36.999Z</time></trkpt><trkpt lat="46.13516311283295" lon="13.276759520337736"><ele>142.66666666666666</ele><time>2026-04-11T10:16:37.999Z</time></trkpt><trkpt lat="46.13537594450644" lon="13.27672025632951"><ele>143.0</ele><time>2026-04-11T10:16:38.999Z</time></trkpt><trkpt lat="46.135571522866236" lon="13.27669430968512"><ele>143.0</ele><time>2026-04-11T10:16:39.999Z</time></trkpt><trkpt lat="46.135763428965255" lon="13.27668038661019"><ele>143.0</ele><time>2026-04-11T10:16:40.999Z</time></trkpt><trkpt lat="46.135956620947056" lon="13.276673545670008"><ele>143.0</ele><time>2026-04-11T10:16:41.999Z</time></trkpt><trkpt lat="46.13615263522789" lon="13.276667149614173"><ele>143.0</ele><time>2026-04-11T10:16:42.999Z</time></trkpt><trkpt lat="46.136344335435716" lon="13.276660560631075"><ele>143.0</ele><time>2026-04-11T10:16:43.999Z</time></trkpt><trkpt lat="46.13652280819345" lon="13.276652579025917"><ele>143.0</ele><time>2026-04-11T10:16:45Z</time></trkpt><trkpt lat="46.136704976860635" lon="13.276639057009309"><ele>143.33333333333331</ele><time>2026-04-11T10:16:46Z</time></trkpt><trkpt lat="46.13688410206721" lon="13.276627066360964"><ele>143.66666666666666</ele><time>2026-04-11T10:16:47Z</time></trkpt><trkpt lat="46.13706123455908" lon="13.276619067553984"><ele>144.0</ele><time>2026-04-11T10:16:48Z</time></trkpt><trkpt lat="46.137225522301335" lon="13.27662681848367"><ele>144.0</ele><time>2026-04-11T10:16:49Z</time></trkpt><trkpt lat="46.13737538191136" lon="13.276668256726227"><ele>144.0</ele><time>2026-04-11T10:16:50Z</time></trkpt><trkpt lat="46.1375383615501" lon="13.276746564481357"><ele>144.0</ele><time>2026-04-11T10:16:51Z</time></trkpt><trkpt lat="46.13770960506842" lon="13.276862970285398"><ele>145.0</ele><time>2026-04-11T10:16:52Z</time></trkpt><trkpt lat="46.13786941281626" lon="13.276969624050446"><ele>146.0</ele><time>2026-04-11T10:16:53Z</time></trkpt><trkpt lat="46.13801129341216" lon="13.27705720025556"><ele>147.0</ele><time>2026-04-11T10:16:54Z</time></trkpt><trkpt lat="46.13814430376335" lon="13.277134276815907"><ele>146.83333333333334</ele><time>2026-04-11T10:16:55Z</time></trkpt><trkpt lat="46.1382625319931" lon="13.27720281826793"><ele>146.66666666666666</ele><time>2026-04-11T10:16:56Z</time></trkpt><trkpt lat="46.138360529438735" lon="13.277261375124743"><ele>146.5</ele><time>2026-04-11T10:16:57Z</time></trkpt><trkpt lat="46.13843517072034" lon="13.277302022953013"><ele>146.33333333333331</ele><time>2026-04-11T10:16:58Z</time></trkpt><trkpt lat="46.138496266454815" lon="13.277336557413888"><ele>146.16666666666666</ele><time>2026-04-11T10:16:59Z</time></trkpt><trkpt lat="46.13856043165508" lon="13.277371034803007"><ele>146.0</ele><time>2026-04-11T10:17:00Z</time></trkpt><trkpt lat="46.13863593937552" lon="13.277429881595413"><ele>146.0</ele><time>2026-04-11T10:17:01Z</time></trkpt><trkpt lat="46.138726888323816" lon="13.277479683684593"><ele>146.0</ele><time>2026-04-11T10:17:02Z</time></trkpt><trkpt lat="46.13880217594831" lon="13.277519729801082"><ele>146.0</ele><time>2026-04-11T10:17:03Z</time></trkpt><trkpt lat="46.138878733646315" lon="13.277564558743373"><ele>146.0</ele><time>2026-04-11T10:17:04Z</time></trkpt><trkpt lat="46.138964964794994" lon="13.277650629919476"><ele>146.0</ele><time>2026-04-11T10:17:05Z</time></trkpt><trkpt lat="46.13908227382577" lon="13.27768086999178"><ele>146.0</ele><time>2026-04-11T10:17:06Z</time></trkpt><trkpt lat="46.139182926950454" lon="13.277737559094927"><ele>146.0</ele><time>2026-04-11T10:17:07Z</time></trkpt><trkpt lat="46.13926840811144" lon="13.27779000434121"><ele>146.0</ele><time>2026-04-11T10:17:08Z</time></trkpt><trkpt lat="46.139346284558435" lon="13.277831876181923"><ele>146.0</ele><time>2026-04-11T10:17:09Z</time></trkpt><trkpt lat="46.13941112858178" lon="13.277868118537437"><ele>146.0</ele><time>2026-04-11T10:17:10Z</time></trkpt><trkpt lat="46.13952763609262" lon="13.277939560455936"><ele>146.0</ele><time>2026-04-11T10:17:12Z</time></trkpt><trkpt lat="46.13963673592828" lon="13.278005883180445"><ele>146.0</ele><time>2026-04-11T10:17:13Z</time></trkpt><trkpt lat="46.13980229906193" lon="13.278107893718646"><ele>146.0</ele><time>2026-04-11T10:17:14Z</time></trkpt><trkpt lat="46.140038997828924" lon="13.278247352958086"><ele>145.5</ele><time>2026-04-11T10:17:15Z</time></trkpt><trkpt lat="46.1402748245" lon="13.27838646901151"><ele>145.0</ele><time>2026-04-11T10:17:16Z</time></trkpt><trkpt lat="46.14046538893124" lon="13.278501511273634"><ele>145.0</ele><time>2026-04-11T10:17:17Z</time></trkpt><trkpt lat="46.14063877822377" lon="13.278609461552119"><ele>145.0</ele><time>2026-04-11T10:17:18Z</time></trkpt><trkpt lat="46.14079709479091" lon="13.27870621336822"><ele>145.0</ele><time>2026-04-11T10:17:19Z</time></trkpt><trkpt lat="46.140940708078666" lon="13.278791214254973"><ele>145.2</ele><time>2026-04-11T10:17:20Z</time></trkpt><trkpt lat="46.141064136807856" lon="13.278864549925148"><ele>145.4</ele><time>2026-04-11T10:17:21Z</time></trkpt><trkpt lat="46.14116228891223" lon="13.278923398811514"><ele>145.6</ele><time>2026-04-11T10:17:22Z</time></trkpt><trkpt lat="46.14124028830378" lon="13.278970807791032"><ele>145.8</ele><time>2026-04-11T10:17:23Z</time></trkpt><trkpt lat="46.14131179928658" lon="13.279013293768907"><ele>146.0</ele><time>2026-04-11T10:17:24Z</time></trkpt><trkpt lat="46.14139450503961" lon="13.279064527635049"><ele>146.66666666666666</ele><time>2026-04-11T10:17:25Z</time></trkpt><trkpt lat="46.14151407937262" lon="13.279135922629633"><ele>147.33333333333334</ele><time>2026-04-11T10:17:26Z</time></trkpt><trkpt lat="46.14169136333852" lon="13.27924437155763"><ele>148.0</ele><time>2026-04-11T10:17:27Z</time></trkpt><trkpt lat="46.14187929223612" lon="13.279361378843989"><ele>148.0</ele><time>2026-04-11T10:17:28Z</time></trkpt><trkpt lat="46.142065102773635" lon="13.279478105360178"><ele>148.0</ele><time>2026-04-11T10:17:29Z</time></trkpt><trkpt lat="46.14227278340067" lon="13.2795976688223"><ele>148.0</ele><time>2026-04-11T10:17:30Z</time></trkpt><trkpt lat="46.142471509821505" lon="13.279715045512347"><ele>148.33333333333334</ele><time>2026-04-11T10:17:31Z</time></trkpt><trkpt lat="46.14264473927701" lon="13.279820718769015"><ele>148.66666666666666</ele><time>2026-04-11T10:17:32Z</time></trkpt><trkpt lat="46.142803434972656" lon="13.279918343444207"><ele>149.0</ele><time>2026-04-11T10:17:33Z</time></trkpt><trkpt lat="46.142954536525025" lon="13.280011122933686"><ele>149.0</ele><time>2026-04-11T10:17:34Z</time></trkpt><trkpt lat="46.14310537489472" lon="13.280100165714941"><ele>149.0</ele><time>2026-04-11T10:17:35Z</time></trkpt><trkpt lat="46.14325466681269" lon="13.280188051929112"><ele>149.0</ele><time>2026-04-11T10:17:36Z</time></trkpt><trkpt lat="46.14340592203278" lon="13.28027921962548"><ele>148.66666666666666</ele><time>2026-04-11T10:17:37Z</time></trkpt><trkpt lat="46.14356319946652" lon="13.280369235529195"><ele>148.33333333333334</ele><time>2026-04-11T10:17:38Z</time></trkpt><trkpt lat="46.14372213153122" lon="13.280466147593897"><ele>148.0</ele><time>2026-04-11T10:17:39Z</time></trkpt><trkpt lat="46.14388415437249" lon="13.280565364941253"><ele>148.0</ele><time>2026-04-11T10:17:40Z</time></trkpt><trkpt lat="46.1440390923679" lon="13.28065804575105"><ele>148.0</ele><time>2026-04-11T10:17:41Z</time></trkpt><trkpt lat="46.144174691154085" lon="13.280737548131647"><ele>148.0</ele><time>2026-04-11T10:17:42Z</time></trkpt><trkpt lat="46.14429818255178" lon="13.280811210225405"><ele>148.0</ele><time>2026-04-11T10:17:43Z</time></trkpt><trkpt lat="46.144404327887706" lon="13.28087573879371"><ele>148.0</ele><time>2026-04-11T10:17:44Z</time></trkpt><trkpt lat="46.14449687199457" lon="13.28093099460951"><ele>148.0</ele><time>2026-04-11T10:17:45Z</time></trkpt><trkpt lat="46.14457968605355" lon="13.280980687550683"><ele>148.0</ele><time>2026-04-11T10:17:46Z</time></trkpt><trkpt lat="46.14465380760466" lon="13.281025363093281"><ele>148.0</ele><time>2026-04-11T10:17:47Z</time></trkpt><trkpt lat="46.14474656929931" lon="13.281078886092061"><ele>148.0</ele><time>2026-04-11T10:17:48Z</time></trkpt><trkpt lat="46.14487355013624" lon="13.281154553258842"><ele>149.33333333333334</ele><time>2026-04-11T10:17:49Z</time></trkpt><trkpt lat="46.14505186663508" lon="13.281264528041877"><ele>150.66666666666666</ele><time>2026-04-11T10:17:50Z</time></trkpt><trkpt lat="46.14527065705078" lon="13.281398011814748"><ele>152.0</ele><time>2026-04-11T10:17:51Z</time></trkpt><trkpt lat="46.145447221252425" lon="13.281501693180312"><ele>152.0</ele><time>2026-04-11T10:17:52Z</time></trkpt><trkpt lat="46.14559182220371" lon="13.28158847656492"><ele>152.0</ele><time>2026-04-11T10:17:53Z</time></trkpt><trkpt lat="46.14570964241595" lon="13.281661026182462"><ele>152.0</ele><time>2026-04-11T10:17:54Z</time></trkpt><trkpt lat="46.145796630732505" lon="13.281716216983524"><ele>152.0</ele><time>2026-04-11T10:17:55Z</time></trkpt><trkpt lat="46.14587706540229" lon="13.281764370463275"><ele>151.66666666666666</ele><time>2026-04-11T10:17:56Z</time></trkpt><trkpt lat="46.14599230537379" lon="13.281836199941324"><ele>151.33333333333334</ele><time>2026-04-11T10:17:57Z</time></trkpt><trkpt lat="46.14618030454146" lon="13.281943959372732"><ele>151.0</ele><time>2026-04-11T10:17:58Z</time></trkpt><trkpt lat="46.14644033823524" lon="13.282100656620576"><ele>150.0</ele><time>2026-04-11T10:17:59Z</time></trkpt><trkpt lat="46.14670708768703" lon="13.282256367436"><ele>149.0</ele><time>2026-04-11T10:18:00Z</time></trkpt><trkpt lat="46.14692455792338" lon="13.282380861570434"><ele>149.0</ele><time>2026-04-11T10:18:01Z</time></trkpt><trkpt lat="46.14710040061467" lon="13.282477377803351"><ele>149.0</ele><time>2026-04-11T10:18:02Z</time></trkpt><trkpt lat="46.14724415227439" lon="13.282572107352724"><ele>149.0</ele><time>2026-04-11T10:18:03Z</time></trkpt><trkpt lat="46.14736463854697" lon="13.282682614571648"><ele>149.25</ele><time>2026-04-11T10:18:04Z</time></trkpt><trkpt lat="46.1474675437876" lon="13.282808553063203"><ele>149.5</ele><time>2026-04-11T10:18:05Z</time></trkpt><trkpt lat="46.14754460353718" lon="13.282978687282474"><ele>149.75</ele><time>2026-04-11T10:18:06Z</time></trkpt><trkpt lat="46.14763626032157" lon="13.283156583059471"><ele>150.0</ele><time>2026-04-11T10:18:07Z</time></trkpt><trkpt lat="46.14771198776676" lon="13.283362731645376"><ele>150.0</ele><time>2026-04-11T10:18:08Z</time></trkpt><trkpt lat="46.14779601960042" lon="13.28357317344429"><ele>150.0</ele><time>2026-04-11T10:18:09Z</time></trkpt><trkpt lat="46.14787779903963" lon="13.28379033560133"><ele>150.0</ele><time>2026-04-11T10:18:10Z</time></trkpt><trkpt lat="46.14796216721956" lon="13.284004042937413"><ele>150.0</ele><time>2026-04-11T10:18:11Z</time></trkpt><trkpt lat="46.14804762654636" lon="13.284220894954695"><ele>150.0</ele><time>2026-04-11T10:18:12Z</time></trkpt><trkpt lat="46.14813417497998" lon="13.284444975574155"><ele>150.0</ele><time>2026-04-11T10:18:13Z</time></trkpt><trkpt lat="46.14822883125387" lon="13.2846880859631"><ele>149.33333333333334</ele><time>2026-04-11T10:18:14Z</time></trkpt><trkpt lat="46.148328678287044" lon="13.284946369824587"><ele>148.66666666666669</ele><time>2026-04-11T10:18:15Z</time></trkpt><trkpt lat="46.1484305556954" lon="13.28520972630419"><ele>148.0</ele><time>2026-04-11T10:18:16Z</time></trkpt><trkpt lat="46.14853392432923" lon="13.285474657536367"><ele>148.33333333333334</ele><time>2026-04-11T10:18:17Z</time></trkpt><trkpt lat="46.148637309491654" lon="13.285738920941023"><ele>148.66666666666666</ele><time>2026-04-11T10:18:18Z</time></trkpt><trkpt lat="46.14873904242314" lon="13.285997654980763"><ele>149.0</ele><time>2026-04-11T10:18:19Z</time></trkpt><trkpt lat="46.14883905969786" lon="13.286259545795307"><ele>149.0</ele><time>2026-04-11T10:18:20Z</time></trkpt><trkpt lat="46.14894206716894" lon="13.286528258928133"><ele>149.0</ele><time>2026-04-11T10:18:21Z</time></trkpt><trkpt lat="46.14904769481271" lon="13.28679524165543"><ele>149.0</ele><time>2026-04-11T10:18:22Z</time></trkpt><trkpt lat="46.149151695942855" lon="13.287063007898935"><ele>148.66666666666666</ele><time>2026-04-11T10:18:23Z</time></trkpt><trkpt lat="46.14925517771458" lon="13.287329210637305"><ele>148.33333333333334</ele><time>2026-04-11T10:18:24Z</time></trkpt><trkpt lat="46.14935637638555" lon="13.287590178019153"><ele>148.0</ele><time>2026-04-11T10:18:25Z</time></trkpt><trkpt lat="46.14945725977969" lon="13.28784666092095"><ele>147.66666666666669</ele><time>2026-04-11T10:18:26Z</time></trkpt><trkpt lat="46.149556867569196" lon="13.288098487779425"><ele>147.33333333333334</ele><time>2026-04-11T10:18:26.999Z</time></trkpt><trkpt lat="46.14965396422686" lon="13.288344132717153"><ele>147.0</ele><time>2026-04-11T10:18:27.999Z</time></trkpt><trkpt lat="46.149743865524805" lon="13.288570175050072"><ele>147.0</ele><time>2026-04-11T10:18:28.999Z</time></trkpt><trkpt lat="46.149812245123776" lon="13.288786988346287"><ele>147.0</ele><time>2026-04-11T10:18:29.999Z</time></trkpt><trkpt lat="46.14988703071157" lon="13.288976461100253"><ele>147.0</ele><time>2026-04-11T10:18:30.999Z</time></trkpt><trkpt lat="46.14995502638976" lon="13.289148731297814"><ele>147.25</ele><time>2026-04-11T10:18:31.999Z</time></trkpt><trkpt lat="46.15002032537968" lon="13.289314169311531"><ele>147.5</ele><time>2026-04-11T10:18:32.999Z</time></trkpt><trkpt lat="46.150098798447814" lon="13.289475607016572"><ele>147.75</ele><time>2026-04-11T10:18:33.999Z</time></trkpt><trkpt lat="46.150151477934436" lon="13.28961952438142"><ele>148.0</ele><time>2026-04-11T10:18:34.999Z</time></trkpt><trkpt lat="46.150203604246926" lon="13.289750313381791"><ele>148.0</ele><time>2026-04-11T10:18:35.999Z</time></trkpt><trkpt lat="46.150256083611104" lon="13.289881340544703"><ele>148.0</ele><time>2026-04-11T10:18:36.999Z</time></trkpt><trkpt lat="46.15031237954101" lon="13.290024366642331"><ele>148.0</ele><time>2026-04-11T10:18:37.999Z</time></trkpt><trkpt lat="46.150373138245335" lon="13.290191003645367"><ele>148.0</ele><time>2026-04-11T10:18:38.999Z</time></trkpt><trkpt lat="46.15044356260772" lon="13.290378965722034"><ele>148.0</ele><time>2026-04-11T10:18:39.999Z</time></trkpt><trkpt lat="46.15051632571333" lon="13.290584413402945"><ele>148.0</ele><time>2026-04-11T10:18:40.999Z</time></trkpt><trkpt lat="46.15058803734968" lon="13.290802865314268"><ele>148.0</ele><time>2026-04-11T10:18:41.999Z</time></trkpt><trkpt lat="46.150651193233365" lon="13.291037442399215"><ele>148.33333333333334</ele><time>2026-04-11T10:18:42.999Z</time></trkpt><trkpt lat="46.15071657824602" lon="13.291283592576711"><ele>148.66666666666666</ele><time>2026-04-11T10:18:43.999Z</time></trkpt><trkpt lat="46.15078500427539" lon="13.291526988788913"><ele>149.0</ele><time>2026-04-11T10:18:44.999Z</time></trkpt><trkpt lat="46.15084652880567" lon="13.291774768980698"><ele>149.0</ele><time>2026-04-11T10:18:45.999Z</time></trkpt><trkpt lat="46.150900635485115" lon="13.2920233133156"><ele>149.0</ele><time>2026-04-11T10:18:46.999Z</time></trkpt><trkpt lat="46.15092576020937" lon="13.292253682731157"><ele>149.0</ele><time>2026-04-11T10:18:47.999Z</time></trkpt><trkpt lat="46.15093344404473" lon="13.292459155934148"><ele>149.0</ele><time>2026-04-11T10:18:48.999Z</time></trkpt><trkpt lat="46.150931511681456" lon="13.292681407433347"><ele>149.0</ele><time>2026-04-11T10:18:49.999Z</time></trkpt><trkpt lat="46.150913634778384" lon="13.292919056823925"><ele>149.0</ele><time>2026-04-11T10:18:51Z</time></trkpt><trkpt lat="46.1508901342423" lon="13.293150006980477"><ele>148.75</ele><time>2026-04-11T10:18:52Z</time></trkpt><trkpt lat="46.15087059677195" lon="13.293344121849481"><ele>148.5</ele><time>2026-04-11T10:18:53Z</time></trkpt><trkpt lat="46.15084829751788" lon="13.293517867221315"><ele>148.25</ele><time>2026-04-11T10:18:54Z</time></trkpt><trkpt lat="46.15082908128996" lon="13.29367203727492"><ele>148.0</ele><time>2026-04-11T10:18:55Z</time></trkpt><trkpt lat="46.15081028433264" lon="13.293805988672295"><ele>148.0</ele><time>2026-04-11T10:18:56Z</time></trkpt><trkpt lat="46.15079147298177" lon="13.293939639177276"><ele>148.0</ele><time>2026-04-11T10:18:57Z</time></trkpt><trkpt lat="46.15076798883634" lon="13.29407582387701"><ele>148.0</ele><time>2026-04-11T10:18:58Z</time></trkpt><trkpt lat="46.15074060119952" lon="13.294225846249901"><ele>148.0</ele><time>2026-04-11T10:18:59Z</time></trkpt><trkpt lat="46.15071939544713" lon="13.294402597586176"><ele>148.0</ele><time>2026-04-11T10:19:00Z</time></trkpt><trkpt lat="46.150705309523666" lon="13.294608856101542"><ele>148.0</ele><time>2026-04-11T10:19:01Z</time></trkpt><trkpt lat="46.150693577985656" lon="13.294816484981254"><ele>148.0</ele><time>2026-04-11T10:19:02Z</time></trkpt><trkpt lat="46.1506873700713" lon="13.295001649462248"><ele>148.0</ele><time>2026-04-11T10:19:03Z</time></trkpt><trkpt lat="46.15068226743998" lon="13.295166095646556"><ele>148.0</ele><time>2026-04-11T10:19:04Z</time></trkpt><trkpt lat="46.15067815233075" lon="13.295317345909801"><ele>148.0</ele><time>2026-04-11T10:19:05Z</time></trkpt><trkpt lat="46.15067869238163" lon="13.295444261432092"><ele>148.0</ele><time>2026-04-11T10:19:06Z</time></trkpt><trkpt lat="46.15068313930126" lon="13.295560350650003"><ele>148.0</ele><time>2026-04-11T10:19:07Z</time></trkpt><trkpt lat="46.15069011199549" lon="13.29571944214817"><ele>148.0</ele><time>2026-04-11T10:19:09Z</time></trkpt><trkpt lat="46.150680648985514" lon="13.295833601205272"><ele>148.0</ele><time>2026-04-11T10:19:19Z</time></trkpt><trkpt lat="46.15070510801272" lon="13.295978436774964"><ele>148.4</ele><time>2026-04-11T10:19:21Z</time></trkpt><trkpt lat="46.15071967087304" lon="13.296076559070002"><ele>148.8</ele><time>2026-04-11T10:19:22Z</time></trkpt><trkpt lat="46.15074311825291" lon="13.29619051301735"><ele>149.2</ele><time>2026-04-11T10:19:23Z</time></trkpt><trkpt lat="46.15077948811555" lon="13.296301963765611"><ele>149.6</ele><time>2026-04-11T10:19:24Z</time></trkpt><trkpt lat="46.15083402276139" lon="13.296423826282728"><ele>150.0</ele><time>2026-04-11T10:19:25Z</time></trkpt><trkpt lat="46.15095211392542" lon="13.29652497102204"><ele>150.25</ele><time>2026-04-11T10:19:26Z</time></trkpt><trkpt lat="46.15107231913445" lon="13.296636414636884"><ele>150.5</ele><time>2026-04-11T10:19:27Z</time></trkpt><trkpt lat="46.15119537620375" lon="13.296744459163268"><ele>150.75</ele><time>2026-04-11T10:19:28Z</time></trkpt><trkpt lat="46.15132058092079" lon="13.296836654006334"><ele>151.0</ele><time>2026-04-11T10:19:29Z</time></trkpt><trkpt lat="46.15144931045272" lon="13.296915873444007"><ele>151.0</ele><time>2026-04-11T10:19:30Z</time></trkpt><trkpt lat="46.151585922854274" lon="13.296993581133327"><ele>151.0</ele><time>2026-04-11T10:19:31Z</time></trkpt><trkpt lat="46.15171996939298" lon="13.297087236551347"><ele>151.0</ele><time>2026-04-11T10:19:32Z</time></trkpt><trkpt lat="46.15185731618359" lon="13.297207646001752"><ele>150.5</ele><time>2026-04-11T10:19:33Z</time></trkpt><trkpt lat="46.15197656012845" lon="13.297331988340641"><ele>150.0</ele><time>2026-04-11T10:19:34Z</time></trkpt><trkpt lat="46.15208697605279" lon="13.297456206855943"><ele>149.5</ele><time>2026-04-11T10:19:35Z</time></trkpt><trkpt lat="46.152199586484926" lon="13.29757869010172"><ele>149.0</ele><time>2026-04-11T10:19:36Z</time></trkpt><trkpt lat="46.152302557302605" lon="13.297671433532592"><ele>149.5</ele><time>2026-04-11T10:19:37Z</time></trkpt><trkpt lat="46.15242181450272" lon="13.297747031208472"><ele>150.0</ele><time>2026-04-11T10:19:38Z</time></trkpt><trkpt lat="46.152557441722394" lon="13.297790091885378"><ele>150.5</ele><time>2026-04-11T10:19:39Z</time></trkpt><trkpt lat="46.152707394396934" lon="13.297804861791459"><ele>151.0</ele><time>2026-04-11T10:19:40Z</time></trkpt><trkpt lat="46.152876126283424" lon="13.29780141481489"><ele>151.0</ele><time>2026-04-11T10:19:41Z</time></trkpt><trkpt lat="46.153055759349805" lon="13.297798986594668"><ele>151.0</ele><time>2026-04-11T10:19:42Z</time></trkpt><trkpt lat="46.153241300690816" lon="13.297803750916897"><ele>151.0</ele><time>2026-04-11T10:19:43Z</time></trkpt><trkpt lat="46.15342181949697" lon="13.297812253478751"><ele>151.0</ele><time>2026-04-11T10:19:44Z</time></trkpt><trkpt lat="46.1535979352811" lon="13.297820033868874"><ele>151.0</ele><time>2026-04-11T10:19:45Z</time></trkpt><trkpt lat="46.15377324021391" lon="13.297827398398503"><ele>151.0</ele><time>2026-04-11T10:19:46Z</time></trkpt><trkpt lat="46.1539489406731" lon="13.297833689405543"><ele>151.0</ele><time>2026-04-11T10:19:47Z</time></trkpt><trkpt lat="46.15412880749243" lon="13.297831548168935"><ele>151.0</ele><time>2026-04-11T10:19:48Z</time></trkpt><trkpt lat="46.154306292235106" lon="13.297819541449952"><ele>151.0</ele><time>2026-04-11T10:19:49Z</time></trkpt><trkpt lat="46.15447380685617" lon="13.297784566616825"><ele>151.0</ele><time>2026-04-11T10:19:50Z</time></trkpt><trkpt lat="46.15464354501548" lon="13.297703346993828"><ele>151.0</ele><time>2026-04-11T10:19:51Z</time></trkpt><trkpt lat="46.15483558458545" lon="13.297639801405088"><ele>151.0</ele><time>2026-04-11T10:19:52Z</time></trkpt><trkpt lat="46.154997887083184" lon="13.297567209420734"><ele>150.66666666666669</ele><time>2026-04-11T10:19:53Z</time></trkpt><trkpt lat="46.155154552929915" lon="13.297478949391836"><ele>150.33333333333334</ele><time>2026-04-11T10:19:54Z</time></trkpt><trkpt lat="46.15531432933233" lon="13.297419103001694"><ele>150.0</ele><time>2026-04-11T10:19:55Z</time></trkpt><trkpt lat="46.155474631536286" lon="13.297368536719699"><ele>150.0</ele><time>2026-04-11T10:19:56Z</time></trkpt><trkpt lat="46.15563847583923" lon="13.297339355540629"><ele>150.0</ele><time>2026-04-11T10:19:57Z</time></trkpt><trkpt lat="46.15581934563821" lon="13.297328670324447"><ele>150.0</ele><time>2026-04-11T10:19:58Z</time></trkpt><trkpt lat="46.15599929349747" lon="13.297338510331885"><ele>150.0</ele><time>2026-04-11T10:19:59Z</time></trkpt><trkpt lat="46.1561750789277" lon="13.297368085593881"><ele>150.0</ele><time>2026-04-11T10:20:00Z</time></trkpt><trkpt lat="46.156359088667955" lon="13.29741842611592"><ele>150.0</ele><time>2026-04-11T10:20:01Z</time></trkpt><trkpt lat="46.15655193053128" lon="13.297483058561381"><ele>151.0</ele><time>2026-04-11T10:20:02Z</time></trkpt><trkpt lat="46.15674296387539" lon="13.297547608304392"><ele>152.0</ele><time>2026-04-11T10:20:03Z</time></trkpt><trkpt lat="46.15693653677101" lon="13.29761134317631"><ele>153.0</ele><time>2026-04-11T10:20:04Z</time></trkpt><trkpt lat="46.157134557066286" lon="13.297676759902961"><ele>153.0</ele><time>2026-04-11T10:20:05Z</time></trkpt><trkpt lat="46.15733407921749" lon="13.297741121050073"><ele>153.0</ele><time>2026-04-11T10:20:06Z</time></trkpt><trkpt lat="46.157530267758524" lon="13.297803693063923"><ele>153.0</ele><time>2026-04-11T10:20:07Z</time></trkpt><trkpt lat="46.15772436796796" lon="13.297863989090557"><ele>153.0</ele><time>2026-04-11T10:20:08Z</time></trkpt><trkpt lat="46.157919257233566" lon="13.297923901214478"><ele>153.0</ele><time>2026-04-11T10:20:09Z</time></trkpt><trkpt lat="46.15811193873363" lon="13.297984664697548"><ele>153.0</ele><time>2026-04-11T10:20:10Z</time></trkpt><trkpt lat="46.158300660428466" lon="13.2980444295665"><ele>152.0</ele><time>2026-04-11T10:20:11Z</time></trkpt><trkpt lat="46.15848571727722" lon="13.298105366644563"><ele>151.0</ele><time>2026-04-11T10:20:12Z</time></trkpt><trkpt lat="46.15866990613406" lon="13.298168069027628"><ele>150.0</ele><time>2026-04-11T10:20:13Z</time></trkpt><trkpt lat="46.15885559051966" lon="13.298230209691868"><ele>151.0</ele><time>2026-04-11T10:20:14Z</time></trkpt><trkpt lat="46.15904122535758" lon="13.298286696529797"><ele>152.0</ele><time>2026-04-11T10:20:15Z</time></trkpt><trkpt lat="46.15923152265561" lon="13.298312681753794"><ele>153.0</ele><time>2026-04-11T10:20:15.999Z</time></trkpt><trkpt lat="46.159433906601684" lon="13.298296979025055"><ele>153.0</ele><time>2026-04-11T10:20:16.999Z</time></trkpt><trkpt lat="46.15964008850401" lon="13.298245457763704"><ele>153.0</ele><time>2026-04-11T10:20:17.999Z</time></trkpt><trkpt lat="46.15984927019121" lon="13.298182826567112"><ele>153.0</ele><time>2026-04-11T10:20:18.999Z</time></trkpt><trkpt lat="46.160059919378284" lon="13.298125066880868"><ele>153.66666666666666</ele><time>2026-04-11T10:20:19.999Z</time></trkpt><trkpt lat="46.16026518505589" lon="13.29806952427675"><ele>154.33333333333331</ele><time>2026-04-11T10:20:20.999Z</time></trkpt><trkpt lat="46.16046477257377" lon="13.29801513011216"><ele>155.0</ele><time>2026-04-11T10:20:21.999Z</time></trkpt><trkpt lat="46.1606601532699" lon="13.297965531875976"><ele>157.0</ele><time>2026-04-11T10:20:22.999Z</time></trkpt><trkpt lat="46.16085227516041" lon="13.297916510480233"><ele>159.0</ele><time>2026-04-11T10:20:23.999Z</time></trkpt><trkpt lat="46.16104278664457" lon="13.297870020519165"><ele>161.0</ele><time>2026-04-11T10:20:24.999Z</time></trkpt><trkpt lat="46.161234483648094" lon="13.297838122510116"><ele>161.0</ele><time>2026-04-11T10:20:25.999Z</time></trkpt><trkpt lat="46.16142688438387" lon="13.297819111425268"><ele>161.0</ele><time>2026-04-11T10:20:26.999Z</time></trkpt><trkpt lat="46.161620658176695" lon="13.297805993187012"><ele>161.0</ele><time>2026-04-11T10:20:27.999Z</time></trkpt><trkpt lat="46.16181445910796" lon="13.297803294083854"><ele>161.66666666666666</ele><time>2026-04-11T10:20:28.999Z</time></trkpt><trkpt lat="46.162008465256136" lon="13.297797939114515"><ele>162.33333333333334</ele><time>2026-04-11T10:20:29.999Z</time></trkpt><trkpt lat="46.16218139295121" lon="13.297787472410347"><ele>163.0</ele><time>2026-04-11T10:20:30.999Z</time></trkpt><trkpt lat="46.16234195674309" lon="13.297774379780055"><ele>163.0</ele><time>2026-04-11T10:20:31.999Z</time></trkpt><trkpt lat="46.16249469186382" lon="13.29774919006042"><ele>163.0</ele><time>2026-04-11T10:20:32.999Z</time></trkpt><trkpt lat="46.16264151515221" lon="13.297696968909896"><ele>163.0</ele><time>2026-04-11T10:20:33.999Z</time></trkpt><trkpt lat="46.1627953614068" lon="13.297609389275598"><ele>163.0</ele><time>2026-04-11T10:20:34.999Z</time></trkpt><trkpt lat="46.16295738502358" lon="13.297486850843896"><ele>163.0</ele><time>2026-04-11T10:20:35.999Z</time></trkpt><trkpt lat="46.16312175546313" lon="13.297323308192167"><ele>163.0</ele><time>2026-04-11T10:20:36.999Z</time></trkpt><trkpt lat="46.16327805497597" lon="13.297155604577437"><ele>165.66666666666669</ele><time>2026-04-11T10:20:37.999Z</time></trkpt><trkpt lat="46.16343239626478" lon="13.296993219173478"><ele>168.33333333333334</ele><time>2026-04-11T10:20:38.999Z</time></trkpt><trkpt lat="46.16358355088006" lon="13.29683632890494"><ele>171.0</ele><time>2026-04-11T10:20:39.999Z</time></trkpt><trkpt lat="46.16372861377103" lon="13.296685361712344"><ele>171.0</ele><time>2026-04-11T10:20:40.999Z</time></trkpt><trkpt lat="46.16387304509348" lon="13.296531360109597"><ele>171.0</ele><time>2026-04-11T10:20:41.999Z</time></trkpt><trkpt lat="46.16402101117739" lon="13.296375608850859"><ele>171.0</ele><time>2026-04-11T10:20:42.999Z</time></trkpt><trkpt lat="46.164158248526334" lon="13.296230970398783"><ele>172.0</ele><time>2026-04-11T10:20:43.999Z</time></trkpt><trkpt lat="46.16428450263742" lon="13.296100061046252"><ele>173.0</ele><time>2026-04-11T10:20:44.999Z</time></trkpt><trkpt lat="46.16442285483356" lon="13.295974465231224"><ele>174.0</ele><time>2026-04-11T10:20:45.999Z</time></trkpt><trkpt lat="46.16456781574801" lon="13.295873352868728"><ele>174.0</ele><time>2026-04-11T10:20:46.999Z</time></trkpt><trkpt lat="46.164724136880885" lon="13.295804141178369"><ele>174.0</ele><time>2026-04-11T10:20:47.999Z</time></trkpt><trkpt lat="46.164897534217644" lon="13.295734627099778"><ele>174.0</ele><time>2026-04-11T10:20:48.999Z</time></trkpt><trkpt lat="46.16507699027474" lon="13.295654629403806"><ele>177.33333333333334</ele><time>2026-04-11T10:20:49.999Z</time></trkpt><trkpt lat="46.16526338675728" lon="13.295582084491484"><ele>180.66666666666669</ele><time>2026-04-11T10:20:50.999Z</time></trkpt><trkpt lat="46.16544942491873" lon="13.295497095520927"><ele>184.0</ele><time>2026-04-11T10:20:51.999Z</time></trkpt><trkpt lat="46.1656457815483" lon="13.295414004876712"><ele>181.33333333333334</ele><time>2026-04-11T10:20:52.999Z</time></trkpt><trkpt lat="46.165845330540165" lon="13.295334617624654"><ele>178.66666666666666</ele><time>2026-04-11T10:20:53.999Z</time></trkpt><trkpt lat="46.16604068623327" lon="13.29526714146859"><ele>176.0</ele><time>2026-04-11T10:20:54.999Z</time></trkpt><trkpt lat="46.166236788687925" lon="13.29520977013212"><ele>176.0</ele><time>2026-04-11T10:20:55.999Z</time></trkpt><trkpt lat="46.1664419749749" lon="13.295157502187116"><ele>176.0</ele><time>2026-04-11T10:20:57Z</time></trkpt><trkpt lat="46.1666457614573" lon="13.295111062303501"><ele>176.0</ele><time>2026-04-11T10:20:58Z</time></trkpt><trkpt lat="46.16684433040625" lon="13.29507130114736"><ele>173.33333333333331</ele><time>2026-04-11T10:20:59Z</time></trkpt><trkpt lat="46.16704507536217" lon="13.29504257012901"><ele>170.66666666666666</ele><time>2026-04-11T10:21:00Z</time></trkpt><trkpt lat="46.167248023272265" lon="13.295027358801795"><ele>168.0</ele><time>2026-04-11T10:21:01Z</time></trkpt><trkpt lat="46.16745350525613" lon="13.295023033961307"><ele>167.66666666666666</ele><time>2026-04-11T10:21:02Z</time></trkpt><trkpt lat="46.16766485582297" lon="13.295022618217468"><ele>167.33333333333331</ele><time>2026-04-11T10:21:03Z</time></trkpt><trkpt lat="46.16786740137674" lon="13.295020288134687"><ele>167.0</ele><time>2026-04-11T10:21:04Z</time></trkpt><trkpt lat="46.168054778367924" lon="13.295016995610876"><ele>166.66666666666666</ele><time>2026-04-11T10:21:05Z</time></trkpt><trkpt lat="46.16823988043825" lon="13.294999529670129"><ele>166.33333333333334</ele><time>2026-04-11T10:21:06Z</time></trkpt><trkpt lat="46.16841780843717" lon="13.294938007691197"><ele>166.0</ele><time>2026-04-11T10:21:07Z</time></trkpt><trkpt lat="46.16859707006394" lon="13.294839707571244"><ele>170.66666666666669</ele><time>2026-04-11T10:21:08Z</time></trkpt><trkpt lat="46.168771694884036" lon="13.294737491061131"><ele>175.33333333333334</ele><time>2026-04-11T10:21:09Z</time></trkpt><trkpt lat="46.16894458843166" lon="13.294637788125916"><ele>180.0</ele><time>2026-04-11T10:21:10Z</time></trkpt><trkpt lat="46.169124314398545" lon="13.294542199704233"><ele>180.0</ele><time>2026-04-11T10:21:11Z</time></trkpt><trkpt lat="46.169306401689504" lon="13.294445224212254"><ele>180.0</ele><time>2026-04-11T10:21:12Z</time></trkpt><trkpt lat="46.169468095624914" lon="13.294351956730232"><ele>180.0</ele><time>2026-04-11T10:21:13Z</time></trkpt><trkpt lat="46.16963438011093" lon="13.294261020860729"><ele>180.0</ele><time>2026-04-11T10:21:14Z</time></trkpt><trkpt lat="46.1698109141295" lon="13.294175529016236"><ele>180.0</ele><time>2026-04-11T10:21:15Z</time></trkpt><trkpt lat="46.1699930810797" lon="13.29410944182047"><ele>180.0</ele><time>2026-04-11T10:21:16Z</time></trkpt><trkpt lat="46.170188556885" lon="13.294059002716338"><ele>177.66666666666666</ele><time>2026-04-11T10:21:17Z</time></trkpt><trkpt lat="46.1703942105794" lon="13.294019174007751"><ele>175.33333333333331</ele><time>2026-04-11T10:21:18Z</time></trkpt><trkpt lat="46.17060259373546" lon="13.293986394199909"><ele>173.0</ele><time>2026-04-11T10:21:19Z</time></trkpt><trkpt lat="46.170793591108485" lon="13.293944939716758"><ele>174.33333333333331</ele><time>2026-04-11T10:21:20Z</time></trkpt><trkpt lat="46.170984896777576" lon="13.293892170898374"><ele>175.66666666666666</ele><time>2026-04-11T10:21:21Z</time></trkpt><trkpt lat="46.17118003496575" lon="13.293838197305101"><ele>177.0</ele><time>2026-04-11T10:21:22Z</time></trkpt><trkpt lat="46.171381851048174" lon="13.293768060552987"><ele>175.33333333333334</ele><time>2026-04-11T10:21:23Z</time></trkpt><trkpt lat="46.171577484720004" lon="13.293698558705879"><ele>173.66666666666669</ele><time>2026-04-11T10:21:24Z</time></trkpt><trkpt lat="46.17176977711927" lon="13.293626479939242"><ele>172.0</ele><time>2026-04-11T10:21:25Z</time></trkpt><trkpt lat="46.171962147419265" lon="13.293556694323144"><ele>172.0</ele><time>2026-04-11T10:21:26Z</time></trkpt><trkpt lat="46.1721597827886" lon="13.293483510006554"><ele>172.0</ele><time>2026-04-11T10:21:27Z</time></trkpt><trkpt lat="46.17236888868012" lon="13.293409006389036"><ele>172.0</ele><time>2026-04-11T10:21:28Z</time></trkpt><trkpt lat="46.172558661188305" lon="13.293342201358058"><ele>172.66666666666669</ele><time>2026-04-11T10:21:29Z</time></trkpt><trkpt lat="46.172727608984474" lon="13.29327912941048"><ele>173.33333333333334</ele><time>2026-04-11T10:21:30Z</time></trkpt><trkpt lat="46.172885776440005" lon="13.293218578644943"><ele>174.0</ele><time>2026-04-11T10:21:31Z</time></trkpt><trkpt lat="46.17304527081518" lon="13.293167242552004"><ele>172.0</ele><time>2026-04-11T10:21:32Z</time></trkpt><trkpt lat="46.17320283901142" lon="13.293126419624883"><ele>170.0</ele><time>2026-04-11T10:21:33Z</time></trkpt><trkpt lat="46.173359205013654" lon="13.293098910270967"><ele>168.0</ele><time>2026-04-11T10:21:34Z</time></trkpt><trkpt lat="46.173510029200074" lon="13.293092386061241"><ele>168.0</ele><time>2026-04-11T10:21:35Z</time></trkpt><trkpt lat="46.17365389680358" lon="13.293103584845367"><ele>168.0</ele><time>2026-04-11T10:21:36Z</time></trkpt><trkpt lat="46.17379313741807" lon="13.293126688025897"><ele>168.0</ele><time>2026-04-11T10:21:37Z</time></trkpt><trkpt lat="46.17393442371767" lon="13.293162202569816"><ele>168.0</ele><time>2026-04-11T10:21:38Z</time></trkpt><trkpt lat="46.17407869050716" lon="13.293214369494388"><ele>168.0</ele><time>2026-04-11T10:21:39Z</time></trkpt><trkpt lat="46.174223621883115" lon="13.293296795275634"><ele>168.0</ele><time>2026-04-11T10:21:40Z</time></trkpt><trkpt lat="46.1743703857558" lon="13.293411887971944"><ele>168.0</ele><time>2026-04-11T10:21:41Z</time></trkpt><trkpt lat="46.17450688747951" lon="13.29353512545442"><ele>168.0</ele><time>2026-04-11T10:21:42Z</time></trkpt><trkpt lat="46.17464462554432" lon="13.293652886770214"><ele>168.0</ele><time>2026-04-11T10:21:43Z</time></trkpt><trkpt lat="46.17479205194898" lon="13.293777693827698"><ele>168.0</ele><time>2026-04-11T10:21:44Z</time></trkpt><trkpt lat="46.174939527465305" lon="13.293907493033139"><ele>168.0</ele><time>2026-04-11T10:21:45Z</time></trkpt><trkpt lat="46.17509010706817" lon="13.294038295821576"><ele>168.0</ele><time>2026-04-11T10:21:46Z</time></trkpt><trkpt lat="46.175239720157386" lon="13.294165566867658"><ele>168.0</ele><time>2026-04-11T10:21:47Z</time></trkpt><trkpt lat="46.175386890793064" lon="13.294314662553292"><ele>168.0</ele><time>2026-04-11T10:21:48Z</time></trkpt><trkpt lat="46.175535522577434" lon="13.294472515228824"><ele>168.0</ele><time>2026-04-11T10:21:49Z</time></trkpt><trkpt lat="46.17569086840876" lon="13.294643161859728"><ele>168.0</ele><time>2026-04-11T10:21:50Z</time></trkpt><trkpt lat="46.175853930890185" lon="13.29482323080001"><ele>168.33333333333334</ele><time>2026-04-11T10:21:51Z</time></trkpt><trkpt lat="46.176024176948104" lon="13.295006625335493"><ele>168.66666666666669</ele><time>2026-04-11T10:21:52Z</time></trkpt><trkpt lat="46.17618871291195" lon="13.295186073868349"><ele>169.0</ele><time>2026-04-11T10:21:53Z</time></trkpt><trkpt lat="46.17635005217949" lon="13.295360805012054"><ele>169.0</ele><time>2026-04-11T10:21:54Z</time></trkpt><trkpt lat="46.1765170728256" lon="13.295535056222969"><ele>169.0</ele><time>2026-04-11T10:21:55Z</time></trkpt><trkpt lat="46.17669589756985" lon="13.295706263013217"><ele>169.0</ele><time>2026-04-11T10:21:56Z</time></trkpt><trkpt lat="46.176887135808634" lon="13.295873107661157"><ele>169.5</ele><time>2026-04-11T10:21:57Z</time></trkpt><trkpt lat="46.177093407876654" lon="13.296036818433143"><ele>170.0</ele><time>2026-04-11T10:21:58Z</time></trkpt><trkpt lat="46.177308322065734" lon="13.296188062891709"><ele>169.5</ele><time>2026-04-11T10:21:59Z</time></trkpt><trkpt lat="46.17752068636276" lon="13.296316438985526"><ele>169.0</ele><time>2026-04-11T10:22:00Z</time></trkpt><trkpt lat="46.17773712015613" lon="13.296431025591932"><ele>170.0</ele><time>2026-04-11T10:22:01Z</time></trkpt><trkpt lat="46.17795429180299" lon="13.296535987126385"><ele>171.0</ele><time>2026-04-11T10:22:02Z</time></trkpt><trkpt lat="46.178168355642576" lon="13.296646885545732"><ele>171.33333333333334</ele><time>2026-04-11T10:22:03Z</time></trkpt><trkpt lat="46.17837865920481" lon="13.296763010833182"><ele>171.66666666666669</ele><time>2026-04-11T10:22:04Z</time></trkpt><trkpt lat="46.17858909862336" lon="13.296875290073073"><ele>172.0</ele><time>2026-04-11T10:22:05Z</time></trkpt><trkpt lat="46.178798243004074" lon="13.296990590951575"><ele>172.0</ele><time>2026-04-11T10:22:06Z</time></trkpt><trkpt lat="46.17899881113263" lon="13.297123488818908"><ele>172.0</ele><time>2026-04-11T10:22:07Z</time></trkpt><trkpt lat="46.179188656530584" lon="13.297282412161902"><ele>172.0</ele><time>2026-04-11T10:22:08Z</time></trkpt><trkpt lat="46.17936796079437" lon="13.29745643330286"><ele>172.66666666666669</ele><time>2026-04-11T10:22:09Z</time></trkpt><trkpt lat="46.17953721617804" lon="13.297643524875522"><ele>173.33333333333334</ele><time>2026-04-11T10:22:10Z</time></trkpt><trkpt lat="46.17970159493036" lon="13.297840067753278"><ele>174.0</ele><time>2026-04-11T10:22:11Z</time></trkpt><trkpt lat="46.17987762262793" lon="13.298040511478174"><ele>174.0</ele><time>2026-04-11T10:22:12Z</time></trkpt><trkpt lat="46.180062514262275" lon="13.298248539167393"><ele>174.0</ele><time>2026-04-11T10:22:13Z</time></trkpt><trkpt lat="46.18025082185166" lon="13.298463452393777"><ele>174.0</ele><time>2026-04-11T10:22:14Z</time></trkpt><trkpt lat="46.18043564705567" lon="13.298676547368391"><ele>174.0</ele><time>2026-04-11T10:22:15Z</time></trkpt><trkpt lat="46.18061520160563" lon="13.29888595252132"><ele>175.0</ele><time>2026-04-11T10:22:16Z</time></trkpt><trkpt lat="46.18078028627764" lon="13.299073318916582"><ele>176.0</ele><time>2026-04-11T10:22:17Z</time></trkpt><trkpt lat="46.180943299604195" lon="13.299261382206602"><ele>177.0</ele><time>2026-04-11T10:22:18Z</time></trkpt><trkpt lat="46.18109727302806" lon="13.299440874952852"><ele>177.0</ele><time>2026-04-11T10:22:19Z</time></trkpt><trkpt lat="46.18124640360506" lon="13.299610868922645"><ele>177.0</ele><time>2026-04-11T10:22:20Z</time></trkpt><trkpt lat="46.181400260331614" lon="13.299777996031017"><ele>177.0</ele><time>2026-04-11T10:22:21Z</time></trkpt><trkpt lat="46.18156152155822" lon="13.299933238844627"><ele>177.33333333333334</ele><time>2026-04-11T10:22:22Z</time></trkpt><trkpt lat="46.181729406657745" lon="13.300077857408073"><ele>177.66666666666669</ele><time>2026-04-11T10:22:23Z</time></trkpt><trkpt lat="46.181902520380795" lon="13.30021403861566"><ele>178.0</ele><time>2026-04-11T10:22:24Z</time></trkpt><trkpt lat="46.182082753746975" lon="13.300343202287563"><ele>178.0</ele><time>2026-04-11T10:22:25Z</time></trkpt><trkpt lat="46.182270552888426" lon="13.300464385922474"><ele>178.0</ele><time>2026-04-11T10:22:26Z</time></trkpt><trkpt lat="46.18246478116046" lon="13.300572101529996"><ele>178.0</ele><time>2026-04-11T10:22:26.999Z</time></trkpt><trkpt lat="46.182664409006925" lon="13.300671659888126"><ele>178.66666666666669</ele><time>2026-04-11T10:22:27.999Z</time></trkpt><trkpt lat="46.18286888133534" lon="13.300759518934617"><ele>179.33333333333334</ele><time>2026-04-11T10:22:28.999Z</time></trkpt><trkpt lat="46.18308102252303" lon="13.300828873872256"><ele>180.0</ele><time>2026-04-11T10:22:29.999Z</time></trkpt><trkpt lat="46.18329553555518" lon="13.300889968242364"><ele>180.0</ele><time>2026-04-11T10:22:30.999Z</time></trkpt><trkpt lat="46.18350836614414" lon="13.300957957110407"><ele>180.0</ele><time>2026-04-11T10:22:31.999Z</time></trkpt><trkpt lat="46.18372114764279" lon="13.301024974215995"><ele>180.0</ele><time>2026-04-11T10:22:32.999Z</time></trkpt><trkpt lat="46.18393462239795" lon="13.301087577100398"><ele>180.33333333333334</ele><time>2026-04-11T10:22:33.999Z</time></trkpt><trkpt lat="46.18414928238" lon="13.301148628512392"><ele>180.66666666666669</ele><time>2026-04-11T10:22:34.999Z</time></trkpt><trkpt lat="46.184367770718495" lon="13.301212051349742"><ele>181.0</ele><time>2026-04-11T10:22:35.999Z</time></trkpt><trkpt lat="46.184590949726015" lon="13.301276785303072"><ele>181.0</ele><time>2026-04-11T10:22:36.999Z</time></trkpt><trkpt lat="46.18480288273749" lon="13.301343048832548"><ele>181.0</ele><time>2026-04-11T10:22:37.999Z</time></trkpt><trkpt lat="46.18499118068127" lon="13.301406459983012"><ele>181.0</ele><time>2026-04-11T10:22:38.999Z</time></trkpt><trkpt lat="46.18517418878639" lon="13.301469396632415"><ele>181.66666666666669</ele><time>2026-04-11T10:22:39.999Z</time></trkpt><trkpt lat="46.18535676575251" lon="13.301539772327063"><ele>182.33333333333334</ele><time>2026-04-11T10:22:40.999Z</time></trkpt><trkpt lat="46.185531467088445" lon="13.30162651132123"><ele>183.0</ele><time>2026-04-11T10:22:41.999Z</time></trkpt><trkpt lat="46.18569414328695" lon="13.301725409955644"><ele>184.0</ele><time>2026-04-11T10:22:42.999Z</time></trkpt><trkpt lat="46.185856136712296" lon="13.301834836654256"><ele>185.0</ele><time>2026-04-11T10:22:43.999Z</time></trkpt><trkpt lat="46.186008134573314" lon="13.301938932381644"><ele>186.0</ele><time>2026-04-11T10:22:44.999Z</time></trkpt><trkpt lat="46.18614738594515" lon="13.302040113314618"><ele>186.0</ele><time>2026-04-11T10:22:45.999Z</time></trkpt><trkpt lat="46.186282364597005" lon="13.3021495491046"><ele>186.0</ele><time>2026-04-11T10:22:46.999Z</time></trkpt><trkpt lat="46.18640123402908" lon="13.302265511181021"><ele>186.0</ele><time>2026-04-11T10:22:47.999Z</time></trkpt><trkpt lat="46.18651221291742" lon="13.302395805177095"><ele>186.0</ele><time>2026-04-11T10:22:48.999Z</time></trkpt><trkpt lat="46.18662130030082" lon="13.302542021193098"><ele>186.66666666666666</ele><time>2026-04-11T10:22:49.999Z</time></trkpt><trkpt lat="46.18673311000877" lon="13.302705990020591"><ele>187.33333333333331</ele><time>2026-04-11T10:22:50.999Z</time></trkpt><trkpt lat="46.18684807392772" lon="13.302877923756856"><ele>188.0</ele><time>2026-04-11T10:22:51.999Z</time></trkpt><trkpt lat="46.18695853684518" lon="13.303040139210957"><ele>188.33333333333331</ele><time>2026-04-11T10:22:52.999Z</time></trkpt><trkpt lat="46.18706792870252" lon="13.30320458589124"><ele>188.66666666666666</ele><time>2026-04-11T10:22:53.999Z</time></trkpt><trkpt lat="46.187180547077084" lon="13.303375992721639"><ele>189.0</ele><time>2026-04-11T10:22:54.999Z</time></trkpt><trkpt lat="46.18729412352949" lon="13.303542542280685"><ele>189.5</ele><time>2026-04-11T10:22:55.999Z</time></trkpt><trkpt lat="46.18739068416714" lon="13.303721998406047"><ele>190.0</ele><time>2026-04-11T10:22:56.999Z</time></trkpt><trkpt lat="46.18750740692842" lon="13.303862715728108"><ele>190.5</ele><time>2026-04-11T10:22:57.999Z</time></trkpt><trkpt lat="46.18760097717825" lon="13.304006487801837"><ele>191.0</ele><time>2026-04-11T10:22:58.999Z</time></trkpt><trkpt lat="46.187696314328775" lon="13.304150324321132"><ele>191.5</ele><time>2026-04-11T10:22:59.999Z</time></trkpt><trkpt lat="46.18779606500526" lon="13.30430054327385"><ele>192.0</ele><time>2026-04-11T10:23:00.999Z</time></trkpt><trkpt lat="46.18788863647278" lon="13.304439510683089"><ele>192.5</ele><time>2026-04-11T10:23:02Z</time></trkpt><trkpt lat="46.18797068809072" lon="13.30456120539908"><ele>193.0</ele><time>2026-04-11T10:23:03Z</time></trkpt><trkpt lat="46.18804578510952" lon="13.304675170198063"><ele>193.2</ele><time>2026-04-11T10:23:04Z</time></trkpt><trkpt lat="46.188116447208515" lon="13.304785516575"><ele>193.4</ele><time>2026-04-11T10:23:05Z</time></trkpt><trkpt lat="46.188187603425355" lon="13.30489176927238"><ele>193.6</ele><time>2026-04-11T10:23:06Z</time></trkpt><trkpt lat="46.188250485280946" lon="13.304992682891092"><ele>193.79999999999998</ele><time>2026-04-11T10:23:07Z</time></trkpt><trkpt lat="46.18831100965402" lon="13.30509438392968"><ele>194.0</ele><time>2026-04-11T10:23:08Z</time></trkpt><trkpt lat="46.18836612184788" lon="13.305186355369823"><ele>194.0</ele><time>2026-04-11T10:23:09Z</time></trkpt><trkpt lat="46.188411364904454" lon="13.30526389009698"><ele>194.0</ele><time>2026-04-11T10:23:10Z</time></trkpt><trkpt lat="46.18845445466834" lon="13.30533423324984"><ele>194.0</ele><time>2026-04-11T10:23:11Z</time></trkpt><trkpt lat="46.18852515679296" lon="13.305452689620896"><ele>194.0</ele><time>2026-04-11T10:23:13Z</time></trkpt><trkpt lat="46.18854215613932" lon="13.30556069716294"><ele>194.0</ele><time>2026-04-11T10:23:16Z</time></trkpt><trkpt lat="46.18845890660734" lon="13.305754624734236"><ele>194.2</ele><time>2026-04-11T10:23:31Z</time></trkpt><trkpt lat="46.18839969084615" lon="13.305816380635198"><ele>194.39999999999998</ele><time>2026-04-11T10:23:32Z</time></trkpt><trkpt lat="46.18835178016975" lon="13.305881641447968"><ele>194.6</ele><time>2026-04-11T10:23:33Z</time></trkpt><trkpt lat="46.188263621486776" lon="13.305971263001396"><ele>194.8</ele><time>2026-04-11T10:23:35Z</time></trkpt><trkpt lat="46.18830594706799" lon="13.306193347398457"><ele>195.0</ele><time>2026-04-11T10:23:38Z</time></trkpt><trkpt lat="46.18835212664575" lon="13.30626230538502"><ele>195.0</ele><time>2026-04-11T10:23:39Z</time></trkpt><trkpt lat="46.188402386830354" lon="13.306338782852738"><ele>195.0</ele><time>2026-04-11T10:23:40Z</time></trkpt><trkpt lat="46.18846138312897" lon="13.306423023470488"><ele>195.0</ele><time>2026-04-11T10:23:41Z</time></trkpt><trkpt lat="46.18853157282768" lon="13.306511467834198"><ele>195.0</ele><time>2026-04-11T10:23:42Z</time></trkpt><trkpt lat="46.1886105804904" lon="13.306610746110918"><ele>195.0</ele><time>2026-04-11T10:23:43Z</time></trkpt><trkpt lat="46.18870204024805" lon="13.306715172553112"><ele>195.2</ele><time>2026-04-11T10:23:44Z</time></trkpt><trkpt lat="46.188794584850974" lon="13.306816559716504"><ele>195.4</ele><time>2026-04-11T10:23:45Z</time></trkpt><trkpt lat="46.18887522811536" lon="13.306926229082327"><ele>195.60000000000002</ele><time>2026-04-11T10:23:46Z</time></trkpt><trkpt lat="46.18896264948765" lon="13.307025687161353"><ele>195.8</ele><time>2026-04-11T10:23:47Z</time></trkpt><trkpt lat="46.189047397300655" lon="13.307122103568425"><ele>196.0</ele><time>2026-04-11T10:23:48Z</time></trkpt><trkpt lat="46.18912630707119" lon="13.307210907173268"><ele>196.4</ele><time>2026-04-11T10:23:49Z</time></trkpt><trkpt lat="46.18920924561411" lon="13.307275178672514"><ele>196.8</ele><time>2026-04-11T10:23:50Z</time></trkpt><trkpt lat="46.18928230144015" lon="13.307357261670965"><ele>197.20000000000002</ele><time>2026-04-11T10:23:51Z</time></trkpt><trkpt lat="46.18935567572629" lon="13.307446113277658"><ele>197.60000000000002</ele><time>2026-04-11T10:23:52Z</time></trkpt><trkpt lat="46.18942975262606" lon="13.307535133002819"><ele>198.0</ele><time>2026-04-11T10:23:53Z</time></trkpt><trkpt lat="46.18950585155535" lon="13.307623605724501"><ele>198.0</ele><time>2026-04-11T10:23:54Z</time></trkpt><trkpt lat="46.18957637641423" lon="13.30770713070144"><ele>198.0</ele><time>2026-04-11T10:23:55Z</time></trkpt><trkpt lat="46.18964595799931" lon="13.307783305246444"><ele>198.0</ele><time>2026-04-11T10:23:56Z</time></trkpt><trkpt lat="46.189720541712134" lon="13.307858955858974"><ele>198.0</ele><time>2026-04-11T10:23:57Z</time></trkpt><trkpt lat="46.189795208688174" lon="13.30794583092029"><ele>198.0</ele><time>2026-04-11T10:23:58Z</time></trkpt><trkpt lat="46.18987807108222" lon="13.308039761911786"><ele>198.60000000000002</ele><time>2026-04-11T10:23:59Z</time></trkpt><trkpt lat="46.18995791116204" lon="13.308136268696371"><ele>199.20000000000002</ele><time>2026-04-11T10:24:00Z</time></trkpt><trkpt lat="46.1900230602274" lon="13.308239030453949"><ele>199.8</ele><time>2026-04-11T10:24:01Z</time></trkpt><trkpt lat="46.19007732811672" lon="13.30834586148334"><ele>200.4</ele><time>2026-04-11T10:24:02Z</time></trkpt><trkpt lat="46.19011583009866" lon="13.308448847253018"><ele>201.0</ele><time>2026-04-11T10:24:03Z</time></trkpt><trkpt lat="46.19015004342153" lon="13.30856790628787"><ele>201.0</ele><time>2026-04-11T10:24:04Z</time></trkpt><trkpt lat="46.19018672611821" lon="13.30869193775438"><ele>201.0</ele><time>2026-04-11T10:24:05Z</time></trkpt><trkpt lat="46.19023128948843" lon="13.308811945494647"><ele>201.0</ele><time>2026-04-11T10:24:06Z</time></trkpt><trkpt lat="46.190302305556095" lon="13.308919530798239"><ele>201.0</ele><time>2026-04-11T10:24:07Z</time></trkpt><trkpt lat="46.19037874815987" lon="13.30903666247729"><ele>201.0</ele><time>2026-04-11T10:24:08Z</time></trkpt><trkpt lat="46.19047129293247" lon="13.309166044405766"><ele>201.25</ele><time>2026-04-11T10:24:09Z</time></trkpt><trkpt lat="46.190547507758346" lon="13.309286311819546"><ele>201.5</ele><time>2026-04-11T10:24:10Z</time></trkpt><trkpt lat="46.190627014658155" lon="13.30940754521864"><ele>201.75</ele><time>2026-04-11T10:24:11Z</time></trkpt><trkpt lat="46.19071953834579" lon="13.309536839521378"><ele>202.0</ele><time>2026-04-11T10:24:12Z</time></trkpt><trkpt lat="46.190799726829695" lon="13.30967590581417"><ele>202.25</ele><time>2026-04-11T10:24:13Z</time></trkpt><trkpt lat="46.19088147408683" lon="13.309841593942654"><ele>202.5</ele><time>2026-04-11T10:24:14Z</time></trkpt><trkpt lat="46.19095936812748" lon="13.310008831097434"><ele>202.75</ele><time>2026-04-11T10:24:15Z</time></trkpt><trkpt lat="46.19102787973718" lon="13.310162841520073"><ele>203.0</ele><time>2026-04-11T10:24:16Z</time></trkpt><trkpt lat="46.19109761109562" lon="13.31032613678344"><ele>203.0</ele><time>2026-04-11T10:24:17Z</time></trkpt><trkpt lat="46.19116498089271" lon="13.310501852083249"><ele>203.0</ele><time>2026-04-11T10:24:18Z</time></trkpt><trkpt lat="46.19123130608083" lon="13.310688249017097"><ele>203.0</ele><time>2026-04-11T10:24:19Z</time></trkpt><trkpt lat="46.191293658974935" lon="13.31087499845863"><ele>203.0</ele><time>2026-04-11T10:24:20Z</time></trkpt><trkpt lat="46.19135241711432" lon="13.311060763192103"><ele>203.25</ele><time>2026-04-11T10:24:21Z</time></trkpt><trkpt lat="46.19140158760231" lon="13.311247246470671"><ele>203.5</ele><time>2026-04-11T10:24:22Z</time></trkpt><trkpt lat="46.19143850360727" lon="13.311436762442282"><ele>203.75</ele><time>2026-04-11T10:24:23Z</time></trkpt><trkpt lat="46.19147290506688" lon="13.311629722362039"><ele>204.0</ele><time>2026-04-11T10:24:24Z</time></trkpt><trkpt lat="46.191507917997775" lon="13.311832436645933"><ele>205.0</ele><time>2026-04-11T10:24:25Z</time></trkpt><trkpt lat="46.19154234877582" lon="13.31205593173889"><ele>206.0</ele><time>2026-04-11T10:24:26Z</time></trkpt><trkpt lat="46.191578338969435" lon="13.312295992632386"><ele>207.0</ele><time>2026-04-11T10:24:27Z</time></trkpt><trkpt lat="46.191617023240504" lon="13.312539401254828"><ele>208.33333333333331</ele><time>2026-04-11T10:24:28Z</time></trkpt><trkpt lat="46.19165334331105" lon="13.312776574342637"><ele>209.66666666666666</ele><time>2026-04-11T10:24:29Z</time></trkpt><trkpt lat="46.1916924840057" lon="13.313005809094596"><ele>211.0</ele><time>2026-04-11T10:24:30Z</time></trkpt><trkpt lat="46.1917310994316" lon="13.313233356527245"><ele>211.0</ele><time>2026-04-11T10:24:30.999Z</time></trkpt><trkpt lat="46.1917656681794" lon="13.313454144947084"><ele>211.0</ele><time>2026-04-11T10:24:31.999Z</time></trkpt><trkpt lat="46.191796222583804" lon="13.313674659181594"><ele>211.0</ele><time>2026-04-11T10:24:32.999Z</time></trkpt><trkpt lat="46.19182518831995" lon="13.313892359149214"><ele>211.5</ele><time>2026-04-11T10:24:33.999Z</time></trkpt><trkpt lat="46.191846880582666" lon="13.314101106923873"><ele>212.0</ele><time>2026-04-11T10:24:34.999Z</time></trkpt><trkpt lat="46.19186392758804" lon="13.314284729462111"><ele>212.5</ele><time>2026-04-11T10:24:35.999Z</time></trkpt><trkpt lat="46.191887349208706" lon="13.314466906562107"><ele>213.0</ele><time>2026-04-11T10:24:36.999Z</time></trkpt><trkpt lat="46.191898203259164" lon="13.314668805215511"><ele>213.5</ele><time>2026-04-11T10:24:37.999Z</time></trkpt><trkpt lat="46.191939002258884" lon="13.314859135497388"><ele>214.0</ele><time>2026-04-11T10:24:38.999Z</time></trkpt><trkpt lat="46.19199120453964" lon="13.315044213933827"><ele>214.5</ele><time>2026-04-11T10:24:39.999Z</time></trkpt><trkpt lat="46.19205193675812" lon="13.315228008838607"><ele>215.0</ele><time>2026-04-11T10:24:40.999Z</time></trkpt><trkpt lat="46.192104600345495" lon="13.315413768341903"><ele>215.5</ele><time>2026-04-11T10:24:41.999Z</time></trkpt><trkpt lat="46.192164789413404" lon="13.315588244725033"><ele>216.0</ele><time>2026-04-11T10:24:42.999Z</time></trkpt><trkpt lat="46.19218706575752" lon="13.315772781051033"><ele>216.5</ele><time>2026-04-11T10:24:43.999Z</time></trkpt><trkpt lat="46.19218280139056" lon="13.315957200179898"><ele>217.0</ele><time>2026-04-11T10:24:44.999Z</time></trkpt><trkpt lat="46.19219716891994" lon="13.316149682194332"><ele>217.0</ele><time>2026-04-11T10:24:45.999Z</time></trkpt><trkpt lat="46.192197684601965" lon="13.31633982829927"><ele>217.0</ele><time>2026-04-11T10:24:46.999Z</time></trkpt><trkpt lat="46.19220485546862" lon="13.316513963910435"><ele>217.0</ele><time>2026-04-11T10:24:47.999Z</time></trkpt><trkpt lat="46.19220405514727" lon="13.316670634515823"><ele>217.0</ele><time>2026-04-11T10:24:48.999Z</time></trkpt><trkpt lat="46.19219772675398" lon="13.316821069144293"><ele>216.99999999999997</ele><time>2026-04-11T10:24:49.999Z</time></trkpt><trkpt lat="46.19219033948198" lon="13.316936960870551"><ele>217.0</ele><time>2026-04-11T10:24:50.999Z</time></trkpt><trkpt lat="46.19216787289391" lon="13.317089446903314"><ele>217.0</ele><time>2026-04-11T10:24:52.999Z</time></trkpt><trkpt lat="46.19218170075341" lon="13.317188974251634"><ele>217.0</ele><time>2026-04-11T10:24:55.999Z</time></trkpt><trkpt lat="46.19219040774951" lon="13.317285509401131"><ele>216.99999999999997</ele><time>2026-04-11T10:25:05.999Z</time></trkpt><trkpt lat="46.192112337263545" lon="13.3173782141356"><ele>217.0</ele><time>2026-04-11T10:25:06.999Z</time></trkpt><trkpt lat="46.19210535925289" lon="13.317481069301445"><ele>217.2</ele><time>2026-04-11T10:25:08Z</time></trkpt><trkpt lat="46.19209054613744" lon="13.317598658972926"><ele>217.39999999999998</ele><time>2026-04-11T10:25:09Z</time></trkpt><trkpt lat="46.19206343438968" lon="13.317738530237362"><ele>217.60000000000002</ele><time>2026-04-11T10:25:10Z</time></trkpt><trkpt lat="46.19202577026585" lon="13.31788440211584"><ele>217.8</ele><time>2026-04-11T10:25:11Z</time></trkpt><trkpt lat="46.191978298466026" lon="13.31803785009278"><ele>218.0</ele><time>2026-04-11T10:25:12Z</time></trkpt><trkpt lat="46.1919269090801" lon="13.31819510016786"><ele>218.0</ele><time>2026-04-11T10:25:13Z</time></trkpt><trkpt lat="46.19187330895501" lon="13.3183437831886"><ele>218.0</ele><time>2026-04-11T10:25:14Z</time></trkpt><trkpt lat="46.19183015311713" lon="13.318464472311206"><ele>218.0</ele><time>2026-04-11T10:25:15Z</time></trkpt><trkpt lat="46.19178680179782" lon="13.31858940698111"><ele>218.0</ele><time>2026-04-11T10:25:16Z</time></trkpt><trkpt lat="46.191748595289766" lon="13.318702160999502"><ele>218.0</ele><time>2026-04-11T10:25:17Z</time></trkpt><trkpt lat="46.19170952602871" lon="13.318794079264375"><ele>218.0</ele><time>2026-04-11T10:25:18Z</time></trkpt><trkpt lat="46.1916591214083" lon="13.318861728549033"><ele>218.0</ele><time>2026-04-11T10:25:19Z</time></trkpt><trkpt lat="46.191541648000936" lon="13.31883716795606"><ele>218.0</ele><time>2026-04-11T10:25:21Z</time></trkpt><trkpt lat="46.19148501539505" lon="13.318752857207498"><ele>218.0</ele><time>2026-04-11T10:25:22Z</time></trkpt><trkpt lat="46.191422370927214" lon="13.318660631927601"><ele>218.0</ele><time>2026-04-11T10:25:23Z</time></trkpt><trkpt lat="46.19133626385988" lon="13.318556582251729"><ele>221.2</ele><time>2026-04-11T10:25:24Z</time></trkpt><trkpt lat="46.191263790801976" lon="13.318467839491467"><ele>224.4</ele><time>2026-04-11T10:25:25Z</time></trkpt><trkpt lat="46.19118883365812" lon="13.318407203475452"><ele>227.59999999999997</ele><time>2026-04-11T10:25:26Z</time></trkpt><trkpt lat="46.19108101792048" lon="13.318385783663512"><ele>230.79999999999998</ele><time>2026-04-11T10:25:27Z</time></trkpt><trkpt lat="46.19095473467373" lon="13.318420494951418"><ele>234.0</ele><time>2026-04-11T10:25:28Z</time></trkpt><trkpt lat="46.190825160647954" lon="13.318463617335604"><ele>234.0</ele><time>2026-04-11T10:25:29Z</time></trkpt><trkpt lat="46.19067930683292" lon="13.31849290810276"><ele>234.0</ele><time>2026-04-11T10:25:30Z</time></trkpt><trkpt lat="46.19054304624274" lon="13.318527918557919"><ele>234.0</ele><time>2026-04-11T10:25:31Z</time></trkpt><trkpt lat="46.19040027426468" lon="13.318569238565829"><ele>234.0</ele><time>2026-04-11T10:25:32Z</time></trkpt><trkpt lat="46.19025838185054" lon="13.318601056860505"><ele>236.0</ele><time>2026-04-11T10:25:33Z</time></trkpt><trkpt lat="46.19011537677148" lon="13.318639918635037"><ele>238.0</ele><time>2026-04-11T10:25:34Z</time></trkpt><trkpt lat="46.18995921543128" lon="13.318678117666542"><ele>240.0</ele><time>2026-04-11T10:25:35Z</time></trkpt><trkpt lat="46.18980429157555" lon="13.31872304019182"><ele>243.4</ele><time>2026-04-11T10:25:36Z</time></trkpt><trkpt lat="46.18967554606222" lon="13.318750754053882"><ele>246.8</ele><time>2026-04-11T10:25:37Z</time></trkpt><trkpt lat="46.18957526706852" lon="13.318780405932968"><ele>250.2</ele><time>2026-04-11T10:25:38Z</time></trkpt><trkpt lat="46.18949396693725" lon="13.318792757744015"><ele>253.6</ele><time>2026-04-11T10:25:39Z</time></trkpt><trkpt lat="46.18942185585073" lon="13.318771013995914"><ele>257.0</ele><time>2026-04-11T10:25:40Z</time></trkpt><trkpt lat="46.189372949498726" lon="13.318711218211014"><ele>257.0</ele><time>2026-04-11T10:25:41Z</time></trkpt><trkpt lat="46.1893615317757" lon="13.318620032982647"><ele>257.0</ele><time>2026-04-11T10:25:42Z</time></trkpt><trkpt lat="46.189408543594936" lon="13.318535089306073"><ele>257.0</ele><time>2026-04-11T10:25:43Z</time></trkpt><trkpt lat="46.18946503708888" lon="13.31848058034545"><ele>257.0</ele><time>2026-04-11T10:25:44Z</time></trkpt><trkpt lat="46.18954986322218" lon="13.318384279477941"><ele>257.0</ele><time>2026-04-11T10:25:45Z</time></trkpt><trkpt lat="46.189642369849274" lon="13.318263898234356"><ele>257.0</ele><time>2026-04-11T10:25:46Z</time></trkpt><trkpt lat="46.189725499867045" lon="13.318150048321069"><ele>258.8</ele><time>2026-04-11T10:25:47Z</time></trkpt><trkpt lat="46.18980069861421" lon="13.318045523248191"><ele>260.6</ele><time>2026-04-11T10:25:48Z</time></trkpt><trkpt lat="46.189889574231096" lon="13.31792119552814"><ele>262.40000000000003</ele><time>2026-04-11T10:25:49Z</time></trkpt><trkpt lat="46.18996547038245" lon="13.317815025081343"><ele>264.2</ele><time>2026-04-11T10:25:50Z</time></trkpt><trkpt lat="46.1900277719479" lon="13.31772191640071"><ele>266.0</ele><time>2026-04-11T10:25:51Z</time></trkpt><trkpt lat="46.190059071703644" lon="13.317625509392963"><ele>266.0</ele><time>2026-04-11T10:25:52Z</time></trkpt><trkpt lat="46.190051511432486" lon="13.317454865346459"><ele>266.0</ele><time>2026-04-11T10:25:54Z</time></trkpt><trkpt lat="46.18998502407552" lon="13.317384776437699"><ele>266.0</ele><time>2026-04-11T10:25:55Z</time></trkpt><trkpt lat="46.18987472304726" lon="13.317318500748215"><ele>266.0</ele><time>2026-04-11T10:25:56Z</time></trkpt><trkpt lat="46.18975190048589" lon="13.31728040884444"><ele>266.0</ele><time>2026-04-11T10:25:57Z</time></trkpt><trkpt lat="46.18964758081405" lon="13.31728412777635"><ele>266.0</ele><time>2026-04-11T10:25:58Z</time></trkpt><trkpt lat="46.18955044268092" lon="13.317281761114401"><ele>266.0</ele><time>2026-04-11T10:25:59Z</time></trkpt><trkpt lat="46.18945185054765" lon="13.317278629327724"><ele>266.0</ele><time>2026-04-11T10:26:00Z</time></trkpt><trkpt lat="46.18935785562081" lon="13.317260075575566"><ele>266.0</ele><time>2026-04-11T10:26:01Z</time></trkpt><trkpt lat="46.18928896753369" lon="13.317253012948356"><ele>266.0</ele><time>2026-04-11T10:26:02Z</time></trkpt><trkpt lat="46.189223962666645" lon="13.317263827740021"><ele>266.0</ele><time>2026-04-11T10:26:03Z</time></trkpt><trkpt lat="46.18916971787895" lon="13.317208365122246"><ele>267.0</ele><time>2026-04-11T10:26:04Z</time></trkpt><trkpt lat="46.18913641598977" lon="13.317108082491544"><ele>268.0</ele><time>2026-04-11T10:26:05Z</time></trkpt><trkpt lat="46.189171733601384" lon="13.316983174097723"><ele>269.0</ele><time>2026-04-11T10:26:06Z</time></trkpt><trkpt lat="46.18918284023413" lon="13.316821077905354"><ele>270.0</ele><time>2026-04-11T10:26:07Z</time></trkpt><trkpt lat="46.18920339228295" lon="13.316671983221461"><ele>271.0</ele><time>2026-04-11T10:26:08Z</time></trkpt><trkpt lat="46.18926477307217" lon="13.316532352413285"><ele>273.40000000000003</ele><time>2026-04-11T10:26:09Z</time></trkpt><trkpt lat="46.18933778986353" lon="13.31637831523048"><ele>275.8</ele><time>2026-04-11T10:26:10Z</time></trkpt><trkpt lat="46.18939898273685" lon="13.31624962847574"><ele>278.20000000000005</ele><time>2026-04-11T10:26:11Z</time></trkpt><trkpt lat="46.18946560263486" lon="13.316119298369843"><ele>280.6</ele><time>2026-04-11T10:26:12Z</time></trkpt><trkpt lat="46.18950916705601" lon="13.315989489194296"><ele>283.0</ele><time>2026-04-11T10:26:13Z</time></trkpt><trkpt lat="46.18958130635772" lon="13.315904300965377"><ele>283.0</ele><time>2026-04-11T10:26:14Z</time></trkpt><trkpt lat="46.18966384651499" lon="13.31584803287621"><ele>283.0</ele><time>2026-04-11T10:26:15Z</time></trkpt><trkpt lat="46.18974105558711" lon="13.315815828214479"><ele>283.0</ele><time>2026-04-11T10:26:16Z</time></trkpt><trkpt lat="46.189791388858985" lon="13.315699361634156"><ele>283.0</ele><time>2026-04-11T10:26:18Z</time></trkpt><trkpt lat="46.189689972659174" lon="13.315624882846032"><ele>283.0</ele><time>2026-04-11T10:26:20Z</time></trkpt><trkpt lat="46.18962372286844" lon="13.315677036206097"><ele>283.0</ele><time>2026-04-11T10:26:21Z</time></trkpt><trkpt lat="46.189537255549396" lon="13.315774664839157"><ele>283.0</ele><time>2026-04-11T10:26:22Z</time></trkpt><trkpt lat="46.18944859616317" lon="13.3158638666045"><ele>283.0</ele><time>2026-04-11T10:26:23Z</time></trkpt><trkpt lat="46.18934020273681" lon="13.315951058420378"><ele>283.0</ele><time>2026-04-11T10:26:24Z</time></trkpt><trkpt lat="46.18922694945336" lon="13.316083245011527"><ele>283.0</ele><time>2026-04-11T10:26:25Z</time></trkpt><trkpt lat="46.18912211848522" lon="13.316186727176861"><ele>283.0</ele><time>2026-04-11T10:26:26Z</time></trkpt><trkpt lat="46.189027945524394" lon="13.31626593244409"><ele>283.0</ele><time>2026-04-11T10:26:27Z</time></trkpt><trkpt lat="46.18893823458727" lon="13.316368867787402"><ele>283.0</ele><time>2026-04-11T10:26:28Z</time></trkpt><trkpt lat="46.1888625249844" lon="13.316479751339314"><ele>288.4</ele><time>2026-04-11T10:26:29Z</time></trkpt><trkpt lat="46.18881241997976" lon="13.316607984113212"><ele>293.8</ele><time>2026-04-11T10:26:30Z</time></trkpt><trkpt lat="46.188771345269544" lon="13.316755604116018"><ele>299.2</ele><time>2026-04-11T10:26:31Z</time></trkpt><trkpt lat="46.18870153906254" lon="13.316882007848921"><ele>304.6</ele><time>2026-04-11T10:26:31.999Z</time></trkpt><trkpt lat="46.18865068853306" lon="13.316983721003263"><ele>310.0</ele><time>2026-04-11T10:26:32.999Z</time></trkpt><trkpt lat="46.188585191746945" lon="13.31707271021366"><ele>310.0</ele><time>2026-04-11T10:26:33.999Z</time></trkpt><trkpt lat="46.18853698233163" lon="13.317166492255872"><ele>310.0</ele><time>2026-04-11T10:26:34.999Z</time></trkpt><trkpt lat="46.188531473627314" lon="13.317267455842982"><ele>310.0</ele><time>2026-04-11T10:26:35.999Z</time></trkpt><trkpt lat="46.18855920909826" lon="13.317361143837289"><ele>310.0</ele><time>2026-04-11T10:26:36.999Z</time></trkpt><trkpt lat="46.188617867703094" lon="13.317468353525504"><ele>310.0</ele><time>2026-04-11T10:26:37.999Z</time></trkpt><trkpt lat="46.18865921492612" lon="13.317585272634757"><ele>310.0</ele><time>2026-04-11T10:26:39.999Z</time></trkpt><trkpt lat="46.18858581463682" lon="13.317679765987899"><ele>311.3333333333333</ele><time>2026-04-11T10:26:41.999Z</time></trkpt><trkpt lat="46.18852251514168" lon="13.317638917542403"><ele>312.66666666666663</ele><time>2026-04-11T10:26:42.999Z</time></trkpt><trkpt lat="46.1884975488807" lon="13.31754565502042"><ele>314.0</ele><time>2026-04-11T10:26:43.999Z</time></trkpt><trkpt lat="46.18847119822881" lon="13.317446863212874"><ele>315.3333333333333</ele><time>2026-04-11T10:26:44.999Z</time></trkpt><trkpt lat="46.18839329252754" lon="13.317375266414427"><ele>316.6666666666667</ele><time>2026-04-11T10:26:45.999Z</time></trkpt><trkpt lat="46.188275968281836" lon="13.317338276794425"><ele>318.0</ele><time>2026-04-11T10:26:46.999Z</time></trkpt><trkpt lat="46.18813173393778" lon="13.317308308338287"><ele>318.0</ele><time>2026-04-11T10:26:47.999Z</time></trkpt><trkpt lat="46.18801805502767" lon="13.317284480229267"><ele>318.0</ele><time>2026-04-11T10:26:48.999Z</time></trkpt><trkpt lat="46.187932217186535" lon="13.317255925454889"><ele>318.0</ele><time>2026-04-11T10:26:49.999Z</time></trkpt><trkpt lat="46.187848717051885" lon="13.317261543939527"><ele>318.0</ele><time>2026-04-11T10:26:50.999Z</time></trkpt><trkpt lat="46.18777306091787" lon="13.317297229101664"><ele>318.0</ele><time>2026-04-11T10:26:51.999Z</time></trkpt><trkpt lat="46.187711297539956" lon="13.317370636380327"><ele>318.0</ele><time>2026-04-11T10:26:52.999Z</time></trkpt><trkpt lat="46.18766495524348" lon="13.317481687307946"><ele>318.0</ele><time>2026-04-11T10:26:53.999Z</time></trkpt><trkpt lat="46.18763916776018" lon="13.31761359466973"><ele>318.0</ele><time>2026-04-11T10:26:54.999Z</time></trkpt><trkpt lat="46.18762319740792" lon="13.317721892828073"><ele>318.0</ele><time>2026-04-11T10:26:55.999Z</time></trkpt><trkpt lat="46.18757215763001" lon="13.317820450637905"><ele>318.0</ele><time>2026-04-11T10:26:57.999Z</time></trkpt><trkpt lat="46.18750743486041" lon="13.317714951141234"><ele>318.0</ele><time>2026-04-11T10:26:59.999Z</time></trkpt><trkpt lat="46.18752945600682" lon="13.317626783745995"><ele>318.0</ele><time>2026-04-11T10:27:00.999Z</time></trkpt><trkpt lat="46.187582659167084" lon="13.317511006200084"><ele>318.0</ele><time>2026-04-11T10:27:01.999Z</time></trkpt><trkpt lat="46.18760719236185" lon="13.317385167742124"><ele>318.0</ele><time>2026-04-11T10:27:02.999Z</time></trkpt><trkpt lat="46.18760062397494" lon="13.317210884021959"><ele>318.0</ele><time>2026-04-11T10:27:03.999Z</time></trkpt><trkpt lat="46.18763638080573" lon="13.317082995073257"><ele>318.0</ele><time>2026-04-11T10:27:04.999Z</time></trkpt><trkpt lat="46.18770172838241" lon="13.316980530951609"><ele>318.0</ele><time>2026-04-11T10:27:05.999Z</time></trkpt><trkpt lat="46.18779308547315" lon="13.316917609966977"><ele>316.4</ele><time>2026-04-11T10:27:06.999Z</time></trkpt><trkpt lat="46.1878920949724" lon="13.31688327827161"><ele>314.8</ele><time>2026-04-11T10:27:07.999Z</time></trkpt><trkpt lat="46.18798442399616" lon="13.316859072881043"><ele>313.2</ele><time>2026-04-11T10:27:08.999Z</time></trkpt><trkpt lat="46.18806626177824" lon="13.316813394833211"><ele>311.6</ele><time>2026-04-11T10:27:09.999Z</time></trkpt><trkpt lat="46.18814864934974" lon="13.316759014441123"><ele>310.0</ele><time>2026-04-11T10:27:10.999Z</time></trkpt><trkpt lat="46.188205643561766" lon="13.316676637643882"><ele>310.0</ele><time>2026-04-11T10:27:11.999Z</time></trkpt><trkpt lat="46.18826393030843" lon="13.316546982490639"><ele>310.0</ele><time>2026-04-11T10:27:14Z</time></trkpt><trkpt lat="46.18819454085047" lon="13.31644301946456"><ele>310.0</ele><time>2026-04-11T10:27:16Z</time></trkpt><trkpt lat="46.18812852015335" lon="13.316468252679272"><ele>310.0</ele><time>2026-04-11T10:27:17Z</time></trkpt><trkpt lat="46.18806691899437" lon="13.316564510446398"><ele>310.0</ele><time>2026-04-11T10:27:18Z</time></trkpt><trkpt lat="46.187987259544954" lon="13.316671220463917"><ele>313.8</ele><time>2026-04-11T10:27:19Z</time></trkpt><trkpt lat="46.187887300513594" lon="13.31671352914875"><ele>317.6</ele><time>2026-04-11T10:27:20Z</time></trkpt><trkpt lat="46.187772400844786" lon="13.316697146727737"><ele>321.4</ele><time>2026-04-11T10:27:21Z</time></trkpt><trkpt lat="46.18766630882681" lon="13.316721921399374"><ele>325.2</ele><time>2026-04-11T10:27:22Z</time></trkpt><trkpt lat="46.1875597280743" lon="13.31679429627478"><ele>329.0</ele><time>2026-04-11T10:27:23Z</time></trkpt><trkpt lat="46.18747156255175" lon="13.316889591541356"><ele>329.0</ele><time>2026-04-11T10:27:24Z</time></trkpt><trkpt lat="46.18738648236993" lon="13.316982027105157"><ele>329.0</ele><time>2026-04-11T10:27:25Z</time></trkpt><trkpt lat="46.18730567843036" lon="13.31707938030981"><ele>329.0</ele><time>2026-04-11T10:27:26Z</time></trkpt><trkpt lat="46.187222021924065" lon="13.317185624694451"><ele>329.0</ele><time>2026-04-11T10:27:27Z</time></trkpt><trkpt lat="46.18718655833445" lon="13.3173526570237"><ele>329.0</ele><time>2026-04-11T10:27:28Z</time></trkpt><trkpt lat="46.187127468627835" lon="13.317505214964733"><ele>333.0</ele><time>2026-04-11T10:27:29Z</time></trkpt><trkpt lat="46.187062851751456" lon="13.317636546160438"><ele>337.0</ele><time>2026-04-11T10:27:30Z</time></trkpt><trkpt lat="46.18701198287546" lon="13.31775864983493"><ele>341.0</ele><time>2026-04-11T10:27:31Z</time></trkpt><trkpt lat="46.18693392959908" lon="13.317967557678474"><ele>345.0</ele><time>2026-04-11T10:27:32Z</time></trkpt><trkpt lat="46.18687543562575" lon="13.318132592739824"><ele>345.0</ele><time>2026-04-11T10:27:33Z</time></trkpt><trkpt lat="46.186844293373554" lon="13.318246657981003"><ele>345.0</ele><time>2026-04-11T10:27:34Z</time></trkpt><trkpt lat="46.18683846242233" lon="13.318387106970196"><ele>345.0</ele><time>2026-04-11T10:27:35Z</time></trkpt><trkpt lat="46.186877078160606" lon="13.318470462314776"><ele>345.0</ele><time>2026-04-11T10:27:36Z</time></trkpt><trkpt lat="46.18693886353787" lon="13.318561081695838"><ele>345.0</ele><time>2026-04-11T10:27:37Z</time></trkpt><trkpt lat="46.186998725099336" lon="13.318634618295947"><ele>345.0</ele><time>2026-04-11T10:27:38Z</time></trkpt><trkpt lat="46.1869692667852" lon="13.318793434948681"><ele>345.0</ele><time>2026-04-11T10:27:40Z</time></trkpt><trkpt lat="46.18690149129545" lon="13.318841124308817"><ele>345.0</ele><time>2026-04-11T10:27:41Z</time></trkpt><trkpt lat="46.18680358553233" lon="13.318965245880717"><ele>345.0</ele><time>2026-04-11T10:27:42Z</time></trkpt><trkpt lat="46.18671696161525" lon="13.319059563142979"><ele>345.0</ele><time>2026-04-11T10:27:43Z</time></trkpt><trkpt lat="46.186603496225075" lon="13.319159074591926"><ele>345.0</ele><time>2026-04-11T10:27:44Z</time></trkpt><trkpt lat="46.18649149624138" lon="13.319312945791754"><ele>343.5</ele><time>2026-04-11T10:27:45Z</time></trkpt><trkpt lat="46.18638607167319" lon="13.319469566236835"><ele>342.0</ele><time>2026-04-11T10:27:46Z</time></trkpt><trkpt lat="46.186286320263406" lon="13.319591672017197"><ele>340.5</ele><time>2026-04-11T10:27:47Z</time></trkpt><trkpt lat="46.186185465077656" lon="13.31968529880569"><ele>339.0</ele><time>2026-04-11T10:27:48Z</time></trkpt><trkpt lat="46.186087905277965" lon="13.31976825778522"><ele>342.5</ele><time>2026-04-11T10:27:49Z</time></trkpt><trkpt lat="46.186007617622806" lon="13.319863581135934"><ele>346.0</ele><time>2026-04-11T10:27:50Z</time></trkpt><trkpt lat="46.18595618909854" lon="13.319982508333636"><ele>349.5</ele><time>2026-04-11T10:27:51Z</time></trkpt><trkpt lat="46.18594066564639" lon="13.320172678455862"><ele>353.0</ele><time>2026-04-11T10:27:52Z</time></trkpt><trkpt lat="46.185906245250216" lon="13.32034448062467"><ele>353.0</ele><time>2026-04-11T10:27:53Z</time></trkpt><trkpt lat="46.18581048419921" lon="13.320484885147607"><ele>353.0</ele><time>2026-04-11T10:27:54Z</time></trkpt><trkpt lat="46.185730982870645" lon="13.320606110604592"><ele>353.0</ele><time>2026-04-11T10:27:55Z</time></trkpt><trkpt lat="46.1856082195185" lon="13.320676452622738"><ele>353.0</ele><time>2026-04-11T10:27:57Z</time></trkpt><trkpt lat="46.18548957220116" lon="13.320606534357875"><ele>351.79999999999995</ele><time>2026-04-11T10:27:59Z</time></trkpt><trkpt lat="46.185410292181516" lon="13.320586263436397"><ele>350.6</ele><time>2026-04-11T10:28:00Z</time></trkpt><trkpt lat="46.185334518336234" lon="13.32061254032214"><ele>349.4</ele><time>2026-04-11T10:28:01Z</time></trkpt><trkpt lat="46.185271130487195" lon="13.320712997215084"><ele>348.20000000000005</ele><time>2026-04-11T10:28:02Z</time></trkpt><trkpt lat="46.18525461604152" lon="13.320851510600459"><ele>347.0</ele><time>2026-04-11T10:28:03Z</time></trkpt><trkpt lat="46.18521581139424" lon="13.321110285888071"><ele>347.0</ele><time>2026-04-11T10:28:04Z</time></trkpt><trkpt lat="46.18522147958207" lon="13.321310452850529"><ele>347.0</ele><time>2026-04-11T10:28:05Z</time></trkpt><trkpt lat="46.18522890310236" lon="13.321478748512979"><ele>347.0</ele><time>2026-04-11T10:28:06Z</time></trkpt><trkpt lat="46.185208703649096" lon="13.321636649943711"><ele>347.0</ele><time>2026-04-11T10:28:07Z</time></trkpt><trkpt lat="46.18527014107862" lon="13.321833328741786"><ele>349.33333333333337</ele><time>2026-04-11T10:28:08Z</time></trkpt><trkpt lat="46.18530745351926" lon="13.322013185977605"><ele>351.6666666666667</ele><time>2026-04-11T10:28:09Z</time></trkpt><trkpt lat="46.1852895923426" lon="13.322164258231576"><ele>354.0</ele><time>2026-04-11T10:28:10Z</time></trkpt><trkpt lat="46.185311812288504" lon="13.322267942148445"><ele>356.3333333333333</ele><time>2026-04-11T10:28:11Z</time></trkpt><trkpt lat="46.18532501760546" lon="13.322358217551203"><ele>358.66666666666663</ele><time>2026-04-11T10:28:12Z</time></trkpt><trkpt lat="46.18531917510373" lon="13.322450087099027"><ele>361.0</ele><time>2026-04-11T10:28:13Z</time></trkpt><trkpt lat="46.18523555563376" lon="13.322533516341382"><ele>364.6</ele><time>2026-04-11T10:28:14Z</time></trkpt><trkpt lat="46.18513807085996" lon="13.322583850392647"><ele>368.20000000000005</ele><time>2026-04-11T10:28:15Z</time></trkpt><trkpt lat="46.18506145409889" lon="13.32264341777827"><ele>371.79999999999995</ele><time>2026-04-11T10:28:16Z</time></trkpt><trkpt lat="46.18500913288832" lon="13.322820249412644"><ele>375.4</ele><time>2026-04-11T10:28:17Z</time></trkpt><trkpt lat="46.18495875867785" lon="13.322963644408674"><ele>379.0</ele><time>2026-04-11T10:28:18Z</time></trkpt><trkpt lat="46.18491339198797" lon="13.323117801278569"><ele>380.2</ele><time>2026-04-11T10:28:19Z</time></trkpt><trkpt lat="46.184844594684485" lon="13.323189558636274"><ele>381.4</ele><time>2026-04-11T10:28:20Z</time></trkpt><trkpt lat="46.184793611835204" lon="13.323276538775886"><ele>382.6</ele><time>2026-04-11T10:28:21Z</time></trkpt><trkpt lat="46.18468362312294" lon="13.323267911762446"><ele>383.8</ele><time>2026-04-11T10:28:22Z</time></trkpt><trkpt lat="46.18459500083216" lon="13.323220051340035"><ele>385.0</ele><time>2026-04-11T10:28:23Z</time></trkpt><trkpt lat="46.18447363581005" lon="13.32326700067266"><ele>385.0</ele><time>2026-04-11T10:28:25Z</time></trkpt><trkpt lat="46.184398260663265" lon="13.32340981946568"><ele>385.0</ele><time>2026-04-11T10:28:26Z</time></trkpt><trkpt lat="46.184344942609115" lon="13.323619431096057"><ele>385.0</ele><time>2026-04-11T10:28:27Z</time></trkpt><trkpt lat="46.1842033877078" lon="13.323783689644426"><ele>385.0</ele><time>2026-04-11T10:28:28Z</time></trkpt><trkpt lat="46.184104738041775" lon="13.32385666908068"><ele>385.0</ele><time>2026-04-11T10:28:29Z</time></trkpt><trkpt lat="46.18397330388784" lon="13.32393031476971"><ele>385.0</ele><time>2026-04-11T10:28:30Z</time></trkpt><trkpt lat="46.1838634048369" lon="13.324007425555198"><ele>385.0</ele><time>2026-04-11T10:28:31Z</time></trkpt><trkpt lat="46.18376788475597" lon="13.324008376316934"><ele>385.0</ele><time>2026-04-11T10:28:32Z</time></trkpt><trkpt lat="46.18367215805169" lon="13.323998509376143"><ele>385.0</ele><time>2026-04-11T10:28:33Z</time></trkpt><trkpt lat="46.18354439171088" lon="13.323933043773046"><ele>385.0</ele><time>2026-04-11T10:28:33.999Z</time></trkpt><trkpt lat="46.18338784831313" lon="13.323932850074353"><ele>385.0</ele><time>2026-04-11T10:28:34.999Z</time></trkpt><trkpt lat="46.18332597959155" lon="13.323797546033495"><ele>385.00000000000006</ele><time>2026-04-11T10:28:35.999Z</time></trkpt><trkpt lat="46.18325164979898" lon="13.323664794041004"><ele>385.0</ele><time>2026-04-11T10:28:37.999Z</time></trkpt><trkpt lat="46.18316750619424" lon="13.323720396057857"><ele>385.0</ele><time>2026-04-11T10:28:38.999Z</time></trkpt><trkpt lat="46.18308461545398" lon="13.323735792195574"><ele>385.0</ele><time>2026-04-11T10:28:39.999Z</time></trkpt><trkpt lat="46.18300868474835" lon="13.323762254906494"><ele>385.00000000000006</ele><time>2026-04-11T10:28:40.999Z</time></trkpt><trkpt lat="46.1829636959778" lon="13.323831507482087"><ele>385.0</ele><time>2026-04-11T10:28:41.999Z</time></trkpt><trkpt lat="46.18292978830675" lon="13.323951703115636"><ele>384.00000000000006</ele><time>2026-04-11T10:28:42.999Z</time></trkpt><trkpt lat="46.18292879754641" lon="13.32413061850407"><ele>383.0</ele><time>2026-04-11T10:28:43.999Z</time></trkpt><trkpt lat="46.182951749399884" lon="13.324241941753439"><ele>382.0</ele><time>2026-04-11T10:28:44.999Z</time></trkpt><trkpt lat="46.18300116753787" lon="13.32432179855122"><ele>381.0</ele><time>2026-04-11T10:28:45.999Z</time></trkpt><trkpt lat="46.183067938707005" lon="13.32435227882899"><ele>380.0</ele><time>2026-04-11T10:28:46.999Z</time></trkpt><trkpt lat="46.183154191722444" lon="13.32433355989093"><ele>379.0</ele><time>2026-04-11T10:28:47.999Z</time></trkpt><trkpt lat="46.18321081726649" lon="13.324394361878614"><ele>386.5</ele><time>2026-04-11T10:28:48.999Z</time></trkpt><trkpt lat="46.183255971251825" lon="13.324555392327325"><ele>394.0</ele><time>2026-04-11T10:28:49.999Z</time></trkpt><trkpt lat="46.18323085967376" lon="13.324689942711293"><ele>401.5</ele><time>2026-04-11T10:28:50.999Z</time></trkpt><trkpt lat="46.18325804160294" lon="13.324846857892744"><ele>409.0</ele><time>2026-04-11T10:28:51.999Z</time></trkpt><trkpt lat="46.18327286455402" lon="13.325020771893866"><ele>413.0</ele><time>2026-04-11T10:28:52.999Z</time></trkpt><trkpt lat="46.183282670493774" lon="13.325200729952899"><ele>417.0</ele><time>2026-04-11T10:28:53.999Z</time></trkpt><trkpt lat="46.18328243504455" lon="13.32542549038476"><ele>421.0</ele><time>2026-04-11T10:28:54.999Z</time></trkpt><trkpt lat="46.18329399967748" lon="13.325666794431008"><ele>425.0</ele><time>2026-04-11T10:28:55.999Z</time></trkpt><trkpt lat="46.18331064773285" lon="13.325839023925823"><ele>426.8333333333333</ele><time>2026-04-11T10:28:56.999Z</time></trkpt><trkpt lat="46.18332978560171" lon="13.325986334600932"><ele>428.66666666666663</ele><time>2026-04-11T10:28:57.999Z</time></trkpt><trkpt lat="46.1833440922791" lon="13.326112279964645"><ele>430.5</ele><time>2026-04-11T10:28:58.999Z</time></trkpt><trkpt lat="46.183356505240496" lon="13.326229884601746"><ele>432.33333333333337</ele><time>2026-04-11T10:28:59.999Z</time></trkpt><trkpt lat="46.183311268152785" lon="13.32629833267574"><ele>434.1666666666667</ele><time>2026-04-11T10:29:00.999Z</time></trkpt><trkpt lat="46.18324103322081" lon="13.326343645141264"><ele>436.0</ele><time>2026-04-11T10:29:01.999Z</time></trkpt><trkpt lat="46.18317943731638" lon="13.32640649319564"><ele>436.0</ele><time>2026-04-11T10:29:03.999Z</time></trkpt><trkpt lat="46.18323480676041" lon="13.326455874823349"><ele>436.0</ele><time>2026-04-11T10:29:04.999Z</time></trkpt><trkpt lat="46.18330468592901" lon="13.326464837392779"><ele>436.0</ele><time>2026-04-11T10:29:06.999Z</time></trkpt><trkpt lat="46.18338250114205" lon="13.326388323870583"><ele>436.0</ele><time>2026-04-11T10:29:07.999Z</time></trkpt><trkpt lat="46.18349549061706" lon="13.326253692097014"><ele>436.0</ele><time>2026-04-11T10:29:08.999Z</time></trkpt><trkpt lat="46.183545378372344" lon="13.326087432165604"><ele>436.0</ele><time>2026-04-11T10:29:09.999Z</time></trkpt><trkpt lat="46.18356833248312" lon="13.325909241219009"><ele>436.0</ele><time>2026-04-11T10:29:10.999Z</time></trkpt><trkpt lat="46.18356696986359" lon="13.32569747025399"><ele>436.0</ele><time>2026-04-11T10:29:11.999Z</time></trkpt><trkpt lat="46.18356668517359" lon="13.325500432338156"><ele>436.0</ele><time>2026-04-11T10:29:12.999Z</time></trkpt><trkpt lat="46.183574685981306" lon="13.325326648285545"><ele>433.8</ele><time>2026-04-11T10:29:13.999Z</time></trkpt><trkpt lat="46.183589307831376" lon="13.325173149303223"><ele>431.6</ele><time>2026-04-11T10:29:14.999Z</time></trkpt><trkpt lat="46.18358713827327" lon="13.324997384828952"><ele>429.4</ele><time>2026-04-11T10:29:16.999Z</time></trkpt><trkpt lat="46.18360451439342" lon="13.324868115234299"><ele>427.2</ele><time>2026-04-11T10:29:19Z</time></trkpt><trkpt lat="46.18369680798425" lon="13.324853037921459"><ele>425.0</ele><time>2026-04-11T10:29:21Z</time></trkpt><trkpt lat="46.183696578622126" lon="13.325029026370528"><ele>425.0</ele><time>2026-04-11T10:29:23Z</time></trkpt><trkpt lat="46.1836918227349" lon="13.325152348481435"><ele>425.0</ele><time>2026-04-11T10:29:24Z</time></trkpt><trkpt lat="46.18366695416612" lon="13.325357032281763"><ele>425.0</ele><time>2026-04-11T10:29:25Z</time></trkpt><trkpt lat="46.18366635380905" lon="13.325518923484486"><ele>425.0</ele><time>2026-04-11T10:29:26Z</time></trkpt><trkpt lat="46.1837238525998" lon="13.32568673320062"><ele>427.75</ele><time>2026-04-11T10:29:27Z</time></trkpt><trkpt lat="46.18378163397749" lon="13.32587156232688"><ele>430.5</ele><time>2026-04-11T10:29:28Z</time></trkpt><trkpt lat="46.183806451402575" lon="13.32602606905566"><ele>433.25</ele><time>2026-04-11T10:29:29Z</time></trkpt><trkpt lat="46.18384418475584" lon="13.326170397408912"><ele>436.0</ele><time>2026-04-11T10:29:30Z</time></trkpt><trkpt lat="46.18387996277534" lon="13.326333116729712"><ele>439.4</ele><time>2026-04-11T10:29:31Z</time></trkpt><trkpt lat="46.183903856775615" lon="13.326472943909556"><ele>442.8</ele><time>2026-04-11T10:29:32Z</time></trkpt><trkpt lat="46.18389096031694" lon="13.326591515575382"><ele>446.19999999999993</ele><time>2026-04-11T10:29:33Z</time></trkpt><trkpt lat="46.18388384162289" lon="13.32670600180198"><ele>449.59999999999997</ele><time>2026-04-11T10:29:34Z</time></trkpt><trkpt lat="46.183842674648965" lon="13.326843739904866"><ele>453.0</ele><time>2026-04-11T10:29:35Z</time></trkpt><trkpt lat="46.18376849213757" lon="13.326964356937527"><ele>453.0</ele><time>2026-04-11T10:29:36Z</time></trkpt><trkpt lat="46.18367384734077" lon="13.327086683008083"><ele>452.99999999999994</ele><time>2026-04-11T10:29:37Z</time></trkpt><trkpt lat="46.18361386278572" lon="13.327192384709384"><ele>452.99999999999994</ele><time>2026-04-11T10:29:38Z</time></trkpt><trkpt lat="46.18355110088468" lon="13.327299724013727"><ele>453.0</ele><time>2026-04-11T10:29:39Z</time></trkpt><trkpt lat="46.1835326387202" lon="13.3274198626394"><ele>453.0</ele><time>2026-04-11T10:29:40Z</time></trkpt><trkpt lat="46.18342926599136" lon="13.327484126205077"><ele>463.33333333333337</ele><time>2026-04-11T10:29:41Z</time></trkpt><trkpt lat="46.183256892310524" lon="13.327444460438315"><ele>473.6666666666667</ele><time>2026-04-11T10:29:42Z</time></trkpt><trkpt lat="46.183106809644144" lon="13.327369661236691"><ele>484.0</ele><time>2026-04-11T10:29:43Z</time></trkpt><trkpt lat="46.18294103485025" lon="13.327307173301127"><ele>484.0</ele><time>2026-04-11T10:29:44Z</time></trkpt><trkpt lat="46.18277851655175" lon="13.327278907550944"><ele>484.0</ele><time>2026-04-11T10:29:45Z</time></trkpt><trkpt lat="46.1826168106195" lon="13.32727600416507"><ele>484.0</ele><time>2026-04-11T10:29:46Z</time></trkpt><trkpt lat="46.182484469493794" lon="13.327288924890413"><ele>484.0</ele><time>2026-04-11T10:29:47Z</time></trkpt><trkpt lat="46.18237056863305" lon="13.327298980561595"><ele>484.0</ele><time>2026-04-11T10:29:48Z</time></trkpt><trkpt lat="46.182301003376416" lon="13.32731592872181"><ele>484.0</ele><time>2026-04-11T10:29:49Z</time></trkpt><trkpt lat="46.18221483495586" lon="13.327342994164363"><ele>484.0</ele><time>2026-04-11T10:29:50Z</time></trkpt><trkpt lat="46.18215797034643" lon="13.327413019223036"><ele>484.0</ele><time>2026-04-11T10:29:51Z</time></trkpt><trkpt lat="46.18207092992269" lon="13.327539065712147"><ele>487.5</ele><time>2026-04-11T10:29:52Z</time></trkpt><trkpt lat="46.18196673233142" lon="13.327679177439595"><ele>491.0</ele><time>2026-04-11T10:29:53Z</time></trkpt><trkpt lat="46.181853751254565" lon="13.327822829458803"><ele>494.5</ele><time>2026-04-11T10:29:54Z</time></trkpt><trkpt lat="46.18175219238433" lon="13.327976648777883"><ele>498.0</ele><time>2026-04-11T10:29:55Z</time></trkpt><trkpt lat="46.18164938979034" lon="13.328100702377897"><ele>498.0</ele><time>2026-04-11T10:29:56Z</time></trkpt><trkpt lat="46.181537409021196" lon="13.328207305806039"><ele>498.0</ele><time>2026-04-11T10:29:57Z</time></trkpt><trkpt lat="46.18142897964634" lon="13.328304869836549"><ele>498.0</ele><time>2026-04-11T10:29:58Z</time></trkpt><trkpt lat="46.18134005596254" lon="13.328355539848006"><ele>498.0</ele><time>2026-04-11T10:29:59Z</time></trkpt><trkpt lat="46.18122019923572" lon="13.328489031833838"><ele>500.66666666666663</ele><time>2026-04-11T10:30:00Z</time></trkpt><trkpt lat="46.18108059556024" lon="13.328622864089237"><ele>503.3333333333333</ele><time>2026-04-11T10:30:01Z</time></trkpt><trkpt lat="46.18091363462723" lon="13.328779788646441"><ele>506.0</ele><time>2026-04-11T10:30:02Z</time></trkpt><trkpt lat="46.18079430488765" lon="13.328899394370202"><ele>506.0</ele><time>2026-04-11T10:30:03Z</time></trkpt><trkpt lat="46.180686712183494" lon="13.328984048040494"><ele>506.0</ele><time>2026-04-11T10:30:04Z</time></trkpt><trkpt lat="46.1805872122169" lon="13.32904731572571"><ele>506.0</ele><time>2026-04-11T10:30:05Z</time></trkpt><trkpt lat="46.18049902494221" lon="13.329030436237755"><ele>506.0</ele><time>2026-04-11T10:30:06Z</time></trkpt><trkpt lat="46.18042141580683" lon="13.329078189682035"><ele>506.0</ele><time>2026-04-11T10:30:08Z</time></trkpt><trkpt lat="46.180460533571136" lon="13.329188410254481"><ele>506.0</ele><time>2026-04-11T10:30:09Z</time></trkpt><trkpt lat="46.18051346864757" lon="13.329325299729406"><ele>506.0</ele><time>2026-04-11T10:30:10Z</time></trkpt><trkpt lat="46.180586827899596" lon="13.329469914083102"><ele>506.0</ele><time>2026-04-11T10:30:11Z</time></trkpt><trkpt lat="46.180684315863466" lon="13.329620307889183"><ele>506.0</ele><time>2026-04-11T10:30:12Z</time></trkpt><trkpt lat="46.18077243426226" lon="13.329724799524177"><ele>505.0</ele><time>2026-04-11T10:30:13Z</time></trkpt><trkpt lat="46.18086424849436" lon="13.329794400959644"><ele>504.0</ele><time>2026-04-11T10:30:14Z</time></trkpt><trkpt lat="46.18096186306417" lon="13.329823346626288"><ele>503.0</ele><time>2026-04-11T10:30:15Z</time></trkpt><trkpt lat="46.18106249753879" lon="13.329822405748164"><ele>502.0</ele><time>2026-04-11T10:30:16Z</time></trkpt><trkpt lat="46.181160048581056" lon="13.329818333480265"><ele>501.0</ele><time>2026-04-11T10:30:17Z</time></trkpt><trkpt lat="46.18124573709508" lon="13.329810623338528"><ele>501.0</ele><time>2026-04-11T10:30:18Z</time></trkpt><trkpt lat="46.18130270383197" lon="13.329871217637725"><ele>501.0</ele><time>2026-04-11T10:30:19Z</time></trkpt><trkpt lat="46.18138040414517" lon="13.32998391997935"><ele>501.0</ele><time>2026-04-11T10:30:21Z</time></trkpt><trkpt lat="46.18146006195618" lon="13.329985022021926"><ele>501.0</ele><time>2026-04-11T10:30:23Z</time></trkpt><trkpt lat="46.18146050783145" lon="13.329819915578856"><ele>501.0</ele><time>2026-04-11T10:30:25Z</time></trkpt><trkpt lat="46.181388899877724" lon="13.329763968883386"><ele>501.8333333333333</ele><time>2026-04-11T10:30:26Z</time></trkpt><trkpt lat="46.18131276037239" lon="13.329702390617511"><ele>502.66666666666663</ele><time>2026-04-11T10:30:27Z</time></trkpt><trkpt lat="46.18124364540755" lon="13.329623199801121"><ele>503.5</ele><time>2026-04-11T10:30:28Z</time></trkpt><trkpt lat="46.18120211084087" lon="13.329532694378976"><ele>504.3333333333333</ele><time>2026-04-11T10:30:29Z</time></trkpt><trkpt lat="46.18124019336876" lon="13.329398059393272"><ele>505.16666666666663</ele><time>2026-04-11T10:30:31Z</time></trkpt><trkpt lat="46.18131372150198" lon="13.329380785388942"><ele>506.0</ele><time>2026-04-11T10:30:31.999Z</time></trkpt><trkpt lat="46.1813810235145" lon="13.329435864776013"><ele>506.0</ele><time>2026-04-11T10:30:32.999Z</time></trkpt><trkpt lat="46.181452210471804" lon="13.329541053960325"><ele>506.0</ele><time>2026-04-11T10:30:33.999Z</time></trkpt><trkpt lat="46.18153632851747" lon="13.329679474002546"><ele>506.0</ele><time>2026-04-11T10:30:34.999Z</time></trkpt><trkpt lat="46.18161684399987" lon="13.329777456445466"><ele>506.0</ele><time>2026-04-11T10:30:35.999Z</time></trkpt><trkpt lat="46.181708439346686" lon="13.329828243529358"><ele>506.0</ele><time>2026-04-11T10:30:36.999Z</time></trkpt><trkpt lat="46.18171963509341" lon="13.329955751899595"><ele>512.0</ele><time>2026-04-11T10:30:37.999Z</time></trkpt><trkpt lat="46.181678833364785" lon="13.330116313277024"><ele>518.0</ele><time>2026-04-11T10:30:38.999Z</time></trkpt><trkpt lat="46.181643090415506" lon="13.330248854754611"><ele>524.0</ele><time>2026-04-11T10:30:39.999Z</time></trkpt><trkpt lat="46.18166376241105" lon="13.330452840433633"><ele>530.0</ele><time>2026-04-11T10:30:41.999Z</time></trkpt><trkpt lat="46.18168285771551" lon="13.330560329624584"><ele>536.0</ele><time>2026-04-11T10:30:42.999Z</time></trkpt><trkpt lat="46.18167432937407" lon="13.330677516777339"><ele>537.1666666666666</ele><time>2026-04-11T10:30:43.999Z</time></trkpt><trkpt lat="46.18167827964231" lon="13.330803300249453"><ele>538.3333333333333</ele><time>2026-04-11T10:30:44.999Z</time></trkpt><trkpt lat="46.181679446787655" lon="13.33097894950487"><ele>539.5</ele><time>2026-04-11T10:30:46.999Z</time></trkpt><trkpt lat="46.181675654754976" lon="13.331079482905512"><ele>540.6666666666666</ele><time>2026-04-11T10:30:47.999Z</time></trkpt><trkpt lat="46.18166620266294" lon="13.331176761788004"><ele>541.8333333333334</ele><time>2026-04-11T10:30:48.999Z</time></trkpt><trkpt lat="46.181661778060544" lon="13.331288948497747"><ele>543.0</ele><time>2026-04-11T10:30:49.999Z</time></trkpt><trkpt lat="46.18165621900355" lon="13.33140219673122"><ele>543.4</ele><time>2026-04-11T10:30:50.999Z</time></trkpt><trkpt lat="46.18167959948078" lon="13.3315218417641"><ele>543.8</ele><time>2026-04-11T10:30:51.999Z</time></trkpt><trkpt lat="46.18172940699558" lon="13.331645971172682"><ele>544.2</ele><time>2026-04-11T10:30:52.999Z</time></trkpt><trkpt lat="46.1817555309701" lon="13.331807379432425"><ele>544.6</ele><time>2026-04-11T10:30:53.999Z</time></trkpt><trkpt lat="46.18179015042346" lon="13.33198001708361"><ele>545.0</ele><time>2026-04-11T10:30:54.999Z</time></trkpt><trkpt lat="46.18183333938485" lon="13.33211681866842"><ele>545.1666666666666</ele><time>2026-04-11T10:30:55.999Z</time></trkpt><trkpt lat="46.181781917491335" lon="13.33222354884321"><ele>545.3333333333333</ele><time>2026-04-11T10:30:56.999Z</time></trkpt><trkpt lat="46.181767500372246" lon="13.332331640370409"><ele>545.5</ele><time>2026-04-11T10:30:57.999Z</time></trkpt><trkpt lat="46.181753252071495" lon="13.332438465816779"><ele>545.6666666666666</ele><time>2026-04-11T10:30:58.999Z</time></trkpt><trkpt lat="46.18174376069748" lon="13.332552938669538"><ele>545.8333333333334</ele><time>2026-04-11T10:30:59.999Z</time></trkpt><trkpt lat="46.18174878981279" lon="13.332670004877112"><ele>546.0</ele><time>2026-04-11T10:31:00.999Z</time></trkpt><trkpt lat="46.18175095800658" lon="13.332779463317967"><ele>546.0</ele><time>2026-04-11T10:31:01.999Z</time></trkpt><trkpt lat="46.1817540355135" lon="13.33289094088954"><ele>546.0</ele><time>2026-04-11T10:31:02.999Z</time></trkpt><trkpt lat="46.18173446463994" lon="13.333071010137399"><ele>546.0</ele><time>2026-04-11T10:31:03.999Z</time></trkpt><trkpt lat="46.18171588366061" lon="13.333234897445262"><ele>546.0</ele><time>2026-04-11T10:31:04.999Z</time></trkpt><trkpt lat="46.181697374431195" lon="13.333360810960814"><ele>546.0</ele><time>2026-04-11T10:31:05.999Z</time></trkpt><trkpt lat="46.18168958967245" lon="13.3334614956322"><ele>545.4</ele><time>2026-04-11T10:31:06.999Z</time></trkpt><trkpt lat="46.18167996590641" lon="13.333573986695754"><ele>544.8</ele><time>2026-04-11T10:31:07.999Z</time></trkpt><trkpt lat="46.18163884302195" lon="13.333719127103707"><ele>544.1999999999999</ele><time>2026-04-11T10:31:08.999Z</time></trkpt><trkpt lat="46.18160226439945" lon="13.33388111742908"><ele>543.6</ele><time>2026-04-11T10:31:09.999Z</time></trkpt><trkpt lat="46.1815558838446" lon="13.334047324604017"><ele>543.0</ele><time>2026-04-11T10:31:10.999Z</time></trkpt><trkpt lat="46.181505968602515" lon="13.33417810846395"><ele>543.0</ele><time>2026-04-11T10:31:11.999Z</time></trkpt><trkpt lat="46.181439325050604" lon="13.334310416336578"><ele>543.0</ele><time>2026-04-11T10:31:12.999Z</time></trkpt><trkpt lat="46.18136740003472" lon="13.334458522978872"><ele>543.0</ele><time>2026-04-11T10:31:13.999Z</time></trkpt><trkpt lat="46.181305243346095" lon="13.334614725859844"><ele>543.0</ele><time>2026-04-11T10:31:14.999Z</time></trkpt><trkpt lat="46.18125575998825" lon="13.33478408942492"><ele>548.0</ele><time>2026-04-11T10:31:15.999Z</time></trkpt><trkpt lat="46.18116983722863" lon="13.334946343450234"><ele>553.0</ele><time>2026-04-11T10:31:16.999Z</time></trkpt><trkpt lat="46.18108478812744" lon="13.33513756601494"><ele>558.0</ele><time>2026-04-11T10:31:17.999Z</time></trkpt><trkpt lat="46.18101676836602" lon="13.335284426454459"><ele>563.0</ele><time>2026-04-11T10:31:18.999Z</time></trkpt><trkpt lat="46.18095233074708" lon="13.335370324038035"><ele>563.0</ele><time>2026-04-11T10:31:19.999Z</time></trkpt><trkpt lat="46.180933865499505" lon="13.335494762215273"><ele>563.0</ele><time>2026-04-11T10:31:20.999Z</time></trkpt><trkpt lat="46.180915404398704" lon="13.335657848063367"><ele>563.0</ele><time>2026-04-11T10:31:21.999Z</time></trkpt><trkpt lat="46.18088166529003" lon="13.335814603649757"><ele>563.0</ele><time>2026-04-11T10:31:22.999Z</time></trkpt><trkpt lat="46.18081785830562" lon="13.335930656307548"><ele>563.0</ele><time>2026-04-11T10:31:24Z</time></trkpt><trkpt lat="46.18074741479604" lon="13.336015092229552"><ele>566.0</ele><time>2026-04-11T10:31:25Z</time></trkpt><trkpt lat="46.18069846045399" lon="13.336095901610028"><ele>569.0</ele><time>2026-04-11T10:31:26Z</time></trkpt><trkpt lat="46.180667249537265" lon="13.336220937864502"><ele>572.0</ele><time>2026-04-11T10:31:27Z</time></trkpt><trkpt lat="46.18065001744679" lon="13.336375783467773"><ele>575.0</ele><time>2026-04-11T10:31:28Z</time></trkpt><trkpt lat="46.180622250854896" lon="13.33649639133377"><ele>578.0</ele><time>2026-04-11T10:31:29Z</time></trkpt><trkpt lat="46.180611593053754" lon="13.336599428277195"><ele>581.0</ele><time>2026-04-11T10:31:30Z</time></trkpt><trkpt lat="46.1806225082279" lon="13.33670698216921"><ele>582.8</ele><time>2026-04-11T10:31:31Z</time></trkpt><trkpt lat="46.180666578230465" lon="13.336820017706243"><ele>584.6</ele><time>2026-04-11T10:31:32Z</time></trkpt><trkpt lat="46.18072593486255" lon="13.336927189908376"><ele>586.4</ele><time>2026-04-11T10:31:33Z</time></trkpt><trkpt lat="46.18078708883485" lon="13.33705028954095"><ele>588.2</ele><time>2026-04-11T10:31:34Z</time></trkpt><trkpt lat="46.180841575692654" lon="13.337215107204504"><ele>590.0</ele><time>2026-04-11T10:31:35Z</time></trkpt><trkpt lat="46.18089805972777" lon="13.337359240422188"><ele>590.8333333333333</ele><time>2026-04-11T10:31:36Z</time></trkpt><trkpt lat="46.180930131553396" lon="13.337460190979176"><ele>591.6666666666666</ele><time>2026-04-11T10:31:37Z</time></trkpt><trkpt lat="46.18097327972755" lon="13.337556505139567"><ele>592.5</ele><time>2026-04-11T10:31:38Z</time></trkpt><trkpt lat="46.181002651587725" lon="13.337685914831651"><ele>593.3333333333334</ele><time>2026-04-11T10:31:39Z</time></trkpt><trkpt lat="46.18101500089783" lon="13.337826221357147"><ele>594.1666666666667</ele><time>2026-04-11T10:31:40Z</time></trkpt><trkpt lat="46.18097237333796" lon="13.337952646852711"><ele>595.0</ele><time>2026-04-11T10:31:41Z</time></trkpt><trkpt lat="46.18090983428682" lon="13.338122054143337"><ele>596.0</ele><time>2026-04-11T10:31:42Z</time></trkpt><trkpt lat="46.18090141331503" lon="13.338314583435286"><ele>597.0</ele><time>2026-04-11T10:31:43Z</time></trkpt><trkpt lat="46.18088943620561" lon="13.338531611900805"><ele>598.0</ele><time>2026-04-11T10:31:44Z</time></trkpt><trkpt lat="46.18089872510946" lon="13.338729271855025"><ele>599.0</ele><time>2026-04-11T10:31:45Z</time></trkpt><trkpt lat="46.180896077278625" lon="13.338920756700238"><ele>599.0</ele><time>2026-04-11T10:31:46Z</time></trkpt><trkpt lat="46.18090594276085" lon="13.339113189642946"><ele>599.0</ele><time>2026-04-11T10:31:47Z</time></trkpt><trkpt lat="46.180905208232865" lon="13.339264197415952"><ele>599.0</ele><time>2026-04-11T10:31:48Z</time></trkpt><trkpt lat="46.18093333088796" lon="13.339482067864472"><ele>599.0</ele><time>2026-04-11T10:31:50Z</time></trkpt><trkpt lat="46.18098012330665" lon="13.339607899971895"><ele>599.0</ele><time>2026-04-11T10:31:51Z</time></trkpt><trkpt lat="46.18110628880324" lon="13.339709613232777"><ele>599.0</ele><time>2026-04-11T10:31:52Z</time></trkpt><trkpt lat="46.18119190971198" lon="13.339834165149817"><ele>599.0</ele><time>2026-04-11T10:31:53Z</time></trkpt><trkpt lat="46.18128321845266" lon="13.339971935357768"><ele>599.0</ele><time>2026-04-11T10:31:54Z</time></trkpt><trkpt lat="46.18135769114366" lon="13.34007672072472"><ele>605.6</ele><time>2026-04-11T10:31:55Z</time></trkpt><trkpt lat="46.181420343881385" lon="13.34014729369111"><ele>612.2</ele><time>2026-04-11T10:31:56Z</time></trkpt><trkpt lat="46.18150814031917" lon="13.340202670599577"><ele>618.8000000000001</ele><time>2026-04-11T10:31:57Z</time></trkpt><trkpt lat="46.18161833097566" lon="13.340254496074031"><ele>625.4</ele><time>2026-04-11T10:31:58Z</time></trkpt><trkpt lat="46.18174662377556" lon="13.340386145258277"><ele>632.0</ele><time>2026-04-11T10:31:59Z</time></trkpt><trkpt lat="46.1818990931237" lon="13.340569082078078"><ele>632.0</ele><time>2026-04-11T10:32:00Z</time></trkpt><trkpt lat="46.182029106439515" lon="13.340706751756208"><ele>632.0</ele><time>2026-04-11T10:32:01Z</time></trkpt><trkpt lat="46.182117051182175" lon="13.340828959196454"><ele>632.0</ele><time>2026-04-11T10:32:02Z</time></trkpt><trkpt lat="46.18219747548385" lon="13.340961669905372"><ele>632.0</ele><time>2026-04-11T10:32:03Z</time></trkpt><trkpt lat="46.182276293198555" lon="13.34113178236177"><ele>632.25</ele><time>2026-04-11T10:32:04Z</time></trkpt><trkpt lat="46.18232879403477" lon="13.341344565657328"><ele>632.5</ele><time>2026-04-11T10:32:05Z</time></trkpt><trkpt lat="46.18237944758511" lon="13.341500463818857"><ele>632.75</ele><time>2026-04-11T10:32:06Z</time></trkpt><trkpt lat="46.18244992058235" lon="13.34162708446988"><ele>633.0</ele><time>2026-04-11T10:32:07Z</time></trkpt><trkpt lat="46.18247533498357" lon="13.341789498299661"><ele>633.0</ele><time>2026-04-11T10:32:08Z</time></trkpt><trkpt lat="46.182471242967985" lon="13.341976184269704"><ele>633.0</ele><time>2026-04-11T10:32:09Z</time></trkpt><trkpt lat="46.18248778163973" lon="13.342125525324745"><ele>633.0</ele><time>2026-04-11T10:32:10Z</time></trkpt><trkpt lat="46.1825431375547" lon="13.342286091929417"><ele>633.0</ele><time>2026-04-11T10:32:11Z</time></trkpt><trkpt lat="46.18257233335878" lon="13.342456538801429"><ele>634.0</ele><time>2026-04-11T10:32:12Z</time></trkpt><trkpt lat="46.18256908909552" lon="13.342654542319396"><ele>635.0</ele><time>2026-04-11T10:32:13Z</time></trkpt><trkpt lat="46.18253358728736" lon="13.34287069401505"><ele>636.0</ele><time>2026-04-11T10:32:14Z</time></trkpt><trkpt lat="46.18251869394567" lon="13.34304550414771"><ele>637.0</ele><time>2026-04-11T10:32:15Z</time></trkpt><trkpt lat="46.182487218853346" lon="13.343195518516428"><ele>638.75</ele><time>2026-04-11T10:32:16Z</time></trkpt><trkpt lat="46.18247793604446" lon="13.343358045943052"><ele>640.5</ele><time>2026-04-11T10:32:17Z</time></trkpt><trkpt lat="46.18239483030443" lon="13.343523084081381"><ele>642.25</ele><time>2026-04-11T10:32:18Z</time></trkpt><trkpt lat="46.18229346724953" lon="13.343673485938085"><ele>644.0</ele><time>2026-04-11T10:32:19Z</time></trkpt><trkpt lat="46.1822263678874" lon="13.343852481771838"><ele>636.0</ele><time>2026-04-11T10:32:20Z</time></trkpt><trkpt lat="46.182159602824186" lon="13.344048742273518"><ele>628.0</ele><time>2026-04-11T10:32:21Z</time></trkpt><trkpt lat="46.182093497366125" lon="13.344153899629385"><ele>620.0</ele><time>2026-04-11T10:32:22Z</time></trkpt><trkpt lat="46.182031399599374" lon="13.344237505808604"><ele>612.0</ele><time>2026-04-11T10:32:23Z</time></trkpt><trkpt lat="46.181988687627005" lon="13.344418145280088"><ele>612.0</ele><time>2026-04-11T10:32:24Z</time></trkpt><trkpt lat="46.181974764308706" lon="13.344596102746914"><ele>612.0</ele><time>2026-04-11T10:32:25Z</time></trkpt><trkpt lat="46.18197355329" lon="13.344760373931873"><ele>612.0</ele><time>2026-04-11T10:32:26Z</time></trkpt><trkpt lat="46.18198998259478" lon="13.344914802848956"><ele>612.0</ele><time>2026-04-11T10:32:26.999Z</time></trkpt><trkpt lat="46.18202992330592" lon="13.345044782498963"><ele>612.0</ele><time>2026-04-11T10:32:27.999Z</time></trkpt><trkpt lat="46.182079431125985" lon="13.345146638424302"><ele>616.25</ele><time>2026-04-11T10:32:28.999Z</time></trkpt><trkpt lat="46.182073977048724" lon="13.34528756661416"><ele>620.5</ele><time>2026-04-11T10:32:29.999Z</time></trkpt><trkpt lat="46.18205152174459" lon="13.345454398054134"><ele>624.75</ele><time>2026-04-11T10:32:30.999Z</time></trkpt><trkpt lat="46.182007320799734" lon="13.345601460270565"><ele>629.0</ele><time>2026-04-11T10:32:31.999Z</time></trkpt><trkpt lat="46.181949017138486" lon="13.345760642273126"><ele>634.0</ele><time>2026-04-11T10:32:32.999Z</time></trkpt><trkpt lat="46.18189428573912" lon="13.345931240644655"><ele>639.0</ele><time>2026-04-11T10:32:33.999Z</time></trkpt><trkpt lat="46.18184096400661" lon="13.34611874374442"><ele>644.0</ele><time>2026-04-11T10:32:34.999Z</time></trkpt><trkpt lat="46.181793615486505" lon="13.346283413283658"><ele>649.0</ele><time>2026-04-11T10:32:35.999Z</time></trkpt><trkpt lat="46.181757913440435" lon="13.346408705015898"><ele>647.2</ele><time>2026-04-11T10:32:36.999Z</time></trkpt><trkpt lat="46.18169433955724" lon="13.3465611719014"><ele>645.4000000000001</ele><time>2026-04-11T10:32:38.999Z</time></trkpt><trkpt lat="46.18162235046827" lon="13.34658418004879"><ele>643.6</ele><time>2026-04-11T10:32:39.999Z</time></trkpt><trkpt lat="46.18153575448339" lon="13.346541602821127"><ele>641.8</ele><time>2026-04-11T10:32:40.999Z</time></trkpt><trkpt lat="46.18146355566726" lon="13.346438813182445"><ele>640.0</ele><time>2026-04-11T10:32:41.999Z</time></trkpt><trkpt lat="46.18138781248193" lon="13.346294672372842"><ele>640.0</ele><time>2026-04-11T10:32:42.999Z</time></trkpt><trkpt lat="46.181316342612284" lon="13.346188423257976"><ele>640.0</ele><time>2026-04-11T10:32:43.999Z</time></trkpt><trkpt lat="46.18121740082992" lon="13.346139991941193"><ele>640.0</ele><time>2026-04-11T10:32:44.999Z</time></trkpt><trkpt lat="46.18109718967286" lon="13.346104857397583"><ele>640.0</ele><time>2026-04-11T10:32:45.999Z</time></trkpt><trkpt lat="46.180968292838436" lon="13.346121352965037"><ele>640.0</ele><time>2026-04-11T10:32:46.999Z</time></trkpt><trkpt lat="46.18084145517905" lon="13.346139008072006"><ele>640.0</ele><time>2026-04-11T10:32:47.999Z</time></trkpt><trkpt lat="46.18075896185394" lon="13.346161480663985"><ele>640.0</ele><time>2026-04-11T10:32:48.999Z</time></trkpt><trkpt lat="46.18068188565531" lon="13.346245646883593"><ele>640.0</ele><time>2026-04-11T10:32:50.999Z</time></trkpt><trkpt lat="46.18076751897315" lon="13.346367429741585"><ele>640.0</ele><time>2026-04-11T10:32:52.999Z</time></trkpt><trkpt lat="46.18086868823497" lon="13.346373289632817"><ele>640.0</ele><time>2026-04-11T10:32:53.999Z</time></trkpt><trkpt lat="46.180980683700504" lon="13.346367164911847"><ele>640.0</ele><time>2026-04-11T10:32:54.999Z</time></trkpt><trkpt lat="46.18107547337987" lon="13.346392182104049"><ele>640.0</ele><time>2026-04-11T10:32:55.999Z</time></trkpt><trkpt lat="46.18116331507179" lon="13.346482212235166"><ele>640.0</ele><time>2026-04-11T10:32:56.999Z</time></trkpt><trkpt lat="46.181243389289314" lon="13.346598783874736"><ele>640.0</ele><time>2026-04-11T10:32:57.999Z</time></trkpt><trkpt lat="46.18130663893773" lon="13.346714112796986"><ele>646.25</ele><time>2026-04-11T10:32:58.999Z</time></trkpt><trkpt lat="46.18136185140179" lon="13.346838597845627"><ele>652.5</ele><time>2026-04-11T10:32:59.999Z</time></trkpt><trkpt lat="46.181421052147215" lon="13.34697466881639"><ele>658.75</ele><time>2026-04-11T10:33:00.999Z</time></trkpt><trkpt lat="46.18148841136412" lon="13.347127764994278"><ele>665.0</ele><time>2026-04-11T10:33:01.999Z</time></trkpt><trkpt lat="46.18155919444393" lon="13.347294469741309"><ele>667.75</ele><time>2026-04-11T10:33:02.999Z</time></trkpt><trkpt lat="46.181639472416855" lon="13.347484086142748"><ele>670.5</ele><time>2026-04-11T10:33:03.999Z</time></trkpt><trkpt lat="46.18172385811677" lon="13.347681830342585"><ele>673.25</ele><time>2026-04-11T10:33:04.999Z</time></trkpt><trkpt lat="46.1817903105281" lon="13.347830129990562"><ele>676.0</ele><time>2026-04-11T10:33:05.999Z</time></trkpt><trkpt lat="46.181836344455625" lon="13.347930134666692"><ele>676.0</ele><time>2026-04-11T10:33:06.999Z</time></trkpt><trkpt lat="46.181879452637546" lon="13.348024329137957"><ele>676.0</ele><time>2026-04-11T10:33:07.999Z</time></trkpt><trkpt lat="46.18191990092023" lon="13.348128764489612"><ele>676.0</ele><time>2026-04-11T10:33:08.999Z</time></trkpt><trkpt lat="46.18195702016448" lon="13.348232289090321"><ele>676.0</ele><time>2026-04-11T10:33:09.999Z</time></trkpt><trkpt lat="46.18200250868812" lon="13.348372190050513"><ele>676.0</ele><time>2026-04-11T10:33:11.999Z</time></trkpt><trkpt lat="46.18197134495067" lon="13.34847026545868"><ele>676.0</ele><time>2026-04-11T10:33:13.999Z</time></trkpt><trkpt lat="46.181863641500456" lon="13.348413766189502"><ele>676.0</ele><time>2026-04-11T10:33:15.999Z</time></trkpt><trkpt lat="46.18185891003394" lon="13.34829148377829"><ele>676.0</ele><time>2026-04-11T10:33:16.999Z</time></trkpt><trkpt lat="46.18181785879669" lon="13.348166000177308"><ele>676.0</ele><time>2026-04-11T10:33:17.999Z</time></trkpt><trkpt lat="46.18174187649681" lon="13.348080662153947"><ele>676.0</ele><time>2026-04-11T10:33:18.999Z</time></trkpt><trkpt lat="46.18161328003293" lon="13.348012326378633"><ele>676.0</ele><time>2026-04-11T10:33:19.999Z</time></trkpt><trkpt lat="46.18145366630571" lon="13.347926970601975"><ele>676.8</ele><time>2026-04-11T10:33:20.999Z</time></trkpt><trkpt lat="46.1813625485069" lon="13.347842733416215"><ele>677.5999999999999</ele><time>2026-04-11T10:33:21.999Z</time></trkpt><trkpt lat="46.1812815667987" lon="13.347768745050594"><ele>678.4</ele><time>2026-04-11T10:33:22.999Z</time></trkpt><trkpt lat="46.181202842082634" lon="13.34771460591652"><ele>679.2</ele><time>2026-04-11T10:33:23.999Z</time></trkpt><trkpt lat="46.181124717404586" lon="13.34769660935203"><ele>680.0</ele><time>2026-04-11T10:33:24.999Z</time></trkpt><trkpt lat="46.181006054760346" lon="13.347784419083453"><ele>680.0</ele><time>2026-04-11T10:33:26.999Z</time></trkpt><trkpt lat="46.18095206005711" lon="13.347871014631247"><ele>680.0</ele><time>2026-04-11T10:33:27.999Z</time></trkpt><trkpt lat="46.180904287884296" lon="13.347964718657666"><ele>680.0</ele><time>2026-04-11T10:33:29Z</time></trkpt><trkpt lat="46.18085794591671" lon="13.34805954866078"><ele>680.0</ele><time>2026-04-11T10:33:30Z</time></trkpt><trkpt lat="46.18081100710571" lon="13.34815797436743"><ele>680.0</ele><time>2026-04-11T10:33:31Z</time></trkpt><trkpt lat="46.18076373789317" lon="13.348261596585205"><ele>680.0</ele><time>2026-04-11T10:33:32Z</time></trkpt><trkpt lat="46.18073744076023" lon="13.34837247750864"><ele>681.0</ele><time>2026-04-11T10:33:33Z</time></trkpt><trkpt lat="46.18073586442218" lon="13.348487303731634"><ele>682.0</ele><time>2026-04-11T10:33:34Z</time></trkpt><trkpt lat="46.18077069996576" lon="13.348595045764393"><ele>683.0</ele><time>2026-04-11T10:33:35Z</time></trkpt><trkpt lat="46.1808397299562" lon="13.348677429429252"><ele>684.0</ele><time>2026-04-11T10:33:36Z</time></trkpt><trkpt lat="46.18092239479446" lon="13.348738461391829"><ele>685.0</ele><time>2026-04-11T10:33:37Z</time></trkpt><trkpt lat="46.18100016948671" lon="13.348810416045731"><ele>686.0</ele><time>2026-04-11T10:33:38Z</time></trkpt><trkpt lat="46.18107634988843" lon="13.348886322172447"><ele>686.6666666666666</ele><time>2026-04-11T10:33:39Z</time></trkpt><trkpt lat="46.18114672046665" lon="13.348951974098457"><ele>687.3333333333333</ele><time>2026-04-11T10:33:40Z</time></trkpt><trkpt lat="46.18119533598766" lon="13.34904543150268"><ele>688.0</ele><time>2026-04-11T10:33:41Z</time></trkpt><trkpt lat="46.18125784757746" lon="13.349108777850532"><ele>688.6666666666666</ele><time>2026-04-11T10:33:42Z</time></trkpt><trkpt lat="46.18132579997843" lon="13.349185074411977"><ele>689.3333333333334</ele><time>2026-04-11T10:33:43Z</time></trkpt><trkpt lat="46.181397089234615" lon="13.349280454463482"><ele>690.0</ele><time>2026-04-11T10:33:44Z</time></trkpt><trkpt lat="46.181487475717944" lon="13.349362074758755"><ele>691.5</ele><time>2026-04-11T10:33:45Z</time></trkpt><trkpt lat="46.18156538068004" lon="13.34947643927945"><ele>693.0</ele><time>2026-04-11T10:33:46Z</time></trkpt><trkpt lat="46.18163659970041" lon="13.349614676953468"><ele>694.5</ele><time>2026-04-11T10:33:47Z</time></trkpt><trkpt lat="46.181722133136994" lon="13.349732319116711"><ele>696.0</ele><time>2026-04-11T10:33:48Z</time></trkpt><trkpt lat="46.18176085685544" lon="13.349891519126952"><ele>698.4</ele><time>2026-04-11T10:33:49Z</time></trkpt><trkpt lat="46.18181529966943" lon="13.350007572276985"><ele>700.8</ele><time>2026-04-11T10:33:50Z</time></trkpt><trkpt lat="46.181836541798106" lon="13.3501244343895"><ele>703.1999999999999</ele><time>2026-04-11T10:33:51Z</time></trkpt><trkpt lat="46.18183472923915" lon="13.350258113838258"><ele>705.5999999999999</ele><time>2026-04-11T10:33:52Z</time></trkpt><trkpt lat="46.181799989684336" lon="13.350399188619965"><ele>708.0</ele><time>2026-04-11T10:33:53Z</time></trkpt><trkpt lat="46.18179017250107" lon="13.350530795237205"><ele>709.2</ele><time>2026-04-11T10:33:54Z</time></trkpt><trkpt lat="46.18183712567721" lon="13.350661845019346"><ele>710.4</ele><time>2026-04-11T10:33:55Z</time></trkpt><trkpt lat="46.18191400429741" lon="13.350794098344828"><ele>711.6</ele><time>2026-04-11T10:33:56Z</time></trkpt><trkpt lat="46.181953753927196" lon="13.350929873679389"><ele>712.8000000000001</ele><time>2026-04-11T10:33:57Z</time></trkpt><trkpt lat="46.18198219429736" lon="13.351035477782974"><ele>714.0</ele><time>2026-04-11T10:33:58Z</time></trkpt><trkpt lat="46.181958423717326" lon="13.351148007235052"><ele>714.0</ele><time>2026-04-11T10:33:59Z</time></trkpt><trkpt lat="46.181912509119286" lon="13.35127625765573"><ele>714.0</ele><time>2026-04-11T10:34:00Z</time></trkpt><trkpt lat="46.18186632551798" lon="13.351411368101289"><ele>714.0</ele><time>2026-04-11T10:34:01Z</time></trkpt><trkpt lat="46.18179665652082" lon="13.35151407368643"><ele>714.0</ele><time>2026-04-11T10:34:02Z</time></trkpt><trkpt lat="46.18177401482548" lon="13.351638403541097"><ele>714.0</ele><time>2026-04-11T10:34:04Z</time></trkpt><trkpt lat="46.18185502294075" lon="13.351704219150863"><ele>714.0</ele><time>2026-04-11T10:34:06Z</time></trkpt><trkpt lat="46.18194625787736" lon="13.35159614341508"><ele>714.0</ele><time>2026-04-11T10:34:07Z</time></trkpt><trkpt lat="46.18202276224239" lon="13.35142234321022"><ele>714.0</ele><time>2026-04-11T10:34:08Z</time></trkpt><trkpt lat="46.18210804911567" lon="13.351296032154455"><ele>714.0</ele><time>2026-04-11T10:34:09Z</time></trkpt><trkpt lat="46.182203498213575" lon="13.351197838394892"><ele>714.0</ele><time>2026-04-11T10:34:10Z</time></trkpt><trkpt lat="46.18231458379328" lon="13.351104043183355"><ele>714.0</ele><time>2026-04-11T10:34:11Z</time></trkpt><trkpt lat="46.1824411681284" lon="13.350993204664306"><ele>714.0</ele><time>2026-04-11T10:34:12Z</time></trkpt><trkpt lat="46.18256946123762" lon="13.350891557676544"><ele>714.0</ele><time>2026-04-11T10:34:13Z</time></trkpt><trkpt lat="46.182697920780825" lon="13.350805065955733"><ele>714.5</ele><time>2026-04-11T10:34:14Z</time></trkpt><trkpt lat="46.18282049055947" lon="13.350719936883207"><ele>715.0</ele><time>2026-04-11T10:34:15Z</time></trkpt><trkpt lat="46.18292918855646" lon="13.350647218558679"><ele>715.5</ele><time>2026-04-11T10:34:16Z</time></trkpt><trkpt lat="46.18302860688031" lon="13.350585248259556"><ele>716.0</ele><time>2026-04-11T10:34:17Z</time></trkpt><trkpt lat="46.183120426118755" lon="13.350539877844565"><ele>719.1999999999999</ele><time>2026-04-11T10:34:18Z</time></trkpt><trkpt lat="46.18322467007329" lon="13.350509623379804"><ele>722.4</ele><time>2026-04-11T10:34:19Z</time></trkpt><trkpt lat="46.18333799404632" lon="13.350490864966964"><ele>725.6</ele><time>2026-04-11T10:34:20Z</time></trkpt><trkpt lat="46.18345432312691" lon="13.35049025821668"><ele>728.8</ele><time>2026-04-11T10:34:21Z</time></trkpt><trkpt lat="46.18354314074924" lon="13.350490988982065"><ele>732.0</ele><time>2026-04-11T10:34:22Z</time></trkpt><trkpt lat="46.183645490701615" lon="13.350503920243263"><ele>740.5</ele><time>2026-04-11T10:34:24Z</time></trkpt><trkpt lat="46.18356484194998" lon="13.350632902210194"><ele>749.0</ele><time>2026-04-11T10:34:28Z</time></trkpt><trkpt lat="46.1834679467683" lon="13.350701414946666"><ele>757.5</ele><time>2026-04-11T10:34:29Z</time></trkpt><trkpt lat="46.183375304824054" lon="13.350829871107901"><ele>766.0</ele><time>2026-04-11T10:34:30Z</time></trkpt><trkpt lat="46.183277795896814" lon="13.350985257292667"><ele>766.0</ele><time>2026-04-11T10:34:31Z</time></trkpt><trkpt lat="46.18318237527743" lon="13.351112912136522"><ele>766.0</ele><time>2026-04-11T10:34:32Z</time></trkpt><trkpt lat="46.183096256446944" lon="13.35122592035094"><ele>766.0</ele><time>2026-04-11T10:34:33Z</time></trkpt><trkpt lat="46.183035048254844" lon="13.351317565076789"><ele>766.0</ele><time>2026-04-11T10:34:34Z</time></trkpt><trkpt lat="46.18299925685941" lon="13.351402260883313"><ele>766.0</ele><time>2026-04-11T10:34:34.999Z</time></trkpt><trkpt lat="46.182988996239445" lon="13.351497242304182"><ele>766.0</ele><time>2026-04-11T10:34:35.999Z</time></trkpt><trkpt lat="46.183013658759336" lon="13.351600116109012"><ele>766.0</ele><time>2026-04-11T10:34:36.999Z</time></trkpt><trkpt lat="46.18306321815475" lon="13.351705550497769"><ele>766.0</ele><time>2026-04-11T10:34:37.999Z</time></trkpt><trkpt lat="46.18317849462047" lon="13.35173619082352"><ele>766.0</ele><time>2026-04-11T10:34:38.999Z</time></trkpt><trkpt lat="46.18331506542687" lon="13.351765470796593"><ele>766.0</ele><time>2026-04-11T10:34:39.999Z</time></trkpt><trkpt lat="46.18343771934236" lon="13.351811982920799"><ele>766.0</ele><time>2026-04-11T10:34:40.999Z</time></trkpt><trkpt lat="46.18354421725411" lon="13.351838037196956"><ele>766.0</ele><time>2026-04-11T10:34:41.999Z</time></trkpt><trkpt lat="46.18365128064776" lon="13.351875319501875"><ele>766.0</ele><time>2026-04-11T10:34:42.999Z</time></trkpt><trkpt lat="46.18373888116123" lon="13.351916563018401"><ele>766.0</ele><time>2026-04-11T10:34:43.999Z</time></trkpt><trkpt lat="46.18379261836056" lon="13.35201661913652"><ele>766.0</ele><time>2026-04-11T10:34:44.999Z</time></trkpt><trkpt lat="46.18381550027666" lon="13.35213339470865"><ele>767.3333333333334</ele><time>2026-04-11T10:34:45.999Z</time></trkpt><trkpt lat="46.18380777439386" lon="13.35224184725115"><ele>768.6666666666667</ele><time>2026-04-11T10:34:46.999Z</time></trkpt><trkpt lat="46.18382176178531" lon="13.352335645178915"><ele>770.0</ele><time>2026-04-11T10:34:47.999Z</time></trkpt><trkpt lat="46.183873426684436" lon="13.352435781414457"><ele>771.3333333333334</ele><time>2026-04-11T10:34:48.999Z</time></trkpt><trkpt lat="46.18395682775986" lon="13.3525112732437"><ele>772.6666666666666</ele><time>2026-04-11T10:34:49.999Z</time></trkpt><trkpt lat="46.18406602910758" lon="13.352583634835305"><ele>774.0</ele><time>2026-04-11T10:34:50.999Z</time></trkpt><trkpt lat="46.18418125905584" lon="13.352691068086258"><ele>774.0</ele><time>2026-04-11T10:34:51.999Z</time></trkpt><trkpt lat="46.1843064251" lon="13.352788218279057"><ele>774.0</ele><time>2026-04-11T10:34:52.999Z</time></trkpt><trkpt lat="46.184422770374795" lon="13.352875972993091"><ele>774.0</ele><time>2026-04-11T10:34:53.999Z</time></trkpt><trkpt lat="46.18451546436974" lon="13.352959794138881"><ele>774.0</ele><time>2026-04-11T10:34:54.999Z</time></trkpt><trkpt lat="46.18457891400016" lon="13.353052754720183"><ele>774.0</ele><time>2026-04-11T10:34:55.999Z</time></trkpt><trkpt lat="46.18460906769837" lon="13.353153845542586"><ele>774.0</ele><time>2026-04-11T10:34:56.999Z</time></trkpt><trkpt lat="46.18461329542154" lon="13.353275671071685"><ele>774.0</ele><time>2026-04-11T10:34:57.999Z</time></trkpt><trkpt lat="46.18459138022206" lon="13.35341091884011"><ele>774.0</ele><time>2026-04-11T10:34:58.999Z</time></trkpt><trkpt lat="46.184589476094565" lon="13.353578031995209"><ele>774.0</ele><time>2026-04-11T10:34:59.999Z</time></trkpt><trkpt lat="46.18458506739551" lon="13.353754849571843"><ele>777.75</ele><time>2026-04-11T10:35:00.999Z</time></trkpt><trkpt lat="46.18461971022349" lon="13.353929097910598"><ele>781.5</ele><time>2026-04-11T10:35:01.999Z</time></trkpt><trkpt lat="46.1846447177266" lon="13.354114584017406"><ele>785.25</ele><time>2026-04-11T10:35:02.999Z</time></trkpt><trkpt lat="46.18465964012675" lon="13.35429027629214"><ele>789.0</ele><time>2026-04-11T10:35:03.999Z</time></trkpt><trkpt lat="46.18468187965284" lon="13.354449426788191"><ele>789.0</ele><time>2026-04-11T10:35:04.999Z</time></trkpt><trkpt lat="46.184710660778954" lon="13.354607633354538"><ele>789.0</ele><time>2026-04-11T10:35:05.999Z</time></trkpt><trkpt lat="46.184784183984036" lon="13.354730268677349"><ele>789.0</ele><time>2026-04-11T10:35:06.999Z</time></trkpt><trkpt lat="46.18483403133466" lon="13.354867171084082"><ele>789.0</ele><time>2026-04-11T10:35:07.999Z</time></trkpt><trkpt lat="46.18491102608425" lon="13.354974352648272"><ele>789.0</ele><time>2026-04-11T10:35:08.999Z</time></trkpt><trkpt lat="46.18500562277278" lon="13.355064207789722"><ele>791.2</ele><time>2026-04-11T10:35:09.999Z</time></trkpt><trkpt lat="46.18509697409874" lon="13.355162198206612"><ele>793.4000000000001</ele><time>2026-04-11T10:35:10.999Z</time></trkpt><trkpt lat="46.18516484999059" lon="13.355248444039319"><ele>795.6</ele><time>2026-04-11T10:35:11.999Z</time></trkpt><trkpt lat="46.185206538042195" lon="13.355376217374323"><ele>797.8</ele><time>2026-04-11T10:35:12.999Z</time></trkpt><trkpt lat="46.18521852185894" lon="13.355517167345925"><ele>800.0</ele><time>2026-04-11T10:35:13.999Z</time></trkpt><trkpt lat="46.18523542490015" lon="13.35566636068352"><ele>802.0</ele><time>2026-04-11T10:35:14.999Z</time></trkpt><trkpt lat="46.18525197486737" lon="13.35580031122679"><ele>804.0</ele><time>2026-04-11T10:35:15.999Z</time></trkpt><trkpt lat="46.18528245657591" lon="13.355922380656397"><ele>806.0</ele><time>2026-04-11T10:35:16.999Z</time></trkpt><trkpt lat="46.18532601049768" lon="13.356031992608724"><ele>808.0</ele><time>2026-04-11T10:35:17.999Z</time></trkpt><trkpt lat="46.1854034493087" lon="13.356122118684324"><ele>810.0</ele><time>2026-04-11T10:35:18.999Z</time></trkpt><trkpt lat="46.18551677927283" lon="13.356119927865354"><ele>810.0</ele><time>2026-04-11T10:35:19.999Z</time></trkpt><trkpt lat="46.18558850416682" lon="13.35617153387868"><ele>810.0</ele><time>2026-04-11T10:35:20.999Z</time></trkpt><trkpt lat="46.1856472798222" lon="13.356248211731582"><ele>810.0</ele><time>2026-04-11T10:35:21.999Z</time></trkpt><trkpt lat="46.18568621329071" lon="13.356358242712153"><ele>810.0</ele><time>2026-04-11T10:35:22.999Z</time></trkpt><trkpt lat="46.18572304630973" lon="13.356498750581277"><ele>810.0</ele><time>2026-04-11T10:35:23.999Z</time></trkpt><trkpt lat="46.1857520086566" lon="13.356642023083598"><ele>809.5</ele><time>2026-04-11T10:35:24.999Z</time></trkpt><trkpt lat="46.18578028274321" lon="13.356795566961631"><ele>809.0</ele><time>2026-04-11T10:35:25.999Z</time></trkpt><trkpt lat="46.185813162752765" lon="13.356958396496974"><ele>808.5</ele><time>2026-04-11T10:35:26.999Z</time></trkpt><trkpt lat="46.18587204728882" lon="13.357119773923534"><ele>808.0</ele><time>2026-04-11T10:35:27.999Z</time></trkpt><trkpt lat="46.185958462773705" lon="13.35725320655697"><ele>808.0</ele><time>2026-04-11T10:35:28.999Z</time></trkpt><trkpt lat="46.18603016132738" lon="13.357347932368203"><ele>808.0</ele><time>2026-04-11T10:35:29.999Z</time></trkpt><trkpt lat="46.186098369775685" lon="13.357480925859324"><ele>808.0</ele><time>2026-04-11T10:35:30.999Z</time></trkpt><trkpt lat="46.186169239881984" lon="13.357623740612123"><ele>808.0</ele><time>2026-04-11T10:35:31.999Z</time></trkpt><trkpt lat="46.186235101001756" lon="13.357735847817956"><ele>808.0</ele><time>2026-04-11T10:35:32.999Z</time></trkpt><trkpt lat="46.18629551457342" lon="13.357846590463915"><ele>808.0</ele><time>2026-04-11T10:35:33.999Z</time></trkpt><trkpt lat="46.18635895258093" lon="13.357977042921153"><ele>808.0</ele><time>2026-04-11T10:35:35Z</time></trkpt><trkpt lat="46.18640699047801" lon="13.358139728182172"><ele>808.0</ele><time>2026-04-11T10:35:36Z</time></trkpt><trkpt lat="46.186450760527265" lon="13.358324743598875"><ele>808.0</ele><time>2026-04-11T10:35:37Z</time></trkpt><trkpt lat="46.18649214897847" lon="13.358536249489662"><ele>812.3333333333333</ele><time>2026-04-11T10:35:38Z</time></trkpt><trkpt lat="46.18652829700663" lon="13.358798644723526"><ele>816.6666666666667</ele><time>2026-04-11T10:35:39Z</time></trkpt><trkpt lat="46.18657266446972" lon="13.359064555791683"><ele>821.0</ele><time>2026-04-11T10:35:40Z</time></trkpt><trkpt lat="46.18661870410398" lon="13.359299744985822"><ele>822.5</ele><time>2026-04-11T10:35:41Z</time></trkpt><trkpt lat="46.18664353045471" lon="13.359498938080582"><ele>824.0</ele><time>2026-04-11T10:35:42Z</time></trkpt><trkpt lat="46.18670126188175" lon="13.35966813090941"><ele>825.5</ele><time>2026-04-11T10:35:43Z</time></trkpt><trkpt lat="46.18672351954534" lon="13.359834625876795"><ele>827.0</ele><time>2026-04-11T10:35:44Z</time></trkpt><trkpt lat="46.18676122460374" lon="13.35997379877557"><ele>828.6</ele><time>2026-04-11T10:35:45Z</time></trkpt><trkpt lat="46.186793735551156" lon="13.360093437953166"><ele>830.2</ele><time>2026-04-11T10:35:46Z</time></trkpt><trkpt lat="46.18683066474059" lon="13.360212161410036"><ele>831.8</ele><time>2026-04-11T10:35:47Z</time></trkpt><trkpt lat="46.18683164085767" lon="13.360351461901844"><ele>833.4</ele><time>2026-04-11T10:35:48Z</time></trkpt><trkpt lat="46.186815798906004" lon="13.360494909609224"><ele>835.0</ele><time>2026-04-11T10:35:49Z</time></trkpt><trkpt lat="46.18679984238731" lon="13.3606266703807"><ele>835.6</ele><time>2026-04-11T10:35:50Z</time></trkpt><trkpt lat="46.18680583685328" lon="13.360742202885879"><ele>836.2</ele><time>2026-04-11T10:35:51Z</time></trkpt><trkpt lat="46.18681805656969" lon="13.360857772238372"><ele>836.8</ele><time>2026-04-11T10:35:52Z</time></trkpt><trkpt lat="46.18690605855558" lon="13.360942133668495"><ele>837.4</ele><time>2026-04-11T10:35:53Z</time></trkpt><trkpt lat="46.1870324495902" lon="13.360986610187153"><ele>838.0</ele><time>2026-04-11T10:35:54Z</time></trkpt><trkpt lat="46.18715606702486" lon="13.361023636808929"><ele>838.0</ele><time>2026-04-11T10:35:55Z</time></trkpt><trkpt lat="46.187277947161114" lon="13.360941550680408"><ele>838.0</ele><time>2026-04-11T10:35:56Z</time></trkpt><trkpt lat="46.18740784278496" lon="13.360911827899018"><ele>838.0</ele><time>2026-04-11T10:35:57Z</time></trkpt><trkpt lat="46.18754890612843" lon="13.360918386107064"><ele>838.0</ele><time>2026-04-11T10:35:58Z</time></trkpt><trkpt lat="46.18765552648584" lon="13.360916704513759"><ele>840.8</ele><time>2026-04-11T10:35:59Z</time></trkpt><trkpt lat="46.187736614589795" lon="13.360955270773166"><ele>843.5999999999999</ele><time>2026-04-11T10:36:00Z</time></trkpt><trkpt lat="46.18783977454956" lon="13.360990837967964"><ele>846.4000000000001</ele><time>2026-04-11T10:36:02Z</time></trkpt><trkpt lat="46.187856096804175" lon="13.361151515373686"><ele>849.2</ele><time>2026-04-11T10:36:04Z</time></trkpt><trkpt lat="46.18778497486985" lon="13.361257070324177"><ele>852.0</ele><time>2026-04-11T10:36:05Z</time></trkpt><trkpt lat="46.18767283784459" lon="13.36134243409073"><ele>854.5</ele><time>2026-04-11T10:36:06Z</time></trkpt><trkpt lat="46.18756991316251" lon="13.361406386516887"><ele>857.0</ele><time>2026-04-11T10:36:07Z</time></trkpt><trkpt lat="46.187500244170224" lon="13.361464686196696"><ele>859.5</ele><time>2026-04-11T10:36:08Z</time></trkpt><trkpt lat="46.187471719085494" lon="13.361554825736805"><ele>862.0</ele><time>2026-04-11T10:36:09Z</time></trkpt><trkpt lat="46.187473570660124" lon="13.361653828321199"><ele>864.5</ele><time>2026-04-11T10:36:10Z</time></trkpt><trkpt lat="46.18751666055286" lon="13.361737749179838"><ele>867.0</ele><time>2026-04-11T10:36:11Z</time></trkpt><trkpt lat="46.18758334278466" lon="13.361843902514867"><ele>867.0</ele><time>2026-04-11T10:36:12Z</time></trkpt><trkpt lat="46.187680719700204" lon="13.361916154915296"><ele>867.0</ele><time>2026-04-11T10:36:13Z</time></trkpt><trkpt lat="46.18777977590144" lon="13.361941275146043"><ele>867.0</ele><time>2026-04-11T10:36:14Z</time></trkpt><trkpt lat="46.18788417671507" lon="13.361889705042017"><ele>867.0</ele><time>2026-04-11T10:36:15Z</time></trkpt><trkpt lat="46.187997343260825" lon="13.36185290963249"><ele>867.0</ele><time>2026-04-11T10:36:16Z</time></trkpt><trkpt lat="46.18810901715231" lon="13.361826566761373"><ele>868.6</ele><time>2026-04-11T10:36:17Z</time></trkpt><trkpt lat="46.18820183634833" lon="13.361791881895403"><ele>870.2</ele><time>2026-04-11T10:36:18Z</time></trkpt><trkpt lat="46.18830144416938" lon="13.36182274116883"><ele>871.8</ele><time>2026-04-11T10:36:19Z</time></trkpt><trkpt lat="46.18839033166557" lon="13.36189235987891"><ele>873.4</ele><time>2026-04-11T10:36:20Z</time></trkpt><trkpt lat="46.188468776810936" lon="13.361948557273815"><ele>875.0</ele><time>2026-04-11T10:36:21Z</time></trkpt><trkpt lat="46.188560934101645" lon="13.361986765313928"><ele>875.0</ele><time>2026-04-11T10:36:22Z</time></trkpt><trkpt lat="46.18867430620795" lon="13.361941243653282"><ele>875.0</ele><time>2026-04-11T10:36:23Z</time></trkpt><trkpt lat="46.18879053610224" lon="13.361889507110225"><ele>875.0</ele><time>2026-04-11T10:36:24Z</time></trkpt><trkpt lat="46.18888698826319" lon="13.36182389704189"><ele>875.0</ele><time>2026-04-11T10:36:25Z</time></trkpt><trkpt lat="46.188973048687785" lon="13.361807192170689"><ele>875.0</ele><time>2026-04-11T10:36:26Z</time></trkpt><trkpt lat="46.189037346888725" lon="13.361758682574527"><ele>875.0000000000001</ele><time>2026-04-11T10:36:27Z</time></trkpt><trkpt lat="46.18910249275382" lon="13.361775690909367"><ele>875.0</ele><time>2026-04-11T10:36:28Z</time></trkpt><trkpt lat="46.1891496303366" lon="13.361908094574007"><ele>875.0</ele><time>2026-04-11T10:36:30Z</time></trkpt><trkpt lat="46.189114064201405" lon="13.361986634209483"><ele>875.0</ele><time>2026-04-11T10:36:31Z</time></trkpt><trkpt lat="46.18900956032258" lon="13.36202113381646"><ele>875.0000000000001</ele><time>2026-04-11T10:36:32Z</time></trkpt><trkpt lat="46.1889232477683" lon="13.362100503991153"><ele>875.0</ele><time>2026-04-11T10:36:33Z</time></trkpt><trkpt lat="46.188830399811025" lon="13.362211734002436"><ele>880.0</ele><time>2026-04-11T10:36:34Z</time></trkpt><trkpt lat="46.1887329135832" lon="13.362332247834196"><ele>885.0</ele><time>2026-04-11T10:36:35Z</time></trkpt><trkpt lat="46.1886446476193" lon="13.362441221586892"><ele>890.0</ele><time>2026-04-11T10:36:36Z</time></trkpt><trkpt lat="46.18856322241129" lon="13.362546901647642"><ele>895.0</ele><time>2026-04-11T10:36:37Z</time></trkpt><trkpt lat="46.18848836388683" lon="13.362645544125646"><ele>894.9999999999999</ele><time>2026-04-11T10:36:38Z</time></trkpt><trkpt lat="46.188422911304414" lon="13.362710673999175"><ele>895.0</ele><time>2026-04-11T10:36:39Z</time></trkpt><trkpt lat="46.1883508977193" lon="13.362745375802417"><ele>895.0</ele><time>2026-04-11T10:36:40Z</time></trkpt><trkpt lat="46.188264402391646" lon="13.362743479329367"><ele>895.0</ele><time>2026-04-11T10:36:41Z</time></trkpt><trkpt lat="46.188169355965044" lon="13.36272707310528"><ele>894.9999999999999</ele><time>2026-04-11T10:36:42Z</time></trkpt><trkpt lat="46.188072513006674" lon="13.362753287977315"><ele>895.0</ele><time>2026-04-11T10:36:43Z</time></trkpt><trkpt lat="46.18797846060087" lon="13.362811535789278"><ele>893.25</ele><time>2026-04-11T10:36:44Z</time></trkpt><trkpt lat="46.18787662096693" lon="13.362903062412752"><ele>891.5</ele><time>2026-04-11T10:36:45Z</time></trkpt><trkpt lat="46.18777169174814" lon="13.362986365490201"><ele>889.75</ele><time>2026-04-11T10:36:46Z</time></trkpt><trkpt lat="46.187679182292754" lon="13.36306158549302"><ele>888.0</ele><time>2026-04-11T10:36:47Z</time></trkpt><trkpt lat="46.18758617716293" lon="13.363155209041999"><ele>892.0</ele><time>2026-04-11T10:36:48Z</time></trkpt><trkpt lat="46.18749975616627" lon="13.36326392945043"><ele>896.0</ele><time>2026-04-11T10:36:48.999Z</time></trkpt><trkpt lat="46.18744039793627" lon="13.363369727698167"><ele>900.0</ele><time>2026-04-11T10:36:49.999Z</time></trkpt><trkpt lat="46.18739885600199" lon="13.363478293434035"><ele>904.0</ele><time>2026-04-11T10:36:50.999Z</time></trkpt><trkpt lat="46.18737524025242" lon="13.36358123107641"><ele>908.0</ele><time>2026-04-11T10:36:51.999Z</time></trkpt><trkpt lat="46.18735862753425" lon="13.363710056618435"><ele>908.0000000000001</ele><time>2026-04-11T10:36:53.999Z</time></trkpt><trkpt lat="46.18737797343313" lon="13.363803568608798"><ele>908.0</ele><time>2026-04-11T10:36:56.999Z</time></trkpt><trkpt lat="46.187481213949795" lon="13.363729783562723"><ele>908.0</ele><time>2026-04-11T10:36:59.999Z</time></trkpt><trkpt lat="46.18754034617135" lon="13.363678093153782"><ele>908.0</ele><time>2026-04-11T10:37:01.999Z</time></trkpt><trkpt lat="46.18759246752328" lon="13.363613726741859"><ele>908.0000000000001</ele><time>2026-04-11T10:37:03.999Z</time></trkpt><trkpt lat="46.18764948976118" lon="13.363543347383423"><ele>908.0</ele><time>2026-04-11T10:37:06.999Z</time></trkpt><trkpt lat="46.187702907319164" lon="13.363477472730441"><ele>908.0000000000001</ele><time>2026-04-11T10:37:10.999Z</time></trkpt><trkpt lat="46.18776055524007" lon="13.36340353872522"><ele>908.0</ele><time>2026-04-11T10:37:13.999Z</time></trkpt><trkpt lat="46.187811854636756" lon="13.363330361160154"><ele>908.0</ele><time>2026-04-11T10:37:15.999Z</time></trkpt><trkpt lat="46.187860557892" lon="13.363247421820242"><ele>908.0</ele><time>2026-04-11T10:37:17.999Z</time></trkpt><trkpt lat="46.18790309550232" lon="13.36315249629962"><ele>908.0000000000001</ele><time>2026-04-11T10:37:19.999Z</time></trkpt><trkpt lat="46.187968993665024" lon="13.36307542501784"><ele>908.0</ele><time>2026-04-11T10:37:21.999Z</time></trkpt><trkpt lat="46.188042886078144" lon="13.363009862024715"><ele>905.4</ele><time>2026-04-11T10:37:23.999Z</time></trkpt><trkpt lat="46.18814573167043" lon="13.362980459074274"><ele>902.8</ele><time>2026-04-11T10:37:25.999Z</time></trkpt><trkpt lat="46.188274113674346" lon="13.362944213097375"><ele>900.2</ele><time>2026-04-11T10:37:27.999Z</time></trkpt><trkpt lat="46.18835470603512" lon="13.362935112364031"><ele>897.6</ele><time>2026-04-11T10:37:28.999Z</time></trkpt><trkpt lat="46.18845385236195" lon="13.36294134290963"><ele>895.0</ele><time>2026-04-11T10:37:29.999Z</time></trkpt><trkpt lat="46.1885688265412" lon="13.362891506505132"><ele>895.0</ele><time>2026-04-11T10:37:30.999Z</time></trkpt><trkpt lat="46.18868739550993" lon="13.362821350406493"><ele>895.0</ele><time>2026-04-11T10:37:31.999Z</time></trkpt><trkpt lat="46.18878928749123" lon="13.362743262943455"><ele>895.0</ele><time>2026-04-11T10:37:32.999Z</time></trkpt><trkpt lat="46.188872964120954" lon="13.3626577039435"><ele>895.0</ele><time>2026-04-11T10:37:33.999Z</time></trkpt><trkpt lat="46.18894946147438" lon="13.362578452083204"><ele>895.0</ele><time>2026-04-11T10:37:34.999Z</time></trkpt><trkpt lat="46.18903031782344" lon="13.362499429023718"><ele>897.4</ele><time>2026-04-11T10:37:35.999Z</time></trkpt><trkpt lat="46.18911180137356" lon="13.362419910995683"><ele>899.8</ele><time>2026-04-11T10:37:36.999Z</time></trkpt><trkpt lat="46.18918976713487" lon="13.36234710408985"><ele>902.2</ele><time>2026-04-11T10:37:37.999Z</time></trkpt><trkpt lat="46.189265286966354" lon="13.362277628567027"><ele>904.6</ele><time>2026-04-11T10:37:38.999Z</time></trkpt><trkpt lat="46.18935591970618" lon="13.362251657175"><ele>907.0</ele><time>2026-04-11T10:37:39.999Z</time></trkpt><trkpt lat="46.18944889651589" lon="13.362243058604848"><ele>907.0</ele><time>2026-04-11T10:37:41Z</time></trkpt><trkpt lat="46.18954207425241" lon="13.362244976005766"><ele>907.0</ele><time>2026-04-11T10:37:42Z</time></trkpt><trkpt lat="46.189632100961504" lon="13.36220544082574"><ele>907.0</ele><time>2026-04-11T10:37:43Z</time></trkpt><trkpt lat="46.18972181124113" lon="13.36214715289032"><ele>907.0</ele><time>2026-04-11T10:37:44Z</time></trkpt><trkpt lat="46.18981733182086" lon="13.362120469247168"><ele>907.0</ele><time>2026-04-11T10:37:45Z</time></trkpt><trkpt lat="46.189921567935784" lon="13.362091642555193"><ele>903.8</ele><time>2026-04-11T10:37:46Z</time></trkpt><trkpt lat="46.19003180064347" lon="13.362037825111162"><ele>900.6</ele><time>2026-04-11T10:37:47Z</time></trkpt><trkpt lat="46.190117650685686" lon="13.361953820622523"><ele>897.3999999999999</ele><time>2026-04-11T10:37:48Z</time></trkpt><trkpt lat="46.19020256537762" lon="13.361901606994861"><ele>894.1999999999999</ele><time>2026-04-11T10:37:49Z</time></trkpt><trkpt lat="46.190274658962366" lon="13.361828734481582"><ele>891.0</ele><time>2026-04-11T10:37:50Z</time></trkpt><trkpt lat="46.19033489180329" lon="13.361763332535533"><ele>891.0</ele><time>2026-04-11T10:37:51Z</time></trkpt><trkpt lat="46.19039751286437" lon="13.361729067884884"><ele>891.0</ele><time>2026-04-11T10:37:52Z</time></trkpt><trkpt lat="46.19046745131972" lon="13.361718833899488"><ele>891.0</ele><time>2026-04-11T10:37:53Z</time></trkpt><trkpt lat="46.19053698380726" lon="13.361795461876223"><ele>891.0</ele><time>2026-04-11T10:37:54Z</time></trkpt><trkpt lat="46.190599720345865" lon="13.361903635198853"><ele>891.0</ele><time>2026-04-11T10:37:55Z</time></trkpt><trkpt lat="46.19065566883208" lon="13.361994175959712"><ele>891.0</ele><time>2026-04-11T10:37:56Z</time></trkpt><trkpt lat="46.19070937225036" lon="13.362068330384455"><ele>891.5</ele><time>2026-04-11T10:37:57Z</time></trkpt><trkpt lat="46.19076257466749" lon="13.362138545537771"><ele>892.0</ele><time>2026-04-11T10:37:58Z</time></trkpt><trkpt lat="46.190840461476334" lon="13.3621752694006"><ele>892.5</ele><time>2026-04-11T10:37:59Z</time></trkpt><trkpt lat="46.19094132008156" lon="13.36213625983319"><ele>893.0</ele><time>2026-04-11T10:38:00Z</time></trkpt><trkpt lat="46.19101499309752" lon="13.362048666309615"><ele>893.5</ele><time>2026-04-11T10:38:01Z</time></trkpt><trkpt lat="46.19106737987655" lon="13.361974254836756"><ele>894.0</ele><time>2026-04-11T10:38:02Z</time></trkpt><trkpt lat="46.19112049250634" lon="13.361921750797466"><ele>894.0</ele><time>2026-04-11T10:38:03Z</time></trkpt><trkpt lat="46.191183987088685" lon="13.36189510532637"><ele>894.0</ele><time>2026-04-11T10:38:04Z</time></trkpt><trkpt lat="46.191293492962295" lon="13.36195927478745"><ele>894.0</ele><time>2026-04-11T10:38:06Z</time></trkpt><trkpt lat="46.19134118686007" lon="13.362030284336821"><ele>894.0</ele><time>2026-04-11T10:38:07Z</time></trkpt><trkpt lat="46.19138103200349" lon="13.362102943357542"><ele>894.0</ele><time>2026-04-11T10:38:08Z</time></trkpt><trkpt lat="46.19146023021527" lon="13.362209318408054"><ele>894.0</ele><time>2026-04-11T10:38:10Z</time></trkpt><trkpt lat="46.1915847104698" lon="13.362196617779407"><ele>894.5</ele><time>2026-04-11T10:38:12Z</time></trkpt><trkpt lat="46.19161465326947" lon="13.362038761009455"><ele>895.0</ele><time>2026-04-11T10:38:13Z</time></trkpt><trkpt lat="46.19162916758398" lon="13.361931708572667"><ele>895.5</ele><time>2026-04-11T10:38:14Z</time></trkpt><trkpt lat="46.19165174699211" lon="13.361821558245452"><ele>896.0</ele><time>2026-04-11T10:38:15Z</time></trkpt><trkpt lat="46.19168207344654" lon="13.3617202316661"><ele>896.5</ele><time>2026-04-11T10:38:16Z</time></trkpt><trkpt lat="46.191715958027764" lon="13.36160920099289"><ele>897.0</ele><time>2026-04-11T10:38:17Z</time></trkpt><trkpt lat="46.19174603339101" lon="13.361495928939387"><ele>897.0</ele><time>2026-04-11T10:38:18Z</time></trkpt><trkpt lat="46.19177525996783" lon="13.361380973360662"><ele>897.0</ele><time>2026-04-11T10:38:19Z</time></trkpt><trkpt lat="46.19180023862677" lon="13.361269330276647"><ele>897.0</ele><time>2026-04-11T10:38:20Z</time></trkpt><trkpt lat="46.191816157265606" lon="13.361161584518248"><ele>897.0</ele><time>2026-04-11T10:38:21Z</time></trkpt><trkpt lat="46.191825647498796" lon="13.361065164267881"><ele>897.0</ele><time>2026-04-11T10:38:22Z</time></trkpt><trkpt lat="46.191829671343974" lon="13.360972082314232"><ele>897.0</ele><time>2026-04-11T10:38:23Z</time></trkpt><trkpt lat="46.191835756162455" lon="13.360838880052233"><ele>894.25</ele><time>2026-04-11T10:38:25Z</time></trkpt><trkpt lat="46.19194592495512" lon="13.360853767839401"><ele>891.5</ele><time>2026-04-11T10:38:28Z</time></trkpt><trkpt lat="46.192004904113695" lon="13.360991861743285"><ele>888.75</ele><time>2026-04-11T10:38:29Z</time></trkpt><trkpt lat="46.192087919976146" lon="13.361145216622447"><ele>886.0</ele><time>2026-04-11T10:38:30Z</time></trkpt><trkpt lat="46.19220020527" lon="13.361311723455254"><ele>886.75</ele><time>2026-04-11T10:38:31Z</time></trkpt><trkpt lat="46.19230765653691" lon="13.36145622680044"><ele>887.5</ele><time>2026-04-11T10:38:32Z</time></trkpt><trkpt lat="46.192406764424774" lon="13.361558986572115"><ele>888.25</ele><time>2026-04-11T10:38:33Z</time></trkpt><trkpt lat="46.192510860477704" lon="13.361650534931723"><ele>889.0</ele><time>2026-04-11T10:38:34Z</time></trkpt><trkpt lat="46.19261580710844" lon="13.361722159377582"><ele>889.0</ele><time>2026-04-11T10:38:35Z</time></trkpt><trkpt lat="46.1927356896707" lon="13.361772117450094"><ele>889.0</ele><time>2026-04-11T10:38:36Z</time></trkpt><trkpt lat="46.19285606278839" lon="13.361809395268743"><ele>889.0</ele><time>2026-04-11T10:38:37Z</time></trkpt><trkpt lat="46.1929733422815" lon="13.361827857714932"><ele>889.0</ele><time>2026-04-11T10:38:38Z</time></trkpt><trkpt lat="46.19309633227847" lon="13.361844582936937"><ele>884.5</ele><time>2026-04-11T10:38:39Z</time></trkpt><trkpt lat="46.1932181730412" lon="13.361862647307184"><ele>880.0</ele><time>2026-04-11T10:38:40Z</time></trkpt><trkpt lat="46.19334204099646" lon="13.361823074147182"><ele>875.5</ele><time>2026-04-11T10:38:41Z</time></trkpt><trkpt lat="46.19346072590694" lon="13.36180862649257"><ele>871.0</ele><time>2026-04-11T10:38:42Z</time></trkpt><trkpt lat="46.19357155246369" lon="13.361822756719697"><ele>871.0</ele><time>2026-04-11T10:38:43Z</time></trkpt><trkpt lat="46.193670886060076" lon="13.361854873794938"><ele>870.9999999999999</ele><time>2026-04-11T10:38:44Z</time></trkpt><trkpt lat="46.1937664292113" lon="13.36191602834643"><ele>870.9999999999999</ele><time>2026-04-11T10:38:45Z</time></trkpt><trkpt lat="46.19385689368689" lon="13.361967474255625"><ele>871.0</ele><time>2026-04-11T10:38:46Z</time></trkpt><trkpt lat="46.19394693448191" lon="13.362003374582182"><ele>871.0</ele><time>2026-04-11T10:38:47Z</time></trkpt><trkpt lat="46.19404482493189" lon="13.362017662406476"><ele>873.8</ele><time>2026-04-11T10:38:48Z</time></trkpt><trkpt lat="46.194144721087234" lon="13.362064355353729"><ele>876.5999999999999</ele><time>2026-04-11T10:38:49Z</time></trkpt><trkpt lat="46.19424939716713" lon="13.362089848555113"><ele>879.4</ele><time>2026-04-11T10:38:50Z</time></trkpt><trkpt lat="46.194357802796134" lon="13.362113127328964"><ele>882.2</ele><time>2026-04-11T10:38:51Z</time></trkpt><trkpt lat="46.19445975903061" lon="13.36216981613008"><ele>885.0</ele><time>2026-04-11T10:38:52Z</time></trkpt><trkpt lat="46.19456045839527" lon="13.362245326448706"><ele>885.0</ele><time>2026-04-11T10:38:53Z</time></trkpt><trkpt lat="46.194664118597686" lon="13.362320681651184"><ele>885.0</ele><time>2026-04-11T10:38:54Z</time></trkpt><trkpt lat="46.194770710950934" lon="13.362376628564695"><ele>885.0</ele><time>2026-04-11T10:38:55Z</time></trkpt><trkpt lat="46.19487314364351" lon="13.362429548888748"><ele>885.0</ele><time>2026-04-11T10:38:55.999Z</time></trkpt><trkpt lat="46.19496865592591" lon="13.362485051365871"><ele>885.0</ele><time>2026-04-11T10:38:56.999Z</time></trkpt><trkpt lat="46.195061068217704" lon="13.362532030458024"><ele>879.8</ele><time>2026-04-11T10:38:57.999Z</time></trkpt><trkpt lat="46.195149875749664" lon="13.362585231524308"><ele>874.6</ele><time>2026-04-11T10:38:58.999Z</time></trkpt><trkpt lat="46.1952365832839" lon="13.362630630142995"><ele>869.4000000000001</ele><time>2026-04-11T10:38:59.999Z</time></trkpt><trkpt lat="46.19531795872101" lon="13.36268588602189"><ele>864.2</ele><time>2026-04-11T10:39:00.999Z</time></trkpt><trkpt lat="46.195416416396846" lon="13.362669783016749"><ele>859.0</ele><time>2026-04-11T10:39:01.999Z</time></trkpt><trkpt lat="46.19550936169312" lon="13.362672892312386"><ele>859.0</ele><time>2026-04-11T10:39:02.999Z</time></trkpt><trkpt lat="46.1956028971195" lon="13.362667529952185"><ele>859.0000000000001</ele><time>2026-04-11T10:39:03.999Z</time></trkpt><trkpt lat="46.19569746295416" lon="13.362687319313414"><ele>859.0000000000001</ele><time>2026-04-11T10:39:04.999Z</time></trkpt><trkpt lat="46.1957856442844" lon="13.362714584742495"><ele>859.0</ele><time>2026-04-11T10:39:05.999Z</time></trkpt><trkpt lat="46.1958707483475" lon="13.362744583408235"><ele>859.0</ele><time>2026-04-11T10:39:06.999Z</time></trkpt><trkpt lat="46.19595327685723" lon="13.362779828796935"><ele>857.4285714285713</ele><time>2026-04-11T10:39:07.999Z</time></trkpt><trkpt lat="46.19603167337464" lon="13.362815228907257"><ele>855.8571428571429</ele><time>2026-04-11T10:39:08.999Z</time></trkpt><trkpt lat="46.19610549104579" lon="13.362841398264962"><ele>854.2857142857142</ele><time>2026-04-11T10:39:09.999Z</time></trkpt><trkpt lat="46.196173101368146" lon="13.362876081783401"><ele>852.7142857142857</ele><time>2026-04-11T10:39:10.999Z</time></trkpt><trkpt lat="46.19623771494076" lon="13.362919097062974"><ele>851.1428571428571</ele><time>2026-04-11T10:39:11.999Z</time></trkpt><trkpt lat="46.19629840141912" lon="13.362962170510126"><ele>849.5714285714286</ele><time>2026-04-11T10:39:12.999Z</time></trkpt><trkpt lat="46.19635189947875" lon="13.363028914929947"><ele>848.0</ele><time>2026-04-11T10:39:13.999Z</time></trkpt><trkpt lat="46.196410970748765" lon="13.363069685272155"><ele>850.6666666666667</ele><time>2026-04-11T10:39:14.999Z</time></trkpt><trkpt lat="46.196474225359296" lon="13.36310847284372"><ele>853.3333333333334</ele><time>2026-04-11T10:39:15.999Z</time></trkpt><trkpt lat="46.19654718358574" lon="13.363132643025176"><ele>856.0</ele><time>2026-04-11T10:39:16.999Z</time></trkpt><trkpt lat="46.196638241810376" lon="13.363130364144265"><ele>858.6666666666667</ele><time>2026-04-11T10:39:17.999Z</time></trkpt><trkpt lat="46.196721820821324" lon="13.36311777319372"><ele>861.3333333333334</ele><time>2026-04-11T10:39:18.999Z</time></trkpt><trkpt lat="46.196804456975045" lon="13.36310540767318"><ele>864.0</ele><time>2026-04-11T10:39:19.999Z</time></trkpt><trkpt lat="46.19688606256436" lon="13.363088202171209"><ele>864.0</ele><time>2026-04-11T10:39:20.999Z</time></trkpt><trkpt lat="46.19696467599836" lon="13.363063065417341"><ele>864.0000000000001</ele><time>2026-04-11T10:39:21.999Z</time></trkpt><trkpt lat="46.19704810124451" lon="13.363027111384987"><ele>864.0000000000001</ele><time>2026-04-11T10:39:22.999Z</time></trkpt><trkpt lat="46.197139172892136" lon="13.362967321140735"><ele>864.0</ele><time>2026-04-11T10:39:23.999Z</time></trkpt><trkpt lat="46.19722200746196" lon="13.362900881903451"><ele>864.0</ele><time>2026-04-11T10:39:24.999Z</time></trkpt><trkpt lat="46.19729929941251" lon="13.362823918612825"><ele>859.1666666666666</ele><time>2026-04-11T10:39:25.999Z</time></trkpt><trkpt lat="46.19736996955005" lon="13.362750085822034"><ele>854.3333333333333</ele><time>2026-04-11T10:39:26.999Z</time></trkpt><trkpt lat="46.197439021033674" lon="13.362677944168455"><ele>849.5</ele><time>2026-04-11T10:39:27.999Z</time></trkpt><trkpt lat="46.19750876206667" lon="13.362602544362556"><ele>844.6666666666666</ele><time>2026-04-11T10:39:28.999Z</time></trkpt><trkpt lat="46.197578932009904" lon="13.362525939596344"><ele>839.8333333333333</ele><time>2026-04-11T10:39:29.999Z</time></trkpt><trkpt lat="46.19764825878046" lon="13.362450221396674"><ele>835.0</ele><time>2026-04-11T10:39:30.999Z</time></trkpt><trkpt lat="46.19771876226419" lon="13.362378141606493"><ele>834.9999999999999</ele><time>2026-04-11T10:39:31.999Z</time></trkpt><trkpt lat="46.19778779645648" lon="13.362308479124346"><ele>835.0</ele><time>2026-04-11T10:39:32.999Z</time></trkpt><trkpt lat="46.1978554061867" lon="13.362251027316054"><ele>835.0</ele><time>2026-04-11T10:39:33.999Z</time></trkpt><trkpt lat="46.19792239193873" lon="13.362207556041552"><ele>835.0</ele><time>2026-04-11T10:39:34.999Z</time></trkpt><trkpt lat="46.19798917655102" lon="13.36219956419529"><ele>834.9999999999999</ele><time>2026-04-11T10:39:35.999Z</time></trkpt><trkpt lat="46.19806747976933" lon="13.36221409933755"><ele>835.0</ele><time>2026-04-11T10:39:36.999Z</time></trkpt><trkpt lat="46.19813818252282" lon="13.362302960046229"><ele>834.6666666666666</ele><time>2026-04-11T10:39:37.999Z</time></trkpt><trkpt lat="46.19820034987824" lon="13.362375489910725"><ele>834.3333333333333</ele><time>2026-04-11T10:39:38.999Z</time></trkpt><trkpt lat="46.198253245057586" lon="13.362426444704347"><ele>834.0</ele><time>2026-04-11T10:39:39.999Z</time></trkpt><trkpt lat="46.19833142238574" lon="13.362439664207153"><ele>833.6666666666667</ele><time>2026-04-11T10:39:40.999Z</time></trkpt><trkpt lat="46.19840840227324" lon="13.362420717809536"><ele>833.3333333333334</ele><time>2026-04-11T10:39:41.999Z</time></trkpt><trkpt lat="46.198485133540565" lon="13.362392761163187"><ele>833.0</ele><time>2026-04-11T10:39:42.999Z</time></trkpt><trkpt lat="46.19855645266541" lon="13.362365177083069"><ele>833.0</ele><time>2026-04-11T10:39:43.999Z</time></trkpt><trkpt lat="46.198623972949605" lon="13.362348594501446"><ele>833.0</ele><time>2026-04-11T10:39:44.999Z</time></trkpt><trkpt lat="46.19868890876494" lon="13.362342613202784"><ele>833.0</ele><time>2026-04-11T10:39:45.999Z</time></trkpt><trkpt lat="46.198751683252986" lon="13.362350630893719"><ele>833.0</ele><time>2026-04-11T10:39:47Z</time></trkpt><trkpt lat="46.19879710422543" lon="13.362428197104359"><ele>833.0</ele><time>2026-04-11T10:39:48Z</time></trkpt><trkpt lat="46.19884342501227" lon="13.36251915576186"><ele>833.0</ele><time>2026-04-11T10:39:49Z</time></trkpt><trkpt lat="46.198902178790426" lon="13.36257055770041"><ele>833.0</ele><time>2026-04-11T10:39:50Z</time></trkpt><trkpt lat="46.198970719156506" lon="13.362600488320592"><ele>831.8333333333334</ele><time>2026-04-11T10:39:51Z</time></trkpt><trkpt lat="46.199052389403796" lon="13.362548390534865"><ele>830.6666666666667</ele><time>2026-04-11T10:39:52Z</time></trkpt><trkpt lat="46.199117788786424" lon="13.362461968979684"><ele>829.5</ele><time>2026-04-11T10:39:53Z</time></trkpt><trkpt lat="46.19916847253372" lon="13.362357022473246"><ele>828.3333333333333</ele><time>2026-04-11T10:39:54Z</time></trkpt><trkpt lat="46.19920903474596" lon="13.362263127379233"><ele>827.1666666666666</ele><time>2026-04-11T10:39:55Z</time></trkpt><trkpt lat="46.19925324958209" lon="13.36216874521477"><ele>826.0</ele><time>2026-04-11T10:39:56Z</time></trkpt><trkpt lat="46.19933277075889" lon="13.362110147619985"><ele>822.0</ele><time>2026-04-11T10:39:57Z</time></trkpt><trkpt lat="46.19941719536077" lon="13.362075421668393"><ele>818.0</ele><time>2026-04-11T10:39:58Z</time></trkpt><trkpt lat="46.1995127495477" lon="13.362042933034973"><ele>814.0</ele><time>2026-04-11T10:39:59Z</time></trkpt><trkpt lat="46.19961411372109" lon="13.362016736296006"><ele>810.0</ele><time>2026-04-11T10:40:00Z</time></trkpt><trkpt lat="46.199707181709506" lon="13.362012559254147"><ele>806.0</ele><time>2026-04-11T10:40:01Z</time></trkpt><trkpt lat="46.19979572061138" lon="13.362031424486673"><ele>806.6666666666667</ele><time>2026-04-11T10:40:02Z</time></trkpt><trkpt lat="46.199872136348304" lon="13.362085816265521"><ele>807.3333333333334</ele><time>2026-04-11T10:40:03Z</time></trkpt><trkpt lat="46.199933306269074" lon="13.362171136603724"><ele>808.0</ele><time>2026-04-11T10:40:04Z</time></trkpt><trkpt lat="46.19999478448793" lon="13.36225222497577"><ele>808.6666666666667</ele><time>2026-04-11T10:40:05Z</time></trkpt><trkpt lat="46.20006497270969" lon="13.362310262937962"><ele>809.3333333333334</ele><time>2026-04-11T10:40:06Z</time></trkpt><trkpt lat="46.200153151630964" lon="13.362287297003359"><ele>810.0</ele><time>2026-04-11T10:40:07Z</time></trkpt><trkpt lat="46.20023920287017" lon="13.362249438738642"><ele>810.0</ele><time>2026-04-11T10:40:08Z</time></trkpt><trkpt lat="46.20032918742377" lon="13.362200316141687"><ele>810.0</ele><time>2026-04-11T10:40:09Z</time></trkpt><trkpt lat="46.200397451095085" lon="13.362099313213946"><ele>810.0</ele><time>2026-04-11T10:40:10Z</time></trkpt><trkpt lat="46.2004642163934" lon="13.361999168442711"><ele>810.0</ele><time>2026-04-11T10:40:11Z</time></trkpt><trkpt lat="46.200523386878224" lon="13.36187704457112"><ele>810.0</ele><time>2026-04-11T10:40:12Z</time></trkpt><trkpt lat="46.200571476578446" lon="13.361732981455564"><ele>810.0</ele><time>2026-04-11T10:40:13Z</time></trkpt><trkpt lat="46.20060208969986" lon="13.361574993822689"><ele>810.0</ele><time>2026-04-11T10:40:14Z</time></trkpt><trkpt lat="46.200628869185266" lon="13.361426635206849"><ele>810.0</ele><time>2026-04-11T10:40:15Z</time></trkpt><trkpt lat="46.20067021012918" lon="13.361298200553843"><ele>810.0</ele><time>2026-04-11T10:40:16Z</time></trkpt><trkpt lat="46.200715736791274" lon="13.361181272854017"><ele>810.0</ele><time>2026-04-11T10:40:17Z</time></trkpt><trkpt lat="46.200776392156406" lon="13.361071734436717"><ele>807.6</ele><time>2026-04-11T10:40:18Z</time></trkpt><trkpt lat="46.200858830711496" lon="13.360961271244157"><ele>805.2</ele><time>2026-04-11T10:40:19Z</time></trkpt><trkpt lat="46.20094945927091" lon="13.36086131991096"><ele>802.8</ele><time>2026-04-11T10:40:20Z</time></trkpt><trkpt lat="46.20102925760684" lon="13.360773201801063"><ele>800.4</ele><time>2026-04-11T10:40:21Z</time></trkpt><trkpt lat="46.2011071289015" lon="13.360690957049236"><ele>798.0</ele><time>2026-04-11T10:40:22Z</time></trkpt><trkpt lat="46.20118721443034" lon="13.360615304833882"><ele>798.0</ele><time>2026-04-11T10:40:23Z</time></trkpt><trkpt lat="46.20127701471783" lon="13.360558050807587"><ele>798.0</ele><time>2026-04-11T10:40:24Z</time></trkpt><trkpt lat="46.20137273428013" lon="13.360515659651448"><ele>798.0</ele><time>2026-04-11T10:40:25Z</time></trkpt><trkpt lat="46.20146983869478" lon="13.360477768658841"><ele>798.0</ele><time>2026-04-11T10:40:26Z</time></trkpt><trkpt lat="46.20156933798852" lon="13.360443674878624"><ele>798.0</ele><time>2026-04-11T10:40:27Z</time></trkpt><trkpt lat="46.20167207041877" lon="13.360421974368007"><ele>794.25</ele><time>2026-04-11T10:40:28Z</time></trkpt><trkpt lat="46.20177453274928" lon="13.360397456565385"><ele>790.5</ele><time>2026-04-11T10:40:29Z</time></trkpt><trkpt lat="46.20187986387233" lon="13.360355643781276"><ele>786.75</ele><time>2026-04-11T10:40:30Z</time></trkpt><trkpt lat="46.201991234740355" lon="13.360295123989216"><ele>783.0</ele><time>2026-04-11T10:40:31Z</time></trkpt><trkpt lat="46.20210855907852" lon="13.360203195484745"><ele>783.0</ele><time>2026-04-11T10:40:32Z</time></trkpt><trkpt lat="46.20221938316773" lon="13.360120519935139"><ele>783.0</ele><time>2026-04-11T10:40:33Z</time></trkpt><trkpt lat="46.20231755359486" lon="13.360048519294804"><ele>783.0</ele><time>2026-04-11T10:40:34Z</time></trkpt><trkpt lat="46.202410847822364" lon="13.359975699736232"><ele>783.0</ele><time>2026-04-11T10:40:35Z</time></trkpt><trkpt lat="46.202501801764285" lon="13.359896445383487"><ele>783.0</ele><time>2026-04-11T10:40:36Z</time></trkpt><trkpt lat="46.2025887706201" lon="13.359792733068506"><ele>778.5</ele><time>2026-04-11T10:40:37Z</time></trkpt><trkpt lat="46.202668969606655" lon="13.359678990408984"><ele>774.0</ele><time>2026-04-11T10:40:38Z</time></trkpt><trkpt lat="46.18848836388683" lon="13.362645544125646"><ele>793.0</ele><time>2026-04-11T10:36:38Z</time></trkpt><trkpt lat="46.188422911304414" lon="13.362710673999175"><ele>812.0</ele><time>2026-04-11T10:36:39Z</time></trkpt><trkpt lat="46.1883508977193" lon="13.362745375802417"><ele>831.0</ele><time>2026-04-11T10:36:40Z</time></trkpt><trkpt lat="46.188264402391646" lon="13.362743479329367"><ele>850.0</ele><time>2026-04-11T10:36:41Z</time></trkpt><trkpt lat="46.188169355965044" lon="13.36272707310528"><ele>869.0</ele><time>2026-04-11T10:36:42Z</time></trkpt><trkpt lat="46.188072513006674" lon="13.362753287977315"><ele>888.0</ele><time>2026-04-11T10:36:43Z</time></trkpt><trkpt lat="46.18797846060087" lon="13.362811535789278"><ele>888.0</ele><time>2026-04-11T10:36:44Z</time></trkpt><trkpt lat="46.18787662096693" lon="13.362903062412752"><ele>888.0</ele><time>2026-04-11T10:36:45Z</time></trkpt><trkpt lat="46.18777169174814" lon="13.362986365490201"><ele>888.0</ele><time>2026-04-11T10:36:46Z</time></trkpt><trkpt lat="46.187679182292754" lon="13.36306158549302"><ele>888.0</ele><time>2026-04-11T10:36:47Z</time></trkpt><trkpt lat="46.18758617716293" lon="13.363155209041999"><ele>892.0</ele><time>2026-04-11T10:36:48Z</time></trkpt><trkpt lat="46.18749975616627" lon="13.36326392945043"><ele>896.0</ele><time>2026-04-11T10:36:48.999Z</time></trkpt><trkpt lat="46.18744039793627" lon="13.363369727698167"><ele>900.0</ele><time>2026-04-11T10:36:49.999Z</time></trkpt><trkpt lat="46.18739885600199" lon="13.363478293434035"><ele>904.0</ele><time>2026-04-11T10:36:50.999Z</time></trkpt><trkpt lat="46.18737524025242" lon="13.36358123107641"><ele>908.0</ele><time>2026-04-11T10:36:51.999Z</time></trkpt><trkpt lat="46.18735862753425" lon="13.363710056618435"><ele>908.0000000000001</ele><time>2026-04-11T10:36:53.999Z</time></trkpt><trkpt lat="46.18737797343313" lon="13.363803568608798"><ele>908.0</ele><time>2026-04-11T10:36:56.999Z</time></trkpt><trkpt lat="46.187481213949795" lon="13.363729783562723"><ele>908.0</ele><time>2026-04-11T10:36:59.999Z</time></trkpt><trkpt lat="46.18754034617135" lon="13.363678093153782"><ele>908.0</ele><time>2026-04-11T10:37:01.999Z</time></trkpt><trkpt lat="46.18759246752328" lon="13.363613726741859"><ele>908.0000000000001</ele><time>2026-04-11T10:37:03.999Z</time></trkpt><trkpt lat="46.18764948976118" lon="13.363543347383423"><ele>908.0</ele><time>2026-04-11T10:37:06.999Z</time></trkpt><trkpt lat="46.187702907319164" lon="13.363477472730441"><ele>908.0000000000001</ele><time>2026-04-11T10:37:10.999Z</time></trkpt><trkpt lat="46.18776055524007" lon="13.36340353872522"><ele>908.0</ele><time>2026-04-11T10:37:13.999Z</time></trkpt><trkpt lat="46.187811854636756" lon="13.363330361160154"><ele>908.0</ele><time>2026-04-11T10:37:15.999Z</time></trkpt><trkpt lat="46.187860557892" lon="13.363247421820242"><ele>908.0</ele><time>2026-04-11T10:37:17.999Z</time></trkpt><trkpt lat="46.18790309550232" lon="13.36315249629962"><ele>908.0000000000001</ele><time>2026-04-11T10:37:19.999Z</time></trkpt><trkpt lat="46.187968993665024" lon="13.36307542501784"><ele>908.0</ele><time>2026-04-11T10:37:21.999Z</time></trkpt><trkpt lat="46.188042886078144" lon="13.363009862024715"><ele>905.4</ele><time>2026-04-11T10:37:23.999Z</time></trkpt><trkpt lat="46.18814573167043" lon="13.362980459074274"><ele>902.8</ele><time>2026-04-11T10:37:25.999Z</time></trkpt><trkpt lat="46.188274113674346" lon="13.362944213097375"><ele>900.2</ele><time>2026-04-11T10:37:27.999Z</time></trkpt><trkpt lat="46.18835470603512" lon="13.362935112364031"><ele>897.6</ele><time>2026-04-11T10:37:28.999Z</time></trkpt><trkpt lat="46.18845385236195" lon="13.36294134290963"><ele>895.0</ele><time>2026-04-11T10:37:29.999Z</time></trkpt><trkpt lat="46.1885688265412" lon="13.362891506505132"><ele>895.0</ele><time>2026-04-11T10:37:30.999Z</time></trkpt><trkpt lat="46.18868739550993" lon="13.362821350406493"><ele>895.0</ele><time>2026-04-11T10:37:31.999Z</time></trkpt><trkpt lat="46.18878928749123" lon="13.362743262943455"><ele>895.0</ele><time>2026-04-11T10:37:32.999Z</time></trkpt><trkpt lat="46.188872964120954" lon="13.3626577039435"><ele>895.0</ele><time>2026-04-11T10:37:33.999Z</time></trkpt><trkpt lat="46.18894946147438" lon="13.362578452083204"><ele>895.0</ele><time>2026-04-11T10:37:34.999Z</time></trkpt><trkpt lat="46.18903031782344" lon="13.362499429023718"><ele>897.4</ele><time>2026-04-11T10:37:35.999Z</time></trkpt><trkpt lat="46.18911180137356" lon="13.362419910995683"><ele>899.8</ele><time>2026-04-11T10:37:36.999Z</time></trkpt><trkpt lat="46.18918976713487" lon="13.36234710408985"><ele>902.2</ele><time>2026-04-11T10:37:37.999Z</time></trkpt><trkpt lat="46.189265286966354" lon="13.362277628567027"><ele>904.6</ele><time>2026-04-11T10:37:38.999Z</time></trkpt><trkpt lat="46.18935591970618" lon="13.362251657175"><ele>907.0</ele><time>2026-04-11T10:37:39.999Z</time></trkpt><trkpt lat="46.18944889651589" lon="13.362243058604848"><ele>907.0</ele><time>2026-04-11T10:37:41Z</time></trkpt><trkpt lat="46.18954207425241" lon="13.362244976005766"><ele>907.0</ele><time>2026-04-11T10:37:42Z</time></trkpt><trkpt lat="46.189632100961504" lon="13.36220544082574"><ele>907.0</ele><time>2026-04-11T10:37:43Z</time></trkpt><trkpt lat="46.18972181124113" lon="13.36214715289032"><ele>907.0</ele><time>2026-04-11T10:37:44Z</time></trkpt><trkpt lat="46.18981733182086" lon="13.362120469247168"><ele>907.0</ele><time>2026-04-11T10:37:45Z</time></trkpt><trkpt lat="46.189921567935784" lon="13.362091642555193"><ele>903.8</ele><time>2026-04-11T10:37:46Z</time></trkpt><trkpt lat="46.19003180064347" lon="13.362037825111162"><ele>900.6</ele><time>2026-04-11T10:37:47Z</time></trkpt><trkpt lat="46.190117650685686" lon="13.361953820622523"><ele>897.3999999999999</ele><time>2026-04-11T10:37:48Z</time></trkpt><trkpt lat="46.19020256537762" lon="13.361901606994861"><ele>894.1999999999999</ele><time>2026-04-11T10:37:49Z</time></trkpt><trkpt lat="46.190274658962366" lon="13.361828734481582"><ele>891.0</ele><time>2026-04-11T10:37:50Z</time></trkpt><trkpt lat="46.19033489180329" lon="13.361763332535533"><ele>891.0</ele><time>2026-04-11T10:37:51Z</time></trkpt><trkpt lat="46.19039751286437" lon="13.361729067884884"><ele>891.0</ele><time>2026-04-11T10:37:52Z</time></trkpt><trkpt lat="46.19046745131972" lon="13.361718833899488"><ele>891.0</ele><time>2026-04-11T10:37:53Z</time></trkpt><trkpt lat="46.19053698380726" lon="13.361795461876223"><ele>891.0</ele><time>2026-04-11T10:37:54Z</time></trkpt><trkpt lat="46.190599720345865" lon="13.361903635198853"><ele>891.0</ele><time>2026-04-11T10:37:55Z</time></trkpt><trkpt lat="46.19065566883208" lon="13.361994175959712"><ele>891.0</ele><time>2026-04-11T10:37:56Z</time></trkpt><trkpt lat="46.19070937225036" lon="13.362068330384455"><ele>891.5</ele><time>2026-04-11T10:37:57Z</time></trkpt><trkpt lat="46.19076257466749" lon="13.362138545537771"><ele>892.0</ele><time>2026-04-11T10:37:58Z</time></trkpt><trkpt lat="46.190840461476334" lon="13.3621752694006"><ele>892.5</ele><time>2026-04-11T10:37:59Z</time></trkpt><trkpt lat="46.19094132008156" lon="13.36213625983319"><ele>893.0</ele><time>2026-04-11T10:38:00Z</time></trkpt><trkpt lat="46.19101499309752" lon="13.362048666309615"><ele>893.5</ele><time>2026-04-11T10:38:01Z</time></trkpt><trkpt lat="46.19106737987655" lon="13.361974254836756"><ele>894.0</ele><time>2026-04-11T10:38:02Z</time></trkpt><trkpt lat="46.19112049250634" lon="13.361921750797466"><ele>894.0</ele><time>2026-04-11T10:38:03Z</time></trkpt><trkpt lat="46.191183987088685" lon="13.36189510532637"><ele>894.0</ele><time>2026-04-11T10:38:04Z</time></trkpt><trkpt lat="46.191293492962295" lon="13.36195927478745"><ele>894.0</ele><time>2026-04-11T10:38:06Z</time></trkpt><trkpt lat="46.19134118686007" lon="13.362030284336821"><ele>894.0</ele><time>2026-04-11T10:38:07Z</time></trkpt><trkpt lat="46.19138103200349" lon="13.362102943357542"><ele>894.0</ele><time>2026-04-11T10:38:08Z</time></trkpt><trkpt lat="46.19146023021527" lon="13.362209318408054"><ele>894.0</ele><time>2026-04-11T10:38:10Z</time></trkpt><trkpt lat="46.1915847104698" lon="13.362196617779407"><ele>894.5</ele><time>2026-04-11T10:38:12Z</time></trkpt><trkpt lat="46.19161465326947" lon="13.362038761009455"><ele>895.0</ele><time>2026-04-11T10:38:13Z</time></trkpt><trkpt lat="46.19162916758398" lon="13.361931708572667"><ele>895.5</ele><time>2026-04-11T10:38:14Z</time></trkpt><trkpt lat="46.19165174699211" lon="13.361821558245452"><ele>896.0</ele><time>2026-04-11T10:38:15Z</time></trkpt><trkpt lat="46.19168207344654" lon="13.3617202316661"><ele>896.5</ele><time>2026-04-11T10:38:16Z</time></trkpt><trkpt lat="46.191715958027764" lon="13.36160920099289"><ele>897.0</ele><time>2026-04-11T10:38:17Z</time></trkpt><trkpt lat="46.19174603339101" lon="13.361495928939387"><ele>897.0</ele><time>2026-04-11T10:38:18Z</time></trkpt><trkpt lat="46.19177525996783" lon="13.361380973360662"><ele>897.0</ele><time>2026-04-11T10:38:19Z</time></trkpt><trkpt lat="46.19180023862677" lon="13.361269330276647"><ele>897.0</ele><time>2026-04-11T10:38:20Z</time></trkpt><trkpt lat="46.191816157265606" lon="13.361161584518248"><ele>897.0</ele><time>2026-04-11T10:38:21Z</time></trkpt><trkpt lat="46.191825647498796" lon="13.361065164267881"><ele>897.0</ele><time>2026-04-11T10:38:22Z</time></trkpt><trkpt lat="46.191829671343974" lon="13.360972082314232"><ele>897.0</ele><time>2026-04-11T10:38:23Z</time></trkpt><trkpt lat="46.191835756162455" lon="13.360838880052233"><ele>894.25</ele><time>2026-04-11T10:38:25Z</time></trkpt><trkpt lat="46.19194592495512" lon="13.360853767839401"><ele>891.5</ele><time>2026-04-11T10:38:28Z</time></trkpt><trkpt lat="46.192004904113695" lon="13.360991861743285"><ele>888.75</ele><time>2026-04-11T10:38:29Z</time></trkpt><trkpt lat="46.192087919976146" lon="13.361145216622447"><ele>886.0</ele><time>2026-04-11T10:38:30Z</time></trkpt><trkpt lat="46.19220020527" lon="13.361311723455254"><ele>886.75</ele><time>2026-04-11T10:38:31Z</time></trkpt><trkpt lat="46.19230765653691" lon="13.36145622680044"><ele>887.5</ele><time>2026-04-11T10:38:32Z</time></trkpt><trkpt lat="46.192406764424774" lon="13.361558986572115"><ele>888.25</ele><time>2026-04-11T10:38:33Z</time></trkpt><trkpt lat="46.192510860477704" lon="13.361650534931723"><ele>889.0</ele><time>2026-04-11T10:38:34Z</time></trkpt><trkpt lat="46.19261580710844" lon="13.361722159377582"><ele>889.0</ele><time>2026-04-11T10:38:35Z</time></trkpt><trkpt lat="46.1927356896707" lon="13.361772117450094"><ele>889.0</ele><time>2026-04-11T10:38:36Z</time></trkpt><trkpt lat="46.19285606278839" lon="13.361809395268743"><ele>889.0</ele><time>2026-04-11T10:38:37Z</time></trkpt><trkpt lat="46.1929733422815" lon="13.361827857714932"><ele>889.0</ele><time>2026-04-11T10:38:38Z</time></trkpt><trkpt lat="46.19309633227847" lon="13.361844582936937"><ele>884.5</ele><time>2026-04-11T10:38:39Z</time></trkpt><trkpt lat="46.1932181730412" lon="13.361862647307184"><ele>880.0</ele><time>2026-04-11T10:38:40Z</time></trkpt><trkpt lat="46.19334204099646" lon="13.361823074147182"><ele>875.5</ele><time>2026-04-11T10:38:41Z</time></trkpt><trkpt lat="46.19346072590694" lon="13.36180862649257"><ele>871.0</ele><time>2026-04-11T10:38:42Z</time></trkpt><trkpt lat="46.19357155246369" lon="13.361822756719697"><ele>871.0</ele><time>2026-04-11T10:38:43Z</time></trkpt><trkpt lat="46.193670886060076" lon="13.361854873794938"><ele>870.9999999999999</ele><time>2026-04-11T10:38:44Z</time></trkpt><trkpt lat="46.1937664292113" lon="13.36191602834643"><ele>870.9999999999999</ele><time>2026-04-11T10:38:45Z</time></trkpt><trkpt lat="46.19385689368689" lon="13.361967474255625"><ele>871.0</ele><time>2026-04-11T10:38:46Z</time></trkpt><trkpt lat="46.19394693448191" lon="13.362003374582182"><ele>871.0</ele><time>2026-04-11T10:38:47Z</time></trkpt><trkpt lat="46.19404482493189" lon="13.362017662406476"><ele>873.8</ele><time>2026-04-11T10:38:48Z</time></trkpt><trkpt lat="46.194144721087234" lon="13.362064355353729"><ele>876.5999999999999</ele><time>2026-04-11T10:38:49Z</time></trkpt><trkpt lat="46.19424939716713" lon="13.362089848555113"><ele>879.4</ele><time>2026-04-11T10:38:50Z</time></trkpt><trkpt lat="46.194357802796134" lon="13.362113127328964"><ele>882.2</ele><time>2026-04-11T10:38:51Z</time></trkpt><trkpt lat="46.19445975903061" lon="13.36216981613008"><ele>885.0</ele><time>2026-04-11T10:38:52Z</time></trkpt><trkpt lat="46.19456045839527" lon="13.362245326448706"><ele>885.0</ele><time>2026-04-11T10:38:53Z</time></trkpt><trkpt lat="46.194664118597686" lon="13.362320681651184"><ele>885.0</ele><time>2026-04-11T10:38:54Z</time></trkpt><trkpt lat="46.194770710950934" lon="13.362376628564695"><ele>885.0</ele><time>2026-04-11T10:38:55Z</time></trkpt><trkpt lat="46.19487314364351" lon="13.362429548888748"><ele>885.0</ele><time>2026-04-11T10:38:55.999Z</time></trkpt><trkpt lat="46.19496865592591" lon="13.362485051365871"><ele>885.0</ele><time>2026-04-11T10:38:56.999Z</time></trkpt><trkpt lat="46.195061068217704" lon="13.362532030458024"><ele>879.8</ele><time>2026-04-11T10:38:57.999Z</time></trkpt><trkpt lat="46.195149875749664" lon="13.362585231524308"><ele>874.6</ele><time>2026-04-11T10:38:58.999Z</time></trkpt><trkpt lat="46.1952365832839" lon="13.362630630142995"><ele>869.4000000000001</ele><time>2026-04-11T10:38:59.999Z</time></trkpt><trkpt lat="46.19531795872101" lon="13.36268588602189"><ele>864.2</ele><time>2026-04-11T10:39:00.999Z</time></trkpt><trkpt lat="46.195416416396846" lon="13.362669783016749"><ele>859.0</ele><time>2026-04-11T10:39:01.999Z</time></trkpt><trkpt lat="46.19550936169312" lon="13.362672892312386"><ele>859.0</ele><time>2026-04-11T10:39:02.999Z</time></trkpt><trkpt lat="46.1956028971195" lon="13.362667529952185"><ele>859.0000000000001</ele><time>2026-04-11T10:39:03.999Z</time></trkpt><trkpt lat="46.19569746295416" lon="13.362687319313414"><ele>859.0000000000001</ele><time>2026-04-11T10:39:04.999Z</time></trkpt><trkpt lat="46.1957856442844" lon="13.362714584742495"><ele>859.0</ele><time>2026-04-11T10:39:05.999Z</time></trkpt><trkpt lat="46.1958707483475" lon="13.362744583408235"><ele>859.0</ele><time>2026-04-11T10:39:06.999Z</time></trkpt><trkpt lat="46.19595327685723" lon="13.362779828796935"><ele>857.4285714285713</ele><time>2026-04-11T10:39:07.999Z</time></trkpt><trkpt lat="46.19603167337464" lon="13.362815228907257"><ele>855.8571428571429</ele><time>2026-04-11T10:39:08.999Z</time></trkpt><trkpt lat="46.19610549104579" lon="13.362841398264962"><ele>854.2857142857142</ele><time>2026-04-11T10:39:09.999Z</time></trkpt><trkpt lat="46.196173101368146" lon="13.362876081783401"><ele>852.7142857142857</ele><time>2026-04-11T10:39:10.999Z</time></trkpt><trkpt lat="46.19623771494076" lon="13.362919097062974"><ele>851.1428571428571</ele><time>2026-04-11T10:39:11.999Z</time></trkpt><trkpt lat="46.19629840141912" lon="13.362962170510126"><ele>849.5714285714286</ele><time>2026-04-11T10:39:12.999Z</time></trkpt><trkpt lat="46.19635189947875" lon="13.363028914929947"><ele>848.0</ele><time>2026-04-11T10:39:13.999Z</time></trkpt><trkpt lat="46.196410970748765" lon="13.363069685272155"><ele>850.6666666666667</ele><time>2026-04-11T10:39:14.999Z</time></trkpt><trkpt lat="46.196474225359296" lon="13.36310847284372"><ele>853.3333333333334</ele><time>2026-04-11T10:39:15.999Z</time></trkpt><trkpt lat="46.19654718358574" lon="13.363132643025176"><ele>856.0</ele><time>2026-04-11T10:39:16.999Z</time></trkpt><trkpt lat="46.196638241810376" lon="13.363130364144265"><ele>858.6666666666667</ele><time>2026-04-11T10:39:17.999Z</time></trkpt><trkpt lat="46.196721820821324" lon="13.36311777319372"><ele>861.3333333333334</ele><time>2026-04-11T10:39:18.999Z</time></trkpt><trkpt lat="46.196804456975045" lon="13.36310540767318"><ele>864.0</ele><time>2026-04-11T10:39:19.999Z</time></trkpt><trkpt lat="46.19688606256436" lon="13.363088202171209"><ele>864.0</ele><time>2026-04-11T10:39:20.999Z</time></trkpt><trkpt lat="46.19696467599836" lon="13.363063065417341"><ele>864.0000000000001</ele><time>2026-04-11T10:39:21.999Z</time></trkpt><trkpt lat="46.19704810124451" lon="13.363027111384987"><ele>864.0000000000001</ele><time>2026-04-11T10:39:22.999Z</time></trkpt><trkpt lat="46.197139172892136" lon="13.362967321140735"><ele>864.0</ele><time>2026-04-11T10:39:23.999Z</time></trkpt><trkpt lat="46.19722200746196" lon="13.362900881903451"><ele>864.0</ele><time>2026-04-11T10:39:24.999Z</time></trkpt><trkpt lat="46.19729929941251" lon="13.362823918612825"><ele>859.1666666666666</ele><time>2026-04-11T10:39:25.999Z</time></trkpt><trkpt lat="46.19736996955005" lon="13.362750085822034"><ele>854.3333333333333</ele><time>2026-04-11T10:39:26.999Z</time></trkpt><trkpt lat="46.197439021033674" lon="13.362677944168455"><ele>849.5</ele><time>2026-04-11T10:39:27.999Z</time></trkpt><trkpt lat="46.19750876206667" lon="13.362602544362556"><ele>844.6666666666666</ele><time>2026-04-11T10:39:28.999Z</time></trkpt><trkpt lat="46.197578932009904" lon="13.362525939596344"><ele>839.8333333333333</ele><time>2026-04-11T10:39:29.999Z</time></trkpt><trkpt lat="46.19764825878046" lon="13.362450221396674"><ele>835.0</ele><time>2026-04-11T10:39:30.999Z</time></trkpt><trkpt lat="46.19771876226419" lon="13.362378141606493"><ele>834.9999999999999</ele><time>2026-04-11T10:39:31.999Z</time></trkpt><trkpt lat="46.19778779645648" lon="13.362308479124346"><ele>835.0</ele><time>2026-04-11T10:39:32.999Z</time></trkpt><trkpt lat="46.1978554061867" lon="13.362251027316054"><ele>835.0</ele><time>2026-04-11T10:39:33.999Z</time></trkpt><trkpt lat="46.19792239193873" lon="13.362207556041552"><ele>835.0</ele><time>2026-04-11T10:39:34.999Z</time></trkpt><trkpt lat="46.19798917655102" lon="13.36219956419529"><ele>834.9999999999999</ele><time>2026-04-11T10:39:35.999Z</time></trkpt><trkpt lat="46.19806747976933" lon="13.36221409933755"><ele>835.0</ele><time>2026-04-11T10:39:36.999Z</time></trkpt><trkpt lat="46.19813818252282" lon="13.362302960046229"><ele>834.6666666666666</ele><time>2026-04-11T10:39:37.999Z</time></trkpt><trkpt lat="46.19820034987824" lon="13.362375489910725"><ele>834.3333333333333</ele><time>2026-04-11T10:39:38.999Z</time></trkpt><trkpt lat="46.198253245057586" lon="13.362426444704347"><ele>834.0</ele><time>2026-04-11T10:39:39.999Z</time></trkpt><trkpt lat="46.19833142238574" lon="13.362439664207153"><ele>833.6666666666667</ele><time>2026-04-11T10:39:40.999Z</time></trkpt><trkpt lat="46.19840840227324" lon="13.362420717809536"><ele>833.3333333333334</ele><time>2026-04-11T10:39:41.999Z</time></trkpt><trkpt lat="46.198485133540565" lon="13.362392761163187"><ele>833.0</ele><time>2026-04-11T10:39:42.999Z</time></trkpt><trkpt lat="46.19855645266541" lon="13.362365177083069"><ele>833.0</ele><time>2026-04-11T10:39:43.999Z</time></trkpt><trkpt lat="46.198623972949605" lon="13.362348594501446"><ele>833.0</ele><time>2026-04-11T10:39:44.999Z</time></trkpt><trkpt lat="46.19868890876494" lon="13.362342613202784"><ele>833.0</ele><time>2026-04-11T10:39:45.999Z</time></trkpt><trkpt lat="46.198751683252986" lon="13.362350630893719"><ele>833.0</ele><time>2026-04-11T10:39:47Z</time></trkpt><trkpt lat="46.19879710422543" lon="13.362428197104359"><ele>833.0</ele><time>2026-04-11T10:39:48Z</time></trkpt><trkpt lat="46.19884342501227" lon="13.36251915576186"><ele>833.0</ele><time>2026-04-11T10:39:49Z</time></trkpt><trkpt lat="46.198902178790426" lon="13.36257055770041"><ele>833.0</ele><time>2026-04-11T10:39:50Z</time></trkpt><trkpt lat="46.198970719156506" lon="13.362600488320592"><ele>831.8333333333334</ele><time>2026-04-11T10:39:51Z</time></trkpt><trkpt lat="46.199052389403796" lon="13.362548390534865"><ele>830.6666666666667</ele><time>2026-04-11T10:39:52Z</time></trkpt><trkpt lat="46.199117788786424" lon="13.362461968979684"><ele>829.5</ele><time>2026-04-11T10:39:53Z</time></trkpt><trkpt lat="46.19916847253372" lon="13.362357022473246"><ele>828.3333333333333</ele><time>2026-04-11T10:39:54Z</time></trkpt><trkpt lat="46.19920903474596" lon="13.362263127379233"><ele>827.1666666666666</ele><time>2026-04-11T10:39:55Z</time></trkpt><trkpt lat="46.19925324958209" lon="13.36216874521477"><ele>826.0</ele><time>2026-04-11T10:39:56Z</time></trkpt><trkpt lat="46.19933277075889" lon="13.362110147619985"><ele>822.0</ele><time>2026-04-11T10:39:57Z</time></trkpt><trkpt lat="46.19941719536077" lon="13.362075421668393"><ele>818.0</ele><time>2026-04-11T10:39:58Z</time></trkpt><trkpt lat="46.1995127495477" lon="13.362042933034973"><ele>814.0</ele><time>2026-04-11T10:39:59Z</time></trkpt><trkpt lat="46.19961411372109" lon="13.362016736296006"><ele>810.0</ele><time>2026-04-11T10:40:00Z</time></trkpt><trkpt lat="46.199707181709506" lon="13.362012559254147"><ele>806.0</ele><time>2026-04-11T10:40:01Z</time></trkpt><trkpt lat="46.19979572061138" lon="13.362031424486673"><ele>806.6666666666667</ele><time>2026-04-11T10:40:02Z</time></trkpt><trkpt lat="46.199872136348304" lon="13.362085816265521"><ele>807.3333333333334</ele><time>2026-04-11T10:40:03Z</time></trkpt><trkpt lat="46.199933306269074" lon="13.362171136603724"><ele>808.0</ele><time>2026-04-11T10:40:04Z</time></trkpt><trkpt lat="46.19999478448793" lon="13.36225222497577"><ele>808.6666666666667</ele><time>2026-04-11T10:40:05Z</time></trkpt><trkpt lat="46.20006497270969" lon="13.362310262937962"><ele>809.3333333333334</ele><time>2026-04-11T10:40:06Z</time></trkpt><trkpt lat="46.200153151630964" lon="13.362287297003359"><ele>810.0</ele><time>2026-04-11T10:40:07Z</time></trkpt><trkpt lat="46.20023920287017" lon="13.362249438738642"><ele>810.0</ele><time>2026-04-11T10:40:08Z</time></trkpt><trkpt lat="46.20032918742377" lon="13.362200316141687"><ele>810.0</ele><time>2026-04-11T10:40:09Z</time></trkpt><trkpt lat="46.200397451095085" lon="13.362099313213946"><ele>810.0</ele><time>2026-04-11T10:40:10Z</time></trkpt><trkpt lat="46.2004642163934" lon="13.361999168442711"><ele>810.0</ele><time>2026-04-11T10:40:11Z</time></trkpt><trkpt lat="46.200523386878224" lon="13.36187704457112"><ele>810.0</ele><time>2026-04-11T10:40:12Z</time></trkpt><trkpt lat="46.200571476578446" lon="13.361732981455564"><ele>810.0</ele><time>2026-04-11T10:40:13Z</time></trkpt><trkpt lat="46.20060208969986" lon="13.361574993822689"><ele>810.0</ele><time>2026-04-11T10:40:14Z</time></trkpt><trkpt lat="46.200628869185266" lon="13.361426635206849"><ele>810.0</ele><time>2026-04-11T10:40:15Z</time></trkpt><trkpt lat="46.20067021012918" lon="13.361298200553843"><ele>810.0</ele><time>2026-04-11T10:40:16Z</time></trkpt><trkpt lat="46.200715736791274" lon="13.361181272854017"><ele>810.0</ele><time>2026-04-11T10:40:17Z</time></trkpt><trkpt lat="46.200776392156406" lon="13.361071734436717"><ele>807.6</ele><time>2026-04-11T10:40:18Z</time></trkpt><trkpt lat="46.200858830711496" lon="13.360961271244157"><ele>805.2</ele><time>2026-04-11T10:40:19Z</time></trkpt><trkpt lat="46.20094945927091" lon="13.36086131991096"><ele>802.8</ele><time>2026-04-11T10:40:20Z</time></trkpt><trkpt lat="46.20102925760684" lon="13.360773201801063"><ele>800.4</ele><time>2026-04-11T10:40:21Z</time></trkpt><trkpt lat="46.2011071289015" lon="13.360690957049236"><ele>798.0</ele><time>2026-04-11T10:40:22Z</time></trkpt><trkpt lat="46.20118721443034" lon="13.360615304833882"><ele>798.0</ele><time>2026-04-11T10:40:23Z</time></trkpt><trkpt lat="46.20127701471783" lon="13.360558050807587"><ele>798.0</ele><time>2026-04-11T10:40:24Z</time></trkpt><trkpt lat="46.20137273428013" lon="13.360515659651448"><ele>798.0</ele><time>2026-04-11T10:40:25Z</time></trkpt><trkpt lat="46.20146983869478" lon="13.360477768658841"><ele>798.0</ele><time>2026-04-11T10:40:26Z</time></trkpt><trkpt lat="46.20156933798852" lon="13.360443674878624"><ele>798.0</ele><time>2026-04-11T10:40:27Z</time></trkpt><trkpt lat="46.20167207041877" lon="13.360421974368007"><ele>794.25</ele><time>2026-04-11T10:40:28Z</time></trkpt><trkpt lat="46.20177453274928" lon="13.360397456565385"><ele>790.5</ele><time>2026-04-11T10:40:29Z</time></trkpt><trkpt lat="46.20187986387233" lon="13.360355643781276"><ele>786.75</ele><time>2026-04-11T10:40:30Z</time></trkpt><trkpt lat="46.201991234740355" lon="13.360295123989216"><ele>783.0</ele><time>2026-04-11T10:40:31Z</time></trkpt><trkpt lat="46.20210855907852" lon="13.360203195484745"><ele>783.0</ele><time>2026-04-11T10:40:32Z</time></trkpt><trkpt lat="46.20221938316773" lon="13.360120519935139"><ele>783.0</ele><time>2026-04-11T10:40:33Z</time></trkpt><trkpt lat="46.20231755359486" lon="13.360048519294804"><ele>783.0</ele><time>2026-04-11T10:40:34Z</time></trkpt><trkpt lat="46.202410847822364" lon="13.359975699736232"><ele>783.0</ele><time>2026-04-11T10:40:35Z</time></trkpt><trkpt lat="46.202501801764285" lon="13.359896445383487"><ele>783.0</ele><time>2026-04-11T10:40:36Z</time></trkpt><trkpt lat="46.2025887706201" lon="13.359792733068506"><ele>781.2</ele><time>2026-04-11T10:40:37Z</time></trkpt><trkpt lat="46.202668969606655" lon="13.359678990408984"><ele>779.4</ele><time>2026-04-11T10:40:38Z</time></trkpt><trkpt lat="46.202749144383546" lon="13.359581372633569"><ele>777.6</ele><time>2026-04-11T10:40:39Z</time></trkpt><trkpt lat="46.202826757295846" lon="13.359499551014279"><ele>775.8000000000001</ele><time>2026-04-11T10:40:40Z</time></trkpt><trkpt lat="46.202896285761646" lon="13.359430470475639"><ele>774.0</ele><time>2026-04-11T10:40:41Z</time></trkpt><trkpt lat="46.20296340600019" lon="13.359408042707722"><ele>774.0</ele><time>2026-04-11T10:40:42Z</time></trkpt><trkpt lat="46.20303504363244" lon="13.35935048677523"><ele>774.0</ele><time>2026-04-11T10:40:44Z</time></trkpt><trkpt lat="46.203094993335185" lon="13.35928255977892"><ele>774.0</ele><time>2026-04-11T10:40:47Z</time></trkpt><trkpt lat="46.20310763393518" lon="13.35910743618948"><ele>774.0</ele><time>2026-04-11T10:40:49Z</time></trkpt><trkpt lat="46.20310579253502" lon="13.359012010202417"><ele>774.0</ele><time>2026-04-11T10:40:50Z</time></trkpt><trkpt lat="46.203131144846544" lon="13.358906873197146"><ele>774.0</ele><time>2026-04-11T10:40:51Z</time></trkpt><trkpt lat="46.20315521790684" lon="13.358804778579014"><ele>774.8000000000001</ele><time>2026-04-11T10:40:52Z</time></trkpt><trkpt lat="46.2031860146344" lon="13.358696724527283"><ele>775.6</ele><time>2026-04-11T10:40:53Z</time></trkpt><trkpt lat="46.203231190579665" lon="13.35858824197911"><ele>776.4</ele><time>2026-04-11T10:40:54Z</time></trkpt><trkpt lat="46.203293135822875" lon="13.35847661633075"><ele>777.2</ele><time>2026-04-11T10:40:55Z</time></trkpt><trkpt lat="46.20335534545974" lon="13.35836500991915"><ele>778.0</ele><time>2026-04-11T10:40:56Z</time></trkpt><trkpt lat="46.20342197137466" lon="13.358260978094902"><ele>777.9999999999999</ele><time>2026-04-11T10:40:56.999Z</time></trkpt><trkpt lat="46.20349303717836" lon="13.358185706665145"><ele>778.0</ele><time>2026-04-11T10:40:57.999Z</time></trkpt><trkpt lat="46.20356244986595" lon="13.35811533905121"><ele>778.0</ele><time>2026-04-11T10:40:58.999Z</time></trkpt><trkpt lat="46.20361691861111" lon="13.358027870573009"><ele>778.0</ele><time>2026-04-11T10:40:59.999Z</time></trkpt><trkpt lat="46.20368556012338" lon="13.357979802851704"><ele>777.9999999999999</ele><time>2026-04-11T10:41:00.999Z</time></trkpt><trkpt lat="46.20373869323055" lon="13.357888266078495"><ele>778.0</ele><time>2026-04-11T10:41:01.999Z</time></trkpt><trkpt lat="46.20373256361029" lon="13.357716248686565"><ele>776.4999999999999</ele><time>2026-04-11T10:41:02.999Z</time></trkpt><trkpt lat="46.20370668538593" lon="13.357580668843186"><ele>775.0</ele><time>2026-04-11T10:41:03.999Z</time></trkpt><trkpt lat="46.20369219916467" lon="13.357472788204891"><ele>773.5</ele><time>2026-04-11T10:41:04.999Z</time></trkpt><trkpt lat="46.20369670754995" lon="13.357377075579064"><ele>772.0</ele><time>2026-04-11T10:41:05.999Z</time></trkpt><trkpt lat="46.203771662227055" lon="13.357231945504747"><ele>770.4999999999999</ele><time>2026-04-11T10:41:07.999Z</time></trkpt><trkpt lat="46.203836001725044" lon="13.35716489423211"><ele>769.0</ele><time>2026-04-11T10:41:08.999Z</time></trkpt><trkpt lat="46.20391891666588" lon="13.357102112412143"><ele>769.4000000000001</ele><time>2026-04-11T10:41:09.999Z</time></trkpt><trkpt lat="46.20401278367495" lon="13.35705455544326"><ele>769.8</ele><time>2026-04-11T10:41:10.999Z</time></trkpt><trkpt lat="46.20409718070916" lon="13.356991975739552"><ele>770.2</ele><time>2026-04-11T10:41:11.999Z</time></trkpt><trkpt lat="46.20418107291064" lon="13.356929825858979"><ele>770.5999999999999</ele><time>2026-04-11T10:41:12.999Z</time></trkpt><trkpt lat="46.20426669898362" lon="13.356863676780815"><ele>771.0</ele><time>2026-04-11T10:41:13.999Z</time></trkpt><trkpt lat="46.204350729068636" lon="13.356796181532253"><ele>771.0</ele><time>2026-04-11T10:41:14.999Z</time></trkpt><trkpt lat="46.20443731678056" lon="13.356726967776119"><ele>771.0</ele><time>2026-04-11T10:41:15.999Z</time></trkpt><trkpt lat="46.204527469092085" lon="13.356658606498081"><ele>771.0</ele><time>2026-04-11T10:41:16.999Z</time></trkpt><trkpt lat="46.20462152003283" lon="13.356589420314538"><ele>771.0</ele><time>2026-04-11T10:41:17.999Z</time></trkpt><trkpt lat="46.204708125553886" lon="13.356500362063603"><ele>771.0</ele><time>2026-04-11T10:41:18.999Z</time></trkpt><trkpt lat="46.20479451974511" lon="13.356440692826121"><ele>771.1999999999999</ele><time>2026-04-11T10:41:19.999Z</time></trkpt><trkpt lat="46.20488124129831" lon="13.35640821194826"><ele>771.4</ele><time>2026-04-11T10:41:20.999Z</time></trkpt><trkpt lat="46.204955554117305" lon="13.356348340239466"><ele>771.6</ele><time>2026-04-11T10:41:21.999Z</time></trkpt><trkpt lat="46.205014652367595" lon="13.35626301940137"><ele>771.8</ele><time>2026-04-11T10:41:22.999Z</time></trkpt><trkpt lat="46.20504700131251" lon="13.356123000440036"><ele>772.0</ele><time>2026-04-11T10:41:23.999Z</time></trkpt><trkpt lat="46.20500995828336" lon="13.355965972729747"><ele>772.0</ele><time>2026-04-11T10:41:24.999Z</time></trkpt><trkpt lat="46.20499055898303" lon="13.355838377427249"><ele>772.0</ele><time>2026-04-11T10:41:25.999Z</time></trkpt><trkpt lat="46.20496468587616" lon="13.355702977036314"><ele>772.0</ele><time>2026-04-11T10:41:26.999Z</time></trkpt><trkpt lat="46.20498822518554" lon="13.355565106686337"><ele>772.0</ele><time>2026-04-11T10:41:27.999Z</time></trkpt><trkpt lat="46.205007521166216" lon="13.355424297545365"><ele>772.0</ele><time>2026-04-11T10:41:28.999Z</time></trkpt><trkpt lat="46.205000599330596" lon="13.355280054761371"><ele>771.6</ele><time>2026-04-11T10:41:29.999Z</time></trkpt><trkpt lat="46.204895358343684" lon="13.355172825121945"><ele>771.2</ele><time>2026-04-11T10:41:30.999Z</time></trkpt><trkpt lat="46.2048485695662" lon="13.355038409768282"><ele>770.8</ele><time>2026-04-11T10:41:31.999Z</time></trkpt><trkpt lat="46.20479100402254" lon="13.354933793676464"><ele>770.4</ele><time>2026-04-11T10:41:32.999Z</time></trkpt><trkpt lat="46.20478289964933" lon="13.354806348706743"><ele>770.0</ele><time>2026-04-11T10:41:33.999Z</time></trkpt><trkpt lat="46.20476600013926" lon="13.354685469469626"><ele>764.8</ele><time>2026-04-11T10:41:34.999Z</time></trkpt><trkpt lat="46.2047564289398" lon="13.354533523884013"><ele>759.6</ele><time>2026-04-11T10:41:35.999Z</time></trkpt><trkpt lat="46.20474664560992" lon="13.354373827847514"><ele>754.4000000000001</ele><time>2026-04-11T10:41:36.999Z</time></trkpt><trkpt lat="46.20474514139829" lon="13.354228063747822"><ele>749.2</ele><time>2026-04-11T10:41:37.999Z</time></trkpt><trkpt lat="46.20475969468984" lon="13.354094965500597"><ele>744.0</ele><time>2026-04-11T10:41:38.999Z</time></trkpt><trkpt lat="46.204792149886494" lon="13.353961839821288"><ele>746.6</ele><time>2026-04-11T10:41:39.999Z</time></trkpt><trkpt lat="46.20485034216581" lon="13.353845229408481"><ele>749.2</ele><time>2026-04-11T10:41:40.999Z</time></trkpt><trkpt lat="46.20492486282245" lon="13.353746885462622"><ele>751.8000000000001</ele><time>2026-04-11T10:41:41.999Z</time></trkpt><trkpt lat="46.20501026017467" lon="13.353696884190526"><ele>754.4000000000001</ele><time>2026-04-11T10:41:42.999Z</time></trkpt><trkpt lat="46.205078554467356" lon="13.353629048425658"><ele>757.0</ele><time>2026-04-11T10:41:43.999Z</time></trkpt><trkpt lat="46.205136033361285" lon="13.353544174794806"><ele>757.0</ele><time>2026-04-11T10:41:44.999Z</time></trkpt><trkpt lat="46.205128979775004" lon="13.353385792364639"><ele>757.0</ele><time>2026-04-11T10:41:45.999Z</time></trkpt><trkpt lat="46.20510092202612" lon="13.353262562289464"><ele>757.0</ele><time>2026-04-11T10:41:46.999Z</time></trkpt><trkpt lat="46.205088745080054" lon="13.353158609590167"><ele>757.0</ele><time>2026-04-11T10:41:47.999Z</time></trkpt><trkpt lat="46.20510598400424" lon="13.353065654376444"><ele>757.0</ele><time>2026-04-11T10:41:48.999Z</time></trkpt><trkpt lat="46.20515925744388" lon="13.352965564344208"><ele>757.0</ele><time>2026-04-11T10:41:49.999Z</time></trkpt><trkpt lat="46.2052069364112" lon="13.352851145109577"><ele>755.5</ele><time>2026-04-11T10:41:50.999Z</time></trkpt><trkpt lat="46.20523960586226" lon="13.352756245914152"><ele>754.0</ele><time>2026-04-11T10:41:51.999Z</time></trkpt><trkpt lat="46.205254844712655" lon="13.352649737220498"><ele>752.5</ele><time>2026-04-11T10:41:53Z</time></trkpt><trkpt lat="46.20521257467836" lon="13.35252558873328"><ele>751.0</ele><time>2026-04-11T10:41:54Z</time></trkpt><trkpt lat="46.205106034869054" lon="13.352486733741745"><ele>749.5</ele><time>2026-04-11T10:41:55Z</time></trkpt><trkpt lat="46.20501861373886" lon="13.352446162736351"><ele>748.0</ele><time>2026-04-11T10:41:56Z</time></trkpt><trkpt lat="46.204939835248595" lon="13.35236848809863"><ele>748.0</ele><time>2026-04-11T10:41:57Z</time></trkpt><trkpt lat="46.20486674868715" lon="13.352302023266038"><ele>748.0</ele><time>2026-04-11T10:41:58Z</time></trkpt><trkpt lat="46.20481396735837" lon="13.352222671714879"><ele>748.0</ele><time>2026-04-11T10:41:59Z</time></trkpt><trkpt lat="46.204793896875884" lon="13.352119776151898"><ele>748.0</ele><time>2026-04-11T10:42:00Z</time></trkpt><trkpt lat="46.204799360389536" lon="13.35201673358002"><ele>748.0</ele><time>2026-04-11T10:42:01Z</time></trkpt><trkpt lat="46.204908429577294" lon="13.351918476866132"><ele>748.0</ele><time>2026-04-11T10:42:03Z</time></trkpt><trkpt lat="46.204988416078855" lon="13.351863059552317"><ele>746.4</ele><time>2026-04-11T10:42:04Z</time></trkpt><trkpt lat="46.20506328961461" lon="13.35176294725974"><ele>744.8</ele><time>2026-04-11T10:42:05Z</time></trkpt><trkpt lat="46.20509077244303" lon="13.35158510986289"><ele>743.2</ele><time>2026-04-11T10:42:06Z</time></trkpt><trkpt lat="46.20510020984741" lon="13.351458249955336"><ele>741.6</ele><time>2026-04-11T10:42:07Z</time></trkpt><trkpt lat="46.205118889470086" lon="13.351343718469085"><ele>740.0</ele><time>2026-04-11T10:42:08Z</time></trkpt><trkpt lat="46.20519748777757" lon="13.351256631490319"><ele>741.6</ele><time>2026-04-11T10:42:09Z</time></trkpt><trkpt lat="46.205315633587055" lon="13.351219674776836"><ele>743.2</ele><time>2026-04-11T10:42:10Z</time></trkpt><trkpt lat="46.20540886508432" lon="13.351145232003375"><ele>744.8</ele><time>2026-04-11T10:42:11Z</time></trkpt><trkpt lat="46.2055030705841" lon="13.351098170795371"><ele>746.4</ele><time>2026-04-11T10:42:12Z</time></trkpt><trkpt lat="46.205589878974784" lon="13.35106082427917"><ele>748.0</ele><time>2026-04-11T10:42:13Z</time></trkpt><trkpt lat="46.20566372560221" lon="13.351026443256396"><ele>748.0</ele><time>2026-04-11T10:42:14Z</time></trkpt><trkpt lat="46.20572263026139" lon="13.350979826902092"><ele>748.0</ele><time>2026-04-11T10:42:15Z</time></trkpt><trkpt lat="46.20575541620812" lon="13.35089977124667"><ele>748.0</ele><time>2026-04-11T10:42:16Z</time></trkpt><trkpt lat="46.20576034076461" lon="13.350791838221097"><ele>748.0</ele><time>2026-04-11T10:42:17Z</time></trkpt><trkpt lat="46.20573226646492" lon="13.350661923907614"><ele>748.0</ele><time>2026-04-11T10:42:18Z</time></trkpt><trkpt lat="46.20563780945409" lon="13.350565509434256"><ele>748.0</ele><time>2026-04-11T10:42:19Z</time></trkpt><trkpt lat="46.205555875968976" lon="13.350426549633397"><ele>741.5</ele><time>2026-04-11T10:42:20Z</time></trkpt><trkpt lat="46.205472842685325" lon="13.350312445175106"><ele>735.0</ele><time>2026-04-11T10:42:21Z</time></trkpt><trkpt lat="46.20539081173829" lon="13.350199638171498"><ele>728.5</ele><time>2026-04-11T10:42:22Z</time></trkpt><trkpt lat="46.205299935397385" lon="13.350070880846665"><ele>722.0</ele><time>2026-04-11T10:42:23Z</time></trkpt><trkpt lat="46.20520791782106" lon="13.349961565603666"><ele>722.0</ele><time>2026-04-11T10:42:24Z</time></trkpt><trkpt lat="46.205131136612785" lon="13.349859158722193"><ele>722.0</ele><time>2026-04-11T10:42:25Z</time></trkpt><trkpt lat="46.20507852695679" lon="13.349739229225776"><ele>722.0</ele><time>2026-04-11T10:42:26Z</time></trkpt><trkpt lat="46.20501650674646" lon="13.349650547089093"><ele>722.0</ele><time>2026-04-11T10:42:27Z</time></trkpt><trkpt lat="46.20499186419696" lon="13.349537032026499"><ele>722.0</ele><time>2026-04-11T10:42:28Z</time></trkpt><trkpt lat="46.20501173410244" lon="13.349408402757259"><ele>722.0</ele><time>2026-04-11T10:42:29Z</time></trkpt><trkpt lat="46.20502896744214" lon="13.349255625942568"><ele>722.0</ele><time>2026-04-11T10:42:30Z</time></trkpt><trkpt lat="46.205043097422234" lon="13.3491112644817"><ele>722.0</ele><time>2026-04-11T10:42:31Z</time></trkpt><trkpt lat="46.205046283294614" lon="13.348975174138905"><ele>722.0</ele><time>2026-04-11T10:42:32Z</time></trkpt><trkpt lat="46.205036585448894" lon="13.348840589634792"><ele>722.0</ele><time>2026-04-11T10:42:33Z</time></trkpt><trkpt lat="46.20501098802064" lon="13.34868370944305"><ele>722.0</ele><time>2026-04-11T10:42:34Z</time></trkpt><trkpt lat="46.20497131277617" lon="13.348525228193411"><ele>722.0</ele><time>2026-04-11T10:42:35Z</time></trkpt><trkpt lat="46.20492474457864" lon="13.348376090184384"><ele>722.0</ele><time>2026-04-11T10:42:36Z</time></trkpt><trkpt lat="46.204873982824395" lon="13.34824377111064"><ele>722.0</ele><time>2026-04-11T10:42:37Z</time></trkpt><trkpt lat="46.204827391837945" lon="13.34812215922586"><ele>722.0</ele><time>2026-04-11T10:42:38Z</time></trkpt><trkpt lat="46.20478346549904" lon="13.348007502687702"><ele>721.6666666666666</ele><time>2026-04-11T10:42:39Z</time></trkpt><trkpt lat="46.204744141360166" lon="13.34789857210934"><ele>721.3333333333333</ele><time>2026-04-11T10:42:40Z</time></trkpt><trkpt lat="46.2047115297327" lon="13.347797207048606"><ele>721.0</ele><time>2026-04-11T10:42:41Z</time></trkpt><trkpt lat="46.20467063692591" lon="13.347710853058526"><ele>720.6666666666666</ele><time>2026-04-11T10:42:42Z</time></trkpt><trkpt lat="46.20468983920796" lon="13.3476120150543"><ele>720.3333333333334</ele><time>2026-04-11T10:42:43Z</time></trkpt><trkpt lat="46.20474026680075" lon="13.347526750527155"><ele>720.0</ele><time>2026-04-11T10:42:44Z</time></trkpt><trkpt lat="46.20483083922364" lon="13.347476985793095"><ele>720.0</ele><time>2026-04-11T10:42:45Z</time></trkpt><trkpt lat="46.20490062704992" lon="13.34739538068395"><ele>720.0</ele><time>2026-04-11T10:42:46Z</time></trkpt><trkpt lat="46.20496897093125" lon="13.347317593403572"><ele>720.0</ele><time>2026-04-11T10:42:47Z</time></trkpt><trkpt lat="46.20502314730507" lon="13.347213768211528"><ele>720.0</ele><time>2026-04-11T10:42:48Z</time></trkpt><trkpt lat="46.20509247956786" lon="13.347132836445137"><ele>720.0</ele><time>2026-04-11T10:42:49Z</time></trkpt><trkpt lat="46.2051675381258" lon="13.347053780777635"><ele>720.0</ele><time>2026-04-11T10:42:50Z</time></trkpt><trkpt lat="46.205244053819975" lon="13.346982944303033"><ele>716.0</ele><time>2026-04-11T10:42:51Z</time></trkpt><trkpt lat="46.2053205798758" lon="13.346912068105913"><ele>712.0</ele><time>2026-04-11T10:42:52Z</time></trkpt><trkpt lat="46.20541351702815" lon="13.346864540781665"><ele>708.0</ele><time>2026-04-11T10:42:53Z</time></trkpt><trkpt lat="46.20549573210378" lon="13.34675305290156"><ele>704.0</ele><time>2026-04-11T10:42:54Z</time></trkpt><trkpt lat="46.20556325114129" lon="13.346619492617203"><ele>700.0</ele><time>2026-04-11T10:42:55Z</time></trkpt><trkpt lat="46.20563367399069" lon="13.34649511501503"><ele>701.6</ele><time>2026-04-11T10:42:56Z</time></trkpt><trkpt lat="46.205697878786175" lon="13.34638171947451"><ele>703.2</ele><time>2026-04-11T10:42:57Z</time></trkpt><trkpt lat="46.205760474973914" lon="13.346274313963757"><ele>704.8</ele><time>2026-04-11T10:42:57.999Z</time></trkpt><trkpt lat="46.205812141745" lon="13.346160053142365"><ele>706.4</ele><time>2026-04-11T10:42:58.999Z</time></trkpt><trkpt lat="46.2058532142336" lon="13.346044317805193"><ele>708.0</ele><time>2026-04-11T10:42:59.999Z</time></trkpt><trkpt lat="46.20589076424594" lon="13.34593619144299"><ele>708.0</ele><time>2026-04-11T10:43:00.999Z</time></trkpt><trkpt lat="46.20592641159543" lon="13.345833543931843"><ele>708.0</ele><time>2026-04-11T10:43:01.999Z</time></trkpt><trkpt lat="46.20595575022673" lon="13.345731541797582"><ele>708.0</ele><time>2026-04-11T10:43:02.999Z</time></trkpt><trkpt lat="46.20596223167819" lon="13.345611401838124"><ele>708.0</ele><time>2026-04-11T10:43:03.999Z</time></trkpt><trkpt lat="46.205932763939224" lon="13.345509117815002"><ele>708.0</ele><time>2026-04-11T10:43:04.999Z</time></trkpt><trkpt lat="46.205890870190984" lon="13.345357537007642"><ele>708.0</ele><time>2026-04-11T10:43:06.999Z</time></trkpt><trkpt lat="46.20581769149377" lon="13.345209896642913"><ele>706.0</ele><time>2026-04-11T10:43:08.999Z</time></trkpt><trkpt lat="46.20564020230607" lon="13.345299951372818"><ele>704.0</ele><time>2026-04-11T10:43:10.999Z</time></trkpt><trkpt lat="46.20557708863673" lon="13.34537505929633"><ele>702.0</ele><time>2026-04-11T10:43:11.999Z</time></trkpt><trkpt lat="46.20550714633444" lon="13.345439849146137"><ele>700.0</ele><time>2026-04-11T10:43:12.999Z</time></trkpt><trkpt lat="46.2054256510266" lon="13.34546933011629"><ele>698.0</ele><time>2026-04-11T10:43:13.999Z</time></trkpt><trkpt lat="46.205344403178884" lon="13.345469567304736"><ele>698.0</ele><time>2026-04-11T10:43:14.999Z</time></trkpt><trkpt lat="46.205274848111614" lon="13.345409961828965"><ele>698.0</ele><time>2026-04-11T10:43:15.999Z</time></trkpt><trkpt lat="46.20521639928291" lon="13.345352084115579"><ele>698.0</ele><time>2026-04-11T10:43:16.999Z</time></trkpt><trkpt lat="46.205190933740504" lon="13.345248572768684"><ele>698.0</ele><time>2026-04-11T10:43:17.999Z</time></trkpt><trkpt lat="46.205171753473394" lon="13.345136845766827"><ele>698.0</ele><time>2026-04-11T10:43:18.999Z</time></trkpt><trkpt lat="46.20517593917534" lon="13.345012842075567"><ele>698.0</ele><time>2026-04-11T10:43:19.999Z</time></trkpt><trkpt lat="46.205207586190596" lon="13.34489203545382"><ele>698.0</ele><time>2026-04-11T10:43:20.999Z</time></trkpt><trkpt lat="46.205264513655884" lon="13.344784165781476"><ele>698.0</ele><time>2026-04-11T10:43:21.999Z</time></trkpt><trkpt lat="46.20532196818603" lon="13.344671140640363"><ele>698.0</ele><time>2026-04-11T10:43:22.999Z</time></trkpt><trkpt lat="46.20539071554255" lon="13.344577171805584"><ele>698.0</ele><time>2026-04-11T10:43:23.999Z</time></trkpt><trkpt lat="46.205467321655846" lon="13.34450385358666"><ele>698.0</ele><time>2026-04-11T10:43:24.999Z</time></trkpt><trkpt lat="46.20553438759449" lon="13.344412474735405"><ele>696.4</ele><time>2026-04-11T10:43:25.999Z</time></trkpt><trkpt lat="46.20560543542423" lon="13.34431560842303"><ele>694.8</ele><time>2026-04-11T10:43:26.999Z</time></trkpt><trkpt lat="46.20568091281257" lon="13.344212703230827"><ele>693.2</ele><time>2026-04-11T10:43:27.999Z</time></trkpt><trkpt lat="46.205747321634455" lon="13.34409269412522"><ele>691.6</ele><time>2026-04-11T10:43:28.999Z</time></trkpt><trkpt lat="46.20582427524424" lon="13.343997742762456"><ele>690.0</ele><time>2026-04-11T10:43:29.999Z</time></trkpt><trkpt lat="46.20590435329209" lon="13.34391002712453"><ele>691.6</ele><time>2026-04-11T10:43:30.999Z</time></trkpt><trkpt lat="46.20598405271204" lon="13.343829876523486"><ele>693.2</ele><time>2026-04-11T10:43:31.999Z</time></trkpt><trkpt lat="46.20606624006153" lon="13.343758944917571"><ele>694.8</ele><time>2026-04-11T10:43:32.999Z</time></trkpt><trkpt lat="46.20615366108801" lon="13.343697778245819"><ele>696.4</ele><time>2026-04-11T10:43:33.999Z</time></trkpt><trkpt lat="46.20624398144081" lon="13.343633119166805"><ele>698.0</ele><time>2026-04-11T10:43:34.999Z</time></trkpt><trkpt lat="46.206333404584775" lon="13.343547604908473"><ele>698.0</ele><time>2026-04-11T10:43:35.999Z</time></trkpt><trkpt lat="46.20642013708584" lon="13.343452962237244"><ele>698.0</ele><time>2026-04-11T10:43:36.999Z</time></trkpt><trkpt lat="46.20649405617343" lon="13.343345338649351"><ele>698.0</ele><time>2026-04-11T10:43:37.999Z</time></trkpt><trkpt lat="46.206549452727685" lon="13.343236253443214"><ele>698.0</ele><time>2026-04-11T10:43:38.999Z</time></trkpt><trkpt lat="46.20660097708333" lon="13.343131312488467"><ele>698.0</ele><time>2026-04-11T10:43:39.999Z</time></trkpt><trkpt lat="46.20662145716074" lon="13.343011418716928"><ele>696.5999999999999</ele><time>2026-04-11T10:43:40.999Z</time></trkpt><trkpt lat="46.206593036850514" lon="13.342879193952397"><ele>695.1999999999999</ele><time>2026-04-11T10:43:41.999Z</time></trkpt><trkpt lat="46.206549131782864" lon="13.342785177134056"><ele>693.8</ele><time>2026-04-11T10:43:42.999Z</time></trkpt><trkpt lat="46.206471751249126" lon="13.342716798283352"><ele>692.4</ele><time>2026-04-11T10:43:43.999Z</time></trkpt><trkpt lat="46.20637767718163" lon="13.34272577005031"><ele>691.0</ele><time>2026-04-11T10:43:44.999Z</time></trkpt><trkpt lat="46.20628558852296" lon="13.342765518809134"><ele>691.0</ele><time>2026-04-11T10:43:45.999Z</time></trkpt><trkpt lat="46.20617476763999" lon="13.342840774318905"><ele>691.0</ele><time>2026-04-11T10:43:46.999Z</time></trkpt><trkpt lat="46.20606776722493" lon="13.342900744408723"><ele>691.0</ele><time>2026-04-11T10:43:47.999Z</time></trkpt><trkpt lat="46.2059714511533" lon="13.342955558047874"><ele>691.0</ele><time>2026-04-11T10:43:48.999Z</time></trkpt><trkpt lat="46.20587915508987" lon="13.343005609631225"><ele>691.0</ele><time>2026-04-11T10:43:49.999Z</time></trkpt><trkpt lat="46.20579090854039" lon="13.343061365818992"><ele>692.4</ele><time>2026-04-11T10:43:50.999Z</time></trkpt><trkpt lat="46.205699736769034" lon="13.343126986805583"><ele>693.8</ele><time>2026-04-11T10:43:51.999Z</time></trkpt><trkpt lat="46.205614720713285" lon="13.343211051981147"><ele>695.1999999999999</ele><time>2026-04-11T10:43:52.999Z</time></trkpt><trkpt lat="46.20554470297465" lon="13.343316251056779"><ele>696.5999999999999</ele><time>2026-04-11T10:43:53.999Z</time></trkpt><trkpt lat="46.2054777515304" lon="13.34343530956392"><ele>698.0</ele><time>2026-04-11T10:43:54.999Z</time></trkpt><trkpt lat="46.20541166347745" lon="13.343561268707683"><ele>696.6666666666666</ele><time>2026-04-11T10:43:55.999Z</time></trkpt><trkpt lat="46.205354249548876" lon="13.34367751033641"><ele>695.3333333333333</ele><time>2026-04-11T10:43:56.999Z</time></trkpt><trkpt lat="46.20530442097222" lon="13.343782453448492"><ele>694.0</ele><time>2026-04-11T10:43:57.999Z</time></trkpt><trkpt lat="46.20525864746066" lon="13.343873718552064"><ele>692.6666666666666</ele><time>2026-04-11T10:43:59Z</time></trkpt><trkpt lat="46.205224770032274" lon="13.343959458604852"><ele>691.3333333333334</ele><time>2026-04-11T10:44:00Z</time></trkpt><trkpt lat="46.20514319512714" lon="13.344064518786292"><ele>690.0</ele><time>2026-04-11T10:44:02Z</time></trkpt><trkpt lat="46.205055759416986" lon="13.344008218557994"><ele>688.3333333333334</ele><time>2026-04-11T10:44:04Z</time></trkpt><trkpt lat="46.20509105839389" lon="13.343851913076335"><ele>686.6666666666666</ele><time>2026-04-11T10:44:06Z</time></trkpt><trkpt lat="46.205163078727004" lon="13.343771692166484"><ele>685.0</ele><time>2026-04-11T10:44:07Z</time></trkpt><trkpt lat="46.205201202168126" lon="13.343689740794227"><ele>683.3333333333333</ele><time>2026-04-11T10:44:08Z</time></trkpt><trkpt lat="46.20523661057479" lon="13.343580550538794"><ele>681.6666666666666</ele><time>2026-04-11T10:44:09Z</time></trkpt><trkpt lat="46.20528618785058" lon="13.343471899671286"><ele>680.0</ele><time>2026-04-11T10:44:10Z</time></trkpt><trkpt lat="46.20531694252727" lon="13.343338871757481"><ele>680.0</ele><time>2026-04-11T10:44:11Z</time></trkpt><trkpt lat="46.20532224355991" lon="13.34318415377373"><ele>680.0</ele><time>2026-04-11T10:44:12Z</time></trkpt><trkpt lat="46.20532254158916" lon="13.343026866548298"><ele>680.0</ele><time>2026-04-11T10:44:13Z</time></trkpt><trkpt lat="46.20532629785791" lon="13.342873661992693"><ele>680.0</ele><time>2026-04-11T10:44:14Z</time></trkpt><trkpt lat="46.20533051139053" lon="13.342722901727331"><ele>680.0</ele><time>2026-04-11T10:44:15Z</time></trkpt><trkpt lat="46.20538508988285" lon="13.342592949784065"><ele>677.6</ele><time>2026-04-11T10:44:16Z</time></trkpt><trkpt lat="46.205417628347206" lon="13.342449614733503"><ele>675.2</ele><time>2026-04-11T10:44:17Z</time></trkpt><trkpt lat="46.20546251955508" lon="13.342316320533115"><ele>672.8</ele><time>2026-04-11T10:44:18Z</time></trkpt><trkpt lat="46.205516793084485" lon="13.342188039822627"><ele>670.4</ele><time>2026-04-11T10:44:19Z</time></trkpt><trkpt lat="46.20554445037033" lon="13.34204012250849"><ele>668.0</ele><time>2026-04-11T10:44:20Z</time></trkpt><trkpt lat="46.20555048615182" lon="13.34187852171864"><ele>666.2</ele><time>2026-04-11T10:44:21Z</time></trkpt><trkpt lat="46.205546027795826" lon="13.341727491085278"><ele>664.4</ele><time>2026-04-11T10:44:22Z</time></trkpt><trkpt lat="46.205542541612296" lon="13.341593334298608"><ele>662.6</ele><time>2026-04-11T10:44:23Z</time></trkpt><trkpt lat="46.20553594638081" lon="13.34145651585913"><ele>660.8000000000001</ele><time>2026-04-11T10:44:24Z</time></trkpt><trkpt lat="46.20559457920274" lon="13.341333662100407"><ele>659.0</ele><time>2026-04-11T10:44:25Z</time></trkpt><trkpt lat="46.20564011605295" lon="13.341190077651197"><ele>661.6</ele><time>2026-04-11T10:44:26Z</time></trkpt><trkpt lat="46.205702321573575" lon="13.341066243389228"><ele>664.2</ele><time>2026-04-11T10:44:27Z</time></trkpt><trkpt lat="46.205766448662615" lon="13.340963587957367"><ele>666.8000000000001</ele><time>2026-04-11T10:44:28Z</time></trkpt><trkpt lat="46.20580534595173" lon="13.340835384511463"><ele>669.4000000000001</ele><time>2026-04-11T10:44:29Z</time></trkpt><trkpt lat="46.20580351422356" lon="13.340691410869676"><ele>672.0</ele><time>2026-04-11T10:44:30Z</time></trkpt><trkpt lat="46.20576108249126" lon="13.34054614641162"><ele>672.0</ele><time>2026-04-11T10:44:31Z</time></trkpt><trkpt lat="46.205678126820246" lon="13.340435466736194"><ele>672.0</ele><time>2026-04-11T10:44:32Z</time></trkpt><trkpt lat="46.2055839747089" lon="13.340381468489793"><ele>672.0</ele><time>2026-04-11T10:44:33Z</time></trkpt><trkpt lat="46.20547337473264" lon="13.34040628676366"><ele>672.0</ele><time>2026-04-11T10:44:34Z</time></trkpt><trkpt lat="46.20535686260222" lon="13.340451187263772"><ele>672.0</ele><time>2026-04-11T10:44:35Z</time></trkpt><trkpt lat="46.205258425053955" lon="13.340507173874213"><ele>667.0</ele><time>2026-04-11T10:44:36Z</time></trkpt><trkpt lat="46.20517016153247" lon="13.340567814635104"><ele>662.0</ele><time>2026-04-11T10:44:37Z</time></trkpt><trkpt lat="46.20510149128014" lon="13.340647529549422"><ele>657.0</ele><time>2026-04-11T10:44:38Z</time></trkpt><trkpt lat="46.20506070514686" lon="13.340745324362878"><ele>652.0</ele><time>2026-04-11T10:44:39Z</time></trkpt><trkpt lat="46.20505788436842" lon="13.34087485963171"><ele>647.0</ele><time>2026-04-11T10:44:40Z</time></trkpt><trkpt lat="46.205076051237896" lon="13.341036253883134"><ele>647.0</ele><time>2026-04-11T10:44:41Z</time></trkpt><trkpt lat="46.20507118854806" lon="13.341186692125591"><ele>647.0</ele><time>2026-04-11T10:44:42Z</time></trkpt><trkpt lat="46.205028736636464" lon="13.341326242927751"><ele>647.0</ele><time>2026-04-11T10:44:43Z</time></trkpt><trkpt lat="46.20496450558754" lon="13.341446149788355"><ele>647.0</ele><time>2026-04-11T10:44:44Z</time></trkpt><trkpt lat="46.204918469253464" lon="13.341570074555943"><ele>647.0</ele><time>2026-04-11T10:44:45Z</time></trkpt><trkpt lat="46.20490281112721" lon="13.341708759969753"><ele>649.4000000000001</ele><time>2026-04-11T10:44:46Z</time></trkpt><trkpt lat="46.204884206128455" lon="13.3418379378948"><ele>651.8000000000001</ele><time>2026-04-11T10:44:47Z</time></trkpt><trkpt lat="46.20484093516492" lon="13.34196309241199"><ele>654.2</ele><time>2026-04-11T10:44:48Z</time></trkpt><trkpt lat="46.20477266161908" lon="13.342075722116215"><ele>656.6</ele><time>2026-04-11T10:44:49Z</time></trkpt><trkpt lat="46.20468980957868" lon="13.342174402538232"><ele>659.0</ele><time>2026-04-11T10:44:50Z</time></trkpt><trkpt lat="46.20462411130111" lon="13.342276687578256"><ele>654.1666666666666</ele><time>2026-04-11T10:44:51Z</time></trkpt><trkpt lat="46.20457993240689" lon="13.342387107335785"><ele>649.3333333333333</ele><time>2026-04-11T10:44:52Z</time></trkpt><trkpt lat="46.20456137346054" lon="13.342510765730852"><ele>644.5</ele><time>2026-04-11T10:44:53Z</time></trkpt><trkpt lat="46.204549194563384" lon="13.34262376479815"><ele>639.6666666666666</ele><time>2026-04-11T10:44:54Z</time></trkpt><trkpt lat="46.20450907439704" lon="13.342726832985585"><ele>634.8333333333334</ele><time>2026-04-11T10:44:55Z</time></trkpt><trkpt lat="46.20443860535602" lon="13.342820218371775"><ele>630.0</ele><time>2026-04-11T10:44:56Z</time></trkpt><trkpt lat="46.204347739069604" lon="13.34289071465807"><ele>630.0</ele><time>2026-04-11T10:44:57Z</time></trkpt><trkpt lat="46.20427272889779" lon="13.342972976849012"><ele>630.0</ele><time>2026-04-11T10:44:58Z</time></trkpt><trkpt lat="46.20421364171975" lon="13.343099137915301"><ele>630.0</ele><time>2026-04-11T10:44:59Z</time></trkpt><trkpt lat="46.20415427895045" lon="13.343224911684835"><ele>630.0</ele><time>2026-04-11T10:45:00Z</time></trkpt><trkpt lat="46.204109066432316" lon="13.343338596055215"><ele>630.0</ele><time>2026-04-11T10:45:01Z</time></trkpt><trkpt lat="46.20407144525405" lon="13.343456398068918"><ele>632.8</ele><time>2026-04-11T10:45:02Z</time></trkpt><trkpt lat="46.2040553859551" lon="13.343595444958352"><ele>635.6</ele><time>2026-04-11T10:45:03Z</time></trkpt><trkpt lat="46.20404041886701" lon="13.343746840734829"><ele>638.4000000000001</ele><time>2026-04-11T10:45:04Z</time></trkpt><trkpt lat="46.20404259938382" lon="13.343887507371264"><ele>641.2</ele><time>2026-04-11T10:45:04.999Z</time></trkpt><trkpt lat="46.20404754558897" lon="13.344011844051842"><ele>644.0</ele><time>2026-04-11T10:45:05.999Z</time></trkpt><trkpt lat="46.204061047397104" lon="13.344119332339424"><ele>646.4000000000001</ele><time>2026-04-11T10:45:06.999Z</time></trkpt><trkpt lat="46.20406068003619" lon="13.344282361579022"><ele>648.8</ele><time>2026-04-11T10:45:08.999Z</time></trkpt><trkpt lat="46.20400505802881" lon="13.344327125425373"><ele>651.2</ele><time>2026-04-11T10:45:09.999Z</time></trkpt><trkpt lat="46.20390394348833" lon="13.344212276980816"><ele>653.5999999999999</ele><time>2026-04-11T10:45:11.999Z</time></trkpt><trkpt lat="46.20390839858891" lon="13.344088939583278"><ele>656.0</ele><time>2026-04-11T10:45:12.999Z</time></trkpt><trkpt lat="46.203952633901814" lon="13.343959352215478"><ele>645.4</ele><time>2026-04-11T10:45:13.999Z</time></trkpt><trkpt lat="46.203976764856925" lon="13.343797906962655"><ele>634.8</ele><time>2026-04-11T10:45:14.999Z</time></trkpt><trkpt lat="46.20397189390033" lon="13.343649185153135"><ele>624.1999999999999</ele><time>2026-04-11T10:45:15.999Z</time></trkpt><trkpt lat="46.20397562662727" lon="13.343489409936133"><ele>613.5999999999999</ele><time>2026-04-11T10:45:16.999Z</time></trkpt><trkpt lat="46.20396459865706" lon="13.343350859126835"><ele>603.0</ele><time>2026-04-11T10:45:17.999Z</time></trkpt><trkpt lat="46.2039907809866" lon="13.343209373712718"><ele>608.4</ele><time>2026-04-11T10:45:18.999Z</time></trkpt><trkpt lat="46.204026750330804" lon="13.343066153426411"><ele>613.8</ele><time>2026-04-11T10:45:19.999Z</time></trkpt><trkpt lat="46.204067205887505" lon="13.34292027594103"><ele>619.2</ele><time>2026-04-11T10:45:20.999Z</time></trkpt><trkpt lat="46.204107077630674" lon="13.342777049589548"><ele>624.6</ele><time>2026-04-11T10:45:21.999Z</time></trkpt><trkpt lat="46.20414585352654" lon="13.342647663036798"><ele>630.0</ele><time>2026-04-11T10:45:22.999Z</time></trkpt><trkpt lat="46.20420021969353" lon="13.342527994601863"><ele>630.0</ele><time>2026-04-11T10:45:23.999Z</time></trkpt><trkpt lat="46.204198239041055" lon="13.342366471319545"><ele>630.0</ele><time>2026-04-11T10:45:24.999Z</time></trkpt><trkpt lat="46.20422758999537" lon="13.342214000358222"><ele>630.0</ele><time>2026-04-11T10:45:25.999Z</time></trkpt><trkpt lat="46.20422822650788" lon="13.342051997005862"><ele>630.0</ele><time>2026-04-11T10:45:26.999Z</time></trkpt><trkpt lat="46.20420224002189" lon="13.341900353466007"><ele>630.0</ele><time>2026-04-11T10:45:27.999Z</time></trkpt><trkpt lat="46.20421476037085" lon="13.341760680105578"><ele>627.6666666666666</ele><time>2026-04-11T10:45:28.999Z</time></trkpt><trkpt lat="46.20425934066277" lon="13.341640806272071"><ele>625.3333333333334</ele><time>2026-04-11T10:45:29.999Z</time></trkpt><trkpt lat="46.204246542767216" lon="13.341506617132191"><ele>623.0</ele><time>2026-04-11T10:45:30.999Z</time></trkpt><trkpt lat="46.20426506371932" lon="13.34138597374696"><ele>620.6666666666667</ele><time>2026-04-11T10:45:31.999Z</time></trkpt><trkpt lat="46.204279466187266" lon="13.341276362340869"><ele>618.3333333333334</ele><time>2026-04-11T10:45:32.999Z</time></trkpt><trkpt lat="46.20431633201843" lon="13.341180066617422"><ele>616.0</ele><time>2026-04-11T10:45:33.999Z</time></trkpt><trkpt lat="46.204376711333055" lon="13.341099547949947"><ele>615.0</ele><time>2026-04-11T10:45:34.999Z</time></trkpt><trkpt lat="46.204450384638086" lon="13.341032679845556"><ele>614.0</ele><time>2026-04-11T10:45:35.999Z</time></trkpt><trkpt lat="46.204514339827355" lon="13.340962605435235"><ele>613.0</ele><time>2026-04-11T10:45:36.999Z</time></trkpt><trkpt lat="46.20455397533001" lon="13.340874012772895"><ele>612.0</ele><time>2026-04-11T10:45:37.999Z</time></trkpt><trkpt lat="46.20454396108246" lon="13.34075651036547"><ele>611.0</ele><time>2026-04-11T10:45:38.999Z</time></trkpt><trkpt lat="46.20446862627191" lon="13.340679921981012"><ele>610.0</ele><time>2026-04-11T10:45:39.999Z</time></trkpt><trkpt lat="46.20438268081805" lon="13.34071153008369"><ele>610.0</ele><time>2026-04-11T10:45:40.999Z</time></trkpt><trkpt lat="46.204313541210446" lon="13.340795300807885"><ele>610.0</ele><time>2026-04-11T10:45:41.999Z</time></trkpt><trkpt lat="46.20425066096505" lon="13.340936399768891"><ele>610.0</ele><time>2026-04-11T10:45:42.999Z</time></trkpt><trkpt lat="46.20418827955824" lon="13.341112608305574"><ele>610.0</ele><time>2026-04-11T10:45:43.999Z</time></trkpt><trkpt lat="46.204138782155006" lon="13.341282171860739"><ele>611.5</ele><time>2026-04-11T10:45:44.999Z</time></trkpt><trkpt lat="46.20409769121892" lon="13.341428732651089"><ele>613.0</ele><time>2026-04-11T10:45:45.999Z</time></trkpt><trkpt lat="46.204042250893906" lon="13.341576861206542"><ele>614.5</ele><time>2026-04-11T10:45:46.999Z</time></trkpt><trkpt lat="46.20398342376099" lon="13.341732057004561"><ele>616.0</ele><time>2026-04-11T10:45:47.999Z</time></trkpt><trkpt lat="46.20394557210817" lon="13.341899075516716"><ele>610.2</ele><time>2026-04-11T10:45:48.999Z</time></trkpt><trkpt lat="46.203922984949" lon="13.34205645702434"><ele>604.4000000000001</ele><time>2026-04-11T10:45:49.999Z</time></trkpt><trkpt lat="46.20389963514133" lon="13.342199200619726"><ele>598.6</ele><time>2026-04-11T10:45:50.999Z</time></trkpt><trkpt lat="46.20387485634269" lon="13.34234064102878"><ele>592.8000000000001</ele><time>2026-04-11T10:45:51.999Z</time></trkpt><trkpt lat="46.2038357290802" lon="13.342483773845315"><ele>587.0</ele><time>2026-04-11T10:45:52.999Z</time></trkpt><trkpt lat="46.203784253085445" lon="13.342621822796819"><ele>587.0</ele><time>2026-04-11T10:45:53.999Z</time></trkpt><trkpt lat="46.203727239697386" lon="13.34275197150177"><ele>587.0</ele><time>2026-04-11T10:45:54.999Z</time></trkpt><trkpt lat="46.20367161297444" lon="13.342880081904752"><ele>587.0</ele><time>2026-04-11T10:45:55.999Z</time></trkpt><trkpt lat="46.20361741673522" lon="13.34300400460185"><ele>587.0</ele><time>2026-04-11T10:45:56.999Z</time></trkpt><trkpt lat="46.20356466496407" lon="13.343131440311579"><ele>587.0</ele><time>2026-04-11T10:45:57.999Z</time></trkpt><trkpt lat="46.20350713297201" lon="13.343253714143055"><ele>590.2</ele><time>2026-04-11T10:45:58.999Z</time></trkpt><trkpt lat="46.20344715934791" lon="13.343367781796863"><ele>593.4000000000001</ele><time>2026-04-11T10:45:59.999Z</time></trkpt><trkpt lat="46.20338727868614" lon="13.343484470861098"><ele>596.5999999999999</ele><time>2026-04-11T10:46:00.999Z</time></trkpt><trkpt lat="46.20332902510182" lon="13.343604462189791"><ele>599.8</ele><time>2026-04-11T10:46:01.999Z</time></trkpt><trkpt lat="46.20327101195604" lon="13.343728251728754"><ele>603.0</ele><time>2026-04-11T10:46:02.999Z</time></trkpt><trkpt lat="46.20321812164289" lon="13.343847739187144"><ele>604.4</ele><time>2026-04-11T10:46:03.999Z</time></trkpt><trkpt lat="46.20316574957521" lon="13.343959246925033"><ele>605.8</ele><time>2026-04-11T10:46:05Z</time></trkpt><trkpt lat="46.20309930089632" lon="13.344047626876831"><ele>607.2</ele><time>2026-04-11T10:46:06Z</time></trkpt><trkpt lat="46.203011466524316" lon="13.344105586883325"><ele>608.6</ele><time>2026-04-11T10:46:07Z</time></trkpt><trkpt lat="46.202920488906734" lon="13.344116801473378"><ele>610.0</ele><time>2026-04-11T10:46:08Z</time></trkpt><trkpt lat="46.20281379918495" lon="13.344051610281065"><ele>605.6</ele><time>2026-04-11T10:46:09Z</time></trkpt><trkpt lat="46.20270873818433" lon="13.344005071780037"><ele>601.2</ele><time>2026-04-11T10:46:10Z</time></trkpt><trkpt lat="46.20261376136289" lon="13.343987903215583"><ele>596.8</ele><time>2026-04-11T10:46:11Z</time></trkpt><trkpt lat="46.20252809741701" lon="13.34397856009814"><ele>592.4</ele><time>2026-04-11T10:46:12Z</time></trkpt><trkpt lat="46.20244280778449" lon="13.344001289877133"><ele>588.0</ele><time>2026-04-11T10:46:13Z</time></trkpt><trkpt lat="46.20236631655553" lon="13.344054082777271"><ele>582.1999999999999</ele><time>2026-04-11T10:46:14Z</time></trkpt><trkpt lat="46.20230753417788" lon="13.344133148540694"><ele>576.4</ele><time>2026-04-11T10:46:15Z</time></trkpt><trkpt lat="46.20227786526318" lon="13.34425167503593"><ele>570.5999999999999</ele><time>2026-04-11T10:46:16Z</time></trkpt><trkpt lat="46.20227664794499" lon="13.344385189780334"><ele>564.8</ele><time>2026-04-11T10:46:17Z</time></trkpt><trkpt lat="46.20226487822255" lon="13.344497771242938"><ele>559.0</ele><time>2026-04-11T10:46:18Z</time></trkpt><trkpt lat="46.20219480072575" lon="13.344623825107547"><ele>559.0</ele><time>2026-04-11T10:46:20Z</time></trkpt><trkpt lat="46.20213219223209" lon="13.344601058829925"><ele>559.0</ele><time>2026-04-11T10:46:21Z</time></trkpt><trkpt lat="46.20213326337594" lon="13.344430655543785"><ele>559.0</ele><time>2026-04-11T10:46:23Z</time></trkpt><trkpt lat="46.20216210730698" lon="13.344281023748803"><ele>559.0</ele><time>2026-04-11T10:46:25Z</time></trkpt><trkpt lat="46.20217591122613" lon="13.344188590998174"><ele>559.0</ele><time>2026-04-11T10:46:26Z</time></trkpt><trkpt lat="46.2021953864111" lon="13.344087992717578"><ele>559.0</ele><time>2026-04-11T10:46:27Z</time></trkpt><trkpt lat="46.20222888919871" lon="13.34398603740265"><ele>559.0</ele><time>2026-04-11T10:46:28Z</time></trkpt><trkpt lat="46.202281251715014" lon="13.34389366515464"><ele>559.0</ele><time>2026-04-11T10:46:29Z</time></trkpt><trkpt lat="46.20232770709086" lon="13.343801783090244"><ele>559.0</ele><time>2026-04-11T10:46:30Z</time></trkpt><trkpt lat="46.202375826993915" lon="13.343701835260864"><ele>559.0</ele><time>2026-04-11T10:46:31Z</time></trkpt><trkpt lat="46.202378041857074" lon="13.343572293747737"><ele>559.0</ele><time>2026-04-11T10:46:32Z</time></trkpt><trkpt lat="46.20234890506649" lon="13.34344385021706"><ele>559.0</ele><time>2026-04-11T10:46:33Z</time></trkpt><trkpt lat="46.20228149487681" lon="13.34333185496312"><ele>559.2</ele><time>2026-04-11T10:46:34Z</time></trkpt><trkpt lat="46.20217121948461" lon="13.34329290999262"><ele>559.4</ele><time>2026-04-11T10:46:35Z</time></trkpt><trkpt lat="46.202069835043496" lon="13.343212974260416"><ele>559.6</ele><time>2026-04-11T10:46:36Z</time></trkpt><trkpt lat="46.201980000731254" lon="13.343157139469788"><ele>559.8</ele><time>2026-04-11T10:46:37Z</time></trkpt><trkpt lat="46.20190395292166" lon="13.3430889278076"><ele>560.0</ele><time>2026-04-11T10:46:38Z</time></trkpt><trkpt lat="46.20184456591375" lon="13.343000717059686"><ele>560.0</ele><time>2026-04-11T10:46:39Z</time></trkpt><trkpt lat="46.20179939426036" lon="13.342899209039297"><ele>560.0</ele><time>2026-04-11T10:46:40Z</time></trkpt><trkpt lat="46.2018023874421" lon="13.34277781079491"><ele>560.0</ele><time>2026-04-11T10:46:41Z</time></trkpt><trkpt lat="46.201848388782906" lon="13.342669429400237"><ele>560.0</ele><time>2026-04-11T10:46:42Z</time></trkpt><trkpt lat="46.201922367258355" lon="13.342606612058164"><ele>560.0</ele><time>2026-04-11T10:46:43Z</time></trkpt><trkpt lat="46.20199003838624" lon="13.342620290340879"><ele>560.0</ele><time>2026-04-11T10:46:44Z</time></trkpt><trkpt lat="46.202051636191456" lon="13.342684563802107"><ele>560.0</ele><time>2026-04-11T10:46:45Z</time></trkpt><trkpt lat="46.20211990775187" lon="13.342753176013737"><ele>560.0</ele><time>2026-04-11T10:46:46Z</time></trkpt><trkpt lat="46.20219431588654" lon="13.34278903010269"><ele>560.0</ele><time>2026-04-11T10:46:47Z</time></trkpt><trkpt lat="46.202285199517306" lon="13.342823569113593"><ele>560.0</ele><time>2026-04-11T10:46:48Z</time></trkpt><trkpt lat="46.202389186449885" lon="13.342789468258184"><ele>560.0</ele><time>2026-04-11T10:46:49Z</time></trkpt><trkpt lat="46.20247627888578" lon="13.342660638166537"><ele>561.25</ele><time>2026-04-11T10:46:50Z</time></trkpt><trkpt lat="46.202563446387806" lon="13.342523628678533"><ele>562.5</ele><time>2026-04-11T10:46:51Z</time></trkpt><trkpt lat="46.20265490127806" lon="13.342393138380384"><ele>563.75</ele><time>2026-04-11T10:46:52Z</time></trkpt><trkpt lat="46.202758799900614" lon="13.342255059897267"><ele>565.0</ele><time>2026-04-11T10:46:53Z</time></trkpt><trkpt lat="46.20288475410532" lon="13.342122004031548"><ele>562.5</ele><time>2026-04-11T10:46:54Z</time></trkpt><trkpt lat="46.20298116667005" lon="13.341988699743869"><ele>560.0</ele><time>2026-04-11T10:46:55Z</time></trkpt><trkpt lat="46.20307042265907" lon="13.341873511087142"><ele>557.5</ele><time>2026-04-11T10:46:56Z</time></trkpt><trkpt lat="46.20315074631294" lon="13.341763074938044"><ele>555.0</ele><time>2026-04-11T10:46:57Z</time></trkpt><trkpt lat="46.20321895376921" lon="13.341640461176034"><ele>559.25</ele><time>2026-04-11T10:46:58Z</time></trkpt><trkpt lat="46.20326627678562" lon="13.341484927628391"><ele>563.5</ele><time>2026-04-11T10:46:59Z</time></trkpt><trkpt lat="46.203294495492756" lon="13.341317230292372"><ele>567.75</ele><time>2026-04-11T10:47:00Z</time></trkpt><trkpt lat="46.20326727973511" lon="13.341127928122066"><ele>572.0</ele><time>2026-04-11T10:47:01Z</time></trkpt><trkpt lat="46.20323810824516" lon="13.340958965057085"><ele>572.0</ele><time>2026-04-11T10:47:02Z</time></trkpt><trkpt lat="46.20317876068399" lon="13.340812092998666"><ele>572.0</ele><time>2026-04-11T10:47:03Z</time></trkpt><trkpt lat="46.203093997343146" lon="13.340691587264796"><ele>572.0</ele><time>2026-04-11T10:47:04Z</time></trkpt><trkpt lat="46.20301560757136" lon="13.340577376711218"><ele>572.0</ele><time>2026-04-11T10:47:05Z</time></trkpt><trkpt lat="46.20293737113568" lon="13.340480606248478"><ele>564.5</ele><time>2026-04-11T10:47:06Z</time></trkpt><trkpt lat="46.20289319886411" lon="13.340321458060231"><ele>557.0</ele><time>2026-04-11T10:47:07Z</time></trkpt><trkpt lat="46.20289357209496" lon="13.34016130444569"><ele>549.5</ele><time>2026-04-11T10:47:08Z</time></trkpt><trkpt lat="46.202911838912414" lon="13.340006763201554"><ele>542.0</ele><time>2026-04-11T10:47:08.999Z</time></trkpt><trkpt lat="46.20296312303654" lon="13.339861087293476"><ele>542.0</ele><time>2026-04-11T10:47:09.999Z</time></trkpt><trkpt lat="46.20300299659179" lon="13.339720772473429"><ele>542.0</ele><time>2026-04-11T10:47:10.999Z</time></trkpt><trkpt lat="46.20307116941167" lon="13.339623572043116"><ele>542.0</ele><time>2026-04-11T10:47:11.999Z</time></trkpt><trkpt lat="46.203107009154564" lon="13.339500431304605"><ele>542.0</ele><time>2026-04-11T10:47:12.999Z</time></trkpt><trkpt lat="46.20311281439268" lon="13.339362729589684"><ele>542.0</ele><time>2026-04-11T10:47:13.999Z</time></trkpt><trkpt lat="46.203085210602026" lon="13.339230377650619"><ele>542.2</ele><time>2026-04-11T10:47:14.999Z</time></trkpt><trkpt lat="46.203002407644554" lon="13.339133839810023"><ele>542.4000000000001</ele><time>2026-04-11T10:47:15.999Z</time></trkpt><trkpt lat="46.20290819244712" lon="13.339059223919348"><ele>542.5999999999999</ele><time>2026-04-11T10:47:16.999Z</time></trkpt><trkpt lat="46.202820257363896" lon="13.339008635931831"><ele>542.8</ele><time>2026-04-11T10:47:17.999Z</time></trkpt><trkpt lat="46.20274345706414" lon="13.338946543807563"><ele>543.0</ele><time>2026-04-11T10:47:18.999Z</time></trkpt><trkpt lat="46.20266579469819" lon="13.338885133754813"><ele>543.4</ele><time>2026-04-11T10:47:19.999Z</time></trkpt><trkpt lat="46.20259107282939" lon="13.338810552296419"><ele>543.8</ele><time>2026-04-11T10:47:20.999Z</time></trkpt><trkpt lat="46.20252299151844" lon="13.338724213794746"><ele>544.2</ele><time>2026-04-11T10:47:21.999Z</time></trkpt><trkpt lat="46.20248862853236" lon="13.338602454021359"><ele>544.6</ele><time>2026-04-11T10:47:22.999Z</time></trkpt><trkpt lat="46.20246529103803" lon="13.338476278583283"><ele>545.0</ele><time>2026-04-11T10:47:23.999Z</time></trkpt><trkpt lat="46.20245914462438" lon="13.338333405722862"><ele>545.0</ele><time>2026-04-11T10:47:24.999Z</time></trkpt><trkpt lat="46.202457794574144" lon="13.338181201851144"><ele>545.0</ele><time>2026-04-11T10:47:25.999Z</time></trkpt><trkpt lat="46.20246484241607" lon="13.33802918785799"><ele>545.0</ele><time>2026-04-11T10:47:26.999Z</time></trkpt><trkpt lat="46.2024763033944" lon="13.337872251971987"><ele>545.0</ele><time>2026-04-11T10:47:27.999Z</time></trkpt><trkpt lat="46.20249388228431" lon="13.337729710667952"><ele>545.0</ele><time>2026-04-11T10:47:28.999Z</time></trkpt><trkpt lat="46.20251445098608" lon="13.337593736611337"><ele>544.6</ele><time>2026-04-11T10:47:29.999Z</time></trkpt><trkpt lat="46.202530769089016" lon="13.337468081321191"><ele>544.2</ele><time>2026-04-11T10:47:30.999Z</time></trkpt><trkpt lat="46.202518430761366" lon="13.33734538552876"><ele>543.8</ele><time>2026-04-11T10:47:31.999Z</time></trkpt><trkpt lat="46.202473989833216" lon="13.33723235298773"><ele>543.4</ele><time>2026-04-11T10:47:32.999Z</time></trkpt><trkpt lat="46.20238731939989" lon="13.337172729561768"><ele>543.0</ele><time>2026-04-11T10:47:33.999Z</time></trkpt><trkpt lat="46.2022898982528" lon="13.3372087148852"><ele>539.4</ele><time>2026-04-11T10:47:34.999Z</time></trkpt><trkpt lat="46.202201170812884" lon="13.337262664896766"><ele>535.8</ele><time>2026-04-11T10:47:35.999Z</time></trkpt><trkpt lat="46.20211395992331" lon="13.33731610080972"><ele>532.2</ele><time>2026-04-11T10:47:36.999Z</time></trkpt><trkpt lat="46.202027318221695" lon="13.337336046910414"><ele>528.6</ele><time>2026-04-11T10:47:37.999Z</time></trkpt><trkpt lat="46.20192940872637" lon="13.337328353033671"><ele>525.0</ele><time>2026-04-11T10:47:38.999Z</time></trkpt><trkpt lat="46.20183387439719" lon="13.337261402414951"><ele>526.8333333333334</ele><time>2026-04-11T10:47:39.999Z</time></trkpt><trkpt lat="46.20174615556532" lon="13.337201000454655"><ele>528.6666666666666</ele><time>2026-04-11T10:47:40.999Z</time></trkpt><trkpt lat="46.20166605994618" lon="13.337113200725756"><ele>530.5</ele><time>2026-04-11T10:47:41.999Z</time></trkpt><trkpt lat="46.20159597910906" lon="13.33702165915886"><ele>532.3333333333333</ele><time>2026-04-11T10:47:42.999Z</time></trkpt><trkpt lat="46.20153410906903" lon="13.33694673637602"><ele>534.1666666666666</ele><time>2026-04-11T10:47:43.999Z</time></trkpt><trkpt lat="46.201465849029056" lon="13.336922906151562"><ele>536.0</ele><time>2026-04-11T10:47:44.999Z</time></trkpt><trkpt lat="46.20140295861832" lon="13.336932379049182"><ele>533.8</ele><time>2026-04-11T10:47:45.999Z</time></trkpt><trkpt lat="46.20134795689543" lon="13.337070692748263"><ele>531.6</ele><time>2026-04-11T10:47:47.999Z</time></trkpt><trkpt lat="46.2013817707254" lon="13.33716356637554"><ele>529.4</ele><time>2026-04-11T10:47:48.999Z</time></trkpt><trkpt lat="46.20146076646605" lon="13.337229120259583"><ele>527.2</ele><time>2026-04-11T10:47:49.999Z</time></trkpt><trkpt lat="46.201544071512565" lon="13.337278343001584"><ele>525.0</ele><time>2026-04-11T10:47:50.999Z</time></trkpt><trkpt lat="46.20162885920818" lon="13.337334122516678"><ele>525.0</ele><time>2026-04-11T10:47:51.999Z</time></trkpt><trkpt lat="46.20171151524567" lon="13.337401839340655"><ele>525.0</ele><time>2026-04-11T10:47:52.999Z</time></trkpt><trkpt lat="46.20180304883267" lon="13.337463086664311"><ele>525.0</ele><time>2026-04-11T10:47:53.999Z</time></trkpt><trkpt lat="46.20188103976373" lon="13.337539040631363"><ele>525.0</ele><time>2026-04-11T10:47:54.999Z</time></trkpt><trkpt lat="46.20195433464951" lon="13.337602682673932"><ele>525.0</ele><time>2026-04-11T10:47:55.999Z</time></trkpt><trkpt lat="46.20201232896592" lon="13.337666007903538"><ele>525.0</ele><time>2026-04-11T10:47:56.999Z</time></trkpt><trkpt lat="46.202035753760725" lon="13.337775379341004"><ele>525.0</ele><time>2026-04-11T10:47:57.999Z</time></trkpt><trkpt lat="46.20202915374345" lon="13.337903521806943"><ele>525.0</ele><time>2026-04-11T10:47:58.999Z</time></trkpt><trkpt lat="46.2019897999439" lon="13.338039177099516"><ele>525.0</ele><time>2026-04-11T10:47:59.999Z</time></trkpt><trkpt lat="46.201960618259236" lon="13.338164753523635"><ele>525.0</ele><time>2026-04-11T10:48:00.999Z</time></trkpt><trkpt lat="46.201954263912334" lon="13.338282240758684"><ele>525.0</ele><time>2026-04-11T10:48:01.999Z</time></trkpt><trkpt lat="46.20196875914819" lon="13.338392964041555"><ele>525.0</ele><time>2026-04-11T10:48:02.999Z</time></trkpt><trkpt lat="46.20197060235308" lon="13.338518672230967"><ele>523.6666666666666</ele><time>2026-04-11T10:48:03.999Z</time></trkpt><trkpt lat="46.201975408867305" lon="13.338640991937709"><ele>522.3333333333334</ele><time>2026-04-11T10:48:04.999Z</time></trkpt><trkpt lat="46.20192976271114" lon="13.33874695249672"><ele>521.0</ele><time>2026-04-11T10:48:05.999Z</time></trkpt><trkpt lat="46.201868833943344" lon="13.33881394728637"><ele>519.6666666666667</ele><time>2026-04-11T10:48:06.999Z</time></trkpt><trkpt lat="46.201789797332665" lon="13.33882762553844"><ele>518.3333333333334</ele><time>2026-04-11T10:48:07.999Z</time></trkpt><trkpt lat="46.20170227963167" lon="13.338794171851333"><ele>517.0</ele><time>2026-04-11T10:48:08.999Z</time></trkpt><trkpt lat="46.201612617089" lon="13.338761018542847"><ele>517.0</ele><time>2026-04-11T10:48:09.999Z</time></trkpt><trkpt lat="46.20152891019292" lon="13.338735527271062"><ele>517.0</ele><time>2026-04-11T10:48:11Z</time></trkpt><trkpt lat="46.20145005156084" lon="13.338728416442352"><ele>517.0</ele><time>2026-04-11T10:48:12Z</time></trkpt><trkpt lat="46.20137238141728" lon="13.338760739767977"><ele>517.0</ele><time>2026-04-11T10:48:13Z</time></trkpt><trkpt lat="46.201303975558154" lon="13.338841977890462"><ele>517.0</ele><time>2026-04-11T10:48:14Z</time></trkpt><trkpt lat="46.2012584780363" lon="13.338932821503587"><ele>517.0</ele><time>2026-04-11T10:48:15Z</time></trkpt><trkpt lat="46.20125274431634" lon="13.339051017046593"><ele>514.4</ele><time>2026-04-11T10:48:16Z</time></trkpt><trkpt lat="46.201288224853144" lon="13.339186710799078"><ele>511.80000000000007</ele><time>2026-04-11T10:48:17Z</time></trkpt><trkpt lat="46.20131726382424" lon="13.339337304631771"><ele>509.2</ele><time>2026-04-11T10:48:18Z</time></trkpt><trkpt lat="46.2013519597763" lon="13.339477553040496"><ele>506.6</ele><time>2026-04-11T10:48:19Z</time></trkpt><trkpt lat="46.20138716745604" lon="13.339625185483417"><ele>504.0</ele><time>2026-04-11T10:48:20Z</time></trkpt><trkpt lat="46.201423861408074" lon="13.339742930641897"><ele>504.0</ele><time>2026-04-11T10:48:21Z</time></trkpt><trkpt lat="46.20144971637725" lon="13.339866697882611"><ele>504.0</ele><time>2026-04-11T10:48:22Z</time></trkpt><trkpt lat="46.201451255646276" lon="13.340012065087723"><ele>504.0</ele><time>2026-04-11T10:48:23Z</time></trkpt><trkpt lat="46.201420799280605" lon="13.340147306695512"><ele>504.0</ele><time>2026-04-11T10:48:24Z</time></trkpt><trkpt lat="46.20137352131809" lon="13.340256277953456"><ele>504.0</ele><time>2026-04-11T10:48:25Z</time></trkpt><trkpt lat="46.20130695983307" lon="13.340333926076395"><ele>504.0</ele><time>2026-04-11T10:48:26Z</time></trkpt><trkpt lat="46.201219694658086" lon="13.340379911617982"><ele>504.0</ele><time>2026-04-11T10:48:27Z</time></trkpt><trkpt lat="46.20111798926583" lon="13.340385269369975"><ele>504.0</ele><time>2026-04-11T10:48:28Z</time></trkpt><trkpt lat="46.20100107870914" lon="13.340347078020145"><ele>504.0</ele><time>2026-04-11T10:48:29Z</time></trkpt><trkpt lat="46.20087387738511" lon="13.34029938581447"><ele>504.0</ele><time>2026-04-11T10:48:30Z</time></trkpt><trkpt lat="46.20074858352907" lon="13.340260074050267"><ele>499.5</ele><time>2026-04-11T10:48:31Z</time></trkpt><trkpt lat="46.20062167307169" lon="13.340222924978267"><ele>495.0</ele><time>2026-04-11T10:48:32Z</time></trkpt><trkpt lat="46.200491899787814" lon="13.340206608294562"><ele>490.5</ele><time>2026-04-11T10:48:33Z</time></trkpt><trkpt lat="46.2003635386954" lon="13.340227978288775"><ele>486.0</ele><time>2026-04-11T10:48:34Z</time></trkpt><trkpt lat="46.2002371447945" lon="13.340277158707936"><ele>486.0</ele><time>2026-04-11T10:48:35Z</time></trkpt><trkpt lat="46.20011133901507" lon="13.340339145146876"><ele>486.0</ele><time>2026-04-11T10:48:36Z</time></trkpt><trkpt lat="46.19998000015754" lon="13.34039309755941"><ele>486.0</ele><time>2026-04-11T10:48:37Z</time></trkpt><trkpt lat="46.19986362897735" lon="13.340445955125514"><ele>486.0</ele><time>2026-04-11T10:48:38Z</time></trkpt><trkpt lat="46.19975612914928" lon="13.340498091176704"><ele>482.4</ele><time>2026-04-11T10:48:39Z</time></trkpt><trkpt lat="46.19966148050232" lon="13.340554203086029"><ele>478.8</ele><time>2026-04-11T10:48:40Z</time></trkpt><trkpt lat="46.19957242430413" lon="13.340627552614261"><ele>475.19999999999993</ele><time>2026-04-11T10:48:41Z</time></trkpt><trkpt lat="46.199492136647685" lon="13.340719433684804"><ele>471.59999999999997</ele><time>2026-04-11T10:48:42Z</time></trkpt><trkpt lat="46.199421789017435" lon="13.340808363046836"><ele>468.0</ele><time>2026-04-11T10:48:43Z</time></trkpt><trkpt lat="46.199385041894466" lon="13.340904523161427"><ele>468.0</ele><time>2026-04-11T10:48:44Z</time></trkpt><trkpt lat="46.19938217157763" lon="13.341023876069402"><ele>467.99999999999994</ele><time>2026-04-11T10:48:45Z</time></trkpt><trkpt lat="46.199407115966146" lon="13.341168006220823"><ele>467.99999999999994</ele><time>2026-04-11T10:48:46Z</time></trkpt><trkpt lat="46.199427689938965" lon="13.34133111094974"><ele>468.0</ele><time>2026-04-11T10:48:47Z</time></trkpt><trkpt lat="46.19944636735453" lon="13.341477927691553"><ele>468.0</ele><time>2026-04-11T10:48:48Z</time></trkpt><trkpt lat="46.199445900421544" lon="13.341623568888188"><ele>469.75</ele><time>2026-04-11T10:48:49Z</time></trkpt><trkpt lat="46.199466811276444" lon="13.341760604046831"><ele>471.5</ele><time>2026-04-11T10:48:50Z</time></trkpt><trkpt lat="46.19944003328492" lon="13.341920065288356"><ele>473.25</ele><time>2026-04-11T10:48:51Z</time></trkpt><trkpt lat="46.19938887378002" lon="13.342092341494862"><ele>475.0</ele><time>2026-04-11T10:48:52Z</time></trkpt><trkpt lat="46.19932288844223" lon="13.342241702775043"><ele>475.2</ele><time>2026-04-11T10:48:53Z</time></trkpt><trkpt lat="46.1992643761775" lon="13.342368441539643"><ele>475.4</ele><time>2026-04-11T10:48:54Z</time></trkpt><trkpt lat="46.19921501501681" lon="13.34248998130583"><ele>475.6</ele><time>2026-04-11T10:48:55Z</time></trkpt><trkpt lat="46.199184399752774" lon="13.342623062385876"><ele>475.8</ele><time>2026-04-11T10:48:56Z</time></trkpt><trkpt lat="46.1991691144898" lon="13.342784268028643"><ele>476.0</ele><time>2026-04-11T10:48:57Z</time></trkpt><trkpt lat="46.19917690892549" lon="13.34295047917458"><ele>475.16666666666663</ele><time>2026-04-11T10:48:58Z</time></trkpt><trkpt lat="46.199180539076984" lon="13.343089233909291"><ele>474.3333333333333</ele><time>2026-04-11T10:48:59Z</time></trkpt><trkpt lat="46.19917066042092" lon="13.34320377528551"><ele>473.5</ele><time>2026-04-11T10:49:00Z</time></trkpt><trkpt lat="46.19914694989037" lon="13.343351925101564"><ele>472.66666666666663</ele><time>2026-04-11T10:49:02Z</time></trkpt><trkpt lat="46.19908321411932" lon="13.343363039717618"><ele>471.8333333333333</ele><time>2026-04-11T10:49:03Z</time></trkpt><trkpt lat="46.19902910427678" lon="13.343307832734768"><ele>471.0</ele><time>2026-04-11T10:49:04Z</time></trkpt><trkpt lat="46.198999155729794" lon="13.343207319941698"><ele>471.0</ele><time>2026-04-11T10:49:05Z</time></trkpt><trkpt lat="46.19902036740608" lon="13.34308088111579"><ele>471.0</ele><time>2026-04-11T10:49:06Z</time></trkpt><trkpt lat="46.199054826640534" lon="13.342947962305319"><ele>471.0</ele><time>2026-04-11T10:49:07Z</time></trkpt><trkpt lat="46.19906478245561" lon="13.342796445809341"><ele>471.0</ele><time>2026-04-11T10:49:08Z</time></trkpt><trkpt lat="46.19903882340186" lon="13.342620707759835"><ele>471.0</ele><time>2026-04-11T10:49:09Z</time></trkpt><trkpt lat="46.19902707566113" lon="13.342450220129484"><ele>471.8</ele><time>2026-04-11T10:49:10Z</time></trkpt><trkpt lat="46.199043927330784" lon="13.342281056147472"><ele>472.6</ele><time>2026-04-11T10:49:11Z</time></trkpt><trkpt lat="46.199073206488045" lon="13.342104925163063"><ele>473.4</ele><time>2026-04-11T10:49:12Z</time></trkpt><trkpt lat="46.19908879859447" lon="13.341951602463757"><ele>474.2</ele><time>2026-04-11T10:49:12.999Z</time></trkpt><trkpt lat="46.19909740690205" lon="13.341810172553783"><ele>475.0</ele><time>2026-04-11T10:49:13.999Z</time></trkpt><trkpt lat="46.199091753954384" lon="13.34165771254521"><ele>475.0</ele><time>2026-04-11T10:49:14.999Z</time></trkpt><trkpt lat="46.1990620725067" lon="13.341493337285229"><ele>475.0</ele><time>2026-04-11T10:49:15.999Z</time></trkpt><trkpt lat="46.19900648183458" lon="13.341342432748986"><ele>475.0</ele><time>2026-04-11T10:49:16.999Z</time></trkpt><trkpt lat="46.198930824527054" lon="13.341204928321755"><ele>475.0</ele><time>2026-04-11T10:49:17.999Z</time></trkpt><trkpt lat="46.19886366412706" lon="13.341068366625395"><ele>467.0</ele><time>2026-04-11T10:49:18.999Z</time></trkpt><trkpt lat="46.198821173791686" lon="13.340944053426147"><ele>459.0</ele><time>2026-04-11T10:49:19.999Z</time></trkpt><trkpt lat="46.19879592089628" lon="13.340817931746592"><ele>451.0</ele><time>2026-04-11T10:49:20.999Z</time></trkpt><trkpt lat="46.19881674297091" lon="13.340685263948144"><ele>443.0</ele><time>2026-04-11T10:49:21.999Z</time></trkpt><trkpt lat="46.19890217006947" lon="13.34059223994151"><ele>435.0</ele><time>2026-04-11T10:49:22.999Z</time></trkpt><trkpt lat="46.198982499736445" lon="13.340457735125577"><ele>439.0</ele><time>2026-04-11T10:49:23.999Z</time></trkpt><trkpt lat="46.199039205652696" lon="13.340322530350361"><ele>443.0</ele><time>2026-04-11T10:49:24.999Z</time></trkpt><trkpt lat="46.19908464519315" lon="13.340206055529528"><ele>447.0</ele><time>2026-04-11T10:49:25.999Z</time></trkpt><trkpt lat="46.199129637647445" lon="13.340089653638676"><ele>451.0</ele><time>2026-04-11T10:49:26.999Z</time></trkpt><trkpt lat="46.19917259645212" lon="13.339978513154364"><ele>455.0</ele><time>2026-04-11T10:49:27.999Z</time></trkpt><trkpt lat="46.19921721512695" lon="13.339863078372169"><ele>454.99999999999994</ele><time>2026-04-11T10:49:28.999Z</time></trkpt><trkpt lat="46.199264094511804" lon="13.33974497448054"><ele>455.0</ele><time>2026-04-11T10:49:29.999Z</time></trkpt><trkpt lat="46.1993116275068" lon="13.33964904739461"><ele>455.0</ele><time>2026-04-11T10:49:30.999Z</time></trkpt><trkpt lat="46.19935310267589" lon="13.339577679787059"><ele>455.0</ele><time>2026-04-11T10:49:31.999Z</time></trkpt><trkpt lat="46.199385091125976" lon="13.339498990842817"><ele>454.99999999999994</ele><time>2026-04-11T10:49:32.999Z</time></trkpt><trkpt lat="46.19939905192723" lon="13.339328804491457"><ele>455.0</ele><time>2026-04-11T10:49:34.999Z</time></trkpt><trkpt lat="46.199322559286266" lon="13.339281417456425"><ele>454.99999999999994</ele><time>2026-04-11T10:49:35.999Z</time></trkpt><trkpt lat="46.1992573280077" lon="13.339302029871114"><ele>455.0</ele><time>2026-04-11T10:49:36.999Z</time></trkpt><trkpt lat="46.19920789120666" lon="13.339390746085572"><ele>455.0</ele><time>2026-04-11T10:49:37.999Z</time></trkpt><trkpt lat="46.199174519491784" lon="13.339517624702571"><ele>455.0</ele><time>2026-04-11T10:49:38.999Z</time></trkpt><trkpt lat="46.199124880717605" lon="13.339645940058183"><ele>454.99999999999994</ele><time>2026-04-11T10:49:39.999Z</time></trkpt><trkpt lat="46.199073438559175" lon="13.33977563649009"><ele>455.0</ele><time>2026-04-11T10:49:40.999Z</time></trkpt><trkpt lat="46.199022750599475" lon="13.339913654611209"><ele>449.4</ele><time>2026-04-11T10:49:41.999Z</time></trkpt><trkpt lat="46.198962534959584" lon="13.340042882095771"><ele>443.8</ele><time>2026-04-11T10:49:42.999Z</time></trkpt><trkpt lat="46.198897991353604" lon="13.340158301605236"><ele>438.20000000000005</ele><time>2026-04-11T10:49:43.999Z</time></trkpt><trkpt lat="46.19882860478176" lon="13.340263848425844"><ele>432.6</ele><time>2026-04-11T10:49:44.999Z</time></trkpt><trkpt lat="46.19875235193546" lon="13.3403605247059"><ele>427.0</ele><time>2026-04-11T10:49:45.999Z</time></trkpt><trkpt lat="46.19867859072854" lon="13.34043776963592"><ele>427.00000000000006</ele><time>2026-04-11T10:49:46.999Z</time></trkpt><trkpt lat="46.19860909560712" lon="13.340508592510314"><ele>427.0</ele><time>2026-04-11T10:49:47.999Z</time></trkpt><trkpt lat="46.19855182858094" lon="13.340591074403893"><ele>427.0</ele><time>2026-04-11T10:49:48.999Z</time></trkpt><trkpt lat="46.19851318750609" lon="13.340685180793349"><ele>427.0</ele><time>2026-04-11T10:49:49.999Z</time></trkpt><trkpt lat="46.19848477637522" lon="13.340789672138486"><ele>427.00000000000006</ele><time>2026-04-11T10:49:50.999Z</time></trkpt><trkpt lat="46.19852279012205" lon="13.340938488171126"><ele>427.0</ele><time>2026-04-11T10:49:51.999Z</time></trkpt><trkpt lat="46.198559937328284" lon="13.341077890259044"><ele>428.33333333333337</ele><time>2026-04-11T10:49:52.999Z</time></trkpt><trkpt lat="46.19855836930888" lon="13.341194405787466"><ele>429.6666666666667</ele><time>2026-04-11T10:49:53.999Z</time></trkpt><trkpt lat="46.19854745950939" lon="13.34130243708305"><ele>431.0</ele><time>2026-04-11T10:49:54.999Z</time></trkpt><trkpt lat="46.198494287647755" lon="13.341397979489335"><ele>432.33333333333337</ele><time>2026-04-11T10:49:55.999Z</time></trkpt><trkpt lat="46.198432619993945" lon="13.341477215389302"><ele>433.6666666666667</ele><time>2026-04-11T10:49:56.999Z</time></trkpt><trkpt lat="46.19838627798772" lon="13.341562702280738"><ele>435.0</ele><time>2026-04-11T10:49:57.999Z</time></trkpt><trkpt lat="46.19836315174424" lon="13.34167785666593"><ele>435.3333333333333</ele><time>2026-04-11T10:49:58.999Z</time></trkpt><trkpt lat="46.19837767903522" lon="13.341801338185773"><ele>435.66666666666663</ele><time>2026-04-11T10:49:59.999Z</time></trkpt><trkpt lat="46.198395750047005" lon="13.34191193158358"><ele>436.0</ele><time>2026-04-11T10:50:00.999Z</time></trkpt><trkpt lat="46.19836976375227" lon="13.342010328754384"><ele>436.3333333333333</ele><time>2026-04-11T10:50:01.999Z</time></trkpt><trkpt lat="46.1983078626885" lon="13.342085618801534"><ele>436.66666666666663</ele><time>2026-04-11T10:50:02.999Z</time></trkpt><trkpt lat="46.198212490604064" lon="13.3421321250667"><ele>437.0</ele><time>2026-04-11T10:50:03.999Z</time></trkpt><trkpt lat="46.198110637683804" lon="13.342172685465563"><ele>433.40000000000003</ele><time>2026-04-11T10:50:04.999Z</time></trkpt><trkpt lat="46.1980381089443" lon="13.342254721508635"><ele>429.80000000000007</ele><time>2026-04-11T10:50:05.999Z</time></trkpt><trkpt lat="46.19797362578648" lon="13.342399692963182"><ele>426.2</ele><time>2026-04-11T10:50:06.999Z</time></trkpt><trkpt lat="46.197898250674434" lon="13.342534338980611"><ele>422.6</ele><time>2026-04-11T10:50:07.999Z</time></trkpt><trkpt lat="46.19781349597832" lon="13.34261749850089"><ele>419.0</ele><time>2026-04-11T10:50:08.999Z</time></trkpt><trkpt lat="46.19774036973071" lon="13.342670360142815"><ele>419.0</ele><time>2026-04-11T10:50:09.999Z</time></trkpt><trkpt lat="46.19768255003093" lon="13.342821367467828"><ele>419.0</ele><time>2026-04-11T10:50:11.999Z</time></trkpt><trkpt lat="46.19770694924146" lon="13.342917584691353"><ele>419.0</ele><time>2026-04-11T10:50:12.999Z</time></trkpt><trkpt lat="46.19776126143682" lon="13.343020058497752"><ele>419.0</ele><time>2026-04-11T10:50:13.999Z</time></trkpt><trkpt lat="46.19780489143372" lon="13.343149249487936"><ele>419.0</ele><time>2026-04-11T10:50:14.999Z</time></trkpt><trkpt lat="46.197848893166864" lon="13.343259611799889"><ele>418.79999999999995</ele><time>2026-04-11T10:50:16Z</time></trkpt><trkpt lat="46.19788323892589" lon="13.343351759895423"><ele>418.59999999999997</ele><time>2026-04-11T10:50:17Z</time></trkpt><trkpt lat="46.197893440273575" lon="13.343493168942178"><ele>418.4</ele><time>2026-04-11T10:50:19Z</time></trkpt><trkpt lat="46.197782547943085" lon="13.34347196945773"><ele>418.2</ele><time>2026-04-11T10:50:21Z</time></trkpt><trkpt lat="46.19777561039803" lon="13.3433380773236"><ele>418.0</ele><time>2026-04-11T10:50:22Z</time></trkpt><trkpt lat="46.19774304025491" lon="13.34320173234945"><ele>418.0</ele><time>2026-04-11T10:50:23Z</time></trkpt><trkpt lat="46.197665028213706" lon="13.343085638464103"><ele>418.0</ele><time>2026-04-11T10:50:24Z</time></trkpt><trkpt lat="46.19758297852413" lon="13.342946427755797"><ele>418.0</ele><time>2026-04-11T10:50:25Z</time></trkpt><trkpt lat="46.19750872865606" lon="13.3428458100663"><ele>418.0</ele><time>2026-04-11T10:50:26Z</time></trkpt><trkpt lat="46.19745534064746" lon="13.342712184051203"><ele>418.0</ele><time>2026-04-11T10:50:27Z</time></trkpt><trkpt lat="46.197416319979574" lon="13.342575818225717"><ele>418.1666666666667</ele><time>2026-04-11T10:50:28Z</time></trkpt><trkpt lat="46.19741653530628" lon="13.342459408210214"><ele>418.33333333333337</ele><time>2026-04-11T10:50:29Z</time></trkpt><trkpt lat="46.1974813612715" lon="13.342384195179173"><ele>418.5</ele><time>2026-04-11T10:50:30Z</time></trkpt><trkpt lat="46.19752701516774" lon="13.342279432944194"><ele>418.66666666666663</ele><time>2026-04-11T10:50:31Z</time></trkpt><trkpt lat="46.197590406010555" lon="13.342175913172415"><ele>418.8333333333333</ele><time>2026-04-11T10:50:32Z</time></trkpt><trkpt lat="46.197616990904585" lon="13.342047095399316"><ele>419.0</ele><time>2026-04-11T10:50:33Z</time></trkpt><trkpt lat="46.19762024231036" lon="13.341922274483881"><ele>418.0</ele><time>2026-04-11T10:50:34Z</time></trkpt><trkpt lat="46.19761269635086" lon="13.341802499072573"><ele>417.0</ele><time>2026-04-11T10:50:35Z</time></trkpt><trkpt lat="46.19757046773757" lon="13.341672761548919"><ele>416.0</ele><time>2026-04-11T10:50:36Z</time></trkpt><trkpt lat="46.197492279491364" lon="13.341571870075297"><ele>415.0</ele><time>2026-04-11T10:50:37Z</time></trkpt><trkpt lat="46.1973841584043" lon="13.341514351034485"><ele>414.0</ele><time>2026-04-11T10:50:38Z</time></trkpt><trkpt lat="46.19727842039872" lon="13.341460059007735"><ele>410.6666666666667</ele><time>2026-04-11T10:50:39Z</time></trkpt><trkpt lat="46.19718918778554" lon="13.341413617713892"><ele>407.33333333333337</ele><time>2026-04-11T10:50:40Z</time></trkpt><trkpt lat="46.19710748659772" lon="13.341356499901018"><ele>404.0</ele><time>2026-04-11T10:50:41Z</time></trkpt><trkpt lat="46.19702803259253" lon="13.341306180887173"><ele>400.6666666666667</ele><time>2026-04-11T10:50:42Z</time></trkpt><trkpt lat="46.196984297217035" lon="13.341197271389547"><ele>397.33333333333337</ele><time>2026-04-11T10:50:43Z</time></trkpt><trkpt lat="46.196976543499765" lon="13.34109509583419"><ele>394.0</ele><time>2026-04-11T10:50:44Z</time></trkpt><trkpt lat="46.197019918163384" lon="13.341005539032043"><ele>393.6</ele><time>2026-04-11T10:50:45Z</time></trkpt><trkpt lat="46.19705819533954" lon="13.3408715831461"><ele>393.2</ele><time>2026-04-11T10:50:46Z</time></trkpt><trkpt lat="46.197132936210075" lon="13.34074662880701"><ele>392.8</ele><time>2026-04-11T10:50:47Z</time></trkpt><trkpt lat="46.197173537621794" lon="13.340605366892525"><ele>392.40000000000003</ele><time>2026-04-11T10:50:48Z</time></trkpt><trkpt lat="46.1971933394946" lon="13.340472064042078"><ele>392.0</ele><time>2026-04-11T10:50:49Z</time></trkpt><trkpt lat="46.19724958247594" lon="13.340368404877701"><ele>393.8</ele><time>2026-04-11T10:50:50Z</time></trkpt><trkpt lat="46.19734918930255" lon="13.34032400407143"><ele>395.6</ele><time>2026-04-11T10:50:51Z</time></trkpt><trkpt lat="46.19743415665262" lon="13.340230104606979"><ele>397.40000000000003</ele><time>2026-04-11T10:50:52Z</time></trkpt><trkpt lat="46.197520733236054" lon="13.340130063745983"><ele>399.20000000000005</ele><time>2026-04-11T10:50:53Z</time></trkpt><trkpt lat="46.19761565721971" lon="13.340022269580242"><ele>401.0</ele><time>2026-04-11T10:50:54Z</time></trkpt><trkpt lat="46.19766377233727" lon="13.339856790335865"><ele>401.0</ele><time>2026-04-11T10:50:55Z</time></trkpt><trkpt lat="46.197722860632055" lon="13.339728191790005"><ele>401.0</ele><time>2026-04-11T10:50:56Z</time></trkpt><trkpt lat="46.19774407669841" lon="13.339587319282039"><ele>401.0</ele><time>2026-04-11T10:50:57Z</time></trkpt><trkpt lat="46.197776376708575" lon="13.339458344739397"><ele>401.0</ele><time>2026-04-11T10:50:58Z</time></trkpt><trkpt lat="46.19781353336923" lon="13.339334549262723"><ele>401.0</ele><time>2026-04-11T10:50:59Z</time></trkpt><trkpt lat="46.19780941681828" lon="13.339199153769167"><ele>400.8</ele><time>2026-04-11T10:51:00Z</time></trkpt><trkpt lat="46.19775494659958" lon="13.339076997495418"><ele>400.6</ele><time>2026-04-11T10:51:01Z</time></trkpt><trkpt lat="46.19772175070885" lon="13.33896540043709"><ele>400.4</ele><time>2026-04-11T10:51:02Z</time></trkpt><trkpt lat="46.19765017872983" lon="13.33887314010672"><ele>400.2</ele><time>2026-04-11T10:51:03Z</time></trkpt><trkpt lat="46.197545426772514" lon="13.338838643575228"><ele>400.0</ele><time>2026-04-11T10:51:04Z</time></trkpt><trkpt lat="46.197433378008796" lon="13.338857774855995"><ele>395.8</ele><time>2026-04-11T10:51:05Z</time></trkpt><trkpt lat="46.197331161782294" lon="13.338944105807348"><ele>391.6</ele><time>2026-04-11T10:51:06Z</time></trkpt><trkpt lat="46.19724255750426" lon="13.339045203971668"><ele>387.4</ele><time>2026-04-11T10:51:07Z</time></trkpt><trkpt lat="46.19716934543924" lon="13.339154407660264"><ele>383.2</ele><time>2026-04-11T10:51:08Z</time></trkpt><trkpt lat="46.19710305214099" lon="13.33924228476778"><ele>379.0</ele><time>2026-04-11T10:51:09Z</time></trkpt><trkpt lat="46.19704303402961" lon="13.33930677419789"><ele>379.0</ele><time>2026-04-11T10:51:10Z</time></trkpt><trkpt lat="46.1969717725924" lon="13.33934479747271"><ele>379.0</ele><time>2026-04-11T10:51:10.999Z</time></trkpt><trkpt lat="46.196878159168186" lon="13.339305478260316"><ele>379.0</ele><time>2026-04-11T10:51:11.999Z</time></trkpt><trkpt lat="46.19676567969057" lon="13.339267051892799"><ele>379.0</ele><time>2026-04-11T10:51:12.999Z</time></trkpt><trkpt lat="46.196653582637495" lon="13.339183274062565"><ele>379.0</ele><time>2026-04-11T10:51:13.999Z</time></trkpt><trkpt lat="46.19655128677578" lon="13.339070575626284"><ele>377.0</ele><time>2026-04-11T10:51:14.999Z</time></trkpt><trkpt lat="46.1964580976254" lon="13.3389473432201"><ele>375.0</ele><time>2026-04-11T10:51:15.999Z</time></trkpt><trkpt lat="46.19637145036746" lon="13.338848654742272"><ele>373.0</ele><time>2026-04-11T10:51:16.999Z</time></trkpt><trkpt lat="46.196282805287616" lon="13.338744889140694"><ele>371.0</ele><time>2026-04-11T10:51:17.999Z</time></trkpt><trkpt lat="46.19618683376502" lon="13.338630707077957"><ele>371.0</ele><time>2026-04-11T10:51:18.999Z</time></trkpt><trkpt lat="46.19611725715549" lon="13.338485781188592"><ele>371.0</ele><time>2026-04-11T10:51:19.999Z</time></trkpt><trkpt lat="46.196031719109286" lon="13.338366256892758"><ele>371.0</ele><time>2026-04-11T10:51:20.999Z</time></trkpt><trkpt lat="46.195950807486426" lon="13.338263580228755"><ele>371.0</ele><time>2026-04-11T10:51:21.999Z</time></trkpt><trkpt lat="46.1958645064834" lon="13.338178691254871"><ele>371.0</ele><time>2026-04-11T10:51:22.999Z</time></trkpt><trkpt lat="46.195766969433436" lon="13.338139337870398"><ele>371.0</ele><time>2026-04-11T10:51:23.999Z</time></trkpt><trkpt lat="46.19567244026689" lon="13.33805972482487"><ele>371.0</ele><time>2026-04-11T10:51:24.999Z</time></trkpt><trkpt lat="46.195580546641004" lon="13.338001962842759"><ele>371.0</ele><time>2026-04-11T10:51:25.999Z</time></trkpt><trkpt lat="46.19549539766301" lon="13.337943863177498"><ele>371.0</ele><time>2026-04-11T10:51:26.999Z</time></trkpt><trkpt lat="46.195458457896976" lon="13.337802661625634"><ele>366.75</ele><time>2026-04-11T10:51:27.999Z</time></trkpt><trkpt lat="46.19541396940157" lon="13.337641412730692"><ele>362.5</ele><time>2026-04-11T10:51:28.999Z</time></trkpt><trkpt lat="46.19537123876987" lon="13.337451976022649"><ele>358.25</ele><time>2026-04-11T10:51:29.999Z</time></trkpt><trkpt lat="46.195334902569684" lon="13.337283378420741"><ele>354.0</ele><time>2026-04-11T10:51:30.999Z</time></trkpt><trkpt lat="46.19530453491129" lon="13.337129706340093"><ele>354.0</ele><time>2026-04-11T10:51:31.999Z</time></trkpt><trkpt lat="46.195282849968045" lon="13.336979499138947"><ele>354.0</ele><time>2026-04-11T10:51:32.999Z</time></trkpt><trkpt lat="46.195268790770214" lon="13.336825452714976"><ele>354.0</ele><time>2026-04-11T10:51:33.999Z</time></trkpt><trkpt lat="46.195257951917576" lon="13.336684733196861"><ele>354.0</ele><time>2026-04-11T10:51:34.999Z</time></trkpt><trkpt lat="46.19525004245721" lon="13.336556118314022"><ele>354.0</ele><time>2026-04-11T10:51:35.999Z</time></trkpt><trkpt lat="46.195241382790066" lon="13.336423268893732"><ele>352.6</ele><time>2026-04-11T10:51:36.999Z</time></trkpt><trkpt lat="46.195271497800206" lon="13.336301556277185"><ele>351.2</ele><time>2026-04-11T10:51:37.999Z</time></trkpt><trkpt lat="46.19532217145535" lon="13.336198372966658"><ele>349.8</ele><time>2026-04-11T10:51:38.999Z</time></trkpt><trkpt lat="46.195395391862114" lon="13.336120572177968"><ele>348.40000000000003</ele><time>2026-04-11T10:51:39.999Z</time></trkpt><trkpt lat="46.19548967411545" lon="13.33607378596191"><ele>347.0</ele><time>2026-04-11T10:51:40.999Z</time></trkpt><trkpt lat="46.195602011262984" lon="13.336057497674984"><ele>350.0</ele><time>2026-04-11T10:51:41.999Z</time></trkpt><trkpt lat="46.1957266332778" lon="13.336038147911843"><ele>353.0</ele><time>2026-04-11T10:51:42.999Z</time></trkpt><trkpt lat="46.195848052157785" lon="13.336008630205942"><ele>356.0</ele><time>2026-04-11T10:51:43.999Z</time></trkpt><trkpt lat="46.19595688216313" lon="13.335955673556459"><ele>359.0</ele><time>2026-04-11T10:51:44.999Z</time></trkpt><trkpt lat="46.19605754233687" lon="13.335895028193496"><ele>359.0</ele><time>2026-04-11T10:51:45.999Z</time></trkpt><trkpt lat="46.19614379980812" lon="13.335832655752785"><ele>359.0</ele><time>2026-04-11T10:51:46.999Z</time></trkpt><trkpt lat="46.19622446197676" lon="13.335757509110431"><ele>359.0</ele><time>2026-04-11T10:51:47.999Z</time></trkpt><trkpt lat="46.19629976305064" lon="13.33569919932821"><ele>359.0</ele><time>2026-04-11T10:51:48.999Z</time></trkpt><trkpt lat="46.1963608019551" lon="13.335645137979476"><ele>359.0</ele><time>2026-04-11T10:51:49.999Z</time></trkpt><trkpt lat="46.196391665759926" lon="13.335491676643512"><ele>359.0</ele><time>2026-04-11T10:51:51.999Z</time></trkpt><trkpt lat="46.19627046216442" lon="13.335443390043634"><ele>359.0</ele><time>2026-04-11T10:51:53.999Z</time></trkpt><trkpt lat="46.196203105081665" lon="13.335529917215503"><ele>359.0</ele><time>2026-04-11T10:51:54.999Z</time></trkpt><trkpt lat="46.196132616218165" lon="13.33564505773328"><ele>359.0</ele><time>2026-04-11T10:51:55.999Z</time></trkpt><trkpt lat="46.19602569702657" lon="13.335739277699542"><ele>359.0</ele><time>2026-04-11T10:51:56.999Z</time></trkpt><trkpt lat="46.19591448084993" lon="13.335788704801441"><ele>359.0</ele><time>2026-04-11T10:51:57.999Z</time></trkpt><trkpt lat="46.1958071656493" lon="13.335811880041268"><ele>359.0</ele><time>2026-04-11T10:51:58.999Z</time></trkpt><trkpt lat="46.19568374619598" lon="13.335763110203581"><ele>359.0</ele><time>2026-04-11T10:51:59.999Z</time></trkpt><trkpt lat="46.19554860042275" lon="13.335692707188693"><ele>359.0</ele><time>2026-04-11T10:52:00.999Z</time></trkpt><trkpt lat="46.195430266621685" lon="13.335622213868328"><ele>356.0</ele><time>2026-04-11T10:52:01.999Z</time></trkpt><trkpt lat="46.195320645953544" lon="13.335578342666016"><ele>353.0</ele><time>2026-04-11T10:52:02.999Z</time></trkpt><trkpt lat="46.19521183072742" lon="13.335581631211264"><ele>350.0</ele><time>2026-04-11T10:52:03.999Z</time></trkpt><trkpt lat="46.195084546023516" lon="13.33560106382265"><ele>347.0</ele><time>2026-04-11T10:52:04.999Z</time></trkpt><trkpt lat="46.19497275212305" lon="13.335589020196558"><ele>347.0</ele><time>2026-04-11T10:52:05.999Z</time></trkpt><trkpt lat="46.19487563732814" lon="13.33558234734423"><ele>347.0</ele><time>2026-04-11T10:52:06.999Z</time></trkpt><trkpt lat="46.1947897626892" lon="13.335592975438647"><ele>347.0</ele><time>2026-04-11T10:52:07.999Z</time></trkpt><trkpt lat="46.19471228711186" lon="13.335647734743926"><ele>347.0</ele><time>2026-04-11T10:52:08.999Z</time></trkpt><trkpt lat="46.19464176266348" lon="13.335752475956236"><ele>347.0</ele><time>2026-04-11T10:52:09.999Z</time></trkpt><trkpt lat="46.19457887769858" lon="13.335921158635012"><ele>342.75</ele><time>2026-04-11T10:52:10.999Z</time></trkpt><trkpt lat="46.19450900405127" lon="13.336104216692965"><ele>338.5</ele><time>2026-04-11T10:52:11.999Z</time></trkpt><trkpt lat="46.19442881421472" lon="13.33623059639824"><ele>334.25</ele><time>2026-04-11T10:52:12.999Z</time></trkpt><trkpt lat="46.194355730204066" lon="13.33634271905218"><ele>330.0</ele><time>2026-04-11T10:52:13.999Z</time></trkpt><trkpt lat="46.19429983829766" lon="13.336458060813893"><ele>330.0</ele><time>2026-04-11T10:52:14.999Z</time></trkpt><trkpt lat="46.19426866255422" lon="13.33658741519137"><ele>330.0</ele><time>2026-04-11T10:52:15.999Z</time></trkpt><trkpt lat="46.19427202884258" lon="13.336717647101567"><ele>330.0</ele><time>2026-04-11T10:52:16.999Z</time></trkpt><trkpt lat="46.19430243741911" lon="13.336854585470274"><ele>330.0</ele><time>2026-04-11T10:52:17.999Z</time></trkpt><trkpt lat="46.194367648289315" lon="13.336981534244536"><ele>330.0</ele><time>2026-04-11T10:52:18.999Z</time></trkpt><trkpt lat="46.19444965428268" lon="13.337082310204398"><ele>330.0</ele><time>2026-04-11T10:52:19.999Z</time></trkpt><trkpt lat="46.194495887803676" lon="13.337182472327942"><ele>330.0</ele><time>2026-04-11T10:52:20.999Z</time></trkpt><trkpt lat="46.194538828645406" lon="13.33731536899576"><ele>330.0</ele><time>2026-04-11T10:52:23Z</time></trkpt><trkpt lat="46.19446488206047" lon="13.33738765397002"><ele>330.0</ele><time>2026-04-11T10:52:25Z</time></trkpt><trkpt lat="46.194372697497656" lon="13.337260115207744"><ele>330.0</ele><time>2026-04-11T10:52:27Z</time></trkpt><trkpt lat="46.19432574514288" lon="13.33716525211797"><ele>330.0</ele><time>2026-04-11T10:52:28Z</time></trkpt><trkpt lat="46.19426560334532" lon="13.337064585127862"><ele>330.0</ele><time>2026-04-11T10:52:29Z</time></trkpt><trkpt lat="46.194196548916906" lon="13.337000129732601"><ele>330.0</ele><time>2026-04-11T10:52:30Z</time></trkpt><trkpt lat="46.1941416644803" lon="13.336945553214598"><ele>330.0</ele><time>2026-04-11T10:52:31Z</time></trkpt><trkpt lat="46.19410444374939" lon="13.336871376548089"><ele>330.0</ele><time>2026-04-11T10:52:32Z</time></trkpt><trkpt lat="46.19409591494869" lon="13.336750713586834"><ele>330.0</ele><time>2026-04-11T10:52:33Z</time></trkpt><trkpt lat="46.194132588202585" lon="13.336616557086561"><ele>330.0</ele><time>2026-04-11T10:52:34Z</time></trkpt><trkpt lat="46.1941727155144" lon="13.336478131211335"><ele>330.0</ele><time>2026-04-11T10:52:35Z</time></trkpt><trkpt lat="46.19421225053602" lon="13.336354615392084"><ele>330.0</ele><time>2026-04-11T10:52:36Z</time></trkpt><trkpt lat="46.194251511341484" lon="13.336241872859242"><ele>330.0</ele><time>2026-04-11T10:52:37Z</time></trkpt><trkpt lat="46.194294715105876" lon="13.336143426805833"><ele>330.0</ele><time>2026-04-11T10:52:38Z</time></trkpt><trkpt lat="46.19433733326708" lon="13.33606190008534"><ele>330.0</ele><time>2026-04-11T10:52:39Z</time></trkpt><trkpt lat="46.19438801424655" lon="13.335911797256193"><ele>328.5</ele><time>2026-04-11T10:52:41Z</time></trkpt><trkpt lat="46.19434095469275" lon="13.33583200829047"><ele>327.0</ele><time>2026-04-11T10:52:42Z</time></trkpt><trkpt lat="46.19427040641158" lon="13.335835016630584"><ele>325.5</ele><time>2026-04-11T10:52:43Z</time></trkpt><trkpt lat="46.194222836886055" lon="13.335971503396413"><ele>324.0</ele><time>2026-04-11T10:52:44Z</time></trkpt><trkpt lat="46.19417592572669" lon="13.336107472111845"><ele>322.5</ele><time>2026-04-11T10:52:45Z</time></trkpt><trkpt lat="46.19413870292689" lon="13.336223357249017"><ele>321.0</ele><time>2026-04-11T10:52:46Z</time></trkpt><trkpt lat="46.194088128671986" lon="13.336367082268785"><ele>321.0</ele><time>2026-04-11T10:52:48Z</time></trkpt><trkpt lat="46.194048937201934" lon="13.336458745644437"><ele>321.0</ele><time>2026-04-11T10:52:50Z</time></trkpt><trkpt lat="46.1939819728579" lon="13.336376344582607"><ele>321.0</ele><time>2026-04-11T10:52:52Z</time></trkpt><trkpt lat="46.193990663998164" lon="13.336275245101884"><ele>321.0</ele><time>2026-04-11T10:52:53Z</time></trkpt><trkpt lat="46.19403650777467" lon="13.336160426814214"><ele>321.0</ele><time>2026-04-11T10:52:54Z</time></trkpt><trkpt lat="46.1940763417706" lon="13.336025351373989"><ele>321.0</ele><time>2026-04-11T10:52:55Z</time></trkpt><trkpt lat="46.19413500350956" lon="13.335871091285245"><ele>321.0</ele><time>2026-04-11T10:52:56Z</time></trkpt><trkpt lat="46.1941796791633" lon="13.335705846264737"><ele>321.0</ele><time>2026-04-11T10:52:57Z</time></trkpt><trkpt lat="46.19421772696473" lon="13.335565116104545"><ele>321.0</ele><time>2026-04-11T10:52:58Z</time></trkpt><trkpt lat="46.19425389428468" lon="13.335435969915222"><ele>321.0</ele><time>2026-04-11T10:52:59Z</time></trkpt><trkpt lat="46.19428883454297" lon="13.33531267188427"><ele>321.0</ele><time>2026-04-11T10:53:00Z</time></trkpt><trkpt lat="46.194326060018945" lon="13.335188803374425"><ele>318.6666666666667</ele><time>2026-04-11T10:53:01Z</time></trkpt><trkpt lat="46.194366540288726" lon="13.335062844290022"><ele>316.3333333333333</ele><time>2026-04-11T10:53:02Z</time></trkpt><trkpt lat="46.19442376288951" lon="13.334957680879574"><ele>314.0</ele><time>2026-04-11T10:53:03Z</time></trkpt><trkpt lat="46.19448454789755" lon="13.334865078529566"><ele>311.66666666666663</ele><time>2026-04-11T10:53:04Z</time></trkpt><trkpt lat="46.19455037773324" lon="13.33478412701166"><ele>309.3333333333333</ele><time>2026-04-11T10:53:05Z</time></trkpt><trkpt lat="46.194617715627885" lon="13.334715118063723"><ele>307.0</ele><time>2026-04-11T10:53:06Z</time></trkpt><trkpt lat="46.19468558231128" lon="13.334653096557298"><ele>305.5</ele><time>2026-04-11T10:53:07Z</time></trkpt><trkpt lat="46.194754107166794" lon="13.334598096433123"><ele>304.0</ele><time>2026-04-11T10:53:08Z</time></trkpt><trkpt lat="46.19479805105513" lon="13.334526299471438"><ele>302.5</ele><time>2026-04-11T10:53:09Z</time></trkpt><trkpt lat="46.19481355258085" lon="13.334428541625792"><ele>301.0</ele><time>2026-04-11T10:53:10Z</time></trkpt><trkpt lat="46.19480566007684" lon="13.33430574520077"><ele>299.5</ele><time>2026-04-11T10:53:11Z</time></trkpt><trkpt lat="46.19475363770256" lon="13.33418136153114"><ele>298.0</ele><time>2026-04-11T10:53:12Z</time></trkpt><trkpt lat="46.19471298596287" lon="13.334069226472014"><ele>298.0</ele><time>2026-04-11T10:53:12.999Z</time></trkpt><trkpt lat="46.19466508249437" lon="13.333971705469287"><ele>298.0</ele><time>2026-04-11T10:53:13.999Z</time></trkpt><trkpt lat="46.19464336536448" lon="13.333849753791533"><ele>298.0</ele><time>2026-04-11T10:53:14.999Z</time></trkpt><trkpt lat="46.194626733626926" lon="13.333708883134777"><ele>298.0</ele><time>2026-04-11T10:53:15.999Z</time></trkpt><trkpt lat="46.19464284262429" lon="13.333551287605403"><ele>298.0</ele><time>2026-04-11T10:53:16.999Z</time></trkpt><trkpt lat="46.19464284262721" lon="13.333379423936591"><ele>294.5</ele><time>2026-04-11T10:53:17.999Z</time></trkpt><trkpt lat="46.19464727913632" lon="13.333195283990026"><ele>291.0</ele><time>2026-04-11T10:53:18.999Z</time></trkpt><trkpt lat="46.194644610759035" lon="13.333016289293253"><ele>287.5</ele><time>2026-04-11T10:53:19.999Z</time></trkpt><trkpt lat="46.19467647273162" lon="13.3328605074126"><ele>284.0</ele><time>2026-04-11T10:53:20.999Z</time></trkpt><trkpt lat="46.19472427500236" lon="13.332701085395476"><ele>283.4</ele><time>2026-04-11T10:53:21.999Z</time></trkpt><trkpt lat="46.19477621279579" lon="13.332535997941784"><ele>282.79999999999995</ele><time>2026-04-11T10:53:22.999Z</time></trkpt><trkpt lat="46.194828687329135" lon="13.332399544554303"><ele>282.20000000000005</ele><time>2026-04-11T10:53:23.999Z</time></trkpt><trkpt lat="46.194857723608344" lon="13.332263848102441"><ele>281.6</ele><time>2026-04-11T10:53:24.999Z</time></trkpt><trkpt lat="46.1948854521623" lon="13.332130365033086"><ele>281.0</ele><time>2026-04-11T10:53:25.999Z</time></trkpt><trkpt lat="46.19491321598153" lon="13.332008544321459"><ele>281.0</ele><time>2026-04-11T10:53:26.999Z</time></trkpt><trkpt lat="46.194951082135546" lon="13.331881275282306"><ele>281.0</ele><time>2026-04-11T10:53:27.999Z</time></trkpt><trkpt lat="46.19504171560488" lon="13.331779675146187"><ele>281.0</ele><time>2026-04-11T10:53:28.999Z</time></trkpt><trkpt lat="46.195121047643106" lon="13.331672713704604"><ele>281.0</ele><time>2026-04-11T10:53:29.999Z</time></trkpt><trkpt lat="46.19519209186005" lon="13.33157705925054"><ele>281.0</ele><time>2026-04-11T10:53:30.999Z</time></trkpt><trkpt lat="46.195252229115255" lon="13.331486575409619"><ele>281.00000000000006</ele><time>2026-04-11T10:53:31.999Z</time></trkpt><trkpt lat="46.195308777595294" lon="13.331412886217715"><ele>281.0</ele><time>2026-04-11T10:53:32.999Z</time></trkpt><trkpt lat="46.195372047815326" lon="13.331356971906633"><ele>281.0</ele><time>2026-04-11T10:53:33.999Z</time></trkpt><trkpt lat="46.19545335223754" lon="13.331374302779016"><ele>281.0</ele><time>2026-04-11T10:53:34.999Z</time></trkpt><trkpt lat="46.19552341786378" lon="13.33142959163718"><ele>281.0</ele><time>2026-04-11T10:53:35.999Z</time></trkpt><trkpt lat="46.19559164872389" lon="13.331445449338215"><ele>281.00000000000006</ele><time>2026-04-11T10:53:36.999Z</time></trkpt><trkpt lat="46.19565593068366" lon="13.331420132162766"><ele>281.0</ele><time>2026-04-11T10:53:37.999Z</time></trkpt><trkpt lat="46.195660576961366" lon="13.331253262055835"><ele>281.0</ele><time>2026-04-11T10:53:38.999Z</time></trkpt><trkpt lat="46.19566205570796" lon="13.331099475764061"><ele>281.0</ele><time>2026-04-11T10:53:39.999Z</time></trkpt><trkpt lat="46.19566354763736" lon="13.330971295057154"><ele>281.0</ele><time>2026-04-11T10:53:40.999Z</time></trkpt><trkpt lat="46.195679993177684" lon="13.330854125444453"><ele>281.0</ele><time>2026-04-11T10:53:41.999Z</time></trkpt><trkpt lat="46.19571728422666" lon="13.33075051804589"><ele>281.0</ele><time>2026-04-11T10:53:42.999Z</time></trkpt><trkpt lat="46.19573833953961" lon="13.330631774400754"><ele>281.0</ele><time>2026-04-11T10:53:43.999Z</time></trkpt><trkpt lat="46.195768191441346" lon="13.330516710596935"><ele>279.5</ele><time>2026-04-11T10:53:44.999Z</time></trkpt><trkpt lat="46.195783462503144" lon="13.330387901789447"><ele>278.0</ele><time>2026-04-11T10:53:45.999Z</time></trkpt><trkpt lat="46.19578193588519" lon="13.330259433382052"><ele>276.5</ele><time>2026-04-11T10:53:46.999Z</time></trkpt><trkpt lat="46.195761700345564" lon="13.330138581628821"><ele>275.0</ele><time>2026-04-11T10:53:47.999Z</time></trkpt><trkpt lat="46.195732942008874" lon="13.330025902195462"><ele>273.5</ele><time>2026-04-11T10:53:48.999Z</time></trkpt><trkpt lat="46.195722521331305" lon="13.329904674751853"><ele>272.0</ele><time>2026-04-11T10:53:49.999Z</time></trkpt><trkpt lat="46.195698579740636" lon="13.329786878410852"><ele>270.4</ele><time>2026-04-11T10:53:50.999Z</time></trkpt><trkpt lat="46.1957388333499" lon="13.329675684371868"><ele>268.79999999999995</ele><time>2026-04-11T10:53:51.999Z</time></trkpt><trkpt lat="46.19578584687783" lon="13.329573013028982"><ele>267.2</ele><time>2026-04-11T10:53:52.999Z</time></trkpt><trkpt lat="46.19584435899383" lon="13.329463604774615"><ele>265.59999999999997</ele><time>2026-04-11T10:53:53.999Z</time></trkpt><trkpt lat="46.195904602551636" lon="13.329353563823787"><ele>264.0</ele><time>2026-04-11T10:53:54.999Z</time></trkpt><trkpt lat="46.19596032051028" lon="13.32925533961682"><ele>264.0</ele><time>2026-04-11T10:53:55.999Z</time></trkpt><trkpt lat="46.19601032555752" lon="13.329170755381218"><ele>264.0</ele><time>2026-04-11T10:53:56.999Z</time></trkpt><trkpt lat="46.19605664076254" lon="13.329090438657923"><ele>264.0</ele><time>2026-04-11T10:53:57.999Z</time></trkpt><trkpt lat="46.1960992564315" lon="13.329007468080576"><ele>264.0</ele><time>2026-04-11T10:53:58.999Z</time></trkpt><trkpt lat="46.19612503382862" lon="13.328917920485365"><ele>264.0</ele><time>2026-04-11T10:53:59.999Z</time></trkpt><trkpt lat="46.1961206478409" lon="13.328818550307188"><ele>264.0</ele><time>2026-04-11T10:54:00.999Z</time></trkpt><trkpt lat="46.19606572274113" lon="13.32873236658855"><ele>264.0</ele><time>2026-04-11T10:54:01.999Z</time></trkpt><trkpt lat="46.19597387950936" lon="13.328731953296284"><ele>264.0</ele><time>2026-04-11T10:54:02.999Z</time></trkpt><trkpt lat="46.19589466952056" lon="13.328763814925209"><ele>264.0</ele><time>2026-04-11T10:54:03.999Z</time></trkpt><trkpt lat="46.19582607093233" lon="13.328832855286773"><ele>264.0</ele><time>2026-04-11T10:54:04.999Z</time></trkpt><trkpt lat="46.19577160769735" lon="13.328926665486092"><ele>264.0</ele><time>2026-04-11T10:54:05.999Z</time></trkpt><trkpt lat="46.19571168326399" lon="13.328995082833895"><ele>264.0</ele><time>2026-04-11T10:54:06.999Z</time></trkpt><trkpt lat="46.19565411103956" lon="13.329052068014867"><ele>264.0</ele><time>2026-04-11T10:54:07.999Z</time></trkpt><trkpt lat="46.195572278756686" lon="13.329025143568714"><ele>264.0</ele><time>2026-04-11T10:54:08.999Z</time></trkpt><trkpt lat="46.195476251827856" lon="13.328980606923311"><ele>264.0</ele><time>2026-04-11T10:54:09.999Z</time></trkpt><trkpt lat="46.19538827581232" lon="13.328968464834693"><ele>264.0</ele><time>2026-04-11T10:54:10.999Z</time></trkpt><trkpt lat="46.195304010099434" lon="13.328958599112209"><ele>264.0</ele><time>2026-04-11T10:54:11.999Z</time></trkpt><trkpt lat="46.19522452571559" lon="13.32894749601334"><ele>264.0</ele><time>2026-04-11T10:54:12.999Z</time></trkpt><trkpt lat="46.195159175660095" lon="13.328936377814134"><ele>264.0</ele><time>2026-04-11T10:54:13.999Z</time></trkpt><trkpt lat="46.19507630859238" lon="13.328817095490376"><ele>264.0</ele><time>2026-04-11T10:54:15.999Z</time></trkpt><trkpt lat="46.19514053808736" lon="13.328684612996584"><ele>264.0</ele><time>2026-04-11T10:54:17.999Z</time></trkpt><trkpt lat="46.19521867780529" lon="13.328533335920506"><ele>264.0</ele><time>2026-04-11T10:54:19.999Z</time></trkpt><trkpt lat="46.19527651855107" lon="13.328465142878596"><ele>264.0</ele><time>2026-04-11T10:54:20.999Z</time></trkpt><trkpt lat="46.195316918892686" lon="13.32838119657732"><ele>264.0</ele><time>2026-04-11T10:54:21.999Z</time></trkpt><trkpt lat="46.195331661740454" lon="13.328284220750836"><ele>264.0</ele><time>2026-04-11T10:54:22.999Z</time></trkpt><trkpt lat="46.195350102151465" lon="13.32817106776517"><ele>264.0</ele><time>2026-04-11T10:54:23.999Z</time></trkpt><trkpt lat="46.19534350268104" lon="13.328051834611"><ele>264.0</ele><time>2026-04-11T10:54:24.999Z</time></trkpt><trkpt lat="46.19532056416534" lon="13.32793618841894"><ele>264.0</ele><time>2026-04-11T10:54:25.999Z</time></trkpt><trkpt lat="46.19532668498476" lon="13.32779374250022"><ele>264.0</ele><time>2026-04-11T10:54:26.999Z</time></trkpt><trkpt lat="46.195308304738425" lon="13.32760605800779"><ele>263.75</ele><time>2026-04-11T10:54:28Z</time></trkpt><trkpt lat="46.195269197732514" lon="13.32739740272918"><ele>263.5</ele><time>2026-04-11T10:54:29Z</time></trkpt><trkpt lat="46.19525003720279" lon="13.327186907672244"><ele>263.25</ele><time>2026-04-11T10:54:30Z</time></trkpt><trkpt lat="46.19524076826759" lon="13.326970400367307"><ele>263.0</ele><time>2026-04-11T10:54:31Z</time></trkpt><trkpt lat="46.19522977999442" lon="13.32674426519595"><ele>260.6666666666667</ele><time>2026-04-11T10:54:32Z</time></trkpt><trkpt lat="46.19521635242733" lon="13.326504274379715"><ele>258.3333333333333</ele><time>2026-04-11T10:54:33Z</time></trkpt><trkpt lat="46.19519935134836" lon="13.326266999689285"><ele>256.0</ele><time>2026-04-11T10:54:34Z</time></trkpt><trkpt lat="46.195172797651054" lon="13.326061592946589"><ele>253.75</ele><time>2026-04-11T10:54:35Z</time></trkpt><trkpt lat="46.19513818876373" lon="13.325867352946833"><ele>251.5</ele><time>2026-04-11T10:54:36Z</time></trkpt><trkpt lat="46.19508996013599" lon="13.325651731984134"><ele>249.25</ele><time>2026-04-11T10:54:37Z</time></trkpt><trkpt lat="46.195043769429596" lon="13.325442098463304"><ele>247.0</ele><time>2026-04-11T10:54:38Z</time></trkpt><trkpt lat="46.19498935422943" lon="13.325270266883113"><ele>246.0</ele><time>2026-04-11T10:54:39Z</time></trkpt><trkpt lat="46.1949299729218" lon="13.325088572410566"><ele>245.0</ele><time>2026-04-11T10:54:40Z</time></trkpt><trkpt lat="46.19486628128907" lon="13.324898607412171"><ele>244.0</ele><time>2026-04-11T10:54:41Z</time></trkpt><trkpt lat="46.1947985499637" lon="13.324699425166434"><ele>243.0</ele><time>2026-04-11T10:54:42Z</time></trkpt><trkpt lat="46.19472242545363" lon="13.32448139084734"><ele>243.0</ele><time>2026-04-11T10:54:43Z</time></trkpt><trkpt lat="46.19463836349731" lon="13.324243083973135"><ele>243.0</ele><time>2026-04-11T10:54:44Z</time></trkpt><trkpt lat="46.19456222919299" lon="13.324023000211698"><ele>243.0</ele><time>2026-04-11T10:54:45Z</time></trkpt><trkpt lat="46.19449604476192" lon="13.323827859133926"><ele>241.0</ele><time>2026-04-11T10:54:46Z</time></trkpt><trkpt lat="46.1944296384278" lon="13.32362636755591"><ele>239.0</ele><time>2026-04-11T10:54:47Z</time></trkpt><trkpt lat="46.19436261261318" lon="13.323422488890708"><ele>237.0</ele><time>2026-04-11T10:54:48Z</time></trkpt><trkpt lat="46.194293492569884" lon="13.323211368488858"><ele>236.66666666666669</ele><time>2026-04-11T10:54:49Z</time></trkpt><trkpt lat="46.19422465257126" lon="13.32300110340479"><ele>236.33333333333334</ele><time>2026-04-11T10:54:50Z</time></trkpt><trkpt lat="46.19415560578487" lon="13.32279671637105"><ele>236.0</ele><time>2026-04-11T10:54:51Z</time></trkpt><trkpt lat="46.19408819205874" lon="13.322598965749638"><ele>236.0</ele><time>2026-04-11T10:54:52Z</time></trkpt><trkpt lat="46.19402107734224" lon="13.322403450304856"><ele>236.0</ele><time>2026-04-11T10:54:53Z</time></trkpt><trkpt lat="46.193955311687404" lon="13.322211873257716"><ele>236.0</ele><time>2026-04-11T10:54:54Z</time></trkpt><trkpt lat="46.19388723831326" lon="13.322016368700199"><ele>234.0</ele><time>2026-04-11T10:54:55Z</time></trkpt><trkpt lat="46.193815662050326" lon="13.321818652101394"><ele>232.0</ele><time>2026-04-11T10:54:56Z</time></trkpt><trkpt lat="46.193742765710596" lon="13.321624928746454"><ele>230.0</ele><time>2026-04-11T10:54:57Z</time></trkpt><trkpt lat="46.19366687319862" lon="13.321432082199726"><ele>229.66666666666669</ele><time>2026-04-11T10:54:58Z</time></trkpt><trkpt lat="46.193591009758144" lon="13.321244397019605"><ele>229.33333333333331</ele><time>2026-04-11T10:54:59Z</time></trkpt><trkpt lat="46.19351348913254" lon="13.321053058934808"><ele>229.0</ele><time>2026-04-11T10:55:00Z</time></trkpt><trkpt lat="46.193435084635354" lon="13.320859539302198"><ele>229.0</ele><time>2026-04-11T10:55:01Z</time></trkpt><trkpt lat="46.19334167335279" lon="13.320675684352597"><ele>229.0</ele><time>2026-04-11T10:55:02Z</time></trkpt><trkpt lat="46.193267384867156" lon="13.320468797183285"><ele>229.0</ele><time>2026-04-11T10:55:03Z</time></trkpt><trkpt lat="46.19318715138578" lon="13.32026538515993"><ele>228.33333333333331</ele><time>2026-04-11T10:55:04Z</time></trkpt><trkpt lat="46.19310558163273" lon="13.320067308962576"><ele>227.66666666666669</ele><time>2026-04-11T10:55:05Z</time></trkpt><trkpt lat="46.193023707448496" lon="13.319877216016014"><ele>227.0</ele><time>2026-04-11T10:55:06Z</time></trkpt><trkpt lat="46.19294787445577" lon="13.319687848254153"><ele>226.0</ele><time>2026-04-11T10:55:07Z</time></trkpt><trkpt lat="46.19287646433738" lon="13.319506229702196"><ele>225.0</ele><time>2026-04-11T10:55:08Z</time></trkpt><trkpt lat="46.19280010611374" lon="13.319323056574953"><ele>224.0</ele><time>2026-04-11T10:55:09Z</time></trkpt><trkpt lat="46.19272193084309" lon="13.319130198601668"><ele>223.0</ele><time>2026-04-11T10:55:10Z</time></trkpt><trkpt lat="46.192642247775865" lon="13.318926720977762"><ele>222.0</ele><time>2026-04-11T10:55:11Z</time></trkpt><trkpt lat="46.19256177829917" lon="13.318724521478646"><ele>221.0</ele><time>2026-04-11T10:55:12Z</time></trkpt><trkpt lat="46.19249359875925" lon="13.318533401002727"><ele>220.0</ele><time>2026-04-11T10:55:12.999Z</time></trkpt><trkpt lat="46.19243252095091" lon="13.31834784384343"><ele>220.0</ele><time>2026-04-11T10:55:13.999Z</time></trkpt><trkpt lat="46.192377097634036" lon="13.318160049859475"><ele>220.0</ele><time>2026-04-11T10:55:14.999Z</time></trkpt><trkpt lat="46.19232898485652" lon="13.31796593381951"><ele>220.0</ele><time>2026-04-11T10:55:15.999Z</time></trkpt><trkpt lat="46.1922947403159" lon="13.317761330341224"><ele>220.0</ele><time>2026-04-11T10:55:16.999Z</time></trkpt><trkpt lat="46.19226926598277" lon="13.317549760417489"><ele>219.33333333333331</ele><time>2026-04-11T10:55:17.999Z</time></trkpt><trkpt lat="46.192245066600165" lon="13.317333493659373"><ele>218.66666666666669</ele><time>2026-04-11T10:55:18.999Z</time></trkpt><trkpt lat="46.192230044404674" lon="13.317115297094244"><ele>218.0</ele><time>2026-04-11T10:55:19.999Z</time></trkpt><trkpt lat="46.19222099239817" lon="13.316892342625193"><ele>217.75</ele><time>2026-04-11T10:55:20.999Z</time></trkpt><trkpt lat="46.192216587540045" lon="13.316672219974643"><ele>217.5</ele><time>2026-04-11T10:55:21.999Z</time></trkpt><trkpt lat="46.19221514686667" lon="13.316457846631918"><ele>217.25</ele><time>2026-04-11T10:55:22.999Z</time></trkpt><trkpt lat="46.192211720948926" lon="13.31624766939395"><ele>217.0</ele><time>2026-04-11T10:55:23.999Z</time></trkpt><trkpt lat="46.19221192041249" lon="13.316056605177833"><ele>217.0</ele><time>2026-04-11T10:55:24.999Z</time></trkpt><trkpt lat="46.19220466756707" lon="13.315866979153487"><ele>217.0</ele><time>2026-04-11T10:55:25.999Z</time></trkpt><trkpt lat="46.192187623650334" lon="13.31567789538298"><ele>217.0</ele><time>2026-04-11T10:55:26.999Z</time></trkpt><trkpt lat="46.19214661630655" lon="13.315486582653508"><ele>217.0</ele><time>2026-04-11T10:55:27.999Z</time></trkpt><trkpt lat="46.19209049064007" lon="13.315285466069772"><ele>216.5</ele><time>2026-04-11T10:55:28.999Z</time></trkpt><trkpt lat="46.19203850347397" lon="13.315075801207596"><ele>216.0</ele><time>2026-04-11T10:55:29.999Z</time></trkpt><trkpt lat="46.19198033607981" lon="13.314882138814532"><ele>215.5</ele><time>2026-04-11T10:55:30.999Z</time></trkpt><trkpt lat="46.191936128309386" lon="13.314685783818014"><ele>215.0</ele><time>2026-04-11T10:55:31.999Z</time></trkpt><trkpt lat="46.191909038362475" lon="13.314485828064878"><ele>214.5</ele><time>2026-04-11T10:55:32.999Z</time></trkpt><trkpt lat="46.191888131744925" lon="13.31427838943748"><ele>214.0</ele><time>2026-04-11T10:55:33.999Z</time></trkpt><trkpt lat="46.19186818341037" lon="13.314074580343512"><ele>213.5</ele><time>2026-04-11T10:55:34.999Z</time></trkpt><trkpt lat="46.19184939430577" lon="13.313882981090664"><ele>213.0</ele><time>2026-04-11T10:55:35.999Z</time></trkpt><trkpt lat="46.19182907700731" lon="13.313707243018714"><ele>212.5</ele><time>2026-04-11T10:55:36.999Z</time></trkpt><trkpt lat="46.19180254583148" lon="13.313536761061979"><ele>212.0</ele><time>2026-04-11T10:55:37.999Z</time></trkpt><trkpt lat="46.19177667145647" lon="13.31337720833977"><ele>211.5</ele><time>2026-04-11T10:55:38.999Z</time></trkpt><trkpt lat="46.19174926088553" lon="13.313208182534344"><ele>211.0</ele><time>2026-04-11T10:55:39.999Z</time></trkpt><trkpt lat="46.191718734140316" lon="13.313020804001713"><ele>211.0</ele><time>2026-04-11T10:55:40.999Z</time></trkpt><trkpt lat="46.19168740006912" lon="13.312828590582395"><ele>211.0</ele><time>2026-04-11T10:55:41.999Z</time></trkpt><trkpt lat="46.19165772683833" lon="13.312646565326935"><ele>211.0</ele><time>2026-04-11T10:55:42.999Z</time></trkpt><trkpt lat="46.19163082744737" lon="13.312476724187785"><ele>211.0</ele><time>2026-04-11T10:55:43.999Z</time></trkpt><trkpt lat="46.191603811342326" lon="13.312304780266793"><ele>210.0</ele><time>2026-04-11T10:55:44.999Z</time></trkpt><trkpt lat="46.1915771981028" lon="13.312135400460134"><ele>209.0</ele><time>2026-04-11T10:55:45.999Z</time></trkpt><trkpt lat="46.19155053399087" lon="13.311962979638293"><ele>208.0</ele><time>2026-04-11T10:55:46.999Z</time></trkpt><trkpt lat="46.19152377229372" lon="13.311788328807166"><ele>207.0</ele><time>2026-04-11T10:55:47.999Z</time></trkpt><trkpt lat="46.19149637490659" lon="13.311614881701704"><ele>207.0</ele><time>2026-04-11T10:55:48.999Z</time></trkpt><trkpt lat="46.1914450725064" lon="13.311446699317612"><ele>207.0</ele><time>2026-04-11T10:55:49.999Z</time></trkpt><trkpt lat="46.1914053885237" lon="13.31126020200892"><ele>207.0</ele><time>2026-04-11T10:55:50.999Z</time></trkpt><trkpt lat="46.19137457051707" lon="13.31105659368975"><ele>207.0</ele><time>2026-04-11T10:55:51.999Z</time></trkpt><trkpt lat="46.19131240270021" lon="13.310854153216908"><ele>206.0</ele><time>2026-04-11T10:55:52.999Z</time></trkpt><trkpt lat="46.19123957568181" lon="13.310642608350728"><ele>205.0</ele><time>2026-04-11T10:55:53.999Z</time></trkpt><trkpt lat="46.19116695628424" lon="13.310436410942492"><ele>204.0</ele><time>2026-04-11T10:55:54.999Z</time></trkpt><trkpt lat="46.191084014012155" lon="13.310221710857027"><ele>203.75</ele><time>2026-04-11T10:55:55.999Z</time></trkpt><trkpt lat="46.19100357391453" lon="13.310038397681165"><ele>203.5</ele><time>2026-04-11T10:55:56.999Z</time></trkpt><trkpt lat="46.19092770685537" lon="13.309876592650467"><ele>203.25</ele><time>2026-04-11T10:55:57.999Z</time></trkpt><trkpt lat="46.190853072616584" lon="13.309723067048697"><ele>203.0</ele><time>2026-04-11T10:55:58.999Z</time></trkpt><trkpt lat="46.19076479215918" lon="13.30956805395015"><ele>202.75</ele><time>2026-04-11T10:55:59.999Z</time></trkpt><trkpt lat="46.190675209100355" lon="13.309424436669369"><ele>202.5</ele><time>2026-04-11T10:56:00.999Z</time></trkpt><trkpt lat="46.19059284714201" lon="13.30929641275283"><ele>202.25</ele><time>2026-04-11T10:56:01.999Z</time></trkpt><trkpt lat="46.190512407987555" lon="13.309174443146"><ele>202.0</ele><time>2026-04-11T10:56:02.999Z</time></trkpt><trkpt lat="46.19042967426907" lon="13.309049692187823"><ele>202.0</ele><time>2026-04-11T10:56:03.999Z</time></trkpt><trkpt lat="46.19035112277127" lon="13.308944476824658"><ele>202.0</ele><time>2026-04-11T10:56:04.999Z</time></trkpt><trkpt lat="46.190278662309446" lon="13.308841168277551"><ele>202.0</ele><time>2026-04-11T10:56:05.999Z</time></trkpt><trkpt lat="46.19022441731518" lon="13.308710769775598"><ele>202.0</ele><time>2026-04-11T10:56:06.999Z</time></trkpt><trkpt lat="46.19017227357782" lon="13.308559489049637"><ele>202.0</ele><time>2026-04-11T10:56:07.999Z</time></trkpt><trkpt lat="46.19011615812574" lon="13.308406494924325"><ele>201.8</ele><time>2026-04-11T10:56:08.999Z</time></trkpt><trkpt lat="46.1900639483318" lon="13.308276868585885"><ele>201.6</ele><time>2026-04-11T10:56:09.999Z</time></trkpt><trkpt lat="46.190015552242556" lon="13.308147023816996"><ele>201.4</ele><time>2026-04-11T10:56:10.999Z</time></trkpt><trkpt lat="46.18991396111921" lon="13.308056770842645"><ele>201.20000000000002</ele><time>2026-04-11T10:56:11.999Z</time></trkpt><trkpt lat="46.18982370841935" lon="13.307954349466911"><ele>201.0</ele><time>2026-04-11T10:56:12.999Z</time></trkpt><trkpt lat="46.189732470690295" lon="13.307852916948862"><ele>200.25</ele><time>2026-04-11T10:56:13.999Z</time></trkpt><trkpt lat="46.18964323089252" lon="13.307753316667323"><ele>199.5</ele><time>2026-04-11T10:56:14.999Z</time></trkpt><trkpt lat="46.18955258425801" lon="13.307652266352457"><ele>198.75</ele><time>2026-04-11T10:56:15.999Z</time></trkpt><trkpt lat="46.18945808996756" lon="13.307544673546815"><ele>198.0</ele><time>2026-04-11T10:56:16.999Z</time></trkpt><trkpt lat="46.189363738152615" lon="13.307440127284654"><ele>198.0</ele><time>2026-04-11T10:56:17.999Z</time></trkpt><trkpt lat="46.18926835428759" lon="13.307334988712434"><ele>198.0</ele><time>2026-04-11T10:56:18.999Z</time></trkpt><trkpt lat="46.189174380574606" lon="13.307227414570232"><ele>198.0</ele><time>2026-04-11T10:56:19.999Z</time></trkpt><trkpt lat="46.189078560663724" lon="13.307121635081565"><ele>198.0</ele><time>2026-04-11T10:56:20.999Z</time></trkpt><trkpt lat="46.18898413800924" lon="13.307015175408624"><ele>197.60000000000002</ele><time>2026-04-11T10:56:21.999Z</time></trkpt><trkpt lat="46.18889019966681" lon="13.306904680484804"><ele>197.20000000000002</ele><time>2026-04-11T10:56:22.999Z</time></trkpt><trkpt lat="46.18880057574527" lon="13.306798889513725"><ele>196.8</ele><time>2026-04-11T10:56:23.999Z</time></trkpt><trkpt lat="46.18871795513438" lon="13.306707050246777"><ele>196.4</ele><time>2026-04-11T10:56:24.999Z</time></trkpt><trkpt lat="46.188643479771024" lon="13.306615603901262"><ele>196.0</ele><time>2026-04-11T10:56:25.999Z</time></trkpt><trkpt lat="46.18857148552906" lon="13.30653100254015"><ele>195.99999999999997</ele><time>2026-04-11T10:56:26.999Z</time></trkpt><trkpt lat="46.18851293839299" lon="13.30645771235722"><ele>196.0</ele><time>2026-04-11T10:56:27.999Z</time></trkpt><trkpt lat="46.18846003321895" lon="13.306385837808955"><ele>196.0</ele><time>2026-04-11T10:56:28.999Z</time></trkpt><trkpt lat="46.18841124365398" lon="13.306322679214862"><ele>196.0</ele><time>2026-04-11T10:56:29.999Z</time></trkpt><trkpt lat="46.188328767395376" lon="13.306217867831137"><ele>195.99999999999997</ele><time>2026-04-11T10:56:31.999Z</time></trkpt><trkpt lat="46.188272669760366" lon="13.306137842000052"><ele>196.0</ele><time>2026-04-11T10:56:34Z</time></trkpt><trkpt lat="46.188328770208635" lon="13.30597293855248"><ele>195.8</ele><time>2026-04-11T10:56:37Z</time></trkpt><trkpt lat="46.1883954814457" lon="13.30592726826576"><ele>195.60000000000002</ele><time>2026-04-11T10:56:38Z</time></trkpt><trkpt lat="46.18846537519515" lon="13.305829957654442"><ele>195.4</ele><time>2026-04-11T10:56:39Z</time></trkpt><trkpt lat="46.18856676706489" lon="13.305739257422056"><ele>195.2</ele><time>2026-04-11T10:56:40Z</time></trkpt><trkpt lat="46.18869040779745" lon="13.305654058364281"><ele>195.0</ele><time>2026-04-11T10:56:41Z</time></trkpt><trkpt lat="46.1888254863985" lon="13.305599536778223"><ele>194.8</ele><time>2026-04-11T10:56:42Z</time></trkpt><trkpt lat="46.18895591619135" lon="13.305576726662277"><ele>194.6</ele><time>2026-04-11T10:56:43Z</time></trkpt><trkpt lat="46.18907051715714" lon="13.305571794215544"><ele>194.39999999999998</ele><time>2026-04-11T10:56:44Z</time></trkpt><trkpt lat="46.18916621065094" lon="13.305576147481494"><ele>194.2</ele><time>2026-04-11T10:56:45Z</time></trkpt><trkpt lat="46.18925661010754" lon="13.305579524155695"><ele>194.0</ele><time>2026-04-11T10:56:46Z</time></trkpt><trkpt lat="46.18935301946262" lon="13.3055753576384"><ele>194.39999999999998</ele><time>2026-04-11T10:56:47Z</time></trkpt><trkpt lat="46.189450683283795" lon="13.3055598385797"><ele>194.8</ele><time>2026-04-11T10:56:48Z</time></trkpt><trkpt lat="46.18954972241338" lon="13.305527113753072"><ele>195.2</ele><time>2026-04-11T10:56:49Z</time></trkpt><trkpt lat="46.18964490323853" lon="13.30545717959833"><ele>195.60000000000002</ele><time>2026-04-11T10:56:50Z</time></trkpt><trkpt lat="46.18973517102935" lon="13.305338602180404"><ele>196.0</ele><time>2026-04-11T10:56:51Z</time></trkpt><trkpt lat="46.1898203810443" lon="13.305172770221308"><ele>196.66666666666666</ele><time>2026-04-11T10:56:52Z</time></trkpt><trkpt lat="46.189908742895405" lon="13.304964546437787"><ele>197.33333333333331</ele><time>2026-04-11T10:56:53Z</time></trkpt><trkpt lat="46.190012331383734" lon="13.3047536331537"><ele>198.0</ele><time>2026-04-11T10:56:54Z</time></trkpt><trkpt lat="46.19014227786163" lon="13.304543236209396"><ele>196.66666666666669</ele><time>2026-04-11T10:56:55Z</time></trkpt><trkpt lat="46.190231097821155" lon="13.304353634997787"><ele>195.33333333333334</ele><time>2026-04-11T10:56:56Z</time></trkpt><trkpt lat="46.19035664209183" lon="13.304214986013225"><ele>194.0</ele><time>2026-04-11T10:56:57Z</time></trkpt><trkpt lat="46.19048414681947" lon="13.304034880444442"><ele>194.0</ele><time>2026-04-11T10:56:58Z</time></trkpt><trkpt lat="46.190647233624915" lon="13.303881118723039"><ele>194.0</ele><time>2026-04-11T10:56:59Z</time></trkpt><trkpt lat="46.19083835988453" lon="13.303731856790534"><ele>194.0</ele><time>2026-04-11T10:57:00Z</time></trkpt><trkpt lat="46.191055721793006" lon="13.303611880045995"><ele>194.0</ele><time>2026-04-11T10:57:01Z</time></trkpt><trkpt lat="46.19123291824561" lon="13.303500776925278"><ele>194.0</ele><time>2026-04-11T10:57:02Z</time></trkpt><trkpt lat="46.191389966538" lon="13.303399365826172"><ele>194.0</ele><time>2026-04-11T10:57:03Z</time></trkpt><trkpt lat="46.19155783025042" lon="13.303283953441765"><ele>194.66666666666669</ele><time>2026-04-11T10:57:04Z</time></trkpt><trkpt lat="46.191728977896005" lon="13.30314928329886"><ele>195.33333333333331</ele><time>2026-04-11T10:57:05Z</time></trkpt><trkpt lat="46.191909398352124" lon="13.302982582418776"><ele>196.0</ele><time>2026-04-11T10:57:06Z</time></trkpt><trkpt lat="46.19209125708602" lon="13.302790434344809"><ele>196.0</ele><time>2026-04-11T10:57:07Z</time></trkpt><trkpt lat="46.19226821223966" lon="13.30260007453816"><ele>196.0</ele><time>2026-04-11T10:57:08Z</time></trkpt><trkpt lat="46.19244392154082" lon="13.302407075062337"><ele>196.0</ele><time>2026-04-11T10:57:09Z</time></trkpt><trkpt lat="46.19261655626683" lon="13.302214282409514"><ele>194.66666666666666</ele><time>2026-04-11T10:57:10Z</time></trkpt><trkpt lat="46.192786876674774" lon="13.302026375835176"><ele>193.33333333333331</ele><time>2026-04-11T10:57:11Z</time></trkpt><trkpt lat="46.19295762702039" lon="13.301839338529435"><ele>192.0</ele><time>2026-04-11T10:57:12Z</time></trkpt><trkpt lat="46.193129421540085" lon="13.30165028986686"><ele>192.66666666666669</ele><time>2026-04-11T10:57:13Z</time></trkpt><trkpt lat="46.193301274141966" lon="13.301456783711483"><ele>193.33333333333334</ele><time>2026-04-11T10:57:14Z</time></trkpt><trkpt lat="46.193464897229305" lon="13.301279707738006"><ele>194.0</ele><time>2026-04-11T10:57:15Z</time></trkpt><trkpt lat="46.193611302148945" lon="13.301120334551605"><ele>195.66666666666669</ele><time>2026-04-11T10:57:16Z</time></trkpt><trkpt lat="46.193744768964855" lon="13.30097404061785"><ele>197.33333333333331</ele><time>2026-04-11T10:57:17Z</time></trkpt><trkpt lat="46.1938723591097" lon="13.30083300890675"><ele>199.0</ele><time>2026-04-11T10:57:17.999Z</time></trkpt><trkpt lat="46.1939977693047" lon="13.300693290546171"><ele>198.66666666666666</ele><time>2026-04-11T10:57:18.999Z</time></trkpt><trkpt lat="46.194108641533525" lon="13.300532329535192"><ele>198.33333333333331</ele><time>2026-04-11T10:57:19.999Z</time></trkpt><trkpt lat="46.19421962421063" lon="13.300383461944833"><ele>198.0</ele><time>2026-04-11T10:57:20.999Z</time></trkpt><trkpt lat="46.19433184456078" lon="13.300235848186597"><ele>198.0</ele><time>2026-04-11T10:57:21.999Z</time></trkpt><trkpt lat="46.19443004123741" lon="13.300053583083447"><ele>198.0</ele><time>2026-04-11T10:57:22.999Z</time></trkpt><trkpt lat="46.194527696295424" lon="13.299855928956656"><ele>198.0</ele><time>2026-04-11T10:57:23.999Z</time></trkpt><trkpt lat="46.19462188538593" lon="13.29963994965296"><ele>200.66666666666669</ele><time>2026-04-11T10:57:24.999Z</time></trkpt><trkpt lat="46.194716494571324" lon="13.299419699075543"><ele>203.33333333333334</ele><time>2026-04-11T10:57:25.999Z</time></trkpt><trkpt lat="46.19480783035929" lon="13.299206780045658"><ele>206.0</ele><time>2026-04-11T10:57:26.999Z</time></trkpt><trkpt lat="46.194898500700965" lon="13.298993019840593"><ele>205.66666666666669</ele><time>2026-04-11T10:57:27.999Z</time></trkpt><trkpt lat="46.19498752596942" lon="13.298775889034822"><ele>205.33333333333331</ele><time>2026-04-11T10:57:28.999Z</time></trkpt><trkpt lat="46.19507829834096" lon="13.298555566017269"><ele>205.0</ele><time>2026-04-11T10:57:29.999Z</time></trkpt><trkpt lat="46.19515766030847" lon="13.298320476163562"><ele>205.0</ele><time>2026-04-11T10:57:30.999Z</time></trkpt><trkpt lat="46.195252192006045" lon="13.298094201596305"><ele>205.0</ele><time>2026-04-11T10:57:31.999Z</time></trkpt><trkpt lat="46.19534768279445" lon="13.297864915507969"><ele>205.0</ele><time>2026-04-11T10:57:32.999Z</time></trkpt><trkpt lat="46.19544434046867" lon="13.297634946541343"><ele>204.66666666666666</ele><time>2026-04-11T10:57:33.999Z</time></trkpt><trkpt lat="46.195552926672356" lon="13.297420481595452"><ele>204.33333333333331</ele><time>2026-04-11T10:57:34.999Z</time></trkpt><trkpt lat="46.19563956893454" lon="13.297188989841008"><ele>204.0</ele><time>2026-04-11T10:57:35.999Z</time></trkpt><trkpt lat="46.19571785852481" lon="13.296946982736625"><ele>204.0</ele><time>2026-04-11T10:57:36.999Z</time></trkpt><trkpt lat="46.195761842306126" lon="13.296689506036525"><ele>204.0</ele><time>2026-04-11T10:57:37.999Z</time></trkpt><trkpt lat="46.195829135955826" lon="13.296435093414845"><ele>204.0</ele><time>2026-04-11T10:57:38.999Z</time></trkpt><trkpt lat="46.195862398046714" lon="13.296166302664325"><ele>205.33333333333331</ele><time>2026-04-11T10:57:39.999Z</time></trkpt><trkpt lat="46.19587466345474" lon="13.295905527408747"><ele>206.66666666666666</ele><time>2026-04-11T10:57:40.999Z</time></trkpt><trkpt lat="46.19587320319916" lon="13.295682943846773"><ele>208.0</ele><time>2026-04-11T10:57:41.999Z</time></trkpt><trkpt lat="46.195868931165194" lon="13.295487854073318"><ele>208.60000000000002</ele><time>2026-04-11T10:57:42.999Z</time></trkpt><trkpt lat="46.19586554284875" lon="13.29532088268487"><ele>209.20000000000002</ele><time>2026-04-11T10:57:43.999Z</time></trkpt><trkpt lat="46.1958702452184" lon="13.295167759331267"><ele>209.8</ele><time>2026-04-11T10:57:44.999Z</time></trkpt><trkpt lat="46.19587511210609" lon="13.295015732554674"><ele>210.4</ele><time>2026-04-11T10:57:45.999Z</time></trkpt><trkpt lat="46.19593330314154" lon="13.294868523744036"><ele>211.0</ele><time>2026-04-11T10:57:46.999Z</time></trkpt><trkpt lat="46.19601166743123" lon="13.294756055213439"><ele>211.8</ele><time>2026-04-11T10:57:47.999Z</time></trkpt><trkpt lat="46.19609437175532" lon="13.294690845819241"><ele>212.60000000000002</ele><time>2026-04-11T10:57:48.999Z</time></trkpt><trkpt lat="46.1961955573057" lon="13.294668469971917"><ele>213.4</ele><time>2026-04-11T10:57:49.999Z</time></trkpt><trkpt lat="46.196297250758676" lon="13.294681689759395"><ele>214.2</ele><time>2026-04-11T10:57:50.999Z</time></trkpt><trkpt lat="46.19638221577059" lon="13.294721711951032"><ele>215.0</ele><time>2026-04-11T10:57:51.999Z</time></trkpt><trkpt lat="46.19646933511195" lon="13.294750384136274"><ele>219.2</ele><time>2026-04-11T10:57:52.999Z</time></trkpt><trkpt lat="46.19656066988068" lon="13.294721751718438"><ele>223.4</ele><time>2026-04-11T10:57:53.999Z</time></trkpt><trkpt lat="46.19664820889022" lon="13.2946684943976"><ele>227.60000000000002</ele><time>2026-04-11T10:57:54.999Z</time></trkpt><trkpt lat="46.1967049584171" lon="13.294531601516557"><ele>231.8</ele><time>2026-04-11T10:57:55.999Z</time></trkpt><trkpt lat="46.19670574280838" lon="13.294360556411933"><ele>236.0</ele><time>2026-04-11T10:57:56.999Z</time></trkpt><trkpt lat="46.19662066011072" lon="13.294234134942117"><ele>236.0</ele><time>2026-04-11T10:57:57.999Z</time></trkpt><trkpt lat="46.196530073622256" lon="13.294159944098334"><ele>236.00000000000003</ele><time>2026-04-11T10:57:58.999Z</time></trkpt><trkpt lat="46.196444242155906" lon="13.294099599398143"><ele>236.00000000000003</ele><time>2026-04-11T10:57:59.999Z</time></trkpt><trkpt lat="46.1964157197138" lon="13.293980269827113"><ele>236.0</ele><time>2026-04-11T10:58:00.999Z</time></trkpt><trkpt lat="46.19639092095177" lon="13.293867965316789"><ele>236.0</ele><time>2026-04-11T10:58:01.999Z</time></trkpt><trkpt lat="46.19644116870598" lon="13.29375137342483"><ele>236.20000000000002</ele><time>2026-04-11T10:58:02.999Z</time></trkpt><trkpt lat="46.196486207740044" lon="13.2936459593686"><ele>236.40000000000003</ele><time>2026-04-11T10:58:03.999Z</time></trkpt><trkpt lat="46.196551122401964" lon="13.293538906451557"><ele>236.6</ele><time>2026-04-11T10:58:04.999Z</time></trkpt><trkpt lat="46.19661780094471" lon="13.293387293426287"><ele>236.8</ele><time>2026-04-11T10:58:05.999Z</time></trkpt><trkpt lat="46.19662283380374" lon="13.293203983487468"><ele>237.0</ele><time>2026-04-11T10:58:06.999Z</time></trkpt><trkpt lat="46.19662117223816" lon="13.293052566461732"><ele>235.0</ele><time>2026-04-11T10:58:07.999Z</time></trkpt><trkpt lat="46.19662866676072" lon="13.292921661344856"><ele>233.0</ele><time>2026-04-11T10:58:08.999Z</time></trkpt><trkpt lat="46.19669164596212" lon="13.292804641994781"><ele>231.0</ele><time>2026-04-11T10:58:09.999Z</time></trkpt><trkpt lat="46.19677809474788" lon="13.292713174027666"><ele>229.0</ele><time>2026-04-11T10:58:10.999Z</time></trkpt><trkpt lat="46.196884402093055" lon="13.292661004379434"><ele>227.0</ele><time>2026-04-11T10:58:11.999Z</time></trkpt><trkpt lat="46.1970045214962" lon="13.292641547786213"><ele>227.0</ele><time>2026-04-11T10:58:12.999Z</time></trkpt><trkpt lat="46.197139917289626" lon="13.292632061501445"><ele>227.0</ele><time>2026-04-11T10:58:13.999Z</time></trkpt><trkpt lat="46.19728098037492" lon="13.292658777847539"><ele>227.0</ele><time>2026-04-11T10:58:14.999Z</time></trkpt><trkpt lat="46.19743480281375" lon="13.292655711743643"><ele>227.0</ele><time>2026-04-11T10:58:15.999Z</time></trkpt><trkpt lat="46.19759964139814" lon="13.292680767350225"><ele>233.33333333333334</ele><time>2026-04-11T10:58:16.999Z</time></trkpt><trkpt lat="46.19778015042378" lon="13.292695862905884"><ele>239.66666666666669</ele><time>2026-04-11T10:58:17.999Z</time></trkpt><trkpt lat="46.197941896851894" lon="13.292720709214073"><ele>246.0</ele><time>2026-04-11T10:58:18.999Z</time></trkpt><trkpt lat="46.19804944434835" lon="13.29278073824173"><ele>246.0</ele><time>2026-04-11T10:58:19.999Z</time></trkpt><trkpt lat="46.198157839665804" lon="13.292853046581728"><ele>246.00000000000003</ele><time>2026-04-11T10:58:20.999Z</time></trkpt><trkpt lat="46.19825417175705" lon="13.292921541033213"><ele>246.00000000000003</ele><time>2026-04-11T10:58:21.999Z</time></trkpt><trkpt lat="46.19834657118742" lon="13.292954891443927"><ele>246.0</ele><time>2026-04-11T10:58:22.999Z</time></trkpt><trkpt lat="46.198426287766246" lon="13.292920275815288"><ele>246.0</ele><time>2026-04-11T10:58:23.999Z</time></trkpt><trkpt lat="46.19852049528173" lon="13.292861726423421"><ele>250.0</ele><time>2026-04-11T10:58:24.999Z</time></trkpt><trkpt lat="46.19858068093297" lon="13.29272332578927"><ele>254.0</ele><time>2026-04-11T10:58:25.999Z</time></trkpt><trkpt lat="46.1985854403819" lon="13.292559759712997"><ele>258.0</ele><time>2026-04-11T10:58:26.999Z</time></trkpt><trkpt lat="46.19850919052382" lon="13.292420627224603"><ele>262.0</ele><time>2026-04-11T10:58:27.999Z</time></trkpt><trkpt lat="46.19841919578908" lon="13.292314225201016"><ele>259.25</ele><time>2026-04-11T10:58:28.999Z</time></trkpt><trkpt lat="46.198300384018445" lon="13.292204820926642"><ele>256.5</ele><time>2026-04-11T10:58:29.999Z</time></trkpt><trkpt lat="46.1981714504182" lon="13.29208769944709"><ele>253.75</ele><time>2026-04-11T10:58:30.999Z</time></trkpt><trkpt lat="46.198041214849766" lon="13.291988881049186"><ele>251.0</ele><time>2026-04-11T10:58:31.999Z</time></trkpt><trkpt lat="46.197919529251095" lon="13.291875318760932"><ele>251.0</ele><time>2026-04-11T10:58:32.999Z</time></trkpt><trkpt lat="46.197787421925085" lon="13.29176165641672"><ele>251.0</ele><time>2026-04-11T10:58:33.999Z</time></trkpt><trkpt lat="46.197665223768965" lon="13.291618557040508"><ele>251.0</ele><time>2026-04-11T10:58:34.999Z</time></trkpt><trkpt lat="46.197563462372116" lon="13.29151777291554"><ele>251.0</ele><time>2026-04-11T10:58:35.999Z</time></trkpt><trkpt lat="46.197474969024" lon="13.291426172768979"><ele>249.75</ele><time>2026-04-11T10:58:36.999Z</time></trkpt><trkpt lat="46.19740747949346" lon="13.291262632754748"><ele>248.5</ele><time>2026-04-11T10:58:37.999Z</time></trkpt><trkpt lat="46.1973754354223" lon="13.2910623269819"><ele>247.25</ele><time>2026-04-11T10:58:39Z</time></trkpt><trkpt lat="46.1973127248975" lon="13.290894800481155"><ele>246.0</ele><time>2026-04-11T10:58:40Z</time></trkpt><trkpt lat="46.1972046911259" lon="13.290773220934382"><ele>246.0</ele><time>2026-04-11T10:58:41Z</time></trkpt><trkpt lat="46.197091164361666" lon="13.29062982826158"><ele>246.0</ele><time>2026-04-11T10:58:42Z</time></trkpt><trkpt lat="46.1969983182649" lon="13.290541149946673"><ele>246.0</ele><time>2026-04-11T10:58:43Z</time></trkpt><trkpt lat="46.196927923270856" lon="13.290450816185627"><ele>246.0</ele><time>2026-04-11T10:58:44Z</time></trkpt><trkpt lat="46.196878378870224" lon="13.290327282430795"><ele>248.4</ele><time>2026-04-11T10:58:45Z</time></trkpt><trkpt lat="46.196838628033625" lon="13.29018817299903"><ele>250.8</ele><time>2026-04-11T10:58:46Z</time></trkpt><trkpt lat="46.19684758473386" lon="13.290031057743743"><ele>253.20000000000002</ele><time>2026-04-11T10:58:47Z</time></trkpt><trkpt lat="46.196888223840915" lon="13.289894204984495"><ele>255.60000000000002</ele><time>2026-04-11T10:58:48Z</time></trkpt><trkpt lat="46.196960846465394" lon="13.289772063952384"><ele>258.0</ele><time>2026-04-11T10:58:49Z</time></trkpt><trkpt lat="46.19703781151731" lon="13.289640612744861"><ele>261.0</ele><time>2026-04-11T10:58:50Z</time></trkpt><trkpt lat="46.19712134565095" lon="13.289514808394914"><ele>264.0</ele><time>2026-04-11T10:58:51Z</time></trkpt><trkpt lat="46.19721160283493" lon="13.289384971727419"><ele>267.0</ele><time>2026-04-11T10:58:52Z</time></trkpt><trkpt lat="46.1973007528707" lon="13.289253309832848"><ele>270.0</ele><time>2026-04-11T10:58:53Z</time></trkpt><trkpt lat="46.197387209392225" lon="13.289129639080324"><ele>270.0</ele><time>2026-04-11T10:58:54Z</time></trkpt><trkpt lat="46.19747606888554" lon="13.289031150859916"><ele>270.0</ele><time>2026-04-11T10:58:55Z</time></trkpt><trkpt lat="46.19758030751537" lon="13.288967074601935"><ele>270.0</ele><time>2026-04-11T10:58:56Z</time></trkpt><trkpt lat="46.19769939231786" lon="13.288939918140683"><ele>270.0</ele><time>2026-04-11T10:58:57Z</time></trkpt><trkpt lat="46.19783838988068" lon="13.288945698653762"><ele>270.0</ele><time>2026-04-11T10:58:58Z</time></trkpt><trkpt lat="46.19795710613157" lon="13.288959029900978"><ele>270.0</ele><time>2026-04-11T10:58:59Z</time></trkpt><trkpt lat="46.19806236510756" lon="13.288966448877101"><ele>270.0</ele><time>2026-04-11T10:59:00Z</time></trkpt><trkpt lat="46.19815820668376" lon="13.288984901556915"><ele>270.0</ele><time>2026-04-11T10:59:01Z</time></trkpt><trkpt lat="46.19825217080655" lon="13.289015254666928"><ele>270.0</ele><time>2026-04-11T10:59:02Z</time></trkpt><trkpt lat="46.1983297309477" lon="13.289088190484815"><ele>267.8</ele><time>2026-04-11T10:59:03Z</time></trkpt><trkpt lat="46.19839037361625" lon="13.289202257233951"><ele>265.6</ele><time>2026-04-11T10:59:04Z</time></trkpt><trkpt lat="46.19842187599984" lon="13.289347806885688"><ele>263.4</ele><time>2026-04-11T10:59:05Z</time></trkpt><trkpt lat="46.19843100502131" lon="13.289489651346734"><ele>261.2</ele><time>2026-04-11T10:59:06Z</time></trkpt><trkpt lat="46.198467936566125" lon="13.289607261283413"><ele>259.0</ele><time>2026-04-11T10:59:07Z</time></trkpt><trkpt lat="46.198536477220365" lon="13.28970677665238"><ele>259.0</ele><time>2026-04-11T10:59:08Z</time></trkpt><trkpt lat="46.19862887253829" lon="13.289780745304352"><ele>259.0</ele><time>2026-04-11T10:59:09Z</time></trkpt><trkpt lat="46.19874260970154" lon="13.289783246028747"><ele>259.0</ele><time>2026-04-11T10:59:10Z</time></trkpt><trkpt lat="46.19885411302616" lon="13.289710979060771"><ele>259.0</ele><time>2026-04-11T10:59:10.999Z</time></trkpt><trkpt lat="46.198940408516236" lon="13.289548864605223"><ele>256.75</ele><time>2026-04-11T10:59:11.999Z</time></trkpt><trkpt lat="46.19901830972444" lon="13.289414974168283"><ele>254.5</ele><time>2026-04-11T10:59:12.999Z</time></trkpt><trkpt lat="46.19909604099496" lon="13.289279908953707"><ele>252.25</ele><time>2026-04-11T10:59:13.999Z</time></trkpt><trkpt lat="46.19916960867494" lon="13.289141603972412"><ele>250.0</ele><time>2026-04-11T10:59:14.999Z</time></trkpt><trkpt lat="46.19922909287852" lon="13.289015385785483"><ele>247.2</ele><time>2026-04-11T10:59:15.999Z</time></trkpt><trkpt lat="46.19927559274516" lon="13.288893005163025"><ele>244.4</ele><time>2026-04-11T10:59:16.999Z</time></trkpt><trkpt lat="46.19932829134737" lon="13.28877024404525"><ele>241.60000000000002</ele><time>2026-04-11T10:59:17.999Z</time></trkpt><trkpt lat="46.1993965811377" lon="13.288666078458784"><ele>238.8</ele><time>2026-04-11T10:59:18.999Z</time></trkpt><trkpt lat="46.1994771430483" lon="13.28858209958425"><ele>236.0</ele><time>2026-04-11T10:59:19.999Z</time></trkpt><trkpt lat="46.19958134209793" lon="13.288516096729518"><ele>236.0</ele><time>2026-04-11T10:59:20.999Z</time></trkpt><trkpt lat="46.19970275789053" lon="13.288491736755487"><ele>236.0</ele><time>2026-04-11T10:59:21.999Z</time></trkpt><trkpt lat="46.19983568613793" lon="13.28848983008424"><ele>236.0</ele><time>2026-04-11T10:59:22.999Z</time></trkpt><trkpt lat="46.199958690153615" lon="13.288475267652341"><ele>236.0</ele><time>2026-04-11T10:59:23.999Z</time></trkpt><trkpt lat="46.20009512808365" lon="13.288423070966761"><ele>235.5</ele><time>2026-04-11T10:59:24.999Z</time></trkpt><trkpt lat="46.200233202391594" lon="13.288329507983873"><ele>235.0</ele><time>2026-04-11T10:59:25.999Z</time></trkpt><trkpt lat="46.200360290628616" lon="13.288204119261284"><ele>234.5</ele><time>2026-04-11T10:59:26.999Z</time></trkpt><trkpt lat="46.200456778059426" lon="13.288052910308641"><ele>234.0</ele><time>2026-04-11T10:59:27.999Z</time></trkpt><trkpt lat="46.20053655902891" lon="13.287888217034718"><ele>231.5</ele><time>2026-04-11T10:59:28.999Z</time></trkpt><trkpt lat="46.20061203507922" lon="13.287717695128713"><ele>229.0</ele><time>2026-04-11T10:59:29.999Z</time></trkpt><trkpt lat="46.200689331855926" lon="13.28753900848164"><ele>226.5</ele><time>2026-04-11T10:59:30.999Z</time></trkpt><trkpt lat="46.20077065775735" lon="13.287351007531262"><ele>224.0</ele><time>2026-04-11T10:59:31.999Z</time></trkpt><trkpt lat="46.200853413921905" lon="13.28715970172701"><ele>222.25</ele><time>2026-04-11T10:59:32.999Z</time></trkpt><trkpt lat="46.200933042047005" lon="13.286976185289799"><ele>220.5</ele><time>2026-04-11T10:59:33.999Z</time></trkpt><trkpt lat="46.201011453305675" lon="13.286799156584863"><ele>218.75</ele><time>2026-04-11T10:59:34.999Z</time></trkpt><trkpt lat="46.20108465288606" lon="13.286633894215171"><ele>217.0</ele><time>2026-04-11T10:59:35.999Z</time></trkpt><trkpt lat="46.201150000982544" lon="13.286486931509232"><ele>216.75</ele><time>2026-04-11T10:59:36.999Z</time></trkpt><trkpt lat="46.201212410543455" lon="13.286348369159064"><ele>216.5</ele><time>2026-04-11T10:59:37.999Z</time></trkpt><trkpt lat="46.20127731458113" lon="13.286206489535981"><ele>216.25</ele><time>2026-04-11T10:59:38.999Z</time></trkpt><trkpt lat="46.20134090453846" lon="13.286058806583693"><ele>216.0</ele><time>2026-04-11T10:59:39.999Z</time></trkpt><trkpt lat="46.201385475695204" lon="13.28589644483799"><ele>216.0</ele><time>2026-04-11T10:59:40.999Z</time></trkpt><trkpt lat="46.201400830997095" lon="13.285722766371128"><ele>216.00000000000003</ele><time>2026-04-11T10:59:41.999Z</time></trkpt><trkpt lat="46.2013950886621" lon="13.285554102921118"><ele>216.00000000000003</ele><time>2026-04-11T10:59:42.999Z</time></trkpt><trkpt lat="46.20138507350727" lon="13.28540780556766"><ele>216.0</ele><time>2026-04-11T10:59:43.999Z</time></trkpt><trkpt lat="46.20137274653358" lon="13.285269821742155"><ele>216.0</ele><time>2026-04-11T10:59:44.999Z</time></trkpt><trkpt lat="46.201361551464885" lon="13.285150580710411"><ele>216.16666666666666</ele><time>2026-04-11T10:59:45.999Z</time></trkpt><trkpt lat="46.20135181508841" lon="13.285046876655375"><ele>216.33333333333331</ele><time>2026-04-11T10:59:46.999Z</time></trkpt><trkpt lat="46.20132719096341" lon="13.284962353705351"><ele>216.5</ele><time>2026-04-11T10:59:47.999Z</time></trkpt><trkpt lat="46.201333471847086" lon="13.284851498969534"><ele>216.66666666666666</ele><time>2026-04-11T10:59:49.999Z</time></trkpt><trkpt lat="46.201308878489016" lon="13.284728000354416"><ele>216.83333333333331</ele><time>2026-04-11T11:00:09.999Z</time></trkpt><trkpt lat="46.20130746022297" lon="13.284562563685215"><ele>217.0</ele><time>2026-04-11T11:00:11.999Z</time></trkpt><trkpt lat="46.201295960954056" lon="13.284433091403153"><ele>217.0</ele><time>2026-04-11T11:00:12.999Z</time></trkpt><trkpt lat="46.2012814104749" lon="13.284269264179825"><ele>217.0</ele><time>2026-04-11T11:00:13.999Z</time></trkpt><trkpt lat="46.20126289698814" lon="13.284065228903335"><ele>217.0</ele><time>2026-04-11T11:00:14.999Z</time></trkpt><trkpt lat="46.201227179684984" lon="13.283832535867175"><ele>217.0</ele><time>2026-04-11T11:00:15.999Z</time></trkpt><trkpt lat="46.2012088111592" lon="13.28359978780305"><ele>216.66666666666666</ele><time>2026-04-11T11:00:16.999Z</time></trkpt><trkpt lat="46.20118805126445" lon="13.283357469661711"><ele>216.33333333333331</ele><time>2026-04-11T11:00:17.999Z</time></trkpt><trkpt lat="46.20116647112233" lon="13.283124905324225"><ele>216.0</ele><time>2026-04-11T11:00:18.999Z</time></trkpt><trkpt lat="46.20114567240183" lon="13.282909797208044"><ele>214.75</ele><time>2026-04-11T11:00:19.999Z</time></trkpt><trkpt lat="46.20112609872963" lon="13.282705982428995"><ele>213.5</ele><time>2026-04-11T11:00:20.999Z</time></trkpt><trkpt lat="46.20112461388411" lon="13.28250115268456"><ele>212.25</ele><time>2026-04-11T11:00:21.999Z</time></trkpt><trkpt lat="46.20110020821872" lon="13.282292512869123"><ele>211.0</ele><time>2026-04-11T11:00:22.999Z</time></trkpt><trkpt lat="46.20109408962927" lon="13.282086444441555"><ele>210.0</ele><time>2026-04-11T11:00:23.999Z</time></trkpt><trkpt lat="46.20108672835059" lon="13.281868915412815"><ele>209.0</ele><time>2026-04-11T11:00:24.999Z</time></trkpt><trkpt lat="46.20107861999778" lon="13.281633044783149"><ele>208.0</ele><time>2026-04-11T11:00:25.999Z</time></trkpt><trkpt lat="46.20107398993891" lon="13.281355803696629"><ele>208.0</ele><time>2026-04-11T11:00:26.999Z</time></trkpt><trkpt lat="46.20106544121891" lon="13.281050410162385"><ele>208.0</ele><time>2026-04-11T11:00:27.999Z</time></trkpt><trkpt lat="46.20105349642314" lon="13.280779336874845"><ele>208.0</ele><time>2026-04-11T11:00:28.999Z</time></trkpt><trkpt lat="46.20103939185098" lon="13.28053052854461"><ele>208.0</ele><time>2026-04-11T11:00:29.999Z</time></trkpt><trkpt lat="46.201026256656256" lon="13.280303503967835"><ele>208.0</ele><time>2026-04-11T11:00:30.999Z</time></trkpt><trkpt lat="46.2010140628535" lon="13.280067868952264"><ele>208.0</ele><time>2026-04-11T11:00:31.999Z</time></trkpt><trkpt lat="46.201002208422146" lon="13.279824778588647"><ele>208.33333333333331</ele><time>2026-04-11T11:00:32.999Z</time></trkpt><trkpt lat="46.20098527459011" lon="13.279584781210637"><ele>208.66666666666669</ele><time>2026-04-11T11:00:33.999Z</time></trkpt><trkpt lat="46.20096998949953" lon="13.279342799964931"><ele>209.0</ele><time>2026-04-11T11:00:34.999Z</time></trkpt><trkpt lat="46.20095611246024" lon="13.279103230113346"><ele>210.33333333333334</ele><time>2026-04-11T11:00:35.999Z</time></trkpt><trkpt lat="46.2009433723177" lon="13.278860463469838"><ele>211.66666666666669</ele><time>2026-04-11T11:00:36.999Z</time></trkpt><trkpt lat="46.200930029948196" lon="13.278615502416503"><ele>213.0</ele><time>2026-04-11T11:00:37.999Z</time></trkpt><trkpt lat="46.200928318104765" lon="13.278374411310343"><ele>213.0</ele><time>2026-04-11T11:00:38.999Z</time></trkpt><trkpt lat="46.20090563440687" lon="13.278137901369055"><ele>213.0</ele><time>2026-04-11T11:00:39.999Z</time></trkpt><trkpt lat="46.20087212019226" lon="13.27790687235556"><ele>213.0</ele><time>2026-04-11T11:00:40.999Z</time></trkpt><trkpt lat="46.20082707188837" lon="13.27767767448609"><ele>213.66666666666669</ele><time>2026-04-11T11:00:41.999Z</time></trkpt><trkpt lat="46.20077676683913" lon="13.277455018630777"><ele>214.33333333333334</ele><time>2026-04-11T11:00:42.999Z</time></trkpt><trkpt lat="46.20072679250348" lon="13.277235950429372"><ele>215.0</ele><time>2026-04-11T11:00:43.999Z</time></trkpt><trkpt lat="46.20067465753046" lon="13.27701569748113"><ele>214.0</ele><time>2026-04-11T11:00:45Z</time></trkpt><trkpt lat="46.20062453465351" lon="13.276803945069219"><ele>213.0</ele><time>2026-04-11T11:00:46Z</time></trkpt><trkpt lat="46.20057637522787" lon="13.276600487547734"><ele>212.0</ele><time>2026-04-11T11:00:47Z</time></trkpt><trkpt lat="46.2005327727017" lon="13.2764158354667"><ele>211.0</ele><time>2026-04-11T11:00:48Z</time></trkpt><trkpt lat="46.20049303862022" lon="13.276247230329403"><ele>211.0</ele><time>2026-04-11T11:00:49Z</time></trkpt><trkpt lat="46.20045313927263" lon="13.276077922113245"><ele>211.0</ele><time>2026-04-11T11:00:50Z</time></trkpt><trkpt lat="46.200402094864074" lon="13.275914473981581"><ele>211.0</ele><time>2026-04-11T11:00:51Z</time></trkpt><trkpt lat="46.20038927692866" lon="13.275735011324777"><ele>211.0</ele><time>2026-04-11T11:00:52Z</time></trkpt><trkpt lat="46.200399352881526" lon="13.275575137840862"><ele>211.0</ele><time>2026-04-11T11:00:53Z</time></trkpt><trkpt lat="46.20043860398257" lon="13.275431885032406"><ele>211.0</ele><time>2026-04-11T11:00:54Z</time></trkpt><trkpt lat="46.20043625227237" lon="13.275292659652818"><ele>211.0</ele><time>2026-04-11T11:00:55Z</time></trkpt><trkpt lat="46.200452929799134" lon="13.275145404502908"><ele>211.0</ele><time>2026-04-11T11:00:56Z</time></trkpt><trkpt lat="46.2004227058718" lon="13.274990242066893"><ele>211.0</ele><time>2026-04-11T11:00:57Z</time></trkpt><trkpt lat="46.20037975143304" lon="13.274851768488409"><ele>209.8</ele><time>2026-04-11T11:00:58Z</time></trkpt><trkpt lat="46.20032015775869" lon="13.274742739955293"><ele>208.60000000000002</ele><time>2026-04-11T11:00:59Z</time></trkpt><trkpt lat="46.200319475406516" lon="13.274596700443876"><ele>207.4</ele><time>2026-04-11T11:01:00Z</time></trkpt><trkpt lat="46.20031066621471" lon="13.274437932856966"><ele>206.2</ele><time>2026-04-11T11:01:01Z</time></trkpt><trkpt lat="46.200301738304454" lon="13.274263575897306"><ele>205.0</ele><time>2026-04-11T11:01:02Z</time></trkpt><trkpt lat="46.20029300222111" lon="13.274091536929372"><ele>203.75</ele><time>2026-04-11T11:01:03Z</time></trkpt><trkpt lat="46.20028392165419" lon="13.273910689818793"><ele>202.5</ele><time>2026-04-11T11:01:04Z</time></trkpt><trkpt lat="46.20027434207429" lon="13.273719904565771"><ele>201.25</ele><time>2026-04-11T11:01:05Z</time></trkpt><trkpt lat="46.20026405770086" lon="13.273515436479995"><ele>200.0</ele><time>2026-04-11T11:01:06Z</time></trkpt><trkpt lat="46.200252984237245" lon="13.273296231242927"><ele>199.25</ele><time>2026-04-11T11:01:07Z</time></trkpt><trkpt lat="46.200242061566776" lon="13.273080011190615"><ele>198.5</ele><time>2026-04-11T11:01:08Z</time></trkpt><trkpt lat="46.200231672487995" lon="13.272869187041932"><ele>197.75</ele><time>2026-04-11T11:01:09Z</time></trkpt><trkpt lat="46.20022108510463" lon="13.272653113047939"><ele>197.0</ele><time>2026-04-11T11:01:10Z</time></trkpt><trkpt lat="46.200210493895504" lon="13.272428728477223"><ele>197.0</ele><time>2026-04-11T11:01:11Z</time></trkpt><trkpt lat="46.200200279552156" lon="13.272213228744949"><ele>197.0</ele><time>2026-04-11T11:01:12Z</time></trkpt><trkpt lat="46.20019181920835" lon="13.272029166280769"><ele>197.0</ele><time>2026-04-11T11:01:13Z</time></trkpt><trkpt lat="46.200183162041434" lon="13.271840821736575"><ele>197.0</ele><time>2026-04-11T11:01:14Z</time></trkpt><trkpt lat="46.200174243738346" lon="13.271646795955807"><ele>197.0</ele><time>2026-04-11T11:01:15Z</time></trkpt><trkpt lat="46.200165461057615" lon="13.27145718057983"><ele>197.0</ele><time>2026-04-11T11:01:16Z</time></trkpt><trkpt lat="46.2001561421543" lon="13.271265379845604"><ele>197.0</ele><time>2026-04-11T11:01:17Z</time></trkpt><trkpt lat="46.20014636975406" lon="13.27106424530107"><ele>197.0</ele><time>2026-04-11T11:01:18Z</time></trkpt><trkpt lat="46.20013068416259" lon="13.270848992096164"><ele>197.5</ele><time>2026-04-11T11:01:19Z</time></trkpt><trkpt lat="46.20011308483463" lon="13.270655396204862"><ele>198.0</ele><time>2026-04-11T11:01:20Z</time></trkpt><trkpt lat="46.20008235495776" lon="13.270441606729642"><ele>198.5</ele><time>2026-04-11T11:01:21Z</time></trkpt><trkpt lat="46.20005395240783" lon="13.270225558182977"><ele>199.0</ele><time>2026-04-11T11:01:22Z</time></trkpt><trkpt lat="46.20002648926036" lon="13.270020906114926"><ele>199.5</ele><time>2026-04-11T11:01:22.999Z</time></trkpt><trkpt lat="46.19999057117705" lon="13.269829463061606"><ele>200.0</ele><time>2026-04-11T11:01:23.999Z</time></trkpt><trkpt lat="46.199981546268994" lon="13.269630436392376"><ele>200.5</ele><time>2026-04-11T11:01:24.999Z</time></trkpt><trkpt lat="46.19998203180904" lon="13.269430336159589"><ele>201.0</ele><time>2026-04-11T11:01:25.999Z</time></trkpt><trkpt lat="46.19998681096293" lon="13.2692397286382"><ele>202.0</ele><time>2026-04-11T11:01:26.999Z</time></trkpt><trkpt lat="46.200014905506166" lon="13.269050776906498"><ele>203.0</ele><time>2026-04-11T11:01:27.999Z</time></trkpt><trkpt lat="46.20002996889576" lon="13.268861423171085"><ele>204.0</ele><time>2026-04-11T11:01:28.999Z</time></trkpt><trkpt lat="46.20004346930083" lon="13.268668882510537"><ele>205.0</ele><time>2026-04-11T11:01:29.999Z</time></trkpt><trkpt lat="46.20004578390161" lon="13.268464420768879"><ele>205.75</ele><time>2026-04-11T11:01:30.999Z</time></trkpt><trkpt lat="46.200038652601314" lon="13.268262176014728"><ele>206.5</ele><time>2026-04-11T11:01:31.999Z</time></trkpt><trkpt lat="46.200030296832594" lon="13.268060686232806"><ele>207.25</ele><time>2026-04-11T11:01:32.999Z</time></trkpt><trkpt lat="46.2000230922059" lon="13.267865462687228"><ele>208.0</ele><time>2026-04-11T11:01:33.999Z</time></trkpt><trkpt lat="46.20001597597919" lon="13.267672394552124"><ele>208.25</ele><time>2026-04-11T11:01:34.999Z</time></trkpt><trkpt lat="46.20001139554287" lon="13.267487316130838"><ele>208.5</ele><time>2026-04-11T11:01:35.999Z</time></trkpt><trkpt lat="46.19999518080157" lon="13.267303666396492"><ele>208.75</ele><time>2026-04-11T11:01:36.999Z</time></trkpt><trkpt lat="46.20000442236661" lon="13.267120470312559"><ele>209.0</ele><time>2026-04-11T11:01:37.999Z</time></trkpt><trkpt lat="46.20003593662597" lon="13.266942399085362"><ele>209.0</ele><time>2026-04-11T11:01:38.999Z</time></trkpt><trkpt lat="46.200060560739935" lon="13.26677204556537"><ele>209.0</ele><time>2026-04-11T11:01:39.999Z</time></trkpt><trkpt lat="46.200084802360166" lon="13.266618451778584"><ele>209.0</ele><time>2026-04-11T11:01:40.999Z</time></trkpt><trkpt lat="46.20010932349531" lon="13.266475763316393"><ele>209.0</ele><time>2026-04-11T11:01:41.999Z</time></trkpt><trkpt lat="46.20013085900206" lon="13.26635456904765"><ele>209.0</ele><time>2026-04-11T11:01:42.999Z</time></trkpt><trkpt lat="46.20015115037045" lon="13.266240900897465"><ele>209.0</ele><time>2026-04-11T11:01:43.999Z</time></trkpt><trkpt lat="46.2001686898445" lon="13.266142648380898"><ele>209.0</ele><time>2026-04-11T11:01:44.999Z</time></trkpt><trkpt lat="46.200196241403255" lon="13.2659775065554"><ele>209.0</ele><time>2026-04-11T11:01:46.999Z</time></trkpt><trkpt lat="46.20021988822044" lon="13.265829987777659"><ele>209.0</ele><time>2026-04-11T11:01:48.999Z</time></trkpt><trkpt lat="46.20022917564981" lon="13.265652579509721"><ele>209.0</ele><time>2026-04-11T11:01:50.999Z</time></trkpt><trkpt lat="46.20026068237584" lon="13.26554049851354"><ele>208.79999999999998</ele><time>2026-04-11T11:01:51.999Z</time></trkpt><trkpt lat="46.20030441815835" lon="13.26542774676195"><ele>208.6</ele><time>2026-04-11T11:01:52.999Z</time></trkpt><trkpt lat="46.2003568594179" lon="13.265282422798277"><ele>208.4</ele><time>2026-04-11T11:01:53.999Z</time></trkpt><trkpt lat="46.20041824449351" lon="13.265147614231909"><ele>208.2</ele><time>2026-04-11T11:01:54.999Z</time></trkpt><trkpt lat="46.20047983149099" lon="13.265012549119142"><ele>208.0</ele><time>2026-04-11T11:01:55.999Z</time></trkpt><trkpt lat="46.20055073661441" lon="13.264892448124746"><ele>207.83333333333331</ele><time>2026-04-11T11:01:56.999Z</time></trkpt><trkpt lat="46.20059453826604" lon="13.264759602956463"><ele>207.66666666666666</ele><time>2026-04-11T11:01:57.999Z</time></trkpt><trkpt lat="46.2006449725688" lon="13.264655053864479"><ele>207.5</ele><time>2026-04-11T11:01:58.999Z</time></trkpt><trkpt lat="46.20069502849128" lon="13.264556125372764"><ele>207.33333333333331</ele><time>2026-04-11T11:01:59.999Z</time></trkpt><trkpt lat="46.200745548645145" lon="13.264458702531991"><ele>207.16666666666666</ele><time>2026-04-11T11:02:00.999Z</time></trkpt><trkpt lat="46.200794053738335" lon="13.264364964334634"><ele>207.0</ele><time>2026-04-11T11:02:01.999Z</time></trkpt><trkpt lat="46.200851500502544" lon="13.264287545333206"><ele>207.6</ele><time>2026-04-11T11:02:02.999Z</time></trkpt><trkpt lat="46.200921397511976" lon="13.264221781843933"><ele>208.2</ele><time>2026-04-11T11:02:03.999Z</time></trkpt><trkpt lat="46.20099166222041" lon="13.264172981160355"><ele>208.8</ele><time>2026-04-11T11:02:04.999Z</time></trkpt><trkpt lat="46.201078234393066" lon="13.264147171385158"><ele>209.4</ele><time>2026-04-11T11:02:05.999Z</time></trkpt><trkpt lat="46.20117387610421" lon="13.264128652926026"><ele>210.0</ele><time>2026-04-11T11:02:06.999Z</time></trkpt><trkpt lat="46.201278766717266" lon="13.264123957983097"><ele>210.0</ele><time>2026-04-11T11:02:07.999Z</time></trkpt><trkpt lat="46.20139046162882" lon="13.264124347417885"><ele>210.0</ele><time>2026-04-11T11:02:08.999Z</time></trkpt><trkpt lat="46.20151901254366" lon="13.264120275446677"><ele>210.0</ele><time>2026-04-11T11:02:09.999Z</time></trkpt><trkpt lat="46.201639154263255" lon="13.264120661771933"><ele>210.0</ele><time>2026-04-11T11:02:10.999Z</time></trkpt><trkpt lat="46.20175222827657" lon="13.26411293652367"><ele>210.4</ele><time>2026-04-11T11:02:11.999Z</time></trkpt><trkpt lat="46.20185326407397" lon="13.264108993327875"><ele>210.8</ele><time>2026-04-11T11:02:12.999Z</time></trkpt><trkpt lat="46.201964498343706" lon="13.264101362793886"><ele>211.2</ele><time>2026-04-11T11:02:13.999Z</time></trkpt><trkpt lat="46.20207072585222" lon="13.264093441001302"><ele>211.6</ele><time>2026-04-11T11:02:14.999Z</time></trkpt><trkpt lat="46.20217131775616" lon="13.264095395160416"><ele>212.0</ele><time>2026-04-11T11:02:15.999Z</time></trkpt><trkpt lat="46.20225988287926" lon="13.264099948446844"><ele>212.39999999999998</ele><time>2026-04-11T11:02:16.999Z</time></trkpt><trkpt lat="46.20237273429454" lon="13.264111924620362"><ele>212.79999999999998</ele><time>2026-04-11T11:02:17.999Z</time></trkpt><trkpt lat="46.20248452934302" lon="13.264133776533791"><ele>213.2</ele><time>2026-04-11T11:02:18.999Z</time></trkpt><trkpt lat="46.20257933791795" lon="13.264181571905988"><ele>213.6</ele><time>2026-04-11T11:02:19.999Z</time></trkpt><trkpt lat="46.202673077919115" lon="13.264240946971709"><ele>214.0</ele><time>2026-04-11T11:02:20.999Z</time></trkpt><trkpt lat="46.202761006560536" lon="13.264313447401209"><ele>214.0</ele><time>2026-04-11T11:02:21.999Z</time></trkpt><trkpt lat="46.202840391375275" lon="13.264381169255417"><ele>213.99999999999997</ele><time>2026-04-11T11:02:22.999Z</time></trkpt><trkpt lat="46.20291546038692" lon="13.26448305640063"><ele>213.99999999999997</ele><time>2026-04-11T11:02:23.999Z</time></trkpt><trkpt lat="46.20296369811435" lon="13.264604108441404"><ele>214.0</ele><time>2026-04-11T11:02:24.999Z</time></trkpt><trkpt lat="46.20298909570706" lon="13.264737113088131"><ele>214.0</ele><time>2026-04-11T11:02:25.999Z</time></trkpt><trkpt lat="46.203011910774016" lon="13.26486172930953"><ele>213.79999999999998</ele><time>2026-04-11T11:02:26.999Z</time></trkpt><trkpt lat="46.2030628302676" lon="13.264965807437697"><ele>213.59999999999997</ele><time>2026-04-11T11:02:27.999Z</time></trkpt><trkpt lat="46.203131650835" lon="13.265043679164982"><ele>213.4</ele><time>2026-04-11T11:02:28.999Z</time></trkpt><trkpt lat="46.20321959599631" lon="13.265091280694636"><ele>213.2</ele><time>2026-04-11T11:02:29.999Z</time></trkpt><trkpt lat="46.20332236321957" lon="13.265134891276944"><ele>213.0</ele><time>2026-04-11T11:02:30.999Z</time></trkpt><trkpt lat="46.20342824785402" lon="13.265127139798551"><ele>213.0</ele><time>2026-04-11T11:02:31.999Z</time></trkpt><trkpt lat="46.20352708016814" lon="13.265144628004737"><ele>213.0</ele><time>2026-04-11T11:02:32.999Z</time></trkpt><trkpt lat="46.203628945708175" lon="13.26515813857954"><ele>213.0</ele><time>2026-04-11T11:02:33.999Z</time></trkpt><trkpt lat="46.20374585823624" lon="13.26517988346585"><ele>213.0</ele><time>2026-04-11T11:02:34.999Z</time></trkpt><trkpt lat="46.20386903876497" lon="13.265214579421329"><ele>213.0</ele><time>2026-04-11T11:02:35.999Z</time></trkpt><trkpt lat="46.203991323717474" lon="13.265243674000804"><ele>213.25</ele><time>2026-04-11T11:02:36.999Z</time></trkpt><trkpt lat="46.204113907357" lon="13.265294931812685"><ele>213.5</ele><time>2026-04-11T11:02:37.999Z</time></trkpt><trkpt lat="46.20423889210062" lon="13.265350691697748"><ele>213.75</ele><time>2026-04-11T11:02:38.999Z</time></trkpt><trkpt lat="46.20437047033052" lon="13.265411215563304"><ele>214.0</ele><time>2026-04-11T11:02:39.999Z</time></trkpt><trkpt lat="46.20451430306934" lon="13.265478946129992"><ele>214.0</ele><time>2026-04-11T11:02:40.999Z</time></trkpt><trkpt lat="46.204658316868496" lon="13.265544855227374"><ele>214.0</ele><time>2026-04-11T11:02:41.999Z</time></trkpt><trkpt lat="46.2047924583227" lon="13.265603545432826"><ele>214.0</ele><time>2026-04-11T11:02:42.999Z</time></trkpt><trkpt lat="46.20492331255809" lon="13.26566320992721"><ele>214.0</ele><time>2026-04-11T11:02:43.999Z</time></trkpt><trkpt lat="46.20505599315525" lon="13.265724352188588"><ele>214.0</ele><time>2026-04-11T11:02:44.999Z</time></trkpt><trkpt lat="46.20519371282141" lon="13.265782046296694"><ele>214.0</ele><time>2026-04-11T11:02:45.999Z</time></trkpt><trkpt lat="46.20533381295695" lon="13.265840891544462"><ele>214.0</ele><time>2026-04-11T11:02:46.999Z</time></trkpt><trkpt lat="46.205475090891404" lon="13.265905128722629"><ele>214.0</ele><time>2026-04-11T11:02:47.999Z</time></trkpt><trkpt lat="46.20562393071616" lon="13.26597046572133"><ele>214.33333333333331</ele><time>2026-04-11T11:02:48.999Z</time></trkpt><trkpt lat="46.20577571492235" lon="13.266033409730236"><ele>214.66666666666669</ele><time>2026-04-11T11:02:49.999Z</time></trkpt><trkpt lat="46.20592345549113" lon="13.266089490990018"><ele>215.0</ele><time>2026-04-11T11:02:51Z</time></trkpt><trkpt lat="46.206068191790536" lon="13.266137253851266"><ele>215.0</ele><time>2026-04-11T11:02:52Z</time></trkpt><trkpt lat="46.20620670495455" lon="13.266181249001587"><ele>215.0</ele><time>2026-04-11T11:02:53Z</time></trkpt><trkpt lat="46.20633709328317" lon="13.266228118991855"><ele>215.0</ele><time>2026-04-11T11:02:54Z</time></trkpt><trkpt lat="46.20645736881163" lon="13.266279836636352"><ele>215.0</ele><time>2026-04-11T11:02:55Z</time></trkpt><trkpt lat="46.20657302673291" lon="13.266349064470642"><ele>215.75</ele><time>2026-04-11T11:02:56Z</time></trkpt><trkpt lat="46.206687548045984" lon="13.266430670759583"><ele>216.5</ele><time>2026-04-11T11:02:57Z</time></trkpt><trkpt lat="46.20680581463418" lon="13.26651415532678"><ele>217.25</ele><time>2026-04-11T11:02:58Z</time></trkpt><trkpt lat="46.206927162637086" lon="13.266591273399458"><ele>218.0</ele><time>2026-04-11T11:02:59Z</time></trkpt><trkpt lat="46.20704873794245" lon="13.266637585061497"><ele>218.25</ele><time>2026-04-11T11:03:00Z</time></trkpt><trkpt lat="46.20716509771761" lon="13.266669533217392"><ele>218.5</ele><time>2026-04-11T11:03:01Z</time></trkpt><trkpt lat="46.20728022946037" lon="13.266694348898744"><ele>218.75</ele><time>2026-04-11T11:03:02Z</time></trkpt><trkpt lat="46.20739180748839" lon="13.266716044149716"><ele>219.0</ele><time>2026-04-11T11:03:03Z</time></trkpt><trkpt lat="46.20750606417923" lon="13.266744643849263"><ele>219.0</ele><time>2026-04-11T11:03:04Z</time></trkpt><trkpt lat="46.20762580646944" lon="13.266731222294487"><ele>219.0</ele><time>2026-04-11T11:03:05Z</time></trkpt><trkpt lat="46.20774933745259" lon="13.266665920045183"><ele>219.0</ele><time>2026-04-11T11:03:06Z</time></trkpt><trkpt lat="46.20786412524349" lon="13.266644007996819"><ele>219.0</ele><time>2026-04-11T11:03:07Z</time></trkpt><trkpt lat="46.207977329011776" lon="13.26662888462022"><ele>219.0</ele><time>2026-04-11T11:03:08Z</time></trkpt><trkpt lat="46.2081038379518" lon="13.266626500685737"><ele>219.0</ele><time>2026-04-11T11:03:09Z</time></trkpt><trkpt lat="46.20823316047724" lon="13.266642178070288"><ele>219.0</ele><time>2026-04-11T11:03:10Z</time></trkpt><trkpt lat="46.2083611993611" lon="13.266653633494016"><ele>219.0</ele><time>2026-04-11T11:03:11Z</time></trkpt><trkpt lat="46.20849178384029" lon="13.266669462355576"><ele>219.5</ele><time>2026-04-11T11:03:12Z</time></trkpt><trkpt lat="46.2086279566871" lon="13.266688550322764"><ele>220.0</ele><time>2026-04-11T11:03:13Z</time></trkpt><trkpt lat="46.208775271686875" lon="13.266705958931318"><ele>220.5</ele><time>2026-04-11T11:03:14Z</time></trkpt><trkpt lat="46.20893278966546" lon="13.266728378374674"><ele>221.0</ele><time>2026-04-11T11:03:15Z</time></trkpt><trkpt lat="46.20909854119521" lon="13.266756794249334"><ele>221.33333333333334</ele><time>2026-04-11T11:03:16Z</time></trkpt><trkpt lat="46.209261984963746" lon="13.266778720035983"><ele>221.66666666666669</ele><time>2026-04-11T11:03:17Z</time></trkpt><trkpt lat="46.20942556427715" lon="13.266802475390488"><ele>222.0</ele><time>2026-04-11T11:03:18Z</time></trkpt><trkpt lat="46.209589513065566" lon="13.266827371491301"><ele>222.0</ele><time>2026-04-11T11:03:19Z</time></trkpt><trkpt lat="46.209745244744006" lon="13.266849966313929"><ele>222.0</ele><time>2026-04-11T11:03:20Z</time></trkpt><trkpt lat="46.20989140775023" lon="13.266868034445716"><ele>222.0</ele><time>2026-04-11T11:03:21Z</time></trkpt><trkpt lat="46.210033235047945" lon="13.266884019639297"><ele>222.0</ele><time>2026-04-11T11:03:22Z</time></trkpt><trkpt lat="46.21017366096664" lon="13.266900382653622"><ele>222.5</ele><time>2026-04-11T11:03:23Z</time></trkpt><trkpt lat="46.210313485047486" lon="13.266917642663305"><ele>223.0</ele><time>2026-04-11T11:03:24Z</time></trkpt><trkpt lat="46.21045207639529" lon="13.266940294747053"><ele>223.5</ele><time>2026-04-11T11:03:25Z</time></trkpt><trkpt lat="46.210590159610184" lon="13.266963940231983"><ele>224.0</ele><time>2026-04-11T11:03:26Z</time></trkpt><trkpt lat="46.21071604743775" lon="13.266988044214113"><ele>224.25</ele><time>2026-04-11T11:03:27Z</time></trkpt><trkpt lat="46.210828847772056" lon="13.267020697721394"><ele>224.5</ele><time>2026-04-11T11:03:28Z</time></trkpt><trkpt lat="46.210939399426046" lon="13.267056658235798"><ele>224.75</ele><time>2026-04-11T11:03:29Z</time></trkpt><trkpt lat="46.21105301129951" lon="13.267105738858238"><ele>225.0</ele><time>2026-04-11T11:03:29.999Z</time></trkpt><trkpt lat="46.21116545976595" lon="13.267167788982482"><ele>225.0</ele><time>2026-04-11T11:03:30.999Z</time></trkpt><trkpt lat="46.21127805524534" lon="13.267235546890474"><ele>225.0</ele><time>2026-04-11T11:03:31.999Z</time></trkpt><trkpt lat="46.21143052530482" lon="13.267204888080315"><ele>225.0</ele><time>2026-04-11T11:03:32.999Z</time></trkpt><trkpt lat="46.21157002594893" lon="13.267184287315919"><ele>225.0</ele><time>2026-04-11T11:03:33.999Z</time></trkpt><trkpt lat="46.21168146614117" lon="13.267158539345274"><ele>224.75</ele><time>2026-04-11T11:03:34.999Z</time></trkpt><trkpt lat="46.21179115693214" lon="13.26712287486827"><ele>224.5</ele><time>2026-04-11T11:03:35.999Z</time></trkpt><trkpt lat="46.21191098376773" lon="13.267113791016122"><ele>224.25</ele><time>2026-04-11T11:03:36.999Z</time></trkpt><trkpt lat="46.212029089067485" lon="13.267046482258964"><ele>224.0</ele><time>2026-04-11T11:03:37.999Z</time></trkpt><trkpt lat="46.21216422257445" lon="13.26700502737653"><ele>224.0</ele><time>2026-04-11T11:03:38.999Z</time></trkpt><trkpt lat="46.212298911336525" lon="13.266934533787893"><ele>224.0</ele><time>2026-04-11T11:03:39.999Z</time></trkpt><trkpt lat="46.212434297577644" lon="13.266863675150763"><ele>224.0</ele><time>2026-04-11T11:03:40.999Z</time></trkpt><trkpt lat="46.21258546546692" lon="13.266784556711439"><ele>224.0</ele><time>2026-04-11T11:03:41.999Z</time></trkpt><trkpt lat="46.21273214570084" lon="13.266707786784446"><ele>225.0</ele><time>2026-04-11T11:03:42.999Z</time></trkpt><trkpt lat="46.212875243375684" lon="13.266626107331685"><ele>226.0</ele><time>2026-04-11T11:03:43.999Z</time></trkpt><trkpt lat="46.2130178911384" lon="13.266555091446643"><ele>227.0</ele><time>2026-04-11T11:03:44.999Z</time></trkpt><trkpt lat="46.21315149364164" lon="13.266472669818546"><ele>229.33333333333334</ele><time>2026-04-11T11:03:45.999Z</time></trkpt><trkpt lat="46.21330133733633" lon="13.26643698377184"><ele>231.66666666666669</ele><time>2026-04-11T11:03:46.999Z</time></trkpt><trkpt lat="46.2134529884918" lon="13.266411672778851"><ele>234.0</ele><time>2026-04-11T11:03:47.999Z</time></trkpt><trkpt lat="46.213598274956" lon="13.266400296681136"><ele>234.0</ele><time>2026-04-11T11:03:48.999Z</time></trkpt><trkpt lat="46.21374327384347" lon="13.266383195030173"><ele>234.0</ele><time>2026-04-11T11:03:49.999Z</time></trkpt><trkpt lat="46.213897561279836" lon="13.266393734918129"><ele>234.0</ele><time>2026-04-11T11:03:50.999Z</time></trkpt><trkpt lat="46.21405103273419" lon="13.266368488931136"><ele>234.66666666666669</ele><time>2026-04-11T11:03:51.999Z</time></trkpt><trkpt lat="46.21420380428929" lon="13.266404389045702"><ele>235.33333333333334</ele><time>2026-04-11T11:03:52.999Z</time></trkpt><trkpt lat="46.21435203706859" lon="13.266428197713354"><ele>236.0</ele><time>2026-04-11T11:03:53.999Z</time></trkpt><trkpt lat="46.214499072659166" lon="13.266433704846177"><ele>235.75</ele><time>2026-04-11T11:03:54.999Z</time></trkpt><trkpt lat="46.21464019604407" lon="13.266482977118326"><ele>235.5</ele><time>2026-04-11T11:03:55.999Z</time></trkpt><trkpt lat="46.2147797080679" lon="13.266509498286883"><ele>235.25</ele><time>2026-04-11T11:03:56.999Z</time></trkpt><trkpt lat="46.21489836789038" lon="13.266535503842045"><ele>235.0</ele><time>2026-04-11T11:03:57.999Z</time></trkpt><trkpt lat="46.215005924824865" lon="13.266559730537253"><ele>235.0</ele><time>2026-04-11T11:03:58.999Z</time></trkpt><trkpt lat="46.2151184524017" lon="13.266583642046955"><ele>235.0</ele><time>2026-04-11T11:03:59.999Z</time></trkpt><trkpt lat="46.21524488071358" lon="13.266609346650496"><ele>235.0</ele><time>2026-04-11T11:04:00.999Z</time></trkpt><trkpt lat="46.215382131390584" lon="13.266612677304403"><ele>235.0</ele><time>2026-04-11T11:04:01.999Z</time></trkpt><trkpt lat="46.215521620397794" lon="13.266643932743552"><ele>234.75</ele><time>2026-04-11T11:04:02.999Z</time></trkpt><trkpt lat="46.215663378559924" lon="13.266671020372895"><ele>234.5</ele><time>2026-04-11T11:04:03.999Z</time></trkpt><trkpt lat="46.2158022570019" lon="13.266717519280817"><ele>234.25</ele><time>2026-04-11T11:04:04.999Z</time></trkpt><trkpt lat="46.215946446829406" lon="13.266723777931835"><ele>234.0</ele><time>2026-04-11T11:04:05.999Z</time></trkpt><trkpt lat="46.216085631030964" lon="13.266750278317442"><ele>234.0</ele><time>2026-04-11T11:04:06.999Z</time></trkpt><trkpt lat="46.21622534935279" lon="13.266776868340939"><ele>234.0</ele><time>2026-04-11T11:04:07.999Z</time></trkpt><trkpt lat="46.21636129269465" lon="13.266807105183007"><ele>234.0</ele><time>2026-04-11T11:04:08.999Z</time></trkpt><trkpt lat="46.21649567615264" lon="13.266837598167285"><ele>234.0</ele><time>2026-04-11T11:04:09.999Z</time></trkpt><trkpt lat="46.21663002772773" lon="13.266862000565583"><ele>234.5</ele><time>2026-04-11T11:04:10.999Z</time></trkpt><trkpt lat="46.216765072227986" lon="13.266880767406427"><ele>235.0</ele><time>2026-04-11T11:04:11.999Z</time></trkpt><trkpt lat="46.21690271599997" lon="13.266886528723981"><ele>235.5</ele><time>2026-04-11T11:04:12.999Z</time></trkpt><trkpt lat="46.217048441523765" lon="13.266864781560422"><ele>236.0</ele><time>2026-04-11T11:04:13.999Z</time></trkpt><trkpt lat="46.217195920210294" lon="13.266842295523164"><ele>237.25</ele><time>2026-04-11T11:04:14.999Z</time></trkpt><trkpt lat="46.21733649954086" lon="13.266823988374798"><ele>238.5</ele><time>2026-04-11T11:04:15.999Z</time></trkpt><trkpt lat="46.21747430945002" lon="13.266805918903646"><ele>239.75</ele><time>2026-04-11T11:04:16.999Z</time></trkpt><trkpt lat="46.21761124712427" lon="13.266793353611561"><ele>241.0</ele><time>2026-04-11T11:04:17.999Z</time></trkpt><trkpt lat="46.217739828821884" lon="13.266792674931663"><ele>241.0</ele><time>2026-04-11T11:04:18.999Z</time></trkpt><trkpt lat="46.217874498024685" lon="13.266804863521187"><ele>241.0</ele><time>2026-04-11T11:04:19.999Z</time></trkpt><trkpt lat="46.21801219007896" lon="13.26683401924343"><ele>241.0</ele><time>2026-04-11T11:04:20.999Z</time></trkpt><trkpt lat="46.21814375806681" lon="13.266878712395389"><ele>241.0</ele><time>2026-04-11T11:04:21.999Z</time></trkpt><trkpt lat="46.21827109086026" lon="13.266930175143694"><ele>243.0</ele><time>2026-04-11T11:04:22.999Z</time></trkpt><trkpt lat="46.218396910939425" lon="13.26699021209968"><ele>245.0</ele><time>2026-04-11T11:04:23.999Z</time></trkpt><trkpt lat="46.218513017269366" lon="13.267048145461535"><ele>247.0</ele><time>2026-04-11T11:04:24.999Z</time></trkpt><trkpt lat="46.21862502906907" lon="13.267100909491242"><ele>249.0</ele><time>2026-04-11T11:04:25.999Z</time></trkpt><trkpt lat="46.2187347495238" lon="13.26715400647589"><ele>249.0</ele><time>2026-04-11T11:04:26.999Z</time></trkpt><trkpt lat="46.21884519000767" lon="13.267212972098521"><ele>248.99999999999997</ele><time>2026-04-11T11:04:27.999Z</time></trkpt><trkpt lat="46.21895234117272" lon="13.267269332057673"><ele>248.99999999999997</ele><time>2026-04-11T11:04:28.999Z</time></trkpt><trkpt lat="46.21904358016858" lon="13.26730852733423"><ele>249.0</ele><time>2026-04-11T11:04:29.999Z</time></trkpt><trkpt lat="46.219137510412075" lon="13.26733019744223"><ele>249.0</ele><time>2026-04-11T11:04:30.999Z</time></trkpt><trkpt lat="46.2192344453449" lon="13.267309501499264"><ele>251.0</ele><time>2026-04-11T11:04:31.999Z</time></trkpt><trkpt lat="46.219323986238855" lon="13.2672640464556"><ele>252.99999999999997</ele><time>2026-04-11T11:04:32.999Z</time></trkpt><trkpt lat="46.219402123190946" lon="13.267179854199124"><ele>254.99999999999997</ele><time>2026-04-11T11:04:33.999Z</time></trkpt><trkpt lat="46.21946795116753" lon="13.267060283610554"><ele>257.0</ele><time>2026-04-11T11:04:34.999Z</time></trkpt><trkpt lat="46.21951102115876" lon="13.266929944572984"><ele>259.0</ele><time>2026-04-11T11:04:35.999Z</time></trkpt><trkpt lat="46.2195499250928" lon="13.266793214768315"><ele>259.0</ele><time>2026-04-11T11:04:36.999Z</time></trkpt><trkpt lat="46.21956073549033" lon="13.266637292096956"><ele>259.0</ele><time>2026-04-11T11:04:37.999Z</time></trkpt><trkpt lat="46.21955269698932" lon="13.266478808259508"><ele>259.0</ele><time>2026-04-11T11:04:38.999Z</time></trkpt><trkpt lat="46.219539828055474" lon="13.266318725702957"><ele>259.0</ele><time>2026-04-11T11:04:39.999Z</time></trkpt><trkpt lat="46.21952940536899" lon="13.266142613008114"><ele>259.25</ele><time>2026-04-11T11:04:40.999Z</time></trkpt><trkpt lat="46.21950687009253" lon="13.265976511828041"><ele>259.5</ele><time>2026-04-11T11:04:41.999Z</time></trkpt><trkpt lat="46.21949529761515" lon="13.265800730756357"><ele>259.75</ele><time>2026-04-11T11:04:42.999Z</time></trkpt><trkpt lat="46.21948735261712" lon="13.265617552320098"><ele>260.0</ele><time>2026-04-11T11:04:43.999Z</time></trkpt><trkpt lat="46.21949255346497" lon="13.265450449852597"><ele>262.0</ele><time>2026-04-11T11:04:44.999Z</time></trkpt><trkpt lat="46.21948170837158" lon="13.26528903128266"><ele>264.0</ele><time>2026-04-11T11:04:45.999Z</time></trkpt><trkpt lat="46.219453079533096" lon="13.265136027765935"><ele>266.0</ele><time>2026-04-11T11:04:46.999Z</time></trkpt><trkpt lat="46.2194319958356" lon="13.264978368050357"><ele>268.0</ele><time>2026-04-11T11:04:47.999Z</time></trkpt><trkpt lat="46.219411747132725" lon="13.264814772577447"><ele>270.0</ele><time>2026-04-11T11:04:48.999Z</time></trkpt><trkpt lat="46.2193950001876" lon="13.264651822505785"><ele>271.0</ele><time>2026-04-11T11:04:49.999Z</time></trkpt><trkpt lat="46.21937297922018" lon="13.264488570891642"><ele>272.0</ele><time>2026-04-11T11:04:50.999Z</time></trkpt><trkpt lat="46.21934872620121" lon="13.264323635024972"><ele>273.0</ele><time>2026-04-11T11:04:51.999Z</time></trkpt><trkpt lat="46.21932489168057" lon="13.26415362984649"><ele>274.0</ele><time>2026-04-11T11:04:52.999Z</time></trkpt><trkpt lat="46.21930661605026" lon="13.263979364062491"><ele>274.75</ele><time>2026-04-11T11:04:53.999Z</time></trkpt><trkpt lat="46.219288193905015" lon="13.263808230947443"><ele>275.5</ele><time>2026-04-11T11:04:54.999Z</time></trkpt><trkpt lat="46.21927203014446" lon="13.263637851058144"><ele>276.25</ele><time>2026-04-11T11:04:55.999Z</time></trkpt><trkpt lat="46.21928133532324" lon="13.263478613721045"><ele>277.0</ele><time>2026-04-11T11:04:57Z</time></trkpt><trkpt lat="46.2193118852977" lon="13.263323255154093"><ele>277.0</ele><time>2026-04-11T11:04:58Z</time></trkpt><trkpt lat="46.219366643179306" lon="13.263173442075532"><ele>277.0</ele><time>2026-04-11T11:04:59Z</time></trkpt><trkpt lat="46.21943139356518" lon="13.2630235114248"><ele>277.0</ele><time>2026-04-11T11:05:00Z</time></trkpt><trkpt lat="46.219480027782794" lon="13.262879755817686"><ele>277.0</ele><time>2026-04-11T11:05:01Z</time></trkpt><trkpt lat="46.219512601163366" lon="13.262725185630195"><ele>276.0</ele><time>2026-04-11T11:05:02Z</time></trkpt><trkpt lat="46.21953148523708" lon="13.262555795983287"><ele>275.0</ele><time>2026-04-11T11:05:03Z</time></trkpt><trkpt lat="46.21954987314451" lon="13.262389689337388"><ele>274.0</ele><time>2026-04-11T11:05:04Z</time></trkpt><trkpt lat="46.219568373918634" lon="13.262243749899534"><ele>273.0</ele><time>2026-04-11T11:05:05Z</time></trkpt><trkpt lat="46.219598757184386" lon="13.262103220259995"><ele>272.0</ele><time>2026-04-11T11:05:06Z</time></trkpt><trkpt lat="46.21965105439255" lon="13.2619760527949"><ele>271.0</ele><time>2026-04-11T11:05:07Z</time></trkpt><trkpt lat="46.2197195118523" lon="13.261861744983381"><ele>270.0</ele><time>2026-04-11T11:05:08Z</time></trkpt><trkpt lat="46.21980332613512" lon="13.261763414023013"><ele>269.0</ele><time>2026-04-11T11:05:09Z</time></trkpt><trkpt lat="46.219885636827506" lon="13.261665821606858"><ele>268.0</ele><time>2026-04-11T11:05:10Z</time></trkpt><trkpt lat="46.21996239902209" lon="13.261559198099988"><ele>267.0</ele><time>2026-04-11T11:05:11Z</time></trkpt><trkpt lat="46.22003926996176" lon="13.261452807295768"><ele>271.25</ele><time>2026-04-11T11:05:12Z</time></trkpt><trkpt lat="46.220111373148875" lon="13.261333209324478"><ele>275.5</ele><time>2026-04-11T11:05:13Z</time></trkpt><trkpt lat="46.22018393834864" lon="13.261194239806814"><ele>279.75</ele><time>2026-04-11T11:05:14Z</time></trkpt><trkpt lat="46.22023819103425" lon="13.261006249442502"><ele>284.0</ele><time>2026-04-11T11:05:15Z</time></trkpt><trkpt lat="46.22029100226168" lon="13.26081985292352"><ele>284.0</ele><time>2026-04-11T11:05:16Z</time></trkpt><trkpt lat="46.22034133798458" lon="13.260642193665255"><ele>284.0</ele><time>2026-04-11T11:05:17Z</time></trkpt><trkpt lat="46.22039449804657" lon="13.260456755289324"><ele>284.0</ele><time>2026-04-11T11:05:18Z</time></trkpt><trkpt lat="46.22045579299627" lon="13.260239449974938"><ele>284.0</ele><time>2026-04-11T11:05:19Z</time></trkpt><trkpt lat="46.22051784821696" lon="13.259959063761071"><ele>279.6666666666667</ele><time>2026-04-11T11:05:20Z</time></trkpt><trkpt lat="46.22057380328956" lon="13.259761225741782"><ele>275.3333333333333</ele><time>2026-04-11T11:05:21Z</time></trkpt><trkpt lat="46.2206319011134" lon="13.25956493487231"><ele>271.0</ele><time>2026-04-11T11:05:22Z</time></trkpt><trkpt lat="46.22069394589844" lon="13.259354674105227"><ele>278.0</ele><time>2026-04-11T11:05:23Z</time></trkpt><trkpt lat="46.220757337502306" lon="13.259143908418688"><ele>285.0</ele><time>2026-04-11T11:05:24Z</time></trkpt><trkpt lat="46.22082822170096" lon="13.258947707625524"><ele>292.0</ele><time>2026-04-11T11:05:25Z</time></trkpt><trkpt lat="46.220920144635414" lon="13.258777853255232"><ele>292.0</ele><time>2026-04-11T11:05:26Z</time></trkpt><trkpt lat="46.221007480622234" lon="13.258624875355776"><ele>292.0</ele><time>2026-04-11T11:05:27Z</time></trkpt><trkpt lat="46.22108289286806" lon="13.258468564916871"><ele>292.0</ele><time>2026-04-11T11:05:28Z</time></trkpt><trkpt lat="46.22117157794395" lon="13.2583121831024"><ele>292.0</ele><time>2026-04-11T11:05:29Z</time></trkpt><trkpt lat="46.2212655778777" lon="13.258159555624685"><ele>290.25</ele><time>2026-04-11T11:05:30Z</time></trkpt><trkpt lat="46.22136001080517" lon="13.258003430146804"><ele>288.5</ele><time>2026-04-11T11:05:31Z</time></trkpt><trkpt lat="46.22146205714974" lon="13.257870408822182"><ele>286.75</ele><time>2026-04-11T11:05:32Z</time></trkpt><trkpt lat="46.22154792822407" lon="13.257734793259145"><ele>285.0</ele><time>2026-04-11T11:05:33Z</time></trkpt><trkpt lat="46.221621662410186" lon="13.257586118865932"><ele>291.25</ele><time>2026-04-11T11:05:34Z</time></trkpt><trkpt lat="46.22168233957974" lon="13.257408779990339"><ele>297.5</ele><time>2026-04-11T11:05:34.999Z</time></trkpt><trkpt lat="46.221736437609245" lon="13.257229859869993"><ele>303.75</ele><time>2026-04-11T11:05:35.999Z</time></trkpt><trkpt lat="46.22178569362187" lon="13.25704598133899"><ele>310.0</ele><time>2026-04-11T11:05:36.999Z</time></trkpt><trkpt lat="46.22182793977924" lon="13.25688991227257"><ele>310.0</ele><time>2026-04-11T11:05:37.999Z</time></trkpt><trkpt lat="46.22186896696551" lon="13.256747350911896"><ele>310.0</ele><time>2026-04-11T11:05:38.999Z</time></trkpt><trkpt lat="46.22190994802732" lon="13.256624816788422"><ele>310.0</ele><time>2026-04-11T11:05:39.999Z</time></trkpt><trkpt lat="46.2219592412979" lon="13.256519370805202"><ele>310.0</ele><time>2026-04-11T11:05:40.999Z</time></trkpt><trkpt lat="46.22202978254217" lon="13.256417370394981"><ele>310.0</ele><time>2026-04-11T11:05:41.999Z</time></trkpt><trkpt lat="46.222097880387714" lon="13.25631663304438"><ele>310.4</ele><time>2026-04-11T11:05:42.999Z</time></trkpt><trkpt lat="46.22213661651816" lon="13.256181040989304"><ele>310.8</ele><time>2026-04-11T11:05:43.999Z</time></trkpt><trkpt lat="46.22214899847944" lon="13.25600419599767"><ele>311.2</ele><time>2026-04-11T11:05:44.999Z</time></trkpt><trkpt lat="46.222123994210705" lon="13.255827146054118"><ele>311.6</ele><time>2026-04-11T11:05:45.999Z</time></trkpt><trkpt lat="46.22211298875975" lon="13.255697036582331"><ele>312.0</ele><time>2026-04-11T11:05:46.999Z</time></trkpt><trkpt lat="46.22210210434764" lon="13.255566835513402"><ele>313.3333333333333</ele><time>2026-04-11T11:05:47.999Z</time></trkpt><trkpt lat="46.222094068868586" lon="13.255457968936653"><ele>314.6666666666667</ele><time>2026-04-11T11:05:48.999Z</time></trkpt><trkpt lat="46.22208686331156" lon="13.255361300013746"><ele>316.0</ele><time>2026-04-11T11:05:49.999Z</time></trkpt><trkpt lat="46.22207905190802" lon="13.255262268617706"><ele>317.33333333333337</ele><time>2026-04-11T11:05:50.999Z</time></trkpt><trkpt lat="46.222064061658855" lon="13.25512380768661"><ele>318.6666666666667</ele><time>2026-04-11T11:05:52.999Z</time></trkpt><trkpt lat="46.22204975915075" lon="13.255008418944351"><ele>320.0</ele><time>2026-04-11T11:05:54.999Z</time></trkpt><trkpt lat="46.22203919613624" lon="13.254913501109943"><ele>320.0</ele><time>2026-04-11T11:05:56.999Z</time></trkpt><trkpt lat="46.22218035112928" lon="13.254938394102664"><ele>320.0</ele><time>2026-04-11T11:06:00.999Z</time></trkpt><trkpt lat="46.22222865303572" lon="13.25503302234131"><ele>320.0</ele><time>2026-04-11T11:06:01.999Z</time></trkpt><trkpt lat="46.22225461941141" lon="13.25513065426973"><ele>320.0</ele><time>2026-04-11T11:06:02.999Z</time></trkpt><trkpt lat="46.22226746384037" lon="13.255240583817525"><ele>320.0</ele><time>2026-04-11T11:06:03.999Z</time></trkpt><trkpt lat="46.222285729988" lon="13.25535841549758"><ele>325.4</ele><time>2026-04-11T11:06:04.999Z</time></trkpt><trkpt lat="46.2223164197938" lon="13.255504579615655"><ele>330.8</ele><time>2026-04-11T11:06:05.999Z</time></trkpt><trkpt lat="46.222337770182" lon="13.255653246514836"><ele>336.20000000000005</ele><time>2026-04-11T11:06:06.999Z</time></trkpt><trkpt lat="46.222364269702524" lon="13.255778995848154"><ele>341.6</ele><time>2026-04-11T11:06:07.999Z</time></trkpt><trkpt lat="46.22239218855805" lon="13.255908011790483"><ele>347.0</ele><time>2026-04-11T11:06:08.999Z</time></trkpt><trkpt lat="46.22240634461233" lon="13.256043637615743"><ele>347.0</ele><time>2026-04-11T11:06:09.999Z</time></trkpt><trkpt lat="46.22241005357444" lon="13.25618909072546"><ele>347.0</ele><time>2026-04-11T11:06:10.999Z</time></trkpt><trkpt lat="46.222400557697206" lon="13.256350889574847"><ele>347.0</ele><time>2026-04-11T11:06:11.999Z</time></trkpt><trkpt lat="46.22238281023115" lon="13.25652178687885"><ele>347.0</ele><time>2026-04-11T11:06:12.999Z</time></trkpt><trkpt lat="46.2223689110466" lon="13.256692243575598"><ele>347.75</ele><time>2026-04-11T11:06:13.999Z</time></trkpt><trkpt lat="46.22235871799939" lon="13.256857551940309"><ele>348.5</ele><time>2026-04-11T11:06:14.999Z</time></trkpt><trkpt lat="46.22233463329755" lon="13.257026038071631"><ele>349.25</ele><time>2026-04-11T11:06:15.999Z</time></trkpt><trkpt lat="46.22233482836095" lon="13.25720702091907"><ele>350.0</ele><time>2026-04-11T11:06:16.999Z</time></trkpt><trkpt lat="46.22233586391393" lon="13.25739269337973"><ele>351.25</ele><time>2026-04-11T11:06:17.999Z</time></trkpt><trkpt lat="46.22233685756602" lon="13.257579024731294"><ele>352.5</ele><time>2026-04-11T11:06:18.999Z</time></trkpt><trkpt lat="46.22233049678022" lon="13.257751863783072"><ele>353.75</ele><time>2026-04-11T11:06:19.999Z</time></trkpt><trkpt lat="46.222310944440245" lon="13.257909711314632"><ele>355.0</ele><time>2026-04-11T11:06:20.999Z</time></trkpt><trkpt lat="46.22228014297868" lon="13.258055139487775"><ele>349.2</ele><time>2026-04-11T11:06:21.999Z</time></trkpt><trkpt lat="46.22224541211608" lon="13.258191359119065"><ele>343.4</ele><time>2026-04-11T11:06:22.999Z</time></trkpt><trkpt lat="46.22221104293448" lon="13.258324517591674"><ele>337.6</ele><time>2026-04-11T11:06:23.999Z</time></trkpt><trkpt lat="46.22217562883685" lon="13.2584498486905"><ele>331.8</ele><time>2026-04-11T11:06:24.999Z</time></trkpt><trkpt lat="46.22215364684132" lon="13.258580729227578"><ele>326.0</ele><time>2026-04-11T11:06:25.999Z</time></trkpt><trkpt lat="46.22211067279943" lon="13.258698957821402"><ele>326.0</ele><time>2026-04-11T11:06:26.999Z</time></trkpt><trkpt lat="46.22205838352679" lon="13.258816150045487"><ele>326.0</ele><time>2026-04-11T11:06:27.999Z</time></trkpt><trkpt lat="46.22199963550066" lon="13.258938679961933"><ele>326.0</ele><time>2026-04-11T11:06:28.999Z</time></trkpt><trkpt lat="46.22193524212284" lon="13.259059471844996"><ele>326.0</ele><time>2026-04-11T11:06:29.999Z</time></trkpt><trkpt lat="46.221867067371406" lon="13.259169074210673"><ele>326.0</ele><time>2026-04-11T11:06:30.999Z</time></trkpt><trkpt lat="46.221801259566796" lon="13.25927772268094"><ele>329.20000000000005</ele><time>2026-04-11T11:06:31.999Z</time></trkpt><trkpt lat="46.22175163222009" lon="13.259389467955092"><ele>332.40000000000003</ele><time>2026-04-11T11:06:32.999Z</time></trkpt><trkpt lat="46.22173065106529" lon="13.259507909866127"><ele>335.6</ele><time>2026-04-11T11:06:33.999Z</time></trkpt><trkpt lat="46.221749177384304" lon="13.259671334998695"><ele>338.8</ele><time>2026-04-11T11:06:34.999Z</time></trkpt><trkpt lat="46.22179286929803" lon="13.25986019373122"><ele>342.0</ele><time>2026-04-11T11:06:35.999Z</time></trkpt><trkpt lat="46.221819355703886" lon="13.260023747579856"><ele>344.5</ele><time>2026-04-11T11:06:36.999Z</time></trkpt><trkpt lat="46.22182711010383" lon="13.26018976230486"><ele>347.0</ele><time>2026-04-11T11:06:37.999Z</time></trkpt><trkpt lat="46.22181373315796" lon="13.260363863085319"><ele>349.5</ele><time>2026-04-11T11:06:38.999Z</time></trkpt><trkpt lat="46.22179137896465" lon="13.2605418380611"><ele>352.0</ele><time>2026-04-11T11:06:39.999Z</time></trkpt><trkpt lat="46.22176856303604" lon="13.26071785532883"><ele>354.25</ele><time>2026-04-11T11:06:40.999Z</time></trkpt><trkpt lat="46.22173908763708" lon="13.260891492462923"><ele>356.5</ele><time>2026-04-11T11:06:41.999Z</time></trkpt><trkpt lat="46.22174554815001" lon="13.261074355604489"><ele>358.75</ele><time>2026-04-11T11:06:42.999Z</time></trkpt><trkpt lat="46.221780575323685" lon="13.261263391459046"><ele>361.0</ele><time>2026-04-11T11:06:43.999Z</time></trkpt><trkpt lat="46.22174992467835" lon="13.261474642756129"><ele>363.75</ele><time>2026-04-11T11:06:44.999Z</time></trkpt><trkpt lat="46.22172135601439" lon="13.26168846223289"><ele>366.5</ele><time>2026-04-11T11:06:45.999Z</time></trkpt><trkpt lat="46.22169014559264" lon="13.261883035986749"><ele>369.25</ele><time>2026-04-11T11:06:46.999Z</time></trkpt><trkpt lat="46.22167705482078" lon="13.262069292969874"><ele>372.0</ele><time>2026-04-11T11:06:47.999Z</time></trkpt><trkpt lat="46.221648281016044" lon="13.26224039581289"><ele>373.0</ele><time>2026-04-11T11:06:48.999Z</time></trkpt><trkpt lat="46.22162065110778" lon="13.262406462080227"><ele>374.0</ele><time>2026-04-11T11:06:49.999Z</time></trkpt><trkpt lat="46.22159688454163" lon="13.262558000722507"><ele>375.0</ele><time>2026-04-11T11:06:50.999Z</time></trkpt><trkpt lat="46.22156939590338" lon="13.262699270438251"><ele>376.0</ele><time>2026-04-11T11:06:51.999Z</time></trkpt><trkpt lat="46.22154443062408" lon="13.262831320813065"><ele>377.0</ele><time>2026-04-11T11:06:52.999Z</time></trkpt><trkpt lat="46.221526281888046" lon="13.262954033701698"><ele>377.0</ele><time>2026-04-11T11:06:53.999Z</time></trkpt><trkpt lat="46.22152264618604" lon="13.263095061058232"><ele>377.0</ele><time>2026-04-11T11:06:54.999Z</time></trkpt><trkpt lat="46.22151356491685" lon="13.26325982506528"><ele>377.0</ele><time>2026-04-11T11:06:55.999Z</time></trkpt><trkpt lat="46.221522637443634" lon="13.263432317843593"><ele>377.0</ele><time>2026-04-11T11:06:56.999Z</time></trkpt><trkpt lat="46.221545634373605" lon="13.263587198026752"><ele>377.0</ele><time>2026-04-11T11:06:57.999Z</time></trkpt><trkpt lat="46.22153161907815" lon="13.263721776451966"><ele>376.6</ele><time>2026-04-11T11:06:58.999Z</time></trkpt><trkpt lat="46.221537893286424" lon="13.263855732342275"><ele>376.20000000000005</ele><time>2026-04-11T11:06:59.999Z</time></trkpt><trkpt lat="46.22158672588484" lon="13.263984144589315"><ele>375.8</ele><time>2026-04-11T11:07:00.999Z</time></trkpt><trkpt lat="46.22163279823394" lon="13.264114429655615"><ele>375.4</ele><time>2026-04-11T11:07:01.999Z</time></trkpt><trkpt lat="46.22170021083839" lon="13.264255477064868"><ele>375.0</ele><time>2026-04-11T11:07:03Z</time></trkpt><trkpt lat="46.221758030097284" lon="13.264414096046277"><ele>376.75</ele><time>2026-04-11T11:07:04Z</time></trkpt><trkpt lat="46.22179694374899" lon="13.264592516928724"><ele>378.5</ele><time>2026-04-11T11:07:05Z</time></trkpt><trkpt lat="46.22181787975448" lon="13.26478458899085"><ele>380.25</ele><time>2026-04-11T11:07:06Z</time></trkpt><trkpt lat="46.2218265087062" lon="13.264984004325663"><ele>382.0</ele><time>2026-04-11T11:07:07Z</time></trkpt><trkpt lat="46.221839458665215" lon="13.26516836513358"><ele>381.5</ele><time>2026-04-11T11:07:08Z</time></trkpt><trkpt lat="46.22183509595589" lon="13.265345111600134"><ele>381.0</ele><time>2026-04-11T11:07:09Z</time></trkpt><trkpt lat="46.22184753789181" lon="13.265518651691984"><ele>380.5</ele><time>2026-04-11T11:07:10Z</time></trkpt><trkpt lat="46.22186035073672" lon="13.265701223965563"><ele>380.0</ele><time>2026-04-11T11:07:11Z</time></trkpt><trkpt lat="46.22188375926774" lon="13.265897369969139"><ele>380.0</ele><time>2026-04-11T11:07:12Z</time></trkpt><trkpt lat="46.22189211709016" lon="13.2661000623959"><ele>380.0</ele><time>2026-04-11T11:07:13Z</time></trkpt><trkpt lat="46.2218922285913" lon="13.26629450964011"><ele>380.0</ele><time>2026-04-11T11:07:14Z</time></trkpt><trkpt lat="46.22189340496631" lon="13.266478717096565"><ele>380.0</ele><time>2026-04-11T11:07:15Z</time></trkpt><trkpt lat="46.22190099279937" lon="13.266665653239995"><ele>380.25</ele><time>2026-04-11T11:07:16Z</time></trkpt><trkpt lat="46.22192725085775" lon="13.266856235905498"><ele>380.5</ele><time>2026-04-11T11:07:17Z</time></trkpt><trkpt lat="46.22196223940496" lon="13.26704287900103"><ele>380.75</ele><time>2026-04-11T11:07:18Z</time></trkpt><trkpt lat="46.221983265825834" lon="13.267236661326773"><ele>381.0</ele><time>2026-04-11T11:07:19Z</time></trkpt><trkpt lat="46.22201232343803" lon="13.26744963007542"><ele>381.0</ele><time>2026-04-11T11:07:20Z</time></trkpt><trkpt lat="46.22203675030357" lon="13.267650916332064"><ele>381.0</ele><time>2026-04-11T11:07:21Z</time></trkpt><trkpt lat="46.22205012804139" lon="13.267836502762664"><ele>381.0</ele><time>2026-04-11T11:07:22Z</time></trkpt><trkpt lat="46.22204806510607" lon="13.26801679806859"><ele>381.0</ele><time>2026-04-11T11:07:23Z</time></trkpt><trkpt lat="46.22204731490393" lon="13.26817440012861"><ele>376.75</ele><time>2026-04-11T11:07:24Z</time></trkpt><trkpt lat="46.222057825008996" lon="13.268329338912668"><ele>372.5</ele><time>2026-04-11T11:07:25Z</time></trkpt><trkpt lat="46.222058538668286" lon="13.268492408252115"><ele>368.25</ele><time>2026-04-11T11:07:26Z</time></trkpt><trkpt lat="46.222083677477485" lon="13.268660972269712"><ele>364.0</ele><time>2026-04-11T11:07:27Z</time></trkpt><trkpt lat="46.222130565358874" lon="13.268822534929082"><ele>361.0</ele><time>2026-04-11T11:07:28Z</time></trkpt><trkpt lat="46.222166446513555" lon="13.269001220840224"><ele>358.0</ele><time>2026-04-11T11:07:29Z</time></trkpt><trkpt lat="46.22221294602196" lon="13.26919066898705"><ele>355.0</ele><time>2026-04-11T11:07:30Z</time></trkpt><trkpt lat="46.222253776482866" lon="13.269387714872371"><ele>352.0</ele><time>2026-04-11T11:07:31Z</time></trkpt><trkpt lat="46.2222929812151" lon="13.269582810981388"><ele>352.0</ele><time>2026-04-11T11:07:32Z</time></trkpt><trkpt lat="46.22232699805214" lon="13.269780911351875"><ele>352.0</ele><time>2026-04-11T11:07:33Z</time></trkpt><trkpt lat="46.22234951885787" lon="13.26998421074788"><ele>352.0</ele><time>2026-04-11T11:07:34Z</time></trkpt><trkpt lat="46.222371413652716" lon="13.27019372259695"><ele>352.0</ele><time>2026-04-11T11:07:35Z</time></trkpt><trkpt lat="46.22239786639639" lon="13.270422249909121"><ele>352.0</ele><time>2026-04-11T11:07:36Z</time></trkpt><trkpt lat="46.222422646045295" lon="13.270663118442554"><ele>352.0</ele><time>2026-04-11T11:07:37Z</time></trkpt><trkpt lat="46.22245118124474" lon="13.27090711385898"><ele>352.0</ele><time>2026-04-11T11:07:38Z</time></trkpt><trkpt lat="46.2224871174002" lon="13.271132917289483"><ele>352.0</ele><time>2026-04-11T11:07:39Z</time></trkpt><trkpt lat="46.22253100035826" lon="13.27134133028573"><ele>352.0</ele><time>2026-04-11T11:07:39.999Z</time></trkpt><trkpt lat="46.22259419101368" lon="13.271535450264519"><ele>352.0</ele><time>2026-04-11T11:07:40.999Z</time></trkpt><trkpt lat="46.22265193172899" lon="13.271740224121096"><ele>352.0</ele><time>2026-04-11T11:07:41.999Z</time></trkpt><trkpt lat="46.22272672976817" lon="13.271927936140777"><ele>352.0</ele><time>2026-04-11T11:07:42.999Z</time></trkpt><trkpt lat="46.22280796161704" lon="13.272081756686799"><ele>352.0</ele><time>2026-04-11T11:07:43.999Z</time></trkpt><trkpt lat="46.222842043840316" lon="13.272267642725124"><ele>352.0</ele><time>2026-04-11T11:07:44.999Z</time></trkpt><trkpt lat="46.22289301008951" lon="13.272443363767078"><ele>352.0</ele><time>2026-04-11T11:07:45.999Z</time></trkpt><trkpt lat="46.22291990980296" lon="13.272601332046571"><ele>352.0</ele><time>2026-04-11T11:07:46.999Z</time></trkpt><trkpt lat="46.22294702011865" lon="13.272739217185661"><ele>352.0</ele><time>2026-04-11T11:07:47.999Z</time></trkpt><trkpt lat="46.222975133249946" lon="13.272862539366558"><ele>352.0</ele><time>2026-04-11T11:07:48.999Z</time></trkpt><trkpt lat="46.223014149948874" lon="13.273005375058297"><ele>352.0</ele><time>2026-04-11T11:07:49.999Z</time></trkpt><trkpt lat="46.223113314512" lon="13.273157536693178"><ele>352.0</ele><time>2026-04-11T11:07:50.999Z</time></trkpt><trkpt lat="46.22321314872809" lon="13.273269647122191"><ele>352.0</ele><time>2026-04-11T11:07:51.999Z</time></trkpt><trkpt lat="46.22323938246176" lon="13.273413982970991"><ele>352.0</ele><time>2026-04-11T11:07:52.999Z</time></trkpt><trkpt lat="46.22329133400667" lon="13.273508926169848"><ele>352.0</ele><time>2026-04-11T11:07:53.999Z</time></trkpt><trkpt lat="46.2233340452215" lon="13.273614009464033"><ele>352.0</ele><time>2026-04-11T11:07:54.999Z</time></trkpt><trkpt lat="46.2234353244121" lon="13.27368395000255"><ele>352.0</ele><time>2026-04-11T11:07:55.999Z</time></trkpt><trkpt lat="46.22356445572063" lon="13.273685132985191"><ele>352.0</ele><time>2026-04-11T11:07:56.999Z</time></trkpt><trkpt lat="46.22369893142253" lon="13.273715774186316"><ele>352.0</ele><time>2026-04-11T11:07:57.999Z</time></trkpt><trkpt lat="46.223817844699454" lon="13.27372168965093"><ele>352.0</ele><time>2026-04-11T11:07:58.999Z</time></trkpt><trkpt lat="46.223934896531155" lon="13.273701179453676"><ele>352.0</ele><time>2026-04-11T11:07:59.999Z</time></trkpt><trkpt lat="46.224077544677336" lon="13.273715530883752"><ele>352.0</ele><time>2026-04-11T11:08:00.999Z</time></trkpt><trkpt lat="46.22425156970863" lon="13.273674391886063"><ele>352.0</ele><time>2026-04-11T11:08:01.999Z</time></trkpt><trkpt lat="46.22442472286948" lon="13.273627343079388"><ele>389.3333333333333</ele><time>2026-04-11T11:08:02.999Z</time></trkpt><trkpt lat="46.22465294833831" lon="13.27356824951699"><ele>426.66666666666663</ele><time>2026-04-11T11:08:03.999Z</time></trkpt><trkpt lat="46.224856906573166" lon="13.273520212525748"><ele>464.0</ele><time>2026-04-11T11:08:04.999Z</time></trkpt><trkpt lat="46.22506692307479" lon="13.273469069855674"><ele>464.0</ele><time>2026-04-11T11:08:05.999Z</time></trkpt><trkpt lat="46.22530404650707" lon="13.27338584648912"><ele>464.0</ele><time>2026-04-11T11:08:06.999Z</time></trkpt><trkpt lat="46.2255163841456" lon="13.273356762178224"><ele>462.3333333333333</ele><time>2026-04-11T11:08:07.999Z</time></trkpt><trkpt lat="46.22570198310459" lon="13.273309464489229"><ele>460.66666666666663</ele><time>2026-04-11T11:08:08.999Z</time></trkpt><trkpt lat="46.225862595711156" lon="13.273250790233673"><ele>459.0</ele><time>2026-04-11T11:08:09.999Z</time></trkpt><trkpt lat="46.22601729965595" lon="13.273218178412176"><ele>459.0</ele><time>2026-04-11T11:08:10.999Z</time></trkpt><trkpt lat="46.226152677556875" lon="13.273211663213303"><ele>459.0</ele><time>2026-04-11T11:08:11.999Z</time></trkpt><trkpt lat="46.226265512617566" lon="13.273232137420822"><ele>459.0</ele><time>2026-04-11T11:08:12.999Z</time></trkpt><trkpt lat="46.22637272222015" lon="13.27328098428026"><ele>459.0</ele><time>2026-04-11T11:08:13.999Z</time></trkpt><trkpt lat="46.226471164583266" lon="13.273373186497443"><ele>461.5</ele><time>2026-04-11T11:08:14.999Z</time></trkpt><trkpt lat="46.22653832737928" lon="13.273500341442933"><ele>464.0</ele><time>2026-04-11T11:08:15.999Z</time></trkpt><trkpt lat="46.22656968808944" lon="13.273676569641216"><ele>466.5</ele><time>2026-04-11T11:08:16.999Z</time></trkpt><trkpt lat="46.22658843162619" lon="13.273877979788873"><ele>469.0</ele><time>2026-04-11T11:08:17.999Z</time></trkpt><trkpt lat="46.226612125708286" lon="13.274061438181505"><ele>469.0</ele><time>2026-04-11T11:08:18.999Z</time></trkpt><trkpt lat="46.226638083493775" lon="13.274234922723611"><ele>469.0</ele><time>2026-04-11T11:08:19.999Z</time></trkpt><trkpt lat="46.226655554710455" lon="13.274433961740314"><ele>469.0</ele><time>2026-04-11T11:08:20.999Z</time></trkpt><trkpt lat="46.22666249058911" lon="13.274655310626157"><ele>469.0</ele><time>2026-04-11T11:08:21.999Z</time></trkpt><trkpt lat="46.22666868604363" lon="13.274833971165192"><ele>465.4</ele><time>2026-04-11T11:08:22.999Z</time></trkpt><trkpt lat="46.2266735582896" lon="13.274990248347295"><ele>461.79999999999995</ele><time>2026-04-11T11:08:23.999Z</time></trkpt><trkpt lat="46.226672667070346" lon="13.275151078428486"><ele>458.20000000000005</ele><time>2026-04-11T11:08:24.999Z</time></trkpt><trkpt lat="46.22667844387566" lon="13.275314082220293"><ele>454.6</ele><time>2026-04-11T11:08:25.999Z</time></trkpt><trkpt lat="46.22669588426382" lon="13.275436089146417"><ele>451.0</ele><time>2026-04-11T11:08:26.999Z</time></trkpt><trkpt lat="46.22672768571463" lon="13.275547127820284"><ele>451.0</ele><time>2026-04-11T11:08:27.999Z</time></trkpt><trkpt lat="46.226786541558766" lon="13.275644976461988"><ele>451.0</ele><time>2026-04-11T11:08:28.999Z</time></trkpt><trkpt lat="46.226869767490456" lon="13.27570986340508"><ele>451.0</ele><time>2026-04-11T11:08:29.999Z</time></trkpt><trkpt lat="46.226968736328566" lon="13.27571327541861"><ele>451.0</ele><time>2026-04-11T11:08:30.999Z</time></trkpt><trkpt lat="46.22708213418862" lon="13.275660523054318"><ele>451.0</ele><time>2026-04-11T11:08:31.999Z</time></trkpt><trkpt lat="46.2272109520838" lon="13.275652651900511"><ele>451.0</ele><time>2026-04-11T11:08:32.999Z</time></trkpt><trkpt lat="46.227350257426366" lon="13.275693474105616"><ele>451.0</ele><time>2026-04-11T11:08:33.999Z</time></trkpt><trkpt lat="46.22749568742191" lon="13.275761423687179"><ele>451.0</ele><time>2026-04-11T11:08:34.999Z</time></trkpt><trkpt lat="46.227646893367336" lon="13.27584995828856"><ele>451.0</ele><time>2026-04-11T11:08:35.999Z</time></trkpt><trkpt lat="46.22780021766707" lon="13.275941935449845"><ele>451.0</ele><time>2026-04-11T11:08:36.999Z</time></trkpt><trkpt lat="46.22794824373611" lon="13.276015774675662"><ele>451.0</ele><time>2026-04-11T11:08:37.999Z</time></trkpt><trkpt lat="46.22809929899496" lon="13.276085093182441"><ele>451.0</ele><time>2026-04-11T11:08:38.999Z</time></trkpt><trkpt lat="46.22825222758862" lon="13.276180278085546"><ele>451.0</ele><time>2026-04-11T11:08:39.999Z</time></trkpt><trkpt lat="46.228399557682344" lon="13.27629291515547"><ele>451.0</ele><time>2026-04-11T11:08:40.999Z</time></trkpt><trkpt lat="46.22851885993512" lon="13.27638606851423"><ele>451.0</ele><time>2026-04-11T11:08:41.999Z</time></trkpt><trkpt lat="46.2286281808973" lon="13.276470475128116"><ele>451.0</ele><time>2026-04-11T11:08:42.999Z</time></trkpt><trkpt lat="46.22873788222018" lon="13.276555647105868"><ele>451.0</ele><time>2026-04-11T11:08:43.999Z</time></trkpt><trkpt lat="46.22885401167173" lon="13.276632008721412"><ele>451.0</ele><time>2026-04-11T11:08:44.999Z</time></trkpt><trkpt lat="46.22899025327577" lon="13.276706168409625"><ele>451.0</ele><time>2026-04-11T11:08:45.999Z</time></trkpt><trkpt lat="46.22914947276107" lon="13.276739838279576"><ele>451.0</ele><time>2026-04-11T11:08:46.999Z</time></trkpt><trkpt lat="46.22930739515269" lon="13.276824772218092"><ele>451.0</ele><time>2026-04-11T11:08:47.999Z</time></trkpt><trkpt lat="46.229450976178455" lon="13.276938631950157"><ele>451.0</ele><time>2026-04-11T11:08:48.999Z</time></trkpt><trkpt lat="46.22960935180903" lon="13.276962469402518"><ele>451.0</ele><time>2026-04-11T11:08:49.999Z</time></trkpt><trkpt lat="46.229748732391876" lon="13.277000483078307"><ele>451.0</ele><time>2026-04-11T11:08:50.999Z</time></trkpt><trkpt lat="46.229868394970715" lon="13.277072520359162"><ele>451.0</ele><time>2026-04-11T11:08:51.999Z</time></trkpt><trkpt lat="46.229981186836284" lon="13.27716938769321"><ele>451.0</ele><time>2026-04-11T11:08:52.999Z</time></trkpt><trkpt lat="46.23008112322743" lon="13.277243007248659"><ele>451.0</ele><time>2026-04-11T11:08:53.999Z</time></trkpt><trkpt lat="46.2301844302737" lon="13.277311138644954"><ele>451.0</ele><time>2026-04-11T11:08:54.999Z</time></trkpt><trkpt lat="46.2302984985045" lon="13.27733948530083"><ele>451.0</ele><time>2026-04-11T11:08:55.999Z</time></trkpt><trkpt lat="46.23043276501025" lon="13.277382649829738"><ele>451.0</ele><time>2026-04-11T11:08:56.999Z</time></trkpt><trkpt lat="46.230566690410335" lon="13.277403882724947"><ele>451.0</ele><time>2026-04-11T11:08:57.999Z</time></trkpt><trkpt lat="46.230693187118" lon="13.277399147669444"><ele>451.0</ele><time>2026-04-11T11:08:58.999Z</time></trkpt><trkpt lat="46.230793279644814" lon="13.277418361019555"><ele>451.0</ele><time>2026-04-11T11:08:59.999Z</time></trkpt><trkpt lat="46.23090344830021" lon="13.277436437122931"><ele>451.0</ele><time>2026-04-11T11:09:00.999Z</time></trkpt><trkpt lat="46.23101456490362" lon="13.27745457867193"><ele>451.0</ele><time>2026-04-11T11:09:01.999Z</time></trkpt><trkpt lat="46.231118560520976" lon="13.277468603256276"><ele>451.0</ele><time>2026-04-11T11:09:02.999Z</time></trkpt><trkpt lat="46.231216848701166" lon="13.27748496233202"><ele>451.0</ele><time>2026-04-11T11:09:03.999Z</time></trkpt><trkpt lat="46.23131078046144" lon="13.277504100727993"><ele>451.0</ele><time>2026-04-11T11:09:04.999Z</time></trkpt><trkpt lat="46.23140152362825" lon="13.277521194537176"><ele>467.0</ele><time>2026-04-11T11:09:05.999Z</time></trkpt><trkpt lat="46.231488265101305" lon="13.277534289563384"><ele>483.0</ele><time>2026-04-11T11:09:06.999Z</time></trkpt><trkpt lat="46.23157614914787" lon="13.277547943820682"><ele>499.0</ele><time>2026-04-11T11:09:07.999Z</time></trkpt><trkpt lat="46.23166878482333" lon="13.277564077806403"><ele>515.0</ele><time>2026-04-11T11:09:09Z</time></trkpt><trkpt lat="46.231767142639136" lon="13.277583653725735"><ele>531.0</ele><time>2026-04-11T11:09:10Z</time></trkpt><trkpt lat="46.231864974368776" lon="13.277622880171913"><ele>531.0</ele><time>2026-04-11T11:09:11Z</time></trkpt><trkpt lat="46.23197136024072" lon="13.277682821791512"><ele>531.0</ele><time>2026-04-11T11:09:12Z</time></trkpt><trkpt lat="46.23208598323772" lon="13.27776272410993"><ele>531.0</ele><time>2026-04-11T11:09:13Z</time></trkpt><trkpt lat="46.232170766061145" lon="13.277831060742043"><ele>531.0</ele><time>2026-04-11T11:09:14Z</time></trkpt><trkpt lat="46.232242677701024" lon="13.277893291407457"><ele>531.0</ele><time>2026-04-11T11:09:15Z</time></trkpt><trkpt lat="46.232316263708206" lon="13.277933530893453"><ele>529.5</ele><time>2026-04-11T11:09:16Z</time></trkpt><trkpt lat="46.23242196345478" lon="13.277867433648394"><ele>528.0</ele><time>2026-04-11T11:09:17Z</time></trkpt><trkpt lat="46.232537123938705" lon="13.277753857919938"><ele>526.5</ele><time>2026-04-11T11:09:18Z</time></trkpt><trkpt lat="46.23266565846014" lon="13.277622504697574"><ele>525.0</ele><time>2026-04-11T11:09:19Z</time></trkpt><trkpt lat="46.23279381094679" lon="13.2774212370152"><ele>525.0</ele><time>2026-04-11T11:09:20Z</time></trkpt><trkpt lat="46.232922082439046" lon="13.277333432958654"><ele>525.0</ele><time>2026-04-11T11:09:21Z</time></trkpt><trkpt lat="46.23303341541025" lon="13.277272788177237"><ele>525.0</ele><time>2026-04-11T11:09:22Z</time></trkpt><trkpt lat="46.23312041021431" lon="13.277205575591967"><ele>525.0</ele><time>2026-04-11T11:09:23Z</time></trkpt><trkpt lat="46.23318364960113" lon="13.277120832435566"><ele>525.0</ele><time>2026-04-11T11:09:24Z</time></trkpt><trkpt lat="46.23324920287514" lon="13.276983975693263"><ele>529.6</ele><time>2026-04-11T11:09:25Z</time></trkpt><trkpt lat="46.2333005652719" lon="13.276831191231185"><ele>534.2</ele><time>2026-04-11T11:09:26Z</time></trkpt><trkpt lat="46.233333979037646" lon="13.276699646887987"><ele>538.8</ele><time>2026-04-11T11:09:27Z</time></trkpt><trkpt lat="46.23339958901428" lon="13.276604111902797"><ele>543.4</ele><time>2026-04-11T11:09:28Z</time></trkpt><trkpt lat="46.23347622968188" lon="13.276526701593424"><ele>548.0</ele><time>2026-04-11T11:09:29Z</time></trkpt><trkpt lat="46.23357848221803" lon="13.276476032291312"><ele>548.0</ele><time>2026-04-11T11:09:30Z</time></trkpt><trkpt lat="46.23367969708845" lon="13.276444807300855"><ele>548.0</ele><time>2026-04-11T11:09:31Z</time></trkpt><trkpt lat="46.23377554888284" lon="13.276405517390266"><ele>548.0</ele><time>2026-04-11T11:09:32Z</time></trkpt><trkpt lat="46.23388061597843" lon="13.276358490634161"><ele>548.0</ele><time>2026-04-11T11:09:33Z</time></trkpt><trkpt lat="46.23396098420223" lon="13.276300877056551"><ele>548.0</ele><time>2026-04-11T11:09:34Z</time></trkpt><trkpt lat="46.2340415620807" lon="13.276261578792816"><ele>551.8333333333333</ele><time>2026-04-11T11:09:35Z</time></trkpt><trkpt lat="46.23411704504882" lon="13.276258606193522"><ele>555.6666666666666</ele><time>2026-04-11T11:09:36Z</time></trkpt><trkpt lat="46.23420327932093" lon="13.27627158551532"><ele>559.5</ele><time>2026-04-11T11:09:37Z</time></trkpt><trkpt lat="46.234276037606264" lon="13.276323327300735"><ele>563.3333333333334</ele><time>2026-04-11T11:09:38Z</time></trkpt><trkpt lat="46.234337344540926" lon="13.27637494248561"><ele>567.1666666666667</ele><time>2026-04-11T11:09:39Z</time></trkpt><trkpt lat="46.234408611385874" lon="13.276384082754628"><ele>571.0</ele><time>2026-04-11T11:09:40Z</time></trkpt><trkpt lat="46.23448718412143" lon="13.276346520916281"><ele>571.0</ele><time>2026-04-11T11:09:41Z</time></trkpt><trkpt lat="46.23459935895001" lon="13.276275020754849"><ele>571.0</ele><time>2026-04-11T11:09:41.999Z</time></trkpt><trkpt lat="46.23467313498396" lon="13.276151955599577"><ele>571.0</ele><time>2026-04-11T11:09:42.999Z</time></trkpt><trkpt lat="46.23476419836075" lon="13.27606001509283"><ele>571.0</ele><time>2026-04-11T11:09:43.999Z</time></trkpt><trkpt lat="46.23484270631949" lon="13.275955420935308"><ele>566.0</ele><time>2026-04-11T11:09:44.999Z</time></trkpt><trkpt lat="46.234928298200074" lon="13.27584464322353"><ele>561.0</ele><time>2026-04-11T11:09:45.999Z</time></trkpt><trkpt lat="46.23503243774863" lon="13.275748967745557"><ele>556.0</ele><time>2026-04-11T11:09:46.999Z</time></trkpt><trkpt lat="46.23516735187911" lon="13.27568546851347"><ele>551.0</ele><time>2026-04-11T11:09:47.999Z</time></trkpt><trkpt lat="46.23527353074789" lon="13.275628454133612"><ele>557.4</ele><time>2026-04-11T11:09:48.999Z</time></trkpt><trkpt lat="46.23536161763308" lon="13.2755841172546"><ele>563.8</ele><time>2026-04-11T11:09:49.999Z</time></trkpt><trkpt lat="46.23545325261171" lon="13.275539812564336"><ele>570.1999999999999</ele><time>2026-04-11T11:09:50.999Z</time></trkpt><trkpt lat="46.23554582699903" lon="13.275506167234255"><ele>576.6</ele><time>2026-04-11T11:09:51.999Z</time></trkpt><trkpt lat="46.23565157363458" lon="13.275510144719641"><ele>583.0</ele><time>2026-04-11T11:09:52.999Z</time></trkpt><trkpt lat="46.23574331030309" lon="13.275515200510743"><ele>583.0</ele><time>2026-04-11T11:09:53.999Z</time></trkpt><trkpt lat="46.23585791825406" lon="13.275507662969032"><ele>583.0</ele><time>2026-04-11T11:09:54.999Z</time></trkpt><trkpt lat="46.235975864004004" lon="13.275439797656784"><ele>583.0</ele><time>2026-04-11T11:09:55.999Z</time></trkpt><trkpt lat="46.23607746782298" lon="13.275381790187588"><ele>583.0</ele><time>2026-04-11T11:09:56.999Z</time></trkpt><trkpt lat="46.23618587718035" lon="13.275313918332388"><ele>583.0</ele><time>2026-04-11T11:09:57.999Z</time></trkpt><trkpt lat="46.23631204881002" lon="13.275287898406136"><ele>583.0</ele><time>2026-04-11T11:09:58.999Z</time></trkpt><trkpt lat="46.236429300086776" lon="13.275290378412231"><ele>583.0</ele><time>2026-04-11T11:09:59.999Z</time></trkpt><trkpt lat="46.236539483579335" lon="13.275293244310312"><ele>583.0</ele><time>2026-04-11T11:10:00.999Z</time></trkpt><trkpt lat="46.23665311348532" lon="13.275309481718109"><ele>582.6</ele><time>2026-04-11T11:10:01.999Z</time></trkpt><trkpt lat="46.23675438331753" lon="13.275309481713355"><ele>582.1999999999999</ele><time>2026-04-11T11:10:02.999Z</time></trkpt><trkpt lat="46.23685374933753" lon="13.275296116757557"><ele>581.8</ele><time>2026-04-11T11:10:03.999Z</time></trkpt><trkpt lat="46.23693780994356" lon="13.275303296385253"><ele>581.4</ele><time>2026-04-11T11:10:04.999Z</time></trkpt><trkpt lat="46.23701464528441" lon="13.275343465791073"><ele>581.0</ele><time>2026-04-11T11:10:05.999Z</time></trkpt><trkpt lat="46.23708517609201" lon="13.275409243555755"><ele>581.0</ele><time>2026-04-11T11:10:06.999Z</time></trkpt><trkpt lat="46.23709130254513" lon="13.275561071957215"><ele>581.0</ele><time>2026-04-11T11:10:07.999Z</time></trkpt><trkpt lat="46.2370891154514" lon="13.275685972964709"><ele>581.0</ele><time>2026-04-11T11:10:08.999Z</time></trkpt><trkpt lat="46.23706853834861" lon="13.275794258936523"><ele>581.0</ele><time>2026-04-11T11:10:09.999Z</time></trkpt><trkpt lat="46.237102446246915" lon="13.275875910546144"><ele>581.0</ele><time>2026-04-11T11:10:10.999Z</time></trkpt><trkpt lat="46.23716733261449" lon="13.275941559842137"><ele>581.0</ele><time>2026-04-11T11:10:11.999Z</time></trkpt><trkpt lat="46.237241156563556" lon="13.275932956742711"><ele>581.0</ele><time>2026-04-11T11:10:12.999Z</time></trkpt><trkpt lat="46.237305090151885" lon="13.27587347304688"><ele>581.0</ele><time>2026-04-11T11:10:13.999Z</time></trkpt><trkpt lat="46.23732818465249" lon="13.275707387492"><ele>581.0</ele><time>2026-04-11T11:10:14.999Z</time></trkpt><trkpt lat="46.23732076840914" lon="13.275552177322284"><ele>581.0</ele><time>2026-04-11T11:10:15.999Z</time></trkpt><trkpt lat="46.23730747871187" lon="13.275387278180036"><ele>581.0</ele><time>2026-04-11T11:10:16.999Z</time></trkpt><trkpt lat="46.23729546695474" lon="13.275269418672895"><ele>581.0</ele><time>2026-04-11T11:10:17.999Z</time></trkpt><trkpt lat="46.23727170493112" lon="13.275152282146838"><ele>581.0</ele><time>2026-04-11T11:10:18.999Z</time></trkpt><trkpt lat="46.23719877163454" lon="13.275048929023923"><ele>581.0</ele><time>2026-04-11T11:10:19.999Z</time></trkpt><trkpt lat="46.237087481489674" lon="13.275009237045667"><ele>581.0</ele><time>2026-04-11T11:10:20.999Z</time></trkpt><trkpt lat="46.236998054301374" lon="13.274971438157838"><ele>581.0</ele><time>2026-04-11T11:10:21.999Z</time></trkpt><trkpt lat="46.23690228351049" lon="13.274931489522457"><ele>581.0</ele><time>2026-04-11T11:10:22.999Z</time></trkpt><trkpt lat="46.23679797528743" lon="13.274890516265831"><ele>581.0</ele><time>2026-04-11T11:10:23.999Z</time></trkpt><trkpt lat="46.23667382683994" lon="13.274850268555102"><ele>581.0</ele><time>2026-04-11T11:10:24.999Z</time></trkpt><trkpt lat="46.23655079477047" lon="13.274814042417473"><ele>581.0</ele><time>2026-04-11T11:10:25.999Z</time></trkpt><trkpt lat="46.236435134597436" lon="13.274779986924996"><ele>588.5</ele><time>2026-04-11T11:10:26.999Z</time></trkpt><trkpt lat="46.236338521874146" lon="13.274751539834966"><ele>596.0</ele><time>2026-04-11T11:10:27.999Z</time></trkpt><trkpt lat="46.23625872389508" lon="13.274732122731928"><ele>603.5</ele><time>2026-04-11T11:10:28.999Z</time></trkpt><trkpt lat="46.236183099932994" lon="13.27471619210903"><ele>611.0</ele><time>2026-04-11T11:10:29.999Z</time></trkpt><trkpt lat="46.23611030186527" lon="13.274708766211075"><ele>618.5</ele><time>2026-04-11T11:10:30.999Z</time></trkpt><trkpt lat="46.236009460355895" lon="13.274707709542692"><ele>626.0</ele><time>2026-04-11T11:10:32.999Z</time></trkpt><trkpt lat="46.2359155780346" lon="13.274695148303735"><ele>626.0</ele><time>2026-04-11T11:10:34.999Z</time></trkpt><trkpt lat="46.23585817130298" lon="13.274609702621479"><ele>626.0</ele><time>2026-04-11T11:10:36.999Z</time></trkpt><trkpt lat="46.23597267541289" lon="13.274519848277995"><ele>626.0</ele><time>2026-04-11T11:10:38.999Z</time></trkpt><trkpt lat="46.236068153723565" lon="13.274547278332857"><ele>626.0</ele><time>2026-04-11T11:10:39.999Z</time></trkpt><trkpt lat="46.23618339343158" lon="13.274575193365848"><ele>626.0</ele><time>2026-04-11T11:10:40.999Z</time></trkpt><trkpt lat="46.23632475702918" lon="13.274585458793355"><ele>626.0</ele><time>2026-04-11T11:10:41.999Z</time></trkpt><trkpt lat="46.236459122964675" lon="13.274586126913787"><ele>626.0</ele><time>2026-04-11T11:10:42.999Z</time></trkpt><trkpt lat="46.23657179225849" lon="13.274563854094115"><ele>626.0</ele><time>2026-04-11T11:10:43.999Z</time></trkpt><trkpt lat="46.23667885760879" lon="13.274571425400511"><ele>626.0</ele><time>2026-04-11T11:10:44.999Z</time></trkpt><trkpt lat="46.23678308243846" lon="13.274575787827459"><ele>623.8</ele><time>2026-04-11T11:10:45.999Z</time></trkpt><trkpt lat="46.236889798367244" lon="13.274573466017864"><ele>621.6</ele><time>2026-04-11T11:10:46.999Z</time></trkpt><trkpt lat="46.23699311881398" lon="13.274593396557904"><ele>619.4</ele><time>2026-04-11T11:10:47.999Z</time></trkpt><trkpt lat="46.23709722039673" lon="13.274580424162354"><ele>617.2</ele><time>2026-04-11T11:10:48.999Z</time></trkpt><trkpt lat="46.23719422771364" lon="13.274577079990902"><ele>615.0</ele><time>2026-04-11T11:10:49.999Z</time></trkpt><trkpt lat="46.237289495785625" lon="13.274578351833346"><ele>616.6</ele><time>2026-04-11T11:10:50.999Z</time></trkpt><trkpt lat="46.23738674929246" lon="13.274579427501541"><ele>618.2</ele><time>2026-04-11T11:10:51.999Z</time></trkpt><trkpt lat="46.23748743393739" lon="13.27458128726048"><ele>619.8</ele><time>2026-04-11T11:10:52.999Z</time></trkpt><trkpt lat="46.23758451613371" lon="13.274609519908148"><ele>621.4</ele><time>2026-04-11T11:10:53.999Z</time></trkpt><trkpt lat="46.23767957636198" lon="13.274675189831477"><ele>623.0</ele><time>2026-04-11T11:10:54.999Z</time></trkpt><trkpt lat="46.23777550896911" lon="13.274760770466084"><ele>616.5</ele><time>2026-04-11T11:10:55.999Z</time></trkpt><trkpt lat="46.2378589436582" lon="13.274873431429967"><ele>610.0</ele><time>2026-04-11T11:10:56.999Z</time></trkpt><trkpt lat="46.23794358130386" lon="13.275004869298005"><ele>603.5</ele><time>2026-04-11T11:10:57.999Z</time></trkpt><trkpt lat="46.23799634812025" lon="13.27515505814391"><ele>597.0</ele><time>2026-04-11T11:10:58.999Z</time></trkpt><trkpt lat="46.23804413867527" lon="13.27529945760827"><ele>597.0</ele><time>2026-04-11T11:10:59.999Z</time></trkpt><trkpt lat="46.23809253766382" lon="13.27542625336668"><ele>597.0</ele><time>2026-04-11T11:11:00.999Z</time></trkpt><trkpt lat="46.23812307456644" lon="13.2755260929472"><ele>597.0</ele><time>2026-04-11T11:11:01.999Z</time></trkpt><trkpt lat="46.23819987401308" lon="13.275668213107343"><ele>597.0</ele><time>2026-04-11T11:11:03.999Z</time></trkpt><trkpt lat="46.23828412798675" lon="13.27565760076508"><ele>597.0</ele><time>2026-04-11T11:11:04.999Z</time></trkpt><trkpt lat="46.238387000990535" lon="13.275670974293885"><ele>599.3333333333334</ele><time>2026-04-11T11:11:05.999Z</time></trkpt><trkpt lat="46.238479848465566" lon="13.27566929069115"><ele>601.6666666666666</ele><time>2026-04-11T11:11:06.999Z</time></trkpt><trkpt lat="46.2385591053312" lon="13.275646330084301"><ele>604.0</ele><time>2026-04-11T11:11:07.999Z</time></trkpt><trkpt lat="46.2386352143254" lon="13.275647126774443"><ele>606.3333333333333</ele><time>2026-04-11T11:11:08.999Z</time></trkpt><trkpt lat="46.23870144698546" lon="13.275660596042353"><ele>608.6666666666666</ele><time>2026-04-11T11:11:09.999Z</time></trkpt><trkpt lat="46.238759690042656" lon="13.275706893106104"><ele>611.0</ele><time>2026-04-11T11:11:10.999Z</time></trkpt><trkpt lat="46.23883419525635" lon="13.275850332712219"><ele>611.0000000000001</ele><time>2026-04-11T11:11:12.999Z</time></trkpt><trkpt lat="46.23879592472258" lon="13.275951141720203"><ele>611.0</ele><time>2026-04-11T11:11:13.999Z</time></trkpt><trkpt lat="46.2387441983946" lon="13.276031207253034"><ele>611.0</ele><time>2026-04-11T11:11:15Z</time></trkpt><trkpt lat="46.2386952892759" lon="13.276111051808053"><ele>611.0</ele><time>2026-04-11T11:11:16Z</time></trkpt><trkpt lat="46.23865328675045" lon="13.276198066586838"><ele>611.0</ele><time>2026-04-11T11:11:17Z</time></trkpt><trkpt lat="46.238617842253255" lon="13.276286385925534"><ele>611.0000000000001</ele><time>2026-04-11T11:11:18Z</time></trkpt><trkpt lat="46.23859269622996" lon="13.276376083848008"><ele>611.0</ele><time>2026-04-11T11:11:19Z</time></trkpt><trkpt lat="46.23857152311542" lon="13.276463193426034"><ele>609.2</ele><time>2026-04-11T11:11:20Z</time></trkpt><trkpt lat="46.238600965848555" lon="13.276646287886864"><ele>607.4000000000001</ele><time>2026-04-11T11:11:22Z</time></trkpt><trkpt lat="46.23864707598299" lon="13.276752100403687"><ele>605.6</ele><time>2026-04-11T11:11:23Z</time></trkpt><trkpt lat="46.238688727593754" lon="13.276841130489432"><ele>603.8000000000001</ele><time>2026-04-11T11:11:24Z</time></trkpt><trkpt lat="46.23871950844829" lon="13.276945925224634"><ele>602.0</ele><time>2026-04-11T11:11:25Z</time></trkpt><trkpt lat="46.23873587505572" lon="13.277061221711818"><ele>602.0</ele><time>2026-04-11T11:11:26Z</time></trkpt><trkpt lat="46.238739045615795" lon="13.277185795575992"><ele>602.0</ele><time>2026-04-11T11:11:27Z</time></trkpt><trkpt lat="46.23872871509657" lon="13.27730956066426"><ele>602.0</ele><time>2026-04-11T11:11:28Z</time></trkpt><trkpt lat="46.23871026563733" lon="13.27743720995794"><ele>602.0</ele><time>2026-04-11T11:11:29Z</time></trkpt><trkpt lat="46.238683894814" lon="13.27756181697868"><ele>602.0</ele><time>2026-04-11T11:11:30Z</time></trkpt><trkpt lat="46.23865228655306" lon="13.277671546891666"><ele>602.0</ele><time>2026-04-11T11:11:31Z</time></trkpt><trkpt lat="46.238622529164196" lon="13.277777246047394"><ele>602.5</ele><time>2026-04-11T11:11:32Z</time></trkpt><trkpt lat="46.23859762499176" lon="13.277886422353026"><ele>603.0</ele><time>2026-04-11T11:11:33Z</time></trkpt><trkpt lat="46.238579546874156" lon="13.27799732193796"><ele>603.5</ele><time>2026-04-11T11:11:33.999Z</time></trkpt><trkpt lat="46.23856855597672" lon="13.278114146657465"><ele>604.0</ele><time>2026-04-11T11:11:34.999Z</time></trkpt><trkpt lat="46.23857000334458" lon="13.278232632188562"><ele>604.5</ele><time>2026-04-11T11:11:35.999Z</time></trkpt><trkpt lat="46.23859348307587" lon="13.278343152867272"><ele>605.0</ele><time>2026-04-11T11:11:36.999Z</time></trkpt><trkpt lat="46.23863586951043" lon="13.278446198437068"><ele>606.1428571428571</ele><time>2026-04-11T11:11:37.999Z</time></trkpt><trkpt lat="46.23867539700761" lon="13.278540939028911"><ele>607.2857142857143</ele><time>2026-04-11T11:11:38.999Z</time></trkpt><trkpt lat="46.238700249939484" lon="13.27863844813968"><ele>608.4285714285714</ele><time>2026-04-11T11:11:39.999Z</time></trkpt><trkpt lat="46.238736737715385" lon="13.278723194584295"><ele>609.5714285714286</ele><time>2026-04-11T11:11:40.999Z</time></trkpt><trkpt lat="46.23879434404273" lon="13.278789347241725"><ele>610.7142857142857</ele><time>2026-04-11T11:11:41.999Z</time></trkpt><trkpt lat="46.23885907253678" lon="13.278823584499811"><ele>611.8571428571429</ele><time>2026-04-11T11:11:42.999Z</time></trkpt><trkpt lat="46.23892120459311" lon="13.278843536291756"><ele>613.0</ele><time>2026-04-11T11:11:43.999Z</time></trkpt><trkpt lat="46.23898582061062" lon="13.278963211673597"><ele>612.8571428571429</ele><time>2026-04-11T11:11:45.999Z</time></trkpt><trkpt lat="46.23895770291614" lon="13.27905021669003"><ele>612.7142857142857</ele><time>2026-04-11T11:11:46.999Z</time></trkpt><trkpt lat="46.23895598641014" lon="13.279155693852063"><ele>612.5714285714286</ele><time>2026-04-11T11:11:47.999Z</time></trkpt><trkpt lat="46.23894555735874" lon="13.279255931364636"><ele>612.4285714285714</ele><time>2026-04-11T11:11:48.999Z</time></trkpt><trkpt lat="46.23893513502479" lon="13.279359106022081"><ele>612.2857142857143</ele><time>2026-04-11T11:11:49.999Z</time></trkpt><trkpt lat="46.23893385544298" lon="13.279465897089532"><ele>612.1428571428571</ele><time>2026-04-11T11:11:50.999Z</time></trkpt><trkpt lat="46.23892543954894" lon="13.279587749923191"><ele>612.0</ele><time>2026-04-11T11:11:51.999Z</time></trkpt><trkpt lat="46.23894014589567" lon="13.279703445655203"><ele>611.5</ele><time>2026-04-11T11:11:52.999Z</time></trkpt><trkpt lat="46.23894185748768" lon="13.27979651143881"><ele>611.0</ele><time>2026-04-11T11:11:53.999Z</time></trkpt><trkpt lat="46.23894884516724" lon="13.27988754928923"><ele>610.5</ele><time>2026-04-11T11:11:54.999Z</time></trkpt><trkpt lat="46.238995194300564" lon="13.280003871623043"><ele>610.0</ele><time>2026-04-11T11:11:56.999Z</time></trkpt><trkpt lat="46.239081355290274" lon="13.280034747148953"><ele>609.5</ele><time>2026-04-11T11:11:58.999Z</time></trkpt><trkpt lat="46.239169292682206" lon="13.280034068482294"><ele>609.0</ele><time>2026-04-11T11:12:00.999Z</time></trkpt><trkpt lat="46.239270400234616" lon="13.280048321358278"><ele>614.2</ele><time>2026-04-11T11:12:02.999Z</time></trkpt><trkpt lat="46.23941686360391" lon="13.280053275035268"><ele>619.4</ele><time>2026-04-11T11:12:04.999Z</time></trkpt><trkpt lat="46.239496462827404" lon="13.280067791581342"><ele>624.6</ele><time>2026-04-11T11:12:05.999Z</time></trkpt><trkpt lat="46.23957177624269" lon="13.280089650562998"><ele>629.8</ele><time>2026-04-11T11:12:06.999Z</time></trkpt><trkpt lat="46.239660839004046" lon="13.280097858179815"><ele>635.0</ele><time>2026-04-11T11:12:07.999Z</time></trkpt><trkpt lat="46.2397456366116" lon="13.280115392801376"><ele>637.0</ele><time>2026-04-11T11:12:08.999Z</time></trkpt><trkpt lat="46.23981527479879" lon="13.280155061970982"><ele>639.0</ele><time>2026-04-11T11:12:09.999Z</time></trkpt><trkpt lat="46.23988630802473" lon="13.280216504014655"><ele>641.0</ele><time>2026-04-11T11:12:10.999Z</time></trkpt><trkpt lat="46.239948323074934" lon="13.280301162950169"><ele>643.0</ele><time>2026-04-11T11:12:11.999Z</time></trkpt><trkpt lat="46.23999523199721" lon="13.280421987401803"><ele>645.0</ele><time>2026-04-11T11:12:12.999Z</time></trkpt><trkpt lat="46.24002382545806" lon="13.280556743188905"><ele>647.0</ele><time>2026-04-11T11:12:13.999Z</time></trkpt><trkpt lat="46.240055483449844" lon="13.280669922868116"><ele>647.0</ele><time>2026-04-11T11:12:14.999Z</time></trkpt><trkpt lat="46.24009336344083" lon="13.280788081322148"><ele>647.0</ele><time>2026-04-11T11:12:15.999Z</time></trkpt><trkpt lat="46.24015191819088" lon="13.280898640793016"><ele>647.0</ele><time>2026-04-11T11:12:16.999Z</time></trkpt><trkpt lat="46.240226668441785" lon="13.280987922131995"><ele>647.0</ele><time>2026-04-11T11:12:17.999Z</time></trkpt><trkpt lat="46.24030523523351" lon="13.28106057640954"><ele>647.0</ele><time>2026-04-11T11:12:18.999Z</time></trkpt><trkpt lat="46.240395425267145" lon="13.281118213171691"><ele>647.0</ele><time>2026-04-11T11:12:19.999Z</time></trkpt><trkpt lat="46.24049036064391" lon="13.281158537666059"><ele>647.0</ele><time>2026-04-11T11:12:20.999Z</time></trkpt><trkpt lat="46.24058761684346" lon="13.2811539279012"><ele>647.0</ele><time>2026-04-11T11:12:21.999Z</time></trkpt><trkpt lat="46.24068751768262" lon="13.281128332667981"><ele>647.0</ele><time>2026-04-11T11:12:22.999Z</time></trkpt><trkpt lat="46.2407898034579" lon="13.281067168850635"><ele>647.0</ele><time>2026-04-11T11:12:23.999Z</time></trkpt><trkpt lat="46.2408862947754" lon="13.281007600448469"><ele>650.8</ele><time>2026-04-11T11:12:24.999Z</time></trkpt><trkpt lat="46.24097343897922" lon="13.28093229635422"><ele>654.6</ele><time>2026-04-11T11:12:25.999Z</time></trkpt><trkpt lat="46.24106911697142" lon="13.280902664754798"><ele>658.4</ele><time>2026-04-11T11:12:26.999Z</time></trkpt><trkpt lat="46.2411699969618" lon="13.280905648037482"><ele>662.1999999999999</ele><time>2026-04-11T11:12:27.999Z</time></trkpt><trkpt lat="46.241276560505725" lon="13.280958287848021"><ele>666.0</ele><time>2026-04-11T11:12:28.999Z</time></trkpt><trkpt lat="46.24137302302719" lon="13.28105429487954"><ele>666.0</ele><time>2026-04-11T11:12:29.999Z</time></trkpt><trkpt lat="46.24145029492756" lon="13.28115852959856"><ele>666.0</ele><time>2026-04-11T11:12:30.999Z</time></trkpt><trkpt lat="46.24152766676709" lon="13.281249163679899"><ele>666.0</ele><time>2026-04-11T11:12:31.999Z</time></trkpt><trkpt lat="46.24160009052895" lon="13.281330618606093"><ele>666.0</ele><time>2026-04-11T11:12:32.999Z</time></trkpt><trkpt lat="46.24166700919755" lon="13.281398731763792"><ele>666.0</ele><time>2026-04-11T11:12:33.999Z</time></trkpt><trkpt lat="46.24173200341889" lon="13.281466469549718"><ele>664.5</ele><time>2026-04-11T11:12:34.999Z</time></trkpt><trkpt lat="46.24179534610564" lon="13.281524354923869"><ele>663.0</ele><time>2026-04-11T11:12:35.999Z</time></trkpt><trkpt lat="46.24188029608158" lon="13.281541083388406"><ele>661.5</ele><time>2026-04-11T11:12:36.999Z</time></trkpt><trkpt lat="46.24196172664271" lon="13.281517935562698"><ele>660.0</ele><time>2026-04-11T11:12:37.999Z</time></trkpt><trkpt lat="46.24202541263372" lon="13.281495855460339"><ele>658.5</ele><time>2026-04-11T11:12:38.999Z</time></trkpt><trkpt lat="46.24212572243345" lon="13.28146874195197"><ele>657.0</ele><time>2026-04-11T11:12:40.999Z</time></trkpt><trkpt lat="46.242201696193064" lon="13.281543411257752"><ele>657.0</ele><time>2026-04-11T11:12:42.999Z</time></trkpt><trkpt lat="46.24221983334236" lon="13.281631506430818"><ele>657.0</ele><time>2026-04-11T11:12:43.999Z</time></trkpt><trkpt lat="46.24223217811343" lon="13.281745467938588"><ele>657.0</ele><time>2026-04-11T11:12:44.999Z</time></trkpt><trkpt lat="46.24225115349177" lon="13.281878279068147"><ele>657.0</ele><time>2026-04-11T11:12:45.999Z</time></trkpt><trkpt lat="46.24226738603764" lon="13.282036640201053"><ele>657.0</ele><time>2026-04-11T11:12:46.999Z</time></trkpt><trkpt lat="46.242283302733846" lon="13.282215318612064"><ele>654.0</ele><time>2026-04-11T11:12:47.999Z</time></trkpt><trkpt lat="46.24228982979732" lon="13.28238312750569"><ele>651.0</ele><time>2026-04-11T11:12:48.999Z</time></trkpt><trkpt lat="46.24229445070861" lon="13.282520142749934"><ele>648.0</ele><time>2026-04-11T11:12:49.999Z</time></trkpt><trkpt lat="46.242296675643" lon="13.28266693722604"><ele>645.0</ele><time>2026-04-11T11:12:50.999Z</time></trkpt><trkpt lat="46.24227728111971" lon="13.282805003624096"><ele>642.0</ele><time>2026-04-11T11:12:51.999Z</time></trkpt><trkpt lat="46.24224700239263" lon="13.282916745332503"><ele>642.0</ele><time>2026-04-11T11:12:52.999Z</time></trkpt><trkpt lat="46.24222163804684" lon="13.283018382162807"><ele>642.0</ele><time>2026-04-11T11:12:53.999Z</time></trkpt><trkpt lat="46.242203020337556" lon="13.283184622726393"><ele>642.0</ele><time>2026-04-11T11:12:55.999Z</time></trkpt><trkpt lat="46.2422664717142" lon="13.283324861396332"><ele>642.0</ele><time>2026-04-11T11:12:57.999Z</time></trkpt><trkpt lat="46.24232916327272" lon="13.2833708353929"><ele>642.0</ele><time>2026-04-11T11:12:58.999Z</time></trkpt><trkpt lat="46.242430776500704" lon="13.283364642392831"><ele>647.8</ele><time>2026-04-11T11:13:00.999Z</time></trkpt><trkpt lat="46.242513808295605" lon="13.283262633071484"><ele>653.6</ele><time>2026-04-11T11:13:02.999Z</time></trkpt><trkpt lat="46.24256218761851" lon="13.283097342276628"><ele>659.4</ele><time>2026-04-11T11:13:04.999Z</time></trkpt><trkpt lat="46.2425917106992" lon="13.283005315965134"><ele>665.1999999999999</ele><time>2026-04-11T11:13:05.999Z</time></trkpt><trkpt lat="46.24262836980285" lon="13.282897323825479"><ele>671.0</ele><time>2026-04-11T11:13:06.999Z</time></trkpt><trkpt lat="46.24265005765669" lon="13.282757429134808"><ele>671.1999999999999</ele><time>2026-04-11T11:13:07.999Z</time></trkpt><trkpt lat="46.242694667888216" lon="13.282638348933663"><ele>671.4</ele><time>2026-04-11T11:13:08.999Z</time></trkpt><trkpt lat="46.242735379857436" lon="13.282514879533048"><ele>671.6</ele><time>2026-04-11T11:13:09.999Z</time></trkpt><trkpt lat="46.2427779493582" lon="13.282386403123095"><ele>671.8</ele><time>2026-04-11T11:13:10.999Z</time></trkpt><trkpt lat="46.242831420683665" lon="13.282262186788712"><ele>672.0</ele><time>2026-04-11T11:13:11.999Z</time></trkpt><trkpt lat="46.24290370558982" lon="13.28217736841238"><ele>673.1666666666666</ele><time>2026-04-11T11:13:12.999Z</time></trkpt><trkpt lat="46.24295220681066" lon="13.282092266739463"><ele>674.3333333333334</ele><time>2026-04-11T11:13:13.999Z</time></trkpt><trkpt lat="46.24299962973748" lon="13.282021541187957"><ele>675.5</ele><time>2026-04-11T11:13:14.999Z</time></trkpt><trkpt lat="46.24305909307891" lon="13.281960413967882"><ele>676.6666666666667</ele><time>2026-04-11T11:13:15.999Z</time></trkpt><trkpt lat="46.243133630172274" lon="13.28196232745324"><ele>677.8333333333334</ele><time>2026-04-11T11:13:16.999Z</time></trkpt><trkpt lat="46.24322918259919" lon="13.28207813010488"><ele>679.0</ele><time>2026-04-11T11:13:18.999Z</time></trkpt><trkpt lat="46.24327369941848" lon="13.282179452058504"><ele>678.6666666666667</ele><time>2026-04-11T11:13:19.999Z</time></trkpt><trkpt lat="46.24333679680931" lon="13.282249986938405"><ele>678.3333333333334</ele><time>2026-04-11T11:13:20.999Z</time></trkpt><trkpt lat="46.24340265538887" lon="13.282294348836906"><ele>678.0</ele><time>2026-04-11T11:13:21.999Z</time></trkpt><trkpt lat="46.24347131255402" lon="13.282357234846174"><ele>677.6666666666666</ele><time>2026-04-11T11:13:22.999Z</time></trkpt><trkpt lat="46.24355418502271" lon="13.282372745161258"><ele>677.3333333333333</ele><time>2026-04-11T11:13:23.999Z</time></trkpt><trkpt lat="46.243631064196734" lon="13.282386289607512"><ele>677.0</ele><time>2026-04-11T11:13:24.999Z</time></trkpt><trkpt lat="46.243697025246036" lon="13.28241737950563"><ele>677.0</ele><time>2026-04-11T11:13:25.999Z</time></trkpt><trkpt lat="46.24382343807069" lon="13.282486125788289"><ele>677.0</ele><time>2026-04-11T11:13:27.999Z</time></trkpt><trkpt lat="46.243851062109144" lon="13.282571830831639"><ele>677.0</ele><time>2026-04-11T11:13:28.999Z</time></trkpt><trkpt lat="46.243893401308675" lon="13.28264511543806"><ele>677.0</ele><time>2026-04-11T11:13:29.999Z</time></trkpt><trkpt lat="46.24399752885617" lon="13.282755449612356"><ele>677.0</ele><time>2026-04-11T11:13:31.999Z</time></trkpt><trkpt lat="46.244068749458464" lon="13.2827835276343"><ele>679.4000000000001</ele><time>2026-04-11T11:13:32.999Z</time></trkpt><trkpt lat="46.24414823607631" lon="13.282784714488336"><ele>681.8000000000001</ele><time>2026-04-11T11:13:33.999Z</time></trkpt><trkpt lat="46.24423336444095" lon="13.282762682803774"><ele>684.2</ele><time>2026-04-11T11:13:34.999Z</time></trkpt><trkpt lat="46.24433225966285" lon="13.282753503292875"><ele>686.6</ele><time>2026-04-11T11:13:35.999Z</time></trkpt><trkpt lat="46.24443827396185" lon="13.282720276647071"><ele>689.0</ele><time>2026-04-11T11:13:36.999Z</time></trkpt><trkpt lat="46.24454350810297" lon="13.282664490326448"><ele>689.0</ele><time>2026-04-11T11:13:37.999Z</time></trkpt><trkpt lat="46.24464700289668" lon="13.28265485712341"><ele>689.0</ele><time>2026-04-11T11:13:38.999Z</time></trkpt><trkpt lat="46.24473129855791" lon="13.282607584154077"><ele>689.0</ele><time>2026-04-11T11:13:39.999Z</time></trkpt><trkpt lat="46.24481717828171" lon="13.282586681449331"><ele>689.0</ele><time>2026-04-11T11:13:40.999Z</time></trkpt><trkpt lat="46.24489498052839" lon="13.282568382145898"><ele>689.0</ele><time>2026-04-11T11:13:41.999Z</time></trkpt><trkpt lat="46.24496032207757" lon="13.282553313355134"><ele>689.0</ele><time>2026-04-11T11:13:42.999Z</time></trkpt><trkpt lat="46.24502970929533" lon="13.282542496437845"><ele>688.5</ele><time>2026-04-11T11:13:45.999Z</time></trkpt><trkpt lat="46.24509671610935" lon="13.282502157209215"><ele>688.0</ele><time>2026-04-11T11:14:08.999Z</time></trkpt><trkpt lat="46.24515554811898" lon="13.28241328620066"><ele>687.5</ele><time>2026-04-11T11:14:10.999Z</time></trkpt><trkpt lat="46.245200746332365" lon="13.282330603251703"><ele>687.0</ele><time>2026-04-11T11:14:11.999Z</time></trkpt><trkpt lat="46.24523585554161" lon="13.282229409563676"><ele>686.5</ele><time>2026-04-11T11:14:12.999Z</time></trkpt><trkpt lat="46.245299121899635" lon="13.282150247383926"><ele>686.0</ele><time>2026-04-11T11:14:13.999Z</time></trkpt><trkpt lat="46.245333544733406" lon="13.282055304065546"><ele>688.5999999999999</ele><time>2026-04-11T11:14:14.999Z</time></trkpt><trkpt lat="46.24537307164264" lon="13.281946282852148"><ele>691.2</ele><time>2026-04-11T11:14:15.999Z</time></trkpt><trkpt lat="46.24541971396765" lon="13.281824128850268"><ele>693.8</ele><time>2026-04-11T11:14:16.999Z</time></trkpt><trkpt lat="46.24545286472736" lon="13.281697019865378"><ele>696.4000000000001</ele><time>2026-04-11T11:14:17.999Z</time></trkpt><trkpt lat="46.24546457997862" lon="13.281558449507742"><ele>699.0</ele><time>2026-04-11T11:14:18.999Z</time></trkpt><trkpt lat="46.2454598020839" lon="13.281433663997792"><ele>700.3333333333334</ele><time>2026-04-11T11:14:19.999Z</time></trkpt><trkpt lat="46.245391564435025" lon="13.281301960283539"><ele>701.6666666666666</ele><time>2026-04-11T11:14:20.999Z</time></trkpt><trkpt lat="46.24532737483283" lon="13.281212496527614"><ele>703.0</ele><time>2026-04-11T11:14:21.999Z</time></trkpt><trkpt lat="46.24529218725912" lon="13.281118317440034"><ele>704.3333333333333</ele><time>2026-04-11T11:14:22.999Z</time></trkpt><trkpt lat="46.24527778726706" lon="13.281013423022815"><ele>705.6666666666666</ele><time>2026-04-11T11:14:23.999Z</time></trkpt><trkpt lat="46.24530242479498" lon="13.280908851714143"><ele>707.0</ele><time>2026-04-11T11:14:24.999Z</time></trkpt><trkpt lat="46.245334263277336" lon="13.280791231547447"><ele>707.0</ele><time>2026-04-11T11:14:25.999Z</time></trkpt><trkpt lat="46.24538834897" lon="13.28069200416645"><ele>707.0</ele><time>2026-04-11T11:14:26.999Z</time></trkpt><trkpt lat="46.245494718569056" lon="13.280690790905625"><ele>707.0</ele><time>2026-04-11T11:14:27.999Z</time></trkpt><trkpt lat="46.245576259282934" lon="13.280658022284248"><ele>707.0</ele><time>2026-04-11T11:14:28.999Z</time></trkpt><trkpt lat="46.24563401501083" lon="13.280616055389414"><ele>707.0</ele><time>2026-04-11T11:14:29.999Z</time></trkpt><trkpt lat="46.2456913802988" lon="13.28053098146176"><ele>707.0</ele><time>2026-04-11T11:14:30.999Z</time></trkpt><trkpt lat="46.24573605035494" lon="13.28038827298551"><ele>705.4000000000001</ele><time>2026-04-11T11:14:31.999Z</time></trkpt><trkpt lat="46.24575255303644" lon="13.28022682666122"><ele>703.8000000000001</ele><time>2026-04-11T11:14:32.999Z</time></trkpt><trkpt lat="46.2457234729368" lon="13.28011051030227"><ele>702.2</ele><time>2026-04-11T11:14:33.999Z</time></trkpt><trkpt lat="46.245741013939515" lon="13.279985830250283"><ele>700.6</ele><time>2026-04-11T11:14:34.999Z</time></trkpt><trkpt lat="46.245777260708884" lon="13.279869117062786"><ele>699.0</ele><time>2026-04-11T11:14:35.999Z</time></trkpt><trkpt lat="46.24583538687796" lon="13.279761558769682"><ele>699.0</ele><time>2026-04-11T11:14:36.999Z</time></trkpt><trkpt lat="46.24589383490105" lon="13.279695518877471"><ele>699.0</ele><time>2026-04-11T11:14:37.999Z</time></trkpt><trkpt lat="46.24595508520877" lon="13.279533671589318"><ele>699.0</ele><time>2026-04-11T11:14:39.999Z</time></trkpt><trkpt lat="46.245968477851505" lon="13.27940750097974"><ele>699.0</ele><time>2026-04-11T11:14:40.999Z</time></trkpt><trkpt lat="46.24598031086084" lon="13.279306377219235"><ele>699.0</ele><time>2026-04-11T11:14:41.999Z</time></trkpt><trkpt lat="46.24600381625685" lon="13.279159482923582"><ele>699.0</ele><time>2026-04-11T11:14:43.999Z</time></trkpt><trkpt lat="46.24603576688619" lon="13.278987946070469"><ele>699.0</ele><time>2026-04-11T11:14:45.999Z</time></trkpt><trkpt lat="46.24603536584481" lon="13.278880883604034"><ele>699.0</ele><time>2026-04-11T11:14:46.999Z</time></trkpt><trkpt lat="46.24602621552053" lon="13.278774527678253"><ele>699.0</ele><time>2026-04-11T11:14:47.999Z</time></trkpt><trkpt lat="46.24604552450711" lon="13.278612636059675"><ele>699.0</ele><time>2026-04-11T11:14:49.999Z</time></trkpt><trkpt lat="46.24610491150879" lon="13.278548182051907"><ele>697.3333333333334</ele><time>2026-04-11T11:14:50.999Z</time></trkpt><trkpt lat="46.24618025440458" lon="13.278546658866064"><ele>695.6666666666666</ele><time>2026-04-11T11:14:51.999Z</time></trkpt><trkpt lat="46.24625111303444" lon="13.278619211065605"><ele>694.0</ele><time>2026-04-11T11:14:52.999Z</time></trkpt><trkpt lat="46.24630895304041" lon="13.2787117656056"><ele>692.3333333333333</ele><time>2026-04-11T11:14:53.999Z</time></trkpt><trkpt lat="46.24636631939409" lon="13.278815141643806"><ele>690.6666666666666</ele><time>2026-04-11T11:14:54.999Z</time></trkpt><trkpt lat="46.246444317574365" lon="13.278916397469455"><ele>689.0</ele><time>2026-04-11T11:14:55.999Z</time></trkpt><trkpt lat="46.24652255975071" lon="13.279048783488186"><ele>689.0</ele><time>2026-04-11T11:14:56.999Z</time></trkpt><trkpt lat="46.24656652896781" lon="13.279189153572466"><ele>689.0</ele><time>2026-04-11T11:14:57.999Z</time></trkpt><trkpt lat="46.24659892425965" lon="13.279322211388473"><ele>689.0</ele><time>2026-04-11T11:14:58.999Z</time></trkpt><trkpt lat="46.24665599413336" lon="13.279431371606503"><ele>689.0</ele><time>2026-04-11T11:14:59.999Z</time></trkpt><trkpt lat="46.24672007915431" lon="13.279501503478043"><ele>689.0</ele><time>2026-04-11T11:15:00.999Z</time></trkpt><trkpt lat="46.24681176044086" lon="13.279522891625282"><ele>689.0</ele><time>2026-04-11T11:15:01.999Z</time></trkpt><trkpt lat="46.24692353669592" lon="13.27952132177802"><ele>689.0</ele><time>2026-04-11T11:15:02.999Z</time></trkpt><trkpt lat="46.24703628641147" lon="13.279521954681064"><ele>689.0</ele><time>2026-04-11T11:15:03.999Z</time></trkpt><trkpt lat="46.24715500974624" lon="13.279519563367995"><ele>689.0</ele><time>2026-04-11T11:15:04.999Z</time></trkpt><trkpt lat="46.24725104513775" lon="13.279552107577565"><ele>689.0</ele><time>2026-04-11T11:15:05.999Z</time></trkpt><trkpt lat="46.24733034992383" lon="13.279549974034738"><ele>689.75</ele><time>2026-04-11T11:15:06.999Z</time></trkpt><trkpt lat="46.247425116963534" lon="13.279436737163026"><ele>690.5</ele><time>2026-04-11T11:15:08.999Z</time></trkpt><trkpt lat="46.247448964708454" lon="13.279296446316653"><ele>691.25</ele><time>2026-04-11T11:15:09.999Z</time></trkpt><trkpt lat="46.247484249877445" lon="13.279138279247018"><ele>692.0</ele><time>2026-04-11T11:15:10.999Z</time></trkpt><trkpt lat="46.24752834494101" lon="13.278972188891391"><ele>695.0</ele><time>2026-04-11T11:15:11.999Z</time></trkpt><trkpt lat="46.24756122648734" lon="13.278835731491062"><ele>698.0</ele><time>2026-04-11T11:15:12.999Z</time></trkpt><trkpt lat="46.247679544202654" lon="13.278668988184748"><ele>701.0</ele><time>2026-04-11T11:15:14.999Z</time></trkpt><trkpt lat="46.24777404890412" lon="13.278643244847213"><ele>704.0</ele><time>2026-04-11T11:15:15.999Z</time></trkpt><trkpt lat="46.24786738101868" lon="13.278662483670214"><ele>704.0</ele><time>2026-04-11T11:15:16.999Z</time></trkpt><trkpt lat="46.24796234686201" lon="13.278713273442923"><ele>704.0</ele><time>2026-04-11T11:15:17.999Z</time></trkpt><trkpt lat="46.24805627523883" lon="13.27877383216728"><ele>704.0</ele><time>2026-04-11T11:15:18.999Z</time></trkpt><trkpt lat="46.248136665144955" lon="13.278802184834946"><ele>704.0</ele><time>2026-04-11T11:15:19.999Z</time></trkpt><trkpt lat="46.24820551832339" lon="13.27880275178474"><ele>704.0</ele><time>2026-04-11T11:15:20.999Z</time></trkpt><trkpt lat="46.24826905900226" lon="13.27876451104213"><ele>704.0</ele><time>2026-04-11T11:15:21.999Z</time></trkpt><trkpt lat="46.24838505577601" lon="13.278704766347245"><ele>703.1666666666666</ele><time>2026-04-11T11:15:23.999Z</time></trkpt><trkpt lat="46.248447949738086" lon="13.278728718051708"><ele>702.3333333333333</ele><time>2026-04-11T11:15:24.998Z</time></trkpt><trkpt lat="46.24850934285152" lon="13.27879678894288"><ele>701.5</ele><time>2026-04-11T11:15:25.998Z</time></trkpt><trkpt lat="46.24855503667984" lon="13.278901052573657"><ele>700.6666666666666</ele><time>2026-04-11T11:15:26.999Z</time></trkpt><trkpt lat="46.2485647270487" lon="13.279027563175903"><ele>699.8333333333334</ele><time>2026-04-11T11:15:27.999Z</time></trkpt><trkpt lat="46.24857499741638" lon="13.279153084087278"><ele>699.0</ele><time>2026-04-11T11:15:28.999Z</time></trkpt><trkpt lat="46.24862040196077" lon="13.279270883286465"><ele>699.2</ele><time>2026-04-11T11:15:29.999Z</time></trkpt><trkpt lat="46.24871015178215" lon="13.279357983161624"><ele>699.4000000000001</ele><time>2026-04-11T11:15:30.999Z</time></trkpt><trkpt lat="46.24881643604027" lon="13.2794293899525"><ele>699.6</ele><time>2026-04-11T11:15:31.999Z</time></trkpt><trkpt lat="46.24892492287185" lon="13.279458683385023"><ele>699.8</ele><time>2026-04-11T11:15:32.999Z</time></trkpt><trkpt lat="46.249031331119866" lon="13.279440696411985"><ele>700.0</ele><time>2026-04-11T11:15:33.999Z</time></trkpt><trkpt lat="46.24912632570993" lon="13.279416251104186"><ele>700.0</ele><time>2026-04-11T11:15:34.999Z</time></trkpt><trkpt lat="46.24920038313817" lon="13.279428728239202"><ele>700.0</ele><time>2026-04-11T11:15:35.999Z</time></trkpt><trkpt lat="46.249258448465234" lon="13.279486401513985"><ele>700.0</ele><time>2026-04-11T11:15:37Z</time></trkpt><trkpt lat="46.24931333462088" lon="13.279574783520358"><ele>700.0</ele><time>2026-04-11T11:15:37.999Z</time></trkpt><trkpt lat="46.24936714499636" lon="13.27966198250226"><ele>700.0</ele><time>2026-04-11T11:15:39Z</time></trkpt><trkpt lat="46.249430465247485" lon="13.279736710567683"><ele>700.0</ele><time>2026-04-11T11:15:40Z</time></trkpt><trkpt lat="46.24950601642455" lon="13.279826050825195"><ele>697.6</ele><time>2026-04-11T11:15:41Z</time></trkpt><trkpt lat="46.24960338917583" lon="13.279891346085876"><ele>695.2</ele><time>2026-04-11T11:15:41.999Z</time></trkpt><trkpt lat="46.24966376726274" lon="13.279962706156029"><ele>692.8</ele><time>2026-04-11T11:15:42.999Z</time></trkpt><trkpt lat="46.249694487946755" lon="13.280155653186458"><ele>690.4</ele><time>2026-04-11T11:15:44.999Z</time></trkpt><trkpt lat="46.249687159595545" lon="13.28026227101418"><ele>688.0</ele><time>2026-04-11T11:15:45.999Z</time></trkpt><trkpt lat="46.2496828966058" lon="13.280427112496794"><ele>688.0</ele><time>2026-04-11T11:15:47.999Z</time></trkpt><trkpt lat="46.249759979454595" lon="13.280542170747902"><ele>688.0</ele><time>2026-04-11T11:15:49.999Z</time></trkpt><trkpt lat="46.24983575060441" lon="13.280608967980697"><ele>688.0</ele><time>2026-04-11T11:15:50.999Z</time></trkpt><trkpt lat="46.249921893469974" lon="13.280660071912644"><ele>688.0</ele><time>2026-04-11T11:15:51.999Z</time></trkpt><trkpt lat="46.2500185000619" lon="13.280716255436966"><ele>688.0</ele><time>2026-04-11T11:15:52.999Z</time></trkpt><trkpt lat="46.250123255949035" lon="13.280789591573827"><ele>689.3333333333334</ele><time>2026-04-11T11:15:53.999Z</time></trkpt><trkpt lat="46.25020969139453" lon="13.280850186895801"><ele>690.6666666666667</ele><time>2026-04-11T11:15:54.999Z</time></trkpt><trkpt lat="46.25028778751393" lon="13.28089657126499"><ele>692.0</ele><time>2026-04-11T11:15:55.999Z</time></trkpt><trkpt lat="46.25036202999455" lon="13.280933319481969"><ele>693.3333333333334</ele><time>2026-04-11T11:15:56.999Z</time></trkpt><trkpt lat="46.25044498623754" lon="13.280938599778118"><ele>694.6666666666666</ele><time>2026-04-11T11:15:57.999Z</time></trkpt><trkpt lat="46.25052510481715" lon="13.280917000712034"><ele>696.0</ele><time>2026-04-11T11:15:58.999Z</time></trkpt><trkpt lat="46.25061146671656" lon="13.280861661806108"><ele>695.5999999999999</ele><time>2026-04-11T11:15:59.999Z</time></trkpt><trkpt lat="46.25070832910233" lon="13.28078862990532"><ele>695.2</ele><time>2026-04-11T11:16:00.999Z</time></trkpt><trkpt lat="46.2507937234241" lon="13.280683663809485"><ele>694.8</ele><time>2026-04-11T11:16:01.999Z</time></trkpt><trkpt lat="46.250874167302996" lon="13.280589301104659"><ele>694.4000000000001</ele><time>2026-04-11T11:16:02.999Z</time></trkpt><trkpt lat="46.250962990066554" lon="13.280485933203835"><ele>694.0</ele><time>2026-04-11T11:16:03.999Z</time></trkpt><trkpt lat="46.25104725824232" lon="13.280391053309748"><ele>692.8000000000001</ele><time>2026-04-11T11:16:04.999Z</time></trkpt><trkpt lat="46.25111985209841" lon="13.280290551052566"><ele>691.6</ele><time>2026-04-11T11:16:05.999Z</time></trkpt><trkpt lat="46.2512044298961" lon="13.280230251398738"><ele>690.4</ele><time>2026-04-11T11:16:06.999Z</time></trkpt><trkpt lat="46.251296006732716" lon="13.280195063783456"><ele>689.2</ele><time>2026-04-11T11:16:07.999Z</time></trkpt><trkpt lat="46.25139399266319" lon="13.28017121223177"><ele>688.0</ele><time>2026-04-11T11:16:08.999Z</time></trkpt><trkpt lat="46.25148641509198" lon="13.280143215060813"><ele>688.0</ele><time>2026-04-11T11:16:09.999Z</time></trkpt><trkpt lat="46.25157909378276" lon="13.280100177785132"><ele>688.0</ele><time>2026-04-11T11:16:10.999Z</time></trkpt><trkpt lat="46.251678361223945" lon="13.280060367564134"><ele>688.0</ele><time>2026-04-11T11:16:11.999Z</time></trkpt><trkpt lat="46.25178180937406" lon="13.279986438815936"><ele>688.0</ele><time>2026-04-11T11:16:12.999Z</time></trkpt><trkpt lat="46.25188707692322" lon="13.279893427401884"><ele>688.0</ele><time>2026-04-11T11:16:13.999Z</time></trkpt><trkpt lat="46.251980747879905" lon="13.27981036744137"><ele>687.8</ele><time>2026-04-11T11:16:14.999Z</time></trkpt><trkpt lat="46.252081228362336" lon="13.279721268531034"><ele>687.5999999999999</ele><time>2026-04-11T11:16:15.999Z</time></trkpt><trkpt lat="46.25217598417096" lon="13.279637248364892"><ele>687.4000000000001</ele><time>2026-04-11T11:16:16.999Z</time></trkpt><trkpt lat="46.252263351639876" lon="13.279559777565225"><ele>687.2</ele><time>2026-04-11T11:16:17.999Z</time></trkpt><trkpt lat="46.25235168504359" lon="13.27948145024428"><ele>687.0</ele><time>2026-04-11T11:16:18.999Z</time></trkpt><trkpt lat="46.25243299869518" lon="13.279411181667538"><ele>687.0</ele><time>2026-04-11T11:16:19.999Z</time></trkpt><trkpt lat="46.25250421554176" lon="13.279327994705099"><ele>687.0</ele><time>2026-04-11T11:16:20.999Z</time></trkpt><trkpt lat="46.25259043478365" lon="13.279302680799969"><ele>687.0</ele><time>2026-04-11T11:16:21.999Z</time></trkpt><trkpt lat="46.252695194313745" lon="13.279304013211323"><ele>687.0</ele><time>2026-04-11T11:16:22.999Z</time></trkpt><trkpt lat="46.25279119741302" lon="13.279329381648095"><ele>687.0</ele><time>2026-04-11T11:16:23.999Z</time></trkpt><trkpt lat="46.25287807150383" lon="13.279342660068439"><ele>687.0</ele><time>2026-04-11T11:16:24.999Z</time></trkpt><trkpt lat="46.252969528381634" lon="13.279366650539947"><ele>687.0</ele><time>2026-04-11T11:16:25.999Z</time></trkpt><trkpt lat="46.25307300761734" lon="13.279380862103876"><ele>687.0</ele><time>2026-04-11T11:16:26.999Z</time></trkpt><trkpt lat="46.25317132773428" lon="13.279395987883657"><ele>687.0</ele><time>2026-04-11T11:16:27.999Z</time></trkpt><trkpt lat="46.25326795345548" lon="13.27941751138398"><ele>687.0</ele><time>2026-04-11T11:16:28.999Z</time></trkpt><trkpt lat="46.25336476420476" lon="13.279434348492739"><ele>686.0</ele><time>2026-04-11T11:16:29.999Z</time></trkpt><trkpt lat="46.253458191876135" lon="13.279448621084649"><ele>685.0</ele><time>2026-04-11T11:16:30.999Z</time></trkpt><trkpt lat="46.253545497782625" lon="13.279459234928655"><ele>684.0</ele><time>2026-04-11T11:16:31.999Z</time></trkpt><trkpt lat="46.2536278617014" lon="13.279481083958729"><ele>683.0</ele><time>2026-04-11T11:16:32.999Z</time></trkpt><trkpt lat="46.25371643944784" lon="13.27950747385479"><ele>682.0</ele><time>2026-04-11T11:16:33.999Z</time></trkpt><trkpt lat="46.25380470142665" lon="13.279518085138571"><ele>681.0</ele><time>2026-04-11T11:16:34.999Z</time></trkpt><trkpt lat="46.25387773836419" lon="13.279533376647922"><ele>681.0</ele><time>2026-04-11T11:16:35.999Z</time></trkpt><trkpt lat="46.25394609948475" lon="13.279540174154963"><ele>681.0</ele><time>2026-04-11T11:16:36.999Z</time></trkpt><trkpt lat="46.25402039116567" lon="13.279531832215259"><ele>681.0</ele><time>2026-04-11T11:16:37.999Z</time></trkpt><trkpt lat="46.25411627698095" lon="13.279490332628146"><ele>681.0</ele><time>2026-04-11T11:16:39.999Z</time></trkpt><trkpt lat="46.254194670078014" lon="13.279502231574785"><ele>681.0</ele><time>2026-04-11T11:16:41.999Z</time></trkpt><trkpt lat="46.254250463815715" lon="13.27956580088163"><ele>681.0</ele><time>2026-04-11T11:16:43.999Z</time></trkpt><trkpt lat="46.254289431513286" lon="13.279670080758214"><ele>678.6666666666666</ele><time>2026-04-11T11:16:46.999Z</time></trkpt><trkpt lat="46.25432874893178" lon="13.27978921155268"><ele>676.3333333333334</ele><time>2026-04-11T11:19:43Z</time></trkpt><trkpt lat="46.25438561408871" lon="13.279941492575956"><ele>674.0</ele><time>2026-04-11T11:19:45Z</time></trkpt><trkpt lat="46.25442131600812" lon="13.280040006492449"><ele>671.6666666666667</ele><time>2026-04-11T11:19:46Z</time></trkpt><trkpt lat="46.25445738953007" lon="13.280140608334253"><ele>669.3333333333334</ele><time>2026-04-11T11:19:47Z</time></trkpt><trkpt lat="46.25448824046625" lon="13.280248698377948"><ele>667.0</ele><time>2026-04-11T11:19:48Z</time></trkpt><trkpt lat="46.25452600409582" lon="13.280362574081089"><ele>667.0</ele><time>2026-04-11T11:19:49Z</time></trkpt><trkpt lat="46.254567064172356" lon="13.28046005558215"><ele>667.0</ele><time>2026-04-11T11:19:50Z</time></trkpt><trkpt lat="46.25459367269446" lon="13.280566416597491"><ele>667.0</ele><time>2026-04-11T11:19:51Z</time></trkpt><trkpt lat="46.25460029446384" lon="13.280684367380113"><ele>667.0</ele><time>2026-04-11T11:19:52Z</time></trkpt><trkpt lat="46.25458355671112" lon="13.28078570816359"><ele>667.0</ele><time>2026-04-11T11:19:53Z</time></trkpt><trkpt lat="46.25450709875202" lon="13.280882652514496"><ele>667.0</ele><time>2026-04-11T11:19:55Z</time></trkpt><trkpt lat="46.25442570414122" lon="13.280888156066307"><ele>667.0</ele><time>2026-04-11T11:19:56Z</time></trkpt><trkpt lat="46.254322534499174" lon="13.280965647709735"><ele>667.0</ele><time>2026-04-11T11:19:57Z</time></trkpt><trkpt lat="46.25420837658257" lon="13.281080187021498"><ele>667.0</ele><time>2026-04-11T11:19:58Z</time></trkpt><trkpt lat="46.25412998868819" lon="13.281188719389377"><ele>667.0</ele><time>2026-04-11T11:19:59Z</time></trkpt><trkpt lat="46.25406850637861" lon="13.281302469631107"><ele>665.4000000000001</ele><time>2026-04-11T11:20:00Z</time></trkpt><trkpt lat="46.2540334645202" lon="13.28144334143415"><ele>663.8000000000001</ele><time>2026-04-11T11:20:01Z</time></trkpt><trkpt lat="46.254030460540875" lon="13.281620592066286"><ele>662.2</ele><time>2026-04-11T11:20:01.999Z</time></trkpt><trkpt lat="46.254039240449245" lon="13.281784356255864"><ele>660.6</ele><time>2026-04-11T11:20:02.999Z</time></trkpt><trkpt lat="46.254039805126446" lon="13.281920931021109"><ele>659.0</ele><time>2026-04-11T11:20:03.999Z</time></trkpt><trkpt lat="46.254027016076186" lon="13.282047460912784"><ele>659.0</ele><time>2026-04-11T11:20:04.999Z</time></trkpt><trkpt lat="46.25399791362091" lon="13.282157399437168"><ele>659.0</ele><time>2026-04-11T11:20:05.999Z</time></trkpt><trkpt lat="46.253951814007095" lon="13.282250421829605"><ele>659.0</ele><time>2026-04-11T11:20:06.999Z</time></trkpt><trkpt lat="46.25387807567186" lon="13.28239315173901"><ele>659.0</ele><time>2026-04-11T11:20:08.999Z</time></trkpt><trkpt lat="46.253952178767584" lon="13.28250733438037"><ele>659.0</ele><time>2026-04-11T11:20:10.999Z</time></trkpt><trkpt lat="46.254018425772514" lon="13.28247761419125"><ele>659.0</ele><time>2026-04-11T11:20:11.999Z</time></trkpt><trkpt lat="46.25407837011179" lon="13.28238876738933"><ele>659.0</ele><time>2026-04-11T11:20:12.999Z</time></trkpt><trkpt lat="46.25413699237081" lon="13.282264322163941"><ele>659.0</ele><time>2026-04-11T11:20:13.999Z</time></trkpt><trkpt lat="46.25419409296192" lon="13.282126693627893"><ele>659.0</ele><time>2026-04-11T11:20:14.999Z</time></trkpt><trkpt lat="46.25423322668182" lon="13.281960675360558"><ele>659.0</ele><time>2026-04-11T11:20:15.999Z</time></trkpt><trkpt lat="46.25425544777232" lon="13.28178615928636"><ele>659.0</ele><time>2026-04-11T11:20:16.999Z</time></trkpt><trkpt lat="46.254304013544164" lon="13.281655210987838"><ele>659.0</ele><time>2026-04-11T11:20:17.999Z</time></trkpt><trkpt lat="46.254390520190555" lon="13.281555753865632"><ele>659.0</ele><time>2026-04-11T11:20:18.999Z</time></trkpt><trkpt lat="46.2544962572802" lon="13.281458605689727"><ele>659.0</ele><time>2026-04-11T11:20:19.999Z</time></trkpt><trkpt lat="46.254585185608704" lon="13.28137315706133"><ele>659.0</ele><time>2026-04-11T11:20:20.999Z</time></trkpt><trkpt lat="46.25465947514371" lon="13.281273197216022"><ele>660.3333333333333</ele><time>2026-04-11T11:20:21.999Z</time></trkpt><trkpt lat="46.254753151013155" lon="13.281207988015744"><ele>661.6666666666666</ele><time>2026-04-11T11:20:22.999Z</time></trkpt><trkpt lat="46.25483576391785" lon="13.281164476669606"><ele>663.0</ele><time>2026-04-11T11:20:23.999Z</time></trkpt><trkpt lat="46.25490214767454" lon="13.281107140760554"><ele>664.3333333333334</ele><time>2026-04-11T11:20:24.999Z</time></trkpt><trkpt lat="46.254973541524215" lon="13.281034881179336"><ele>665.6666666666667</ele><time>2026-04-11T11:20:25.999Z</time></trkpt><trkpt lat="46.25502654297376" lon="13.280929704188194"><ele>667.0</ele><time>2026-04-11T11:20:26.999Z</time></trkpt><trkpt lat="46.2550612453182" lon="13.28078753937412"><ele>664.1666666666667</ele><time>2026-04-11T11:20:27.999Z</time></trkpt><trkpt lat="46.25507926401695" lon="13.280638601697854"><ele>661.3333333333334</ele><time>2026-04-11T11:20:28.999Z</time></trkpt><trkpt lat="46.255091266025154" lon="13.280505449667299"><ele>658.5</ele><time>2026-04-11T11:20:29.999Z</time></trkpt><trkpt lat="46.255100622259285" lon="13.280386255724272"><ele>655.6666666666666</ele><time>2026-04-11T11:20:30.999Z</time></trkpt><trkpt lat="46.25510610411363" lon="13.28027605449581"><ele>652.8333333333333</ele><time>2026-04-11T11:20:31.999Z</time></trkpt><trkpt lat="46.25509176297886" lon="13.280149948838016"><ele>650.0</ele><time>2026-04-11T11:20:32.999Z</time></trkpt><trkpt lat="46.255019577238" lon="13.280005355792696"><ele>649.8</ele><time>2026-04-11T11:20:33.999Z</time></trkpt><trkpt lat="46.25493722283578" lon="13.279873650172206"><ele>649.6</ele><time>2026-04-11T11:20:34.999Z</time></trkpt><trkpt lat="46.254869223348585" lon="13.279744925045454"><ele>649.4000000000001</ele><time>2026-04-11T11:20:35.999Z</time></trkpt><trkpt lat="46.254815114174455" lon="13.279629041186308"><ele>649.2</ele><time>2026-04-11T11:20:36.999Z</time></trkpt><trkpt lat="46.25477565975477" lon="13.279521005721286"><ele>649.0</ele><time>2026-04-11T11:20:37.999Z</time></trkpt><trkpt lat="46.25476354348207" lon="13.279402501653495"><ele>652.0</ele><time>2026-04-11T11:20:38.999Z</time></trkpt><trkpt lat="46.25476894237908" lon="13.279261817146725"><ele>655.0</ele><time>2026-04-11T11:20:39.999Z</time></trkpt><trkpt lat="46.25476622010186" lon="13.279111897263249"><ele>658.0</ele><time>2026-04-11T11:20:40.999Z</time></trkpt><trkpt lat="46.25475364562084" lon="13.278957094529412"><ele>661.0</ele><time>2026-04-11T11:20:41.999Z</time></trkpt><trkpt lat="46.25473305149224" lon="13.278805789119184"><ele>664.0</ele><time>2026-04-11T11:20:42.999Z</time></trkpt><trkpt lat="46.25471007949112" lon="13.278643561003681"><ele>664.0</ele><time>2026-04-11T11:20:43.999Z</time></trkpt><trkpt lat="46.254681859630445" lon="13.278454068181766"><ele>664.0</ele><time>2026-04-11T11:20:44.999Z</time></trkpt><trkpt lat="46.25465519997835" lon="13.278297281188923"><ele>664.0</ele><time>2026-04-11T11:20:45.999Z</time></trkpt><trkpt lat="46.25463179728863" lon="13.27816829004122"><ele>664.0</ele><time>2026-04-11T11:20:46.999Z</time></trkpt><trkpt lat="46.254605865545834" lon="13.2780544656216"><ele>664.0</ele><time>2026-04-11T11:20:47.999Z</time></trkpt><trkpt lat="46.25456366809034" lon="13.27792220629099"><ele>664.0</ele><time>2026-04-11T11:20:49.999Z</time></trkpt><trkpt lat="46.25464649429854" lon="13.277952738216529"><ele>664.0</ele><time>2026-04-11T11:20:53.999Z</time></trkpt><trkpt lat="46.254672355033" lon="13.278112304719446"><ele>664.0</ele><time>2026-04-11T11:20:56Z</time></trkpt><trkpt lat="46.254700598648576" lon="13.278215314590017"><ele>664.0</ele><time>2026-04-11T11:20:57Z</time></trkpt><trkpt lat="46.25472280559093" lon="13.278366958431409"><ele>664.0</ele><time>2026-04-11T11:20:58Z</time></trkpt><trkpt lat="46.25476961019488" lon="13.278549664900382"><ele>659.2</ele><time>2026-04-11T11:20:59Z</time></trkpt><trkpt lat="46.25482100825741" lon="13.27871918582479"><ele>654.4000000000001</ele><time>2026-04-11T11:21:00Z</time></trkpt><trkpt lat="46.25486810790728" lon="13.278876531600746"><ele>649.6</ele><time>2026-04-11T11:21:01Z</time></trkpt><trkpt lat="46.25490881805436" lon="13.279009751366855"><ele>644.8</ele><time>2026-04-11T11:21:02Z</time></trkpt><trkpt lat="46.254943563148004" lon="13.279131611606022"><ele>640.0</ele><time>2026-04-11T11:21:03Z</time></trkpt><trkpt lat="46.25498151433588" lon="13.279239859852638"><ele>640.0</ele><time>2026-04-11T11:21:04Z</time></trkpt><trkpt lat="46.255030340773786" lon="13.279321642180015"><ele>640.0</ele><time>2026-04-11T11:21:05Z</time></trkpt><trkpt lat="46.255108873349485" lon="13.27938129040659"><ele>640.0</ele><time>2026-04-11T11:21:06Z</time></trkpt><trkpt lat="46.25522122136384" lon="13.27942204358767"><ele>640.0</ele><time>2026-04-11T11:21:07Z</time></trkpt><trkpt lat="46.25531062149691" lon="13.279481304377397"><ele>640.0</ele><time>2026-04-11T11:21:08Z</time></trkpt><trkpt lat="46.25537155522225" lon="13.279586526275367"><ele>640.0</ele><time>2026-04-11T11:21:09Z</time></trkpt><trkpt lat="46.25543362531364" lon="13.279714892559348"><ele>640.0</ele><time>2026-04-11T11:21:10Z</time></trkpt><trkpt lat="46.255504599243004" lon="13.279857336145925"><ele>640.0</ele><time>2026-04-11T11:21:11Z</time></trkpt><trkpt lat="46.255557358759674" lon="13.2800218706784"><ele>640.0</ele><time>2026-04-11T11:21:12Z</time></trkpt><trkpt lat="46.25559115566351" lon="13.280194494277351"><ele>639.5</ele><time>2026-04-11T11:21:13Z</time></trkpt><trkpt lat="46.25562337629689" lon="13.280357991446396"><ele>639.0</ele><time>2026-04-11T11:21:14Z</time></trkpt><trkpt lat="46.25567077488777" lon="13.280498411481432"><ele>638.5</ele><time>2026-04-11T11:21:15Z</time></trkpt><trkpt lat="46.255744353240196" lon="13.280627355865274"><ele>638.0</ele><time>2026-04-11T11:21:16Z</time></trkpt><trkpt lat="46.25583292933213" lon="13.280731527170632"><ele>638.0</ele><time>2026-04-11T11:21:17Z</time></trkpt><trkpt lat="46.255921852085066" lon="13.280850085099438"><ele>638.0</ele><time>2026-04-11T11:21:18Z</time></trkpt><trkpt lat="46.25598876155543" lon="13.280972004022944"><ele>638.0</ele><time>2026-04-11T11:21:19Z</time></trkpt><trkpt lat="46.25605222673476" lon="13.281075468927048"><ele>638.0</ele><time>2026-04-11T11:21:20Z</time></trkpt><trkpt lat="46.256121557776005" lon="13.281159599764628"><ele>638.0</ele><time>2026-04-11T11:21:21Z</time></trkpt><trkpt lat="46.25619824684255" lon="13.281205045193646"><ele>638.0</ele><time>2026-04-11T11:21:22Z</time></trkpt><trkpt lat="46.25629733130747" lon="13.281241348676884"><ele>638.0</ele><time>2026-04-11T11:21:23Z</time></trkpt><trkpt lat="46.256379958613664" lon="13.281286057073741"><ele>638.0</ele><time>2026-04-11T11:21:24Z</time></trkpt><trkpt lat="46.2564293468157" lon="13.281373482960719"><ele>638.0</ele><time>2026-04-11T11:21:25Z</time></trkpt><trkpt lat="46.25645211815421" lon="13.281489588053264"><ele>638.0</ele><time>2026-04-11T11:21:26Z</time></trkpt><trkpt lat="46.25645207174657" lon="13.281641351551079"><ele>637.75</ele><time>2026-04-11T11:21:27Z</time></trkpt><trkpt lat="46.256433036495764" lon="13.281826657059032"><ele>637.5</ele><time>2026-04-11T11:21:28Z</time></trkpt><trkpt lat="46.256407810508286" lon="13.282034920181617"><ele>637.25</ele><time>2026-04-11T11:21:29Z</time></trkpt><trkpt lat="46.25638856600098" lon="13.282242997152629"><ele>637.0</ele><time>2026-04-11T11:21:30Z</time></trkpt><trkpt lat="46.256377193545255" lon="13.282475751918701"><ele>635.25</ele><time>2026-04-11T11:21:31Z</time></trkpt><trkpt lat="46.25637487326482" lon="13.282677702303083"><ele>633.5</ele><time>2026-04-11T11:21:32Z</time></trkpt><trkpt lat="46.25637824875687" lon="13.282864824900999"><ele>631.75</ele><time>2026-04-11T11:21:33Z</time></trkpt><trkpt lat="46.25639010007443" lon="13.283051802836205"><ele>630.0</ele><time>2026-04-11T11:21:34Z</time></trkpt><trkpt lat="46.2564217665641" lon="13.283225282077204"><ele>627.25</ele><time>2026-04-11T11:21:35Z</time></trkpt><trkpt lat="46.25646423787385" lon="13.283387841733846"><ele>624.5</ele><time>2026-04-11T11:21:36Z</time></trkpt><trkpt lat="46.25652239251351" lon="13.283530153491112"><ele>621.75</ele><time>2026-04-11T11:21:37Z</time></trkpt><trkpt lat="46.25660010154851" lon="13.283640527629753"><ele>619.0</ele><time>2026-04-11T11:21:38Z</time></trkpt><trkpt lat="46.256690165362926" lon="13.283723129245166"><ele>619.0</ele><time>2026-04-11T11:21:39Z</time></trkpt><trkpt lat="46.25678471637627" lon="13.283795352437272"><ele>619.0</ele><time>2026-04-11T11:21:40Z</time></trkpt><trkpt lat="46.25688147969378" lon="13.283854279205613"><ele>619.0</ele><time>2026-04-11T11:21:41Z</time></trkpt><trkpt lat="46.256975255987065" lon="13.283910820678972"><ele>619.0</ele><time>2026-04-11T11:21:42Z</time></trkpt><trkpt lat="46.25707032374286" lon="13.283963572968913"><ele>619.0</ele><time>2026-04-11T11:21:43Z</time></trkpt><trkpt lat="46.25716156792677" lon="13.284021524762585"><ele>620.0</ele><time>2026-04-11T11:21:44.001Z</time></trkpt><trkpt lat="46.257246499472636" lon="13.28409029705416"><ele>621.0</ele><time>2026-04-11T11:21:45.001Z</time></trkpt><trkpt lat="46.25731734275362" lon="13.28416816986532"><ele>622.0</ele><time>2026-04-11T11:21:46.001Z</time></trkpt><trkpt lat="46.257387948125135" lon="13.284281208586762"><ele>623.0</ele><time>2026-04-11T11:21:47.001Z</time></trkpt><trkpt lat="46.25746028199581" lon="13.284428499677116"><ele>624.0</ele><time>2026-04-11T11:21:48.001Z</time></trkpt><trkpt lat="46.257518892589225" lon="13.284589148560498"><ele>623.75</ele><time>2026-04-11T11:21:49.001Z</time></trkpt><trkpt lat="46.25756115586159" lon="13.284779348828565"><ele>623.5</ele><time>2026-04-11T11:21:50.001Z</time></trkpt><trkpt lat="46.25759516248071" lon="13.284981633664746"><ele>623.25</ele><time>2026-04-11T11:21:51.001Z</time></trkpt><trkpt lat="46.25762066288234" lon="13.285191275404996"><ele>623.0</ele><time>2026-04-11T11:21:52.001Z</time></trkpt><trkpt lat="46.257640840799574" lon="13.285386798454546"><ele>623.0</ele><time>2026-04-11T11:21:53.001Z</time></trkpt><trkpt lat="46.25766014649346" lon="13.285550906963795"><ele>623.0</ele><time>2026-04-11T11:21:54.001Z</time></trkpt><trkpt lat="46.25768958283691" lon="13.285709641162516"><ele>623.0</ele><time>2026-04-11T11:21:55.001Z</time></trkpt><trkpt lat="46.2577410703412" lon="13.285879307632511"><ele>623.0</ele><time>2026-04-11T11:21:56.001Z</time></trkpt><trkpt lat="46.25781973993652" lon="13.286039732686662"><ele>622.0</ele><time>2026-04-11T11:21:57.001Z</time></trkpt><trkpt lat="46.25789516646593" lon="13.286199930724488"><ele>621.0</ele><time>2026-04-11T11:21:58.001Z</time></trkpt><trkpt lat="46.2579688549683" lon="13.286364648372032"><ele>620.0</ele><time>2026-04-11T11:21:59.001Z</time></trkpt><trkpt lat="46.25804508705681" lon="13.286535486650921"><ele>619.0</ele><time>2026-04-11T11:22:00.001Z</time></trkpt><trkpt lat="46.258111436315836" lon="13.286686422229298"><ele>617.3333333333334</ele><time>2026-04-11T11:22:01.001Z</time></trkpt><trkpt lat="46.25817719395364" lon="13.286833404893454"><ele>615.6666666666666</ele><time>2026-04-11T11:22:02.001Z</time></trkpt><trkpt lat="46.25826048168197" lon="13.287016918416699"><ele>614.0</ele><time>2026-04-11T11:22:03.001Z</time></trkpt><trkpt lat="46.25837278348661" lon="13.2872715650079"><ele>614.0</ele><time>2026-04-11T11:22:04.001Z</time></trkpt><trkpt lat="46.25847433531176" lon="13.287495623797552"><ele>614.0</ele><time>2026-04-11T11:22:05.001Z</time></trkpt><trkpt lat="46.258570890358996" lon="13.287706446878952"><ele>614.0</ele><time>2026-04-11T11:22:06Z</time></trkpt><trkpt lat="46.25865333750423" lon="13.287895962670186"><ele>614.0</ele><time>2026-04-11T11:22:07Z</time></trkpt><trkpt lat="46.25873287847539" lon="13.288069448080273"><ele>614.0</ele><time>2026-04-11T11:22:08Z</time></trkpt><trkpt lat="46.258823845859226" lon="13.288219895602953"><ele>614.0</ele><time>2026-04-11T11:22:09Z</time></trkpt><trkpt lat="46.25894432572099" lon="13.288362890033278"><ele>614.0</ele><time>2026-04-11T11:22:10Z</time></trkpt><trkpt lat="46.25909348781569" lon="13.288500643940258"><ele>613.6666666666666</ele><time>2026-04-11T11:22:11Z</time></trkpt><trkpt lat="46.259255066104224" lon="13.2886509464308"><ele>613.3333333333334</ele><time>2026-04-11T11:22:12Z</time></trkpt><trkpt lat="46.25936818605357" lon="13.288803377266882"><ele>613.0</ele><time>2026-04-11T11:22:13Z</time></trkpt><trkpt lat="46.25945898135956" lon="13.288931351180782"><ele>613.5</ele><time>2026-04-11T11:22:14Z</time></trkpt><trkpt lat="46.259561288196" lon="13.289038581048898"><ele>614.0</ele><time>2026-04-11T11:22:15Z</time></trkpt><trkpt lat="46.25967261246873" lon="13.289128166829768"><ele>614.5</ele><time>2026-04-11T11:22:16Z</time></trkpt><trkpt lat="46.25976698905786" lon="13.289197668118732"><ele>615.0</ele><time>2026-04-11T11:22:17Z</time></trkpt><trkpt lat="46.25984755620224" lon="13.28925830196319"><ele>615.0</ele><time>2026-04-11T11:22:18Z</time></trkpt><trkpt lat="46.2599145752814" lon="13.289312035209187"><ele>615.0</ele><time>2026-04-11T11:22:19Z</time></trkpt><trkpt lat="46.25995877145628" lon="13.289384230447322"><ele>615.0</ele><time>2026-04-11T11:22:20Z</time></trkpt><trkpt lat="46.25998161983488" lon="13.289485412582842"><ele>615.0</ele><time>2026-04-11T11:22:21Z</time></trkpt><trkpt lat="46.25998818357669" lon="13.28961760117399"><ele>615.0</ele><time>2026-04-11T11:22:22Z</time></trkpt><trkpt lat="46.26002377258357" lon="13.289726717097247"><ele>615.0</ele><time>2026-04-11T11:22:23Z</time></trkpt><trkpt lat="46.26009835381133" lon="13.289807005805756"><ele>620.25</ele><time>2026-04-11T11:22:24Z</time></trkpt><trkpt lat="46.26020014336396" lon="13.289840875606135"><ele>625.5</ele><time>2026-04-11T11:22:25Z</time></trkpt><trkpt lat="46.26032917471221" lon="13.289860702777224"><ele>630.75</ele><time>2026-04-11T11:22:26Z</time></trkpt><trkpt lat="46.26046324015637" lon="13.289901677438406"><ele>636.0</ele><time>2026-04-11T11:22:27Z</time></trkpt><trkpt lat="46.260605752779576" lon="13.289895094564171"><ele>636.5</ele><time>2026-04-11T11:22:28Z</time></trkpt><trkpt lat="46.26074803801351" lon="13.289911693543063"><ele>637.0</ele><time>2026-04-11T11:22:29Z</time></trkpt><trkpt lat="46.2608848149075" lon="13.289899027520239"><ele>637.5</ele><time>2026-04-11T11:22:30Z</time></trkpt><trkpt lat="46.26104286282246" lon="13.28986927507962"><ele>638.0</ele><time>2026-04-11T11:22:31Z</time></trkpt><trkpt lat="46.261167472032106" lon="13.289853396631013"><ele>638.0</ele><time>2026-04-11T11:22:32Z</time></trkpt><trkpt lat="46.26126685192454" lon="13.289850191342516"><ele>638.0</ele><time>2026-04-11T11:22:33Z</time></trkpt><trkpt lat="46.261368580081886" lon="13.289840411405908"><ele>638.0</ele><time>2026-04-11T11:22:34Z</time></trkpt><trkpt lat="46.26147678514992" lon="13.289907921052476"><ele>638.0</ele><time>2026-04-11T11:22:35Z</time></trkpt><trkpt lat="46.261590279658144" lon="13.28998173390516"><ele>638.0</ele><time>2026-04-11T11:22:36Z</time></trkpt><trkpt lat="46.26172106165865" lon="13.28998060495894"><ele>637.1999999999999</ele><time>2026-04-11T11:22:37Z</time></trkpt><trkpt lat="46.26184522473962" lon="13.289967989459933"><ele>636.4</ele><time>2026-04-11T11:22:38Z</time></trkpt><trkpt lat="46.26194346279762" lon="13.28996076824488"><ele>635.5999999999999</ele><time>2026-04-11T11:22:39Z</time></trkpt><trkpt lat="46.262030851720965" lon="13.28994470829969"><ele>634.8</ele><time>2026-04-11T11:22:40Z</time></trkpt><trkpt lat="46.26211983023005" lon="13.289997149303709"><ele>634.0</ele><time>2026-04-11T11:22:41Z</time></trkpt><trkpt lat="46.26221538894708" lon="13.290078301966304"><ele>630.25</ele><time>2026-04-11T11:22:42Z</time></trkpt><trkpt lat="46.26231986443357" lon="13.29018001687373"><ele>626.5</ele><time>2026-04-11T11:22:43Z</time></trkpt><trkpt lat="46.262440289241916" lon="13.29026581233398"><ele>622.75</ele><time>2026-04-11T11:22:44Z</time></trkpt><trkpt lat="46.26254953290853" lon="13.290374456800047"><ele>619.0</ele><time>2026-04-11T11:22:45Z</time></trkpt><trkpt lat="46.26266967044451" lon="13.290433205280603"><ele>619.0</ele><time>2026-04-11T11:22:46Z</time></trkpt><trkpt lat="46.262795986579164" lon="13.290444844803119"><ele>619.0</ele><time>2026-04-11T11:22:47Z</time></trkpt><trkpt lat="46.26290270586312" lon="13.290505877942207"><ele>619.0</ele><time>2026-04-11T11:22:48Z</time></trkpt><trkpt lat="46.26298183304273" lon="13.290586215567307"><ele>619.0</ele><time>2026-04-11T11:22:49Z</time></trkpt><trkpt lat="46.263052947385" lon="13.290661942069262"><ele>619.0</ele><time>2026-04-11T11:22:50Z</time></trkpt><trkpt lat="46.26313033241794" lon="13.290737705257616"><ele>616.2</ele><time>2026-04-11T11:22:51Z</time></trkpt><trkpt lat="46.26323238634182" lon="13.29076595436678"><ele>613.4</ele><time>2026-04-11T11:22:52Z</time></trkpt><trkpt lat="46.2633315007007" lon="13.290743839342714"><ele>610.6</ele><time>2026-04-11T11:22:53Z</time></trkpt><trkpt lat="46.26342971145992" lon="13.290656543802084"><ele>607.8</ele><time>2026-04-11T11:22:54Z</time></trkpt><trkpt lat="46.26350492630995" lon="13.29052590494062"><ele>605.0</ele><time>2026-04-11T11:22:55Z</time></trkpt><trkpt lat="46.26355195994532" lon="13.290410848367056"><ele>605.0</ele><time>2026-04-11T11:22:56Z</time></trkpt><trkpt lat="46.263613687492644" lon="13.2903399303866"><ele>605.0</ele><time>2026-04-11T11:22:57Z</time></trkpt><trkpt lat="46.26369243906162" lon="13.29027981309805"><ele>605.0</ele><time>2026-04-11T11:22:58Z</time></trkpt><trkpt lat="46.26377348283889" lon="13.29022448251368"><ele>605.0</ele><time>2026-04-11T11:22:59Z</time></trkpt><trkpt lat="46.26385064005334" lon="13.2901764542868"><ele>605.0</ele><time>2026-04-11T11:23:00Z</time></trkpt><trkpt lat="46.26393873028988" lon="13.290152659346893"><ele>605.0</ele><time>2026-04-11T11:23:01Z</time></trkpt><trkpt lat="46.264054447432486" lon="13.290155935900302"><ele>607.5</ele><time>2026-04-11T11:23:02Z</time></trkpt><trkpt lat="46.264183665430906" lon="13.290173498248071"><ele>610.0</ele><time>2026-04-11T11:23:03Z</time></trkpt><trkpt lat="46.26428943622504" lon="13.290186269141122"><ele>612.5</ele><time>2026-04-11T11:23:04Z</time></trkpt><trkpt lat="46.264401857423884" lon="13.290193019033012"><ele>615.0</ele><time>2026-04-11T11:23:05Z</time></trkpt><trkpt lat="46.26451734500171" lon="13.290164648571471"><ele>615.0</ele><time>2026-04-11T11:23:06Z</time></trkpt><trkpt lat="46.26460747414604" lon="13.290125512779928"><ele>615.0</ele><time>2026-04-11T11:23:07Z</time></trkpt><trkpt lat="46.26470194348856" lon="13.290110337966764"><ele>615.0</ele><time>2026-04-11T11:23:08Z</time></trkpt><trkpt lat="46.264822224673516" lon="13.29015321422594"><ele>615.0</ele><time>2026-04-11T11:23:09Z</time></trkpt><trkpt lat="46.26495704787719" lon="13.290219115521134"><ele>614.5</ele><time>2026-04-11T11:23:10Z</time></trkpt><trkpt lat="46.26510838033826" lon="13.290243125018801"><ele>614.0</ele><time>2026-04-11T11:23:11Z</time></trkpt><trkpt lat="46.26525649757711" lon="13.290249911098648"><ele>613.5</ele><time>2026-04-11T11:23:12Z</time></trkpt><trkpt lat="46.265389733061724" lon="13.290267687448253"><ele>613.0</ele><time>2026-04-11T11:23:13Z</time></trkpt><trkpt lat="46.265503741413575" lon="13.290319867378843"><ele>612.0</ele><time>2026-04-11T11:23:14Z</time></trkpt><trkpt lat="46.26564018485823" lon="13.290397679455918"><ele>611.0</ele><time>2026-04-11T11:23:15Z</time></trkpt><trkpt lat="46.26578484666635" lon="13.290481557535365"><ele>610.0</ele><time>2026-04-11T11:23:16Z</time></trkpt><trkpt lat="46.26594080918439" lon="13.290569700648165"><ele>616.3333333333334</ele><time>2026-04-11T11:23:17Z</time></trkpt><trkpt lat="46.266117917286415" lon="13.290673490640842"><ele>622.6666666666666</ele><time>2026-04-11T11:23:18Z</time></trkpt><trkpt lat="46.26631159067007" lon="13.290792727081143"><ele>629.0</ele><time>2026-04-11T11:23:19Z</time></trkpt><trkpt lat="46.266510204317406" lon="13.29091603862332"><ele>629.0</ele><time>2026-04-11T11:23:20Z</time></trkpt><trkpt lat="46.26669151966304" lon="13.291031553373607"><ele>629.0</ele><time>2026-04-11T11:23:21Z</time></trkpt><trkpt lat="46.26685260746753" lon="13.291127132753411"><ele>629.0</ele><time>2026-04-11T11:23:22Z</time></trkpt><trkpt lat="46.2669877672881" lon="13.29119574622283"><ele>629.0</ele><time>2026-04-11T11:23:23Z</time></trkpt><trkpt lat="46.26709706143211" lon="13.291268136639435"><ele>629.0</ele><time>2026-04-11T11:23:24Z</time></trkpt><trkpt lat="46.267198614403924" lon="13.291326988150793"><ele>629.0</ele><time>2026-04-11T11:23:25Z</time></trkpt><trkpt lat="46.26730124761107" lon="13.291373721919104"><ele>629.0</ele><time>2026-04-11T11:23:26Z</time></trkpt><trkpt lat="46.26740379586597" lon="13.291387295455635"><ele>629.0</ele><time>2026-04-11T11:23:27Z</time></trkpt><trkpt lat="46.267506967811116" lon="13.291319148114038"><ele>628.2</ele><time>2026-04-11T11:23:28Z</time></trkpt><trkpt lat="46.2675775303482" lon="13.291175327727565"><ele>627.4</ele><time>2026-04-11T11:23:29Z</time></trkpt><trkpt lat="46.26760775212951" lon="13.291037625820325"><ele>626.6</ele><time>2026-04-11T11:23:30Z</time></trkpt><trkpt lat="46.26764764243935" lon="13.290949409656907"><ele>625.8</ele><time>2026-04-11T11:23:31Z</time></trkpt><trkpt lat="46.26778094907307" lon="13.29090202698214"><ele>625.0</ele><time>2026-04-11T11:23:33Z</time></trkpt><trkpt lat="46.26787475343452" lon="13.290885526618231"><ele>625.0</ele><time>2026-04-11T11:23:34Z</time></trkpt><trkpt lat="46.26795197908447" lon="13.290878060053313"><ele>625.0</ele><time>2026-04-11T11:23:35Z</time></trkpt><trkpt lat="46.26803251401513" lon="13.290883956921"><ele>625.0</ele><time>2026-04-11T11:23:36Z</time></trkpt><trkpt lat="46.26810840151143" lon="13.29097093378892"><ele>625.0</ele><time>2026-04-11T11:23:37Z</time></trkpt><trkpt lat="46.268185761349315" lon="13.291076256589996"><ele>625.0</ele><time>2026-04-11T11:23:38Z</time></trkpt><trkpt lat="46.268269867741466" lon="13.291146770525822"><ele>626.2</ele><time>2026-04-11T11:23:39Z</time></trkpt><trkpt lat="46.26835474990334" lon="13.291179570186422"><ele>627.4</ele><time>2026-04-11T11:23:40Z</time></trkpt><trkpt lat="46.2684648940424" lon="13.291168598231812"><ele>628.6</ele><time>2026-04-11T11:23:41Z</time></trkpt><trkpt lat="46.26858348720696" lon="13.291157734366658"><ele>629.8</ele><time>2026-04-11T11:23:42Z</time></trkpt><trkpt lat="46.26866734637787" lon="13.291140514971337"><ele>631.0</ele><time>2026-04-11T11:23:43Z</time></trkpt><trkpt lat="46.26875108932763" lon="13.291132065740166"><ele>631.0</ele><time>2026-04-11T11:23:44Z</time></trkpt><trkpt lat="46.26884596707677" lon="13.291207251815075"><ele>631.0</ele><time>2026-04-11T11:23:45Z</time></trkpt><trkpt lat="46.268949532501416" lon="13.291291299227028"><ele>631.0</ele><time>2026-04-11T11:23:46Z</time></trkpt><trkpt lat="46.26904274554918" lon="13.29135148843332"><ele>631.0</ele><time>2026-04-11T11:23:47Z</time></trkpt><trkpt lat="46.26914248533049" lon="13.291409112414291"><ele>631.0</ele><time>2026-04-11T11:23:48Z</time></trkpt><trkpt lat="46.2692477442798" lon="13.291469551672305"><ele>628.0</ele><time>2026-04-11T11:23:49Z</time></trkpt><trkpt lat="46.269362654139464" lon="13.291511739831465"><ele>625.0</ele><time>2026-04-11T11:23:50.001Z</time></trkpt><trkpt lat="46.26949549621362" lon="13.291515515402297"><ele>622.0</ele><time>2026-04-11T11:23:51.001Z</time></trkpt><trkpt lat="46.26963782440039" lon="13.291521997244743"><ele>619.0</ele><time>2026-04-11T11:23:52.001Z</time></trkpt><trkpt lat="46.26978591087952" lon="13.291512957942732"><ele>617.0</ele><time>2026-04-11T11:23:53.001Z</time></trkpt><trkpt lat="46.269934571302514" lon="13.291489855417423"><ele>615.0</ele><time>2026-04-11T11:23:54.001Z</time></trkpt><trkpt lat="46.27007733585126" lon="13.291522199019923"><ele>613.0</ele><time>2026-04-11T11:23:55.001Z</time></trkpt><trkpt lat="46.270230592384806" lon="13.291595548810106"><ele>613.0</ele><time>2026-04-11T11:23:56.001Z</time></trkpt><trkpt lat="46.270367084804946" lon="13.291689595318546"><ele>613.0</ele><time>2026-04-11T11:23:57.001Z</time></trkpt><trkpt lat="46.27046398716375" lon="13.29175801569564"><ele>613.0</ele><time>2026-04-11T11:23:58.001Z</time></trkpt><trkpt lat="46.27054935041212" lon="13.291803960295198"><ele>613.0</ele><time>2026-04-11T11:23:59.001Z</time></trkpt><trkpt lat="46.27064750702349" lon="13.291791557768882"><ele>613.0</ele><time>2026-04-11T11:24:00.001Z</time></trkpt><trkpt lat="46.27078025416731" lon="13.291756799005151"><ele>614.75</ele><time>2026-04-11T11:24:01.001Z</time></trkpt><trkpt lat="46.27090743841207" lon="13.291692071262771"><ele>616.5</ele><time>2026-04-11T11:24:02.001Z</time></trkpt><trkpt lat="46.27103229715594" lon="13.291641015668397"><ele>618.25</ele><time>2026-04-11T11:24:03.001Z</time></trkpt><trkpt lat="46.27116602708375" lon="13.291575022459154"><ele>620.0</ele><time>2026-04-11T11:24:04.001Z</time></trkpt><trkpt lat="46.27130846990703" lon="13.291537304407768"><ele>620.0</ele><time>2026-04-11T11:24:05.001Z</time></trkpt><trkpt lat="46.27143784309325" lon="13.291526047085942"><ele>620.0</ele><time>2026-04-11T11:24:06.001Z</time></trkpt><trkpt lat="46.27154231544856" lon="13.29150478148691"><ele>620.0</ele><time>2026-04-11T11:24:07.001Z</time></trkpt><trkpt lat="46.2716429483285" lon="13.291476322079498"><ele>620.0</ele><time>2026-04-11T11:24:08Z</time></trkpt><trkpt lat="46.271750792999505" lon="13.291504389392719"><ele>620.0</ele><time>2026-04-11T11:24:09Z</time></trkpt><trkpt lat="46.27185409958457" lon="13.29156113476705"><ele>620.25</ele><time>2026-04-11T11:24:10Z</time></trkpt><trkpt lat="46.271951393147" lon="13.291647984888444"><ele>620.5</ele><time>2026-04-11T11:24:11Z</time></trkpt><trkpt lat="46.27205248701275" lon="13.291734177464683"><ele>620.75</ele><time>2026-04-11T11:24:12Z</time></trkpt><trkpt lat="46.27215383414204" lon="13.291803636053718"><ele>621.0</ele><time>2026-04-11T11:24:13Z</time></trkpt><trkpt lat="46.272269053253964" lon="13.29183464400431"><ele>621.8</ele><time>2026-04-11T11:24:14Z</time></trkpt><trkpt lat="46.27238742940932" lon="13.291854956472614"><ele>622.6</ele><time>2026-04-11T11:24:15Z</time></trkpt><trkpt lat="46.27247940868947" lon="13.291875004049796"><ele>623.4</ele><time>2026-04-11T11:24:16Z</time></trkpt><trkpt lat="46.27257005099519" lon="13.29188095662872"><ele>624.2</ele><time>2026-04-11T11:24:17Z</time></trkpt><trkpt lat="46.2726562357891" lon="13.291902525538704"><ele>625.0</ele><time>2026-04-11T11:24:18Z</time></trkpt><trkpt lat="46.272732186193494" lon="13.291938006706081"><ele>625.0</ele><time>2026-04-11T11:24:19Z</time></trkpt><trkpt lat="46.272804407924866" lon="13.291954498738377"><ele>625.0</ele><time>2026-04-11T11:24:20Z</time></trkpt><trkpt lat="46.27288462690179" lon="13.291945017621659"><ele>625.0</ele><time>2026-04-11T11:24:21Z</time></trkpt><trkpt lat="46.272973736599745" lon="13.291953494582481"><ele>625.0</ele><time>2026-04-11T11:24:22Z</time></trkpt><trkpt lat="46.273066374281164" lon="13.291900898912488"><ele>625.0</ele><time>2026-04-11T11:24:23Z</time></trkpt><trkpt lat="46.273164048862355" lon="13.291879295076706"><ele>625.0</ele><time>2026-04-11T11:24:24Z</time></trkpt><trkpt lat="46.27327426200964" lon="13.29185605690427"><ele>624.8</ele><time>2026-04-11T11:24:25Z</time></trkpt><trkpt lat="46.27338971687699" lon="13.291836352327001"><ele>624.6</ele><time>2026-04-11T11:24:26Z</time></trkpt><trkpt lat="46.2734937286311" lon="13.29181541431519"><ele>624.4</ele><time>2026-04-11T11:24:27Z</time></trkpt><trkpt lat="46.273593456124004" lon="13.291793322385814"><ele>624.2</ele><time>2026-04-11T11:24:28Z</time></trkpt><trkpt lat="46.273697513623425" lon="13.291796072914686"><ele>624.0</ele><time>2026-04-11T11:24:29Z</time></trkpt><trkpt lat="46.2738042099107" lon="13.291832570764559"><ele>624.0</ele><time>2026-04-11T11:24:30Z</time></trkpt><trkpt lat="46.27391890475454" lon="13.291875058762928"><ele>624.0</ele><time>2026-04-11T11:24:31Z</time></trkpt><trkpt lat="46.27403515758348" lon="13.291927851360787"><ele>624.0</ele><time>2026-04-11T11:24:32Z</time></trkpt><trkpt lat="46.27414778328338" lon="13.291931896591413"><ele>624.0</ele><time>2026-04-11T11:24:33Z</time></trkpt><trkpt lat="46.27425239958607" lon="13.291917235232027"><ele>625.0</ele><time>2026-04-11T11:24:34Z</time></trkpt><trkpt lat="46.27436522816116" lon="13.291868913597401"><ele>626.0</ele><time>2026-04-11T11:24:35Z</time></trkpt><trkpt lat="46.27446845250954" lon="13.291791383678378"><ele>627.0</ele><time>2026-04-11T11:24:36Z</time></trkpt><trkpt lat="46.27456288142201" lon="13.29167691565651"><ele>628.0</ele><time>2026-04-11T11:24:37Z</time></trkpt><trkpt lat="46.27463336315076" lon="13.29153800599516"><ele>624.5</ele><time>2026-04-11T11:24:38Z</time></trkpt><trkpt lat="46.274685995595824" lon="13.291371605163866"><ele>621.0</ele><time>2026-04-11T11:24:39Z</time></trkpt><trkpt lat="46.274686727672055" lon="13.2911746093585"><ele>617.5</ele><time>2026-04-11T11:24:40Z</time></trkpt><trkpt lat="46.274652782236565" lon="13.29098377470396"><ele>614.0</ele><time>2026-04-11T11:24:41Z</time></trkpt><trkpt lat="46.274579084790496" lon="13.290821327811363"><ele>614.0</ele><time>2026-04-11T11:24:42Z</time></trkpt><trkpt lat="46.27451420492783" lon="13.290667027055122"><ele>614.0</ele><time>2026-04-11T11:24:43Z</time></trkpt><trkpt lat="46.274455430996746" lon="13.290522226473444"><ele>614.0</ele><time>2026-04-11T11:24:44Z</time></trkpt><trkpt lat="46.2744048902778" lon="13.290387704420986"><ele>614.0</ele><time>2026-04-11T11:24:45Z</time></trkpt><trkpt lat="46.274359072347934" lon="13.290255982892768"><ele>614.0</ele><time>2026-04-11T11:24:46Z</time></trkpt><trkpt lat="46.27431806637834" lon="13.290102741244059"><ele>612.2</ele><time>2026-04-11T11:24:47Z</time></trkpt><trkpt lat="46.27430554729844" lon="13.289974081754334"><ele>610.4</ele><time>2026-04-11T11:24:48Z</time></trkpt><trkpt lat="46.27428795477243" lon="13.289872705000315"><ele>608.6</ele><time>2026-04-11T11:24:49Z</time></trkpt><trkpt lat="46.274385413324616" lon="13.289757894690307"><ele>606.8</ele><time>2026-04-11T11:24:51Z</time></trkpt><trkpt lat="46.27448915241069" lon="13.28977249140641"><ele>605.0</ele><time>2026-04-11T11:24:52Z</time></trkpt><trkpt lat="46.274603309066656" lon="13.289766330473595"><ele>604.25</ele><time>2026-04-11T11:24:53Z</time></trkpt><trkpt lat="46.274715007827744" lon="13.289684621190023"><ele>603.5</ele><time>2026-04-11T11:24:54Z</time></trkpt><trkpt lat="46.27483816387549" lon="13.289605377145689"><ele>602.75</ele><time>2026-04-11T11:24:55Z</time></trkpt><trkpt lat="46.27494722733462" lon="13.289548074347893"><ele>602.0</ele><time>2026-04-11T11:24:56Z</time></trkpt><trkpt lat="46.27505768693416" lon="13.289482473606471"><ele>602.0</ele><time>2026-04-11T11:24:57Z</time></trkpt><trkpt lat="46.27515092207691" lon="13.289417113819757"><ele>602.0</ele><time>2026-04-11T11:24:58Z</time></trkpt><trkpt lat="46.27523568990935" lon="13.289338385421408"><ele>602.0</ele><time>2026-04-11T11:24:59Z</time></trkpt><trkpt lat="46.27531398871968" lon="13.289210898064066"><ele>602.0</ele><time>2026-04-11T11:25:00Z</time></trkpt><trkpt lat="46.275373801900805" lon="13.289041677489571"><ele>600.4</ele><time>2026-04-11T11:25:01Z</time></trkpt><trkpt lat="46.27543121621633" lon="13.288901408813997"><ele>598.8000000000001</ele><time>2026-04-11T11:25:02Z</time></trkpt><trkpt lat="46.27545383098167" lon="13.288760790902646"><ele>597.2</ele><time>2026-04-11T11:25:03Z</time></trkpt><trkpt lat="46.27548959851148" lon="13.28864525157242"><ele>595.6</ele><time>2026-04-11T11:25:04Z</time></trkpt><trkpt lat="46.27547102035261" lon="13.288478324815918"><ele>594.0</ele><time>2026-04-11T11:25:05Z</time></trkpt><trkpt lat="46.27537212726212" lon="13.288336900156363"><ele>594.0</ele><time>2026-04-11T11:25:06Z</time></trkpt><trkpt lat="46.27528644409882" lon="13.288229545841457"><ele>594.0</ele><time>2026-04-11T11:25:07Z</time></trkpt><trkpt lat="46.27522933679844" lon="13.288144593721446"><ele>594.0</ele><time>2026-04-11T11:25:08Z</time></trkpt><trkpt lat="46.27521118111525" lon="13.28798224269701"><ele>594.0</ele><time>2026-04-11T11:25:10Z</time></trkpt><trkpt lat="46.27527846333484" lon="13.287901742721644"><ele>594.0</ele><time>2026-04-11T11:25:11Z</time></trkpt><trkpt lat="46.275372164699235" lon="13.287852176391322"><ele>593.1666666666666</ele><time>2026-04-11T11:25:12Z</time></trkpt><trkpt lat="46.275446562285104" lon="13.287832893376306"><ele>592.3333333333334</ele><time>2026-04-11T11:25:13Z</time></trkpt><trkpt lat="46.27552406123567" lon="13.287822279381535"><ele>591.5</ele><time>2026-04-11T11:25:14Z</time></trkpt><trkpt lat="46.27559709209366" lon="13.287788354373953"><ele>590.6666666666667</ele><time>2026-04-11T11:25:15Z</time></trkpt><trkpt lat="46.27565701045136" lon="13.287684531647896"><ele>589.8333333333334</ele><time>2026-04-11T11:25:16Z</time></trkpt><trkpt lat="46.27569185769799" lon="13.287532274524349"><ele>589.0</ele><time>2026-04-11T11:25:17Z</time></trkpt><trkpt lat="46.27569992190265" lon="13.28734633841206"><ele>588.25</ele><time>2026-04-11T11:25:18Z</time></trkpt><trkpt lat="46.27567905928209" lon="13.287147486259302"><ele>587.5</ele><time>2026-04-11T11:25:19Z</time></trkpt><trkpt lat="46.275636955014356" lon="13.286978901005066"><ele>586.75</ele><time>2026-04-11T11:25:20Z</time></trkpt><trkpt lat="46.275572518689074" lon="13.2868347293491"><ele>586.0</ele><time>2026-04-11T11:25:21Z</time></trkpt><trkpt lat="46.27547478267379" lon="13.286712904190084"><ele>586.0</ele><time>2026-04-11T11:25:22Z</time></trkpt><trkpt lat="46.27537388367858" lon="13.28661581954656"><ele>586.0</ele><time>2026-04-11T11:25:23Z</time></trkpt><trkpt lat="46.27529054941753" lon="13.2865133591476"><ele>586.0</ele><time>2026-04-11T11:25:24Z</time></trkpt><trkpt lat="46.275242970371174" lon="13.28635222407442"><ele>586.0</ele><time>2026-04-11T11:25:25Z</time></trkpt><trkpt lat="46.2751604019199" lon="13.286215252882386"><ele>587.75</ele><time>2026-04-11T11:25:26Z</time></trkpt><trkpt lat="46.27507849764755" lon="13.286124794443088"><ele>589.5</ele><time>2026-04-11T11:25:27Z</time></trkpt><trkpt lat="46.27501392718093" lon="13.285997783872933"><ele>591.25</ele><time>2026-04-11T11:25:28Z</time></trkpt><trkpt lat="46.27497331734105" lon="13.28582112661364"><ele>593.0</ele><time>2026-04-11T11:25:29Z</time></trkpt><trkpt lat="46.274933386750284" lon="13.285664635553134"><ele>594.4</ele><time>2026-04-11T11:25:30Z</time></trkpt><trkpt lat="46.27487598313574" lon="13.285544515940048"><ele>595.8</ele><time>2026-04-11T11:25:31Z</time></trkpt><trkpt lat="46.274799819039714" lon="13.285455979850186"><ele>597.2</ele><time>2026-04-11T11:25:32Z</time></trkpt><trkpt lat="46.27470674256161" lon="13.28537621046373"><ele>598.6</ele><time>2026-04-11T11:25:33Z</time></trkpt><trkpt lat="46.27460219866871" lon="13.28531725007746"><ele>600.0</ele><time>2026-04-11T11:25:34Z</time></trkpt><trkpt lat="46.27450764216663" lon="13.285273742556802"><ele>594.6</ele><time>2026-04-11T11:25:35Z</time></trkpt><trkpt lat="46.27443075744283" lon="13.285227016385791"><ele>589.2</ele><time>2026-04-11T11:25:36Z</time></trkpt><trkpt lat="46.27437447456728" lon="13.285162457918057"><ele>583.8</ele><time>2026-04-11T11:25:37Z</time></trkpt><trkpt lat="46.27433725979607" lon="13.285030858594983"><ele>578.4</ele><time>2026-04-11T11:25:38Z</time></trkpt><trkpt lat="46.27430064111922" lon="13.284864970862635"><ele>573.0</ele><time>2026-04-11T11:25:39Z</time></trkpt><trkpt lat="46.27423863161592" lon="13.284720144495154"><ele>573.0</ele><time>2026-04-11T11:25:40Z</time></trkpt><trkpt lat="46.274178552091904" lon="13.284594782313677"><ele>573.0</ele><time>2026-04-11T11:25:41Z</time></trkpt><trkpt lat="46.27413739683592" lon="13.284467945174988"><ele>573.0</ele><time>2026-04-11T11:25:42Z</time></trkpt><trkpt lat="46.27411393441776" lon="13.28430367534302"><ele>573.0</ele><time>2026-04-11T11:25:43Z</time></trkpt><trkpt lat="46.274093097639636" lon="13.28413428702978"><ele>573.0</ele><time>2026-04-11T11:25:44Z</time></trkpt><trkpt lat="46.27405406878163" lon="13.283976300970043"><ele>572.8333333333334</ele><time>2026-04-11T11:25:45Z</time></trkpt><trkpt lat="46.27401340049409" lon="13.28385027503052"><ele>572.6666666666666</ele><time>2026-04-11T11:25:46Z</time></trkpt><trkpt lat="46.27397347067095" lon="13.28373813718694"><ele>572.5</ele><time>2026-04-11T11:25:47Z</time></trkpt><trkpt lat="46.27393064793568" lon="13.283647933673938"><ele>572.3333333333333</ele><time>2026-04-11T11:25:48Z</time></trkpt><trkpt lat="46.273951143575395" lon="13.283527914451376"><ele>572.1666666666666</ele><time>2026-04-11T11:25:49Z</time></trkpt><trkpt lat="46.274000075214516" lon="13.28342858093282"><ele>572.0</ele><time>2026-04-11T11:25:50Z</time></trkpt><trkpt lat="46.274076097259154" lon="13.283362273613672"><ele>572.0</ele><time>2026-04-11T11:25:51Z</time></trkpt><trkpt lat="46.274164144254655" lon="13.283351379513661"><ele>572.0</ele><time>2026-04-11T11:25:52Z</time></trkpt><trkpt lat="46.274259142086855" lon="13.283391573242064"><ele>572.0</ele><time>2026-04-11T11:25:53Z</time></trkpt><trkpt lat="46.27436333162368" lon="13.28343428279764"><ele>572.0</ele><time>2026-04-11T11:25:54Z</time></trkpt><trkpt lat="46.27448860990043" lon="13.283463304063561"><ele>572.0</ele><time>2026-04-11T11:25:55Z</time></trkpt><trkpt lat="46.27462133548698" lon="13.283471835629115"><ele>572.0</ele><time>2026-04-11T11:25:56.001Z</time></trkpt><trkpt lat="46.27473119182383" lon="13.283481443377307"><ele>572.0</ele><time>2026-04-11T11:25:57.001Z</time></trkpt><trkpt lat="46.27482634124245" lon="13.283514966073165"><ele>572.0</ele><time>2026-04-11T11:25:58.001Z</time></trkpt><trkpt lat="46.27491181336646" lon="13.283584060423031"><ele>572.0</ele><time>2026-04-11T11:25:59.001Z</time></trkpt><trkpt lat="46.27498734266446" lon="13.283681085267757"><ele>572.0</ele><time>2026-04-11T11:26:00.001Z</time></trkpt><trkpt lat="46.27504683056816" lon="13.28379902555315"><ele>571.6666666666666</ele><time>2026-04-11T11:26:01.001Z</time></trkpt><trkpt lat="46.27509654434489" lon="13.283900974457136"><ele>571.3333333333333</ele><time>2026-04-11T11:26:02.001Z</time></trkpt><trkpt lat="46.27515596717051" lon="13.283965854841476"><ele>571.0</ele><time>2026-04-11T11:26:03.001Z</time></trkpt><trkpt lat="46.27522520466133" lon="13.28400778626875"><ele>570.6666666666666</ele><time>2026-04-11T11:26:04.001Z</time></trkpt><trkpt lat="46.27530232438834" lon="13.284004569337416"><ele>570.3333333333334</ele><time>2026-04-11T11:26:05.001Z</time></trkpt><trkpt lat="46.27539449017903" lon="13.283970855522783"><ele>570.0</ele><time>2026-04-11T11:26:06.001Z</time></trkpt><trkpt lat="46.27548976646958" lon="13.283849200411689"><ele>570.0</ele><time>2026-04-11T11:26:07.001Z</time></trkpt><trkpt lat="46.27558146221792" lon="13.283711541687431"><ele>570.0</ele><time>2026-04-11T11:26:08.001Z</time></trkpt><trkpt lat="46.27566671818678" lon="13.283588173216453"><ele>570.0</ele><time>2026-04-11T11:26:09.001Z</time></trkpt><trkpt lat="46.2757322378918" lon="13.283498952492176"><ele>570.0</ele><time>2026-04-11T11:26:10.001Z</time></trkpt><trkpt lat="46.27579789958088" lon="13.283419972281873"><ele>570.0</ele><time>2026-04-11T11:26:11Z</time></trkpt><trkpt lat="46.27585722981139" lon="13.28335745719607"><ele>568.2</ele><time>2026-04-11T11:26:12Z</time></trkpt><trkpt lat="46.27597399601019" lon="13.28334681713012"><ele>566.4</ele><time>2026-04-11T11:26:14Z</time></trkpt><trkpt lat="46.27603540730695" lon="13.283437547795929"><ele>564.6</ele><time>2026-04-11T11:26:15Z</time></trkpt><trkpt lat="46.27611217031455" lon="13.283553812596931"><ele>562.8</ele><time>2026-04-11T11:26:16Z</time></trkpt><trkpt lat="46.27618972071966" lon="13.28364484317577"><ele>561.0</ele><time>2026-04-11T11:26:17Z</time></trkpt><trkpt lat="46.27625653083917" lon="13.283708411470194"><ele>561.0</ele><time>2026-04-11T11:26:18Z</time></trkpt><trkpt lat="46.27636755433035" lon="13.283818215476836"><ele>561.0</ele><time>2026-04-11T11:26:20Z</time></trkpt><trkpt lat="46.276458603882006" lon="13.28384163127823"><ele>561.0</ele><time>2026-04-11T11:26:21Z</time></trkpt><trkpt lat="46.27655490425183" lon="13.283748692256124"><ele>561.0</ele><time>2026-04-11T11:26:22Z</time></trkpt><trkpt lat="46.276592304982366" lon="13.283563801912056"><ele>560.5</ele><time>2026-04-11T11:26:23Z</time></trkpt><trkpt lat="46.276636919554065" lon="13.283400033316685"><ele>560.0</ele><time>2026-04-11T11:26:24Z</time></trkpt><trkpt lat="46.27668666275576" lon="13.283216703651712"><ele>559.5</ele><time>2026-04-11T11:26:25Z</time></trkpt><trkpt lat="46.27673242181711" lon="13.2830342505555"><ele>559.0</ele><time>2026-04-11T11:26:26Z</time></trkpt><trkpt lat="46.27676660535428" lon="13.282863358640192"><ele>556.0</ele><time>2026-04-11T11:26:27Z</time></trkpt><trkpt lat="46.276798753116935" lon="13.282690977342815"><ele>553.0</ele><time>2026-04-11T11:26:28Z</time></trkpt><trkpt lat="46.27682701499929" lon="13.2825394327016"><ele>550.0</ele><time>2026-04-11T11:26:29Z</time></trkpt><trkpt lat="46.27685050496575" lon="13.282397693193339"><ele>547.0</ele><time>2026-04-11T11:26:30Z</time></trkpt><trkpt lat="46.27685918148158" lon="13.28224671900067"><ele>544.0</ele><time>2026-04-11T11:26:31Z</time></trkpt><trkpt lat="46.27685356019099" lon="13.282108502709962"><ele>540.6</ele><time>2026-04-11T11:26:32Z</time></trkpt><trkpt lat="46.27686942544472" lon="13.28199070201373"><ele>537.2</ele><time>2026-04-11T11:26:33Z</time></trkpt><trkpt lat="46.27689520586421" lon="13.281872557161723"><ele>533.8000000000001</ele><time>2026-04-11T11:26:34Z</time></trkpt><trkpt lat="46.276961599086995" lon="13.281767295188994"><ele>530.4</ele><time>2026-04-11T11:26:35Z</time></trkpt><trkpt lat="46.27705203544549" lon="13.28170100662766"><ele>527.0</ele><time>2026-04-11T11:26:36Z</time></trkpt><trkpt lat="46.2771393714224" lon="13.281668474365361"><ele>527.0</ele><time>2026-04-11T11:26:37Z</time></trkpt><trkpt lat="46.277218184059436" lon="13.281677701743385"><ele>527.0</ele><time>2026-04-11T11:26:38Z</time></trkpt><trkpt lat="46.27729217314399" lon="13.281747964577631"><ele>527.0</ele><time>2026-04-11T11:26:39Z</time></trkpt><trkpt lat="46.277362731897526" lon="13.28180662499901"><ele>527.0</ele><time>2026-04-11T11:26:40Z</time></trkpt><trkpt lat="46.27743835540195" lon="13.281809025485769"><ele>527.0</ele><time>2026-04-11T11:26:41Z</time></trkpt><trkpt lat="46.27751258212623" lon="13.281783191564871"><ele>527.0</ele><time>2026-04-11T11:26:42Z</time></trkpt><trkpt lat="46.27756299117361" lon="13.281625513082824"><ele>530.0</ele><time>2026-04-11T11:26:43Z</time></trkpt><trkpt lat="46.277556805547455" lon="13.281440968631234"><ele>533.0</ele><time>2026-04-11T11:26:44Z</time></trkpt><trkpt lat="46.27753569749299" lon="13.281238982461776"><ele>536.0</ele><time>2026-04-11T11:26:45Z</time></trkpt><trkpt lat="46.277530868389185" lon="13.281057027867439"><ele>539.0</ele><time>2026-04-11T11:26:46Z</time></trkpt><trkpt lat="46.277544934805846" lon="13.28089843613282"><ele>539.0</ele><time>2026-04-11T11:26:47Z</time></trkpt><trkpt lat="46.27756025943571" lon="13.280739451139693"><ele>539.0</ele><time>2026-04-11T11:26:48Z</time></trkpt><trkpt lat="46.277561794603386" lon="13.28058370522867"><ele>539.0</ele><time>2026-04-11T11:26:49Z</time></trkpt><trkpt lat="46.27756148906028" lon="13.280458706400905"><ele>539.0</ele><time>2026-04-11T11:26:50Z</time></trkpt><trkpt lat="46.277578754577355" lon="13.28034429315513"><ele>539.0</ele><time>2026-04-11T11:26:51Z</time></trkpt><trkpt lat="46.27763221107403" lon="13.280242029636405"><ele>539.0</ele><time>2026-04-11T11:26:52Z</time></trkpt><trkpt lat="46.27773019552026" lon="13.280179044516245"><ele>539.0</ele><time>2026-04-11T11:26:53Z</time></trkpt><trkpt lat="46.27785235992386" lon="13.280108312598971"><ele>539.0</ele><time>2026-04-11T11:26:54Z</time></trkpt><trkpt lat="46.277958856094656" lon="13.280074396420934"><ele>539.0</ele><time>2026-04-11T11:26:55Z</time></trkpt><trkpt lat="46.278048461610425" lon="13.280027782190508"><ele>539.0</ele><time>2026-04-11T11:26:56Z</time></trkpt><trkpt lat="46.27813809935085" lon="13.279994909289613"><ele>539.0</ele><time>2026-04-11T11:26:57Z</time></trkpt><trkpt lat="46.278217431393024" lon="13.279969140432254"><ele>539.0</ele><time>2026-04-11T11:26:58Z</time></trkpt><trkpt lat="46.27829298823753" lon="13.279938591719256"><ele>539.0</ele><time>2026-04-11T11:26:59Z</time></trkpt><trkpt lat="46.27835919932219" lon="13.279847421903087"><ele>539.0</ele><time>2026-04-11T11:27:00Z</time></trkpt><trkpt lat="46.278367484670184" lon="13.279679647661466"><ele>539.0</ele><time>2026-04-11T11:27:01Z</time></trkpt><trkpt lat="46.27833061876997" lon="13.279548557347127"><ele>537.2</ele><time>2026-04-11T11:27:02Z</time></trkpt><trkpt lat="46.278206742273724" lon="13.279486072687067"><ele>535.4</ele><time>2026-04-11T11:27:03Z</time></trkpt><trkpt lat="46.278102304618734" lon="13.279409273136778"><ele>533.6</ele><time>2026-04-11T11:27:04Z</time></trkpt><trkpt lat="46.27801986414441" lon="13.27933577592244"><ele>531.8</ele><time>2026-04-11T11:27:05Z</time></trkpt><trkpt lat="46.277957602020884" lon="13.279282810243563"><ele>530.0</ele><time>2026-04-11T11:27:06Z</time></trkpt><trkpt lat="46.27788807916336" lon="13.279138906921615"><ele>527.6666666666666</ele><time>2026-04-11T11:27:08Z</time></trkpt><trkpt lat="46.277885011235064" lon="13.279029372215382"><ele>525.3333333333333</ele><time>2026-04-11T11:27:09Z</time></trkpt><trkpt lat="46.2779095325962" lon="13.278910267902488"><ele>523.0</ele><time>2026-04-11T11:27:10Z</time></trkpt><trkpt lat="46.27795433991554" lon="13.27878053242361"><ele>520.6666666666666</ele><time>2026-04-11T11:27:11Z</time></trkpt><trkpt lat="46.27798914764779" lon="13.278667888016463"><ele>518.3333333333334</ele><time>2026-04-11T11:27:12Z</time></trkpt><trkpt lat="46.27803076105378" lon="13.278574826290603"><ele>516.0</ele><time>2026-04-11T11:27:13Z</time></trkpt><trkpt lat="46.278098687491806" lon="13.278510232403635"><ele>516.25</ele><time>2026-04-11T11:27:14Z</time></trkpt><trkpt lat="46.27819237067511" lon="13.278492637442888"><ele>516.5</ele><time>2026-04-11T11:27:15Z</time></trkpt><trkpt lat="46.27830077658655" lon="13.278539682279384"><ele>516.75</ele><time>2026-04-11T11:27:16Z</time></trkpt><trkpt lat="46.27843087574869" lon="13.278608423997502"><ele>517.0</ele><time>2026-04-11T11:27:17Z</time></trkpt><trkpt lat="46.27858371088459" lon="13.278626356521004"><ele>517.0</ele><time>2026-04-11T11:27:18Z</time></trkpt><trkpt lat="46.278742439020085" lon="13.278612656705715"><ele>517.0</ele><time>2026-04-11T11:27:19Z</time></trkpt><trkpt lat="46.27889825828342" lon="13.278612901576311"><ele>517.0</ele><time>2026-04-11T11:27:20Z</time></trkpt><trkpt lat="46.27903919467489" lon="13.278623553577217"><ele>516.0</ele><time>2026-04-11T11:27:21Z</time></trkpt><trkpt lat="46.27916249775286" lon="13.27864486076608"><ele>515.0</ele><time>2026-04-11T11:27:22Z</time></trkpt><trkpt lat="46.27927516025323" lon="13.278658221133915"><ele>514.0</ele><time>2026-04-11T11:27:23Z</time></trkpt><trkpt lat="46.2793796191261" lon="13.278681702951602"><ele>513.0</ele><time>2026-04-11T11:27:24Z</time></trkpt><trkpt lat="46.27948494052612" lon="13.27868343700266"><ele>512.0</ele><time>2026-04-11T11:27:25Z</time></trkpt><trkpt lat="46.27959069429793" lon="13.278641465938493"><ele>512.0</ele><time>2026-04-11T11:27:26Z</time></trkpt><trkpt lat="46.27967452180602" lon="13.278574961405862"><ele>512.0</ele><time>2026-04-11T11:27:27Z</time></trkpt><trkpt lat="46.279754503707366" lon="13.278523165847586"><ele>512.0</ele><time>2026-04-11T11:27:28Z</time></trkpt><trkpt lat="46.27984198366024" lon="13.27850095316785"><ele>512.0</ele><time>2026-04-11T11:27:29Z</time></trkpt><trkpt lat="46.27992341638927" lon="13.278513698495725"><ele>512.0</ele><time>2026-04-11T11:27:30Z</time></trkpt><trkpt lat="46.28000515877073" lon="13.27859051993355"><ele>513.6</ele><time>2026-04-11T11:27:31Z</time></trkpt><trkpt lat="46.28009001719773" lon="13.278655501034748"><ele>515.2</ele><time>2026-04-11T11:27:32Z</time></trkpt><trkpt lat="46.280184453939555" lon="13.278660238887719"><ele>516.8</ele><time>2026-04-11T11:27:33Z</time></trkpt><trkpt lat="46.28026925058885" lon="13.278579307454866"><ele>518.4</ele><time>2026-04-11T11:27:34Z</time></trkpt><trkpt lat="46.28032158927701" lon="13.278464397217784"><ele>520.0</ele><time>2026-04-11T11:27:35Z</time></trkpt><trkpt lat="46.28034454373497" lon="13.278331108693331"><ele>520.0</ele><time>2026-04-11T11:27:36Z</time></trkpt><trkpt lat="46.28032460150392" lon="13.278190423598728"><ele>520.0</ele><time>2026-04-11T11:27:37Z</time></trkpt><trkpt lat="46.280272048564434" lon="13.27806953618255"><ele>520.0</ele><time>2026-04-11T11:27:38Z</time></trkpt><trkpt lat="46.28021193610494" lon="13.277938124557512"><ele>520.0</ele><time>2026-04-11T11:27:39Z</time></trkpt><trkpt lat="46.280167300874716" lon="13.277830241509864"><ele>520.0</ele><time>2026-04-11T11:27:40Z</time></trkpt><trkpt lat="46.280182317548" lon="13.27766087104091"><ele>516.3333333333334</ele><time>2026-04-11T11:27:41Z</time></trkpt><trkpt lat="46.28018743288278" lon="13.277450485514425"><ele>512.6666666666666</ele><time>2026-04-11T11:27:42Z</time></trkpt><trkpt lat="46.28019052600374" lon="13.277189001203482"><ele>509.0</ele><time>2026-04-11T11:27:43Z</time></trkpt><trkpt lat="46.28019224185339" lon="13.27694390015807"><ele>506.25</ele><time>2026-04-11T11:27:44Z</time></trkpt><trkpt lat="46.28019386558688" lon="13.276749492754178"><ele>503.5</ele><time>2026-04-11T11:27:45Z</time></trkpt><trkpt lat="46.28021826926904" lon="13.276550943749996"><ele>500.75</ele><time>2026-04-11T11:27:46Z</time></trkpt><trkpt lat="46.28023794918599" lon="13.276373299703772"><ele>498.0</ele><time>2026-04-11T11:27:47Z</time></trkpt><trkpt lat="46.28026228302159" lon="13.276218842414822"><ele>498.5</ele><time>2026-04-11T11:27:48Z</time></trkpt><trkpt lat="46.2802812418646" lon="13.276072323205558"><ele>499.0</ele><time>2026-04-11T11:27:49Z</time></trkpt><trkpt lat="46.2802406700836" lon="13.27591020405994"><ele>499.5</ele><time>2026-04-11T11:27:50Z</time></trkpt><trkpt lat="46.28015485937355" lon="13.275746343776392"><ele>500.0</ele><time>2026-04-11T11:27:51Z</time></trkpt><trkpt lat="46.280067424012906" lon="13.275598578159117"><ele>500.0</ele><time>2026-04-11T11:27:52Z</time></trkpt><trkpt lat="46.27997718852621" lon="13.275488655075756"><ele>500.0</ele><time>2026-04-11T11:27:53Z</time></trkpt><trkpt lat="46.27986239749582" lon="13.275410673051704"><ele>500.0</ele><time>2026-04-11T11:27:53.999Z</time></trkpt><trkpt lat="46.27971116256103" lon="13.2753992163331"><ele>500.0</ele><time>2026-04-11T11:27:54.999Z</time></trkpt><trkpt lat="46.27958916967006" lon="13.275383161590616"><ele>499.4</ele><time>2026-04-11T11:27:55.999Z</time></trkpt><trkpt lat="46.279478199044675" lon="13.275368043460778"><ele>498.8</ele><time>2026-04-11T11:27:56.999Z</time></trkpt><trkpt lat="46.27937148800264" lon="13.275351080656387"><ele>498.20000000000005</ele><time>2026-04-11T11:27:57.999Z</time></trkpt><trkpt lat="46.27926670694417" lon="13.27534852880655"><ele>497.6</ele><time>2026-04-11T11:27:58.999Z</time></trkpt><trkpt lat="46.279172504981325" lon="13.275264935442838"><ele>497.0</ele><time>2026-04-11T11:27:59.999Z</time></trkpt><trkpt lat="46.27907240916284" lon="13.275186768453636"><ele>497.0</ele><time>2026-04-11T11:28:00.999Z</time></trkpt><trkpt lat="46.27898561671214" lon="13.27503266106512"><ele>497.0</ele><time>2026-04-11T11:28:02Z</time></trkpt><trkpt lat="46.27890292802208" lon="13.2748525793055"><ele>497.0</ele><time>2026-04-11T11:28:03Z</time></trkpt><trkpt lat="46.278794980108735" lon="13.27466592096946"><ele>494.0</ele><time>2026-04-11T11:28:04Z</time></trkpt><trkpt lat="46.27865909920424" lon="13.274538118732062"><ele>491.0</ele><time>2026-04-11T11:28:05Z</time></trkpt><trkpt lat="46.27854426669277" lon="13.27442539520524"><ele>488.0</ele><time>2026-04-11T11:28:06Z</time></trkpt><trkpt lat="46.27846153144026" lon="13.274292205881402"><ele>485.0</ele><time>2026-04-11T11:28:07Z</time></trkpt><trkpt lat="46.27839275425381" lon="13.274133971015914"><ele>485.0</ele><time>2026-04-11T11:28:08Z</time></trkpt><trkpt lat="46.278317936868916" lon="13.273943113353695"><ele>485.0</ele><time>2026-04-11T11:28:09Z</time></trkpt><trkpt lat="46.27824263943443" lon="13.273758688139814"><ele>485.0</ele><time>2026-04-11T11:28:10Z</time></trkpt><trkpt lat="46.27817544254514" lon="13.273586692174794"><ele>485.0</ele><time>2026-04-11T11:28:11Z</time></trkpt><trkpt lat="46.27811920788402" lon="13.27340988015432"><ele>482.66666666666663</ele><time>2026-04-11T11:28:12Z</time></trkpt><trkpt lat="46.27807169039083" lon="13.273227510208953"><ele>480.33333333333337</ele><time>2026-04-11T11:28:13Z</time></trkpt><trkpt lat="46.278004094142716" lon="13.273025019975558"><ele>478.0</ele><time>2026-04-11T11:28:14Z</time></trkpt><trkpt lat="46.27787189011423" lon="13.272843318587856"><ele>478.0</ele><time>2026-04-11T11:28:15Z</time></trkpt><trkpt lat="46.27774031178877" lon="13.272662446462673"><ele>478.0</ele><time>2026-04-11T11:28:16Z</time></trkpt><trkpt lat="46.27765831233604" lon="13.272482870206067"><ele>478.0</ele><time>2026-04-11T11:28:17Z</time></trkpt><trkpt lat="46.27759549683403" lon="13.27231920191978"><ele>477.79999999999995</ele><time>2026-04-11T11:28:18Z</time></trkpt><trkpt lat="46.27753835911399" lon="13.272187264340028"><ele>477.59999999999997</ele><time>2026-04-11T11:28:19Z</time></trkpt><trkpt lat="46.27748203966702" lon="13.272082671070432"><ele>477.40000000000003</ele><time>2026-04-11T11:28:20Z</time></trkpt><trkpt lat="46.277396662617456" lon="13.272009711033643"><ele>477.20000000000005</ele><time>2026-04-11T11:28:21Z</time></trkpt><trkpt lat="46.27732191433304" lon="13.271915193008157"><ele>477.0</ele><time>2026-04-11T11:28:22Z</time></trkpt><trkpt lat="46.277235149209936" lon="13.271824060254575"><ele>477.0</ele><time>2026-04-11T11:28:23Z</time></trkpt><trkpt lat="46.27712629140897" lon="13.271752527502978"><ele>477.0</ele><time>2026-04-11T11:28:24Z</time></trkpt><trkpt lat="46.27699934750973" lon="13.271685181562546"><ele>477.0</ele><time>2026-04-11T11:28:25Z</time></trkpt><trkpt lat="46.27685570411042" lon="13.271667299386323"><ele>477.0</ele><time>2026-04-11T11:28:26Z</time></trkpt><trkpt lat="46.2767247296717" lon="13.27162835992244"><ele>477.0</ele><time>2026-04-11T11:28:27Z</time></trkpt><trkpt lat="46.27659964130759" lon="13.271568877892218"><ele>477.0</ele><time>2026-04-11T11:28:28Z</time></trkpt><trkpt lat="46.27646998562397" lon="13.271552224689865"><ele>477.0</ele><time>2026-04-11T11:28:29Z</time></trkpt><trkpt lat="46.276340128612205" lon="13.271503126372433"><ele>477.0</ele><time>2026-04-11T11:28:30Z</time></trkpt><trkpt lat="46.27621735458937" lon="13.27142901246537"><ele>478.75</ele><time>2026-04-11T11:28:31Z</time></trkpt><trkpt lat="46.27610957134484" lon="13.271379464258619"><ele>480.5</ele><time>2026-04-11T11:28:32Z</time></trkpt><trkpt lat="46.276008412903785" lon="13.271268166183257"><ele>482.25</ele><time>2026-04-11T11:28:33Z</time></trkpt><trkpt lat="46.27588795053398" lon="13.271157818965396"><ele>484.0</ele><time>2026-04-11T11:28:34Z</time></trkpt><trkpt lat="46.275768697298076" lon="13.271064994880648"><ele>484.0</ele><time>2026-04-11T11:28:35Z</time></trkpt><trkpt lat="46.27566909346414" lon="13.27093383389491"><ele>484.0</ele><time>2026-04-11T11:28:36Z</time></trkpt><trkpt lat="46.275558551323066" lon="13.270823455773765"><ele>484.0</ele><time>2026-04-11T11:28:37Z</time></trkpt><trkpt lat="46.27543470720201" lon="13.270727151422136"><ele>484.0</ele><time>2026-04-11T11:28:38Z</time></trkpt><trkpt lat="46.27533709192362" lon="13.27060137224631"><ele>483.6</ele><time>2026-04-11T11:28:39Z</time></trkpt><trkpt lat="46.27523655354778" lon="13.270527326339431"><ele>483.2</ele><time>2026-04-11T11:28:40Z</time></trkpt><trkpt lat="46.27515316954422" lon="13.27042795307846"><ele>482.80000000000007</ele><time>2026-04-11T11:28:41Z</time></trkpt><trkpt lat="46.27506773545373" lon="13.270332076255887"><ele>482.40000000000003</ele><time>2026-04-11T11:28:42Z</time></trkpt><trkpt lat="46.27497803516823" lon="13.270235873610678"><ele>482.0</ele><time>2026-04-11T11:28:43Z</time></trkpt><trkpt lat="46.2748800788323" lon="13.270164109689077"><ele>482.0</ele><time>2026-04-11T11:28:44Z</time></trkpt><trkpt lat="46.274800098975646" lon="13.270068877946535"><ele>482.00000000000006</ele><time>2026-04-11T11:28:45Z</time></trkpt><trkpt lat="46.2747255163821" lon="13.269970689913873"><ele>482.00000000000006</ele><time>2026-04-11T11:28:46Z</time></trkpt><trkpt lat="46.274670199124465" lon="13.269845976834352"><ele>482.0</ele><time>2026-04-11T11:28:47Z</time></trkpt><trkpt lat="46.274608223150636" lon="13.269713343312244"><ele>482.0</ele><time>2026-04-11T11:28:48Z</time></trkpt><trkpt lat="46.27453568512353" lon="13.269579125689287"><ele>481.5</ele><time>2026-04-11T11:28:49Z</time></trkpt><trkpt lat="46.27447330578161" lon="13.269428355143246"><ele>481.0</ele><time>2026-04-11T11:28:50Z</time></trkpt><trkpt lat="46.27441381797999" lon="13.26928143219416"><ele>480.5</ele><time>2026-04-11T11:28:51Z</time></trkpt><trkpt lat="46.27435109613598" lon="13.269129426953919"><ele>480.0</ele><time>2026-04-11T11:28:52Z</time></trkpt><trkpt lat="46.274288662770594" lon="13.268976382019991"><ele>478.0</ele><time>2026-04-11T11:28:53Z</time></trkpt><trkpt lat="46.27422472562006" lon="13.268825449059845"><ele>476.0</ele><time>2026-04-11T11:28:54Z</time></trkpt><trkpt lat="46.27415380620737" lon="13.2686832938439"><ele>474.0</ele><time>2026-04-11T11:28:55Z</time></trkpt><trkpt lat="46.27406914134194" lon="13.268552472267134"><ele>472.0</ele><time>2026-04-11T11:28:56Z</time></trkpt><trkpt lat="46.27398550443594" lon="13.268407687207509"><ele>471.25</ele><time>2026-04-11T11:28:57Z</time></trkpt><trkpt lat="46.27388347843463" lon="13.268302728766747"><ele>470.5</ele><time>2026-04-11T11:28:58Z</time></trkpt><trkpt lat="46.27380360759058" lon="13.268164341988339"><ele>469.75</ele><time>2026-04-11T11:28:59Z</time></trkpt><trkpt lat="46.273706023429305" lon="13.26806086159153"><ele>469.0</ele><time>2026-04-11T11:29:00Z</time></trkpt><trkpt lat="46.27362323393375" lon="13.267937385767612"><ele>466.5</ele><time>2026-04-11T11:29:01Z</time></trkpt><trkpt lat="46.27354042187993" lon="13.267817680884942"><ele>464.0</ele><time>2026-04-11T11:29:02Z</time></trkpt><trkpt lat="46.27345071299113" lon="13.267707400088025"><ele>461.5</ele><time>2026-04-11T11:29:03Z</time></trkpt><trkpt lat="46.273350522863716" lon="13.26761689934972"><ele>459.0</ele><time>2026-04-11T11:29:04Z</time></trkpt><trkpt lat="46.273229085392614" lon="13.267563820373674"><ele>456.5</ele><time>2026-04-11T11:29:05Z</time></trkpt><trkpt lat="46.27308208189648" lon="13.26752172756542"><ele>454.0</ele><time>2026-04-11T11:29:06Z</time></trkpt><trkpt lat="46.27293992211131" lon="13.267475831078105"><ele>451.5</ele><time>2026-04-11T11:29:07Z</time></trkpt><trkpt lat="46.272795713649586" lon="13.26742587796268"><ele>449.0</ele><time>2026-04-11T11:29:08Z</time></trkpt><trkpt lat="46.27263489305236" lon="13.267373755699428"><ele>449.0</ele><time>2026-04-11T11:29:09Z</time></trkpt><trkpt lat="46.272454281415015" lon="13.267310264389168"><ele>449.0</ele><time>2026-04-11T11:29:10Z</time></trkpt><trkpt lat="46.27226890779694" lon="13.26722081895578"><ele>449.0</ele><time>2026-04-11T11:29:11Z</time></trkpt><trkpt lat="46.27206627194645" lon="13.26715114566352"><ele>443.0</ele><time>2026-04-11T11:29:12Z</time></trkpt><trkpt lat="46.271848555001284" lon="13.26709577291134"><ele>437.0</ele><time>2026-04-11T11:29:13Z</time></trkpt><trkpt lat="46.27162233831462" lon="13.267049287187382"><ele>437.66666666666663</ele><time>2026-04-11T11:29:14Z</time></trkpt><trkpt lat="46.271408277256214" lon="13.267013370437915"><ele>438.33333333333337</ele><time>2026-04-11T11:29:15Z</time></trkpt><trkpt lat="46.27121134833961" lon="13.266981599493441"><ele>439.0</ele><time>2026-04-11T11:29:16Z</time></trkpt><trkpt lat="46.271029687706445" lon="13.26695188320712"><ele>439.0</ele><time>2026-04-11T11:29:17Z</time></trkpt><trkpt lat="46.27085236755357" lon="13.26691133803139"><ele>439.0</ele><time>2026-04-11T11:29:18Z</time></trkpt><trkpt lat="46.270674360836814" lon="13.266858086946236"><ele>439.0</ele><time>2026-04-11T11:29:19Z</time></trkpt><trkpt lat="46.270498370709085" lon="13.266797135317148"><ele>439.0</ele><time>2026-04-11T11:29:20Z</time></trkpt><trkpt lat="46.270332786919724" lon="13.26672920191222"><ele>439.0</ele><time>2026-04-11T11:29:21Z</time></trkpt><trkpt lat="46.27017806820487" lon="13.266660549551954"><ele>439.0</ele><time>2026-04-11T11:29:22Z</time></trkpt><trkpt lat="46.2700184434336" lon="13.266581996398106"><ele>439.0</ele><time>2026-04-11T11:29:23Z</time></trkpt><trkpt lat="46.269846468918935" lon="13.266497693165267"><ele>439.0</ele><time>2026-04-11T11:29:24Z</time></trkpt><trkpt lat="46.26968771183786" lon="13.266424248027832"><ele>439.0</ele><time>2026-04-11T11:29:25Z</time></trkpt><trkpt lat="46.269533220786194" lon="13.266363268888258"><ele>435.0</ele><time>2026-04-11T11:29:26Z</time></trkpt><trkpt lat="46.26937188534913" lon="13.266331698980181"><ele>431.0</ele><time>2026-04-11T11:29:27Z</time></trkpt><trkpt lat="46.26922103785222" lon="13.26631538463514"><ele>427.0</ele><time>2026-04-11T11:29:28Z</time></trkpt><trkpt lat="46.269076833020634" lon="13.266287620341872"><ele>427.0</ele><time>2026-04-11T11:29:29Z</time></trkpt><trkpt lat="46.26894794542151" lon="13.26621602321111"><ele>427.0</ele><time>2026-04-11T11:29:30Z</time></trkpt><trkpt lat="46.26881372893066" lon="13.266078254749324"><ele>427.0</ele><time>2026-04-11T11:29:31Z</time></trkpt><trkpt lat="46.26868535267738" lon="13.265926281052176"><ele>426.25</ele><time>2026-04-11T11:29:32Z</time></trkpt><trkpt lat="46.26856765131236" lon="13.265782299926986"><ele>425.5</ele><time>2026-04-11T11:29:33Z</time></trkpt><trkpt lat="46.26845882724546" lon="13.265650049190167"><ele>424.75</ele><time>2026-04-11T11:29:34Z</time></trkpt><trkpt lat="46.26835670013637" lon="13.265525936987162"><ele>424.0</ele><time>2026-04-11T11:29:35Z</time></trkpt><trkpt lat="46.26825745910061" lon="13.265409346483926"><ele>422.79999999999995</ele><time>2026-04-11T11:29:36Z</time></trkpt><trkpt lat="46.26815720178452" lon="13.265290067921077"><ele>421.59999999999997</ele><time>2026-04-11T11:29:37Z</time></trkpt><trkpt lat="46.2680812015074" lon="13.265175986146492"><ele>420.4</ele><time>2026-04-11T11:29:38Z</time></trkpt><trkpt lat="46.2680222442097" lon="13.265062260314165"><ele>419.2</ele><time>2026-04-11T11:29:39Z</time></trkpt><trkpt lat="46.267995198743876" lon="13.264934131271161"><ele>418.0</ele><time>2026-04-11T11:29:40Z</time></trkpt><trkpt lat="46.2680103549315" lon="13.264754707392761"><ele>415.0</ele><time>2026-04-11T11:29:41Z</time></trkpt><trkpt lat="46.26804426604712" lon="13.26454309112647"><ele>412.0</ele><time>2026-04-11T11:29:42Z</time></trkpt><trkpt lat="46.26807694754306" lon="13.26435700379414"><ele>409.0</ele><time>2026-04-11T11:29:43Z</time></trkpt><trkpt lat="46.2681043890853" lon="13.264189816064041"><ele>406.0</ele><time>2026-04-11T11:29:44Z</time></trkpt><trkpt lat="46.26812771909152" lon="13.264048648655852"><ele>405.1666666666667</ele><time>2026-04-11T11:29:45Z</time></trkpt><trkpt lat="46.26815232872644" lon="13.263919504138373"><ele>404.33333333333337</ele><time>2026-04-11T11:29:46Z</time></trkpt><trkpt lat="46.268166306691384" lon="13.263813400975343"><ele>403.5</ele><time>2026-04-11T11:29:47Z</time></trkpt><trkpt lat="46.26816625121296" lon="13.263706348207226"><ele>402.66666666666663</ele><time>2026-04-11T11:29:48Z</time></trkpt><trkpt lat="46.268121226178316" lon="13.263609610991997"><ele>401.8333333333333</ele><time>2026-04-11T11:29:49Z</time></trkpt><trkpt lat="46.268007870972816" lon="13.263600752813788"><ele>401.0</ele><time>2026-04-11T11:29:50Z</time></trkpt><trkpt lat="46.26791492891932" lon="13.263713771951412"><ele>400.66666666666663</ele><time>2026-04-11T11:29:51Z</time></trkpt><trkpt lat="46.2678338670374" lon="13.263778807287451"><ele>400.3333333333333</ele><time>2026-04-11T11:29:52Z</time></trkpt><trkpt lat="46.26775810858048" lon="13.26382808726981"><ele>400.0</ele><time>2026-04-11T11:29:53Z</time></trkpt><trkpt lat="46.26768520266234" lon="13.26387482175603"><ele>399.66666666666663</ele><time>2026-04-11T11:29:54Z</time></trkpt><trkpt lat="46.26761173708223" lon="13.26390617633549"><ele>399.3333333333333</ele><time>2026-04-11T11:29:54.999Z</time></trkpt><trkpt lat="46.26751382585984" lon="13.263981549814906"><ele>399.0</ele><time>2026-04-11T11:29:56.999Z</time></trkpt><trkpt lat="46.26744966460419" lon="13.263911207519598"><ele>397.0</ele><time>2026-04-11T11:29:58.999Z</time></trkpt><trkpt lat="46.267489069299465" lon="13.263825686701566"><ele>395.0</ele><time>2026-04-11T11:29:59.999Z</time></trkpt><trkpt lat="46.26757993788073" lon="13.263775280278088"><ele>393.0</ele><time>2026-04-11T11:30:00.999Z</time></trkpt><trkpt lat="46.26769612389982" lon="13.2637021593754"><ele>391.0</ele><time>2026-04-11T11:30:01.999Z</time></trkpt><trkpt lat="46.26783893145928" lon="13.26353008156817"><ele>391.0</ele><time>2026-04-11T11:30:02.999Z</time></trkpt><trkpt lat="46.26795971826653" lon="13.263380185430444"><ele>391.0</ele><time>2026-04-11T11:30:03.999Z</time></trkpt><trkpt lat="46.26808564394314" lon="13.263267603916875"><ele>391.0</ele><time>2026-04-11T11:30:04.999Z</time></trkpt><trkpt lat="46.268200123807986" lon="13.263193043577472"><ele>391.0</ele><time>2026-04-11T11:30:05.999Z</time></trkpt><trkpt lat="46.26830747870487" lon="13.26316708975684"><ele>389.50000000000006</ele><time>2026-04-11T11:30:07Z</time></trkpt><trkpt lat="46.26841370191791" lon="13.263187488471251"><ele>388.0</ele><time>2026-04-11T11:30:08Z</time></trkpt><trkpt lat="46.2684963280726" lon="13.263192355198594"><ele>386.5</ele><time>2026-04-11T11:30:09Z</time></trkpt><trkpt lat="46.268551125412124" lon="13.263142432752458"><ele>385.0</ele><time>2026-04-11T11:30:10Z</time></trkpt><trkpt lat="46.26856951199595" lon="13.263043414897213"><ele>383.5</ele><time>2026-04-11T11:30:11Z</time></trkpt><trkpt lat="46.268534387787064" lon="13.26293797732705"><ele>382.0</ele><time>2026-04-11T11:30:12Z</time></trkpt><trkpt lat="46.26843589843193" lon="13.26286822362229"><ele>382.0</ele><time>2026-04-11T11:30:13Z</time></trkpt><trkpt lat="46.26829423466752" lon="13.262845817968488"><ele>382.0</ele><time>2026-04-11T11:30:14Z</time></trkpt><trkpt lat="46.26808539934793" lon="13.262809128738168"><ele>382.0</ele><time>2026-04-11T11:30:15Z</time></trkpt><trkpt lat="46.2678604829969" lon="13.262783176840152"><ele>379.66666666666663</ele><time>2026-04-11T11:30:16Z</time></trkpt><trkpt lat="46.26768487875743" lon="13.262758320115454"><ele>377.3333333333333</ele><time>2026-04-11T11:30:17Z</time></trkpt><trkpt lat="46.26752769117332" lon="13.26273430948841"><ele>375.0</ele><time>2026-04-11T11:30:18Z</time></trkpt><trkpt lat="46.26739200087493" lon="13.262724067841642"><ele>375.0</ele><time>2026-04-11T11:30:19Z</time></trkpt><trkpt lat="46.267281405671014" lon="13.262712307545687"><ele>375.0</ele><time>2026-04-11T11:30:20Z</time></trkpt><trkpt lat="46.26717825655045" lon="13.262669921837878"><ele>375.0</ele><time>2026-04-11T11:30:21Z</time></trkpt><trkpt lat="46.267082471754954" lon="13.26258887971769"><ele>375.0</ele><time>2026-04-11T11:30:22Z</time></trkpt><trkpt lat="46.26701802797965" lon="13.26250774793384"><ele>375.0</ele><time>2026-04-11T11:30:23Z</time></trkpt><trkpt lat="46.26702561611227" lon="13.262366590398104"><ele>375.0</ele><time>2026-04-11T11:30:25Z</time></trkpt><trkpt lat="46.26708098879791" lon="13.262301649858522"><ele>375.0</ele><time>2026-04-11T11:30:26Z</time></trkpt><trkpt lat="46.267202482917824" lon="13.262297908293197"><ele>375.0</ele><time>2026-04-11T11:30:27Z</time></trkpt><trkpt lat="46.26734269275745" lon="13.262325643170684"><ele>375.0</ele><time>2026-04-11T11:30:28Z</time></trkpt><trkpt lat="46.26747511622415" lon="13.26234074082648"><ele>375.0</ele><time>2026-04-11T11:30:29Z</time></trkpt><trkpt lat="46.26758716698041" lon="13.262358728317263"><ele>375.0</ele><time>2026-04-11T11:30:30Z</time></trkpt><trkpt lat="46.26767458177454" lon="13.262359817729198"><ele>375.0</ele><time>2026-04-11T11:30:31Z</time></trkpt><trkpt lat="46.26777668744294" lon="13.262297280545502"><ele>375.0</ele><time>2026-04-11T11:30:33Z</time></trkpt><trkpt lat="46.2677845926926" lon="13.26218626034716"><ele>375.0</ele><time>2026-04-11T11:30:34Z</time></trkpt><trkpt lat="46.26772006999615" lon="13.262087107016875"><ele>370.5</ele><time>2026-04-11T11:30:35Z</time></trkpt><trkpt lat="46.26761587833244" lon="13.262097197515825"><ele>366.0</ele><time>2026-04-11T11:30:36Z</time></trkpt><trkpt lat="46.26751375663358" lon="13.262073930273221"><ele>361.5</ele><time>2026-04-11T11:30:37Z</time></trkpt><trkpt lat="46.26738478015275" lon="13.262046192498932"><ele>357.0</ele><time>2026-04-11T11:30:38Z</time></trkpt><trkpt lat="46.267250821283284" lon="13.262057795611955"><ele>355.25</ele><time>2026-04-11T11:30:39Z</time></trkpt><trkpt lat="46.267134213247694" lon="13.262031160998887"><ele>353.5</ele><time>2026-04-11T11:30:40Z</time></trkpt><trkpt lat="46.267004246099006" lon="13.261998019464244"><ele>351.75</ele><time>2026-04-11T11:30:41Z</time></trkpt><trkpt lat="46.266877681442836" lon="13.261977588119585"><ele>350.0</ele><time>2026-04-11T11:30:42Z</time></trkpt><trkpt lat="46.266784133742036" lon="13.261977210422971"><ele>350.0</ele><time>2026-04-11T11:30:43Z</time></trkpt><trkpt lat="46.266714104020636" lon="13.261968034145282"><ele>350.0</ele><time>2026-04-11T11:30:44Z</time></trkpt><trkpt lat="46.26665932321321" lon="13.261841533669083"><ele>350.0</ele><time>2026-04-11T11:30:46Z</time></trkpt><trkpt lat="46.26670430371374" lon="13.261758921941428"><ele>350.0</ele><time>2026-04-11T11:30:47Z</time></trkpt><trkpt lat="46.266789963703744" lon="13.261757000049206"><ele>350.0</ele><time>2026-04-11T11:30:48Z</time></trkpt><trkpt lat="46.26690255041679" lon="13.26179667503342"><ele>350.0</ele><time>2026-04-11T11:30:49Z</time></trkpt><trkpt lat="46.26707356896139" lon="13.261807600660726"><ele>350.0</ele><time>2026-04-11T11:30:50Z</time></trkpt><trkpt lat="46.26724938179178" lon="13.2617893146701"><ele>350.0</ele><time>2026-04-11T11:30:51Z</time></trkpt><trkpt lat="46.26738598580081" lon="13.26175400326485"><ele>350.0</ele><time>2026-04-11T11:30:52Z</time></trkpt><trkpt lat="46.26750419404561" lon="13.261722975820698"><ele>350.0</ele><time>2026-04-11T11:30:53Z</time></trkpt><trkpt lat="46.2676113415903" lon="13.261697658102516"><ele>348.8</ele><time>2026-04-11T11:30:54Z</time></trkpt><trkpt lat="46.267697625011486" lon="13.2616630250228"><ele>347.6</ele><time>2026-04-11T11:30:55Z</time></trkpt><trkpt lat="46.267758827295864" lon="13.261616907302491"><ele>346.4</ele><time>2026-04-11T11:30:56Z</time></trkpt><trkpt lat="46.26781174227523" lon="13.261457719675125"><ele>345.2</ele><time>2026-04-11T11:30:58Z</time></trkpt><trkpt lat="46.267737558515165" lon="13.26135494530915"><ele>344.0</ele><time>2026-04-11T11:30:59Z</time></trkpt><trkpt lat="46.26762279766924" lon="13.261426852891574"><ele>344.0</ele><time>2026-04-11T11:31:00Z</time></trkpt><trkpt lat="46.26752108569444" lon="13.261471485258763"><ele>344.0</ele><time>2026-04-11T11:31:01Z</time></trkpt><trkpt lat="46.2674007538811" lon="13.26143519569027"><ele>344.0</ele><time>2026-04-11T11:31:02Z</time></trkpt><trkpt lat="46.267242115659776" lon="13.261389616530273"><ele>344.0</ele><time>2026-04-11T11:31:03Z</time></trkpt><trkpt lat="46.26707749765505" lon="13.261341783687238"><ele>340.33333333333337</ele><time>2026-04-11T11:31:04Z</time></trkpt><trkpt lat="46.266914682777035" lon="13.261294147472357"><ele>336.6666666666667</ele><time>2026-04-11T11:31:05Z</time></trkpt><trkpt lat="46.26676008272933" lon="13.261248004609413"><ele>333.0</ele><time>2026-04-11T11:31:06Z</time></trkpt><trkpt lat="46.266623471829554" lon="13.261205441659037"><ele>333.0</ele><time>2026-04-11T11:31:07Z</time></trkpt><trkpt lat="46.26650383396134" lon="13.261193218790346"><ele>333.0</ele><time>2026-04-11T11:31:08Z</time></trkpt><trkpt lat="46.26640787644141" lon="13.261171584707574"><ele>333.0</ele><time>2026-04-11T11:31:09Z</time></trkpt><trkpt lat="46.26631363131146" lon="13.261190376580906"><ele>333.0</ele><time>2026-04-11T11:31:10Z</time></trkpt><trkpt lat="46.26622598891088" lon="13.261264759510688"><ele>333.0</ele><time>2026-04-11T11:31:11Z</time></trkpt><trkpt lat="46.266169740390694" lon="13.261378091860907"><ele>332.8333333333333</ele><time>2026-04-11T11:31:12Z</time></trkpt><trkpt lat="46.266122257107455" lon="13.26148628093969"><ele>332.6666666666667</ele><time>2026-04-11T11:31:13Z</time></trkpt><trkpt lat="46.26605797817914" lon="13.261545991756279"><ele>332.5</ele><time>2026-04-11T11:31:14Z</time></trkpt><trkpt lat="46.26598892832172" lon="13.261541022866037"><ele>332.33333333333337</ele><time>2026-04-11T11:31:15Z</time></trkpt><trkpt lat="46.26595115636014" lon="13.26143671414372"><ele>332.1666666666667</ele><time>2026-04-11T11:31:16Z</time></trkpt><trkpt lat="46.2658998438623" lon="13.261321756167536"><ele>332.0</ele><time>2026-04-11T11:31:17Z</time></trkpt><trkpt lat="46.26584485449772" lon="13.261180604942226"><ele>331.6</ele><time>2026-04-11T11:31:18Z</time></trkpt><trkpt lat="46.26580252131475" lon="13.261042618804607"><ele>331.20000000000005</ele><time>2026-04-11T11:31:19Z</time></trkpt><trkpt lat="46.265760420084135" lon="13.2608842539475"><ele>330.8</ele><time>2026-04-11T11:31:20Z</time></trkpt><trkpt lat="46.265728615615124" lon="13.260722510047444"><ele>330.4</ele><time>2026-04-11T11:31:21Z</time></trkpt><trkpt lat="46.26569936446894" lon="13.260570644498765"><ele>330.0</ele><time>2026-04-11T11:31:22Z</time></trkpt><trkpt lat="46.26567124679492" lon="13.260435489277642"><ele>329.8333333333333</ele><time>2026-04-11T11:31:23Z</time></trkpt><trkpt lat="46.26563378984699" lon="13.260311889219842"><ele>329.6666666666667</ele><time>2026-04-11T11:31:24Z</time></trkpt><trkpt lat="46.265578056055695" lon="13.260208485912262"><ele>329.5</ele><time>2026-04-11T11:31:25Z</time></trkpt><trkpt lat="46.265519220245665" lon="13.260125449403922"><ele>329.33333333333337</ele><time>2026-04-11T11:31:26Z</time></trkpt><trkpt lat="46.26543404619375" lon="13.260079938865925"><ele>329.1666666666667</ele><time>2026-04-11T11:31:27Z</time></trkpt><trkpt lat="46.265360311303965" lon="13.260042745161565"><ele>329.0</ele><time>2026-04-11T11:31:28Z</time></trkpt><trkpt lat="46.26526069721108" lon="13.260003649448032"><ele>328.4</ele><time>2026-04-11T11:31:30Z</time></trkpt><trkpt lat="46.26521980773332" lon="13.259908962976578"><ele>327.79999999999995</ele><time>2026-04-11T11:31:33Z</time></trkpt><trkpt lat="46.265200416813876" lon="13.25978882965471"><ele>327.20000000000005</ele><time>2026-04-11T11:31:37Z</time></trkpt><trkpt lat="46.26508190081022" lon="13.259817999752743"><ele>326.6</ele><time>2026-04-11T11:31:38Z</time></trkpt><trkpt lat="46.264997399983045" lon="13.259842972879518"><ele>326.0</ele><time>2026-04-11T11:31:39Z</time></trkpt><trkpt lat="46.264890134706505" lon="13.259879700857354"><ele>327.25</ele><time>2026-04-11T11:31:40Z</time></trkpt><trkpt lat="46.264766347835305" lon="13.259942357749695"><ele>328.5</ele><time>2026-04-11T11:31:41Z</time></trkpt><trkpt lat="46.2646217541779" lon="13.259994845510365"><ele>329.75</ele><time>2026-04-11T11:31:42Z</time></trkpt><trkpt lat="46.26448552274433" lon="13.259998687633312"><ele>331.0</ele><time>2026-04-11T11:31:43Z</time></trkpt><trkpt lat="46.26436185245104" lon="13.259982010483135"><ele>331.0</ele><time>2026-04-11T11:31:44Z</time></trkpt><trkpt lat="46.26423726883323" lon="13.259961269658413"><ele>331.0</ele><time>2026-04-11T11:31:45Z</time></trkpt><trkpt lat="46.264123242163215" lon="13.259865872371957"><ele>331.0</ele><time>2026-04-11T11:31:46Z</time></trkpt><trkpt lat="46.264010251772376" lon="13.2597717647749"><ele>331.0</ele><time>2026-04-11T11:31:47Z</time></trkpt><trkpt lat="46.2639011747544" lon="13.259674105069907"><ele>330.0</ele><time>2026-04-11T11:31:48Z</time></trkpt><trkpt lat="46.263785998386595" lon="13.259567995924776"><ele>329.0</ele><time>2026-04-11T11:31:49Z</time></trkpt><trkpt lat="46.26366173459638" lon="13.259453514757539"><ele>328.0</ele><time>2026-04-11T11:31:50Z</time></trkpt><trkpt lat="46.263536763362104" lon="13.259338381839441"><ele>327.0</ele><time>2026-04-11T11:31:51Z</time></trkpt><trkpt lat="46.26341490398621" lon="13.259227487181372"><ele>327.0</ele><time>2026-04-11T11:31:52Z</time></trkpt><trkpt lat="46.263294491805624" lon="13.259131908519615"><ele>327.0</ele><time>2026-04-11T11:31:53Z</time></trkpt><trkpt lat="46.2631607376215" lon="13.259054494528844"><ele>327.0</ele><time>2026-04-11T11:31:54Z</time></trkpt><trkpt lat="46.26301744723078" lon="13.259004803153717"><ele>327.0</ele><time>2026-04-11T11:31:55Z</time></trkpt><trkpt lat="46.262877030209175" lon="13.258967737759754"><ele>326.3333333333333</ele><time>2026-04-11T11:31:55.999Z</time></trkpt><trkpt lat="46.2627231714496" lon="13.25892487073141"><ele>325.66666666666663</ele><time>2026-04-11T11:31:56.999Z</time></trkpt><trkpt lat="46.26255232709633" lon="13.258873561828677"><ele>325.0</ele><time>2026-04-11T11:31:57.999Z</time></trkpt><trkpt lat="46.262403939193334" lon="13.258820789969885"><ele>329.0</ele><time>2026-04-11T11:31:58.999Z</time></trkpt><trkpt lat="46.26226902733824" lon="13.25874543400592"><ele>333.0</ele><time>2026-04-11T11:31:59.999Z</time></trkpt><trkpt lat="46.262132480072324" lon="13.258642012533258"><ele>337.0</ele><time>2026-04-11T11:32:00.999Z</time></trkpt><trkpt lat="46.262020439530325" lon="13.258502768558534"><ele>341.0</ele><time>2026-04-11T11:32:01.999Z</time></trkpt><trkpt lat="46.26192898854039" lon="13.258350913068025"><ele>341.0</ele><time>2026-04-11T11:32:02.999Z</time></trkpt><trkpt lat="46.2618425724526" lon="13.25820213804656"><ele>341.0</ele><time>2026-04-11T11:32:03.999Z</time></trkpt><trkpt lat="46.26176154395697" lon="13.258060931222575"><ele>341.0</ele><time>2026-04-11T11:32:04.999Z</time></trkpt><trkpt lat="46.26168941421216" lon="13.257935232086233"><ele>341.0</ele><time>2026-04-11T11:32:05.999Z</time></trkpt><trkpt lat="46.26162115341636" lon="13.25781790641931"><ele>340.8</ele><time>2026-04-11T11:32:06.999Z</time></trkpt><trkpt lat="46.26155209653556" lon="13.257700379234578"><ele>340.6</ele><time>2026-04-11T11:32:07.999Z</time></trkpt><trkpt lat="46.26148196203473" lon="13.257582891661935"><ele>340.4</ele><time>2026-04-11T11:32:08.999Z</time></trkpt><trkpt lat="46.261424247292446" lon="13.257488001800795"><ele>340.2</ele><time>2026-04-11T11:32:09.999Z</time></trkpt><trkpt lat="46.2613806104093" lon="13.257418770414553"><ele>340.0</ele><time>2026-04-11T11:32:10.999Z</time></trkpt><trkpt lat="46.26130480585191" lon="13.257302464799709"><ele>336.16666666666663</ele><time>2026-04-11T11:32:13Z</time></trkpt><trkpt lat="46.261231082731555" lon="13.257206308605397"><ele>332.3333333333333</ele><time>2026-04-11T11:32:15Z</time></trkpt><trkpt lat="46.26117240134186" lon="13.257147235407224"><ele>328.5</ele><time>2026-04-11T11:32:17Z</time></trkpt><trkpt lat="46.26111982155871" lon="13.257093257389755"><ele>324.6666666666667</ele><time>2026-04-11T11:32:20Z</time></trkpt><trkpt lat="46.26109014639457" lon="13.257009928885923"><ele>320.83333333333337</ele><time>2026-04-11T11:33:02Z</time></trkpt><trkpt lat="46.26117237388289" lon="13.256889921738534"><ele>317.0</ele><time>2026-04-11T11:33:03Z</time></trkpt><trkpt lat="46.26124045812697" lon="13.256751650054813"><ele>317.0</ele><time>2026-04-11T11:33:05Z</time></trkpt><trkpt lat="46.26128175744104" lon="13.256667775669037"><ele>317.0</ele><time>2026-04-11T11:33:06Z</time></trkpt><trkpt lat="46.26132182144415" lon="13.25658638100822"><ele>317.0</ele><time>2026-04-11T11:33:07Z</time></trkpt><trkpt lat="46.261359523069224" lon="13.256509622309876"><ele>317.0</ele><time>2026-04-11T11:33:08Z</time></trkpt><trkpt lat="46.26141595721174" lon="13.256388830993798"><ele>317.0</ele><time>2026-04-11T11:33:10Z</time></trkpt><trkpt lat="46.261446136870546" lon="13.256275543361978"><ele>317.0</ele><time>2026-04-11T11:33:12Z</time></trkpt><trkpt lat="46.26151076791286" lon="13.256191451235795"><ele>316.25</ele><time>2026-04-11T11:33:14Z</time></trkpt><trkpt lat="46.261429080438965" lon="13.255942610506397"><ele>315.5</ele><time>2026-04-11T11:33:17Z</time></trkpt><trkpt lat="46.26136186511348" lon="13.255845113278985"><ele>314.75</ele><time>2026-04-11T11:33:19Z</time></trkpt><trkpt lat="46.261360502818405" lon="13.255725894161468"><ele>314.0</ele><time>2026-04-11T11:33:21Z</time></trkpt><trkpt lat="46.261378253650214" lon="13.255558722594522"><ele>314.0</ele><time>2026-04-11T11:33:23Z</time></trkpt><trkpt lat="46.26143664280905" lon="13.255400737439748"><ele>314.0</ele><time>2026-04-11T11:33:25Z</time></trkpt><trkpt lat="46.261468232574934" lon="13.25532014870583"><ele>314.0</ele><time>2026-04-11T11:33:26Z</time></trkpt><trkpt lat="46.26149896704174" lon="13.255240544505961"><ele>314.0</ele><time>2026-04-11T11:33:27Z</time></trkpt><trkpt lat="46.26155829162282" lon="13.255086890193375"><ele>314.0</ele><time>2026-04-11T11:33:29Z</time></trkpt><trkpt lat="46.26162088421471" lon="13.254924771487397"><ele>314.5</ele><time>2026-04-11T11:33:31Z</time></trkpt><trkpt lat="46.26165397591884" lon="13.254837122792171"><ele>315.0</ele><time>2026-04-11T11:33:32Z</time></trkpt><trkpt lat="46.26168511460651" lon="13.254754174640604"><ele>315.5</ele><time>2026-04-11T11:33:33Z</time></trkpt><trkpt lat="46.26173293575861" lon="13.254614487453434"><ele>316.0</ele><time>2026-04-11T11:33:35Z</time></trkpt><trkpt lat="46.261777150845994" lon="13.254480941995135"><ele>316.5</ele><time>2026-04-11T11:33:37Z</time></trkpt><trkpt lat="46.261822312191576" lon="13.254352529688425"><ele>317.0</ele><time>2026-04-11T11:33:39Z</time></trkpt><trkpt lat="46.26186399807178" lon="13.254253184622316"><ele>317.0</ele><time>2026-04-11T11:33:41Z</time></trkpt><trkpt lat="46.26190725996224" lon="13.25413807621047"><ele>317.0</ele><time>2026-04-11T11:33:43Z</time></trkpt><trkpt lat="46.261967317138264" lon="13.254074045271242"><ele>317.0</ele><time>2026-04-11T11:33:45Z</time></trkpt><trkpt lat="46.26179431314726" lon="13.253905026535243"><ele>317.0</ele><time>2026-04-11T11:34:33Z</time></trkpt><trkpt lat="46.26175784105924" lon="13.253826165697113"><ele>317.0</ele><time>2026-04-11T11:34:51Z</time></trkpt><trkpt lat="46.2618029521303" lon="13.253891161987832"><ele>317.0</ele><time>2026-04-11T11:35:52Z</time></trkpt><trkpt lat="46.26186606037631" lon="13.253924465059765"><ele>317.0</ele><time>2026-04-11T11:36:15.999Z</time></trkpt><trkpt lat="46.261823668138845" lon="13.254012630862903"><ele>317.0</ele><time>2026-04-11T11:36:29Z</time></trkpt><trkpt lat="46.26181889533243" lon="13.254115936333521"><ele>317.0</ele><time>2026-04-11T11:36:31Z</time></trkpt><trkpt lat="46.26181416615239" lon="13.254226633769047"><ele>317.0</ele><time>2026-04-11T11:36:33Z</time></trkpt><trkpt lat="46.26179254846527" lon="13.254337795116024"><ele>317.0</ele><time>2026-04-11T11:36:35Z</time></trkpt><trkpt lat="46.26174981627134" lon="13.254478618926528"><ele>317.0</ele><time>2026-04-11T11:36:37Z</time></trkpt><trkpt lat="46.26171706680603" lon="13.254568383258851"><ele>317.0</ele><time>2026-04-11T11:36:38Z</time></trkpt><trkpt lat="46.26168532001009" lon="13.254670245254557"><ele>317.0</ele><time>2026-04-11T11:36:39Z</time></trkpt><trkpt lat="46.26164553087956" lon="13.254784626703373"><ele>317.0</ele><time>2026-04-11T11:36:40Z</time></trkpt><trkpt lat="46.26159995997507" lon="13.254897655965138"><ele>317.0</ele><time>2026-04-11T11:36:41Z</time></trkpt><trkpt lat="46.26155405796464" lon="13.255009820189828"><ele>317.0</ele><time>2026-04-11T11:36:42Z</time></trkpt><trkpt lat="46.26151079797504" lon="13.255117823614833"><ele>317.0</ele><time>2026-04-11T11:36:43Z</time></trkpt><trkpt lat="46.26147003765407" lon="13.255230556365234"><ele>317.0</ele><time>2026-04-11T11:36:44Z</time></trkpt><trkpt lat="46.26142419921521" lon="13.255352788228976"><ele>317.0</ele><time>2026-04-11T11:36:45Z</time></trkpt><trkpt lat="46.26137553187566" lon="13.255472841371711"><ele>317.0</ele><time>2026-04-11T11:36:46Z</time></trkpt><trkpt lat="46.26133603095664" lon="13.255591296561978"><ele>317.0</ele><time>2026-04-11T11:36:47Z</time></trkpt><trkpt lat="46.26131787488756" lon="13.255697263943864"><ele>317.0</ele><time>2026-04-11T11:36:48Z</time></trkpt><trkpt lat="46.26132351329811" lon="13.255797677342297"><ele>316.8</ele><time>2026-04-11T11:36:49Z</time></trkpt><trkpt lat="46.261367372451176" lon="13.255931190625477"><ele>316.6</ele><time>2026-04-11T11:36:51Z</time></trkpt><trkpt lat="46.26144287634287" lon="13.256009085905282"><ele>316.40000000000003</ele><time>2026-04-11T11:36:53Z</time></trkpt><trkpt lat="46.26147467652576" lon="13.256124262504782"><ele>316.2</ele><time>2026-04-11T11:36:55Z</time></trkpt><trkpt lat="46.26144285086061" lon="13.25624904903549"><ele>316.0</ele><time>2026-04-11T11:36:57Z</time></trkpt><trkpt lat="46.261392776023" lon="13.25639940327977"><ele>316.16666666666663</ele><time>2026-04-11T11:36:59Z</time></trkpt><trkpt lat="46.26135493526" lon="13.25648594576716"><ele>316.3333333333333</ele><time>2026-04-11T11:37:00Z</time></trkpt><trkpt lat="46.26130982007834" lon="13.256569600271414"><ele>316.5</ele><time>2026-04-11T11:37:01Z</time></trkpt><trkpt lat="46.26126363861435" lon="13.256649751379149"><ele>316.6666666666667</ele><time>2026-04-11T11:37:02Z</time></trkpt><trkpt lat="46.261195005391635" lon="13.256778532958231"><ele>316.83333333333337</ele><time>2026-04-11T11:37:04Z</time></trkpt><trkpt lat="46.261142948421345" lon="13.256888225530732"><ele>317.0</ele><time>2026-04-11T11:37:06Z</time></trkpt><trkpt lat="46.26107961009486" lon="13.256988303297497"><ele>317.0</ele><time>2026-04-11T11:37:08Z</time></trkpt><trkpt lat="46.26097832033989" lon="13.25703950540863"><ele>317.0</ele><time>2026-04-11T11:37:10Z</time></trkpt><trkpt lat="46.26090951120988" lon="13.257039090001472"><ele>317.0</ele><time>2026-04-11T11:37:11Z</time></trkpt><trkpt lat="46.26083244487876" lon="13.257045046572589"><ele>317.0</ele><time>2026-04-11T11:37:12Z</time></trkpt><trkpt lat="46.26075342613175" lon="13.257051354754909"><ele>317.0</ele><time>2026-04-11T11:37:13Z</time></trkpt><trkpt lat="46.260670090729185" lon="13.257077274720217"><ele>317.0</ele><time>2026-04-11T11:37:14Z</time></trkpt><trkpt lat="46.26058280075449" lon="13.25710315526947"><ele>317.2</ele><time>2026-04-11T11:37:15Z</time></trkpt><trkpt lat="46.26048968619509" lon="13.257124770573084"><ele>317.4</ele><time>2026-04-11T11:37:16Z</time></trkpt><trkpt lat="46.26039527891036" lon="13.257145388017491"><ele>317.6</ele><time>2026-04-11T11:37:17Z</time></trkpt><trkpt lat="46.26029920355815" lon="13.257170604870394"><ele>317.8</ele><time>2026-04-11T11:37:18Z</time></trkpt><trkpt lat="46.26020057317192" lon="13.257195887808109"><ele>318.0</ele><time>2026-04-11T11:37:19Z</time></trkpt><trkpt lat="46.26009784581669" lon="13.257217999231084"><ele>318.0</ele><time>2026-04-11T11:37:20Z</time></trkpt><trkpt lat="46.25999481733569" lon="13.257241658636943"><ele>318.0</ele><time>2026-04-11T11:37:21Z</time></trkpt><trkpt lat="46.25988963815576" lon="13.25723759379113"><ele>318.0</ele><time>2026-04-11T11:37:22Z</time></trkpt><trkpt lat="46.25978506982744" lon="13.257260180107439"><ele>318.0</ele><time>2026-04-11T11:37:23Z</time></trkpt><trkpt lat="46.25967497657661" lon="13.257283959785333"><ele>318.0</ele><time>2026-04-11T11:37:24Z</time></trkpt><trkpt lat="46.259567047860955" lon="13.25732970793125"><ele>318.4</ele><time>2026-04-11T11:37:25Z</time></trkpt><trkpt lat="46.25945842117666" lon="13.257339690406932"><ele>318.8</ele><time>2026-04-11T11:37:26Z</time></trkpt><trkpt lat="46.25935177040454" lon="13.257368922682096"><ele>319.2</ele><time>2026-04-11T11:37:27Z</time></trkpt><trkpt lat="46.25924947371211" lon="13.257397811761145"><ele>319.6</ele><time>2026-04-11T11:37:28Z</time></trkpt><trkpt lat="46.25914678584311" lon="13.257417253738668"><ele>320.0</ele><time>2026-04-11T11:37:29Z</time></trkpt><trkpt lat="46.25904269642723" lon="13.257439448456378"><ele>318.75</ele><time>2026-04-11T11:37:30Z</time></trkpt><trkpt lat="46.25893434308938" lon="13.257466227134552"><ele>317.5</ele><time>2026-04-11T11:37:31Z</time></trkpt><trkpt lat="46.25881594755512" lon="13.257489966106842"><ele>316.25</ele><time>2026-04-11T11:37:32Z</time></trkpt><trkpt lat="46.25869667195177" lon="13.257514615527679"><ele>315.0</ele><time>2026-04-11T11:37:33Z</time></trkpt><trkpt lat="46.258574203701166" lon="13.25754288382432"><ele>315.0</ele><time>2026-04-11T11:37:34Z</time></trkpt><trkpt lat="46.25845195981879" lon="13.257561777347926"><ele>315.0</ele><time>2026-04-11T11:37:35Z</time></trkpt><trkpt lat="46.258331666139384" lon="13.257568675048548"><ele>315.0</ele><time>2026-04-11T11:37:36Z</time></trkpt><trkpt lat="46.25821543749933" lon="13.257558434120911"><ele>315.0</ele><time>2026-04-11T11:37:37Z</time></trkpt><trkpt lat="46.25810290822246" lon="13.25752283432726"><ele>315.75</ele><time>2026-04-11T11:37:38Z</time></trkpt><trkpt lat="46.25798707600423" lon="13.25744343648265"><ele>316.5</ele><time>2026-04-11T11:37:39Z</time></trkpt><trkpt lat="46.25787251046228" lon="13.257386744059884"><ele>317.25</ele><time>2026-04-11T11:37:40Z</time></trkpt><trkpt lat="46.25777149600908" lon="13.257299207424927"><ele>318.0</ele><time>2026-04-11T11:37:41Z</time></trkpt><trkpt lat="46.25767643579728" lon="13.257193052414841"><ele>316.5</ele><time>2026-04-11T11:37:42Z</time></trkpt><trkpt lat="46.257566682248125" lon="13.257121681203264"><ele>315.0</ele><time>2026-04-11T11:37:43Z</time></trkpt><trkpt lat="46.25745053656698" lon="13.257074195636335"><ele>313.5</ele><time>2026-04-11T11:37:44Z</time></trkpt><trkpt lat="46.25732191339933" lon="13.257057114748209"><ele>312.0</ele><time>2026-04-11T11:37:45Z</time></trkpt><trkpt lat="46.25718508567258" lon="13.257081696197057"><ele>311.5</ele><time>2026-04-11T11:37:46Z</time></trkpt><trkpt lat="46.2570427794379" lon="13.257069608580482"><ele>311.0</ele><time>2026-04-11T11:37:47Z</time></trkpt><trkpt lat="46.25689540378938" lon="13.257083356637429"><ele>310.5</ele><time>2026-04-11T11:37:48Z</time></trkpt><trkpt lat="46.25675671647579" lon="13.257094349475969"><ele>310.0</ele><time>2026-04-11T11:37:49Z</time></trkpt><trkpt lat="46.256618317921316" lon="13.257087465420614"><ele>310.0</ele><time>2026-04-11T11:37:50Z</time></trkpt><trkpt lat="46.25647123533584" lon="13.257055186148504"><ele>310.0</ele><time>2026-04-11T11:37:51Z</time></trkpt><trkpt lat="46.25632254365083" lon="13.257013398368148"><ele>310.0</ele><time>2026-04-11T11:37:52Z</time></trkpt><trkpt lat="46.25616886293337" lon="13.256971319050757"><ele>312.5</ele><time>2026-04-11T11:37:53Z</time></trkpt><trkpt lat="46.256019061259806" lon="13.2569336610606"><ele>315.0</ele><time>2026-04-11T11:37:54Z</time></trkpt><trkpt lat="46.25587931280194" lon="13.25689918089021"><ele>317.5</ele><time>2026-04-11T11:37:55Z</time></trkpt><trkpt lat="46.2557430728748" lon="13.256865914032835"><ele>320.0</ele><time>2026-04-11T11:37:56Z</time></trkpt><trkpt lat="46.25560943159566" lon="13.256833376888602"><ele>326.5</ele><time>2026-04-11T11:37:57Z</time></trkpt><trkpt lat="46.25548315847426" lon="13.256802633628729"><ele>333.0</ele><time>2026-04-11T11:37:58Z</time></trkpt><trkpt lat="46.25536172630571" lon="13.256755359141689"><ele>339.5</ele><time>2026-04-11T11:37:59Z</time></trkpt><trkpt lat="46.25525120911057" lon="13.256680563446437"><ele>346.0</ele><time>2026-04-11T11:38:00Z</time></trkpt><trkpt lat="46.25513232558528" lon="13.256617182731384"><ele>346.0</ele><time>2026-04-11T11:38:01Z</time></trkpt><trkpt lat="46.2550284831876" lon="13.256507248834742"><ele>346.0</ele><time>2026-04-11T11:38:02Z</time></trkpt><trkpt lat="46.25490884580409" lon="13.256416381221438"><ele>346.0</ele><time>2026-04-11T11:38:03Z</time></trkpt><trkpt lat="46.25478627541457" lon="13.256337068978999"><ele>346.0</ele><time>2026-04-11T11:38:03.999Z</time></trkpt><trkpt lat="46.2546526768465" lon="13.256278969885566"><ele>344.25</ele><time>2026-04-11T11:38:04.999Z</time></trkpt><trkpt lat="46.254513598292654" lon="13.256251006117884"><ele>342.5</ele><time>2026-04-11T11:38:05.999Z</time></trkpt><trkpt lat="46.25437570796507" lon="13.256235332908375"><ele>340.75</ele><time>2026-04-11T11:38:06.999Z</time></trkpt><trkpt lat="46.254242646770244" lon="13.256223239429737"><ele>339.0</ele><time>2026-04-11T11:38:07.999Z</time></trkpt><trkpt lat="46.254109718889566" lon="13.256210832273998"><ele>339.0</ele><time>2026-04-11T11:38:08.999Z</time></trkpt><trkpt lat="46.253978975731094" lon="13.256197120187643"><ele>339.0</ele><time>2026-04-11T11:38:09.999Z</time></trkpt><trkpt lat="46.25384579095218" lon="13.256203922738724"><ele>339.0</ele><time>2026-04-11T11:38:10.999Z</time></trkpt><trkpt lat="46.25371602464316" lon="13.256163635457709"><ele>339.0</ele><time>2026-04-11T11:38:11.999Z</time></trkpt><trkpt lat="46.253585422144305" lon="13.256142141304634"><ele>346.5</ele><time>2026-04-11T11:38:12.999Z</time></trkpt><trkpt lat="46.25345530845412" lon="13.256111626418013"><ele>354.0</ele><time>2026-04-11T11:38:13.999Z</time></trkpt><trkpt lat="46.2533298250291" lon="13.256076451618387"><ele>361.5</ele><time>2026-04-11T11:38:14.999Z</time></trkpt><trkpt lat="46.253204313081646" lon="13.256030060906694"><ele>369.0</ele><time>2026-04-11T11:38:15.999Z</time></trkpt><trkpt lat="46.25307524737123" lon="13.255973441175792"><ele>369.0</ele><time>2026-04-11T11:38:16.999Z</time></trkpt><trkpt lat="46.25294124960828" lon="13.2559131194717"><ele>369.0</ele><time>2026-04-11T11:38:17.999Z</time></trkpt><trkpt lat="46.25280772589559" lon="13.255851950362846"><ele>369.0</ele><time>2026-04-11T11:38:18.999Z</time></trkpt><trkpt lat="46.25267568718753" lon="13.255800322760004"><ele>369.0</ele><time>2026-04-11T11:38:19.999Z</time></trkpt><trkpt lat="46.252555849841904" lon="13.255732876716687"><ele>369.0</ele><time>2026-04-11T11:38:20.999Z</time></trkpt><trkpt lat="46.2524486677658" lon="13.255670843925593"><ele>369.0</ele><time>2026-04-11T11:38:21.999Z</time></trkpt><trkpt lat="46.2523567554813" lon="13.255573630854094"><ele>369.0</ele><time>2026-04-11T11:38:22.999Z</time></trkpt><trkpt lat="46.25228156198856" lon="13.255445152981148"><ele>369.0</ele><time>2026-04-11T11:38:23.999Z</time></trkpt><trkpt lat="46.252245588928226" lon="13.255282739481112"><ele>368.75</ele><time>2026-04-11T11:38:24.999Z</time></trkpt><trkpt lat="46.25220803602406" lon="13.255111416472786"><ele>368.5</ele><time>2026-04-11T11:38:25.999Z</time></trkpt><trkpt lat="46.252164097057026" lon="13.254947265266079"><ele>368.25</ele><time>2026-04-11T11:38:26.999Z</time></trkpt><trkpt lat="46.25210657808215" lon="13.254780857484098"><ele>368.0</ele><time>2026-04-11T11:38:27.999Z</time></trkpt><trkpt lat="46.252046263876" lon="13.254619629397682"><ele>363.5</ele><time>2026-04-11T11:38:28.999Z</time></trkpt><trkpt lat="46.25198357582016" lon="13.25445620297784"><ele>359.0</ele><time>2026-04-11T11:38:29.999Z</time></trkpt><trkpt lat="46.25191214029543" lon="13.25427757227068"><ele>354.5</ele><time>2026-04-11T11:38:31Z</time></trkpt><trkpt lat="46.251847479434936" lon="13.25408051614505"><ele>350.0</ele><time>2026-04-11T11:38:32Z</time></trkpt><trkpt lat="46.25179525434088" lon="13.253852466569482"><ele>348.6666666666667</ele><time>2026-04-11T11:38:33Z</time></trkpt><trkpt lat="46.251794683334815" lon="13.253579808323627"><ele>347.3333333333333</ele><time>2026-04-11T11:38:34Z</time></trkpt><trkpt lat="46.25173985601562" lon="13.25331407787574"><ele>346.0</ele><time>2026-04-11T11:38:35Z</time></trkpt><trkpt lat="46.25167658071822" lon="13.25307764051755"><ele>345.0</ele><time>2026-04-11T11:38:36Z</time></trkpt><trkpt lat="46.25161714479259" lon="13.252858222663793"><ele>344.0</ele><time>2026-04-11T11:38:37Z</time></trkpt><trkpt lat="46.25155647908171" lon="13.25263426480572"><ele>343.0</ele><time>2026-04-11T11:38:38Z</time></trkpt><trkpt lat="46.251496298653784" lon="13.252412099278917"><ele>351.3333333333333</ele><time>2026-04-11T11:38:39Z</time></trkpt><trkpt lat="46.25143347273054" lon="13.252180166751456"><ele>359.6666666666667</ele><time>2026-04-11T11:38:40Z</time></trkpt><trkpt lat="46.251356782849314" lon="13.25194684691063"><ele>368.0</ele><time>2026-04-11T11:38:41Z</time></trkpt><trkpt lat="46.25129739732974" lon="13.2517242626445"><ele>368.0</ele><time>2026-04-11T11:38:42Z</time></trkpt><trkpt lat="46.25123981563961" lon="13.25152668499967"><ele>368.0</ele><time>2026-04-11T11:38:43Z</time></trkpt><trkpt lat="46.2511888436098" lon="13.251324341867447"><ele>368.0</ele><time>2026-04-11T11:38:44Z</time></trkpt><trkpt lat="46.251085880923426" lon="13.251167340746788"><ele>368.0</ele><time>2026-04-11T11:38:45Z</time></trkpt><trkpt lat="46.25097075374576" lon="13.251005952461352"><ele>365.75</ele><time>2026-04-11T11:38:46Z</time></trkpt><trkpt lat="46.250843221755275" lon="13.250875461679659"><ele>363.5</ele><time>2026-04-11T11:38:47Z</time></trkpt><trkpt lat="46.25071792144923" lon="13.250776758808557"><ele>361.25</ele><time>2026-04-11T11:38:48Z</time></trkpt><trkpt lat="46.25058216994993" lon="13.250700844682575"><ele>359.0</ele><time>2026-04-11T11:38:49Z</time></trkpt><trkpt lat="46.250429325750794" lon="13.250678862616038"><ele>347.6666666666667</ele><time>2026-04-11T11:38:50Z</time></trkpt><trkpt lat="46.25026435342618" lon="13.250690638326665"><ele>336.3333333333333</ele><time>2026-04-11T11:38:51Z</time></trkpt><trkpt lat="46.2501116035432" lon="13.250697613345167"><ele>325.0</ele><time>2026-04-11T11:38:52Z</time></trkpt><trkpt lat="46.24994838126978" lon="13.250685972812818"><ele>326.3333333333333</ele><time>2026-04-11T11:38:53Z</time></trkpt><trkpt lat="46.24977343864907" lon="13.250649043724692"><ele>327.6666666666667</ele><time>2026-04-11T11:38:54Z</time></trkpt><trkpt lat="46.249598118337566" lon="13.25058301526602"><ele>329.0</ele><time>2026-04-11T11:38:55Z</time></trkpt><trkpt lat="46.24942282933177" lon="13.250508131817881"><ele>329.0</ele><time>2026-04-11T11:38:56Z</time></trkpt><trkpt lat="46.24924378221962" lon="13.250427974685369"><ele>329.0</ele><time>2026-04-11T11:38:57Z</time></trkpt><trkpt lat="46.249056756533754" lon="13.25035276596948"><ele>329.0</ele><time>2026-04-11T11:38:58Z</time></trkpt><trkpt lat="46.24887279404864" lon="13.25025092712303"><ele>339.6666666666667</ele><time>2026-04-11T11:38:59Z</time></trkpt><trkpt lat="46.248690437735085" lon="13.25019411026554"><ele>350.3333333333333</ele><time>2026-04-11T11:39:00Z</time></trkpt><trkpt lat="46.24853907006187" lon="13.250076529856717"><ele>361.0</ele><time>2026-04-11T11:39:01Z</time></trkpt><trkpt lat="46.24839470300151" lon="13.249971297127532"><ele>361.0</ele><time>2026-04-11T11:39:02Z</time></trkpt><trkpt lat="46.24826807805713" lon="13.24983168222564"><ele>361.0</ele><time>2026-04-11T11:39:03Z</time></trkpt><trkpt lat="46.24814385996887" lon="13.24966574598727"><ele>361.0</ele><time>2026-04-11T11:39:04Z</time></trkpt><trkpt lat="46.24803073699281" lon="13.249503643741335"><ele>361.0</ele><time>2026-04-11T11:39:05Z</time></trkpt><trkpt lat="46.24792825668231" lon="13.2493180297705"><ele>361.0</ele><time>2026-04-11T11:39:06Z</time></trkpt><trkpt lat="46.247832456348476" lon="13.249102454220116"><ele>361.0</ele><time>2026-04-11T11:39:07Z</time></trkpt><trkpt lat="46.24773924180359" lon="13.248866242093369"><ele>361.0</ele><time>2026-04-11T11:39:08Z</time></trkpt><trkpt lat="46.24763641714043" lon="13.248623383944707"><ele>361.0</ele><time>2026-04-11T11:39:09Z</time></trkpt><trkpt lat="46.24751787578329" lon="13.248408025214307"><ele>361.0</ele><time>2026-04-11T11:39:10Z</time></trkpt><trkpt lat="46.24741612656696" lon="13.2482230030814"><ele>356.0</ele><time>2026-04-11T11:39:11Z</time></trkpt><trkpt lat="46.24732654598662" lon="13.24805997166237"><ele>351.0</ele><time>2026-04-11T11:39:12Z</time></trkpt><trkpt lat="46.247238134463025" lon="13.247911275709171"><ele>346.0</ele><time>2026-04-11T11:39:13Z</time></trkpt><trkpt lat="46.24714195709832" lon="13.24778369868817"><ele>341.0</ele><time>2026-04-11T11:39:14Z</time></trkpt><trkpt lat="46.24700114311773" lon="13.247731900882064"><ele>341.0</ele><time>2026-04-11T11:39:15Z</time></trkpt><trkpt lat="46.246863038981644" lon="13.247665322754592"><ele>341.0</ele><time>2026-04-11T11:39:16Z</time></trkpt><trkpt lat="46.246725798095305" lon="13.247606855540816"><ele>341.0</ele><time>2026-04-11T11:39:17Z</time></trkpt><trkpt lat="46.2465945042951" lon="13.24754232984158"><ele>341.0</ele><time>2026-04-11T11:39:18Z</time></trkpt><trkpt lat="46.24645006594599" lon="13.247476022689458"><ele>341.0</ele><time>2026-04-11T11:39:19Z</time></trkpt><trkpt lat="46.24629455538136" lon="13.24737741445307"><ele>341.0</ele><time>2026-04-11T11:39:20Z</time></trkpt><trkpt lat="46.24614455112338" lon="13.247308899934966"><ele>341.0</ele><time>2026-04-11T11:39:21Z</time></trkpt><trkpt lat="46.24601497004912" lon="13.247245865730171"><ele>341.0</ele><time>2026-04-11T11:39:22Z</time></trkpt><trkpt lat="46.245888664341955" lon="13.247183986681463"><ele>341.0</ele><time>2026-04-11T11:39:23Z</time></trkpt><trkpt lat="46.24578091971015" lon="13.247044221234606"><ele>341.0</ele><time>2026-04-11T11:39:24Z</time></trkpt><trkpt lat="46.245703091771034" lon="13.246853558168725"><ele>341.0</ele><time>2026-04-11T11:39:25Z</time></trkpt><trkpt lat="46.24563261285069" lon="13.246636629364003"><ele>354.0</ele><time>2026-04-11T11:39:26Z</time></trkpt><trkpt lat="46.24557023537295" lon="13.246424094626532"><ele>367.0</ele><time>2026-04-11T11:39:27Z</time></trkpt><trkpt lat="46.24551502411267" lon="13.246235976665805"><ele>380.0</ele><time>2026-04-11T11:39:28Z</time></trkpt><trkpt lat="46.245463394852386" lon="13.246026383302256"><ele>380.0</ele><time>2026-04-11T11:39:29Z</time></trkpt><trkpt lat="46.24542042557246" lon="13.24579118962025"><ele>380.0</ele><time>2026-04-11T11:39:30Z</time></trkpt><trkpt lat="46.245419367129905" lon="13.245552295114434"><ele>380.0</ele><time>2026-04-11T11:39:31Z</time></trkpt><trkpt lat="46.245457185227615" lon="13.245354442435065"><ele>375.5</ele><time>2026-04-11T11:39:32Z</time></trkpt><trkpt lat="46.245495022135906" lon="13.245166327450452"><ele>371.0</ele><time>2026-04-11T11:39:33Z</time></trkpt><trkpt lat="46.24550901298183" lon="13.244979831482883"><ele>366.5</ele><time>2026-04-11T11:39:34Z</time></trkpt><trkpt lat="46.24550318843021" lon="13.244771368970621"><ele>362.0</ele><time>2026-04-11T11:39:35Z</time></trkpt><trkpt lat="46.245485410929724" lon="13.244580636639268"><ele>356.25</ele><time>2026-04-11T11:39:36Z</time></trkpt><trkpt lat="46.24542652130864" lon="13.244404949119122"><ele>350.5</ele><time>2026-04-11T11:39:37Z</time></trkpt><trkpt lat="46.24533657786041" lon="13.24425562562111"><ele>344.75</ele><time>2026-04-11T11:39:38Z</time></trkpt><trkpt lat="46.24522823280281" lon="13.244156291417246"><ele>339.0</ele><time>2026-04-11T11:39:39Z</time></trkpt><trkpt lat="46.24509963417248" lon="13.244106112917132"><ele>339.0</ele><time>2026-04-11T11:39:40Z</time></trkpt><trkpt lat="46.24493698034595" lon="13.244121564520324"><ele>339.0</ele><time>2026-04-11T11:39:41Z</time></trkpt><trkpt lat="46.24476368723583" lon="13.244115487600455"><ele>339.0</ele><time>2026-04-11T11:39:42Z</time></trkpt><trkpt lat="46.24460068394689" lon="13.244132756455741"><ele>338.0</ele><time>2026-04-11T11:39:43Z</time></trkpt><trkpt lat="46.24444189010432" lon="13.244149402359081"><ele>337.0</ele><time>2026-04-11T11:39:44Z</time></trkpt><trkpt lat="46.2442801801548" lon="13.24416562855234"><ele>336.0</ele><time>2026-04-11T11:39:45Z</time></trkpt><trkpt lat="46.244139155785206" lon="13.244179535967898"><ele>336.0</ele><time>2026-04-11T11:39:46Z</time></trkpt><trkpt lat="46.244010182213806" lon="13.244190610955894"><ele>336.0</ele><time>2026-04-11T11:39:47Z</time></trkpt><trkpt lat="46.24389702248636" lon="13.24417278217399"><ele>336.0</ele><time>2026-04-11T11:39:48Z</time></trkpt><trkpt lat="46.24379048699268" lon="13.244101375623124"><ele>336.0</ele><time>2026-04-11T11:39:49Z</time></trkpt><trkpt lat="46.243674665654616" lon="13.243972962344866"><ele>333.3333333333333</ele><time>2026-04-11T11:39:50Z</time></trkpt><trkpt lat="46.243547461148644" lon="13.243828165355792"><ele>330.66666666666663</ele><time>2026-04-11T11:39:51Z</time></trkpt><trkpt lat="46.243414473947446" lon="13.243697012505777"><ele>328.0</ele><time>2026-04-11T11:39:52Z</time></trkpt><trkpt lat="46.24328084087605" lon="13.243518808997873"><ele>328.0</ele><time>2026-04-11T11:39:53Z</time></trkpt><trkpt lat="46.2431396125297" lon="13.243329641268694"><ele>328.0</ele><time>2026-04-11T11:39:54Z</time></trkpt><trkpt lat="46.24299479897478" lon="13.243124884023436"><ele>328.0</ele><time>2026-04-11T11:39:55Z</time></trkpt><trkpt lat="46.24284048984636" lon="13.242938607486217"><ele>327.66666666666663</ele><time>2026-04-11T11:39:56Z</time></trkpt><trkpt lat="46.24269430356402" lon="13.242731174682541"><ele>327.3333333333333</ele><time>2026-04-11T11:39:57Z</time></trkpt><trkpt lat="46.242542102404805" lon="13.242516465299902"><ele>327.0</ele><time>2026-04-11T11:39:58Z</time></trkpt><trkpt lat="46.242389008222446" lon="13.242297117381518"><ele>336.0</ele><time>2026-04-11T11:39:59Z</time></trkpt><trkpt lat="46.24223714422253" lon="13.242084468574594"><ele>345.0</ele><time>2026-04-11T11:40:00Z</time></trkpt><trkpt lat="46.242105744666674" lon="13.241851367112634"><ele>354.0</ele><time>2026-04-11T11:40:01Z</time></trkpt><trkpt lat="46.24198520331167" lon="13.24162218130362"><ele>353.0</ele><time>2026-04-11T11:40:02Z</time></trkpt><trkpt lat="46.241867279268334" lon="13.241374713565804"><ele>352.0</ele><time>2026-04-11T11:40:03Z</time></trkpt><trkpt lat="46.241775681952326" lon="13.241086105399285"><ele>351.0</ele><time>2026-04-11T11:40:04Z</time></trkpt><trkpt lat="46.24169893162506" lon="13.240799283718516"><ele>354.6666666666667</ele><time>2026-04-11T11:40:05Z</time></trkpt><trkpt lat="46.24161857429473" lon="13.24052834414037"><ele>358.33333333333337</ele><time>2026-04-11T11:40:06Z</time></trkpt><trkpt lat="46.24153792110847" lon="13.240276701515082"><ele>362.0</ele><time>2026-04-11T11:40:07Z</time></trkpt><trkpt lat="46.2414524788823" lon="13.240033141869601"><ele>362.0</ele><time>2026-04-11T11:40:08Z</time></trkpt><trkpt lat="46.24131336632871" lon="13.239828237827995"><ele>362.0</ele><time>2026-04-11T11:40:09Z</time></trkpt><trkpt lat="46.24119658312013" lon="13.239610481319769"><ele>362.0</ele><time>2026-04-11T11:40:09.999Z</time></trkpt><trkpt lat="46.24111825184658" lon="13.23936435694068"><ele>357.33333333333337</ele><time>2026-04-11T11:40:10.999Z</time></trkpt><trkpt lat="46.24102994035556" lon="13.239110273079321"><ele>352.6666666666667</ele><time>2026-04-11T11:40:11.999Z</time></trkpt><trkpt lat="46.24095167601124" lon="13.238821621356957"><ele>348.0</ele><time>2026-04-11T11:40:12.999Z</time></trkpt><trkpt lat="46.24088161246447" lon="13.238509534762644"><ele>344.3333333333333</ele><time>2026-04-11T11:40:13.999Z</time></trkpt><trkpt lat="46.240800401585055" lon="13.238218787188568"><ele>340.66666666666663</ele><time>2026-04-11T11:40:14.999Z</time></trkpt><trkpt lat="46.240718555827435" lon="13.23792930685369"><ele>337.0</ele><time>2026-04-11T11:40:15.999Z</time></trkpt><trkpt lat="46.240630549909945" lon="13.23762715103298"><ele>336.5</ele><time>2026-04-11T11:40:16.999Z</time></trkpt><trkpt lat="46.24053619697646" lon="13.23731574303453"><ele>336.0</ele><time>2026-04-11T11:40:17.999Z</time></trkpt><trkpt lat="46.240447912224624" lon="13.237025115387718"><ele>336.0</ele><time>2026-04-11T11:40:18.999Z</time></trkpt><trkpt lat="46.24036619652012" lon="13.236756276170508"><ele>336.0</ele><time>2026-04-11T11:40:19.999Z</time></trkpt><trkpt lat="46.24028960907549" lon="13.23650238932198"><ele>336.0</ele><time>2026-04-11T11:40:20.999Z</time></trkpt><trkpt lat="46.24021496692598" lon="13.236257228218582"><ele>324.3333333333333</ele><time>2026-04-11T11:40:21.999Z</time></trkpt><trkpt lat="46.24013704946261" lon="13.236007568585318"><ele>312.66666666666663</ele><time>2026-04-11T11:40:22.999Z</time></trkpt><trkpt lat="46.24005021874358" lon="13.235773693856391"><ele>301.0</ele><time>2026-04-11T11:40:23.999Z</time></trkpt><trkpt lat="46.239962206401096" lon="13.235570816423092"><ele>334.3333333333333</ele><time>2026-04-11T11:40:24.999Z</time></trkpt><trkpt lat="46.239878634806054" lon="13.23537847122068"><ele>367.66666666666663</ele><time>2026-04-11T11:40:25.999Z</time></trkpt><trkpt lat="46.239800826562714" lon="13.235201973062566"><ele>401.0</ele><time>2026-04-11T11:40:26.999Z</time></trkpt><trkpt lat="46.239777578089935" lon="13.234978014911883"><ele>401.0</ele><time>2026-04-11T11:40:27.999Z</time></trkpt><trkpt lat="46.23974613673039" lon="13.234786188070249"><ele>401.0</ele><time>2026-04-11T11:40:28.999Z</time></trkpt><trkpt lat="46.2396981986025" lon="13.23459560257418"><ele>401.0</ele><time>2026-04-11T11:40:29.999Z</time></trkpt><trkpt lat="46.23960383660357" lon="13.234384472066454"><ele>401.0</ele><time>2026-04-11T11:40:30.999Z</time></trkpt><trkpt lat="46.23949795462234" lon="13.234192922416867"><ele>401.0</ele><time>2026-04-11T11:40:31.999Z</time></trkpt><trkpt lat="46.23939345880796" lon="13.234010200975646"><ele>401.0</ele><time>2026-04-11T11:40:32.999Z</time></trkpt><trkpt lat="46.239294233988744" lon="13.233816177657575"><ele>401.0</ele><time>2026-04-11T11:40:33.999Z</time></trkpt><trkpt lat="46.239234970513046" lon="13.233596491188282"><ele>401.0</ele><time>2026-04-11T11:40:34.999Z</time></trkpt><trkpt lat="46.239174227427604" lon="13.233347737046326"><ele>401.0</ele><time>2026-04-11T11:40:35.999Z</time></trkpt><trkpt lat="46.23910441739456" lon="13.23309302504969"><ele>388.3333333333333</ele><time>2026-04-11T11:40:37Z</time></trkpt><trkpt lat="46.23900168583309" lon="13.232855681715876"><ele>375.66666666666663</ele><time>2026-04-11T11:40:38Z</time></trkpt><trkpt lat="46.23889585863067" lon="13.23262221453272"><ele>363.0</ele><time>2026-04-11T11:40:39Z</time></trkpt><trkpt lat="46.23878693029784" lon="13.232386380868672"><ele>348.0</ele><time>2026-04-11T11:40:40Z</time></trkpt><trkpt lat="46.2386809398262" lon="13.232154695223496"><ele>333.0</ele><time>2026-04-11T11:40:41Z</time></trkpt><trkpt lat="46.238575375536385" lon="13.231923526994825"><ele>318.0</ele><time>2026-04-11T11:40:42Z</time></trkpt><trkpt lat="46.23847980518396" lon="13.231714809407746"><ele>318.0</ele><time>2026-04-11T11:40:43Z</time></trkpt><trkpt lat="46.23839316909405" lon="13.23152646456172"><ele>318.0</ele><time>2026-04-11T11:40:44Z</time></trkpt><trkpt lat="46.23832247409437" lon="13.231350018304685"><ele>318.0</ele><time>2026-04-11T11:40:45Z</time></trkpt><trkpt lat="46.23826636780959" lon="13.231180564564257"><ele>318.0</ele><time>2026-04-11T11:40:46Z</time></trkpt><trkpt lat="46.23821233732305" lon="13.231024283134122"><ele>312.0</ele><time>2026-04-11T11:40:47Z</time></trkpt><trkpt lat="46.23815769760477" lon="13.230874065875948"><ele>306.0</ele><time>2026-04-11T11:40:48Z</time></trkpt><trkpt lat="46.23808264696377" lon="13.23071937280873"><ele>300.0</ele><time>2026-04-11T11:40:49Z</time></trkpt><trkpt lat="46.23797993526138" lon="13.230588423992343"><ele>294.0</ele><time>2026-04-11T11:40:50Z</time></trkpt><trkpt lat="46.23784701875377" lon="13.230491826068228"><ele>286.0</ele><time>2026-04-11T11:40:51Z</time></trkpt><trkpt lat="46.23769168076822" lon="13.230426370059305"><ele>278.0</ele><time>2026-04-11T11:40:52Z</time></trkpt><trkpt lat="46.23751186440427" lon="13.230399952518582"><ele>270.0</ele><time>2026-04-11T11:40:53Z</time></trkpt><trkpt lat="46.23731847834" lon="13.230380971892924"><ele>267.0</ele><time>2026-04-11T11:40:54Z</time></trkpt><trkpt lat="46.237127617595235" lon="13.230364254572905"><ele>264.0</ele><time>2026-04-11T11:40:55Z</time></trkpt><trkpt lat="46.236929317940145" lon="13.230360781920933"><ele>261.0</ele><time>2026-04-11T11:40:56Z</time></trkpt><trkpt lat="46.2367252879491" lon="13.230406569843526"><ele>261.0</ele><time>2026-04-11T11:40:57Z</time></trkpt><trkpt lat="46.236514538220824" lon="13.230443599357464"><ele>261.0</ele><time>2026-04-11T11:40:58Z</time></trkpt><trkpt lat="46.23629431612549" lon="13.230482573301726"><ele>261.0</ele><time>2026-04-11T11:40:59Z</time></trkpt><trkpt lat="46.236069019236155" lon="13.230521919781756"><ele>261.0</ele><time>2026-04-11T11:41:00Z</time></trkpt><trkpt lat="46.23585235470449" lon="13.230554342003758"><ele>261.0</ele><time>2026-04-11T11:41:01Z</time></trkpt><trkpt lat="46.23565845580376" lon="13.230587099382058"><ele>261.0</ele><time>2026-04-11T11:41:02Z</time></trkpt><trkpt lat="46.235474783590185" lon="13.230619462315111"><ele>263.6666666666667</ele><time>2026-04-11T11:41:03Z</time></trkpt><trkpt lat="46.23529024626563" lon="13.230619380713703"><ele>266.33333333333337</ele><time>2026-04-11T11:41:04Z</time></trkpt><trkpt lat="46.23512409728578" lon="13.23061917996997"><ele>269.0</ele><time>2026-04-11T11:41:05Z</time></trkpt><trkpt lat="46.23495306847462" lon="13.23058452291762"><ele>269.6666666666667</ele><time>2026-04-11T11:41:06Z</time></trkpt><trkpt lat="46.234777132005476" lon="13.230504379241184"><ele>270.3333333333333</ele><time>2026-04-11T11:41:07Z</time></trkpt><trkpt lat="46.23459012200935" lon="13.23042156260923"><ele>271.0</ele><time>2026-04-11T11:41:08Z</time></trkpt><trkpt lat="46.23441430964316" lon="13.230292296503428"><ele>271.0</ele><time>2026-04-11T11:41:09Z</time></trkpt><trkpt lat="46.23423902051409" lon="13.230190248881422"><ele>271.0</ele><time>2026-04-11T11:41:10Z</time></trkpt><trkpt lat="46.234066830558405" lon="13.230090983914621"><ele>271.0</ele><time>2026-04-11T11:41:11Z</time></trkpt><trkpt lat="46.23390824438001" lon="13.229996790073923"><ele>271.5</ele><time>2026-04-11T11:41:12Z</time></trkpt><trkpt lat="46.23376889836154" lon="13.229914802081856"><ele>272.0</ele><time>2026-04-11T11:41:13Z</time></trkpt><trkpt lat="46.233632272706004" lon="13.22983885863359"><ele>272.5</ele><time>2026-04-11T11:41:14Z</time></trkpt><trkpt lat="46.23350628614271" lon="13.229762053190512"><ele>273.0</ele><time>2026-04-11T11:41:15Z</time></trkpt><trkpt lat="46.23338591921997" lon="13.229657532108034"><ele>272.3333333333333</ele><time>2026-04-11T11:41:16Z</time></trkpt><trkpt lat="46.23325601795734" lon="13.229540665431793"><ele>271.66666666666663</ele><time>2026-04-11T11:41:17Z</time></trkpt><trkpt lat="46.23317372021708" lon="13.229349387135539"><ele>271.0</ele><time>2026-04-11T11:41:18Z</time></trkpt><trkpt lat="46.233069643585" lon="13.229184722304359"><ele>271.0</ele><time>2026-04-11T11:41:19Z</time></trkpt><trkpt lat="46.232933675219066" lon="13.229030177108486"><ele>271.0</ele><time>2026-04-11T11:41:20Z</time></trkpt><trkpt lat="46.23277937443056" lon="13.22890424274995"><ele>271.0</ele><time>2026-04-11T11:41:21Z</time></trkpt><trkpt lat="46.23264607489603" lon="13.228799868596713"><ele>271.0</ele><time>2026-04-11T11:41:22Z</time></trkpt><trkpt lat="46.232509259061786" lon="13.228695747357873"><ele>271.0</ele><time>2026-04-11T11:41:23Z</time></trkpt><trkpt lat="46.23236458417212" lon="13.228593556376772"><ele>271.0</ele><time>2026-04-11T11:41:24Z</time></trkpt><trkpt lat="46.23221381564068" lon="13.228500221829387"><ele>270.0</ele><time>2026-04-11T11:41:25Z</time></trkpt><trkpt lat="46.232056729550436" lon="13.228429976295633"><ele>269.0</ele><time>2026-04-11T11:41:26Z</time></trkpt><trkpt lat="46.23189547205456" lon="13.228368193632862"><ele>268.0</ele><time>2026-04-11T11:41:27Z</time></trkpt><trkpt lat="46.23173060906548" lon="13.228306589525536"><ele>268.0</ele><time>2026-04-11T11:41:28Z</time></trkpt><trkpt lat="46.23158185448649" lon="13.228253049356272"><ele>268.0</ele><time>2026-04-11T11:41:29Z</time></trkpt><trkpt lat="46.23144863186921" lon="13.228201872735141"><ele>268.0</ele><time>2026-04-11T11:41:30Z</time></trkpt><trkpt lat="46.23131311718286" lon="13.228114423667252"><ele>268.0</ele><time>2026-04-11T11:41:31Z</time></trkpt><trkpt lat="46.23119298827906" lon="13.228008505473435"><ele>266.75</ele><time>2026-04-11T11:41:32Z</time></trkpt><trkpt lat="46.23108081967508" lon="13.227901335451667"><ele>265.5</ele><time>2026-04-11T11:41:33Z</time></trkpt><trkpt lat="46.23096230432488" lon="13.227786118713654"><ele>264.25</ele><time>2026-04-11T11:41:34Z</time></trkpt><trkpt lat="46.23084409108273" lon="13.227678330473093"><ele>263.0</ele><time>2026-04-11T11:41:35Z</time></trkpt><trkpt lat="46.230723152743906" lon="13.227594015850338"><ele>264.33333333333337</ele><time>2026-04-11T11:41:36Z</time></trkpt><trkpt lat="46.23058761556423" lon="13.227559674188432"><ele>265.6666666666667</ele><time>2026-04-11T11:41:37Z</time></trkpt><trkpt lat="46.230440505435745" lon="13.227579546183813"><ele>267.0</ele><time>2026-04-11T11:41:38Z</time></trkpt><trkpt lat="46.23027508273065" lon="13.22756685813207"><ele>267.0</ele><time>2026-04-11T11:41:39Z</time></trkpt><trkpt lat="46.23014013059738" lon="13.227568600185593"><ele>267.0</ele><time>2026-04-11T11:41:40Z</time></trkpt><trkpt lat="46.23000744274518" lon="13.22756995899526"><ele>267.0</ele><time>2026-04-11T11:41:41Z</time></trkpt><trkpt lat="46.229864741345395" lon="13.227571420354213"><ele>267.0</ele><time>2026-04-11T11:41:42Z</time></trkpt><trkpt lat="46.22971685668268" lon="13.227596453402759"><ele>267.0</ele><time>2026-04-11T11:41:43Z</time></trkpt><trkpt lat="46.22955694130637" lon="13.22758118438097"><ele>267.0</ele><time>2026-04-11T11:41:44Z</time></trkpt><trkpt lat="46.22939335111129" lon="13.227612398469082"><ele>267.0</ele><time>2026-04-11T11:41:45Z</time></trkpt><trkpt lat="46.229251208058194" lon="13.22764550659303"><ele>267.0</ele><time>2026-04-11T11:41:46Z</time></trkpt><trkpt lat="46.22911369821455" lon="13.227676282597523"><ele>267.0</ele><time>2026-04-11T11:41:47Z</time></trkpt><trkpt lat="46.22898227675864" lon="13.227727718048188"><ele>267.0</ele><time>2026-04-11T11:41:48Z</time></trkpt><trkpt lat="46.22884696058813" lon="13.22773492934307"><ele>267.0</ele><time>2026-04-11T11:41:49Z</time></trkpt><trkpt lat="46.228715702249836" lon="13.227696952501459"><ele>266.3333333333333</ele><time>2026-04-11T11:41:50Z</time></trkpt><trkpt lat="46.22857958975892" lon="13.227639135421809"><ele>265.66666666666663</ele><time>2026-04-11T11:41:51Z</time></trkpt><trkpt lat="46.22844094713406" lon="13.227522659195534"><ele>265.0</ele><time>2026-04-11T11:41:52Z</time></trkpt><trkpt lat="46.22829839475745" lon="13.227380196344077"><ele>262.66666666666663</ele><time>2026-04-11T11:41:53Z</time></trkpt><trkpt lat="46.228160862882625" lon="13.227230536003523"><ele>260.3333333333333</ele><time>2026-04-11T11:41:54Z</time></trkpt><trkpt lat="46.228013804168185" lon="13.227081723090249"><ele>258.0</ele><time>2026-04-11T11:41:55Z</time></trkpt><trkpt lat="46.22785308412216" lon="13.226926610125012"><ele>255.33333333333331</ele><time>2026-04-11T11:41:56Z</time></trkpt><trkpt lat="46.227677821748784" lon="13.22675877093315"><ele>252.66666666666666</ele><time>2026-04-11T11:41:57Z</time></trkpt><trkpt lat="46.22749343338114" lon="13.226582191966836"><ele>250.0</ele><time>2026-04-11T11:41:58Z</time></trkpt><trkpt lat="46.227331892497055" lon="13.226427757371404"><ele>251.0</ele><time>2026-04-11T11:41:59Z</time></trkpt><trkpt lat="46.22718025066352" lon="13.226285436501085"><ele>252.0</ele><time>2026-04-11T11:42:00Z</time></trkpt><trkpt lat="46.227026799680985" lon="13.226147254622013"><ele>253.0</ele><time>2026-04-11T11:42:01Z</time></trkpt><trkpt lat="46.226869799072574" lon="13.22602226170224"><ele>253.0</ele><time>2026-04-11T11:42:02Z</time></trkpt><trkpt lat="46.22669869237367" lon="13.225933381562973"><ele>253.0</ele><time>2026-04-11T11:42:03Z</time></trkpt><trkpt lat="46.22652384678053" lon="13.225857724514082"><ele>253.0</ele><time>2026-04-11T11:42:04Z</time></trkpt><trkpt lat="46.22633861501252" lon="13.22578669311916"><ele>256.0</ele><time>2026-04-11T11:42:05Z</time></trkpt><trkpt lat="46.22615444746433" lon="13.225717091113529"><ele>259.0</ele><time>2026-04-11T11:42:06Z</time></trkpt><trkpt lat="46.22598892183178" lon="13.225653938722736"><ele>262.0</ele><time>2026-04-11T11:42:07Z</time></trkpt><trkpt lat="46.2258285952684" lon="13.225584718589015"><ele>258.3333333333333</ele><time>2026-04-11T11:42:08Z</time></trkpt><trkpt lat="46.225676604621434" lon="13.22549791585047"><ele>254.66666666666669</ele><time>2026-04-11T11:42:09Z</time></trkpt><trkpt lat="46.22552006263314" lon="13.225361786185879"><ele>251.0</ele><time>2026-04-11T11:42:10Z</time></trkpt><trkpt lat="46.22536042407038" lon="13.225211274403517"><ele>251.0</ele><time>2026-04-11T11:42:11Z</time></trkpt><trkpt lat="46.22521918886385" lon="13.225075919228349"><ele>251.0</ele><time>2026-04-11T11:42:12Z</time></trkpt><trkpt lat="46.225068236461254" lon="13.22493558240787"><ele>251.0</ele><time>2026-04-11T11:42:12.999Z</time></trkpt><trkpt lat="46.224921133980864" lon="13.224795909692869"><ele>245.66666666666669</ele><time>2026-04-11T11:42:13.999Z</time></trkpt><trkpt lat="46.22477028638861" lon="13.224672375560061"><ele>240.33333333333331</ele><time>2026-04-11T11:42:14.999Z</time></trkpt><trkpt lat="46.22461932618035" lon="13.224589218029022"><ele>235.0</ele><time>2026-04-11T11:42:15.999Z</time></trkpt><trkpt lat="46.22445286609107" lon="13.224531559140319"><ele>235.0</ele><time>2026-04-11T11:42:16.999Z</time></trkpt><trkpt lat="46.224284901175636" lon="13.224483830774023"><ele>235.0</ele><time>2026-04-11T11:42:17.999Z</time></trkpt><trkpt lat="46.224116238880455" lon="13.224435427520492"><ele>235.0</ele><time>2026-04-11T11:42:18.999Z</time></trkpt><trkpt lat="46.2239544324293" lon="13.224388662875056"><ele>237.0</ele><time>2026-04-11T11:42:19.999Z</time></trkpt><trkpt lat="46.22378840195713" lon="13.22434192127343"><ele>239.0</ele><time>2026-04-11T11:42:20.999Z</time></trkpt><trkpt lat="46.22361985011696" lon="13.224295712175829"><ele>241.0</ele><time>2026-04-11T11:42:21.999Z</time></trkpt><trkpt lat="46.223453188796206" lon="13.224250021412724"><ele>241.0</ele><time>2026-04-11T11:42:22.999Z</time></trkpt><trkpt lat="46.223290870059515" lon="13.224206720321392"><ele>241.0</ele><time>2026-04-11T11:42:23.999Z</time></trkpt><trkpt lat="46.223134532938616" lon="13.2241642153593"><ele>241.0</ele><time>2026-04-11T11:42:24.999Z</time></trkpt><trkpt lat="46.222983190613526" lon="13.224121680092113"><ele>241.0</ele><time>2026-04-11T11:42:25.999Z</time></trkpt><trkpt lat="46.22283308561816" lon="13.224078868925108"><ele>241.0</ele><time>2026-04-11T11:42:26.999Z</time></trkpt><trkpt lat="46.22268110044618" lon="13.224036267519937"><ele>241.0</ele><time>2026-04-11T11:42:27.999Z</time></trkpt><trkpt lat="46.22252424384002" lon="13.223993894503389"><ele>237.0</ele><time>2026-04-11T11:42:28.999Z</time></trkpt><trkpt lat="46.222369797565435" lon="13.22395256901267"><ele>233.0</ele><time>2026-04-11T11:42:29.999Z</time></trkpt><trkpt lat="46.222219289659805" lon="13.2239165952388"><ele>229.0</ele><time>2026-04-11T11:42:30.999Z</time></trkpt><trkpt lat="46.22206994130328" lon="13.22388816292304"><ele>228.5</ele><time>2026-04-11T11:42:31.999Z</time></trkpt><trkpt lat="46.22191879362813" lon="13.223868524660178"><ele>228.0</ele><time>2026-04-11T11:42:32.999Z</time></trkpt><trkpt lat="46.221775153975486" lon="13.223851481819626"><ele>227.5</ele><time>2026-04-11T11:42:33.999Z</time></trkpt><trkpt lat="46.22162774373817" lon="13.223834817501457"><ele>227.0</ele><time>2026-04-11T11:42:34.999Z</time></trkpt><trkpt lat="46.2214787831386" lon="13.223818411947423"><ele>227.0</ele><time>2026-04-11T11:42:35.999Z</time></trkpt><trkpt lat="46.221326510860486" lon="13.223801641673733"><ele>227.0</ele><time>2026-04-11T11:42:36.999Z</time></trkpt><trkpt lat="46.22117333946949" lon="13.22378477237514"><ele>227.0</ele><time>2026-04-11T11:42:37.999Z</time></trkpt><trkpt lat="46.22102151416779" lon="13.223768051294257"><ele>227.0</ele><time>2026-04-11T11:42:38.999Z</time></trkpt><trkpt lat="46.22087086213353" lon="13.223751459488724"><ele>227.0</ele><time>2026-04-11T11:42:39.999Z</time></trkpt><trkpt lat="46.220724358716005" lon="13.22373532454716"><ele>227.0</ele><time>2026-04-11T11:42:40.999Z</time></trkpt><trkpt lat="46.22058364050251" lon="13.22371809276821"><ele>227.0</ele><time>2026-04-11T11:42:41.999Z</time></trkpt><trkpt lat="46.220451389722385" lon="13.223701758191972"><ele>227.0</ele><time>2026-04-11T11:42:43Z</time></trkpt><trkpt lat="46.2203218872586" lon="13.22368576290096"><ele>227.0</ele><time>2026-04-11T11:42:44Z</time></trkpt><trkpt lat="46.22020150780122" lon="13.223670894559332"><ele>227.0</ele><time>2026-04-11T11:42:45Z</time></trkpt><trkpt lat="46.220098087081574" lon="13.223659024923212"><ele>227.0</ele><time>2026-04-11T11:42:46Z</time></trkpt><trkpt lat="46.22000152797449" lon="13.223651882143015"><ele>227.0</ele><time>2026-04-11T11:42:47Z</time></trkpt><trkpt lat="46.21990253808377" lon="13.223650499193866"><ele>227.0</ele><time>2026-04-11T11:42:48Z</time></trkpt><trkpt lat="46.219786314392906" lon="13.223681471929925"><ele>227.0</ele><time>2026-04-11T11:42:49Z</time></trkpt><trkpt lat="46.21966643205604" lon="13.223731803073049"><ele>227.0</ele><time>2026-04-11T11:42:50Z</time></trkpt><trkpt lat="46.21954865312487" lon="13.223774080615092"><ele>226.25</ele><time>2026-04-11T11:42:51Z</time></trkpt><trkpt lat="46.2194303297555" lon="13.223817789287732"><ele>225.5</ele><time>2026-04-11T11:42:52Z</time></trkpt><trkpt lat="46.21930402322788" lon="13.223864521418088"><ele>224.75</ele><time>2026-04-11T11:42:53Z</time></trkpt><trkpt lat="46.21916840704193" lon="13.223915072107973"><ele>224.0</ele><time>2026-04-11T11:42:54Z</time></trkpt><trkpt lat="46.2190335708288" lon="13.223965774491331"><ele>225.25</ele><time>2026-04-11T11:42:55Z</time></trkpt><trkpt lat="46.218898143629275" lon="13.224016699151493"><ele>226.5</ele><time>2026-04-11T11:42:56Z</time></trkpt><trkpt lat="46.218769258956314" lon="13.224065163634068"><ele>227.75</ele><time>2026-04-11T11:42:57Z</time></trkpt><trkpt lat="46.21864626488329" lon="13.224111413087831"><ele>229.0</ele><time>2026-04-11T11:42:58Z</time></trkpt><trkpt lat="46.21852365388689" lon="13.22415751843991"><ele>229.0</ele><time>2026-04-11T11:42:59Z</time></trkpt><trkpt lat="46.218402644187414" lon="13.224203398383297"><ele>229.0</ele><time>2026-04-11T11:43:00Z</time></trkpt><trkpt lat="46.218285543151396" lon="13.224248019786968"><ele>229.0</ele><time>2026-04-11T11:43:01Z</time></trkpt><trkpt lat="46.21817706268943" lon="13.224289356320094"><ele>229.0</ele><time>2026-04-11T11:43:02Z</time></trkpt><trkpt lat="46.21807518846391" lon="13.224328175558835"><ele>228.0</ele><time>2026-04-11T11:43:03Z</time></trkpt><trkpt lat="46.21797061005147" lon="13.224368025267541"><ele>226.99999999999997</ele><time>2026-04-11T11:43:04Z</time></trkpt><trkpt lat="46.21787234812797" lon="13.224405468057045"><ele>225.99999999999997</ele><time>2026-04-11T11:43:05Z</time></trkpt><trkpt lat="46.21777999208675" lon="13.224438059604719"><ele>225.0</ele><time>2026-04-11T11:43:06Z</time></trkpt><trkpt lat="46.21768958112363" lon="13.224469040378482"><ele>224.0</ele><time>2026-04-11T11:43:07Z</time></trkpt><trkpt lat="46.217595001449915" lon="13.224504399535592"><ele>224.0</ele><time>2026-04-11T11:43:08Z</time></trkpt><trkpt lat="46.21749751375346" lon="13.224545207649781"><ele>223.99999999999997</ele><time>2026-04-11T11:43:09Z</time></trkpt><trkpt lat="46.21740140432968" lon="13.224598190550733"><ele>223.99999999999997</ele><time>2026-04-11T11:43:10Z</time></trkpt><trkpt lat="46.2173075225715" lon="13.224661831057315"><ele>224.0</ele><time>2026-04-11T11:43:11Z</time></trkpt><trkpt lat="46.21720995152212" lon="13.224735459242227"><ele>224.0</ele><time>2026-04-11T11:43:12Z</time></trkpt><trkpt lat="46.21710806727982" lon="13.224814684211452"><ele>223.75</ele><time>2026-04-11T11:43:13Z</time></trkpt><trkpt lat="46.21700631095541" lon="13.224894292439332"><ele>223.5</ele><time>2026-04-11T11:43:14Z</time></trkpt><trkpt lat="46.21690071328383" lon="13.224978164581149"><ele>223.25</ele><time>2026-04-11T11:43:15Z</time></trkpt><trkpt lat="46.2167936780526" lon="13.225063142074138"><ele>223.0</ele><time>2026-04-11T11:43:16Z</time></trkpt><trkpt lat="46.21668338230462" lon="13.225148393758717"><ele>223.0</ele><time>2026-04-11T11:43:17Z</time></trkpt><trkpt lat="46.21657001686016" lon="13.225234793461226"><ele>223.0</ele><time>2026-04-11T11:43:18Z</time></trkpt><trkpt lat="46.21645165555653" lon="13.225325000217367"><ele>223.0</ele><time>2026-04-11T11:43:19Z</time></trkpt><trkpt lat="46.216324946476355" lon="13.22542221974228"><ele>223.0</ele><time>2026-04-11T11:43:20Z</time></trkpt><trkpt lat="46.21619084833007" lon="13.2255250391268"><ele>224.0</ele><time>2026-04-11T11:43:21Z</time></trkpt><trkpt lat="46.216052687067915" lon="13.225630973952262"><ele>225.0</ele><time>2026-04-11T11:43:22Z</time></trkpt><trkpt lat="46.21591165137473" lon="13.225739112677486"><ele>226.0</ele><time>2026-04-11T11:43:23Z</time></trkpt><trkpt lat="46.21577480431803" lon="13.225844039794408"><ele>223.33333333333331</ele><time>2026-04-11T11:43:24Z</time></trkpt><trkpt lat="46.21563939003568" lon="13.22594876675314"><ele>220.66666666666669</ele><time>2026-04-11T11:43:25Z</time></trkpt><trkpt lat="46.21550851223471" lon="13.22605053451981"><ele>218.0</ele><time>2026-04-11T11:43:26Z</time></trkpt><trkpt lat="46.21537652839488" lon="13.226153162244092"><ele>218.0</ele><time>2026-04-11T11:43:27Z</time></trkpt><trkpt lat="46.215253296427086" lon="13.226250298092339"><ele>218.0</ele><time>2026-04-11T11:43:28Z</time></trkpt><trkpt lat="46.215142414097464" lon="13.226340953174681"><ele>218.0</ele><time>2026-04-11T11:43:29Z</time></trkpt><trkpt lat="46.21503161062788" lon="13.226432261730102"><ele>218.0</ele><time>2026-04-11T11:43:30Z</time></trkpt><trkpt lat="46.21492019668308" lon="13.226524073375547"><ele>218.5</ele><time>2026-04-11T11:43:31Z</time></trkpt><trkpt lat="46.21481320975327" lon="13.226608748024244"><ele>219.0</ele><time>2026-04-11T11:43:32Z</time></trkpt><trkpt lat="46.21469898477151" lon="13.226691344565742"><ele>219.5</ele><time>2026-04-11T11:43:33Z</time></trkpt><trkpt lat="46.21457892804575" lon="13.226780456315883"><ele>220.0</ele><time>2026-04-11T11:43:34Z</time></trkpt><trkpt lat="46.21443892634008" lon="13.226841367526477"><ele>220.0</ele><time>2026-04-11T11:43:35Z</time></trkpt><trkpt lat="46.214287165559064" lon="13.226890469859278"><ele>220.0</ele><time>2026-04-11T11:43:36Z</time></trkpt><trkpt lat="46.21413287465309" lon="13.226929623613593"><ele>220.0</ele><time>2026-04-11T11:43:37Z</time></trkpt><trkpt lat="46.213984894063955" lon="13.226977059110704"><ele>218.0</ele><time>2026-04-11T11:43:38Z</time></trkpt><trkpt lat="46.21383446909933" lon="13.227004735266194"><ele>216.0</ele><time>2026-04-11T11:43:39Z</time></trkpt><trkpt lat="46.21369401418888" lon="13.227082987919188"><ele>214.0</ele><time>2026-04-11T11:43:40Z</time></trkpt><trkpt lat="46.21355076044233" lon="13.227152773418636"><ele>214.0</ele><time>2026-04-11T11:43:41Z</time></trkpt><trkpt lat="46.21340706420629" lon="13.227229682013855"><ele>214.0</ele><time>2026-04-11T11:43:42Z</time></trkpt><trkpt lat="46.21326023764057" lon="13.227305143778702"><ele>214.0</ele><time>2026-04-11T11:43:43Z</time></trkpt><trkpt lat="46.21310690430204" lon="13.227381559668268"><ele>214.33333333333331</ele><time>2026-04-11T11:43:44Z</time></trkpt><trkpt lat="46.21294852787697" lon="13.227468932654205"><ele>214.66666666666669</ele><time>2026-04-11T11:43:45Z</time></trkpt><trkpt lat="46.212786518370145" lon="13.227548140436447"><ele>215.0</ele><time>2026-04-11T11:43:46Z</time></trkpt><trkpt lat="46.21262881190581" lon="13.227627882106141"><ele>215.0</ele><time>2026-04-11T11:43:47Z</time></trkpt><trkpt lat="46.212473428995466" lon="13.227708533279202"><ele>215.0</ele><time>2026-04-11T11:43:48Z</time></trkpt><trkpt lat="46.21232297347147" lon="13.22778405152815"><ele>215.0</ele><time>2026-04-11T11:43:49Z</time></trkpt><trkpt lat="46.21217695635332" lon="13.227859035356962"><ele>215.0</ele><time>2026-04-11T11:43:50Z</time></trkpt><trkpt lat="46.212033965148436" lon="13.22793371531009"><ele>215.0</ele><time>2026-04-11T11:43:51Z</time></trkpt><trkpt lat="46.21188914100656" lon="13.228007406401277"><ele>215.0</ele><time>2026-04-11T11:43:52Z</time></trkpt><trkpt lat="46.211742279215436" lon="13.228084449489254"><ele>215.0</ele><time>2026-04-11T11:43:53Z</time></trkpt><trkpt lat="46.21159332154082" lon="13.22815826121454"><ele>215.0</ele><time>2026-04-11T11:43:54Z</time></trkpt><trkpt lat="46.21144693880502" lon="13.228233443906014"><ele>215.0</ele><time>2026-04-11T11:43:55Z</time></trkpt><trkpt lat="46.21130217941446" lon="13.228308904449932"><ele>215.66666666666669</ele><time>2026-04-11T11:43:56Z</time></trkpt><trkpt lat="46.21115108093393" lon="13.2283618001578"><ele>216.33333333333331</ele><time>2026-04-11T11:43:57Z</time></trkpt><trkpt lat="46.21100784281089" lon="13.228435928111468"><ele>217.0</ele><time>2026-04-11T11:43:58Z</time></trkpt><trkpt lat="46.21086589786647" lon="13.228509386811712"><ele>217.0</ele><time>2026-04-11T11:43:59Z</time></trkpt><trkpt lat="46.210723303033106" lon="13.228583123113452"><ele>217.0</ele><time>2026-04-11T11:44:00Z</time></trkpt><trkpt lat="46.21057801644202" lon="13.228658236766893"><ele>217.0</ele><time>2026-04-11T11:44:01Z</time></trkpt><trkpt lat="46.21043376910251" lon="13.22873281312001"><ele>215.0</ele><time>2026-04-11T11:44:02Z</time></trkpt><trkpt lat="46.21028508547368" lon="13.228809683063384"><ele>213.0</ele><time>2026-04-11T11:44:03Z</time></trkpt><trkpt lat="46.21012949360737" lon="13.22888920729659"><ele>211.0</ele><time>2026-04-11T11:44:04Z</time></trkpt><trkpt lat="46.209969985566616" lon="13.228970395915216"><ele>212.0</ele><time>2026-04-11T11:44:05Z</time></trkpt><trkpt lat="46.2098153154254" lon="13.229049122099863"><ele>213.0</ele><time>2026-04-11T11:44:06Z</time></trkpt><trkpt lat="46.209665622095876" lon="13.229125251404321"><ele>214.0</ele><time>2026-04-11T11:44:07Z</time></trkpt><trkpt lat="46.20952098102228" lon="13.229198745665313"><ele>214.0</ele><time>2026-04-11T11:44:08Z</time></trkpt><trkpt lat="46.209377554406316" lon="13.229273454797228"><ele>214.0</ele><time>2026-04-11T11:44:09Z</time></trkpt><trkpt lat="46.20923123101693" lon="13.229349845847386"><ele>214.0</ele><time>2026-04-11T11:44:10Z</time></trkpt><trkpt lat="46.20908162563943" lon="13.229451156754244"><ele>212.33333333333331</ele><time>2026-04-11T11:44:11Z</time></trkpt><trkpt lat="46.208921116670275" lon="13.229511843588973"><ele>210.66666666666669</ele><time>2026-04-11T11:44:12Z</time></trkpt><trkpt lat="46.20878054842983" lon="13.229611069316062"><ele>209.0</ele><time>2026-04-11T11:44:12.999Z</time></trkpt><trkpt lat="46.208631982687265" lon="13.229663587975148"><ele>209.0</ele><time>2026-04-11T11:44:13.999Z</time></trkpt><trkpt lat="46.20849169158265" lon="13.229758738849364"><ele>209.0</ele><time>2026-04-11T11:44:14.999Z</time></trkpt><trkpt lat="46.20834677717268" lon="13.229833512553611"><ele>209.0</ele><time>2026-04-11T11:44:15.999Z</time></trkpt><trkpt lat="46.20820528691643" lon="13.229907473558647"><ele>210.33333333333334</ele><time>2026-04-11T11:44:16.999Z</time></trkpt><trkpt lat="46.208059439631036" lon="13.229979098148798"><ele>211.66666666666669</ele><time>2026-04-11T11:44:17.999Z</time></trkpt><trkpt lat="46.20791278336159" lon="13.230043518318315"><ele>213.0</ele><time>2026-04-11T11:44:18.999Z</time></trkpt><trkpt lat="46.20776409067314" lon="13.230097319769904"><ele>213.0</ele><time>2026-04-11T11:44:19.999Z</time></trkpt><trkpt lat="46.207613114090854" lon="13.230142768420887"><ele>213.0</ele><time>2026-04-11T11:44:20.999Z</time></trkpt><trkpt lat="46.20745340622844" lon="13.230155120836084"><ele>213.0</ele><time>2026-04-11T11:44:21.999Z</time></trkpt><trkpt lat="46.20729134138496" lon="13.230176815215284"><ele>213.0</ele><time>2026-04-11T11:44:22.999Z</time></trkpt><trkpt lat="46.20712590715495" lon="13.230195488088178"><ele>213.0</ele><time>2026-04-11T11:44:23.999Z</time></trkpt><trkpt lat="46.206949597729086" lon="13.230212836755017"><ele>213.0</ele><time>2026-04-11T11:44:24.999Z</time></trkpt><trkpt lat="46.20677864173801" lon="13.23023099220187"><ele>213.0</ele><time>2026-04-11T11:44:25.999Z</time></trkpt><trkpt lat="46.206610407382264" lon="13.230250353153775"><ele>213.0</ele><time>2026-04-11T11:44:26.999Z</time></trkpt><trkpt lat="46.20644330662542" lon="13.230269778533701"><ele>213.0</ele><time>2026-04-11T11:44:27.999Z</time></trkpt><trkpt lat="46.2062792721922" lon="13.230293500432133"><ele>212.0</ele><time>2026-04-11T11:44:28.999Z</time></trkpt><trkpt lat="46.20612056279132" lon="13.23031947930174"><ele>211.0</ele><time>2026-04-11T11:44:29.999Z</time></trkpt><trkpt lat="46.20596337343345" lon="13.230345760948806"><ele>210.0</ele><time>2026-04-11T11:44:30.999Z</time></trkpt><trkpt lat="46.205802763801024" lon="13.230371886119581"><ele>211.0</ele><time>2026-04-11T11:44:31.999Z</time></trkpt><trkpt lat="46.205636147700254" lon="13.230398125390645"><ele>212.0</ele><time>2026-04-11T11:44:32.999Z</time></trkpt><trkpt lat="46.20546832847567" lon="13.230425344759372"><ele>213.0</ele><time>2026-04-11T11:44:33.999Z</time></trkpt><trkpt lat="46.20530355806436" lon="13.230472892505137"><ele>213.0</ele><time>2026-04-11T11:44:34.999Z</time></trkpt><trkpt lat="46.20514421082888" lon="13.230495119832606"><ele>213.0</ele><time>2026-04-11T11:44:35.999Z</time></trkpt><trkpt lat="46.20499015606456" lon="13.230512397778353"><ele>213.0</ele><time>2026-04-11T11:44:36.999Z</time></trkpt><trkpt lat="46.20483517677689" lon="13.230510022593881"><ele>212.0</ele><time>2026-04-11T11:44:37.999Z</time></trkpt><trkpt lat="46.20467751290382" lon="13.23044506754935"><ele>211.0</ele><time>2026-04-11T11:44:38.999Z</time></trkpt><trkpt lat="46.204528874856976" lon="13.230383870695967"><ele>210.0</ele><time>2026-04-11T11:44:39.999Z</time></trkpt><trkpt lat="46.20439249382881" lon="13.230318215686559"><ele>210.0</ele><time>2026-04-11T11:44:40.999Z</time></trkpt><trkpt lat="46.20424591897346" lon="13.23026827969037"><ele>210.0</ele><time>2026-04-11T11:44:41.999Z</time></trkpt><trkpt lat="46.20410579365538" lon="13.230210526055282"><ele>210.0</ele><time>2026-04-11T11:44:42.999Z</time></trkpt><trkpt lat="46.20397410001251" lon="13.230172776203036"><ele>210.0</ele><time>2026-04-11T11:44:43.999Z</time></trkpt><trkpt lat="46.203854110709585" lon="13.230109370536203"><ele>209.8</ele><time>2026-04-11T11:44:44.999Z</time></trkpt><trkpt lat="46.20373162702724" lon="13.230069345109424"><ele>209.6</ele><time>2026-04-11T11:44:45.999Z</time></trkpt><trkpt lat="46.20362082368827" lon="13.230030651251525"><ele>209.39999999999998</ele><time>2026-04-11T11:44:46.999Z</time></trkpt><trkpt lat="46.20351986292406" lon="13.229995394539763"><ele>209.2</ele><time>2026-04-11T11:44:48Z</time></trkpt><trkpt lat="46.20344354460687" lon="13.22996821848264"><ele>209.0</ele><time>2026-04-11T11:44:49Z</time></trkpt><trkpt lat="46.20337705249987" lon="13.229943728676684"><ele>209.0</ele><time>2026-04-11T11:44:50Z</time></trkpt><trkpt lat="46.203299531549796" lon="13.229914486808525"><ele>209.0</ele><time>2026-04-11T11:44:52Z</time></trkpt><trkpt lat="46.20322368601363" lon="13.229884790404943"><ele>209.0</ele><time>2026-04-11T11:44:58Z</time></trkpt><trkpt lat="46.20309537536565" lon="13.230027933387948"><ele>209.0</ele><time>2026-04-11T11:45:00Z</time></trkpt><trkpt lat="46.20299625946765" lon="13.230092305428393"><ele>209.0</ele><time>2026-04-11T11:45:01Z</time></trkpt><trkpt lat="46.202870229685104" lon="13.230153507995139"><ele>208.75</ele><time>2026-04-11T11:45:02Z</time></trkpt><trkpt lat="46.20272746439946" lon="13.230190063202638"><ele>208.5</ele><time>2026-04-11T11:45:03Z</time></trkpt><trkpt lat="46.20260829174364" lon="13.230239200208286"><ele>208.25</ele><time>2026-04-11T11:45:04Z</time></trkpt><trkpt lat="46.2024929619633" lon="13.230285045938796"><ele>208.0</ele><time>2026-04-11T11:45:05Z</time></trkpt><trkpt lat="46.20239759928793" lon="13.230353770959654"><ele>207.0</ele><time>2026-04-11T11:45:06Z</time></trkpt><trkpt lat="46.20229591744647" lon="13.23039047280413"><ele>206.0</ele><time>2026-04-11T11:45:07Z</time></trkpt><trkpt lat="46.202186907807565" lon="13.230432525065314"><ele>205.0</ele><time>2026-04-11T11:45:08Z</time></trkpt><trkpt lat="46.202069946202975" lon="13.230485329517723"><ele>204.0</ele><time>2026-04-11T11:45:09Z</time></trkpt><trkpt lat="46.201950755639096" lon="13.23055275132861"><ele>204.0</ele><time>2026-04-11T11:45:10Z</time></trkpt><trkpt lat="46.20182265716308" lon="13.230612060527138"><ele>204.0</ele><time>2026-04-11T11:45:11Z</time></trkpt><trkpt lat="46.20165987033566" lon="13.230735024496724"><ele>204.0</ele><time>2026-04-11T11:45:12Z</time></trkpt><trkpt lat="46.20142855411765" lon="13.23094067102013"><ele>204.0</ele><time>2026-04-11T11:45:13Z</time></trkpt><trkpt lat="46.20105308133037" lon="13.231292324465008"><ele>204.0</ele><time>2026-04-11T11:45:15Z</time></trkpt><trkpt lat="46.20078921219333" lon="13.231540460536737"><ele>204.0</ele><time>2026-04-11T11:45:16Z</time></trkpt><trkpt lat="46.20045076010433" lon="13.231861557144406"><ele>204.0</ele><time>2026-04-11T11:45:17Z</time></trkpt><trkpt lat="46.2002253649501" lon="13.232074455065849"><ele>204.0</ele><time>2026-04-11T11:45:18Z</time></trkpt><trkpt lat="46.20007463549309" lon="13.232216084707122"><ele>204.0</ele><time>2026-04-11T11:45:19Z</time></trkpt><trkpt lat="46.199904808795715" lon="13.232369630754823"><ele>204.0</ele><time>2026-04-11T11:45:20Z</time></trkpt><trkpt lat="46.19975721550871" lon="13.232485124894117"><ele>203.33333333333331</ele><time>2026-04-11T11:45:21Z</time></trkpt><trkpt lat="46.19960732522624" lon="13.232581822742825"><ele>202.66666666666666</ele><time>2026-04-11T11:45:22Z</time></trkpt><trkpt lat="46.19944491313116" lon="13.232697463016743"><ele>202.0</ele><time>2026-04-11T11:45:23Z</time></trkpt><trkpt lat="46.199258447701396" lon="13.23279842558749"><ele>202.0</ele><time>2026-04-11T11:45:24Z</time></trkpt><trkpt lat="46.19908757737909" lon="13.232907709577457"><ele>202.0</ele><time>2026-04-11T11:45:25Z</time></trkpt><trkpt lat="46.19894874474519" lon="13.232996001400204"><ele>202.0</ele><time>2026-04-11T11:45:26Z</time></trkpt><trkpt lat="46.19881203353066" lon="13.233076618246185"><ele>202.66666666666666</ele><time>2026-04-11T11:45:27Z</time></trkpt><trkpt lat="46.198661254460816" lon="13.23318803948967"><ele>203.33333333333331</ele><time>2026-04-11T11:45:28Z</time></trkpt><trkpt lat="46.19851710596277" lon="13.233344921209437"><ele>204.0</ele><time>2026-04-11T11:45:29Z</time></trkpt><trkpt lat="46.19840313487921" lon="13.233538469418491"><ele>204.0</ele><time>2026-04-11T11:45:30Z</time></trkpt><trkpt lat="46.19829338840135" lon="13.233756180562624"><ele>204.0</ele><time>2026-04-11T11:45:31Z</time></trkpt><trkpt lat="46.19818076766451" lon="13.233945170341473"><ele>204.0</ele><time>2026-04-11T11:45:32Z</time></trkpt><trkpt lat="46.19804216002775" lon="13.23409998730035"><ele>203.33333333333331</ele><time>2026-04-11T11:45:33Z</time></trkpt><trkpt lat="46.19789177125193" lon="13.234255679266337"><ele>202.66666666666666</ele><time>2026-04-11T11:45:34Z</time></trkpt><trkpt lat="46.197720854789296" lon="13.234381870791424"><ele>202.0</ele><time>2026-04-11T11:45:35Z</time></trkpt><trkpt lat="46.19753251785382" lon="13.23454187801584"><ele>202.0</ele><time>2026-04-11T11:45:36Z</time></trkpt><trkpt lat="46.197367190481906" lon="13.234723914613287"><ele>202.0</ele><time>2026-04-11T11:45:37Z</time></trkpt><trkpt lat="46.197216162421846" lon="13.234920646443873"><ele>202.0</ele><time>2026-04-11T11:45:38Z</time></trkpt><trkpt lat="46.1970737590497" lon="13.23513770095937"><ele>201.0</ele><time>2026-04-11T11:45:39Z</time></trkpt><trkpt lat="46.19693575870745" lon="13.235357346186703"><ele>200.0</ele><time>2026-04-11T11:45:40Z</time></trkpt><trkpt lat="46.19680423034624" lon="13.235581189128926"><ele>199.0</ele><time>2026-04-11T11:45:41Z</time></trkpt><trkpt lat="46.19668037321999" lon="13.235791718913068"><ele>198.66666666666666</ele><time>2026-04-11T11:45:42Z</time></trkpt><trkpt lat="46.196553793905146" lon="13.235990673881506"><ele>198.33333333333331</ele><time>2026-04-11T11:45:43Z</time></trkpt><trkpt lat="46.19643312182247" lon="13.236178785082707"><ele>198.0</ele><time>2026-04-11T11:45:44Z</time></trkpt><trkpt lat="46.196311934589524" lon="13.236371750801414"><ele>198.0</ele><time>2026-04-11T11:45:45Z</time></trkpt><trkpt lat="46.196187528065195" lon="13.236568479540892"><ele>198.0</ele><time>2026-04-11T11:45:46Z</time></trkpt><trkpt lat="46.19606855702018" lon="13.236755836036368"><ele>198.0</ele><time>2026-04-11T11:45:47Z</time></trkpt><trkpt lat="46.195965866487605" lon="13.23692325191322"><ele>198.0</ele><time>2026-04-11T11:45:48Z</time></trkpt><trkpt lat="46.19588464848886" lon="13.237081982837042"><ele>198.0</ele><time>2026-04-11T11:45:49Z</time></trkpt><trkpt lat="46.19582188834762" lon="13.23728163027533"><ele>198.0</ele><time>2026-04-11T11:45:50Z</time></trkpt><trkpt lat="46.19578640601317" lon="13.237544183387614"><ele>199.0</ele><time>2026-04-11T11:45:51Z</time></trkpt><trkpt lat="46.19577378830342" lon="13.237818043178317"><ele>200.0</ele><time>2026-04-11T11:45:52Z</time></trkpt><trkpt lat="46.19576322600963" lon="13.238074852108495"><ele>201.0</ele><time>2026-04-11T11:45:53Z</time></trkpt><trkpt lat="46.19573844512694" lon="13.238329840748545"><ele>201.33333333333331</ele><time>2026-04-11T11:45:54Z</time></trkpt><trkpt lat="46.19572135777956" lon="13.238581284314412"><ele>201.66666666666666</ele><time>2026-04-11T11:45:55Z</time></trkpt><trkpt lat="46.19570375807626" lon="13.23883277128861"><ele>202.0</ele><time>2026-04-11T11:45:56Z</time></trkpt><trkpt lat="46.19568817967216" lon="13.239081770925333"><ele>201.0</ele><time>2026-04-11T11:45:57Z</time></trkpt><trkpt lat="46.19567588431187" lon="13.23933349720536"><ele>200.0</ele><time>2026-04-11T11:45:58Z</time></trkpt><trkpt lat="46.195679403532736" lon="13.239600057252671"><ele>199.0</ele><time>2026-04-11T11:45:59Z</time></trkpt><trkpt lat="46.195710416906536" lon="13.239887819254928"><ele>197.66666666666666</ele><time>2026-04-11T11:46:00Z</time></trkpt><trkpt lat="46.19575553584066" lon="13.2401842754663"><ele>196.33333333333331</ele><time>2026-04-11T11:46:01Z</time></trkpt><trkpt lat="46.19579237267248" lon="13.240452449912762"><ele>195.0</ele><time>2026-04-11T11:46:02Z</time></trkpt><trkpt lat="46.19582137442907" lon="13.240713439454774"><ele>195.0</ele><time>2026-04-11T11:46:03Z</time></trkpt><trkpt lat="46.19585231493855" lon="13.240987830570992"><ele>195.0</ele><time>2026-04-11T11:46:04Z</time></trkpt><trkpt lat="46.195887081080365" lon="13.241264069968674"><ele>195.0</ele><time>2026-04-11T11:46:05Z</time></trkpt><trkpt lat="46.19591865674584" lon="13.241522787022435"><ele>195.0</ele><time>2026-04-11T11:46:06Z</time></trkpt><trkpt lat="46.19594907257107" lon="13.241778970953458"><ele>195.0</ele><time>2026-04-11T11:46:07Z</time></trkpt><trkpt lat="46.195980640443274" lon="13.242028519030452"><ele>195.0</ele><time>2026-04-11T11:46:08Z</time></trkpt><trkpt lat="46.19600902045207" lon="13.24227483213485"><ele>195.0</ele><time>2026-04-11T11:46:09Z</time></trkpt><trkpt lat="46.19603514003927" lon="13.242521647024551"><ele>195.0</ele><time>2026-04-11T11:46:10Z</time></trkpt><trkpt lat="46.19605864913413" lon="13.24278414570759"><ele>195.0</ele><time>2026-04-11T11:46:11Z</time></trkpt><trkpt lat="46.196070542670064" lon="13.243072901000616"><ele>195.0</ele><time>2026-04-11T11:46:12Z</time></trkpt><trkpt lat="46.196059803296805" lon="13.243373855310798"><ele>195.0</ele><time>2026-04-11T11:46:13Z</time></trkpt><trkpt lat="46.19602871359437" lon="13.243687143248966"><ele>195.0</ele><time>2026-04-11T11:46:14Z</time></trkpt><trkpt lat="46.195997377523625" lon="13.244000602013578"><ele>194.66666666666669</ele><time>2026-04-11T11:46:15Z</time></trkpt><trkpt lat="46.19598726200849" lon="13.244292108539742"><ele>194.33333333333334</ele><time>2026-04-11T11:46:16Z</time></trkpt><trkpt lat="46.195989475712494" lon="13.244577596052682"><ele>194.0</ele><time>2026-04-11T11:46:17Z</time></trkpt><trkpt lat="46.19598990333422" lon="13.244856223593704"><ele>194.66666666666669</ele><time>2026-04-11T11:46:18Z</time></trkpt><trkpt lat="46.19598812565193" lon="13.245123788737464"><ele>195.33333333333331</ele><time>2026-04-11T11:46:18.999Z</time></trkpt><trkpt lat="46.19598870440771" lon="13.245396551525364"><ele>196.0</ele><time>2026-04-11T11:46:19.999Z</time></trkpt><trkpt lat="46.19599166174886" lon="13.245674900109092"><ele>197.0</ele><time>2026-04-11T11:46:20.999Z</time></trkpt><trkpt lat="46.195989908824" lon="13.245950565588345"><ele>198.0</ele><time>2026-04-11T11:46:21.999Z</time></trkpt><trkpt lat="46.19598248693583" lon="13.246215783817393"><ele>199.0</ele><time>2026-04-11T11:46:22.999Z</time></trkpt><trkpt lat="46.195955522450895" lon="13.246494710506472"><ele>199.33333333333331</ele><time>2026-04-11T11:46:23.999Z</time></trkpt><trkpt lat="46.195882439120524" lon="13.246761591071092"><ele>199.66666666666669</ele><time>2026-04-11T11:46:24.999Z</time></trkpt><trkpt lat="46.19581638357211" lon="13.247019818462945"><ele>200.0</ele><time>2026-04-11T11:46:25.999Z</time></trkpt><trkpt lat="46.195761762643926" lon="13.247271050378322"><ele>201.66666666666669</ele><time>2026-04-11T11:46:26.999Z</time></trkpt><trkpt lat="46.19569720467734" lon="13.247523111810217"><ele>203.33333333333331</ele><time>2026-04-11T11:46:27.999Z</time></trkpt><trkpt lat="46.1956349051185" lon="13.247773793048916"><ele>205.0</ele><time>2026-04-11T11:46:28.999Z</time></trkpt><trkpt lat="46.19557055603348" lon="13.248024167338423"><ele>200.66666666666666</ele><time>2026-04-11T11:46:29.999Z</time></trkpt><trkpt lat="46.19550502601496" lon="13.248281150397798"><ele>196.33333333333331</ele><time>2026-04-11T11:46:30.999Z</time></trkpt><trkpt lat="46.19542784442018" lon="13.248573189979558"><ele>192.0</ele><time>2026-04-11T11:46:31.999Z</time></trkpt><trkpt lat="46.19535156604791" lon="13.248890383246342"><ele>193.0</ele><time>2026-04-11T11:46:32.999Z</time></trkpt><trkpt lat="46.195254195800786" lon="13.249207955695638"><ele>194.0</ele><time>2026-04-11T11:46:33.999Z</time></trkpt><trkpt lat="46.195162908476625" lon="13.24956452634467"><ele>193.0</ele><time>2026-04-11T11:46:34.999Z</time></trkpt><trkpt lat="46.19507496549482" lon="13.24990307855342"><ele>192.0</ele><time>2026-04-11T11:46:35.999Z</time></trkpt><trkpt lat="46.195009202493424" lon="13.25019524818936"><ele>192.0</ele><time>2026-04-11T11:46:36.999Z</time></trkpt><trkpt lat="46.19494108673331" lon="13.2504605110394"><ele>192.0</ele><time>2026-04-11T11:46:37.999Z</time></trkpt><trkpt lat="46.19487416154141" lon="13.250723549800455"><ele>192.0</ele><time>2026-04-11T11:46:38.999Z</time></trkpt><trkpt lat="46.194799014301296" lon="13.250995696598709"><ele>192.0</ele><time>2026-04-11T11:46:39.999Z</time></trkpt><trkpt lat="46.19472891698772" lon="13.251259078884013"><ele>192.0</ele><time>2026-04-11T11:46:40.999Z</time></trkpt><trkpt lat="46.194670576937966" lon="13.251513737675893"><ele>192.0</ele><time>2026-04-11T11:46:41.999Z</time></trkpt><trkpt lat="46.19462762647506" lon="13.251763333206137"><ele>192.0</ele><time>2026-04-11T11:46:42.999Z</time></trkpt><trkpt lat="46.194598901287975" lon="13.25201687397509"><ele>192.0</ele><time>2026-04-11T11:46:43.999Z</time></trkpt><trkpt lat="46.19458209420316" lon="13.252262292507725"><ele>192.0</ele><time>2026-04-11T11:46:44.999Z</time></trkpt><trkpt lat="46.1945805833896" lon="13.252508266519486"><ele>192.66666666666669</ele><time>2026-04-11T11:46:45.999Z</time></trkpt><trkpt lat="46.19459082272896" lon="13.252745705807444"><ele>193.33333333333334</ele><time>2026-04-11T11:46:46.999Z</time></trkpt><trkpt lat="46.194613725568274" lon="13.252993858765613"><ele>194.0</ele><time>2026-04-11T11:46:47.999Z</time></trkpt><trkpt lat="46.19465395106749" lon="13.253245296645412"><ele>194.0</ele><time>2026-04-11T11:46:48.999Z</time></trkpt><trkpt lat="46.19470410089721" lon="13.253492871999013"><ele>194.0</ele><time>2026-04-11T11:46:49.999Z</time></trkpt><trkpt lat="46.194762494243456" lon="13.25373354092365"><ele>194.0</ele><time>2026-04-11T11:46:50.999Z</time></trkpt><trkpt lat="46.19482441577281" lon="13.25396166152574"><ele>194.0</ele><time>2026-04-11T11:46:51.999Z</time></trkpt><trkpt lat="46.194883207403" lon="13.254191268576697"><ele>194.0</ele><time>2026-04-11T11:46:52.999Z</time></trkpt><trkpt lat="46.19494655735811" lon="13.254431848844767"><ele>194.0</ele><time>2026-04-11T11:46:54Z</time></trkpt><trkpt lat="46.195012506498486" lon="13.254668642057306"><ele>194.33333333333334</ele><time>2026-04-11T11:46:55Z</time></trkpt><trkpt lat="46.195073443226555" lon="13.254886136113685"><ele>194.66666666666669</ele><time>2026-04-11T11:46:56Z</time></trkpt><trkpt lat="46.195138288623895" lon="13.255092514016784"><ele>195.0</ele><time>2026-04-11T11:46:57Z</time></trkpt><trkpt lat="46.1952163563968" lon="13.255280340551701"><ele>195.0</ele><time>2026-04-11T11:46:58Z</time></trkpt><trkpt lat="46.1953253915976" lon="13.255442460107643"><ele>195.0</ele><time>2026-04-11T11:46:59Z</time></trkpt><trkpt lat="46.195463837974074" lon="13.255574958450831"><ele>195.0</ele><time>2026-04-11T11:47:00Z</time></trkpt><trkpt lat="46.195588381922896" lon="13.255669715918375"><ele>196.0</ele><time>2026-04-11T11:47:01Z</time></trkpt><trkpt lat="46.19570451525948" lon="13.255765548376509"><ele>197.0</ele><time>2026-04-11T11:47:02Z</time></trkpt><trkpt lat="46.19580927616102" lon="13.255887939001573"><ele>198.0</ele><time>2026-04-11T11:47:03Z</time></trkpt><trkpt lat="46.19588870231867" lon="13.256047393922746"><ele>199.0</ele><time>2026-04-11T11:47:04Z</time></trkpt><trkpt lat="46.195940573867524" lon="13.256220575719114"><ele>199.0</ele><time>2026-04-11T11:47:05Z</time></trkpt><trkpt lat="46.19596626016886" lon="13.256400997273184"><ele>199.0</ele><time>2026-04-11T11:47:06Z</time></trkpt><trkpt lat="46.19598997417655" lon="13.256584090311316"><ele>199.0</ele><time>2026-04-11T11:47:07Z</time></trkpt><trkpt lat="46.196021758276636" lon="13.25676836810287"><ele>199.0</ele><time>2026-04-11T11:47:08Z</time></trkpt><trkpt lat="46.19604843811028" lon="13.25695925295464"><ele>199.25</ele><time>2026-04-11T11:47:09Z</time></trkpt><trkpt lat="46.19605464651659" lon="13.25715318778813"><ele>199.5</ele><time>2026-04-11T11:47:10Z</time></trkpt><trkpt lat="46.19603849990241" lon="13.25734867256508"><ele>199.75</ele><time>2026-04-11T11:47:11Z</time></trkpt><trkpt lat="46.196002288699475" lon="13.257540094230276"><ele>200.0</ele><time>2026-04-11T11:47:12Z</time></trkpt><trkpt lat="46.195977289628594" lon="13.257724087108052"><ele>200.25</ele><time>2026-04-11T11:47:13Z</time></trkpt><trkpt lat="46.195974287832584" lon="13.257899559740025"><ele>200.5</ele><time>2026-04-11T11:47:14Z</time></trkpt><trkpt lat="46.195995686692136" lon="13.25807383583198"><ele>200.75</ele><time>2026-04-11T11:47:15Z</time></trkpt><trkpt lat="46.19604995337091" lon="13.25823594486696"><ele>201.0</ele><time>2026-04-11T11:47:16Z</time></trkpt><trkpt lat="46.196131543480114" lon="13.258384863852152"><ele>201.75</ele><time>2026-04-11T11:47:17Z</time></trkpt><trkpt lat="46.19622350319654" lon="13.258523184586146"><ele>202.5</ele><time>2026-04-11T11:47:18Z</time></trkpt><trkpt lat="46.19630702530084" lon="13.258663633248268"><ele>203.25</ele><time>2026-04-11T11:47:19Z</time></trkpt><trkpt lat="46.196376086763344" lon="13.258816291348635"><ele>204.0</ele><time>2026-04-11T11:47:20Z</time></trkpt><trkpt lat="46.19641983067124" lon="13.258969745322986"><ele>204.25</ele><time>2026-04-11T11:47:21Z</time></trkpt><trkpt lat="46.196403729640544" lon="13.259150530948409"><ele>204.5</ele><time>2026-04-11T11:47:22Z</time></trkpt><trkpt lat="46.19641022567146" lon="13.259359467652521"><ele>204.75</ele><time>2026-04-11T11:47:23Z</time></trkpt><trkpt lat="46.19639688712954" lon="13.259550801420675"><ele>205.0</ele><time>2026-04-11T11:47:24Z</time></trkpt><trkpt lat="46.196398508341794" lon="13.259738595710827"><ele>204.5</ele><time>2026-04-11T11:47:25Z</time></trkpt><trkpt lat="46.19640400863062" lon="13.259933302030237"><ele>204.0</ele><time>2026-04-11T11:47:26Z</time></trkpt><trkpt lat="46.19640633917542" lon="13.260134312323851"><ele>203.5</ele><time>2026-04-11T11:47:27Z</time></trkpt><trkpt lat="46.196413288941805" lon="13.260328619840605"><ele>203.0</ele><time>2026-04-11T11:47:28Z</time></trkpt><trkpt lat="46.19641983911418" lon="13.260519909733539"><ele>203.0</ele><time>2026-04-11T11:47:29Z</time></trkpt><trkpt lat="46.19642781914681" lon="13.260704926659939"><ele>203.0</ele><time>2026-04-11T11:47:30Z</time></trkpt><trkpt lat="46.196447887328475" lon="13.260908034448104"><ele>203.0</ele><time>2026-04-11T11:47:31Z</time></trkpt><trkpt lat="46.19649987916959" lon="13.261115769184391"><ele>203.0</ele><time>2026-04-11T11:47:32Z</time></trkpt><trkpt lat="46.19655527951714" lon="13.26131487284295"><ele>203.25</ele><time>2026-04-11T11:47:33Z</time></trkpt><trkpt lat="46.19663903519955" lon="13.261488656728528"><ele>203.5</ele><time>2026-04-11T11:47:34Z</time></trkpt><trkpt lat="46.19672336397277" lon="13.261659363944958"><ele>203.75</ele><time>2026-04-11T11:47:35Z</time></trkpt><trkpt lat="46.196797302445546" lon="13.261812090947263"><ele>204.0</ele><time>2026-04-11T11:47:36Z</time></trkpt><trkpt lat="46.19686394466798" lon="13.26198056548984"><ele>204.0</ele><time>2026-04-11T11:47:37Z</time></trkpt><trkpt lat="46.1969297197495" lon="13.262162548326188"><ele>204.0</ele><time>2026-04-11T11:47:38Z</time></trkpt><trkpt lat="46.19698599859235" lon="13.262349039371825"><ele>204.0</ele><time>2026-04-11T11:47:39Z</time></trkpt><trkpt lat="46.197036983210545" lon="13.262542807711291"><ele>204.0</ele><time>2026-04-11T11:47:40Z</time></trkpt><trkpt lat="46.197088962762216" lon="13.262728052483896"><ele>204.0</ele><time>2026-04-11T11:47:41Z</time></trkpt><trkpt lat="46.19713346349506" lon="13.262904552111186"><ele>204.0</ele><time>2026-04-11T11:47:42Z</time></trkpt><trkpt lat="46.19716120427219" lon="13.263095170066329"><ele>204.0</ele><time>2026-04-11T11:47:43Z</time></trkpt><trkpt lat="46.197181583257475" lon="13.263291107126026"><ele>204.0</ele><time>2026-04-11T11:47:44Z</time></trkpt><trkpt lat="46.197193027453615" lon="13.263483328945533"><ele>204.0</ele><time>2026-04-11T11:47:45Z</time></trkpt><trkpt lat="46.197188371168885" lon="13.263674948094122"><ele>204.0</ele><time>2026-04-11T11:47:46Z</time></trkpt><trkpt lat="46.19717896132891" lon="13.263843771238063"><ele>204.0</ele><time>2026-04-11T11:47:47Z</time></trkpt><trkpt lat="46.197172082206755" lon="13.264002237448342"><ele>204.0</ele><time>2026-04-11T11:47:48Z</time></trkpt><trkpt lat="46.19714976971122" lon="13.264164087067883"><ele>204.0</ele><time>2026-04-11T11:47:49Z</time></trkpt><trkpt lat="46.19713764962709" lon="13.264327897368576"><ele>204.0</ele><time>2026-04-11T11:47:50Z</time></trkpt><trkpt lat="46.19713545885771" lon="13.264485459906798"><ele>204.0</ele><time>2026-04-11T11:47:51Z</time></trkpt><trkpt lat="46.19714314514189" lon="13.264630844353867"><ele>204.0</ele><time>2026-04-11T11:47:52Z</time></trkpt><trkpt lat="46.197167443483" lon="13.264766957551847"><ele>204.0</ele><time>2026-04-11T11:47:53Z</time></trkpt><trkpt lat="46.1972016616285" lon="13.264901535453484"><ele>204.0</ele><time>2026-04-11T11:47:54Z</time></trkpt><trkpt lat="46.19724316033298" lon="13.265034757924932"><ele>204.0</ele><time>2026-04-11T11:47:55Z</time></trkpt><trkpt lat="46.19727512997957" lon="13.265167326733074"><ele>204.0</ele><time>2026-04-11T11:47:56Z</time></trkpt><trkpt lat="46.197309449476386" lon="13.265282077819517"><ele>204.0</ele><time>2026-04-11T11:47:57Z</time></trkpt><trkpt lat="46.19735305814916" lon="13.265384950799264"><ele>204.0</ele><time>2026-04-11T11:47:58Z</time></trkpt><trkpt lat="46.197426584132664" lon="13.26546184869565"><ele>204.0</ele><time>2026-04-11T11:47:59Z</time></trkpt><trkpt lat="46.197520506094286" lon="13.265492383118694"><ele>204.0</ele><time>2026-04-11T11:48:00Z</time></trkpt><trkpt lat="46.19761790036495" lon="13.265504157873673"><ele>204.0</ele><time>2026-04-11T11:48:01Z</time></trkpt><trkpt lat="46.197719030183215" lon="13.265510131244314"><ele>204.0</ele><time>2026-04-11T11:48:02Z</time></trkpt><trkpt lat="46.19783355881592" lon="13.265523639857879"><ele>204.0</ele><time>2026-04-11T11:48:03Z</time></trkpt><trkpt lat="46.197949095991234" lon="13.265518197466406"><ele>204.0</ele><time>2026-04-11T11:48:04Z</time></trkpt><trkpt lat="46.198054802438975" lon="13.265498558905865"><ele>204.0</ele><time>2026-04-11T11:48:05Z</time></trkpt><trkpt lat="46.19815477511118" lon="13.26547311805859"><ele>204.0</ele><time>2026-04-11T11:48:06Z</time></trkpt><trkpt lat="46.19825355885303" lon="13.26544422170647"><ele>204.0</ele><time>2026-04-11T11:48:07Z</time></trkpt><trkpt lat="46.19834583219281" lon="13.265417577533869"><ele>204.0</ele><time>2026-04-11T11:48:08Z</time></trkpt><trkpt lat="46.19843645485515" lon="13.265401798887268"><ele>204.16666666666666</ele><time>2026-04-11T11:48:09Z</time></trkpt><trkpt lat="46.19852210465348" lon="13.265404312911471"><ele>204.33333333333331</ele><time>2026-04-11T11:48:10Z</time></trkpt><trkpt lat="46.19860375052788" lon="13.265379101968245"><ele>204.5</ele><time>2026-04-11T11:48:11Z</time></trkpt><trkpt lat="46.19868903616648" lon="13.265361886188225"><ele>204.66666666666666</ele><time>2026-04-11T11:48:12Z</time></trkpt><trkpt lat="46.198774251141025" lon="13.265345192599304"><ele>204.83333333333331</ele><time>2026-04-11T11:48:13Z</time></trkpt><trkpt lat="46.198856834948494" lon="13.265327520938596"><ele>205.0</ele><time>2026-04-11T11:48:14Z</time></trkpt><trkpt lat="46.198936840621066" lon="13.265311589889707"><ele>205.2</ele><time>2026-04-11T11:48:15Z</time></trkpt><trkpt lat="46.19901752505094" lon="13.265292906230147"><ele>205.4</ele><time>2026-04-11T11:48:16Z</time></trkpt><trkpt lat="46.19910208389703" lon="13.26527625091574"><ele>205.60000000000002</ele><time>2026-04-11T11:48:17Z</time></trkpt><trkpt lat="46.1991919608349" lon="13.265257884544269"><ele>205.8</ele><time>2026-04-11T11:48:18Z</time></trkpt><trkpt lat="46.19929224926394" lon="13.265238835904775"><ele>206.0</ele><time>2026-04-11T11:48:19Z</time></trkpt><trkpt lat="46.19938639872439" lon="13.265221443197131"><ele>206.0</ele><time>2026-04-11T11:48:20Z</time></trkpt><trkpt lat="46.19947577993337" lon="13.26519942964112"><ele>206.0</ele><time>2026-04-11T11:48:21Z</time></trkpt><trkpt lat="46.19956676005325" lon="13.265181357311715"><ele>206.0</ele><time>2026-04-11T11:48:21.999Z</time></trkpt><trkpt lat="46.19965854196621" lon="13.26516598851387"><ele>206.0</ele><time>2026-04-11T11:48:22.999Z</time></trkpt><trkpt lat="46.199745996411636" lon="13.265145513228875"><ele>206.0</ele><time>2026-04-11T11:48:23.999Z</time></trkpt><trkpt lat="46.19983120080066" lon="13.265122636391423"><ele>206.33333333333334</ele><time>2026-04-11T11:48:24.999Z</time></trkpt><trkpt lat="46.19991178119957" lon="13.265108844808262"><ele>206.66666666666669</ele><time>2026-04-11T11:48:25.999Z</time></trkpt><trkpt lat="46.19998390274119" lon="13.265098359422941"><ele>207.0</ele><time>2026-04-11T11:48:26.999Z</time></trkpt><trkpt lat="46.20004724589093" lon="13.265086652845525"><ele>207.33333333333331</ele><time>2026-04-11T11:48:27.999Z</time></trkpt><trkpt lat="46.20014401401283" lon="13.265101873881367"><ele>207.66666666666666</ele><time>2026-04-11T11:48:29.999Z</time></trkpt><trkpt lat="46.20019993243173" lon="13.265248674342565"><ele>208.0</ele><time>2026-04-11T11:48:31.999Z</time></trkpt><trkpt lat="46.20021565678925" lon="13.265352492287574"><ele>207.99999999999997</ele><time>2026-04-11T11:48:32.999Z</time></trkpt><trkpt lat="46.200217956365876" lon="13.265461245800918"><ele>208.0</ele><time>2026-04-11T11:48:33.999Z</time></trkpt><trkpt lat="46.200206039899825" lon="13.265570121437706"><ele>208.0</ele><time>2026-04-11T11:48:34.999Z</time></trkpt><trkpt lat="46.200185616075196" lon="13.265685869167099"><ele>208.0</ele><time>2026-04-11T11:48:35.999Z</time></trkpt><trkpt lat="46.20016821942212" lon="13.265817021719025"><ele>207.99999999999997</ele><time>2026-04-11T11:48:36.999Z</time></trkpt><trkpt lat="46.200148759135786" lon="13.265970236004144"><ele>208.0</ele><time>2026-04-11T11:48:37.999Z</time></trkpt><trkpt lat="46.20012451118253" lon="13.266115966477102"><ele>208.16666666666666</ele><time>2026-04-11T11:48:38.999Z</time></trkpt><trkpt lat="46.20010009309474" lon="13.266254829311912"><ele>208.33333333333331</ele><time>2026-04-11T11:48:39.999Z</time></trkpt><trkpt lat="46.20008114146065" lon="13.266382225109544"><ele>208.5</ele><time>2026-04-11T11:48:40.999Z</time></trkpt><trkpt lat="46.20006106511281" lon="13.26649413375722"><ele>208.66666666666669</ele><time>2026-04-11T11:48:41.999Z</time></trkpt><trkpt lat="46.20004710127308" lon="13.266599762986992"><ele>208.83333333333334</ele><time>2026-04-11T11:48:42.999Z</time></trkpt><trkpt lat="46.2000341652586" lon="13.266703008513531"><ele>209.0</ele><time>2026-04-11T11:48:43.999Z</time></trkpt><trkpt lat="46.200019310914755" lon="13.266810818463707"><ele>209.0</ele><time>2026-04-11T11:48:44.999Z</time></trkpt><trkpt lat="46.20000953492303" lon="13.266926760237341"><ele>209.0</ele><time>2026-04-11T11:48:45.999Z</time></trkpt><trkpt lat="46.19999823317241" lon="13.2670299067702"><ele>209.0</ele><time>2026-04-11T11:48:46.999Z</time></trkpt><trkpt lat="46.19999384290078" lon="13.267133717607429"><ele>209.0</ele><time>2026-04-11T11:48:47.999Z</time></trkpt><trkpt lat="46.19998981454685" lon="13.26724368476244"><ele>209.0</ele><time>2026-04-11T11:48:48.999Z</time></trkpt><trkpt lat="46.199990318326414" lon="13.267343959036008"><ele>209.0</ele><time>2026-04-11T11:48:49.999Z</time></trkpt><trkpt lat="46.199988337485365" lon="13.267453072588895"><ele>209.0</ele><time>2026-04-11T11:48:50.999Z</time></trkpt><trkpt lat="46.199986570699664" lon="13.267561177238438"><ele>209.00000000000003</ele><time>2026-04-11T11:48:51.999Z</time></trkpt><trkpt lat="46.19999022358404" lon="13.267674772948187"><ele>209.0</ele><time>2026-04-11T11:48:52.999Z</time></trkpt><trkpt lat="46.19999346015372" lon="13.267793337722653"><ele>209.0</ele><time>2026-04-11T11:48:53.999Z</time></trkpt><trkpt lat="46.19999987400593" lon="13.267911654501757"><ele>209.0</ele><time>2026-04-11T11:48:54.999Z</time></trkpt><trkpt lat="46.20000732024813" lon="13.268025818983062"><ele>209.00000000000003</ele><time>2026-04-11T11:48:55.999Z</time></trkpt><trkpt lat="46.20001234293841" lon="13.268139602819318"><ele>209.0</ele><time>2026-04-11T11:48:56.999Z</time></trkpt><trkpt lat="46.20001843615673" lon="13.268252653902302"><ele>208.83333333333334</ele><time>2026-04-11T11:48:57.999Z</time></trkpt><trkpt lat="46.20002318089926" lon="13.26837045579266"><ele>208.66666666666669</ele><time>2026-04-11T11:48:58.999Z</time></trkpt><trkpt lat="46.20002647444594" lon="13.268485765903987"><ele>208.5</ele><time>2026-04-11T11:49:00Z</time></trkpt><trkpt lat="46.200019331770285" lon="13.268609732365727"><ele>208.33333333333331</ele><time>2026-04-11T11:49:01Z</time></trkpt><trkpt lat="46.20001338255001" lon="13.26873604922925"><ele>208.16666666666666</ele><time>2026-04-11T11:49:02Z</time></trkpt><trkpt lat="46.20000246302255" lon="13.268868229589351"><ele>208.0</ele><time>2026-04-11T11:49:03Z</time></trkpt><trkpt lat="46.199989975636775" lon="13.269010261219869"><ele>207.25</ele><time>2026-04-11T11:49:04Z</time></trkpt><trkpt lat="46.19997614821224" lon="13.269180136723579"><ele>206.5</ele><time>2026-04-11T11:49:05Z</time></trkpt><trkpt lat="46.19996258332742" lon="13.269376942376683"><ele>205.75</ele><time>2026-04-11T11:49:06Z</time></trkpt><trkpt lat="46.199962953522075" lon="13.269592549192987"><ele>205.0</ele><time>2026-04-11T11:49:07Z</time></trkpt><trkpt lat="46.199975566950776" lon="13.269831748976387"><ele>203.66666666666666</ele><time>2026-04-11T11:49:08Z</time></trkpt><trkpt lat="46.20001383218939" lon="13.270128517902243"><ele>202.33333333333331</ele><time>2026-04-11T11:49:09Z</time></trkpt><trkpt lat="46.20005274322331" lon="13.270403592374803"><ele>201.0</ele><time>2026-04-11T11:49:10Z</time></trkpt><trkpt lat="46.20008216722931" lon="13.270654284404955"><ele>200.33333333333331</ele><time>2026-04-11T11:49:11Z</time></trkpt><trkpt lat="46.20010077322133" lon="13.270909985601401"><ele>199.66666666666666</ele><time>2026-04-11T11:49:12Z</time></trkpt><trkpt lat="46.20012313597884" lon="13.271183442931664"><ele>199.0</ele><time>2026-04-11T11:49:13Z</time></trkpt><trkpt lat="46.20013521645398" lon="13.27145998924309"><ele>198.33333333333331</ele><time>2026-04-11T11:49:14Z</time></trkpt><trkpt lat="46.200147073842324" lon="13.271729966137634"><ele>197.66666666666669</ele><time>2026-04-11T11:49:15Z</time></trkpt><trkpt lat="46.20016269054521" lon="13.271993378574173"><ele>197.0</ele><time>2026-04-11T11:49:16Z</time></trkpt><trkpt lat="46.20017619650003" lon="13.272253934953808"><ele>197.0</ele><time>2026-04-11T11:49:17Z</time></trkpt><trkpt lat="46.20018715661892" lon="13.272513865686793"><ele>197.0</ele><time>2026-04-11T11:49:18Z</time></trkpt><trkpt lat="46.20019857602532" lon="13.27277802137582"><ele>197.0</ele><time>2026-04-11T11:49:19Z</time></trkpt><trkpt lat="46.20021106177075" lon="13.273045405362758"><ele>198.0</ele><time>2026-04-11T11:49:20Z</time></trkpt><trkpt lat="46.20022512600382" lon="13.273314088557477"><ele>199.0</ele><time>2026-04-11T11:49:21Z</time></trkpt><trkpt lat="46.20023939322259" lon="13.273574002492337"><ele>200.0</ele><time>2026-04-11T11:49:22Z</time></trkpt><trkpt lat="46.200250652748764" lon="13.273796158136912"><ele>201.25</ele><time>2026-04-11T11:49:23Z</time></trkpt><trkpt lat="46.200262426020615" lon="13.274044251686801"><ele>202.5</ele><time>2026-04-11T11:49:24Z</time></trkpt><trkpt lat="46.200272952836876" lon="13.274255704834227"><ele>203.75</ele><time>2026-04-11T11:49:25Z</time></trkpt><trkpt lat="46.200279098912496" lon="13.274434550514977"><ele>205.0</ele><time>2026-04-11T11:49:26Z</time></trkpt><trkpt lat="46.20028774237317" lon="13.274615697045869"><ele>206.5</ele><time>2026-04-11T11:49:27Z</time></trkpt><trkpt lat="46.20031889762092" lon="13.274798372275322"><ele>208.0</ele><time>2026-04-11T11:49:28Z</time></trkpt><trkpt lat="46.200378514950785" lon="13.274950416786272"><ele>209.5</ele><time>2026-04-11T11:49:29Z</time></trkpt><trkpt lat="46.20042228224438" lon="13.275098270975242"><ele>211.0</ele><time>2026-04-11T11:49:30Z</time></trkpt><trkpt lat="46.20042494445106" lon="13.275274433140563"><ele>211.0</ele><time>2026-04-11T11:49:31Z</time></trkpt><trkpt lat="46.200413229533844" lon="13.275431626828095"><ele>211.0</ele><time>2026-04-11T11:49:32Z</time></trkpt><trkpt lat="46.200394374405576" lon="13.275566612760937"><ele>211.0</ele><time>2026-04-11T11:49:33Z</time></trkpt><trkpt lat="46.2003822820417" lon="13.275700938999066"><ele>211.0</ele><time>2026-04-11T11:49:34Z</time></trkpt><trkpt lat="46.20038836671451" lon="13.275826812542263"><ele>211.0</ele><time>2026-04-11T11:49:35Z</time></trkpt><trkpt lat="46.20038871579266" lon="13.27594010874665"><ele>211.0</ele><time>2026-04-11T11:49:36Z</time></trkpt><trkpt lat="46.20040958408027" lon="13.276046957961215"><ele>211.0</ele><time>2026-04-11T11:49:37Z</time></trkpt><trkpt lat="46.20043620388134" lon="13.276155542009436"><ele>211.0</ele><time>2026-04-11T11:49:38Z</time></trkpt><trkpt lat="46.200471681618026" lon="13.276252032943413"><ele>211.0</ele><time>2026-04-11T11:49:39Z</time></trkpt><trkpt lat="46.20049678388539" lon="13.276350934566771"><ele>211.0</ele><time>2026-04-11T11:49:40Z</time></trkpt><trkpt lat="46.2005157502205" lon="13.276450477779196"><ele>211.0</ele><time>2026-04-11T11:49:41Z</time></trkpt><trkpt lat="46.20053629697964" lon="13.276540948274125"><ele>211.0</ele><time>2026-04-11T11:49:42Z</time></trkpt><trkpt lat="46.20057088965968" lon="13.276694012822734"><ele>210.60000000000002</ele><time>2026-04-11T11:49:44Z</time></trkpt><trkpt lat="46.200617617374036" lon="13.276858221708244"><ele>210.2</ele><time>2026-04-11T11:49:46Z</time></trkpt><trkpt lat="46.20064105395263" lon="13.276969858939122"><ele>209.8</ele><time>2026-04-11T11:49:47Z</time></trkpt><trkpt lat="46.20067416408308" lon="13.277106598138325"><ele>209.39999999999998</ele><time>2026-04-11T11:49:48Z</time></trkpt><trkpt lat="46.200701005079715" lon="13.277276108507456"><ele>209.0</ele><time>2026-04-11T11:49:49Z</time></trkpt><trkpt lat="46.200744331035416" lon="13.277466409465205"><ele>210.0</ele><time>2026-04-11T11:49:50Z</time></trkpt><trkpt lat="46.2008060676111" lon="13.27766207248518"><ele>211.0</ele><time>2026-04-11T11:49:51Z</time></trkpt><trkpt lat="46.20082662700003" lon="13.277845536990535"><ele>212.0</ele><time>2026-04-11T11:49:52Z</time></trkpt><trkpt lat="46.20085678150923" lon="13.278027294032817"><ele>213.0</ele><time>2026-04-11T11:49:53Z</time></trkpt><trkpt lat="46.200879231519025" lon="13.27819904039869"><ele>213.0</ele><time>2026-04-11T11:49:54Z</time></trkpt><trkpt lat="46.20089430951057" lon="13.27836513781463"><ele>213.0</ele><time>2026-04-11T11:49:55Z</time></trkpt><trkpt lat="46.20092248884736" lon="13.278533294719367"><ele>213.0</ele><time>2026-04-11T11:49:56Z</time></trkpt><trkpt lat="46.200930338593096" lon="13.278705650707865"><ele>213.0</ele><time>2026-04-11T11:49:57Z</time></trkpt><trkpt lat="46.20093946938668" lon="13.27887817145738"><ele>212.0</ele><time>2026-04-11T11:49:58Z</time></trkpt><trkpt lat="46.20094991473891" lon="13.279054450840915"><ele>211.0</ele><time>2026-04-11T11:49:59Z</time></trkpt><trkpt lat="46.20094370980951" lon="13.279247872485545"><ele>210.0</ele><time>2026-04-11T11:50:00Z</time></trkpt><trkpt lat="46.200972356371615" lon="13.279450478658783"><ele>209.0</ele><time>2026-04-11T11:50:01Z</time></trkpt><trkpt lat="46.200984596738714" lon="13.27966544523721"><ele>208.66666666666669</ele><time>2026-04-11T11:50:02Z</time></trkpt><trkpt lat="46.20099734053169" lon="13.279897866616144"><ele>208.33333333333331</ele><time>2026-04-11T11:50:03Z</time></trkpt><trkpt lat="46.201008996102615" lon="13.280117466263457"><ele>208.0</ele><time>2026-04-11T11:50:04Z</time></trkpt><trkpt lat="46.20102388465402" lon="13.280364804877586"><ele>208.0</ele><time>2026-04-11T11:50:05Z</time></trkpt><trkpt lat="46.201036450078526" lon="13.280609135371424"><ele>208.0</ele><time>2026-04-11T11:50:06Z</time></trkpt><trkpt lat="46.20104661599937" lon="13.280851015707059"><ele>208.0</ele><time>2026-04-11T11:50:07Z</time></trkpt><trkpt lat="46.20105648845088" lon="13.281090412282463"><ele>208.0</ele><time>2026-04-11T11:50:08Z</time></trkpt><trkpt lat="46.20106163325979" lon="13.281330879485052"><ele>208.0</ele><time>2026-04-11T11:50:09Z</time></trkpt><trkpt lat="46.201068682313625" lon="13.28159022053723"><ele>208.0</ele><time>2026-04-11T11:50:10Z</time></trkpt><trkpt lat="46.20107370707517" lon="13.28185311030703"><ele>207.66666666666666</ele><time>2026-04-11T11:50:11Z</time></trkpt><trkpt lat="46.20108171454444" lon="13.282103161103178"><ele>207.33333333333331</ele><time>2026-04-11T11:50:12Z</time></trkpt><trkpt lat="46.20109273803853" lon="13.282358192897666"><ele>207.0</ele><time>2026-04-11T11:50:13Z</time></trkpt><trkpt lat="46.20110986380449" lon="13.282612457752606"><ele>208.33333333333331</ele><time>2026-04-11T11:50:14Z</time></trkpt><trkpt lat="46.201132811561365" lon="13.282869755769942"><ele>209.66666666666666</ele><time>2026-04-11T11:50:15Z</time></trkpt><trkpt lat="46.201154835640835" lon="13.283104849659255"><ele>211.0</ele><time>2026-04-11T11:50:16Z</time></trkpt><trkpt lat="46.20117485717129" lon="13.2833414384117"><ele>212.66666666666666</ele><time>2026-04-11T11:50:17Z</time></trkpt><trkpt lat="46.20119599872574" lon="13.283582610419865"><ele>214.33333333333331</ele><time>2026-04-11T11:50:18Z</time></trkpt><trkpt lat="46.20121722089621" lon="13.283829125209905"><ele>216.0</ele><time>2026-04-11T11:50:19Z</time></trkpt><trkpt lat="46.201236786035984" lon="13.284073634677789"><ele>216.33333333333331</ele><time>2026-04-11T11:50:20Z</time></trkpt><trkpt lat="46.20125698367135" lon="13.284318321111405"><ele>216.66666666666666</ele><time>2026-04-11T11:50:21Z</time></trkpt><trkpt lat="46.20127711964744" lon="13.28456128960373"><ele>217.0</ele><time>2026-04-11T11:50:22Z</time></trkpt><trkpt lat="46.201297190389106" lon="13.284802347686153"><ele>217.0</ele><time>2026-04-11T11:50:23Z</time></trkpt><trkpt lat="46.20131684329537" lon="13.285039546909145"><ele>217.0</ele><time>2026-04-11T11:50:24Z</time></trkpt><trkpt lat="46.20133637180041" lon="13.285270566185407"><ele>217.0</ele><time>2026-04-11T11:50:25Z</time></trkpt><trkpt lat="46.20135249270052" lon="13.285479290940778"><ele>216.75</ele><time>2026-04-11T11:50:25.999Z</time></trkpt><trkpt lat="46.20136192064592" lon="13.28567744035313"><ele>216.5</ele><time>2026-04-11T11:50:26.999Z</time></trkpt><trkpt lat="46.20135163113137" lon="13.285877237137028"><ele>216.25</ele><time>2026-04-11T11:50:27.999Z</time></trkpt><trkpt lat="46.20130159613026" lon="13.286080283078139"><ele>216.0</ele><time>2026-04-11T11:50:28.999Z</time></trkpt><trkpt lat="46.20121430420446" lon="13.286282506187316"><ele>216.33333333333331</ele><time>2026-04-11T11:50:29.999Z</time></trkpt><trkpt lat="46.20110798216411" lon="13.28649122871021"><ele>216.66666666666666</ele><time>2026-04-11T11:50:30.999Z</time></trkpt><trkpt lat="46.20101940052608" lon="13.286697773183555"><ele>217.0</ele><time>2026-04-11T11:50:31.999Z</time></trkpt><trkpt lat="46.200936130832694" lon="13.28689956087044"><ele>217.0</ele><time>2026-04-11T11:50:32.999Z</time></trkpt><trkpt lat="46.20084205081082" lon="13.287109998676588"><ele>217.0</ele><time>2026-04-11T11:50:33.999Z</time></trkpt><trkpt lat="46.20074520447225" lon="13.287324006090127"><ele>217.0</ele><time>2026-04-11T11:50:34.999Z</time></trkpt><trkpt lat="46.200654893675946" lon="13.287539519135228"><ele>219.33333333333331</ele><time>2026-04-11T11:50:35.999Z</time></trkpt><trkpt lat="46.200565449363154" lon="13.28775213273628"><ele>221.66666666666669</ele><time>2026-04-11T11:50:36.999Z</time></trkpt><trkpt lat="46.20048162935982" lon="13.287936959384231"><ele>224.0</ele><time>2026-04-11T11:50:37.999Z</time></trkpt><trkpt lat="46.20039156681652" lon="13.288100123590507"><ele>226.5</ele><time>2026-04-11T11:50:38.999Z</time></trkpt><trkpt lat="46.20029087121828" lon="13.288228665465468"><ele>229.0</ele><time>2026-04-11T11:50:39.999Z</time></trkpt><trkpt lat="46.20017186036958" lon="13.28833589958906"><ele>231.5</ele><time>2026-04-11T11:50:40.999Z</time></trkpt><trkpt lat="46.20003933511649" lon="13.28841202060091"><ele>234.0</ele><time>2026-04-11T11:50:41.999Z</time></trkpt><trkpt lat="46.199893611152966" lon="13.288463890717834"><ele>234.5</ele><time>2026-04-11T11:50:42.999Z</time></trkpt><trkpt lat="46.19974148109139" lon="13.288441509678755"><ele>235.0</ele><time>2026-04-11T11:50:43.999Z</time></trkpt><trkpt lat="46.19959271713582" lon="13.288475891089197"><ele>235.5</ele><time>2026-04-11T11:50:44.999Z</time></trkpt><trkpt lat="46.19946335280387" lon="13.28854726252644"><ele>236.0</ele><time>2026-04-11T11:50:45.999Z</time></trkpt><trkpt lat="46.19935373146698" lon="13.288665088012584"><ele>236.0</ele><time>2026-04-11T11:50:46.999Z</time></trkpt><trkpt lat="46.199264858462456" lon="13.288830466923615"><ele>236.0</ele><time>2026-04-11T11:50:47.999Z</time></trkpt><trkpt lat="46.19918908721597" lon="13.289043340049707"><ele>236.0</ele><time>2026-04-11T11:50:48.999Z</time></trkpt><trkpt lat="46.19909569931253" lon="13.289202918387318"><ele>239.5</ele><time>2026-04-11T11:50:49.999Z</time></trkpt><trkpt lat="46.19901142618511" lon="13.28935172773591"><ele>243.0</ele><time>2026-04-11T11:50:50.999Z</time></trkpt><trkpt lat="46.19893865247756" lon="13.289505395450698"><ele>246.5</ele><time>2026-04-11T11:50:51.999Z</time></trkpt><trkpt lat="46.19886983081357" lon="13.289621993924214"><ele>250.0</ele><time>2026-04-11T11:50:52.999Z</time></trkpt><trkpt lat="46.19879027603314" lon="13.289712461050874"><ele>251.8</ele><time>2026-04-11T11:50:53.999Z</time></trkpt><trkpt lat="46.19867927754146" lon="13.28975675092232"><ele>253.6</ele><time>2026-04-11T11:50:54.999Z</time></trkpt><trkpt lat="46.19858542996156" lon="13.28972168501753"><ele>255.39999999999998</ele><time>2026-04-11T11:50:55.999Z</time></trkpt><trkpt lat="46.19850982511084" lon="13.289618354184363"><ele>257.2</ele><time>2026-04-11T11:50:56.999Z</time></trkpt><trkpt lat="46.198468631642264" lon="13.289458209792457"><ele>259.0</ele><time>2026-04-11T11:50:57.999Z</time></trkpt><trkpt lat="46.19845397897054" lon="13.289287427016125"><ele>259.0</ele><time>2026-04-11T11:50:58.999Z</time></trkpt><trkpt lat="46.19841709487088" lon="13.289135925439869"><ele>259.0</ele><time>2026-04-11T11:50:59.999Z</time></trkpt><trkpt lat="46.1983388473863" lon="13.289021124878662"><ele>259.0</ele><time>2026-04-11T11:51:00.999Z</time></trkpt><trkpt lat="46.198233786344495" lon="13.288944033110617"><ele>259.0</ele><time>2026-04-11T11:51:01.999Z</time></trkpt><trkpt lat="46.19811744337239" lon="13.288906441975923"><ele>259.75</ele><time>2026-04-11T11:51:02.999Z</time></trkpt><trkpt lat="46.19797649650601" lon="13.288905864322539"><ele>260.5</ele><time>2026-04-11T11:51:03.999Z</time></trkpt><trkpt lat="46.197832725329924" lon="13.288895587472627"><ele>261.25</ele><time>2026-04-11T11:51:04.999Z</time></trkpt><trkpt lat="46.19770620335581" lon="13.288872773996292"><ele>262.0</ele><time>2026-04-11T11:51:06Z</time></trkpt><trkpt lat="46.19758300772606" lon="13.288891923325254"><ele>264.66666666666663</ele><time>2026-04-11T11:51:07Z</time></trkpt><trkpt lat="46.19746023485171" lon="13.288977012699489"><ele>267.3333333333333</ele><time>2026-04-11T11:51:08Z</time></trkpt><trkpt lat="46.197330559290876" lon="13.289124946610363"><ele>270.0</ele><time>2026-04-11T11:51:09Z</time></trkpt><trkpt lat="46.197233132827144" lon="13.289306200861034"><ele>270.25</ele><time>2026-04-11T11:51:10Z</time></trkpt><trkpt lat="46.19714344346634" lon="13.289472392138926"><ele>270.5</ele><time>2026-04-11T11:51:11Z</time></trkpt><trkpt lat="46.19703730734702" lon="13.289602707647568"><ele>270.75</ele><time>2026-04-11T11:51:12Z</time></trkpt><trkpt lat="46.196934485771266" lon="13.289747084680124"><ele>271.0</ele><time>2026-04-11T11:51:13Z</time></trkpt><trkpt lat="46.19685970527511" lon="13.289894693905623"><ele>267.75</ele><time>2026-04-11T11:51:14Z</time></trkpt><trkpt lat="46.19681462973741" lon="13.290042849089467"><ele>264.5</ele><time>2026-04-11T11:51:15Z</time></trkpt><trkpt lat="46.19681176688355" lon="13.2902076061291"><ele>261.25</ele><time>2026-04-11T11:51:16Z</time></trkpt><trkpt lat="46.19683811660896" lon="13.290373718650404"><ele>258.0</ele><time>2026-04-11T11:51:17Z</time></trkpt><trkpt lat="46.196901642386415" lon="13.290500231956099"><ele>255.0</ele><time>2026-04-11T11:51:18Z</time></trkpt><trkpt lat="46.19699795896162" lon="13.290602379718285"><ele>252.0</ele><time>2026-04-11T11:51:19Z</time></trkpt><trkpt lat="46.19710177716107" lon="13.29070883603819"><ele>249.0</ele><time>2026-04-11T11:51:20Z</time></trkpt><trkpt lat="46.19720417408342" lon="13.290822650557516"><ele>246.0</ele><time>2026-04-11T11:51:21Z</time></trkpt><trkpt lat="46.19729239602105" lon="13.29096506183271"><ele>247.25</ele><time>2026-04-11T11:51:22Z</time></trkpt><trkpt lat="46.19735635593767" lon="13.29113387325014"><ele>248.5</ele><time>2026-04-11T11:51:23Z</time></trkpt><trkpt lat="46.197397567334114" lon="13.291305022381966"><ele>249.75</ele><time>2026-04-11T11:51:24Z</time></trkpt><trkpt lat="46.19746106047877" lon="13.291452759437187"><ele>251.0</ele><time>2026-04-11T11:51:25Z</time></trkpt><trkpt lat="46.19757151746211" lon="13.291584746133495"><ele>251.0</ele><time>2026-04-11T11:51:26Z</time></trkpt><trkpt lat="46.19771361027834" lon="13.291716323468796"><ele>251.0</ele><time>2026-04-11T11:51:27Z</time></trkpt><trkpt lat="46.197873606168635" lon="13.291857732809671"><ele>251.0</ele><time>2026-04-11T11:51:28Z</time></trkpt><trkpt lat="46.19801405287334" lon="13.291983159657669"><ele>251.0</ele><time>2026-04-11T11:51:29Z</time></trkpt><trkpt lat="46.19813399637533" lon="13.292097968326877"><ele>251.0</ele><time>2026-04-11T11:51:30Z</time></trkpt><trkpt lat="46.19823832275781" lon="13.292197297567226"><ele>251.0</ele><time>2026-04-11T11:51:31Z</time></trkpt><trkpt lat="46.19833984401686" lon="13.292283481868326"><ele>251.0</ele><time>2026-04-11T11:51:32Z</time></trkpt><trkpt lat="46.19843489249344" lon="13.292365348320097"><ele>253.20000000000002</ele><time>2026-04-11T11:51:33Z</time></trkpt><trkpt lat="46.19850831277313" lon="13.292466360960178"><ele>255.40000000000003</ele><time>2026-04-11T11:51:34Z</time></trkpt><trkpt lat="46.198544459849536" lon="13.292589585307905"><ele>257.6</ele><time>2026-04-11T11:51:35Z</time></trkpt><trkpt lat="46.19853518017295" lon="13.292732654273184"><ele>259.8</ele><time>2026-04-11T11:51:36Z</time></trkpt><trkpt lat="46.19847966229394" lon="13.292843290820489"><ele>262.0</ele><time>2026-04-11T11:51:37Z</time></trkpt><trkpt lat="46.198399421161604" lon="13.292907298225208"><ele>262.0</ele><time>2026-04-11T11:51:38Z</time></trkpt><trkpt lat="46.19829565883127" lon="13.292913096891269"><ele>262.0</ele><time>2026-04-11T11:51:39Z</time></trkpt><trkpt lat="46.19819285402445" lon="13.292819365036912"><ele>262.0</ele><time>2026-04-11T11:51:40Z</time></trkpt><trkpt lat="46.1980541429766" lon="13.292755000135056"><ele>262.0</ele><time>2026-04-11T11:51:41Z</time></trkpt><trkpt lat="46.19790497300065" lon="13.292704635753603"><ele>256.66666666666663</ele><time>2026-04-11T11:51:42Z</time></trkpt><trkpt lat="46.1977424573587" lon="13.292682420749538"><ele>251.33333333333331</ele><time>2026-04-11T11:51:43Z</time></trkpt><trkpt lat="46.197560648476355" lon="13.292661964595615"><ele>246.0</ele><time>2026-04-11T11:51:44Z</time></trkpt><trkpt lat="46.197384509617045" lon="13.292645475701677"><ele>241.25</ele><time>2026-04-11T11:51:45Z</time></trkpt><trkpt lat="46.19722941151415" lon="13.292605887092762"><ele>236.5</ele><time>2026-04-11T11:51:46Z</time></trkpt><trkpt lat="46.19708944008417" lon="13.292592707504285"><ele>231.75</ele><time>2026-04-11T11:51:47Z</time></trkpt><trkpt lat="46.196956990729134" lon="13.292598600508008"><ele>227.0</ele><time>2026-04-11T11:51:48Z</time></trkpt><trkpt lat="46.196828557619305" lon="13.292636053721376"><ele>227.0</ele><time>2026-04-11T11:51:49Z</time></trkpt><trkpt lat="46.19672597538029" lon="13.292729123594793"><ele>227.0</ele><time>2026-04-11T11:51:50Z</time></trkpt><trkpt lat="46.19663982730603" lon="13.292835435731485"><ele>227.0</ele><time>2026-04-11T11:51:51Z</time></trkpt><trkpt lat="46.1965813962839" lon="13.292983159897773"><ele>227.0</ele><time>2026-04-11T11:51:52Z</time></trkpt><trkpt lat="46.19656877211822" lon="13.293173241356804"><ele>225.5</ele><time>2026-04-11T11:51:53Z</time></trkpt><trkpt lat="46.196569539634815" lon="13.29334794578977"><ele>224.0</ele><time>2026-04-11T11:51:54Z</time></trkpt><trkpt lat="46.19653349015762" lon="13.293516020696089"><ele>222.5</ele><time>2026-04-11T11:51:55Z</time></trkpt><trkpt lat="46.196452786967654" lon="13.293649630573238"><ele>221.0</ele><time>2026-04-11T11:51:56Z</time></trkpt><trkpt lat="46.19638265438082" lon="13.293769660535311"><ele>221.0</ele><time>2026-04-11T11:51:57Z</time></trkpt><trkpt lat="46.196359072500556" lon="13.293912066597773"><ele>221.00000000000003</ele><time>2026-04-11T11:51:58Z</time></trkpt><trkpt lat="46.19639148840874" lon="13.294068204711417"><ele>221.00000000000003</ele><time>2026-04-11T11:51:59Z</time></trkpt><trkpt lat="46.19646687280262" lon="13.29419697096096"><ele>221.0</ele><time>2026-04-11T11:52:00Z</time></trkpt><trkpt lat="46.19655436251087" lon="13.29425926860421"><ele>221.0</ele><time>2026-04-11T11:52:01Z</time></trkpt><trkpt lat="46.19663406827957" lon="13.294334318479503"><ele>219.8</ele><time>2026-04-11T11:52:02Z</time></trkpt><trkpt lat="46.19667127716147" lon="13.294451534744566"><ele>218.60000000000002</ele><time>2026-04-11T11:52:03Z</time></trkpt><trkpt lat="46.196653636080605" lon="13.294592207837141"><ele>217.4</ele><time>2026-04-11T11:52:04Z</time></trkpt><trkpt lat="46.19658380839924" lon="13.294688368559232"><ele>216.2</ele><time>2026-04-11T11:52:05Z</time></trkpt><trkpt lat="46.19648654603068" lon="13.294707117544023"><ele>215.0</ele><time>2026-04-11T11:52:06Z</time></trkpt><trkpt lat="46.19638024124127" lon="13.294672490614175"><ele>215.0</ele><time>2026-04-11T11:52:07Z</time></trkpt><trkpt lat="46.19625926623925" lon="13.294619769216105"><ele>215.0</ele><time>2026-04-11T11:52:08Z</time></trkpt><trkpt lat="46.196146674978685" lon="13.29459979934206"><ele>215.0</ele><time>2026-04-11T11:52:09Z</time></trkpt><trkpt lat="46.19604055471881" lon="13.294653126817204"><ele>215.0</ele><time>2026-04-11T11:52:10Z</time></trkpt><trkpt lat="46.195961666765506" lon="13.29473806650913"><ele>214.2</ele><time>2026-04-11T11:52:11Z</time></trkpt><trkpt lat="46.19590212689095" lon="13.294847451717228"><ele>213.4</ele><time>2026-04-11T11:52:12Z</time></trkpt><trkpt lat="46.19585812966461" lon="13.294968401162473"><ele>212.60000000000002</ele><time>2026-04-11T11:52:13Z</time></trkpt><trkpt lat="46.1958294564122" lon="13.29511251039334"><ele>211.8</ele><time>2026-04-11T11:52:14Z</time></trkpt><trkpt lat="46.195816015304715" lon="13.295268149923572"><ele>211.0</ele><time>2026-04-11T11:52:15Z</time></trkpt><trkpt lat="46.195826330995374" lon="13.295402904790581"><ele>211.0</ele><time>2026-04-11T11:52:16Z</time></trkpt><trkpt lat="46.19584187316442" lon="13.295529662718863"><ele>211.0</ele><time>2026-04-11T11:52:17Z</time></trkpt><trkpt lat="46.195855858747684" lon="13.295709765426565"><ele>211.0</ele><time>2026-04-11T11:52:18Z</time></trkpt><trkpt lat="46.19586485932162" lon="13.295952516670464"><ele>211.0</ele><time>2026-04-11T11:52:19Z</time></trkpt><trkpt lat="46.19585063511036" lon="13.296248669283205"><ele>210.66666666666666</ele><time>2026-04-11T11:52:20Z</time></trkpt><trkpt lat="46.195810840480206" lon="13.296567076303155"><ele>210.33333333333331</ele><time>2026-04-11T11:52:21Z</time></trkpt><trkpt lat="46.19574239468209" lon="13.296830202174668"><ele>210.0</ele><time>2026-04-11T11:52:22Z</time></trkpt><trkpt lat="46.195656168258104" lon="13.297081743249313"><ele>207.66666666666669</ele><time>2026-04-11T11:52:23Z</time></trkpt><trkpt lat="46.19555530788909" lon="13.297353704625174"><ele>205.33333333333334</ele><time>2026-04-11T11:52:24Z</time></trkpt><trkpt lat="46.19545153620825" lon="13.297609969359865"><ele>203.0</ele><time>2026-04-11T11:52:25Z</time></trkpt><trkpt lat="46.195337998391594" lon="13.297872142113318"><ele>203.66666666666669</ele><time>2026-04-11T11:52:26Z</time></trkpt><trkpt lat="46.19521884249387" lon="13.298139521111294"><ele>204.33333333333331</ele><time>2026-04-11T11:52:27Z</time></trkpt><trkpt lat="46.19511112499406" lon="13.29839599383785"><ele>205.0</ele><time>2026-04-11T11:52:28Z</time></trkpt><trkpt lat="46.19500264692806" lon="13.298647459042437"><ele>205.0</ele><time>2026-04-11T11:52:29Z</time></trkpt><trkpt lat="46.19489833018288" lon="13.298898669859728"><ele>205.0</ele><time>2026-04-11T11:52:29.999Z</time></trkpt><trkpt lat="46.19479699039271" lon="13.299148944118095"><ele>205.0</ele><time>2026-04-11T11:52:30.999Z</time></trkpt><trkpt lat="46.194693926254125" lon="13.299396966259165"><ele>205.33333333333331</ele><time>2026-04-11T11:52:31.999Z</time></trkpt><trkpt lat="46.194587634337154" lon="13.299644428295274"><ele>205.66666666666669</ele><time>2026-04-11T11:52:32.999Z</time></trkpt><trkpt lat="46.19447800078889" lon="13.299889760020355"><ele>206.0</ele><time>2026-04-11T11:52:33.999Z</time></trkpt><trkpt lat="46.194355623555104" lon="13.300125698387218"><ele>203.66666666666669</ele><time>2026-04-11T11:52:34.999Z</time></trkpt><trkpt lat="46.19421303495375" lon="13.300349301025484"><ele>201.33333333333331</ele><time>2026-04-11T11:52:35.999Z</time></trkpt><trkpt lat="46.194052723389014" lon="13.300571996767749"><ele>199.0</ele><time>2026-04-11T11:52:36.999Z</time></trkpt><trkpt lat="46.193882040423155" lon="13.300775580587159"><ele>199.0</ele><time>2026-04-11T11:52:37.999Z</time></trkpt><trkpt lat="46.19371180469587" lon="13.300961421575415"><ele>199.0</ele><time>2026-04-11T11:52:38.999Z</time></trkpt><trkpt lat="46.193541639853585" lon="13.3011493285054"><ele>199.0</ele><time>2026-04-11T11:52:39.999Z</time></trkpt><trkpt lat="46.19337096150341" lon="13.3013408557275"><ele>197.33333333333331</ele><time>2026-04-11T11:52:40.999Z</time></trkpt><trkpt lat="46.19319858196573" lon="13.30152951769813"><ele>195.66666666666669</ele><time>2026-04-11T11:52:41.999Z</time></trkpt><trkpt lat="46.19302485057695" lon="13.301721502680078"><ele>194.0</ele><time>2026-04-11T11:52:42.999Z</time></trkpt><trkpt lat="46.19285114448987" lon="13.301916182162323"><ele>194.33333333333334</ele><time>2026-04-11T11:52:43.999Z</time></trkpt><trkpt lat="46.192676003682145" lon="13.302108063694726"><ele>194.66666666666669</ele><time>2026-04-11T11:52:44.999Z</time></trkpt><trkpt lat="46.19250424260894" lon="13.302293270975602"><ele>195.0</ele><time>2026-04-11T11:52:45.999Z</time></trkpt><trkpt lat="46.192337205722765" lon="13.302477151233774"><ele>195.33333333333331</ele><time>2026-04-11T11:52:46.999Z</time></trkpt><trkpt lat="46.19217441721378" lon="13.302654592923439"><ele>195.66666666666666</ele><time>2026-04-11T11:52:47.999Z</time></trkpt><trkpt lat="46.192017542095336" lon="13.302821587810746"><ele>196.0</ele><time>2026-04-11T11:52:48.999Z</time></trkpt><trkpt lat="46.19186292264618" lon="13.302980511034471"><ele>196.0</ele><time>2026-04-11T11:52:49.999Z</time></trkpt><trkpt lat="46.19170172024089" lon="13.30313200025916"><ele>196.0</ele><time>2026-04-11T11:52:50.999Z</time></trkpt><trkpt lat="46.191529630815246" lon="13.303262743214827"><ele>196.0</ele><time>2026-04-11T11:52:51.999Z</time></trkpt><trkpt lat="46.191344368887144" lon="13.30338537425115"><ele>195.33333333333331</ele><time>2026-04-11T11:52:52.999Z</time></trkpt><trkpt lat="46.19114942771179" lon="13.303511142283662"><ele>194.66666666666669</ele><time>2026-04-11T11:52:53.999Z</time></trkpt><trkpt lat="46.190970618137804" lon="13.303624738895753"><ele>194.0</ele><time>2026-04-11T11:52:54.999Z</time></trkpt><trkpt lat="46.1907961513038" lon="13.303740320331622"><ele>194.0</ele><time>2026-04-11T11:52:55.999Z</time></trkpt><trkpt lat="46.19062866801641" lon="13.30387077465823"><ele>194.0</ele><time>2026-04-11T11:52:56.999Z</time></trkpt><trkpt lat="46.1904830777874" lon="13.30401543996862"><ele>194.0</ele><time>2026-04-11T11:52:57.999Z</time></trkpt><trkpt lat="46.19035180770819" lon="13.30417075265108"><ele>194.0</ele><time>2026-04-11T11:52:58.999Z</time></trkpt><trkpt lat="46.19022362990034" lon="13.304341999579506"><ele>194.0</ele><time>2026-04-11T11:52:59.999Z</time></trkpt><trkpt lat="46.19011134454768" lon="13.304520371631016"><ele>194.0</ele><time>2026-04-11T11:53:00.999Z</time></trkpt><trkpt lat="46.1900174242091" lon="13.304697000378402"><ele>194.5</ele><time>2026-04-11T11:53:01.999Z</time></trkpt><trkpt lat="46.18993542920181" lon="13.304871187745645"><ele>195.0</ele><time>2026-04-11T11:53:02.999Z</time></trkpt><trkpt lat="46.18986742497418" lon="13.305025798106334"><ele>195.5</ele><time>2026-04-11T11:53:03.999Z</time></trkpt><trkpt lat="46.18979959936922" lon="13.305174982772256"><ele>196.0</ele><time>2026-04-11T11:53:04.999Z</time></trkpt><trkpt lat="46.189725056851984" lon="13.305312424350733"><ele>196.0</ele><time>2026-04-11T11:53:05.999Z</time></trkpt><trkpt lat="46.18963419735664" lon="13.305424979841131"><ele>196.0</ele><time>2026-04-11T11:53:06.999Z</time></trkpt><trkpt lat="46.189525595175226" lon="13.305500170459375"><ele>196.0</ele><time>2026-04-11T11:53:07.999Z</time></trkpt><trkpt lat="46.18938667707558" lon="13.305518782600942"><ele>196.0</ele><time>2026-04-11T11:53:08.999Z</time></trkpt><trkpt lat="46.189250101437764" lon="13.305516535414244"><ele>196.0</ele><time>2026-04-11T11:53:09.999Z</time></trkpt><trkpt lat="46.18912561694567" lon="13.305530047546622"><ele>196.0</ele><time>2026-04-11T11:53:10.999Z</time></trkpt><trkpt lat="46.188999223115985" lon="13.305526243676628"><ele>196.0</ele><time>2026-04-11T11:53:12Z</time></trkpt><trkpt lat="46.18887036318715" lon="13.305532457808559"><ele>196.0</ele><time>2026-04-11T11:53:13Z</time></trkpt><trkpt lat="46.188748334352816" lon="13.305561115991473"><ele>195.75</ele><time>2026-04-11T11:53:14Z</time></trkpt><trkpt lat="46.188637000345636" lon="13.305621899304622"><ele>195.5</ele><time>2026-04-11T11:53:15Z</time></trkpt><trkpt lat="46.188532943030864" lon="13.30569713734185"><ele>195.25</ele><time>2026-04-11T11:53:16Z</time></trkpt><trkpt lat="46.1884338971174" lon="13.305794858606859"><ele>195.0</ele><time>2026-04-11T11:53:17Z</time></trkpt><trkpt lat="46.18833201554593" lon="13.305915060945006"><ele>195.0</ele><time>2026-04-11T11:53:18Z</time></trkpt><trkpt lat="46.188232087223234" lon="13.306022818694645"><ele>195.0</ele><time>2026-04-11T11:53:19Z</time></trkpt><trkpt lat="46.1881381469413" lon="13.306109367618241"><ele>195.0</ele><time>2026-04-11T11:53:20Z</time></trkpt><trkpt lat="46.18804144781626" lon="13.306206863178632"><ele>195.0</ele><time>2026-04-11T11:53:21Z</time></trkpt><trkpt lat="46.18794602462706" lon="13.30629500742845"><ele>194.75</ele><time>2026-04-11T11:53:22Z</time></trkpt><trkpt lat="46.18783250194459" lon="13.306332768827453"><ele>194.5</ele><time>2026-04-11T11:53:23Z</time></trkpt><trkpt lat="46.18772040660636" lon="13.30638255572182"><ele>194.25</ele><time>2026-04-11T11:53:24Z</time></trkpt><trkpt lat="46.18759598078384" lon="13.306430572070983"><ele>194.0</ele><time>2026-04-11T11:53:25Z</time></trkpt><trkpt lat="46.187472400018855" lon="13.306494024070986"><ele>194.0</ele><time>2026-04-11T11:53:26Z</time></trkpt><trkpt lat="46.1873413652454" lon="13.30650809402103"><ele>194.0</ele><time>2026-04-11T11:53:27Z</time></trkpt><trkpt lat="46.18720611058663" lon="13.306549937021376"><ele>194.0</ele><time>2026-04-11T11:53:28Z</time></trkpt><trkpt lat="46.18706888768655" lon="13.306592582908815"><ele>194.0</ele><time>2026-04-11T11:53:29Z</time></trkpt><trkpt lat="46.18694164901068" lon="13.306662705558264"><ele>194.0</ele><time>2026-04-11T11:53:30Z</time></trkpt><trkpt lat="46.18681582391612" lon="13.306715880284237"><ele>194.0</ele><time>2026-04-11T11:53:31Z</time></trkpt><trkpt lat="46.18669158846065" lon="13.306786747459451"><ele>194.0</ele><time>2026-04-11T11:53:32Z</time></trkpt><trkpt lat="46.18656666572552" lon="13.306868255844888"><ele>194.0</ele><time>2026-04-11T11:53:33Z</time></trkpt><trkpt lat="46.1864371090567" lon="13.306956460200373"><ele>193.33333333333334</ele><time>2026-04-11T11:53:34Z</time></trkpt><trkpt lat="46.18630516528662" lon="13.307047184892332"><ele>192.66666666666669</ele><time>2026-04-11T11:53:35Z</time></trkpt><trkpt lat="46.18616046742305" lon="13.30712023846414"><ele>192.0</ele><time>2026-04-11T11:53:36Z</time></trkpt><trkpt lat="46.186024045756724" lon="13.30723847528442"><ele>192.66666666666669</ele><time>2026-04-11T11:53:37Z</time></trkpt><trkpt lat="46.185875863296836" lon="13.307316327127849"><ele>193.33333333333334</ele><time>2026-04-11T11:53:38Z</time></trkpt><trkpt lat="46.18571949574951" lon="13.307389653475736"><ele>194.0</ele><time>2026-04-11T11:53:39Z</time></trkpt><trkpt lat="46.18554640595225" lon="13.307466489820294"><ele>192.66666666666669</ele><time>2026-04-11T11:53:40Z</time></trkpt><trkpt lat="46.18536479736775" lon="13.307538990409794"><ele>191.33333333333334</ele><time>2026-04-11T11:53:41Z</time></trkpt><trkpt lat="46.18517240633552" lon="13.307587790279474"><ele>190.0</ele><time>2026-04-11T11:53:42Z</time></trkpt><trkpt lat="46.18498349590329" lon="13.307643362165406"><ele>189.0</ele><time>2026-04-11T11:53:43Z</time></trkpt><trkpt lat="46.18480129669399" lon="13.307698267883591"><ele>188.0</ele><time>2026-04-11T11:53:44Z</time></trkpt><trkpt lat="46.18461888620989" lon="13.307754113543757"><ele>187.0</ele><time>2026-04-11T11:53:45Z</time></trkpt><trkpt lat="46.18443198951897" lon="13.30783351197906"><ele>187.0</ele><time>2026-04-11T11:53:46Z</time></trkpt><trkpt lat="46.18423360953679" lon="13.307892667485403"><ele>187.0</ele><time>2026-04-11T11:53:47Z</time></trkpt><trkpt lat="46.184032560067934" lon="13.3079556090519"><ele>187.0</ele><time>2026-04-11T11:53:48Z</time></trkpt><trkpt lat="46.1838334793411" lon="13.30803638578049"><ele>186.66666666666669</ele><time>2026-04-11T11:53:49Z</time></trkpt><trkpt lat="46.183641068703494" lon="13.3081465242569"><ele>186.33333333333334</ele><time>2026-04-11T11:53:50Z</time></trkpt><trkpt lat="46.18345938306683" lon="13.308279175032556"><ele>186.0</ele><time>2026-04-11T11:53:51Z</time></trkpt><trkpt lat="46.18328570040276" lon="13.30843703854753"><ele>186.0</ele><time>2026-04-11T11:53:52Z</time></trkpt><trkpt lat="46.18309970057006" lon="13.308586975131957"><ele>186.0</ele><time>2026-04-11T11:53:53Z</time></trkpt><trkpt lat="46.18289859955229" lon="13.308773430536869"><ele>189.5</ele><time>2026-04-11T11:53:54Z</time></trkpt><trkpt lat="46.182686498729716" lon="13.308970150121256"><ele>193.0</ele><time>2026-04-11T11:53:55Z</time></trkpt><trkpt lat="46.182487582128566" lon="13.309181821588586"><ele>192.5</ele><time>2026-04-11T11:53:56Z</time></trkpt><trkpt lat="46.182289187295574" lon="13.309363927799627"><ele>192.0</ele><time>2026-04-11T11:53:57Z</time></trkpt><trkpt lat="46.18209670915548" lon="13.309543956811508"><ele>192.0</ele><time>2026-04-11T11:53:58Z</time></trkpt><trkpt lat="46.181896060664634" lon="13.309700952578433"><ele>192.0</ele><time>2026-04-11T11:53:59Z</time></trkpt><trkpt lat="46.181708360462316" lon="13.309904500663686"><ele>195.0</ele><time>2026-04-11T11:54:00Z</time></trkpt><trkpt lat="46.181504236174696" lon="13.31009304135946"><ele>198.0</ele><time>2026-04-11T11:54:01Z</time></trkpt><trkpt lat="46.18130088496381" lon="13.310280366882587"><ele>198.0</ele><time>2026-04-11T11:54:02Z</time></trkpt><trkpt lat="46.181105767161085" lon="13.310458223521355"><ele>198.0</ele><time>2026-04-11T11:54:03Z</time></trkpt><trkpt lat="46.18091625201014" lon="13.310629762849986"><ele>197.0</ele><time>2026-04-11T11:54:04Z</time></trkpt><trkpt lat="46.180721568871384" lon="13.310803626957673"><ele>196.0</ele><time>2026-04-11T11:54:05Z</time></trkpt><trkpt lat="46.18051543863327" lon="13.310982698619927"><ele>193.5</ele><time>2026-04-11T11:54:06Z</time></trkpt><trkpt lat="46.18029847895638" lon="13.311166751523517"><ele>191.0</ele><time>2026-04-11T11:54:07Z</time></trkpt><trkpt lat="46.180074011544185" lon="13.311352756976506"><ele>185.0</ele><time>2026-04-11T11:54:08Z</time></trkpt><trkpt lat="46.17984229658985" lon="13.311544058039544"><ele>179.0</ele><time>2026-04-11T11:54:09Z</time></trkpt><trkpt lat="46.17960670276864" lon="13.31174084551173"><ele>179.0</ele><time>2026-04-11T11:54:10Z</time></trkpt><trkpt lat="46.1793754464734" lon="13.311938500595335"><ele>179.0</ele><time>2026-04-11T11:54:11Z</time></trkpt><trkpt lat="46.17915600406432" lon="13.312123220082386"><ele>176.5</ele><time>2026-04-11T11:54:12Z</time></trkpt><trkpt lat="46.17894433841866" lon="13.312298035163238"><ele>174.0</ele><time>2026-04-11T11:54:13Z</time></trkpt><trkpt lat="46.178741511217055" lon="13.312470572783697"><ele>174.0</ele><time>2026-04-11T11:54:14Z</time></trkpt><trkpt lat="46.17854637331677" lon="13.31263505594551"><ele>174.0</ele><time>2026-04-11T11:54:15Z</time></trkpt><trkpt lat="46.17835453115096" lon="13.312794118944298"><ele>174.0</ele><time>2026-04-11T11:54:16Z</time></trkpt><trkpt lat="46.178157229482245" lon="13.312956399481102"><ele>174.66666666666666</ele><time>2026-04-11T11:54:17Z</time></trkpt><trkpt lat="46.17796358333392" lon="13.313119830111884"><ele>175.33333333333331</ele><time>2026-04-11T11:54:18Z</time></trkpt><trkpt lat="46.17778043256281" lon="13.313275163001167"><ele>176.0</ele><time>2026-04-11T11:54:19Z</time></trkpt><trkpt lat="46.177603289868145" lon="13.313423360220137"><ele>176.0</ele><time>2026-04-11T11:54:20Z</time></trkpt><trkpt lat="46.1774308162153" lon="13.313566475367"><ele>176.0</ele><time>2026-04-11T11:54:21Z</time></trkpt><trkpt lat="46.17725934295483" lon="13.313714545293875"><ele>176.0</ele><time>2026-04-11T11:54:22Z</time></trkpt><trkpt lat="46.17708642585799" lon="13.313861263796094"><ele>176.33333333333331</ele><time>2026-04-11T11:54:22.999Z</time></trkpt><trkpt lat="46.176909906092924" lon="13.314011822988691"><ele>176.66666666666666</ele><time>2026-04-11T11:54:23.999Z</time></trkpt><trkpt lat="46.176710989866194" lon="13.314162359177761"><ele>177.0</ele><time>2026-04-11T11:54:24.999Z</time></trkpt><trkpt lat="46.176502661403724" lon="13.314336841964078"><ele>177.5</ele><time>2026-04-11T11:54:25.999Z</time></trkpt><trkpt lat="46.176290553143154" lon="13.314514490463633"><ele>178.0</ele><time>2026-04-11T11:54:26.999Z</time></trkpt><trkpt lat="46.17607780998331" lon="13.314695747204759"><ele>178.5</ele><time>2026-04-11T11:54:27.999Z</time></trkpt><trkpt lat="46.175878420523034" lon="13.314900240542153"><ele>179.0</ele><time>2026-04-11T11:54:28.999Z</time></trkpt><trkpt lat="46.175670413974665" lon="13.315092027599936"><ele>175.5</ele><time>2026-04-11T11:54:29.999Z</time></trkpt><trkpt lat="46.175470016138554" lon="13.315289935401674"><ele>172.0</ele><time>2026-04-11T11:54:30.999Z</time></trkpt><trkpt lat="46.17527052698847" lon="13.315481880812033"><ele>173.0</ele><time>2026-04-11T11:54:31.999Z</time></trkpt><trkpt lat="46.17507012370756" lon="13.315668925796158"><ele>174.0</ele><time>2026-04-11T11:54:32.999Z</time></trkpt><trkpt lat="46.174874829451014" lon="13.31585907823609"><ele>172.0</ele><time>2026-04-11T11:54:33.999Z</time></trkpt><trkpt lat="46.1746795543493" lon="13.316049471749904"><ele>170.0</ele><time>2026-04-11T11:54:34.999Z</time></trkpt><trkpt lat="46.174480289261034" lon="13.316237328730528"><ele>171.0</ele><time>2026-04-11T11:54:35.999Z</time></trkpt><trkpt lat="46.17427908940438" lon="13.31642772905225"><ele>172.0</ele><time>2026-04-11T11:54:36.999Z</time></trkpt><trkpt lat="46.17407717208107" lon="13.316620553962712"><ele>170.5</ele><time>2026-04-11T11:54:37.999Z</time></trkpt><trkpt lat="46.17387972129757" lon="13.316810692244248"><ele>169.0</ele><time>2026-04-11T11:54:38.999Z</time></trkpt><trkpt lat="46.17368322218233" lon="13.316995630572364"><ele>169.0</ele><time>2026-04-11T11:54:39.999Z</time></trkpt><trkpt lat="46.17348659378324" lon="13.31718157541095"><ele>169.0</ele><time>2026-04-11T11:54:40.999Z</time></trkpt><trkpt lat="46.17329013530795" lon="13.317370441783257"><ele>170.0</ele><time>2026-04-11T11:54:41.999Z</time></trkpt><trkpt lat="46.17309601737891" lon="13.317555473394235"><ele>171.0</ele><time>2026-04-11T11:54:42.999Z</time></trkpt><trkpt lat="46.17290219863698" lon="13.317742428631659"><ele>171.0</ele><time>2026-04-11T11:54:43.999Z</time></trkpt><trkpt lat="46.17270480345191" lon="13.317930148416213"><ele>171.0</ele><time>2026-04-11T11:54:44.999Z</time></trkpt><trkpt lat="46.17250663693398" lon="13.31812222157894"><ele>174.5</ele><time>2026-04-11T11:54:45.999Z</time></trkpt><trkpt lat="46.17230957068428" lon="13.318313722476583"><ele>178.0</ele><time>2026-04-11T11:54:46.999Z</time></trkpt><trkpt lat="46.17211545219603" lon="13.318499875655721"><ele>178.0</ele><time>2026-04-11T11:54:47.999Z</time></trkpt><trkpt lat="46.17192404631395" lon="13.318682346164207"><ele>178.0</ele><time>2026-04-11T11:54:48.999Z</time></trkpt><trkpt lat="46.171737890855304" lon="13.318856392012211"><ele>181.0</ele><time>2026-04-11T11:54:49.999Z</time></trkpt><trkpt lat="46.171558269692426" lon="13.319025080186544"><ele>184.0</ele><time>2026-04-11T11:54:50.999Z</time></trkpt><trkpt lat="46.171389885422904" lon="13.319185855897745"><ele>187.0</ele><time>2026-04-11T11:54:51.999Z</time></trkpt><trkpt lat="46.171230003854255" lon="13.319348793655866"><ele>187.0</ele><time>2026-04-11T11:54:52.999Z</time></trkpt><trkpt lat="46.171071762347175" lon="13.319545453598362"><ele>187.0</ele><time>2026-04-11T11:54:53.999Z</time></trkpt><trkpt lat="46.1709024337496" lon="13.319754245471984"><ele>187.0</ele><time>2026-04-11T11:54:54.999Z</time></trkpt><trkpt lat="46.170729189106396" lon="13.319968183647747"><ele>180.5</ele><time>2026-04-11T11:54:55.999Z</time></trkpt><trkpt lat="46.1705572078574" lon="13.320190685970305"><ele>174.0</ele><time>2026-04-11T11:54:56.999Z</time></trkpt><trkpt lat="46.170381728237075" lon="13.320412029718945"><ele>173.5</ele><time>2026-04-11T11:54:57.999Z</time></trkpt><trkpt lat="46.17020486789501" lon="13.320628460780968"><ele>173.0</ele><time>2026-04-11T11:54:58.999Z</time></trkpt><trkpt lat="46.17003557239615" lon="13.320841415285496"><ele>173.0</ele><time>2026-04-11T11:54:59.999Z</time></trkpt><trkpt lat="46.16987950724023" lon="13.321040211994077"><ele>173.0</ele><time>2026-04-11T11:55:00.999Z</time></trkpt><trkpt lat="46.16972316709783" lon="13.321236013579796"><ele>173.0</ele><time>2026-04-11T11:55:01.999Z</time></trkpt><trkpt lat="46.16956943636915" lon="13.321435435270185"><ele>173.0</ele><time>2026-04-11T11:55:02.999Z</time></trkpt><trkpt lat="46.169419485028236" lon="13.321627186359684"><ele>173.0</ele><time>2026-04-11T11:55:03.999Z</time></trkpt><trkpt lat="46.16926979761864" lon="13.32181486821249"><ele>173.0</ele><time>2026-04-11T11:55:04.999Z</time></trkpt><trkpt lat="46.16912082796359" lon="13.322005320489607"><ele>172.66666666666666</ele><time>2026-04-11T11:55:05.999Z</time></trkpt><trkpt lat="46.1689703643359" lon="13.32219998107213"><ele>172.33333333333334</ele><time>2026-04-11T11:55:06.999Z</time></trkpt><trkpt lat="46.168819715348405" lon="13.32238984140211"><ele>172.0</ele><time>2026-04-11T11:55:07.999Z</time></trkpt><trkpt lat="46.16867330308599" lon="13.322576690474529"><ele>172.0</ele><time>2026-04-11T11:55:08.999Z</time></trkpt><trkpt lat="46.168530500495436" lon="13.322757739145993"><ele>172.0</ele><time>2026-04-11T11:55:09.999Z</time></trkpt><trkpt lat="46.16839182131256" lon="13.322935525675275"><ele>172.0</ele><time>2026-04-11T11:55:10.999Z</time></trkpt><trkpt lat="46.16825302767475" lon="13.3231097207178"><ele>172.66666666666669</ele><time>2026-04-11T11:55:11.999Z</time></trkpt><trkpt lat="46.16811423783928" lon="13.323289349401326"><ele>173.33333333333334</ele><time>2026-04-11T11:55:12.999Z</time></trkpt><trkpt lat="46.16797477982419" lon="13.323469272863317"><ele>174.0</ele><time>2026-04-11T11:55:13.999Z</time></trkpt><trkpt lat="46.16783424552803" lon="13.32364561722238"><ele>174.0</ele><time>2026-04-11T11:55:14.999Z</time></trkpt><trkpt lat="46.16769739964356" lon="13.323819541075432"><ele>174.0</ele><time>2026-04-11T11:55:15.999Z</time></trkpt><trkpt lat="46.16756644542621" lon="13.323989273535485"><ele>174.0</ele><time>2026-04-11T11:55:16.999Z</time></trkpt><trkpt lat="46.1674380626985" lon="13.324153950423858"><ele>174.0</ele><time>2026-04-11T11:55:18Z</time></trkpt><trkpt lat="46.16730711830611" lon="13.324320938793194"><ele>174.0</ele><time>2026-04-11T11:55:19Z</time></trkpt><trkpt lat="46.167175642335685" lon="13.324491135672053"><ele>174.0</ele><time>2026-04-11T11:55:20Z</time></trkpt><trkpt lat="46.16705117849529" lon="13.324655591078637"><ele>174.66666666666666</ele><time>2026-04-11T11:55:21Z</time></trkpt><trkpt lat="46.166924774697875" lon="13.324816476292618"><ele>175.33333333333331</ele><time>2026-04-11T11:55:22Z</time></trkpt><trkpt lat="46.16680112926647" lon="13.324976905070512"><ele>176.0</ele><time>2026-04-11T11:55:23Z</time></trkpt><trkpt lat="46.16667691259823" lon="13.325136676843746"><ele>176.0</ele><time>2026-04-11T11:55:24Z</time></trkpt><trkpt lat="46.16655509573463" lon="13.325290409393515"><ele>176.0</ele><time>2026-04-11T11:55:25Z</time></trkpt><trkpt lat="46.16642782279276" lon="13.325435940864221"><ele>176.0</ele><time>2026-04-11T11:55:26Z</time></trkpt><trkpt lat="46.166288541773135" lon="13.325550894712265"><ele>175.66666666666666</ele><time>2026-04-11T11:55:27Z</time></trkpt><trkpt lat="46.166144065462426" lon="13.325653069118628"><ele>175.33333333333334</ele><time>2026-04-11T11:55:28Z</time></trkpt><trkpt lat="46.16601057199021" lon="13.32577496342265"><ele>175.0</ele><time>2026-04-11T11:55:29Z</time></trkpt><trkpt lat="46.16587835153143" lon="13.325892509019043"><ele>175.0</ele><time>2026-04-11T11:55:30Z</time></trkpt><trkpt lat="46.16573897884733" lon="13.325989144588334"><ele>175.0</ele><time>2026-04-11T11:55:31Z</time></trkpt><trkpt lat="46.16559796585279" lon="13.32607580817553"><ele>175.0</ele><time>2026-04-11T11:55:32Z</time></trkpt><trkpt lat="46.1654523618218" lon="13.326155098577763"><ele>174.33333333333334</ele><time>2026-04-11T11:55:33Z</time></trkpt><trkpt lat="46.165298420982595" lon="13.326237886912384"><ele>173.66666666666666</ele><time>2026-04-11T11:55:34Z</time></trkpt><trkpt lat="46.16514052440996" lon="13.326324656559244"><ele>173.0</ele><time>2026-04-11T11:55:35Z</time></trkpt><trkpt lat="46.16498273284545" lon="13.326411238667118"><ele>171.66666666666666</ele><time>2026-04-11T11:55:36Z</time></trkpt><trkpt lat="46.16482141201133" lon="13.326492513957195"><ele>170.33333333333334</ele><time>2026-04-11T11:55:37Z</time></trkpt><trkpt lat="46.16466142620096" lon="13.326579821305923"><ele>169.0</ele><time>2026-04-11T11:55:38Z</time></trkpt><trkpt lat="46.164502276143544" lon="13.326665267570005"><ele>169.0</ele><time>2026-04-11T11:55:39Z</time></trkpt><trkpt lat="46.164339248663765" lon="13.326748616869496"><ele>169.0</ele><time>2026-04-11T11:55:40Z</time></trkpt><trkpt lat="46.16416878697806" lon="13.326843002211435"><ele>169.0</ele><time>2026-04-11T11:55:41Z</time></trkpt><trkpt lat="46.1639849737032" lon="13.326939333034273"><ele>168.66666666666669</ele><time>2026-04-11T11:55:42Z</time></trkpt><trkpt lat="46.16378633611004" lon="13.327040199343115"><ele>168.33333333333334</ele><time>2026-04-11T11:55:43Z</time></trkpt><trkpt lat="46.16357274438819" lon="13.327154556306033"><ele>168.0</ele><time>2026-04-11T11:55:44Z</time></trkpt><trkpt lat="46.163344156459026" lon="13.327274663810645"><ele>166.0</ele><time>2026-04-11T11:55:45Z</time></trkpt><trkpt lat="46.16310126464406" lon="13.327400184006057"><ele>164.0</ele><time>2026-04-11T11:55:46Z</time></trkpt><trkpt lat="46.1628613445525" lon="13.327527752348688"><ele>164.0</ele><time>2026-04-11T11:55:47Z</time></trkpt><trkpt lat="46.1626310240646" lon="13.327664442685386"><ele>164.0</ele><time>2026-04-11T11:55:48Z</time></trkpt><trkpt lat="46.16241172217221" lon="13.32782119519862"><ele>164.0</ele><time>2026-04-11T11:55:49Z</time></trkpt><trkpt lat="46.162196435370014" lon="13.327996733024813"><ele>164.0</ele><time>2026-04-11T11:55:50Z</time></trkpt><trkpt lat="46.16197877969947" lon="13.328174794834512"><ele>166.0</ele><time>2026-04-11T11:55:51Z</time></trkpt><trkpt lat="46.16175989713762" lon="13.32834843469784"><ele>168.0</ele><time>2026-04-11T11:55:52Z</time></trkpt><trkpt lat="46.16153961211439" lon="13.328518989605577"><ele>164.0</ele><time>2026-04-11T11:55:53Z</time></trkpt><trkpt lat="46.161323404855914" lon="13.328691777475322"><ele>160.0</ele><time>2026-04-11T11:55:54Z</time></trkpt><trkpt lat="46.16111030687275" lon="13.328860483682048"><ele>160.0</ele><time>2026-04-11T11:55:55Z</time></trkpt><trkpt lat="46.16091497159843" lon="13.329012951909013"><ele>160.0</ele><time>2026-04-11T11:55:56Z</time></trkpt><trkpt lat="46.16073635347852" lon="13.3291549142462"><ele>160.0</ele><time>2026-04-11T11:55:57Z</time></trkpt><trkpt lat="46.16056272392209" lon="13.32929696700546"><ele>160.0</ele><time>2026-04-11T11:55:58Z</time></trkpt><trkpt lat="46.160397077748584" lon="13.329434038995744"><ele>160.0</ele><time>2026-04-11T11:55:59Z</time></trkpt><trkpt lat="46.160242273191756" lon="13.329556006740823"><ele>160.0</ele><time>2026-04-11T11:56:00Z</time></trkpt><trkpt lat="46.16009833223411" lon="13.329668794284979"><ele>160.66666666666669</ele><time>2026-04-11T11:56:01Z</time></trkpt><trkpt lat="46.15996425438712" lon="13.32978491335656"><ele>161.33333333333334</ele><time>2026-04-11T11:56:02Z</time></trkpt><trkpt lat="46.15985027189407" lon="13.32992388909019"><ele>162.0</ele><time>2026-04-11T11:56:03Z</time></trkpt><trkpt lat="46.15975627128148" lon="13.330113387093098"><ele>162.0</ele><time>2026-04-11T11:56:04Z</time></trkpt><trkpt lat="46.15969247649056" lon="13.330356024621398"><ele>162.0</ele><time>2026-04-11T11:56:05Z</time></trkpt><trkpt lat="46.15965045291265" lon="13.330628781735046"><ele>162.0</ele><time>2026-04-11T11:56:06Z</time></trkpt><trkpt lat="46.15960843089574" lon="13.330954291896811"><ele>163.0</ele><time>2026-04-11T11:56:07Z</time></trkpt><trkpt lat="46.15955308690825" lon="13.331339526114023"><ele>164.0</ele><time>2026-04-11T11:56:08Z</time></trkpt><trkpt lat="46.159494721691935" lon="13.331779955432221"><ele>166.0</ele><time>2026-04-11T11:56:09Z</time></trkpt><trkpt lat="46.159436174765624" lon="13.33219106048253"><ele>168.0</ele><time>2026-04-11T11:56:10Z</time></trkpt><trkpt lat="46.159368868583456" lon="13.332597139517944"><ele>170.0</ele><time>2026-04-11T11:56:11Z</time></trkpt><trkpt lat="46.15930017022688" lon="13.333008490369572"><ele>172.0</ele><time>2026-04-11T11:56:12Z</time></trkpt><trkpt lat="46.1592391439429" lon="13.333402796009377"><ele>173.5</ele><time>2026-04-11T11:56:13Z</time></trkpt><trkpt lat="46.15918592110471" lon="13.333771927052682"><ele>175.0</ele><time>2026-04-11T11:56:14Z</time></trkpt><trkpt lat="46.15911374148825" lon="13.33409916928716"><ele>179.0</ele><time>2026-04-11T11:56:15Z</time></trkpt><trkpt lat="46.15906568416718" lon="13.334418042360957"><ele>183.0</ele><time>2026-04-11T11:56:16Z</time></trkpt><trkpt lat="46.15902017409354" lon="13.334725259899677"><ele>187.0</ele><time>2026-04-11T11:56:17Z</time></trkpt><trkpt lat="46.15897400478044" lon="13.335017373034523"><ele>189.66666666666669</ele><time>2026-04-11T11:56:18Z</time></trkpt><trkpt lat="46.158930477110694" lon="13.335277392395412"><ele>192.33333333333334</ele><time>2026-04-11T11:56:19Z</time></trkpt><trkpt lat="46.15888151174926" lon="13.335496819157568"><ele>195.0</ele><time>2026-04-11T11:56:20Z</time></trkpt><trkpt lat="46.15879568818909" lon="13.335706030098926"><ele>195.0</ele><time>2026-04-11T11:56:21Z</time></trkpt><trkpt lat="46.15868395156328" lon="13.335912067185873"><ele>195.0</ele><time>2026-04-11T11:56:22Z</time></trkpt><trkpt lat="46.15856300762877" lon="13.33611520859322"><ele>195.0</ele><time>2026-04-11T11:56:22.999Z</time></trkpt><trkpt lat="46.158459394000054" lon="13.336303279162351"><ele>197.33333333333331</ele><time>2026-04-11T11:56:23.999Z</time></trkpt><trkpt lat="46.15833766264163" lon="13.336490613558285"><ele>199.66666666666666</ele><time>2026-04-11T11:56:24.999Z</time></trkpt><trkpt lat="46.158198819740896" lon="13.336691670517988"><ele>202.0</ele><time>2026-04-11T11:56:25.999Z</time></trkpt><trkpt lat="46.15805563977861" lon="13.336895434045367"><ele>198.66666666666666</ele><time>2026-04-11T11:56:26.999Z</time></trkpt><trkpt lat="46.157910673786084" lon="13.337109092367212"><ele>195.33333333333331</ele><time>2026-04-11T11:56:27.999Z</time></trkpt><trkpt lat="46.157776177947014" lon="13.337319764109337"><ele>192.0</ele><time>2026-04-11T11:56:28.999Z</time></trkpt><trkpt lat="46.15766121349126" lon="13.337539043056477"><ele>192.0</ele><time>2026-04-11T11:56:29.999Z</time></trkpt><trkpt lat="46.15755334304249" lon="13.337802662229333"><ele>192.0</ele><time>2026-04-11T11:56:30.999Z</time></trkpt><trkpt lat="46.15744510893306" lon="13.338083187674929"><ele>192.0</ele><time>2026-04-11T11:56:31.999Z</time></trkpt><trkpt lat="46.157351225807346" lon="13.338331839743745"><ele>191.33333333333334</ele><time>2026-04-11T11:56:32.999Z</time></trkpt><trkpt lat="46.15725257366382" lon="13.338581047563327"><ele>190.66666666666669</ele><time>2026-04-11T11:56:33.999Z</time></trkpt><trkpt lat="46.15715513649829" lon="13.338829148984289"><ele>190.0</ele><time>2026-04-11T11:56:34.999Z</time></trkpt><trkpt lat="46.157067819808894" lon="13.339052979035712"><ele>194.0</ele><time>2026-04-11T11:56:35.999Z</time></trkpt><trkpt lat="46.1569820933469" lon="13.339244230038853"><ele>198.0</ele><time>2026-04-11T11:56:36.999Z</time></trkpt><trkpt lat="46.156889917840445" lon="13.33941642001852"><ele>202.0</ele><time>2026-04-11T11:56:37.999Z</time></trkpt><trkpt lat="46.156777932418535" lon="13.339556959252464"><ele>202.0</ele><time>2026-04-11T11:56:38.999Z</time></trkpt><trkpt lat="46.15663586503578" lon="13.339647834145316"><ele>202.0</ele><time>2026-04-11T11:56:39.999Z</time></trkpt><trkpt lat="46.15645866501861" lon="13.339719826817134"><ele>202.0</ele><time>2026-04-11T11:56:40.999Z</time></trkpt><trkpt lat="46.15630072988833" lon="13.339799909703512"><ele>199.75</ele><time>2026-04-11T11:56:41.999Z</time></trkpt><trkpt lat="46.156160132604434" lon="13.339879508838909"><ele>197.5</ele><time>2026-04-11T11:56:42.999Z</time></trkpt><trkpt lat="46.156023181189916" lon="13.339965056401699"><ele>195.25</ele><time>2026-04-11T11:56:43.999Z</time></trkpt><trkpt lat="46.15589682882701" lon="13.340076812956749"><ele>193.0</ele><time>2026-04-11T11:56:44.999Z</time></trkpt><trkpt lat="46.155777432582724" lon="13.340249861164942"><ele>192.33333333333331</ele><time>2026-04-11T11:56:45.999Z</time></trkpt><trkpt lat="46.15568683311694" lon="13.3404646253384"><ele>191.66666666666666</ele><time>2026-04-11T11:56:46.999Z</time></trkpt><trkpt lat="46.155613543934194" lon="13.340668431178232"><ele>191.0</ele><time>2026-04-11T11:56:47.999Z</time></trkpt><trkpt lat="46.155509055798866" lon="13.340835870853367"><ele>191.0</ele><time>2026-04-11T11:56:48.999Z</time></trkpt><trkpt lat="46.15538113363767" lon="13.340954912532448"><ele>191.0</ele><time>2026-04-11T11:56:49.999Z</time></trkpt><trkpt lat="46.1552478480055" lon="13.34106004187711"><ele>191.0</ele><time>2026-04-11T11:56:50.999Z</time></trkpt><trkpt lat="46.155136615651024" lon="13.341175600690475"><ele>191.0</ele><time>2026-04-11T11:56:51.999Z</time></trkpt><trkpt lat="46.15502080279634" lon="13.341315538483446"><ele>193.33333333333331</ele><time>2026-04-11T11:56:52.999Z</time></trkpt><trkpt lat="46.154919082386975" lon="13.341484853059649"><ele>195.66666666666666</ele><time>2026-04-11T11:56:53.999Z</time></trkpt><trkpt lat="46.15481581048913" lon="13.341697217902752"><ele>198.0</ele><time>2026-04-11T11:56:54.999Z</time></trkpt><trkpt lat="46.15471730313477" lon="13.341912873913747"><ele>194.66666666666666</ele><time>2026-04-11T11:56:55.999Z</time></trkpt><trkpt lat="46.154625584674925" lon="13.342123824600606"><ele>191.33333333333331</ele><time>2026-04-11T11:56:56.999Z</time></trkpt><trkpt lat="46.15454141679466" lon="13.342302252744101"><ele>188.0</ele><time>2026-04-11T11:56:57.999Z</time></trkpt><trkpt lat="46.154454397654185" lon="13.342458607943932"><ele>188.0</ele><time>2026-04-11T11:56:58.999Z</time></trkpt><trkpt lat="46.15435060560122" lon="13.342590198100844"><ele>188.0</ele><time>2026-04-11T11:56:59.999Z</time></trkpt><trkpt lat="46.15424172977907" lon="13.3426946221821"><ele>188.0</ele><time>2026-04-11T11:57:00.999Z</time></trkpt><trkpt lat="46.15418551512221" lon="13.342812128620698"><ele>188.0</ele><time>2026-04-11T11:57:01.999Z</time></trkpt><trkpt lat="46.15416289472951" lon="13.342969229204764"><ele>189.25</ele><time>2026-04-11T11:57:02.999Z</time></trkpt><trkpt lat="46.154160853395524" lon="13.343177365013663"><ele>190.5</ele><time>2026-04-11T11:57:03.999Z</time></trkpt><trkpt lat="46.15413027608446" lon="13.343380062613692"><ele>191.75</ele><time>2026-04-11T11:57:04.999Z</time></trkpt><trkpt lat="46.15403666209174" lon="13.343549710491388"><ele>193.0</ele><time>2026-04-11T11:57:05.999Z</time></trkpt><trkpt lat="46.15396402894299" lon="13.343732221568267"><ele>189.0</ele><time>2026-04-11T11:57:06.999Z</time></trkpt><trkpt lat="46.15387876495474" lon="13.34390310152303"><ele>185.0</ele><time>2026-04-11T11:57:07.999Z</time></trkpt><trkpt lat="46.15379344022727" lon="13.344091068979015"><ele>181.0</ele><time>2026-04-11T11:57:08.999Z</time></trkpt><trkpt lat="46.15369994423713" lon="13.344248357833354"><ele>177.0</ele><time>2026-04-11T11:57:09.999Z</time></trkpt><trkpt lat="46.153627196516894" lon="13.344407669501328"><ele>177.0</ele><time>2026-04-11T11:57:10.999Z</time></trkpt><trkpt lat="46.153582546685904" lon="13.34458367761519"><ele>177.0</ele><time>2026-04-11T11:57:11.999Z</time></trkpt><trkpt lat="46.15354315829082" lon="13.344788188788108"><ele>177.0</ele><time>2026-04-11T11:57:12.999Z</time></trkpt><trkpt lat="46.15352598763097" lon="13.344981370450917"><ele>177.0</ele><time>2026-04-11T11:57:13.999Z</time></trkpt><trkpt lat="46.15350590059974" lon="13.345153898671812"><ele>177.0</ele><time>2026-04-11T11:57:14.999Z</time></trkpt><trkpt lat="46.15348058888732" lon="13.345326707918005"><ele>177.0</ele><time>2026-04-11T11:57:15.999Z</time></trkpt><trkpt lat="46.15345962777871" lon="13.34549975910703"><ele>177.0</ele><time>2026-04-11T11:57:16.999Z</time></trkpt><trkpt lat="46.15342250255434" lon="13.345659479423434"><ele>177.0</ele><time>2026-04-11T11:57:17.999Z</time></trkpt><trkpt lat="46.15339780280115" lon="13.345820526239322"><ele>176.8</ele><time>2026-04-11T11:57:18.999Z</time></trkpt><trkpt lat="46.15336892909098" lon="13.345961401974595"><ele>176.6</ele><time>2026-04-11T11:57:19.999Z</time></trkpt><trkpt lat="46.153315775666705" lon="13.346075243019067"><ele>176.4</ele><time>2026-04-11T11:57:20.999Z</time></trkpt><trkpt lat="46.1532360330438" lon="13.346157035838255"><ele>176.20000000000002</ele><time>2026-04-11T11:57:21.999Z</time></trkpt><trkpt lat="46.15315551587643" lon="13.346234905496932"><ele>176.0</ele><time>2026-04-11T11:57:22.999Z</time></trkpt><trkpt lat="46.15308275180337" lon="13.346301738677596"><ele>175.0</ele><time>2026-04-11T11:57:24Z</time></trkpt><trkpt lat="46.15301480663722" lon="13.346338964881939"><ele>174.0</ele><time>2026-04-11T11:57:25Z</time></trkpt><trkpt lat="46.152937771429805" lon="13.346376949335188"><ele>173.0</ele><time>2026-04-11T11:57:26Z</time></trkpt><trkpt lat="46.152838350249986" lon="13.346309887507225"><ele>172.0</ele><time>2026-04-11T11:57:27Z</time></trkpt><trkpt lat="46.152749680041396" lon="13.346231496649656"><ele>171.0</ele><time>2026-04-11T11:57:28Z</time></trkpt><trkpt lat="46.15267270062525" lon="13.346162250680173"><ele>171.0</ele><time>2026-04-11T11:57:29Z</time></trkpt><trkpt lat="46.15260397038004" lon="13.346091047375022"><ele>171.0</ele><time>2026-04-11T11:57:30Z</time></trkpt><trkpt lat="46.152547959689954" lon="13.346019246525636"><ele>171.0</ele><time>2026-04-11T11:57:31Z</time></trkpt><trkpt lat="46.15250271106175" lon="13.345944687121767"><ele>171.0</ele><time>2026-04-11T11:57:32Z</time></trkpt><trkpt lat="46.152459235991664" lon="13.345821115158289"><ele>171.0</ele><time>2026-04-11T11:57:34Z</time></trkpt><trkpt lat="46.15245909091671" lon="13.345719954887917"><ele>171.0</ele><time>2026-04-11T11:57:35Z</time></trkpt><trkpt lat="46.1525011920784" lon="13.345581292711042"><ele>170.75</ele><time>2026-04-11T11:57:36Z</time></trkpt><trkpt lat="46.15254737562915" lon="13.345398561397959"><ele>170.5</ele><time>2026-04-11T11:57:37Z</time></trkpt><trkpt lat="46.152575739232425" lon="13.345239632490163"><ele>170.25</ele><time>2026-04-11T11:57:38Z</time></trkpt><trkpt lat="46.15258854346259" lon="13.345076212255892"><ele>170.0</ele><time>2026-04-11T11:57:39Z</time></trkpt><trkpt lat="46.15260102495607" lon="13.34490622195312"><ele>170.0</ele><time>2026-04-11T11:57:40Z</time></trkpt><trkpt lat="46.15256990991278" lon="13.344739594892177"><ele>170.0</ele><time>2026-04-11T11:57:41Z</time></trkpt><trkpt lat="46.152509102643066" lon="13.344584210737272"><ele>170.0</ele><time>2026-04-11T11:57:42Z</time></trkpt><trkpt lat="46.15241718562853" lon="13.344451114977828"><ele>170.0</ele><time>2026-04-11T11:57:43Z</time></trkpt><trkpt lat="46.1523195063682" lon="13.3443335920512"><ele>169.0</ele><time>2026-04-11T11:57:44Z</time></trkpt><trkpt lat="46.15219760297005" lon="13.344252686669414"><ele>168.0</ele><time>2026-04-11T11:57:45Z</time></trkpt><trkpt lat="46.152057075460505" lon="13.3442024752605"><ele>167.0</ele><time>2026-04-11T11:57:46Z</time></trkpt><trkpt lat="46.151917359281" lon="13.34415537736766"><ele>166.0</ele><time>2026-04-11T11:57:47Z</time></trkpt><trkpt lat="46.15176723112607" lon="13.344144131839816"><ele>166.0</ele><time>2026-04-11T11:57:48Z</time></trkpt><trkpt lat="46.151609134532045" lon="13.34415499954878"><ele>166.0</ele><time>2026-04-11T11:57:49Z</time></trkpt><trkpt lat="46.15145051427302" lon="13.344166569796878"><ele>166.0</ele><time>2026-04-11T11:57:50Z</time></trkpt><trkpt lat="46.15129759923837" lon="13.344149733273671"><ele>166.0</ele><time>2026-04-11T11:57:51Z</time></trkpt><trkpt lat="46.151150842831704" lon="13.344175031791133"><ele>166.0</ele><time>2026-04-11T11:57:52Z</time></trkpt><trkpt lat="46.15100685579029" lon="13.344153146526725"><ele>166.0</ele><time>2026-04-11T11:57:53Z</time></trkpt><trkpt lat="46.150853328794184" lon="13.344154705532155"><ele>166.0</ele><time>2026-04-11T11:57:54Z</time></trkpt><trkpt lat="46.1506970316868" lon="13.34415629266404"><ele>164.0</ele><time>2026-04-11T11:57:55Z</time></trkpt><trkpt lat="46.15053274443944" lon="13.344157960926244"><ele>162.0</ele><time>2026-04-11T11:57:56Z</time></trkpt><trkpt lat="46.150375136239994" lon="13.344160286063962"><ele>160.0</ele><time>2026-04-11T11:57:57Z</time></trkpt><trkpt lat="46.15023405253146" lon="13.344162149695919"><ele>160.0</ele><time>2026-04-11T11:57:58Z</time></trkpt><trkpt lat="46.150102099020806" lon="13.344185568257053"><ele>160.0</ele><time>2026-04-11T11:57:59Z</time></trkpt><trkpt lat="46.14997146423761" lon="13.34419209077481"><ele>160.0</ele><time>2026-04-11T11:58:00Z</time></trkpt><trkpt lat="46.14983338291295" lon="13.344200557403747"><ele>160.0</ele><time>2026-04-11T11:58:01Z</time></trkpt><trkpt lat="46.1496975605592" lon="13.344205232074357"><ele>159.75</ele><time>2026-04-11T11:58:02Z</time></trkpt><trkpt lat="46.14955887133801" lon="13.344214766170396"><ele>159.5</ele><time>2026-04-11T11:58:03Z</time></trkpt><trkpt lat="46.14941631005096" lon="13.344213353217182"><ele>159.25</ele><time>2026-04-11T11:58:04Z</time></trkpt><trkpt lat="46.14926665031244" lon="13.34421339160662"><ele>159.0</ele><time>2026-04-11T11:58:05Z</time></trkpt><trkpt lat="46.14910513872494" lon="13.344179647105744"><ele>158.0</ele><time>2026-04-11T11:58:06Z</time></trkpt><trkpt lat="46.148944961016284" lon="13.34418031027244"><ele>157.0</ele><time>2026-04-11T11:58:07Z</time></trkpt><trkpt lat="46.14878945956791" lon="13.3441722153182"><ele>156.0</ele><time>2026-04-11T11:58:08Z</time></trkpt><trkpt lat="46.14863384305913" lon="13.344157760650583"><ele>156.0</ele><time>2026-04-11T11:58:09Z</time></trkpt><trkpt lat="46.1484817253408" lon="13.344120455996917"><ele>156.0</ele><time>2026-04-11T11:58:10Z</time></trkpt><trkpt lat="46.14833022084108" lon="13.344057053141897"><ele>156.0</ele><time>2026-04-11T11:58:11Z</time></trkpt><trkpt lat="46.148184275708324" lon="13.343958411118976"><ele>155.66666666666666</ele><time>2026-04-11T11:58:12Z</time></trkpt><trkpt lat="46.14803171464388" lon="13.343844468987442"><ele>155.33333333333331</ele><time>2026-04-11T11:58:13Z</time></trkpt><trkpt lat="46.147879566454" lon="13.343725922178526"><ele>155.0</ele><time>2026-04-11T11:58:14Z</time></trkpt><trkpt lat="46.147733998309675" lon="13.343612502257997"><ele>155.0</ele><time>2026-04-11T11:58:15Z</time></trkpt><trkpt lat="46.1475982138198" lon="13.343506705284492"><ele>155.0</ele><time>2026-04-11T11:58:16Z</time></trkpt><trkpt lat="46.1474473908434" lon="13.34342923528423"><ele>155.0</ele><time>2026-04-11T11:58:17Z</time></trkpt><trkpt lat="46.14731396306344" lon="13.343324708315349"><ele>155.0</ele><time>2026-04-11T11:58:18Z</time></trkpt><trkpt lat="46.14718417984289" lon="13.343223851249942"><ele>155.0</ele><time>2026-04-11T11:58:19Z</time></trkpt><trkpt lat="46.14705403556025" lon="13.343125388197452"><ele>155.0</ele><time>2026-04-11T11:58:20Z</time></trkpt><trkpt lat="46.146934515290255" lon="13.342989705949112"><ele>155.0</ele><time>2026-04-11T11:58:21Z</time></trkpt><trkpt lat="46.14680134283172" lon="13.342885717945872"><ele>154.0</ele><time>2026-04-11T11:58:22Z</time></trkpt><trkpt lat="46.14666642757301" lon="13.342780369074381"><ele>153.0</ele><time>2026-04-11T11:58:23Z</time></trkpt><trkpt lat="46.146528309012155" lon="13.342673428327831"><ele>152.0</ele><time>2026-04-11T11:58:24Z</time></trkpt><trkpt lat="46.14638757922108" lon="13.342564759279409"><ele>152.0</ele><time>2026-04-11T11:58:24.999Z</time></trkpt><trkpt lat="46.14624647755778" lon="13.342455802619613"><ele>152.0</ele><time>2026-04-11T11:58:25.999Z</time></trkpt><trkpt lat="46.14610058740882" lon="13.342342774986244"><ele>152.0</ele><time>2026-04-11T11:58:26.999Z</time></trkpt><trkpt lat="46.1459552900412" lon="13.342226653348623"><ele>152.0</ele><time>2026-04-11T11:58:27.999Z</time></trkpt><trkpt lat="46.14581147400161" lon="13.342112240514908"><ele>152.0</ele><time>2026-04-11T11:58:28.999Z</time></trkpt><trkpt lat="46.14566825958176" lon="13.342001232019383"><ele>152.0</ele><time>2026-04-11T11:58:29.999Z</time></trkpt><trkpt lat="46.1455265719777" lon="13.341892026145949"><ele>151.33333333333331</ele><time>2026-04-11T11:58:30.999Z</time></trkpt><trkpt lat="46.145379638638026" lon="13.34180490020762"><ele>150.66666666666666</ele><time>2026-04-11T11:58:31.999Z</time></trkpt><trkpt lat="46.14524534557521" lon="13.341673800407744"><ele>150.0</ele><time>2026-04-11T11:58:32.999Z</time></trkpt><trkpt lat="46.1450999344928" lon="13.341560652231543"><ele>150.0</ele><time>2026-04-11T11:58:33.999Z</time></trkpt><trkpt lat="46.144949838921704" lon="13.341443858934241"><ele>150.0</ele><time>2026-04-11T11:58:34.999Z</time></trkpt><trkpt lat="46.144796420125346" lon="13.34132525796663"><ele>150.0</ele><time>2026-04-11T11:58:35.999Z</time></trkpt><trkpt lat="46.1446333561003" lon="13.341199828994151"><ele>150.33333333333334</ele><time>2026-04-11T11:58:36.999Z</time></trkpt><trkpt lat="46.14446794190888" lon="13.341072848418785"><ele>150.66666666666669</ele><time>2026-04-11T11:58:37.999Z</time></trkpt><trkpt lat="46.14430551272619" lon="13.34095085207572"><ele>151.0</ele><time>2026-04-11T11:58:38.999Z</time></trkpt><trkpt lat="46.14414337259914" lon="13.340856536234817"><ele>150.33333333333334</ele><time>2026-04-11T11:58:39.999Z</time></trkpt><trkpt lat="46.14399227374672" lon="13.340752792144482"><ele>149.66666666666666</ele><time>2026-04-11T11:58:40.999Z</time></trkpt><trkpt lat="46.14384824882066" lon="13.34062933789219"><ele>149.0</ele><time>2026-04-11T11:58:41.999Z</time></trkpt><trkpt lat="46.14369498132699" lon="13.340535337456714"><ele>148.66666666666666</ele><time>2026-04-11T11:58:42.999Z</time></trkpt><trkpt lat="46.14354405698116" lon="13.340441158667852"><ele>148.33333333333334</ele><time>2026-04-11T11:58:43.999Z</time></trkpt><trkpt lat="46.143392305417684" lon="13.340347417851524"><ele>148.0</ele><time>2026-04-11T11:58:44.999Z</time></trkpt><trkpt lat="46.14323594035323" lon="13.340259390038558"><ele>147.33333333333334</ele><time>2026-04-11T11:58:45.999Z</time></trkpt><trkpt lat="46.14307325168115" lon="13.340173201506953"><ele>146.66666666666666</ele><time>2026-04-11T11:58:46.999Z</time></trkpt><trkpt lat="46.14290602342595" lon="13.340085449230992"><ele>146.0</ele><time>2026-04-11T11:58:47.999Z</time></trkpt><trkpt lat="46.142734140807924" lon="13.339999701378972"><ele>146.0</ele><time>2026-04-11T11:58:48.999Z</time></trkpt><trkpt lat="46.14255733573094" lon="13.33991646557589"><ele>146.0</ele><time>2026-04-11T11:58:49.999Z</time></trkpt><trkpt lat="46.14237906816716" lon="13.339835656293674"><ele>146.0</ele><time>2026-04-11T11:58:50.999Z</time></trkpt><trkpt lat="46.142195016813176" lon="13.339766176605252"><ele>145.33333333333331</ele><time>2026-04-11T11:58:51.999Z</time></trkpt><trkpt lat="46.14200981484888" lon="13.339700569681096"><ele>144.66666666666666</ele><time>2026-04-11T11:58:52.999Z</time></trkpt><trkpt lat="46.141824104019975" lon="13.33963605177335"><ele>144.0</ele><time>2026-04-11T11:58:53.999Z</time></trkpt><trkpt lat="46.14163841267651" lon="13.339571163805532"><ele>143.66666666666666</ele><time>2026-04-11T11:58:54.999Z</time></trkpt><trkpt lat="46.141459972641165" lon="13.33950761709487"><ele>143.33333333333331</ele><time>2026-04-11T11:58:55.999Z</time></trkpt><trkpt lat="46.14128064254722" lon="13.339443753395658"><ele>143.0</ele><time>2026-04-11T11:58:56.999Z</time></trkpt><trkpt lat="46.141094161174266" lon="13.339377580750886"><ele>143.0</ele><time>2026-04-11T11:58:57.999Z</time></trkpt><trkpt lat="46.140912587061536" lon="13.339313155890805"><ele>143.0</ele><time>2026-04-11T11:58:58.999Z</time></trkpt><trkpt lat="46.14073464200558" lon="13.339250202627397"><ele>143.0</ele><time>2026-04-11T11:58:59.999Z</time></trkpt><trkpt lat="46.14055756703366" lon="13.339188228758395"><ele>142.33333333333331</ele><time>2026-04-11T11:59:00.999Z</time></trkpt><trkpt lat="46.14037729243932" lon="13.339125135068283"><ele>141.66666666666666</ele><time>2026-04-11T11:59:01.999Z</time></trkpt><trkpt lat="46.140193196577385" lon="13.339060703981131"><ele>141.0</ele><time>2026-04-11T11:59:02.999Z</time></trkpt><trkpt lat="46.14000818930384" lon="13.338995955965252"><ele>140.33333333333334</ele><time>2026-04-11T11:59:03.999Z</time></trkpt><trkpt lat="46.139823741876896" lon="13.338931401826208"><ele>139.66666666666669</ele><time>2026-04-11T11:59:04.999Z</time></trkpt><trkpt lat="46.13964234981117" lon="13.338868035022228"><ele>139.0</ele><time>2026-04-11T11:59:05.999Z</time></trkpt><trkpt lat="46.13946661921728" lon="13.338801322181407"><ele>139.0</ele><time>2026-04-11T11:59:06.999Z</time></trkpt><trkpt lat="46.13929257869563" lon="13.338712253879178"><ele>139.0</ele><time>2026-04-11T11:59:07.999Z</time></trkpt><trkpt lat="46.139121986558266" lon="13.338602725301373"><ele>139.0</ele><time>2026-04-11T11:59:08.999Z</time></trkpt><trkpt lat="46.13895153248081" lon="13.338470983636622"><ele>139.0</ele><time>2026-04-11T11:59:09.999Z</time></trkpt><trkpt lat="46.13877679183444" lon="13.338334299970267"><ele>139.0</ele><time>2026-04-11T11:59:10.999Z</time></trkpt><trkpt lat="46.13859454548063" lon="13.338190774544215"><ele>139.0</ele><time>2026-04-11T11:59:11.999Z</time></trkpt><trkpt lat="46.13840753403652" lon="13.338041916762513"><ele>138.66666666666669</ele><time>2026-04-11T11:59:12.999Z</time></trkpt><trkpt lat="46.1382093686921" lon="13.337884180761751"><ele>138.33333333333334</ele><time>2026-04-11T11:59:13.999Z</time></trkpt><trkpt lat="46.1380140731124" lon="13.33772872899832"><ele>138.0</ele><time>2026-04-11T11:59:14.999Z</time></trkpt><trkpt lat="46.13782080362281" lon="13.337574889978386"><ele>138.0</ele><time>2026-04-11T11:59:15.999Z</time></trkpt><trkpt lat="46.13762794166611" lon="13.33742475805965"><ele>138.0</ele><time>2026-04-11T11:59:16.999Z</time></trkpt><trkpt lat="46.1374355750884" lon="13.337283767262493"><ele>138.0</ele><time>2026-04-11T11:59:17.999Z</time></trkpt><trkpt lat="46.13724647750399" lon="13.33714709175588"><ele>137.0</ele><time>2026-04-11T11:59:18.999Z</time></trkpt><trkpt lat="46.13705653630912" lon="13.337009806476017"><ele>136.0</ele><time>2026-04-11T11:59:19.999Z</time></trkpt><trkpt lat="46.13686506679586" lon="13.336871435572222"><ele>135.0</ele><time>2026-04-11T11:59:20.999Z</time></trkpt><trkpt lat="46.136668725486984" lon="13.336729547087673"><ele>135.0</ele><time>2026-04-11T11:59:21.999Z</time></trkpt><trkpt lat="46.13646699789858" lon="13.336583766097267"><ele>135.0</ele><time>2026-04-11T11:59:22.999Z</time></trkpt><trkpt lat="46.1362616030323" lon="13.33643716270893"><ele>134.0</ele><time>2026-04-11T11:59:23.999Z</time></trkpt><trkpt lat="46.13605421410489" lon="13.336289089496503"><ele>133.0</ele><time>2026-04-11T11:59:24.999Z</time></trkpt><trkpt lat="46.13585014976498" lon="13.336142642781521"><ele>133.33333333333334</ele><time>2026-04-11T11:59:25.999Z</time></trkpt><trkpt lat="46.13564921500837" lon="13.335998354386671"><ele>133.66666666666666</ele><time>2026-04-11T11:59:26.999Z</time></trkpt><trkpt lat="46.13544809738645" lon="13.33585393462843"><ele>134.0</ele><time>2026-04-11T11:59:27.999Z</time></trkpt><trkpt lat="46.1352535066364" lon="13.335704900955028"><ele>135.0</ele><time>2026-04-11T11:59:29Z</time></trkpt><trkpt lat="46.135064446881934" lon="13.33555342509843"><ele>136.0</ele><time>2026-04-11T11:59:30Z</time></trkpt><trkpt lat="46.13488193329493" lon="13.33538907930267"><ele>137.0</ele><time>2026-04-11T11:59:31Z</time></trkpt><trkpt lat="46.13469723107704" lon="13.335213349824238"><ele>137.0</ele><time>2026-04-11T11:59:32Z</time></trkpt><trkpt lat="46.134510490378666" lon="13.33503456790351"><ele>137.0</ele><time>2026-04-11T11:59:33Z</time></trkpt><trkpt lat="46.134326437941795" lon="13.334858363947337"><ele>137.0</ele><time>2026-04-11T11:59:34Z</time></trkpt><trkpt lat="46.13414889846926" lon="13.334688206085582"><ele>136.0</ele><time>2026-04-11T11:59:35Z</time></trkpt><trkpt lat="46.13397145714399" lon="13.334518134457351"><ele>135.0</ele><time>2026-04-11T11:59:36Z</time></trkpt><trkpt lat="46.133798008388176" lon="13.334352477522936"><ele>134.0</ele><time>2026-04-11T11:59:37Z</time></trkpt><trkpt lat="46.133628320273594" lon="13.334190236378186"><ele>134.0</ele><time>2026-04-11T11:59:38Z</time></trkpt><trkpt lat="46.1334615090658" lon="13.334028712967752"><ele>134.0</ele><time>2026-04-11T11:59:39Z</time></trkpt><trkpt lat="46.13328931631576" lon="13.333861554296686"><ele>134.0</ele><time>2026-04-11T11:59:40Z</time></trkpt><trkpt lat="46.1331118919492" lon="13.333686623439434"><ele>132.66666666666666</ele><time>2026-04-11T11:59:41Z</time></trkpt><trkpt lat="46.132929216145946" lon="13.333505745655835"><ele>131.33333333333334</ele><time>2026-04-11T11:59:42Z</time></trkpt><trkpt lat="46.1327472036021" lon="13.333325524706554"><ele>130.0</ele><time>2026-04-11T11:59:43Z</time></trkpt><trkpt lat="46.13256748645163" lon="13.333145585557437"><ele>130.0</ele><time>2026-04-11T11:59:44Z</time></trkpt><trkpt lat="46.13239307330669" lon="13.332962179760706"><ele>130.0</ele><time>2026-04-11T11:59:45Z</time></trkpt><trkpt lat="46.13221669586551" lon="13.332783247586205"><ele>130.0</ele><time>2026-04-11T11:59:46Z</time></trkpt><trkpt lat="46.13206467979558" lon="13.332555475829892"><ele>130.0</ele><time>2026-04-11T11:59:47Z</time></trkpt><trkpt lat="46.1319095966954" lon="13.332327236065403"><ele>130.0</ele><time>2026-04-11T11:59:48Z</time></trkpt><trkpt lat="46.13176288765466" lon="13.332089182041868"><ele>130.0</ele><time>2026-04-11T11:59:49Z</time></trkpt><trkpt lat="46.131621864568125" lon="13.3318439188666"><ele>130.0</ele><time>2026-04-11T11:59:50Z</time></trkpt><trkpt lat="46.13148123189443" lon="13.331593971733376"><ele>130.0</ele><time>2026-04-11T11:59:51Z</time></trkpt><trkpt lat="46.13134274249113" lon="13.331347833988731"><ele>130.0</ele><time>2026-04-11T11:59:52Z</time></trkpt><trkpt lat="46.13120600031093" lon="13.33110271411081"><ele>130.0</ele><time>2026-04-11T11:59:53Z</time></trkpt><trkpt lat="46.1310689942937" lon="13.330857762113144"><ele>130.0</ele><time>2026-04-11T11:59:54Z</time></trkpt><trkpt lat="46.13093376893571" lon="13.330616499254766"><ele>130.0</ele><time>2026-04-11T11:59:55Z</time></trkpt><trkpt lat="46.130800445439135" lon="13.330378629680839"><ele>129.66666666666669</ele><time>2026-04-11T11:59:56Z</time></trkpt><trkpt lat="46.130669351358634" lon="13.330144737688817"><ele>129.33333333333334</ele><time>2026-04-11T11:59:57Z</time></trkpt><trkpt lat="46.13053875069616" lon="13.329911725986989"><ele>129.0</ele><time>2026-04-11T11:59:58Z</time></trkpt><trkpt lat="46.130408112994395" lon="13.329678031183224"><ele>129.66666666666666</ele><time>2026-04-11T11:59:59Z</time></trkpt><trkpt lat="46.13027959307662" lon="13.329444725557188"><ele>130.33333333333331</ele><time>2026-04-11T12:00:00Z</time></trkpt><trkpt lat="46.130150239371076" lon="13.329211441606438"><ele>131.0</ele><time>2026-04-11T12:00:01Z</time></trkpt><trkpt lat="46.13002249729286" lon="13.328988465549104"><ele>131.33333333333331</ele><time>2026-04-11T12:00:02Z</time></trkpt><trkpt lat="46.12990024441452" lon="13.328775070776903"><ele>131.66666666666666</ele><time>2026-04-11T12:00:03Z</time></trkpt><trkpt lat="46.12977868610429" lon="13.32856478642797"><ele>132.0</ele><time>2026-04-11T12:00:04Z</time></trkpt><trkpt lat="46.129665794096645" lon="13.328368406283326"><ele>132.0</ele><time>2026-04-11T12:00:05Z</time></trkpt><trkpt lat="46.129560959939475" lon="13.328179548393791"><ele>132.0</ele><time>2026-04-11T12:00:06Z</time></trkpt><trkpt lat="46.129458097381466" lon="13.32798263907566"><ele>132.0</ele><time>2026-04-11T12:00:07Z</time></trkpt><trkpt lat="46.129362741169146" lon="13.327770856390451"><ele>132.0</ele><time>2026-04-11T12:00:08Z</time></trkpt><trkpt lat="46.129285415892895" lon="13.327545608120873"><ele>132.0</ele><time>2026-04-11T12:00:09Z</time></trkpt><trkpt lat="46.12922359522169" lon="13.327327129618585"><ele>132.0</ele><time>2026-04-11T12:00:10Z</time></trkpt><trkpt lat="46.12916391877684" lon="13.327112580896195"><ele>132.0</ele><time>2026-04-11T12:00:11Z</time></trkpt><trkpt lat="46.129103917201846" lon="13.326886800012225"><ele>132.0</ele><time>2026-04-11T12:00:12Z</time></trkpt><trkpt lat="46.12905237734675" lon="13.326679179997198"><ele>132.0</ele><time>2026-04-11T12:00:13Z</time></trkpt><trkpt lat="46.129002433179245" lon="13.326468202649083"><ele>131.0</ele><time>2026-04-11T12:00:14Z</time></trkpt><trkpt lat="46.128958566994726" lon="13.326249962071191"><ele>130.0</ele><time>2026-04-11T12:00:15Z</time></trkpt><trkpt lat="46.128919022962826" lon="13.326043127219476"><ele>129.0</ele><time>2026-04-11T12:00:16Z</time></trkpt><trkpt lat="46.128878077006156" lon="13.325848725179501"><ele>128.0</ele><time>2026-04-11T12:00:17Z</time></trkpt><trkpt lat="46.12879073462452" lon="13.325657147621786"><ele>127.33333333333333</ele><time>2026-04-11T12:00:18Z</time></trkpt><trkpt lat="46.12869004785706" lon="13.325466894605585"><ele>126.66666666666666</ele><time>2026-04-11T12:00:19Z</time></trkpt><trkpt lat="46.128576516411655" lon="13.325267774054874"><ele>126.0</ele><time>2026-04-11T12:00:20Z</time></trkpt><trkpt lat="46.12846882398576" lon="13.325078804520393"><ele>126.0</ele><time>2026-04-11T12:00:21Z</time></trkpt><trkpt lat="46.12835978878215" lon="13.324887421602654"><ele>126.0</ele><time>2026-04-11T12:00:22Z</time></trkpt><trkpt lat="46.12824741289256" lon="13.324688357864385"><ele>126.0</ele><time>2026-04-11T12:00:23Z</time></trkpt><trkpt lat="46.12813081727794" lon="13.324478710311427"><ele>126.0</ele><time>2026-04-11T12:00:24Z</time></trkpt><trkpt lat="46.12800877466461" lon="13.32425926857419"><ele>126.0</ele><time>2026-04-11T12:00:25Z</time></trkpt><trkpt lat="46.12788978228061" lon="13.324045311376635"><ele>126.0</ele><time>2026-04-11T12:00:26Z</time></trkpt><trkpt lat="46.12776577420758" lon="13.323836910574062"><ele>126.0</ele><time>2026-04-11T12:00:27Z</time></trkpt><trkpt lat="46.12763156289023" lon="13.32364485734139"><ele>126.0</ele><time>2026-04-11T12:00:28Z</time></trkpt><trkpt lat="46.127490624086306" lon="13.323464602507562"><ele>126.0</ele><time>2026-04-11T12:00:29Z</time></trkpt><trkpt lat="46.12734566397377" lon="13.323288789741017"><ele>126.0</ele><time>2026-04-11T12:00:30Z</time></trkpt><trkpt lat="46.12720516700438" lon="13.323124301441426"><ele>126.0</ele><time>2026-04-11T12:00:31Z</time></trkpt><trkpt lat="46.12707639131119" lon="13.322991907462056"><ele>126.0</ele><time>2026-04-11T12:00:32Z</time></trkpt><trkpt lat="46.12695196086825" lon="13.322861114993211"><ele>126.25</ele><time>2026-04-11T12:00:33Z</time></trkpt><trkpt lat="46.12684313143667" lon="13.32273725817823"><ele>126.5</ele><time>2026-04-11T12:00:34Z</time></trkpt><trkpt lat="46.12675270480953" lon="13.322612952135538"><ele>126.75</ele><time>2026-04-11T12:00:35Z</time></trkpt><trkpt lat="46.1266741781925" lon="13.322447935730429"><ele>127.0</ele><time>2026-04-11T12:00:36Z</time></trkpt><trkpt lat="46.1265998647728" lon="13.322258454036023"><ele>126.5</ele><time>2026-04-11T12:00:37Z</time></trkpt><trkpt lat="46.12652344850118" lon="13.322073751932194"><ele>126.0</ele><time>2026-04-11T12:00:38Z</time></trkpt><trkpt lat="46.12646699643741" lon="13.321882763525611"><ele>125.5</ele><time>2026-04-11T12:00:39Z</time></trkpt><trkpt lat="46.126407910362396" lon="13.32169397334575"><ele>125.0</ele><time>2026-04-11T12:00:40Z</time></trkpt><trkpt lat="46.126347243376806" lon="13.321504105216224"><ele>125.66666666666666</ele><time>2026-04-11T12:00:41Z</time></trkpt><trkpt lat="46.12629861699295" lon="13.32130301466304"><ele>126.33333333333334</ele><time>2026-04-11T12:00:42Z</time></trkpt><trkpt lat="46.12622520239239" lon="13.32109664071848"><ele>127.0</ele><time>2026-04-11T12:00:43Z</time></trkpt><trkpt lat="46.126127798508826" lon="13.320891833008917"><ele>127.0</ele><time>2026-04-11T12:00:44Z</time></trkpt><trkpt lat="46.126008288401174" lon="13.320693593253765"><ele>127.0</ele><time>2026-04-11T12:00:45Z</time></trkpt><trkpt lat="46.12588470569871" lon="13.320491751843804"><ele>127.0</ele><time>2026-04-11T12:00:46Z</time></trkpt><trkpt lat="46.125773184091784" lon="13.320280655947627"><ele>127.33333333333334</ele><time>2026-04-11T12:00:47Z</time></trkpt><trkpt lat="46.125672894541566" lon="13.320044647604218"><ele>127.66666666666666</ele><time>2026-04-11T12:00:48Z</time></trkpt><trkpt lat="46.12557080734895" lon="13.319788911179243"><ele>128.0</ele><time>2026-04-11T12:00:48.999Z</time></trkpt><trkpt lat="46.125471738927175" lon="13.319535900312006"><ele>128.33333333333331</ele><time>2026-04-11T12:00:49.999Z</time></trkpt><trkpt lat="46.12537373304485" lon="13.319284487695853"><ele>128.66666666666666</ele><time>2026-04-11T12:00:50.999Z</time></trkpt><trkpt lat="46.12527334219603" lon="13.319026646385964"><ele>129.0</ele><time>2026-04-11T12:00:51.999Z</time></trkpt><trkpt lat="46.1251738986848" lon="13.318771213304801"><ele>129.33333333333334</ele><time>2026-04-11T12:00:52.999Z</time></trkpt><trkpt lat="46.12507416576239" lon="13.318519908939345"><ele>129.66666666666669</ele><time>2026-04-11T12:00:53.999Z</time></trkpt><trkpt lat="46.12496020450925" lon="13.318279617278042"><ele>130.0</ele><time>2026-04-11T12:00:54.999Z</time></trkpt><trkpt lat="46.124861085517814" lon="13.318025161998044"><ele>130.33333333333334</ele><time>2026-04-11T12:00:55.999Z</time></trkpt><trkpt lat="46.12475833172092" lon="13.317760943890082"><ele>130.66666666666666</ele><time>2026-04-11T12:00:56.999Z</time></trkpt><trkpt lat="46.12465334107866" lon="13.317491370976798"><ele>131.0</ele><time>2026-04-11T12:00:57.999Z</time></trkpt><trkpt lat="46.12454815450372" lon="13.31722377837566"><ele>130.33333333333331</ele><time>2026-04-11T12:00:58.999Z</time></trkpt><trkpt lat="46.12444692000567" lon="13.316966092268132"><ele>129.66666666666666</ele><time>2026-04-11T12:00:59.999Z</time></trkpt><trkpt lat="46.124348771045234" lon="13.316721139938151"><ele>129.0</ele><time>2026-04-11T12:01:00.999Z</time></trkpt><trkpt lat="46.12426751286083" lon="13.316471391729937"><ele>129.0</ele><time>2026-04-11T12:01:01.999Z</time></trkpt><trkpt lat="46.12417382803527" lon="13.316233249370535"><ele>129.0</ele><time>2026-04-11T12:01:02.999Z</time></trkpt><trkpt lat="46.12407568373271" lon="13.315983770951473"><ele>129.0</ele><time>2026-04-11T12:01:03.999Z</time></trkpt><trkpt lat="46.12398043379656" lon="13.315741650479152"><ele>129.0</ele><time>2026-04-11T12:01:04.999Z</time></trkpt><trkpt lat="46.12389516044784" lon="13.315522706112278"><ele>129.0</ele><time>2026-04-11T12:01:05.999Z</time></trkpt><trkpt lat="46.12381289093145" lon="13.315309402460382"><ele>129.0</ele><time>2026-04-11T12:01:06.999Z</time></trkpt><trkpt lat="46.123723278208715" lon="13.315110286941781"><ele>129.0</ele><time>2026-04-11T12:01:07.999Z</time></trkpt><trkpt lat="46.12365699405849" lon="13.314877205846575"><ele>129.0</ele><time>2026-04-11T12:01:08.999Z</time></trkpt><trkpt lat="46.12360363543842" lon="13.314633092803415"><ele>129.0</ele><time>2026-04-11T12:01:09.999Z</time></trkpt><trkpt lat="46.123555164314205" lon="13.314397765675375"><ele>128.66666666666666</ele><time>2026-04-11T12:01:10.999Z</time></trkpt><trkpt lat="46.12351336206783" lon="13.31416821836945"><ele>128.33333333333331</ele><time>2026-04-11T12:01:11.999Z</time></trkpt><trkpt lat="46.12348206612674" lon="13.313937438206178"><ele>128.0</ele><time>2026-04-11T12:01:12.999Z</time></trkpt><trkpt lat="46.123445312954885" lon="13.313687233901593"><ele>128.0</ele><time>2026-04-11T12:01:13.999Z</time></trkpt><trkpt lat="46.12340888590549" lon="13.313440321845512"><ele>128.0</ele><time>2026-04-11T12:01:14.999Z</time></trkpt><trkpt lat="46.12336968657119" lon="13.313185997367231"><ele>128.0</ele><time>2026-04-11T12:01:15.999Z</time></trkpt><trkpt lat="46.12333013880344" lon="13.312925881696808"><ele>128.0</ele><time>2026-04-11T12:01:16.999Z</time></trkpt><trkpt lat="46.12329182379674" lon="13.312657852963108"><ele>128.0</ele><time>2026-04-11T12:01:17.999Z</time></trkpt><trkpt lat="46.123251812004604" lon="13.312383002104935"><ele>128.0</ele><time>2026-04-11T12:01:18.999Z</time></trkpt><trkpt lat="46.12321092922637" lon="13.312116115872934"><ele>128.33333333333331</ele><time>2026-04-11T12:01:19.999Z</time></trkpt><trkpt lat="46.12316882438627" lon="13.311845788613509"><ele>128.66666666666666</ele><time>2026-04-11T12:01:20.999Z</time></trkpt><trkpt lat="46.12312918854772" lon="13.311569357784487"><ele>129.0</ele><time>2026-04-11T12:01:21.999Z</time></trkpt><trkpt lat="46.123091250396214" lon="13.311293764731536"><ele>129.33333333333334</ele><time>2026-04-11T12:01:22.999Z</time></trkpt><trkpt lat="46.12304953687098" lon="13.311016895711846"><ele>129.66666666666669</ele><time>2026-04-11T12:01:23.999Z</time></trkpt><trkpt lat="46.12300493847761" lon="13.310735089018099"><ele>130.0</ele><time>2026-04-11T12:01:24.999Z</time></trkpt><trkpt lat="46.122962794280795" lon="13.310453858697178"><ele>130.0</ele><time>2026-04-11T12:01:25.999Z</time></trkpt><trkpt lat="46.12291742718041" lon="13.310169849304234"><ele>130.0</ele><time>2026-04-11T12:01:26.999Z</time></trkpt><trkpt lat="46.1228730519611" lon="13.30988838963205"><ele>130.0</ele><time>2026-04-11T12:01:27.999Z</time></trkpt><trkpt lat="46.12283169832113" lon="13.309603031502077"><ele>130.0</ele><time>2026-04-11T12:01:28.999Z</time></trkpt><trkpt lat="46.122787397876316" lon="13.30930604582841"><ele>130.0</ele><time>2026-04-11T12:01:29.999Z</time></trkpt><trkpt lat="46.122742112777004" lon="13.308999613390496"><ele>130.0</ele><time>2026-04-11T12:01:30.999Z</time></trkpt><trkpt lat="46.122697072210336" lon="13.308691686800742"><ele>130.0</ele><time>2026-04-11T12:01:31.999Z</time></trkpt><trkpt lat="46.122652909784115" lon="13.308399440501042"><ele>130.0</ele><time>2026-04-11T12:01:32.999Z</time></trkpt><trkpt lat="46.12261316793804" lon="13.308135093253181"><ele>130.0</ele><time>2026-04-11T12:01:33.999Z</time></trkpt><trkpt lat="46.1225745312056" lon="13.307872648391893"><ele>130.0</ele><time>2026-04-11T12:01:35Z</time></trkpt><trkpt lat="46.12253881122088" lon="13.307618439301908"><ele>130.0</ele><time>2026-04-11T12:01:36Z</time></trkpt><trkpt lat="46.122497549391596" lon="13.307375652726092"><ele>130.0</ele><time>2026-04-11T12:01:37Z</time></trkpt><trkpt lat="46.12244852306399" lon="13.30714341870475"><ele>130.0</ele><time>2026-04-11T12:01:38Z</time></trkpt><trkpt lat="46.12240451104697" lon="13.306902062038246"><ele>130.0</ele><time>2026-04-11T12:01:39Z</time></trkpt><trkpt lat="46.122323495224094" lon="13.306673673209561"><ele>130.0</ele><time>2026-04-11T12:01:40Z</time></trkpt><trkpt lat="46.122212252009824" lon="13.306459841533943"><ele>129.66666666666669</ele><time>2026-04-11T12:01:41Z</time></trkpt><trkpt lat="46.12210251553684" lon="13.306231606429677"><ele>129.33333333333334</ele><time>2026-04-11T12:01:42Z</time></trkpt><trkpt lat="46.12199347615279" lon="13.30600696323431"><ele>129.0</ele><time>2026-04-11T12:01:43Z</time></trkpt><trkpt lat="46.121887763611" lon="13.305784377063686"><ele>128.66666666666666</ele><time>2026-04-11T12:01:44Z</time></trkpt><trkpt lat="46.121781697889965" lon="13.305564941466512"><ele>128.33333333333331</ele><time>2026-04-11T12:01:45Z</time></trkpt><trkpt lat="46.121676095132585" lon="13.30534853983453"><ele>128.0</ele><time>2026-04-11T12:01:46Z</time></trkpt><trkpt lat="46.12157433229693" lon="13.305133929345017"><ele>128.66666666666666</ele><time>2026-04-11T12:01:47Z</time></trkpt><trkpt lat="46.121472533106825" lon="13.304931902313106"><ele>129.33333333333334</ele><time>2026-04-11T12:01:48Z</time></trkpt><trkpt lat="46.12136292799232" lon="13.304741227833286"><ele>130.0</ele><time>2026-04-11T12:01:49Z</time></trkpt><trkpt lat="46.12123655312564" lon="13.304564426263076"><ele>130.33333333333334</ele><time>2026-04-11T12:01:50Z</time></trkpt><trkpt lat="46.12109565181632" lon="13.304408141919758"><ele>130.66666666666666</ele><time>2026-04-11T12:01:51Z</time></trkpt><trkpt lat="46.120951054283125" lon="13.304281549940685"><ele>131.0</ele><time>2026-04-11T12:01:52Z</time></trkpt><trkpt lat="46.12080609669071" lon="13.30416619739669"><ele>131.33333333333331</ele><time>2026-04-11T12:01:53Z</time></trkpt><trkpt lat="46.12066395053084" lon="13.304051081105884"><ele>131.66666666666666</ele><time>2026-04-11T12:01:54Z</time></trkpt><trkpt lat="46.12052439310135" lon="13.303935578696466"><ele>132.0</ele><time>2026-04-11T12:01:55Z</time></trkpt><trkpt lat="46.12038183550983" lon="13.303820191738778"><ele>132.66666666666666</ele><time>2026-04-11T12:01:56Z</time></trkpt><trkpt lat="46.12023472996084" lon="13.30370506235351"><ele>133.33333333333331</ele><time>2026-04-11T12:01:57Z</time></trkpt><trkpt lat="46.12009318875396" lon="13.303568935259085"><ele>134.0</ele><time>2026-04-11T12:01:58Z</time></trkpt><trkpt lat="46.11994130538265" lon="13.303450444115834"><ele>133.66666666666666</ele><time>2026-04-11T12:01:59Z</time></trkpt><trkpt lat="46.119788944651354" lon="13.303329592655658"><ele>133.33333333333334</ele><time>2026-04-11T12:02:00Z</time></trkpt><trkpt lat="46.119637062536796" lon="13.303209120818186"><ele>133.0</ele><time>2026-04-11T12:02:01Z</time></trkpt><trkpt lat="46.11949650993157" lon="13.303100096569942"><ele>132.75</ele><time>2026-04-11T12:02:02Z</time></trkpt><trkpt lat="46.1193629208631" lon="13.302997451415685"><ele>132.5</ele><time>2026-04-11T12:02:03Z</time></trkpt><trkpt lat="46.11923064590712" lon="13.30288956752442"><ele>132.25</ele><time>2026-04-11T12:02:04Z</time></trkpt><trkpt lat="46.11910476927941" lon="13.302792403163396"><ele>132.0</ele><time>2026-04-11T12:02:05Z</time></trkpt><trkpt lat="46.119007728191136" lon="13.302654248569292"><ele>131.75</ele><time>2026-04-11T12:02:06Z</time></trkpt><trkpt lat="46.11892577409007" lon="13.302488122336012"><ele>131.5</ele><time>2026-04-11T12:02:07Z</time></trkpt><trkpt lat="46.11887687525947" lon="13.302321274049"><ele>131.25</ele><time>2026-04-11T12:02:08Z</time></trkpt><trkpt lat="46.11884173758239" lon="13.302145816416575"><ele>131.0</ele><time>2026-04-11T12:02:09Z</time></trkpt><trkpt lat="46.11879868437331" lon="13.301958422444732"><ele>131.0</ele><time>2026-04-11T12:02:10Z</time></trkpt><trkpt lat="46.11876653369075" lon="13.301742156687004"><ele>131.0</ele><time>2026-04-11T12:02:11Z</time></trkpt><trkpt lat="46.118718821362734" lon="13.301550135160369"><ele>131.0</ele><time>2026-04-11T12:02:12Z</time></trkpt><trkpt lat="46.11866616866272" lon="13.301362066668874"><ele>131.0</ele><time>2026-04-11T12:02:13Z</time></trkpt><trkpt lat="46.118609160551074" lon="13.30117306393471"><ele>131.0</ele><time>2026-04-11T12:02:14Z</time></trkpt><trkpt lat="46.118546536440434" lon="13.300988484089007"><ele>131.0</ele><time>2026-04-11T12:02:15Z</time></trkpt><trkpt lat="46.1184807556468" lon="13.300817083167225"><ele>131.0</ele><time>2026-04-11T12:02:16Z</time></trkpt><trkpt lat="46.11840874261092" lon="13.300674569186993"><ele>131.0</ele><time>2026-04-11T12:02:17Z</time></trkpt><trkpt lat="46.11839490286029" lon="13.300488555962207"><ele>131.25</ele><time>2026-04-11T12:02:18Z</time></trkpt><trkpt lat="46.118357565433676" lon="13.30029499245241"><ele>131.5</ele><time>2026-04-11T12:02:19Z</time></trkpt><trkpt lat="46.118308473912755" lon="13.300088992153738"><ele>131.75</ele><time>2026-04-11T12:02:20Z</time></trkpt><trkpt lat="46.11826103680464" lon="13.299900641163905"><ele>132.0</ele><time>2026-04-11T12:02:21Z</time></trkpt><trkpt lat="46.118200654619685" lon="13.299727812587255"><ele>132.25</ele><time>2026-04-11T12:02:22Z</time></trkpt><trkpt lat="46.11816159055792" lon="13.29955884715696"><ele>132.5</ele><time>2026-04-11T12:02:23Z</time></trkpt><trkpt lat="46.118132476136104" lon="13.299378669292643"><ele>132.75</ele><time>2026-04-11T12:02:24Z</time></trkpt><trkpt lat="46.11811778311654" lon="13.29918988206162"><ele>133.0</ele><time>2026-04-11T12:02:25Z</time></trkpt><trkpt lat="46.11811352250846" lon="13.298990470058563"><ele>133.25</ele><time>2026-04-11T12:02:26Z</time></trkpt><trkpt lat="46.118120920325936" lon="13.298787582685463"><ele>133.5</ele><time>2026-04-11T12:02:27Z</time></trkpt><trkpt lat="46.11812964371806" lon="13.29858824819018"><ele>133.75</ele><time>2026-04-11T12:02:28Z</time></trkpt><trkpt lat="46.11813090200992" lon="13.298394074147756"><ele>134.0</ele><time>2026-04-11T12:02:29Z</time></trkpt><trkpt lat="46.118138064582745" lon="13.2981995128844"><ele>133.5</ele><time>2026-04-11T12:02:30Z</time></trkpt><trkpt lat="46.118148447703994" lon="13.298012881024636"><ele>133.0</ele><time>2026-04-11T12:02:31Z</time></trkpt><trkpt lat="46.11815198938675" lon="13.297833223306903"><ele>132.5</ele><time>2026-04-11T12:02:32Z</time></trkpt><trkpt lat="46.118159533042856" lon="13.297653145552125"><ele>132.0</ele><time>2026-04-11T12:02:33Z</time></trkpt><trkpt lat="46.11816279661666" lon="13.297467108140202"><ele>132.0</ele><time>2026-04-11T12:02:34Z</time></trkpt><trkpt lat="46.11816360718299" lon="13.297277068209933"><ele>132.0</ele><time>2026-04-11T12:02:35Z</time></trkpt><trkpt lat="46.11816929081126" lon="13.29708212816357"><ele>132.0</ele><time>2026-04-11T12:02:36Z</time></trkpt><trkpt lat="46.11814458264923" lon="13.296879421131528"><ele>132.0</ele><time>2026-04-11T12:02:37Z</time></trkpt><trkpt lat="46.118105249754436" lon="13.296677231797478"><ele>131.66666666666666</ele><time>2026-04-11T12:02:38Z</time></trkpt><trkpt lat="46.11803650414933" lon="13.296475222144577"><ele>131.33333333333331</ele><time>2026-04-11T12:02:39Z</time></trkpt><trkpt lat="46.11797964171734" lon="13.296279294950823"><ele>131.0</ele><time>2026-04-11T12:02:40Z</time></trkpt><trkpt lat="46.11794053475498" lon="13.296072045415801"><ele>131.5</ele><time>2026-04-11T12:02:41Z</time></trkpt><trkpt lat="46.11787283538149" lon="13.295882470437732"><ele>132.0</ele><time>2026-04-11T12:02:42Z</time></trkpt><trkpt lat="46.1178211863316" lon="13.295681979444122"><ele>132.5</ele><time>2026-04-11T12:02:43Z</time></trkpt><trkpt lat="46.11777930436747" lon="13.295472305895418"><ele>133.0</ele><time>2026-04-11T12:02:44Z</time></trkpt><trkpt lat="46.117722194224854" lon="13.295260395181286"><ele>133.33333333333334</ele><time>2026-04-11T12:02:45Z</time></trkpt><trkpt lat="46.117665457955916" lon="13.295049871571946"><ele>133.66666666666666</ele><time>2026-04-11T12:02:46Z</time></trkpt><trkpt lat="46.11761027164971" lon="13.294845891858847"><ele>134.0</ele><time>2026-04-11T12:02:47Z</time></trkpt><trkpt lat="46.117547187584435" lon="13.294651242176425"><ele>133.75</ele><time>2026-04-11T12:02:48Z</time></trkpt><trkpt lat="46.1174743827166" lon="13.29447239597318"><ele>133.5</ele><time>2026-04-11T12:02:49Z</time></trkpt><trkpt lat="46.11739259787564" lon="13.294301353607159"><ele>133.25</ele><time>2026-04-11T12:02:50Z</time></trkpt><trkpt lat="46.117306984450046" lon="13.29413603712873"><ele>133.0</ele><time>2026-04-11T12:02:51Z</time></trkpt><trkpt lat="46.11720013141456" lon="13.293988720668247"><ele>132.33333333333334</ele><time>2026-04-11T12:02:52Z</time></trkpt><trkpt lat="46.11711721628961" lon="13.29381216023568"><ele>131.66666666666666</ele><time>2026-04-11T12:02:53Z</time></trkpt><trkpt lat="46.1170291163978" lon="13.29361733421161"><ele>131.0</ele><time>2026-04-11T12:02:54Z</time></trkpt><trkpt lat="46.11692606646567" lon="13.29341199953076"><ele>131.0</ele><time>2026-04-11T12:02:55Z</time></trkpt><trkpt lat="46.11683339787732" lon="13.293216665921697"><ele>131.0</ele><time>2026-04-11T12:02:56Z</time></trkpt><trkpt lat="46.1167444351966" lon="13.29303071830786"><ele>131.0</ele><time>2026-04-11T12:02:57Z</time></trkpt><trkpt lat="46.11665430513298" lon="13.292860882882936"><ele>130.66666666666666</ele><time>2026-04-11T12:02:58Z</time></trkpt><trkpt lat="46.116562112027026" lon="13.292701216898841"><ele>130.33333333333334</ele><time>2026-04-11T12:02:59Z</time></trkpt><trkpt lat="46.1164642631882" lon="13.292526860381146"><ele>130.0</ele><time>2026-04-11T12:03:00Z</time></trkpt><trkpt lat="46.11637579617981" lon="13.292345471309766"><ele>129.75</ele><time>2026-04-11T12:03:01Z</time></trkpt><trkpt lat="46.11629144948297" lon="13.292168825706202"><ele>129.5</ele><time>2026-04-11T12:03:02Z</time></trkpt><trkpt lat="46.11621616300283" lon="13.291994026984225"><ele>129.25</ele><time>2026-04-11T12:03:02.999Z</time></trkpt><trkpt lat="46.11615728886965" lon="13.291805513192948"><ele>129.0</ele><time>2026-04-11T12:03:03.999Z</time></trkpt><trkpt lat="46.11611516708464" lon="13.291597860248421"><ele>129.33333333333334</ele><time>2026-04-11T12:03:04.999Z</time></trkpt><trkpt lat="46.11609084161077" lon="13.291374500459117"><ele>129.66666666666669</ele><time>2026-04-11T12:03:05.999Z</time></trkpt><trkpt lat="46.1160741056506" lon="13.291146456647107"><ele>130.0</ele><time>2026-04-11T12:03:06.999Z</time></trkpt><trkpt lat="46.11605996682772" lon="13.290919537935272"><ele>130.0</ele><time>2026-04-11T12:03:07.999Z</time></trkpt><trkpt lat="46.11604393844437" lon="13.290681400000613"><ele>130.0</ele><time>2026-04-11T12:03:08.999Z</time></trkpt><trkpt lat="46.11602536104773" lon="13.29044411490411"><ele>130.0</ele><time>2026-04-11T12:03:09.999Z</time></trkpt><trkpt lat="46.116008631306904" lon="13.290209114803263"><ele>131.0</ele><time>2026-04-11T12:03:10.999Z</time></trkpt><trkpt lat="46.11599301008742" lon="13.289972519257471"><ele>132.0</ele><time>2026-04-11T12:03:11.999Z</time></trkpt><trkpt lat="46.11597881841788" lon="13.289736874155382"><ele>133.0</ele><time>2026-04-11T12:03:12.999Z</time></trkpt><trkpt lat="46.115963583716045" lon="13.289501693696668"><ele>133.33333333333334</ele><time>2026-04-11T12:03:13.999Z</time></trkpt><trkpt lat="46.11594510326539" lon="13.289267527303192"><ele>133.66666666666666</ele><time>2026-04-11T12:03:14.999Z</time></trkpt><trkpt lat="46.11592724258857" lon="13.289032549699346"><ele>134.0</ele><time>2026-04-11T12:03:15.999Z</time></trkpt><trkpt lat="46.115913030059694" lon="13.288795968107804"><ele>134.0</ele><time>2026-04-11T12:03:16.999Z</time></trkpt><trkpt lat="46.115897485496184" lon="13.288559568432964"><ele>134.0</ele><time>2026-04-11T12:03:17.999Z</time></trkpt><trkpt lat="46.11588137823991" lon="13.288323930854704"><ele>134.0</ele><time>2026-04-11T12:03:18.999Z</time></trkpt><trkpt lat="46.115865122980566" lon="13.288085879488328"><ele>134.0</ele><time>2026-04-11T12:03:19.999Z</time></trkpt><trkpt lat="46.115845249086895" lon="13.287836140398303"><ele>134.0</ele><time>2026-04-11T12:03:20.999Z</time></trkpt><trkpt lat="46.115826080235024" lon="13.287583825733854"><ele>134.0</ele><time>2026-04-11T12:03:21.999Z</time></trkpt><trkpt lat="46.11581491178828" lon="13.287332766227138"><ele>133.33333333333331</ele><time>2026-04-11T12:03:22.999Z</time></trkpt><trkpt lat="46.11580023918999" lon="13.287093205333994"><ele>132.66666666666666</ele><time>2026-04-11T12:03:23.999Z</time></trkpt><trkpt lat="46.115772767171" lon="13.28686737177147"><ele>132.0</ele><time>2026-04-11T12:03:24.999Z</time></trkpt><trkpt lat="46.115746251867535" lon="13.286648525294424"><ele>132.0</ele><time>2026-04-11T12:03:25.999Z</time></trkpt><trkpt lat="46.11569190905053" lon="13.286440910520916"><ele>132.0</ele><time>2026-04-11T12:03:26.999Z</time></trkpt><trkpt lat="46.11561885199929" lon="13.286245978809236"><ele>132.0</ele><time>2026-04-11T12:03:27.999Z</time></trkpt><trkpt lat="46.11554233985077" lon="13.28604420758542"><ele>132.33333333333334</ele><time>2026-04-11T12:03:28.999Z</time></trkpt><trkpt lat="46.115447238750775" lon="13.285845894432585"><ele>132.66666666666669</ele><time>2026-04-11T12:03:29.999Z</time></trkpt><trkpt lat="46.11537858591265" lon="13.285620814085503"><ele>133.0</ele><time>2026-04-11T12:03:30.999Z</time></trkpt><trkpt lat="46.1152833485846" lon="13.285421202166578"><ele>133.0</ele><time>2026-04-11T12:03:31.999Z</time></trkpt><trkpt lat="46.11520316278265" lon="13.28521362628163"><ele>133.0</ele><time>2026-04-11T12:03:32.999Z</time></trkpt><trkpt lat="46.11513123950345" lon="13.285025871820064"><ele>133.0</ele><time>2026-04-11T12:03:33.999Z</time></trkpt><trkpt lat="46.11506199855835" lon="13.284839169934155"><ele>133.0</ele><time>2026-04-11T12:03:34.999Z</time></trkpt><trkpt lat="46.11498994276122" lon="13.28465306799082"><ele>133.0</ele><time>2026-04-11T12:03:35.999Z</time></trkpt><trkpt lat="46.11491888580807" lon="13.284474822967384"><ele>133.0</ele><time>2026-04-11T12:03:36.999Z</time></trkpt><trkpt lat="46.11485139102946" lon="13.284308628747777"><ele>133.0</ele><time>2026-04-11T12:03:37.999Z</time></trkpt><trkpt lat="46.11479313391861" lon="13.284130990014255"><ele>133.0</ele><time>2026-04-11T12:03:38.999Z</time></trkpt><trkpt lat="46.11470546074686" lon="13.283979916176065"><ele>133.0</ele><time>2026-04-11T12:03:40Z</time></trkpt><trkpt lat="46.11459544459028" lon="13.283839319997067"><ele>133.0</ele><time>2026-04-11T12:03:41Z</time></trkpt><trkpt lat="46.114480355164105" lon="13.283689516382267"><ele>133.0</ele><time>2026-04-11T12:03:42Z</time></trkpt><trkpt lat="46.114361033980416" lon="13.283535523267037"><ele>132.75</ele><time>2026-04-11T12:03:43Z</time></trkpt><trkpt lat="46.11425050003329" lon="13.283391807944234"><ele>132.5</ele><time>2026-04-11T12:03:44Z</time></trkpt><trkpt lat="46.11414807579106" lon="13.283257612148587"><ele>132.25</ele><time>2026-04-11T12:03:45Z</time></trkpt><trkpt lat="46.11405170502385" lon="13.283128054017508"><ele>132.0</ele><time>2026-04-11T12:03:46Z</time></trkpt><trkpt lat="46.11395489390352" lon="13.282997287222608"><ele>132.0</ele><time>2026-04-11T12:03:47Z</time></trkpt><trkpt lat="46.113854523327305" lon="13.282878173229983"><ele>132.0</ele><time>2026-04-11T12:03:48Z</time></trkpt><trkpt lat="46.11378577464079" lon="13.2827127817917"><ele>132.0</ele><time>2026-04-11T12:03:49Z</time></trkpt><trkpt lat="46.11373012968448" lon="13.28252832045898"><ele>132.0</ele><time>2026-04-11T12:03:50Z</time></trkpt><trkpt lat="46.113676090631564" lon="13.282345742511335"><ele>132.0</ele><time>2026-04-11T12:03:51Z</time></trkpt><trkpt lat="46.11362449022273" lon="13.282165781905007"><ele>132.0</ele><time>2026-04-11T12:03:52Z</time></trkpt><trkpt lat="46.11357858198997" lon="13.281988574827427"><ele>132.0</ele><time>2026-04-11T12:03:53Z</time></trkpt><trkpt lat="46.11353288710151" lon="13.281817367928685"><ele>132.0</ele><time>2026-04-11T12:03:54Z</time></trkpt><trkpt lat="46.1134853845242" lon="13.281660571951287"><ele>132.0</ele><time>2026-04-11T12:03:55Z</time></trkpt><trkpt lat="46.113443715615006" lon="13.281519904842893"><ele>132.0</ele><time>2026-04-11T12:03:56Z</time></trkpt><trkpt lat="46.11341436258318" lon="13.281407065181005"><ele>132.0</ele><time>2026-04-11T12:03:57Z</time></trkpt><trkpt lat="46.113394275493214" lon="13.281310140715279"><ele>132.0</ele><time>2026-04-11T12:03:58Z</time></trkpt><trkpt lat="46.11336204286136" lon="13.281158355488767"><ele>132.0</ele><time>2026-04-11T12:04:00Z</time></trkpt><trkpt lat="46.11332516432232" lon="13.281081514764297"><ele>132.0</ele><time>2026-04-11T12:04:03Z</time></trkpt><trkpt lat="46.1132577756862" lon="13.280926681821267"><ele>131.6</ele><time>2026-04-11T12:05:00Z</time></trkpt><trkpt lat="46.11317402066194" lon="13.280812038025417"><ele>131.2</ele><time>2026-04-11T12:05:01Z</time></trkpt><trkpt lat="46.11312056257256" lon="13.280649509050232"><ele>130.8</ele><time>2026-04-11T12:05:02Z</time></trkpt><trkpt lat="46.11310539115534" lon="13.280494525769674"><ele>130.4</ele><time>2026-04-11T12:05:03Z</time></trkpt><trkpt lat="46.11312988235488" lon="13.280363795395374"><ele>130.0</ele><time>2026-04-11T12:05:04Z</time></trkpt><trkpt lat="46.113174730342976" lon="13.280261046066823"><ele>130.0</ele><time>2026-04-11T12:05:05Z</time></trkpt><trkpt lat="46.11323096766724" lon="13.280165187517408"><ele>130.0</ele><time>2026-04-11T12:05:06Z</time></trkpt><trkpt lat="46.11329947127351" lon="13.280078824283384"><ele>130.0</ele><time>2026-04-11T12:05:07Z</time></trkpt><trkpt lat="46.11337126746035" lon="13.279968674503014"><ele>130.0</ele><time>2026-04-11T12:05:08Z</time></trkpt><trkpt lat="46.11344177001397" lon="13.279832144958476"><ele>130.0</ele><time>2026-04-11T12:05:08.999Z</time></trkpt><trkpt lat="46.113500779232176" lon="13.2797298219318"><ele>129.8</ele><time>2026-04-11T12:05:09.999Z</time></trkpt><trkpt lat="46.113548581918685" lon="13.279661981888992"><ele>129.6</ele><time>2026-04-11T12:05:10.999Z</time></trkpt><trkpt lat="46.11365898166285" lon="13.279610711496373"><ele>129.4</ele><time>2026-04-11T12:05:12.999Z</time></trkpt><trkpt lat="46.11373964367314" lon="13.279598074801303"><ele>129.2</ele><time>2026-04-11T12:05:13.999Z</time></trkpt><trkpt lat="46.1138246483523" lon="13.27955918383029"><ele>129.0</ele><time>2026-04-11T12:05:14.999Z</time></trkpt><trkpt lat="46.113921399103155" lon="13.279489831439085"><ele>129.0</ele><time>2026-04-11T12:05:15.999Z</time></trkpt><trkpt lat="46.114008556362236" lon="13.279379553896353"><ele>129.0</ele><time>2026-04-11T12:05:16.999Z</time></trkpt><trkpt lat="46.11406573309923" lon="13.27923484384472"><ele>129.0</ele><time>2026-04-11T12:05:17.999Z</time></trkpt><trkpt lat="46.11409563213228" lon="13.279079507774675"><ele>129.0</ele><time>2026-04-11T12:05:18.999Z</time></trkpt><trkpt lat="46.11409910072732" lon="13.278924615116875"><ele>129.5</ele><time>2026-04-11T12:05:19.999Z</time></trkpt><trkpt lat="46.11407182219041" lon="13.278768450552352"><ele>130.0</ele><time>2026-04-11T12:05:20.999Z</time></trkpt><trkpt lat="46.11400615196287" lon="13.278626248601814"><ele>130.5</ele><time>2026-04-11T12:05:21.999Z</time></trkpt><trkpt lat="46.113919340165346" lon="13.278514983152807"><ele>131.0</ele><time>2026-04-11T12:05:22.999Z</time></trkpt><trkpt lat="46.113817390581" lon="13.278441425006097"><ele>131.25</ele><time>2026-04-11T12:05:23.999Z</time></trkpt><trkpt lat="46.113704725329704" lon="13.278422181704448"><ele>131.5</ele><time>2026-04-11T12:05:24.999Z</time></trkpt><trkpt lat="46.113593670619636" lon="13.27843489816304"><ele>131.75</ele><time>2026-04-11T12:05:25.999Z</time></trkpt><trkpt lat="46.11348646876251" lon="13.27850183932915"><ele>132.0</ele><time>2026-04-11T12:05:26.999Z</time></trkpt><trkpt lat="46.11338959039434" lon="13.278612521102222"><ele>132.0</ele><time>2026-04-11T12:05:27.999Z</time></trkpt><trkpt lat="46.11330311935235" lon="13.278764673054654"><ele>132.0</ele><time>2026-04-11T12:05:28.999Z</time></trkpt><trkpt lat="46.11322030797207" lon="13.278952971515967"><ele>132.0</ele><time>2026-04-11T12:05:29.999Z</time></trkpt><trkpt lat="46.113130486899564" lon="13.279157380661738"><ele>131.33333333333334</ele><time>2026-04-11T12:05:30.999Z</time></trkpt><trkpt lat="46.1130183994258" lon="13.279364854686673"><ele>130.66666666666669</ele><time>2026-04-11T12:05:31.999Z</time></trkpt><trkpt lat="46.11290451475745" lon="13.279533987377915"><ele>130.0</ele><time>2026-04-11T12:05:32.999Z</time></trkpt><trkpt lat="46.11278141115653" lon="13.279672586305827"><ele>129.66666666666669</ele><time>2026-04-11T12:05:33.999Z</time></trkpt><trkpt lat="46.11263956110091" lon="13.279788498951032"><ele>129.33333333333334</ele><time>2026-04-11T12:05:34.999Z</time></trkpt><trkpt lat="46.112466159807816" lon="13.279887913847697"><ele>129.0</ele><time>2026-04-11T12:05:35.999Z</time></trkpt><trkpt lat="46.11227643790447" lon="13.279981447574361"><ele>129.0</ele><time>2026-04-11T12:05:36.999Z</time></trkpt><trkpt lat="46.11207255684672" lon="13.280042192411265"><ele>129.0</ele><time>2026-04-11T12:05:37.999Z</time></trkpt><trkpt lat="46.11188000825177" lon="13.280122008640921"><ele>129.0</ele><time>2026-04-11T12:05:38.999Z</time></trkpt><trkpt lat="46.11169459851077" lon="13.280199329533186"><ele>128.66666666666666</ele><time>2026-04-11T12:05:39.999Z</time></trkpt><trkpt lat="46.11151172059537" lon="13.280274956938332"><ele>128.33333333333331</ele><time>2026-04-11T12:05:40.999Z</time></trkpt><trkpt lat="46.11131375599483" lon="13.280357064647063"><ele>128.0</ele><time>2026-04-11T12:05:41.999Z</time></trkpt><trkpt lat="46.1111035307446" lon="13.280444780383046"><ele>128.0</ele><time>2026-04-11T12:05:42.999Z</time></trkpt><trkpt lat="46.11089454807061" lon="13.280532029069743"><ele>128.0</ele><time>2026-04-11T12:05:43.999Z</time></trkpt><trkpt lat="46.11069340898908" lon="13.280616003086266"><ele>128.0</ele><time>2026-04-11T12:05:44.999Z</time></trkpt><trkpt lat="46.1104928592289" lon="13.28070421725987"><ele>127.5</ele><time>2026-04-11T12:05:46Z</time></trkpt><trkpt lat="46.11028496986267" lon="13.280807570582263"><ele>127.0</ele><time>2026-04-11T12:05:47Z</time></trkpt><trkpt lat="46.11006851437643" lon="13.280922576119947"><ele>125.5</ele><time>2026-04-11T12:05:48Z</time></trkpt><trkpt lat="46.10984948094212" lon="13.281043166381542"><ele>124.0</ele><time>2026-04-11T12:05:49Z</time></trkpt><trkpt lat="46.109623479983235" lon="13.281169976659815"><ele>124.0</ele><time>2026-04-11T12:05:50Z</time></trkpt><trkpt lat="46.1093947797973" lon="13.281298301509553"><ele>124.0</ele><time>2026-04-11T12:05:51Z</time></trkpt><trkpt lat="46.1091665276886" lon="13.28142660786903"><ele>126.5</ele><time>2026-04-11T12:05:52Z</time></trkpt><trkpt lat="46.108937013766926" lon="13.28155601092696"><ele>129.0</ele><time>2026-04-11T12:05:53Z</time></trkpt><trkpt lat="46.10870785273004" lon="13.281703877808091"><ele>129.0</ele><time>2026-04-11T12:05:54Z</time></trkpt><trkpt lat="46.108469007473396" lon="13.281831495017052"><ele>129.0</ele><time>2026-04-11T12:05:55Z</time></trkpt><trkpt lat="46.108226456872366" lon="13.281958508884964"><ele>128.0</ele><time>2026-04-11T12:05:56Z</time></trkpt><trkpt lat="46.10797838366945" lon="13.282076516776591"><ele>127.0</ele><time>2026-04-11T12:05:57Z</time></trkpt><trkpt lat="46.10772058905611" lon="13.282178996334567"><ele>126.5</ele><time>2026-04-11T12:05:58Z</time></trkpt><trkpt lat="46.107455349265926" lon="13.28226588948124"><ele>126.0</ele><time>2026-04-11T12:05:59Z</time></trkpt><trkpt lat="46.10718008733211" lon="13.282341823517982"><ele>124.5</ele><time>2026-04-11T12:06:00Z</time></trkpt><trkpt lat="46.106900974855485" lon="13.28241597905128"><ele>123.0</ele><time>2026-04-11T12:06:01Z</time></trkpt><trkpt lat="46.106628831880286" lon="13.282486572671369"><ele>122.5</ele><time>2026-04-11T12:06:02Z</time></trkpt><trkpt lat="46.106359687711404" lon="13.282556051236021"><ele>122.0</ele><time>2026-04-11T12:06:03Z</time></trkpt><trkpt lat="46.10609373673899" lon="13.28262671857137"><ele>122.0</ele><time>2026-04-11T12:06:04Z</time></trkpt><trkpt lat="46.1058301839708" lon="13.282694838717761"><ele>122.0</ele><time>2026-04-11T12:06:05Z</time></trkpt><trkpt lat="46.10556354393001" lon="13.282739085089988"><ele>122.0</ele><time>2026-04-11T12:06:06Z</time></trkpt><trkpt lat="46.10529924795546" lon="13.282806317546253"><ele>122.0</ele><time>2026-04-11T12:06:07Z</time></trkpt><trkpt lat="46.10503573067343" lon="13.282873351892173"><ele>122.0</ele><time>2026-04-11T12:06:08Z</time></trkpt><trkpt lat="46.10477228435707" lon="13.282940368202057"><ele>122.0</ele><time>2026-04-11T12:06:09Z</time></trkpt><trkpt lat="46.104510584534324" lon="13.283006940252093"><ele>122.0</ele><time>2026-04-11T12:06:10Z</time></trkpt><trkpt lat="46.104248145499" lon="13.283073700317098"><ele>122.0</ele><time>2026-04-11T12:06:11Z</time></trkpt><trkpt lat="46.103984306385165" lon="13.28314081652727"><ele>122.0</ele><time>2026-04-11T12:06:12Z</time></trkpt><trkpt lat="46.10372169758381" lon="13.283207619779562"><ele>122.0</ele><time>2026-04-11T12:06:13Z</time></trkpt><trkpt lat="46.1034587684951" lon="13.283275372642892"><ele>122.5</ele><time>2026-04-11T12:06:14Z</time></trkpt><trkpt lat="46.10319754775579" lon="13.283342740450404"><ele>123.0</ele><time>2026-04-11T12:06:15Z</time></trkpt><trkpt lat="46.10293927243723" lon="13.283409208152815"><ele>123.0</ele><time>2026-04-11T12:06:16Z</time></trkpt><trkpt lat="46.10268981475013" lon="13.283496164158269"><ele>123.0</ele><time>2026-04-11T12:06:17Z</time></trkpt><trkpt lat="46.102438653573856" lon="13.283559605894352"><ele>122.5</ele><time>2026-04-11T12:06:18Z</time></trkpt><trkpt lat="46.10218643285214" lon="13.283626350944155"><ele>122.0</ele><time>2026-04-11T12:06:19Z</time></trkpt><trkpt lat="46.10193350163011" lon="13.283714583001132"><ele>122.0</ele><time>2026-04-11T12:06:20Z</time></trkpt><trkpt lat="46.10168193141083" lon="13.283826454259264"><ele>122.0</ele><time>2026-04-11T12:06:21Z</time></trkpt><trkpt lat="46.10143154199777" lon="13.283963281032031"><ele>121.5</ele><time>2026-04-11T12:06:22Z</time></trkpt><trkpt lat="46.10118298783072" lon="13.28412513102022"><ele>121.0</ele><time>2026-04-11T12:06:23Z</time></trkpt><trkpt lat="46.100943372115076" lon="13.284303038396825"><ele>122.0</ele><time>2026-04-11T12:06:24Z</time></trkpt><trkpt lat="46.10071845180166" lon="13.284497618798325"><ele>123.0</ele><time>2026-04-11T12:06:25Z</time></trkpt><trkpt lat="46.10050035655233" lon="13.284710917629555"><ele>121.5</ele><time>2026-04-11T12:06:26Z</time></trkpt><trkpt lat="46.100289681136694" lon="13.284937603598769"><ele>120.0</ele><time>2026-04-11T12:06:27Z</time></trkpt><trkpt lat="46.100091051003176" lon="13.285183810116271"><ele>120.5</ele><time>2026-04-11T12:06:28Z</time></trkpt><trkpt lat="46.09990259999508" lon="13.285447374568278"><ele>121.0</ele><time>2026-04-11T12:06:29Z</time></trkpt><trkpt lat="46.09972447412686" lon="13.285727264605848"><ele>120.0</ele><time>2026-04-11T12:06:30Z</time></trkpt><trkpt lat="46.0995562297758" lon="13.286024721512499"><ele>119.0</ele><time>2026-04-11T12:06:31Z</time></trkpt><trkpt lat="46.09939160313456" lon="13.286325463877553"><ele>119.0</ele><time>2026-04-11T12:06:32Z</time></trkpt><trkpt lat="46.09923159207888" lon="13.286623488388525"><ele>119.0</ele><time>2026-04-11T12:06:33Z</time></trkpt><trkpt lat="46.09907232023874" lon="13.286913339108775"><ele>119.0</ele><time>2026-04-11T12:06:34Z</time></trkpt><trkpt lat="46.09890226493006" lon="13.287190150696595"><ele>119.0</ele><time>2026-04-11T12:06:35Z</time></trkpt><trkpt lat="46.098730133618574" lon="13.287452860277273"><ele>119.5</ele><time>2026-04-11T12:06:36Z</time></trkpt><trkpt lat="46.09855100415624" lon="13.287700090505096"><ele>120.0</ele><time>2026-04-11T12:06:37Z</time></trkpt><trkpt lat="46.09836080202949" lon="13.28792066733993"><ele>120.0</ele><time>2026-04-11T12:06:38Z</time></trkpt><trkpt lat="46.09815593105849" lon="13.288122253875754"><ele>120.0</ele><time>2026-04-11T12:06:39Z</time></trkpt><trkpt lat="46.09794612923527" lon="13.28831075410523"><ele>120.0</ele><time>2026-04-11T12:06:40Z</time></trkpt><trkpt lat="46.09772648428525" lon="13.288457159347088"><ele>120.0</ele><time>2026-04-11T12:06:41Z</time></trkpt><trkpt lat="46.09750693102822" lon="13.288586241722744"><ele>119.5</ele><time>2026-04-11T12:06:42Z</time></trkpt><trkpt lat="46.097285949891955" lon="13.28870693791519"><ele>119.0</ele><time>2026-04-11T12:06:43Z</time></trkpt><trkpt lat="46.09707984104126" lon="13.288859870500968"><ele>119.66666666666666</ele><time>2026-04-11T12:06:44Z</time></trkpt><trkpt lat="46.09687503055945" lon="13.288969497175765"><ele>120.33333333333334</ele><time>2026-04-11T12:06:45Z</time></trkpt><trkpt lat="46.09668736607141" lon="13.289072840577463"><ele>121.0</ele><time>2026-04-11T12:06:46Z</time></trkpt><trkpt lat="46.09652209611759" lon="13.289163362085525"><ele>121.0</ele><time>2026-04-11T12:06:47Z</time></trkpt><trkpt lat="46.09636424789761" lon="13.289215678228901"><ele>121.0</ele><time>2026-04-11T12:06:48Z</time></trkpt><trkpt lat="46.096241276186646" lon="13.289304403536713"><ele>121.0</ele><time>2026-04-11T12:06:49Z</time></trkpt><trkpt lat="46.0961126334371" lon="13.28935669014696"><ele>121.0</ele><time>2026-04-11T12:06:50Z</time></trkpt><trkpt lat="46.09598986501076" lon="13.289389508618344"><ele>121.0</ele><time>2026-04-11T12:06:51Z</time></trkpt><trkpt lat="46.09586644823952" lon="13.28940601246257"><ele>121.0</ele><time>2026-04-11T12:06:52Z</time></trkpt><trkpt lat="46.095757160769736" lon="13.289453645324986"><ele>121.0</ele><time>2026-04-11T12:06:53Z</time></trkpt><trkpt lat="46.0956336027899" lon="13.289412831368626"><ele>121.0</ele><time>2026-04-11T12:06:54Z</time></trkpt><trkpt lat="46.09552340893404" lon="13.289473011899377"><ele>120.75</ele><time>2026-04-11T12:06:55Z</time></trkpt><trkpt lat="46.09543618595114" lon="13.289572371613934"><ele>120.5</ele><time>2026-04-11T12:06:56Z</time></trkpt><trkpt lat="46.095360542985134" lon="13.28969238386338"><ele>120.25</ele><time>2026-04-11T12:06:57Z</time></trkpt><trkpt lat="46.09525859077126" lon="13.289809735421985"><ele>120.0</ele><time>2026-04-11T12:06:58Z</time></trkpt><trkpt lat="46.095127516798634" lon="13.289889930116798"><ele>119.33333333333334</ele><time>2026-04-11T12:06:59Z</time></trkpt><trkpt lat="46.09498919000336" lon="13.289967614283714"><ele>118.66666666666667</ele><time>2026-04-11T12:07:00Z</time></trkpt><trkpt lat="46.09485084197241" lon="13.290045638633002"><ele>118.0</ele><time>2026-04-11T12:07:01Z</time></trkpt><trkpt lat="46.094692002642354" lon="13.29012886932189"><ele>117.66666666666667</ele><time>2026-04-11T12:07:02Z</time></trkpt><trkpt lat="46.0945301704784" lon="13.290217053113267"><ele>117.33333333333334</ele><time>2026-04-11T12:07:03Z</time></trkpt><trkpt lat="46.09436382342254" lon="13.290308586888063"><ele>117.0</ele><time>2026-04-11T12:07:04Z</time></trkpt><trkpt lat="46.094189719623984" lon="13.290400162206053"><ele>117.0</ele><time>2026-04-11T12:07:05Z</time></trkpt><trkpt lat="46.09401152716254" lon="13.290492645373764"><ele>117.0</ele><time>2026-04-11T12:07:06Z</time></trkpt><trkpt lat="46.09382780667902" lon="13.290590554414786"><ele>117.0</ele><time>2026-04-11T12:07:07Z</time></trkpt><trkpt lat="46.09364670334322" lon="13.290689893354633"><ele>117.0</ele><time>2026-04-11T12:07:08Z</time></trkpt><trkpt lat="46.09346573466833" lon="13.290789074779074"><ele>117.0</ele><time>2026-04-11T12:07:08.999Z</time></trkpt><trkpt lat="46.0932830649083" lon="13.290885460261036"><ele>117.0</ele><time>2026-04-11T12:07:09.999Z</time></trkpt><trkpt lat="46.09310103708863" lon="13.29098214887643"><ele>116.33333333333334</ele><time>2026-04-11T12:07:10.999Z</time></trkpt><trkpt lat="46.09292089545929" lon="13.291080052116744"><ele>115.66666666666667</ele><time>2026-04-11T12:07:11.999Z</time></trkpt><trkpt lat="46.092739457202896" lon="13.29117966381631"><ele>115.0</ele><time>2026-04-11T12:07:12.999Z</time></trkpt><trkpt lat="46.092557375846795" lon="13.29127722179849"><ele>115.0</ele><time>2026-04-11T12:07:13.999Z</time></trkpt><trkpt lat="46.09237511779106" lon="13.291372332917433"><ele>115.0</ele><time>2026-04-11T12:07:14.999Z</time></trkpt><trkpt lat="46.09219762030017" lon="13.291468107556975"><ele>115.0</ele><time>2026-04-11T12:07:15.999Z</time></trkpt><trkpt lat="46.09202377545839" lon="13.291563805194103"><ele>115.0</ele><time>2026-04-11T12:07:16.999Z</time></trkpt><trkpt lat="46.09185058220788" lon="13.291655297673925"><ele>115.0</ele><time>2026-04-11T12:07:17.999Z</time></trkpt><trkpt lat="46.091671512886016" lon="13.291744360910327"><ele>115.0</ele><time>2026-04-11T12:07:18.999Z</time></trkpt><trkpt lat="46.09148917482064" lon="13.291830735434209"><ele>115.33333333333334</ele><time>2026-04-11T12:07:19.999Z</time></trkpt><trkpt lat="46.09130021226411" lon="13.291888003953881"><ele>115.66666666666666</ele><time>2026-04-11T12:07:20.999Z</time></trkpt><trkpt lat="46.0911232576835" lon="13.291992650985607"><ele>116.0</ele><time>2026-04-11T12:07:21.999Z</time></trkpt><trkpt lat="46.09094236896019" lon="13.292062751448942"><ele>116.0</ele><time>2026-04-11T12:07:22.999Z</time></trkpt><trkpt lat="46.0907631746521" lon="13.29213537348021"><ele>116.0</ele><time>2026-04-11T12:07:23.999Z</time></trkpt><trkpt lat="46.09058318596822" lon="13.292210607823474"><ele>116.0</ele><time>2026-04-11T12:07:24.999Z</time></trkpt><trkpt lat="46.09039604320108" lon="13.292260282868774"><ele>116.0</ele><time>2026-04-11T12:07:25.999Z</time></trkpt><trkpt lat="46.09021735914481" lon="13.292356822262551"><ele>116.0</ele><time>2026-04-11T12:07:26.999Z</time></trkpt><trkpt lat="46.09003395765069" lon="13.292431354012296"><ele>116.0</ele><time>2026-04-11T12:07:27.999Z</time></trkpt><trkpt lat="46.089851743755915" lon="13.292506626394758"><ele>115.66666666666666</ele><time>2026-04-11T12:07:28.999Z</time></trkpt><trkpt lat="46.08966702891535" lon="13.292584575583648"><ele>115.33333333333334</ele><time>2026-04-11T12:07:29.999Z</time></trkpt><trkpt lat="46.08947521479591" lon="13.292639084677116"><ele>115.0</ele><time>2026-04-11T12:07:30.999Z</time></trkpt><trkpt lat="46.08928713193373" lon="13.292715773078324"><ele>115.0</ele><time>2026-04-11T12:07:31.999Z</time></trkpt><trkpt lat="46.08910125292438" lon="13.292791287574497"><ele>115.0</ele><time>2026-04-11T12:07:32.999Z</time></trkpt><trkpt lat="46.08891958738692" lon="13.292865090320822"><ele>115.0</ele><time>2026-04-11T12:07:33.999Z</time></trkpt><trkpt lat="46.088740886684974" lon="13.292938832322172"><ele>115.0</ele><time>2026-04-11T12:07:34.999Z</time></trkpt><trkpt lat="46.08856677031278" lon="13.293033108422657"><ele>115.0</ele><time>2026-04-11T12:07:35.999Z</time></trkpt><trkpt lat="46.08838801317259" lon="13.29310357253168"><ele>115.0</ele><time>2026-04-11T12:07:36.999Z</time></trkpt><trkpt lat="46.0882085868137" lon="13.293176005867645"><ele>114.66666666666667</ele><time>2026-04-11T12:07:37.999Z</time></trkpt><trkpt lat="46.08802933556532" lon="13.293251689394223"><ele>114.33333333333334</ele><time>2026-04-11T12:07:38.999Z</time></trkpt><trkpt lat="46.08784913003116" lon="13.293325528119972"><ele>114.0</ele><time>2026-04-11T12:07:39.999Z</time></trkpt><trkpt lat="46.087669579729166" lon="13.293397846854484"><ele>114.0</ele><time>2026-04-11T12:07:40.999Z</time></trkpt><trkpt lat="46.08749047314126" lon="13.293473377434925"><ele>114.0</ele><time>2026-04-11T12:07:41.999Z</time></trkpt><trkpt lat="46.087311509438315" lon="13.293549546724968"><ele>114.0</ele><time>2026-04-11T12:07:42.999Z</time></trkpt><trkpt lat="46.08712949970579" lon="13.293622943003239"><ele>114.0</ele><time>2026-04-11T12:07:43.999Z</time></trkpt><trkpt lat="46.086944125731705" lon="13.293701802145357"><ele>114.0</ele><time>2026-04-11T12:07:44.999Z</time></trkpt><trkpt lat="46.086756546881396" lon="13.293780316910283"><ele>114.0</ele><time>2026-04-11T12:07:45.999Z</time></trkpt><trkpt lat="46.08656570559813" lon="13.29385596859805"><ele>115.0</ele><time>2026-04-11T12:07:46.999Z</time></trkpt><trkpt lat="46.08637787174684" lon="13.29393046542156"><ele>116.0</ele><time>2026-04-11T12:07:47.999Z</time></trkpt><trkpt lat="46.08618976651799" lon="13.294011520108173"><ele>117.0</ele><time>2026-04-11T12:07:48.999Z</time></trkpt><trkpt lat="46.086002461816086" lon="13.294090087703355"><ele>117.0</ele><time>2026-04-11T12:07:49.999Z</time></trkpt><trkpt lat="46.085816909642865" lon="13.29416544227468"><ele>117.0</ele><time>2026-04-11T12:07:50.999Z</time></trkpt><trkpt lat="46.08563260600341" lon="13.294240449583507"><ele>117.0</ele><time>2026-04-11T12:07:52Z</time></trkpt><trkpt lat="46.08545111065229" lon="13.294316308263323"><ele>115.66666666666666</ele><time>2026-04-11T12:07:53Z</time></trkpt><trkpt lat="46.08527128134546" lon="13.294390864340254"><ele>114.33333333333333</ele><time>2026-04-11T12:07:54Z</time></trkpt><trkpt lat="46.08509087890933" lon="13.294463328704287"><ele>113.0</ele><time>2026-04-11T12:07:55Z</time></trkpt><trkpt lat="46.08491095790277" lon="13.294532877252399"><ele>113.0</ele><time>2026-04-11T12:07:56Z</time></trkpt><trkpt lat="46.08473051033688" lon="13.29460508514074"><ele>113.0</ele><time>2026-04-11T12:07:57Z</time></trkpt><trkpt lat="46.084550654216365" lon="13.294679348856164"><ele>113.0</ele><time>2026-04-11T12:07:58Z</time></trkpt><trkpt lat="46.08437091110894" lon="13.294757589546414"><ele>112.66666666666666</ele><time>2026-04-11T12:07:59Z</time></trkpt><trkpt lat="46.08418842907902" lon="13.294832583499362"><ele>112.33333333333334</ele><time>2026-04-11T12:08:00Z</time></trkpt><trkpt lat="46.08400481734642" lon="13.294905302193849"><ele>112.0</ele><time>2026-04-11T12:08:01Z</time></trkpt><trkpt lat="46.08382099233296" lon="13.294981091845038"><ele>112.66666666666667</ele><time>2026-04-11T12:08:02Z</time></trkpt><trkpt lat="46.08363936759527" lon="13.29505876728551"><ele>113.33333333333334</ele><time>2026-04-11T12:08:03Z</time></trkpt><trkpt lat="46.08345860265516" lon="13.295135191858442"><ele>114.0</ele><time>2026-04-11T12:08:04Z</time></trkpt><trkpt lat="46.08328040385674" lon="13.295207591594105"><ele>113.33333333333334</ele><time>2026-04-11T12:08:05Z</time></trkpt><trkpt lat="46.083101628233955" lon="13.295278867189122"><ele>112.66666666666667</ele><time>2026-04-11T12:08:06Z</time></trkpt><trkpt lat="46.08292769403446" lon="13.295348852230145"><ele>112.0</ele><time>2026-04-11T12:08:07Z</time></trkpt><trkpt lat="46.082755928340234" lon="13.29541974462559"><ele>112.0</ele><time>2026-04-11T12:08:08Z</time></trkpt><trkpt lat="46.082580090089" lon="13.295467202965176"><ele>112.0</ele><time>2026-04-11T12:08:09Z</time></trkpt><trkpt lat="46.08241563460656" lon="13.295560215536481"><ele>112.0</ele><time>2026-04-11T12:08:10Z</time></trkpt><trkpt lat="46.08224807728103" lon="13.295627480210612"><ele>111.33333333333334</ele><time>2026-04-11T12:08:11Z</time></trkpt><trkpt lat="46.082081526543575" lon="13.295696344064652"><ele>110.66666666666666</ele><time>2026-04-11T12:08:12Z</time></trkpt><trkpt lat="46.08191652821643" lon="13.29576539208869"><ele>110.0</ele><time>2026-04-11T12:08:13Z</time></trkpt><trkpt lat="46.081752864271714" lon="13.295834539175264"><ele>110.66666666666666</ele><time>2026-04-11T12:08:14Z</time></trkpt><trkpt lat="46.081586538145935" lon="13.295903418176874"><ele>111.33333333333334</ele><time>2026-04-11T12:08:15Z</time></trkpt><trkpt lat="46.08141962115713" lon="13.295971677823886"><ele>112.0</ele><time>2026-04-11T12:08:16Z</time></trkpt><trkpt lat="46.08125429278028" lon="13.296037920951322"><ele>112.0</ele><time>2026-04-11T12:08:17Z</time></trkpt><trkpt lat="46.08108586986395" lon="13.296082395114025"><ele>112.0</ele><time>2026-04-11T12:08:18Z</time></trkpt><trkpt lat="46.08092114855722" lon="13.29615121732387"><ele>112.0</ele><time>2026-04-11T12:08:19Z</time></trkpt><trkpt lat="46.08075782874313" lon="13.296217703080497"><ele>112.0</ele><time>2026-04-11T12:08:20Z</time></trkpt><trkpt lat="46.08059550070329" lon="13.296283006202813"><ele>112.0</ele><time>2026-04-11T12:08:21Z</time></trkpt><trkpt lat="46.08043380638648" lon="13.296349490617638"><ele>112.0</ele><time>2026-04-11T12:08:22Z</time></trkpt><trkpt lat="46.08027283622322" lon="13.296416771710254"><ele>111.66666666666667</ele><time>2026-04-11T12:08:23Z</time></trkpt><trkpt lat="46.08011007227193" lon="13.296484708298953"><ele>111.33333333333334</ele><time>2026-04-11T12:08:24Z</time></trkpt><trkpt lat="46.07995371034267" lon="13.296571806823868"><ele>111.0</ele><time>2026-04-11T12:08:25Z</time></trkpt><trkpt lat="46.079795461668986" lon="13.296636379621788"><ele>110.33333333333334</ele><time>2026-04-11T12:08:26Z</time></trkpt><trkpt lat="46.07963275391539" lon="13.296677585464371"><ele>109.66666666666667</ele><time>2026-04-11T12:08:27Z</time></trkpt><trkpt lat="46.07948192627798" lon="13.296737263380189"><ele>109.0</ele><time>2026-04-11T12:08:28Z</time></trkpt><trkpt lat="46.079340830496406" lon="13.296793090878062"><ele>109.0</ele><time>2026-04-11T12:08:29Z</time></trkpt><trkpt lat="46.07920075956759" lon="13.296848471019059"><ele>109.0</ele><time>2026-04-11T12:08:30Z</time></trkpt><trkpt lat="46.07906479646335" lon="13.29690324912384"><ele>109.0</ele><time>2026-04-11T12:08:31Z</time></trkpt><trkpt lat="46.078932630323244" lon="13.296958694799077"><ele>109.0</ele><time>2026-04-11T12:08:32Z</time></trkpt><trkpt lat="46.07880938661754" lon="13.297013248698107"><ele>109.0</ele><time>2026-04-11T12:08:33Z</time></trkpt><trkpt lat="46.07869547310822" lon="13.297074450630983"><ele>109.0</ele><time>2026-04-11T12:08:34Z</time></trkpt><trkpt lat="46.078599344173185" lon="13.29713888984673"><ele>109.0</ele><time>2026-04-11T12:08:35Z</time></trkpt><trkpt lat="46.07852559956859" lon="13.297223030023488"><ele>109.0</ele><time>2026-04-11T12:08:36Z</time></trkpt><trkpt lat="46.078470318750654" lon="13.297270231158992"><ele>109.0</ele><time>2026-04-11T12:08:37Z</time></trkpt><trkpt lat="46.07840568079557" lon="13.297321741127876"><ele>108.80000000000001</ele><time>2026-04-11T12:08:39Z</time></trkpt><trkpt lat="46.078317724722105" lon="13.29737001311871"><ele>108.60000000000001</ele><time>2026-04-11T12:08:43Z</time></trkpt><trkpt lat="46.07820514331048" lon="13.297367768859107"><ele>108.4</ele><time>2026-04-11T12:08:45Z</time></trkpt><trkpt lat="46.0781358068347" lon="13.297385808209619"><ele>108.2</ele><time>2026-04-11T12:08:46Z</time></trkpt><trkpt lat="46.078063268531444" lon="13.297439648695734"><ele>108.0</ele><time>2026-04-11T12:08:47Z</time></trkpt><trkpt lat="46.078001917819236" lon="13.297543537037237"><ele>108.0</ele><time>2026-04-11T12:08:48Z</time></trkpt><trkpt lat="46.077968629247955" lon="13.29768424252907"><ele>108.0</ele><time>2026-04-11T12:08:49Z</time></trkpt><trkpt lat="46.07798187887298" lon="13.29784024412929"><ele>108.0</ele><time>2026-04-11T12:08:50Z</time></trkpt><trkpt lat="46.078018835801444" lon="13.298005512930343"><ele>108.0</ele><time>2026-04-11T12:08:51Z</time></trkpt><trkpt lat="46.07805957045104" lon="13.298178360726773"><ele>108.25</ele><time>2026-04-11T12:08:52Z</time></trkpt><trkpt lat="46.07806476756486" lon="13.298373224401317"><ele>108.5</ele><time>2026-04-11T12:08:53Z</time></trkpt><trkpt lat="46.07807679265538" lon="13.298556540993019"><ele>108.75</ele><time>2026-04-11T12:08:54Z</time></trkpt><trkpt lat="46.07809451037946" lon="13.298714131789438"><ele>109.0</ele><time>2026-04-11T12:08:55Z</time></trkpt><trkpt lat="46.078112165828394" lon="13.298862471165295"><ele>108.25</ele><time>2026-04-11T12:08:56Z</time></trkpt><trkpt lat="46.07813008961787" lon="13.29898977457218"><ele>107.5</ele><time>2026-04-11T12:08:57Z</time></trkpt><trkpt lat="46.07803056910463" lon="13.29913591208125"><ele>106.75</ele><time>2026-04-11T12:08:58Z</time></trkpt><trkpt lat="46.0779568973278" lon="13.299242623501664"><ele>106.0</ele><time>2026-04-11T12:08:59Z</time></trkpt><trkpt lat="46.077867051052614" lon="13.299341974847282"><ele>106.0</ele><time>2026-04-11T12:09:00Z</time></trkpt><trkpt lat="46.077763549359865" lon="13.299466333794737"><ele>106.0</ele><time>2026-04-11T12:09:01Z</time></trkpt><trkpt lat="46.077657388792524" lon="13.299623390379981"><ele>106.0</ele><time>2026-04-11T12:09:02Z</time></trkpt><trkpt lat="46.077549291727756" lon="13.299771002964356"><ele>106.0</ele><time>2026-04-11T12:09:03Z</time></trkpt><trkpt lat="46.077431270051605" lon="13.299917327045069"><ele>106.66666666666667</ele><time>2026-04-11T12:09:04Z</time></trkpt><trkpt lat="46.07729699354747" lon="13.300073772629556"><ele>107.33333333333334</ele><time>2026-04-11T12:09:05Z</time></trkpt><trkpt lat="46.077167001352066" lon="13.300229257226848"><ele>108.0</ele><time>2026-04-11T12:09:06Z</time></trkpt><trkpt lat="46.07703891388367" lon="13.300381135987585"><ele>108.0</ele><time>2026-04-11T12:09:07Z</time></trkpt><trkpt lat="46.07691079507394" lon="13.300528032770252"><ele>108.0</ele><time>2026-04-11T12:09:07.999Z</time></trkpt><trkpt lat="46.07677772232827" lon="13.300680021111809"><ele>108.0</ele><time>2026-04-11T12:09:08.999Z</time></trkpt><trkpt lat="46.07663853351614" lon="13.300840652167878"><ele>108.0</ele><time>2026-04-11T12:09:09.999Z</time></trkpt><trkpt lat="46.07649507357421" lon="13.301011019677297"><ele>108.0</ele><time>2026-04-11T12:09:10.999Z</time></trkpt><trkpt lat="46.07636078467952" lon="13.30117155604088"><ele>108.0</ele><time>2026-04-11T12:09:11.999Z</time></trkpt><trkpt lat="46.07623628966443" lon="13.30131746205979"><ele>107.66666666666666</ele><time>2026-04-11T12:09:12.999Z</time></trkpt><trkpt lat="46.07610805617181" lon="13.301465674188522"><ele>107.33333333333333</ele><time>2026-04-11T12:09:13.999Z</time></trkpt><trkpt lat="46.07597990941029" lon="13.301613135156064"><ele>107.0</ele><time>2026-04-11T12:09:14.999Z</time></trkpt><trkpt lat="46.075852047370326" lon="13.301763171844478"><ele>107.0</ele><time>2026-04-11T12:09:15.999Z</time></trkpt><trkpt lat="46.075724145656686" lon="13.301910926658113"><ele>107.0</ele><time>2026-04-11T12:09:16.999Z</time></trkpt><trkpt lat="46.07559859294561" lon="13.302056415831068"><ele>107.0</ele><time>2026-04-11T12:09:17.999Z</time></trkpt><trkpt lat="46.07547582121123" lon="13.302202164260258"><ele>106.66666666666666</ele><time>2026-04-11T12:09:18.999Z</time></trkpt><trkpt lat="46.07535301848959" lon="13.302349320726023"><ele>106.33333333333334</ele><time>2026-04-11T12:09:19.999Z</time></trkpt><trkpt lat="46.075227037509826" lon="13.302498621530727"><ele>106.0</ele><time>2026-04-11T12:09:20.999Z</time></trkpt><trkpt lat="46.07509743686689" lon="13.302649674095605"><ele>106.0</ele><time>2026-04-11T12:09:21.999Z</time></trkpt><trkpt lat="46.07496346693686" lon="13.30280957756088"><ele>106.0</ele><time>2026-04-11T12:09:22.999Z</time></trkpt><trkpt lat="46.074828618281224" lon="13.302969333544347"><ele>106.0</ele><time>2026-04-11T12:09:23.999Z</time></trkpt><trkpt lat="46.07469499164329" lon="13.303125251016223"><ele>106.0</ele><time>2026-04-11T12:09:24.999Z</time></trkpt><trkpt lat="46.074558758024494" lon="13.30328199712536"><ele>106.0</ele><time>2026-04-11T12:09:25.999Z</time></trkpt><trkpt lat="46.074413896765016" lon="13.303449656942899"><ele>106.0</ele><time>2026-04-11T12:09:26.999Z</time></trkpt><trkpt lat="46.07426319706684" lon="13.303629306989354"><ele>106.0</ele><time>2026-04-11T12:09:27.999Z</time></trkpt><trkpt lat="46.074111765442126" lon="13.30380792947414"><ele>106.0</ele><time>2026-04-11T12:09:28.999Z</time></trkpt><trkpt lat="46.073958197731024" lon="13.303986407618321"><ele>106.0</ele><time>2026-04-11T12:09:29.999Z</time></trkpt><trkpt lat="46.07380377394537" lon="13.304164243834531"><ele>106.0</ele><time>2026-04-11T12:09:30.999Z</time></trkpt><trkpt lat="46.07365181984744" lon="13.30433726186786"><ele>106.0</ele><time>2026-04-11T12:09:31.999Z</time></trkpt><trkpt lat="46.07350261983117" lon="13.304506395502466"><ele>106.0</ele><time>2026-04-11T12:09:32.999Z</time></trkpt><trkpt lat="46.07336059511817" lon="13.304671649371905"><ele>105.33333333333334</ele><time>2026-04-11T12:09:33.999Z</time></trkpt><trkpt lat="46.0732200854121" lon="13.304832543724011"><ele>104.66666666666666</ele><time>2026-04-11T12:09:34.999Z</time></trkpt><trkpt lat="46.073083413481726" lon="13.304996337334712"><ele>104.0</ele><time>2026-04-11T12:09:35.999Z</time></trkpt><trkpt lat="46.07294811699696" lon="13.305156388001302"><ele>104.0</ele><time>2026-04-11T12:09:36.999Z</time></trkpt><trkpt lat="46.072813846402674" lon="13.305314873355252"><ele>104.0</ele><time>2026-04-11T12:09:37.999Z</time></trkpt><trkpt lat="46.07267392677166" lon="13.305475463643987"><ele>104.0</ele><time>2026-04-11T12:09:38.999Z</time></trkpt><trkpt lat="46.072532903602244" lon="13.305640452215624"><ele>103.33333333333333</ele><time>2026-04-11T12:09:39.999Z</time></trkpt><trkpt lat="46.07239251199468" lon="13.305804536509653"><ele>102.66666666666666</ele><time>2026-04-11T12:09:40.999Z</time></trkpt><trkpt lat="46.07225162558261" lon="13.305967112885574"><ele>102.0</ele><time>2026-04-11T12:09:41.999Z</time></trkpt><trkpt lat="46.07211503930214" lon="13.306129816309856"><ele>102.0</ele><time>2026-04-11T12:09:42.999Z</time></trkpt><trkpt lat="46.071982114705435" lon="13.306288976094084"><ele>102.0</ele><time>2026-04-11T12:09:43.999Z</time></trkpt><trkpt lat="46.07185347827589" lon="13.306443253427393"><ele>102.0</ele><time>2026-04-11T12:09:44.999Z</time></trkpt><trkpt lat="46.07172721562521" lon="13.306596904184108"><ele>102.33333333333334</ele><time>2026-04-11T12:09:45.999Z</time></trkpt><trkpt lat="46.07160001006243" lon="13.30674946112648"><ele>102.66666666666667</ele><time>2026-04-11T12:09:46.999Z</time></trkpt><trkpt lat="46.07147149507816" lon="13.306906509419536"><ele>103.0</ele><time>2026-04-11T12:09:47.999Z</time></trkpt><trkpt lat="46.071339316742495" lon="13.307067600406342"><ele>103.0</ele><time>2026-04-11T12:09:48.999Z</time></trkpt><trkpt lat="46.071206064873415" lon="13.307232652017667"><ele>103.0</ele><time>2026-04-11T12:09:49.999Z</time></trkpt><trkpt lat="46.07107788833703" lon="13.307391510286708"><ele>103.0</ele><time>2026-04-11T12:09:50.999Z</time></trkpt><trkpt lat="46.07096038310569" lon="13.307537567757931"><ele>103.25</ele><time>2026-04-11T12:09:51.999Z</time></trkpt><trkpt lat="46.07084545003417" lon="13.307682033719876"><ele>103.5</ele><time>2026-04-11T12:09:52.999Z</time></trkpt><trkpt lat="46.070732331742235" lon="13.307820735342377"><ele>103.75</ele><time>2026-04-11T12:09:53.999Z</time></trkpt><trkpt lat="46.07061981557638" lon="13.307953887810749"><ele>104.0</ele><time>2026-04-11T12:09:54.999Z</time></trkpt><trkpt lat="46.07049743438655" lon="13.308067624800199"><ele>103.5</ele><time>2026-04-11T12:09:55.999Z</time></trkpt><trkpt lat="46.07038449821574" lon="13.308177598140757"><ele>103.0</ele><time>2026-04-11T12:09:57Z</time></trkpt><trkpt lat="46.07028318042995" lon="13.308278504015725"><ele>102.5</ele><time>2026-04-11T12:09:58Z</time></trkpt><trkpt lat="46.07019115019853" lon="13.308370221815325"><ele>102.0</ele><time>2026-04-11T12:09:59Z</time></trkpt><trkpt lat="46.070118174119074" lon="13.308466134969866"><ele>102.0</ele><time>2026-04-11T12:10:00Z</time></trkpt><trkpt lat="46.07005585377065" lon="13.308553809085302"><ele>102.0</ele><time>2026-04-11T12:10:01Z</time></trkpt><trkpt lat="46.06999589945414" lon="13.3086475096893"><ele>102.0</ele><time>2026-04-11T12:10:02Z</time></trkpt><trkpt lat="46.06991943458383" lon="13.308735434377208"><ele>102.0</ele><time>2026-04-11T12:10:03Z</time></trkpt><trkpt lat="46.06981968035096" lon="13.308781181352574"><ele>102.0</ele><time>2026-04-11T12:10:04Z</time></trkpt><trkpt lat="46.06969710512574" lon="13.30881203559135"><ele>101.66666666666666</ele><time>2026-04-11T12:10:05Z</time></trkpt><trkpt lat="46.069559140413176" lon="13.308771556413223"><ele>101.33333333333333</ele><time>2026-04-11T12:10:06Z</time></trkpt><trkpt lat="46.06941468686821" lon="13.308755426267561"><ele>101.0</ele><time>2026-04-11T12:10:07Z</time></trkpt><trkpt lat="46.069256525387736" lon="13.308685580533574"><ele>101.0</ele><time>2026-04-11T12:10:08Z</time></trkpt><trkpt lat="46.06908209239572" lon="13.308639127240333"><ele>101.0</ele><time>2026-04-11T12:10:09Z</time></trkpt><trkpt lat="46.06888707864798" lon="13.308587193048126"><ele>101.0</ele><time>2026-04-11T12:10:10Z</time></trkpt><trkpt lat="46.06868128205077" lon="13.30853238732061"><ele>101.0</ele><time>2026-04-11T12:10:11Z</time></trkpt><trkpt lat="46.068463799681595" lon="13.308474469514724"><ele>101.0</ele><time>2026-04-11T12:10:12Z</time></trkpt><trkpt lat="46.06823615892954" lon="13.308413230859205"><ele>101.0</ele><time>2026-04-11T12:10:13Z</time></trkpt><trkpt lat="46.06800256057624" lon="13.308349889828667"><ele>101.0</ele><time>2026-04-11T12:10:14Z</time></trkpt><trkpt lat="46.067762729393614" lon="13.308284858746"><ele>101.0</ele><time>2026-04-11T12:10:15Z</time></trkpt><trkpt lat="46.067512118307235" lon="13.308217659181505"><ele>101.0</ele><time>2026-04-11T12:10:16Z</time></trkpt><trkpt lat="46.067266892874564" lon="13.308153344987455"><ele>101.0</ele><time>2026-04-11T12:10:17Z</time></trkpt><trkpt lat="46.067027945934385" lon="13.30809336074121"><ele>101.0</ele><time>2026-04-11T12:10:18Z</time></trkpt><trkpt lat="46.066798717399216" lon="13.308047032323744"><ele>101.0</ele><time>2026-04-11T12:10:19Z</time></trkpt><trkpt lat="46.06657654595102" lon="13.308015541532404"><ele>101.0</ele><time>2026-04-11T12:10:20Z</time></trkpt><trkpt lat="46.06635582819867" lon="13.308004818804488"><ele>101.0</ele><time>2026-04-11T12:10:21Z</time></trkpt><trkpt lat="46.066131992274215" lon="13.30801317281056"><ele>101.0</ele><time>2026-04-11T12:10:22Z</time></trkpt><trkpt lat="46.065909173538635" lon="13.308048667345341"><ele>101.0</ele><time>2026-04-11T12:10:23Z</time></trkpt><trkpt lat="46.06569343516408" lon="13.308100657874107"><ele>101.0</ele><time>2026-04-11T12:10:24Z</time></trkpt><trkpt lat="46.065481246804005" lon="13.308165551089807"><ele>101.0</ele><time>2026-04-11T12:10:25Z</time></trkpt><trkpt lat="46.065277887576556" lon="13.308271316474613"><ele>101.0</ele><time>2026-04-11T12:10:26Z</time></trkpt><trkpt lat="46.065072651934194" lon="13.308348121214076"><ele>101.0</ele><time>2026-04-11T12:10:27Z</time></trkpt><trkpt lat="46.0648812540217" lon="13.308484616277617"><ele>101.0</ele><time>2026-04-11T12:10:28Z</time></trkpt><trkpt lat="46.06468744739156" lon="13.308612025622088"><ele>101.0</ele><time>2026-04-11T12:10:29Z</time></trkpt><trkpt lat="46.064490624802005" lon="13.308765827677934"><ele>101.0</ele><time>2026-04-11T12:10:30Z</time></trkpt><trkpt lat="46.06428565559941" lon="13.30892852943343"><ele>100.5</ele><time>2026-04-11T12:10:31Z</time></trkpt><trkpt lat="46.06403623348659" lon="13.309077099823343"><ele>100.0</ele><time>2026-04-11T12:10:32Z</time></trkpt><trkpt lat="46.06377027810148" lon="13.309268786493224"><ele>100.0</ele><time>2026-04-11T12:10:33Z</time></trkpt><trkpt lat="46.06351961021734" lon="13.30945170197482"><ele>100.0</ele><time>2026-04-11T12:10:34Z</time></trkpt><trkpt lat="46.063279971227374" lon="13.309649836491284"><ele>99.5</ele><time>2026-04-11T12:10:35Z</time></trkpt><trkpt lat="46.06303365834315" lon="13.309821374451866"><ele>99.0</ele><time>2026-04-11T12:10:36Z</time></trkpt><trkpt lat="46.0627864210891" lon="13.310001148816019"><ele>99.0</ele><time>2026-04-11T12:10:37Z</time></trkpt><trkpt lat="46.06253230649273" lon="13.310186962225416"><ele>99.0</ele><time>2026-04-11T12:10:38Z</time></trkpt><trkpt lat="46.06227530546247" lon="13.310377344369506"><ele>99.0</ele><time>2026-04-11T12:10:39Z</time></trkpt><trkpt lat="46.06201619174305" lon="13.310564529661987"><ele>99.0</ele><time>2026-04-11T12:10:40Z</time></trkpt><trkpt lat="46.06176166084975" lon="13.310749639246273"><ele>98.0</ele><time>2026-04-11T12:10:41Z</time></trkpt><trkpt lat="46.06150965824336" lon="13.310933653330244"><ele>97.0</ele><time>2026-04-11T12:10:42Z</time></trkpt><trkpt lat="46.06125856055078" lon="13.31111738609346"><ele>97.0</ele><time>2026-04-11T12:10:43Z</time></trkpt><trkpt lat="46.0610078873167" lon="13.311300263400451"><ele>97.0</ele><time>2026-04-11T12:10:44Z</time></trkpt><trkpt lat="46.06075886187387" lon="13.311480666445492"><ele>96.0</ele><time>2026-04-11T12:10:45Z</time></trkpt><trkpt lat="46.06051492518434" lon="13.311659500431"><ele>95.0</ele><time>2026-04-11T12:10:46Z</time></trkpt><trkpt lat="46.06026901887313" lon="13.311842067586566"><ele>95.0</ele><time>2026-04-11T12:10:47Z</time></trkpt><trkpt lat="46.060017790760384" lon="13.31202278378245"><ele>95.0</ele><time>2026-04-11T12:10:48Z</time></trkpt><trkpt lat="46.05976576455321" lon="13.312208507816276"><ele>94.5</ele><time>2026-04-11T12:10:49Z</time></trkpt><trkpt lat="46.059510989750464" lon="13.312388109627173"><ele>94.0</ele><time>2026-04-11T12:10:50Z</time></trkpt><trkpt lat="46.059259586032766" lon="13.312563461499465"><ele>94.0</ele><time>2026-04-11T12:10:51Z</time></trkpt><trkpt lat="46.05901310554908" lon="13.312732291306313"><ele>94.0</ele><time>2026-04-11T12:10:52Z</time></trkpt><trkpt lat="46.058763073064846" lon="13.312893600952906"><ele>94.0</ele><time>2026-04-11T12:10:53Z</time></trkpt><trkpt lat="46.05850806606946" lon="13.31304124304225"><ele>94.0</ele><time>2026-04-11T12:10:54Z</time></trkpt><trkpt lat="46.0582476122178" lon="13.313178257252925"><ele>93.5</ele><time>2026-04-11T12:10:55Z</time></trkpt><trkpt lat="46.057983901669424" lon="13.313313826967466"><ele>93.0</ele><time>2026-04-11T12:10:56Z</time></trkpt><trkpt lat="46.05771764616324" lon="13.313437204853136"><ele>93.0</ele><time>2026-04-11T12:10:57Z</time></trkpt><trkpt lat="46.05744686909642" lon="13.313550928505625"><ele>93.0</ele><time>2026-04-11T12:10:58Z</time></trkpt><trkpt lat="46.05717448106131" lon="13.313654196261512"><ele>93.0</ele><time>2026-04-11T12:10:59Z</time></trkpt><trkpt lat="46.05690666959503" lon="13.313745110675992"><ele>93.0</ele><time>2026-04-11T12:11:00Z</time></trkpt><trkpt lat="46.056637493927404" lon="13.313795345669313"><ele>93.0</ele><time>2026-04-11T12:11:01Z</time></trkpt><trkpt lat="46.0563682504475" lon="13.313856087014162"><ele>93.0</ele><time>2026-04-11T12:11:02Z</time></trkpt><trkpt lat="46.05609601679474" lon="13.313910997894402"><ele>93.0</ele><time>2026-04-11T12:11:03Z</time></trkpt><trkpt lat="46.05582429091903" lon="13.313957198027227"><ele>93.0</ele><time>2026-04-11T12:11:04Z</time></trkpt><trkpt lat="46.05556180826834" lon="13.314012556448905"><ele>93.0</ele><time>2026-04-11T12:11:05Z</time></trkpt><trkpt lat="46.05530285993405" lon="13.314030208824708"><ele>93.0</ele><time>2026-04-11T12:11:05.999Z</time></trkpt><trkpt lat="46.055044611937646" lon="13.314037042784241"><ele>91.5</ele><time>2026-04-11T12:11:06.999Z</time></trkpt><trkpt lat="46.05478419536497" lon="13.314038283478727"><ele>90.0</ele><time>2026-04-11T12:11:07.999Z</time></trkpt><trkpt lat="46.054544653120125" lon="13.314011428283123"><ele>90.0</ele><time>2026-04-11T12:11:08.999Z</time></trkpt><trkpt lat="46.05433255510318" lon="13.314003661817488"><ele>90.0</ele><time>2026-04-11T12:11:09.999Z</time></trkpt><trkpt lat="46.054145707683425" lon="13.313996819958538"><ele>90.0</ele><time>2026-04-11T12:11:10.999Z</time></trkpt><trkpt lat="46.05397384037493" lon="13.31399052663151"><ele>90.0</ele><time>2026-04-11T12:11:11.999Z</time></trkpt><trkpt lat="46.05382232509368" lon="13.314004901876405"><ele>90.0</ele><time>2026-04-11T12:11:12.999Z</time></trkpt><trkpt lat="46.05367762903471" lon="13.313965273704724"><ele>90.0</ele><time>2026-04-11T12:11:13.999Z</time></trkpt><trkpt lat="46.05353759434964" lon="13.313901622876392"><ele>90.0</ele><time>2026-04-11T12:11:14.999Z</time></trkpt><trkpt lat="46.053416869608455" lon="13.31383642780949"><ele>90.25</ele><time>2026-04-11T12:11:15.999Z</time></trkpt><trkpt lat="46.05329773006117" lon="13.313789113728541"><ele>90.5</ele><time>2026-04-11T12:11:16.999Z</time></trkpt><trkpt lat="46.053166115223846" lon="13.3138128366374"><ele>90.75</ele><time>2026-04-11T12:11:17.999Z</time></trkpt><trkpt lat="46.05302048554273" lon="13.313883182285542"><ele>91.0</ele><time>2026-04-11T12:11:18.999Z</time></trkpt><trkpt lat="46.052867624898084" lon="13.313982651351976"><ele>90.33333333333333</ele><time>2026-04-11T12:11:19.999Z</time></trkpt><trkpt lat="46.05268558907245" lon="13.313942875439494"><ele>89.66666666666667</ele><time>2026-04-11T12:11:20.999Z</time></trkpt><trkpt lat="46.05249775236773" lon="13.313935095445807"><ele>89.0</ele><time>2026-04-11T12:11:21.999Z</time></trkpt><trkpt lat="46.052303467457776" lon="13.313945418678877"><ele>89.0</ele><time>2026-04-11T12:11:22.999Z</time></trkpt><trkpt lat="46.052109455217035" lon="13.313938854807029"><ele>89.0</ele><time>2026-04-11T12:11:23.999Z</time></trkpt><trkpt lat="46.051925913794406" lon="13.31393039860843"><ele>89.0</ele><time>2026-04-11T12:11:24.999Z</time></trkpt><trkpt lat="46.051732950111585" lon="13.313922821238792"><ele>89.33333333333334</ele><time>2026-04-11T12:11:25.999Z</time></trkpt><trkpt lat="46.05152980245642" lon="13.313917643210479"><ele>89.66666666666667</ele><time>2026-04-11T12:11:26.999Z</time></trkpt><trkpt lat="46.0513186735695" lon="13.313911192019367"><ele>90.0</ele><time>2026-04-11T12:11:27.999Z</time></trkpt><trkpt lat="46.05110948128605" lon="13.313900669531119"><ele>89.33333333333333</ele><time>2026-04-11T12:11:28.999Z</time></trkpt><trkpt lat="46.05090492244287" lon="13.313889227655196"><ele>88.66666666666666</ele><time>2026-04-11T12:11:29.999Z</time></trkpt><trkpt lat="46.050696220432165" lon="13.313881228460245"><ele>88.0</ele><time>2026-04-11T12:11:30.999Z</time></trkpt><trkpt lat="46.05048203493744" lon="13.313866653208866"><ele>88.0</ele><time>2026-04-11T12:11:31.999Z</time></trkpt><trkpt lat="46.05026261717477" lon="13.313841481063239"><ele>88.0</ele><time>2026-04-11T12:11:32.999Z</time></trkpt><trkpt lat="46.05004380495589" lon="13.313798651204669"><ele>88.0</ele><time>2026-04-11T12:11:33.999Z</time></trkpt><trkpt lat="46.049825961918806" lon="13.313738772432632"><ele>87.5</ele><time>2026-04-11T12:11:34.999Z</time></trkpt><trkpt lat="46.049605183244736" lon="13.31366433780836"><ele>87.0</ele><time>2026-04-11T12:11:35.999Z</time></trkpt><trkpt lat="46.04938807231631" lon="13.313590214479184"><ele>87.0</ele><time>2026-04-11T12:11:36.999Z</time></trkpt><trkpt lat="46.0491694034326" lon="13.313515850676797"><ele>87.0</ele><time>2026-04-11T12:11:37.999Z</time></trkpt><trkpt lat="46.048958032177325" lon="13.31344068726044"><ele>87.0</ele><time>2026-04-11T12:11:38.999Z</time></trkpt><trkpt lat="46.048747138363304" lon="13.31336926614553"><ele>87.0</ele><time>2026-04-11T12:11:39.999Z</time></trkpt><trkpt lat="46.04853276621351" lon="13.313298469119832"><ele>87.0</ele><time>2026-04-11T12:11:40.999Z</time></trkpt><trkpt lat="46.04831616871291" lon="13.3132280872426"><ele>87.0</ele><time>2026-04-11T12:11:41.999Z</time></trkpt><trkpt lat="46.0481016919932" lon="13.313134567584774"><ele>87.33333333333333</ele><time>2026-04-11T12:11:42.999Z</time></trkpt><trkpt lat="46.04788637643808" lon="13.313059907081646"><ele>87.66666666666666</ele><time>2026-04-11T12:11:43.999Z</time></trkpt><trkpt lat="46.0476732351609" lon="13.312986000510064"><ele>88.0</ele><time>2026-04-11T12:11:44.999Z</time></trkpt><trkpt lat="46.04746009396802" lon="13.312913899707885"><ele>87.0</ele><time>2026-04-11T12:11:45.999Z</time></trkpt><trkpt lat="46.04724426529532" lon="13.312841369362822"><ele>86.0</ele><time>2026-04-11T12:11:46.999Z</time></trkpt><trkpt lat="46.04702116951963" lon="13.312766396867772"><ele>86.0</ele><time>2026-04-11T12:11:47.999Z</time></trkpt><trkpt lat="46.04679574983247" lon="13.312688620045138"><ele>86.0</ele><time>2026-04-11T12:11:48.999Z</time></trkpt><trkpt lat="46.04657543413648" lon="13.312610187601384"><ele>86.66666666666667</ele><time>2026-04-11T12:11:49.999Z</time></trkpt><trkpt lat="46.04635825378812" lon="13.312535238140038"><ele>87.33333333333333</ele><time>2026-04-11T12:11:50.999Z</time></trkpt><trkpt lat="46.046153570022106" lon="13.312463557300068"><ele>88.0</ele><time>2026-04-11T12:11:51.999Z</time></trkpt><trkpt lat="46.045964797033136" lon="13.312388240582973"><ele>88.0</ele><time>2026-04-11T12:11:52.999Z</time></trkpt><trkpt lat="46.04577459740597" lon="13.312299642482643"><ele>88.0</ele><time>2026-04-11T12:11:53.999Z</time></trkpt><trkpt lat="46.04558436508966" lon="13.312198340859725"><ele>88.0</ele><time>2026-04-11T12:11:54.999Z</time></trkpt><trkpt lat="46.04539718955417" lon="13.312090758207304"><ele>88.0</ele><time>2026-04-11T12:11:55.999Z</time></trkpt><trkpt lat="46.04521686510211" lon="13.311987111460283"><ele>88.0</ele><time>2026-04-11T12:11:56.999Z</time></trkpt><trkpt lat="46.04504429216968" lon="13.311887920127006"><ele>88.0</ele><time>2026-04-11T12:11:57.999Z</time></trkpt><trkpt lat="46.04487992941146" lon="13.311792848199076"><ele>88.0</ele><time>2026-04-11T12:11:58.999Z</time></trkpt><trkpt lat="46.04471958292752" lon="13.311700155790659"><ele>88.0</ele><time>2026-04-11T12:11:59.999Z</time></trkpt><trkpt lat="46.04456328463366" lon="13.311609828253497"><ele>88.0</ele><time>2026-04-11T12:12:00.999Z</time></trkpt><trkpt lat="46.044407552922635" lon="13.311519309279788"><ele>88.0</ele><time>2026-04-11T12:12:01.999Z</time></trkpt><trkpt lat="46.044249537918205" lon="13.311427502701337"><ele>88.0</ele><time>2026-04-11T12:12:03Z</time></trkpt><trkpt lat="46.04408742214241" lon="13.311333583880927"><ele>88.0</ele><time>2026-04-11T12:12:04Z</time></trkpt><trkpt lat="46.04392358082792" lon="13.31123935416856"><ele>87.33333333333333</ele><time>2026-04-11T12:12:05Z</time></trkpt><trkpt lat="46.043762487460384" lon="13.31114658477234"><ele>86.66666666666667</ele><time>2026-04-11T12:12:06Z</time></trkpt><trkpt lat="46.0436020053935" lon="13.311054167410926"><ele>86.0</ele><time>2026-04-11T12:12:07Z</time></trkpt><trkpt lat="46.04344382336258" lon="13.310962831544364"><ele>85.33333333333334</ele><time>2026-04-11T12:12:08Z</time></trkpt><trkpt lat="46.04328816681472" lon="13.310872836798605"><ele>84.66666666666667</ele><time>2026-04-11T12:12:09Z</time></trkpt><trkpt lat="46.043132077694224" lon="13.310782591954908"><ele>84.0</ele><time>2026-04-11T12:12:10Z</time></trkpt><trkpt lat="46.0429729226113" lon="13.310690574488481"><ele>84.0</ele><time>2026-04-11T12:12:11Z</time></trkpt><trkpt lat="46.04281610260752" lon="13.310600742479807"><ele>84.0</ele><time>2026-04-11T12:12:12Z</time></trkpt><trkpt lat="46.04266583443577" lon="13.31051494917171"><ele>84.0</ele><time>2026-04-11T12:12:13Z</time></trkpt><trkpt lat="46.04252388054528" lon="13.310434038732609"><ele>84.75</ele><time>2026-04-11T12:12:14Z</time></trkpt><trkpt lat="46.04238223953178" lon="13.31035330662541"><ele>85.5</ele><time>2026-04-11T12:12:15Z</time></trkpt><trkpt lat="46.0422550567857" lon="13.310280342427346"><ele>86.25</ele><time>2026-04-11T12:12:16Z</time></trkpt><trkpt lat="46.04212728486565" lon="13.310201974143844"><ele>87.0</ele><time>2026-04-11T12:12:17Z</time></trkpt><trkpt lat="46.04200561311527" lon="13.310119088184456"><ele>87.0</ele><time>2026-04-11T12:12:18Z</time></trkpt><trkpt lat="46.04188961110886" lon="13.310030363303625"><ele>87.0</ele><time>2026-04-11T12:12:19Z</time></trkpt><trkpt lat="46.0417791824767" lon="13.309931957584176"><ele>87.0</ele><time>2026-04-11T12:12:20Z</time></trkpt><trkpt lat="46.041669894821965" lon="13.309816378759113"><ele>87.0</ele><time>2026-04-11T12:12:21Z</time></trkpt><trkpt lat="46.041567452067895" lon="13.30968995903625"><ele>87.25</ele><time>2026-04-11T12:12:22Z</time></trkpt><trkpt lat="46.04147329950872" lon="13.30955605598725"><ele>87.5</ele><time>2026-04-11T12:12:23Z</time></trkpt><trkpt lat="46.04138376591146" lon="13.309413859682651"><ele>87.75</ele><time>2026-04-11T12:12:24Z</time></trkpt><trkpt lat="46.04130071362247" lon="13.309260722064561"><ele>88.0</ele><time>2026-04-11T12:12:25Z</time></trkpt><trkpt lat="46.04122412047907" lon="13.30910021437647"><ele>88.0</ele><time>2026-04-11T12:12:26Z</time></trkpt><trkpt lat="46.041157277168224" lon="13.308931839038854"><ele>88.0</ele><time>2026-04-11T12:12:27Z</time></trkpt><trkpt lat="46.04109975225354" lon="13.3087581803608"><ele>88.0</ele><time>2026-04-11T12:12:28Z</time></trkpt><trkpt lat="46.04104714908188" lon="13.308586131622258"><ele>88.0</ele><time>2026-04-11T12:12:29Z</time></trkpt><trkpt lat="46.04100359171196" lon="13.308417849311732"><ele>88.25</ele><time>2026-04-11T12:12:30Z</time></trkpt><trkpt lat="46.04096139778638" lon="13.308245344540302"><ele>88.5</ele><time>2026-04-11T12:12:31Z</time></trkpt><trkpt lat="46.04092021846261" lon="13.308071629685031"><ele>88.75</ele><time>2026-04-11T12:12:32Z</time></trkpt><trkpt lat="46.0408797803793" lon="13.30790104192951"><ele>89.0</ele><time>2026-04-11T12:12:33Z</time></trkpt><trkpt lat="46.04083506160205" lon="13.307732664529512"><ele>89.0</ele><time>2026-04-11T12:12:34Z</time></trkpt><trkpt lat="46.04079105910345" lon="13.307560286148746"><ele>89.0</ele><time>2026-04-11T12:12:35Z</time></trkpt><trkpt lat="46.040725532291155" lon="13.307412322372066"><ele>89.0</ele><time>2026-04-11T12:12:36Z</time></trkpt><trkpt lat="46.04068717171333" lon="13.307256271092488"><ele>89.0</ele><time>2026-04-11T12:12:37Z</time></trkpt><trkpt lat="46.04064587450601" lon="13.3070925022683"><ele>89.0</ele><time>2026-04-11T12:12:38Z</time></trkpt><trkpt lat="46.04060538915481" lon="13.306926026620749"><ele>89.0</ele><time>2026-04-11T12:12:39Z</time></trkpt><trkpt lat="46.04057519431023" lon="13.306770954132"><ele>89.0</ele><time>2026-04-11T12:12:40Z</time></trkpt><trkpt lat="46.040557582860046" lon="13.30663669049874"><ele>89.0</ele><time>2026-04-11T12:12:41Z</time></trkpt><trkpt lat="46.04055197436454" lon="13.306509172969738"><ele>89.0</ele><time>2026-04-11T12:12:42Z</time></trkpt><trkpt lat="46.040550637273306" lon="13.306388965356241"><ele>88.6</ele><time>2026-04-11T12:12:43Z</time></trkpt><trkpt lat="46.040527290360366" lon="13.306303405205487"><ele>88.2</ele><time>2026-04-11T12:12:44Z</time></trkpt><trkpt lat="46.0404098438431" lon="13.306223873401468"><ele>87.8</ele><time>2026-04-11T12:12:46Z</time></trkpt><trkpt lat="46.04032890385161" lon="13.306195317886054"><ele>87.39999999999999</ele><time>2026-04-11T12:12:47Z</time></trkpt><trkpt lat="46.04025412378465" lon="13.306122436353526"><ele>87.0</ele><time>2026-04-11T12:12:48Z</time></trkpt><trkpt lat="46.04016215965532" lon="13.30608373532554"><ele>87.0</ele><time>2026-04-11T12:12:49Z</time></trkpt><trkpt lat="46.04004470025276" lon="13.306093212288301"><ele>87.0</ele><time>2026-04-11T12:12:50Z</time></trkpt><trkpt lat="46.03991993270501" lon="13.306096411455623"><ele>87.0</ele><time>2026-04-11T12:12:51Z</time></trkpt><trkpt lat="46.03977927112907" lon="13.306100018162894"><ele>87.0</ele><time>2026-04-11T12:12:52Z</time></trkpt><trkpt lat="46.0396339446911" lon="13.306103744481675"><ele>86.75</ele><time>2026-04-11T12:12:53Z</time></trkpt><trkpt lat="46.03947393354572" lon="13.306107847332104"><ele>86.5</ele><time>2026-04-11T12:12:54Z</time></trkpt><trkpt lat="46.03933206496933" lon="13.306111484987436"><ele>86.25</ele><time>2026-04-11T12:12:55Z</time></trkpt><trkpt lat="46.0392096401169" lon="13.30611462408652"><ele>86.0</ele><time>2026-04-11T12:12:56Z</time></trkpt><trkpt lat="46.039102004826326" lon="13.306117383965"><ele>85.8</ele><time>2026-04-11T12:12:57Z</time></trkpt><trkpt lat="46.03901049629991" lon="13.306119851030486"><ele>85.6</ele><time>2026-04-11T12:12:58Z</time></trkpt><trkpt lat="46.03891721258812" lon="13.306122554906205"><ele>85.4</ele><time>2026-04-11T12:12:59Z</time></trkpt><trkpt lat="46.03881272855582" lon="13.306125583429397"><ele>85.2</ele><time>2026-04-11T12:13:00Z</time></trkpt><trkpt lat="46.038674601716735" lon="13.306129412607413"><ele>85.0</ele><time>2026-04-11T12:13:01Z</time></trkpt><trkpt lat="46.03849401271617" lon="13.306134417672466"><ele>85.33333333333333</ele><time>2026-04-11T12:13:02Z</time></trkpt><trkpt lat="46.03828742357627" lon="13.30614014333602"><ele>85.66666666666667</ele><time>2026-04-11T12:13:03Z</time></trkpt><trkpt lat="46.03806354629961" lon="13.30614540026823"><ele>86.0</ele><time>2026-04-11T12:13:04Z</time></trkpt><trkpt lat="46.037837597277495" lon="13.306150411234839"><ele>86.0</ele><time>2026-04-11T12:13:04.999Z</time></trkpt><trkpt lat="46.03763772416455" lon="13.306155396218381"><ele>86.0</ele><time>2026-04-11T12:13:05.999Z</time></trkpt><trkpt lat="46.03746150536579" lon="13.3061611994427"><ele>86.0</ele><time>2026-04-11T12:13:06.999Z</time></trkpt><trkpt lat="46.03730543986342" lon="13.306166338979827"><ele>86.0</ele><time>2026-04-11T12:13:07.999Z</time></trkpt><trkpt lat="46.03716183561376" lon="13.306170918769798"><ele>86.0</ele><time>2026-04-11T12:13:08.999Z</time></trkpt><trkpt lat="46.0370067643699" lon="13.306175669484928"><ele>86.0</ele><time>2026-04-11T12:13:09.999Z</time></trkpt><trkpt lat="46.03684497880745" lon="13.306180544494154"><ele>86.0</ele><time>2026-04-11T12:13:10.999Z</time></trkpt><trkpt lat="46.036678847603326" lon="13.306185550447772"><ele>86.0</ele><time>2026-04-11T12:13:11.999Z</time></trkpt><trkpt lat="46.03651255565353" lon="13.306190561245412"><ele>86.0</ele><time>2026-04-11T12:13:12.999Z</time></trkpt><trkpt lat="46.0363517881488" lon="13.306195405578084"><ele>85.66666666666667</ele><time>2026-04-11T12:13:13.999Z</time></trkpt><trkpt lat="46.03619530440184" lon="13.306200806299564"><ele>85.33333333333333</ele><time>2026-04-11T12:13:14.999Z</time></trkpt><trkpt lat="46.03604173905506" lon="13.306206336298992"><ele>85.0</ele><time>2026-04-11T12:13:15.999Z</time></trkpt><trkpt lat="46.035887216715224" lon="13.306211900761445"><ele>84.66666666666666</ele><time>2026-04-11T12:13:16.999Z</time></trkpt><trkpt lat="46.035734886303764" lon="13.306217386289752"><ele>84.33333333333333</ele><time>2026-04-11T12:13:17.999Z</time></trkpt><trkpt lat="46.0355834774801" lon="13.306222838632836"><ele>84.0</ele><time>2026-04-11T12:13:18.999Z</time></trkpt><trkpt lat="46.035428260622865" lon="13.306228353398899"><ele>84.0</ele><time>2026-04-11T12:13:19.999Z</time></trkpt><trkpt lat="46.035273832479085" lon="13.306233796448234"><ele>84.0</ele><time>2026-04-11T12:13:20.999Z</time></trkpt><trkpt lat="46.03512028141965" lon="13.30623920858193"><ele>84.0</ele><time>2026-04-11T12:13:21.999Z</time></trkpt><trkpt lat="46.034966763993566" lon="13.306244316801262"><ele>84.0</ele><time>2026-04-11T12:13:22.999Z</time></trkpt><trkpt lat="46.034812159654614" lon="13.306249436783942"><ele>84.0</ele><time>2026-04-11T12:13:23.999Z</time></trkpt><trkpt lat="46.03466216080378" lon="13.30625500438625"><ele>84.0</ele><time>2026-04-11T12:13:24.999Z</time></trkpt><trkpt lat="46.03451626532684" lon="13.306260544197544"><ele>84.0</ele><time>2026-04-11T12:13:25.999Z</time></trkpt><trkpt lat="46.03437787880217" lon="13.306288734584806"><ele>84.0</ele><time>2026-04-11T12:13:26.999Z</time></trkpt><trkpt lat="46.034248889496915" lon="13.306269349286106"><ele>84.0</ele><time>2026-04-11T12:13:27.999Z</time></trkpt><trkpt lat="46.03414553044765" lon="13.306272517076977"><ele>84.0</ele><time>2026-04-11T12:13:28.999Z</time></trkpt><trkpt lat="46.034058622483094" lon="13.306275180670019"><ele>84.0</ele><time>2026-04-11T12:13:29.999Z</time></trkpt><trkpt lat="46.03397704801889" lon="13.306277735883828"><ele>84.0</ele><time>2026-04-11T12:13:30.999Z</time></trkpt><trkpt lat="46.03388758817511" lon="13.30628055834571"><ele>84.0</ele><time>2026-04-11T12:13:31.999Z</time></trkpt><trkpt lat="46.03376692760939" lon="13.306284365195738"><ele>84.0</ele><time>2026-04-11T12:13:32.999Z</time></trkpt><trkpt lat="46.033615355458075" lon="13.306289147306055"><ele>84.0</ele><time>2026-04-11T12:13:33.999Z</time></trkpt><trkpt lat="46.033439136361835" lon="13.306294969468492"><ele>84.66666666666667</ele><time>2026-04-11T12:13:34.999Z</time></trkpt><trkpt lat="46.03326328363279" lon="13.306322250661566"><ele>85.33333333333334</ele><time>2026-04-11T12:13:35.999Z</time></trkpt><trkpt lat="46.033105810414256" lon="13.306328027277676"><ele>86.0</ele><time>2026-04-11T12:13:36.999Z</time></trkpt><trkpt lat="46.032969562354765" lon="13.306327446983943"><ele>86.0</ele><time>2026-04-11T12:13:37.999Z</time></trkpt><trkpt lat="46.03284732168129" lon="13.306307387905958"><ele>86.0</ele><time>2026-04-11T12:13:38.999Z</time></trkpt><trkpt lat="46.03275217986819" lon="13.306278841638015"><ele>86.0</ele><time>2026-04-11T12:13:39.999Z</time></trkpt><trkpt lat="46.03267457515436" lon="13.306249210113105"><ele>86.0</ele><time>2026-04-11T12:13:40.999Z</time></trkpt><trkpt lat="46.032603720651416" lon="13.306330402489323"><ele>86.0</ele><time>2026-04-11T12:13:41.999Z</time></trkpt><trkpt lat="46.03256078237229" lon="13.30649454323527"><ele>85.5</ele><time>2026-04-11T12:13:42.999Z</time></trkpt><trkpt lat="46.0324611391797" lon="13.3066059635199"><ele>85.0</ele><time>2026-04-11T12:13:43.999Z</time></trkpt><trkpt lat="46.03232628802457" lon="13.306684856631085"><ele>84.5</ele><time>2026-04-11T12:13:44.999Z</time></trkpt><trkpt lat="46.03219984444163" lon="13.306738931925912"><ele>84.0</ele><time>2026-04-11T12:13:45.999Z</time></trkpt><trkpt lat="46.03206889869127" lon="13.306789047044257"><ele>84.0</ele><time>2026-04-11T12:13:46.999Z</time></trkpt><trkpt lat="46.03193648352997" lon="13.306845309936378"><ele>84.0</ele><time>2026-04-11T12:13:47.999Z</time></trkpt><trkpt lat="46.03178940763371" lon="13.306862760079785"><ele>84.0</ele><time>2026-04-11T12:13:48.999Z</time></trkpt><trkpt lat="46.031643606533535" lon="13.306923174979955"><ele>84.0</ele><time>2026-04-11T12:13:49.999Z</time></trkpt><trkpt lat="46.03149786651426" lon="13.306983564569629"><ele>84.66666666666667</ele><time>2026-04-11T12:13:50.999Z</time></trkpt><trkpt lat="46.031344343237514" lon="13.307047179270274"><ele>85.33333333333334</ele><time>2026-04-11T12:13:51.999Z</time></trkpt><trkpt lat="46.031183085420814" lon="13.30711428684037"><ele>86.0</ele><time>2026-04-11T12:13:52.999Z</time></trkpt><trkpt lat="46.031014537119965" lon="13.307184490687893"><ele>85.33333333333334</ele><time>2026-04-11T12:13:53.999Z</time></trkpt><trkpt lat="46.030845070440854" lon="13.307254362781846"><ele>84.66666666666667</ele><time>2026-04-11T12:13:54.999Z</time></trkpt><trkpt lat="46.030669663045856" lon="13.30732568670255"><ele>84.0</ele><time>2026-04-11T12:13:55.999Z</time></trkpt><trkpt lat="46.030495099390436" lon="13.307396669617013"><ele>83.66666666666667</ele><time>2026-04-11T12:13:56.999Z</time></trkpt><trkpt lat="46.03032269577299" lon="13.307471695478569"><ele>83.33333333333334</ele><time>2026-04-11T12:13:57.999Z</time></trkpt><trkpt lat="46.03015443718113" lon="13.307545216233825"><ele>83.0</ele><time>2026-04-11T12:13:58.999Z</time></trkpt><trkpt lat="46.02997604575225" lon="13.307626727335991"><ele>83.0</ele><time>2026-04-11T12:13:59.999Z</time></trkpt><trkpt lat="46.02979814760681" lon="13.307717533226803"><ele>83.0</ele><time>2026-04-11T12:14:00.999Z</time></trkpt><trkpt lat="46.02962773504958" lon="13.307814574681101"><ele>83.0</ele><time>2026-04-11T12:14:01.999Z</time></trkpt><trkpt lat="46.02945922164843" lon="13.307916910501785"><ele>83.0</ele><time>2026-04-11T12:14:02.999Z</time></trkpt><trkpt lat="46.02929789128747" lon="13.308016321381658"><ele>83.0</ele><time>2026-04-11T12:14:03.999Z</time></trkpt><trkpt lat="46.029137747061995" lon="13.308115001370576"><ele>83.0</ele><time>2026-04-11T12:14:04.999Z</time></trkpt><trkpt lat="46.028972059373345" lon="13.308218929165033"><ele>82.33333333333334</ele><time>2026-04-11T12:14:05.999Z</time></trkpt><trkpt lat="46.02880568505161" lon="13.308325774491252"><ele>81.66666666666667</ele><time>2026-04-11T12:14:06.999Z</time></trkpt><trkpt lat="46.0286397052007" lon="13.308425978774917"><ele>81.0</ele><time>2026-04-11T12:14:07.999Z</time></trkpt><trkpt lat="46.02847394323378" lon="13.308517879219925"><ele>81.0</ele><time>2026-04-11T12:14:09Z</time></trkpt><trkpt lat="46.02831002814949" lon="13.308614386045614"><ele>81.0</ele><time>2026-04-11T12:14:10Z</time></trkpt><trkpt lat="46.02812530478556" lon="13.308648186381623"><ele>81.0</ele><time>2026-04-11T12:14:11Z</time></trkpt><trkpt lat="46.027944118274476" lon="13.308687453821229"><ele>81.0</ele><time>2026-04-11T12:14:12Z</time></trkpt><trkpt lat="46.027766581368454" lon="13.30869940500945"><ele>81.0</ele><time>2026-04-11T12:14:13Z</time></trkpt><trkpt lat="46.027582286742955" lon="13.308697167292477"><ele>81.0</ele><time>2026-04-11T12:14:14Z</time></trkpt><trkpt lat="46.027392316090896" lon="13.308672670304453"><ele>81.66666666666667</ele><time>2026-04-11T12:14:15Z</time></trkpt><trkpt lat="46.02720353141782" lon="13.30863604511229"><ele>82.33333333333334</ele><time>2026-04-11T12:14:16Z</time></trkpt><trkpt lat="46.02701753788267" lon="13.308597289442345"><ele>83.0</ele><time>2026-04-11T12:14:17Z</time></trkpt><trkpt lat="46.02683354154494" lon="13.308558267399423"><ele>83.0</ele><time>2026-04-11T12:14:18Z</time></trkpt><trkpt lat="46.02664643758679" lon="13.30851858628933"><ele>83.0</ele><time>2026-04-11T12:14:19Z</time></trkpt><trkpt lat="46.02645930420294" lon="13.308479045243832"><ele>83.0</ele><time>2026-04-11T12:14:20Z</time></trkpt><trkpt lat="46.02627038159101" lon="13.308440185834918"><ele>82.66666666666667</ele><time>2026-04-11T12:14:21Z</time></trkpt><trkpt lat="46.026082313138595" lon="13.308401502108344"><ele>82.33333333333333</ele><time>2026-04-11T12:14:22Z</time></trkpt><trkpt lat="46.02589214268891" lon="13.308362386027905"><ele>82.0</ele><time>2026-04-11T12:14:23Z</time></trkpt><trkpt lat="46.02570214289713" lon="13.308322461754393"><ele>82.0</ele><time>2026-04-11T12:14:24Z</time></trkpt><trkpt lat="46.02550823641114" lon="13.308279983422889"><ele>82.0</ele><time>2026-04-11T12:14:25Z</time></trkpt><trkpt lat="46.0253096320838" lon="13.308237746692104"><ele>82.0</ele><time>2026-04-11T12:14:26Z</time></trkpt><trkpt lat="46.02510715100187" lon="13.308197455131268"><ele>82.0</ele><time>2026-04-11T12:14:27Z</time></trkpt><trkpt lat="46.02490303398678" lon="13.308152567014211"><ele>82.0</ele><time>2026-04-11T12:14:28Z</time></trkpt><trkpt lat="46.024694830367295" lon="13.308113443609843"><ele>82.0</ele><time>2026-04-11T12:14:29Z</time></trkpt><trkpt lat="46.024498898058" lon="13.308016530551209"><ele>81.66666666666666</ele><time>2026-04-11T12:14:30Z</time></trkpt><trkpt lat="46.02430198756819" lon="13.307934604100286"><ele>81.33333333333333</ele><time>2026-04-11T12:14:31Z</time></trkpt><trkpt lat="46.024107835860846" lon="13.307850835183718"><ele>81.0</ele><time>2026-04-11T12:14:32Z</time></trkpt><trkpt lat="46.023915361300354" lon="13.307767789886391"><ele>80.66666666666667</ele><time>2026-04-11T12:14:33Z</time></trkpt><trkpt lat="46.02372410100691" lon="13.307685268497888"><ele>80.33333333333334</ele><time>2026-04-11T12:14:34Z</time></trkpt><trkpt lat="46.02353423718925" lon="13.3076033496289"><ele>80.0</ele><time>2026-04-11T12:14:35Z</time></trkpt><trkpt lat="46.023343259135984" lon="13.30752078283568"><ele>80.0</ele><time>2026-04-11T12:14:36Z</time></trkpt><trkpt lat="46.02315104296842" lon="13.307438374706237"><ele>80.0</ele><time>2026-04-11T12:14:37Z</time></trkpt><trkpt lat="46.022962252823" lon="13.307357932991074"><ele>80.0</ele><time>2026-04-11T12:14:38Z</time></trkpt><trkpt lat="46.02277927046404" lon="13.307281195549319"><ele>80.0</ele><time>2026-04-11T12:14:39Z</time></trkpt><trkpt lat="46.022598665649575" lon="13.307217910830927"><ele>80.0</ele><time>2026-04-11T12:14:40Z</time></trkpt><trkpt lat="46.02242108624317" lon="13.307175272017412"><ele>80.0</ele><time>2026-04-11T12:14:41Z</time></trkpt><trkpt lat="46.02224008965387" lon="13.307148752438447"><ele>79.66666666666667</ele><time>2026-04-11T12:14:42Z</time></trkpt><trkpt lat="46.022064597606175" lon="13.307134378552398"><ele>79.33333333333333</ele><time>2026-04-11T12:14:43Z</time></trkpt><trkpt lat="46.021895296444235" lon="13.30712768034653"><ele>79.0</ele><time>2026-04-11T12:14:44Z</time></trkpt><trkpt lat="46.02173739396307" lon="13.307123115040536"><ele>79.0</ele><time>2026-04-11T12:14:45Z</time></trkpt><trkpt lat="46.02157722310682" lon="13.307119290152013"><ele>79.0</ele><time>2026-04-11T12:14:46Z</time></trkpt><trkpt lat="46.02142965089466" lon="13.307139439395511"><ele>79.0</ele><time>2026-04-11T12:14:47Z</time></trkpt><trkpt lat="46.02129180047617" lon="13.307106119518567"><ele>79.0</ele><time>2026-04-11T12:14:48Z</time></trkpt><trkpt lat="46.02115867728068" lon="13.307087926749553"><ele>79.0</ele><time>2026-04-11T12:14:49Z</time></trkpt><trkpt lat="46.02103488463361" lon="13.30705348010582"><ele>79.0</ele><time>2026-04-11T12:14:50Z</time></trkpt><trkpt lat="46.02092049778395" lon="13.307011928268004"><ele>79.0</ele><time>2026-04-11T12:14:51Z</time></trkpt><trkpt lat="46.02080728048807" lon="13.306960859851603"><ele>79.0</ele><time>2026-04-11T12:14:52Z</time></trkpt><trkpt lat="46.02069934312082" lon="13.306898464350688"><ele>78.60000000000001</ele><time>2026-04-11T12:14:53Z</time></trkpt><trkpt lat="46.02059534262773" lon="13.306827079672141"><ele>78.2</ele><time>2026-04-11T12:14:54Z</time></trkpt><trkpt lat="46.02049830027031" lon="13.306757838105094"><ele>77.80000000000001</ele><time>2026-04-11T12:14:55Z</time></trkpt><trkpt lat="46.02040443700489" lon="13.30669086445628"><ele>77.4</ele><time>2026-04-11T12:14:56Z</time></trkpt><trkpt lat="46.02030798682055" lon="13.306624737505949"><ele>77.0</ele><time>2026-04-11T12:14:57Z</time></trkpt><trkpt lat="46.02022081920721" lon="13.306567516719817"><ele>77.0</ele><time>2026-04-11T12:14:58Z</time></trkpt><trkpt lat="46.020135974257556" lon="13.306510799897994"><ele>77.0</ele><time>2026-04-11T12:14:59Z</time></trkpt><trkpt lat="46.02005101095217" lon="13.306454935106192"><ele>77.0</ele><time>2026-04-11T12:15:00Z</time></trkpt><trkpt lat="46.01996558818432" lon="13.30639846326834"><ele>77.0</ele><time>2026-04-11T12:15:01Z</time></trkpt><trkpt lat="46.01987719138033" lon="13.30634002532713"><ele>77.0</ele><time>2026-04-11T12:15:02Z</time></trkpt><trkpt lat="46.019785223151764" lon="13.306279457525305"><ele>76.8</ele><time>2026-04-11T12:15:03Z</time></trkpt><trkpt lat="46.01968851702554" lon="13.306215889712494"><ele>76.6</ele><time>2026-04-11T12:15:04Z</time></trkpt><trkpt lat="46.01959030512316" lon="13.30615178443725"><ele>76.39999999999999</ele><time>2026-04-11T12:15:05Z</time></trkpt><trkpt lat="46.01949048200454" lon="13.306087005604754"><ele>76.2</ele><time>2026-04-11T12:15:05.999Z</time></trkpt><trkpt lat="46.01939083836724" lon="13.306021830129497"><ele>76.0</ele><time>2026-04-11T12:15:06.999Z</time></trkpt><trkpt lat="46.019294683751006" lon="13.305954792292209"><ele>76.0</ele><time>2026-04-11T12:15:07.999Z</time></trkpt><trkpt lat="46.01920306046751" lon="13.305885737600285"><ele>76.0</ele><time>2026-04-11T12:15:08.999Z</time></trkpt><trkpt lat="46.0191158392507" lon="13.305812660472425"><ele>76.0</ele><time>2026-04-11T12:15:09.999Z</time></trkpt><trkpt lat="46.01902064041987" lon="13.3057533807023"><ele>76.0</ele><time>2026-04-11T12:15:10.999Z</time></trkpt><trkpt lat="46.018938191878455" lon="13.30565848394039"><ele>76.0</ele><time>2026-04-11T12:15:11.999Z</time></trkpt><trkpt lat="46.018865170269656" lon="13.30553297182949"><ele>75.75</ele><time>2026-04-11T12:15:12.999Z</time></trkpt><trkpt lat="46.01877970176817" lon="13.305407682392582"><ele>75.5</ele><time>2026-04-11T12:15:13.999Z</time></trkpt><trkpt lat="46.01869543242504" lon="13.305274834213126"><ele>75.25</ele><time>2026-04-11T12:15:14.999Z</time></trkpt><trkpt lat="46.018622603139605" lon="13.305132654072347"><ele>75.0</ele><time>2026-04-11T12:15:15.999Z</time></trkpt><trkpt lat="46.01855792826145" lon="13.304986311947221"><ele>75.0</ele><time>2026-04-11T12:15:16.999Z</time></trkpt><trkpt lat="46.01849629080942" lon="13.304840227332544"><ele>75.0</ele><time>2026-04-11T12:15:17.999Z</time></trkpt><trkpt lat="46.01843758234838" lon="13.304701029096364"><ele>75.0</ele><time>2026-04-11T12:15:18.999Z</time></trkpt><trkpt lat="46.018384789371616" lon="13.304569385038382"><ele>75.0</ele><time>2026-04-11T12:15:19.999Z</time></trkpt><trkpt lat="46.01833183683033" lon="13.304449777545583"><ele>75.0</ele><time>2026-04-11T12:15:20.999Z</time></trkpt><trkpt lat="46.0182819936318" lon="13.304348919832242"><ele>74.83333333333333</ele><time>2026-04-11T12:15:21.999Z</time></trkpt><trkpt lat="46.01822475202924" lon="13.304266932114299"><ele>74.66666666666667</ele><time>2026-04-11T12:15:22.999Z</time></trkpt><trkpt lat="46.018172269478725" lon="13.304208354877003"><ele>74.5</ele><time>2026-04-11T12:15:23.999Z</time></trkpt><trkpt lat="46.018104925576566" lon="13.304136518131683"><ele>74.33333333333334</ele><time>2026-04-11T12:15:25.999Z</time></trkpt><trkpt lat="46.018060709368186" lon="13.304059730179059"><ele>74.16666666666667</ele><time>2026-04-11T12:15:27.999Z</time></trkpt><trkpt lat="46.018010302335036" lon="13.304000563418041"><ele>74.0</ele><time>2026-04-11T12:15:44.999Z</time></trkpt><trkpt lat="46.01791788620095" lon="13.30388579651286"><ele>73.83333333333334</ele><time>2026-04-11T12:15:47.999Z</time></trkpt><trkpt lat="46.01787010344279" lon="13.303799779597638"><ele>73.66666666666667</ele><time>2026-04-11T12:15:48.999Z</time></trkpt><trkpt lat="46.01782043285708" lon="13.30371660457623"><ele>73.5</ele><time>2026-04-11T12:15:49.999Z</time></trkpt><trkpt lat="46.01775920112411" lon="13.303650373334943"><ele>73.33333333333333</ele><time>2026-04-11T12:15:50.999Z</time></trkpt><trkpt lat="46.01767341177145" lon="13.303629429805573"><ele>73.16666666666666</ele><time>2026-04-11T12:15:51.999Z</time></trkpt><trkpt lat="46.01759043346524" lon="13.303694614053912"><ele>73.0</ele><time>2026-04-11T12:15:52.999Z</time></trkpt><trkpt lat="46.01752187997399" lon="13.303754250749192"><ele>73.16666666666666</ele><time>2026-04-11T12:15:53.999Z</time></trkpt><trkpt lat="46.017469747025594" lon="13.303849641223628"><ele>73.33333333333333</ele><time>2026-04-11T12:15:54.999Z</time></trkpt><trkpt lat="46.017443338455536" lon="13.303961679899805"><ele>73.5</ele><time>2026-04-11T12:15:55.999Z</time></trkpt><trkpt lat="46.017444250915275" lon="13.304077216016406"><ele>73.66666666666667</ele><time>2026-04-11T12:15:56.999Z</time></trkpt><trkpt lat="46.01747249680781" lon="13.30418730496797"><ele>73.83333333333334</ele><time>2026-04-11T12:15:57.999Z</time></trkpt><trkpt lat="46.01754085656639" lon="13.304259280146304"><ele>74.0</ele><time>2026-04-11T12:15:58.999Z</time></trkpt><trkpt lat="46.01752545999598" lon="13.304425325578206"><ele>74.0</ele><time>2026-04-11T12:15:59.999Z</time></trkpt><trkpt lat="46.01751356043137" lon="13.304564393006846"><ele>74.0</ele><time>2026-04-11T12:16:00.999Z</time></trkpt><trkpt lat="46.01749282155537" lon="13.304711853761534"><ele>74.0</ele><time>2026-04-11T12:16:01.999Z</time></trkpt><trkpt lat="46.017508442873066" lon="13.304874267445733"><ele>74.0</ele><time>2026-04-11T12:16:02.999Z</time></trkpt><trkpt lat="46.0174571267336" lon="13.305055755356408"><ele>74.2</ele><time>2026-04-11T12:16:03.999Z</time></trkpt><trkpt lat="46.01743283506497" lon="13.305226781146384"><ele>74.4</ele><time>2026-04-11T12:16:04.999Z</time></trkpt><trkpt lat="46.01740987498355" lon="13.305366080394673"><ele>74.6</ele><time>2026-04-11T12:16:05.999Z</time></trkpt><trkpt lat="46.017386204322705" lon="13.30548298710504"><ele>74.8</ele><time>2026-04-11T12:16:06.999Z</time></trkpt><trkpt lat="46.01736889625959" lon="13.305575866880393"><ele>75.0</ele><time>2026-04-11T12:16:07.999Z</time></trkpt><trkpt lat="46.017356404026785" lon="13.305687686078121"><ele>75.0</ele><time>2026-04-11T12:16:09.999Z</time></trkpt><trkpt lat="46.01735380692804" lon="13.305799505843513"><ele>75.0</ele><time>2026-04-11T12:17:21.999Z</time></trkpt><trkpt lat="46.017343879666115" lon="13.305978443120452"><ele>75.0</ele><time>2026-04-11T12:17:23.999Z</time></trkpt><trkpt lat="46.01733325397687" lon="13.306115388670008"><ele>75.0</ele><time>2026-04-11T12:17:24.999Z</time></trkpt><trkpt lat="46.01731651278412" lon="13.306283532663889"><ele>75.0</ele><time>2026-04-11T12:17:25.999Z</time></trkpt><trkpt lat="46.017290855475416" lon="13.306469609176851"><ele>75.25</ele><time>2026-04-11T12:17:26.999Z</time></trkpt><trkpt lat="46.017257252514675" lon="13.306679831960045"><ele>75.5</ele><time>2026-04-11T12:17:27.999Z</time></trkpt><trkpt lat="46.017227468342035" lon="13.306889449660426"><ele>75.75</ele><time>2026-04-11T12:17:28.999Z</time></trkpt><trkpt lat="46.0171987131207" lon="13.30709718606053"><ele>76.0</ele><time>2026-04-11T12:17:29.999Z</time></trkpt><trkpt lat="46.017166513914795" lon="13.30730601736517"><ele>75.33333333333333</ele><time>2026-04-11T12:17:30.999Z</time></trkpt><trkpt lat="46.01713331549177" lon="13.307516461855148"><ele>74.66666666666667</ele><time>2026-04-11T12:17:31.999Z</time></trkpt><trkpt lat="46.01710051399068" lon="13.30773173515666"><ele>74.0</ele><time>2026-04-11T12:17:32.999Z</time></trkpt><trkpt lat="46.01706902216613" lon="13.307958236760102"><ele>74.33333333333334</ele><time>2026-04-11T12:17:33.999Z</time></trkpt><trkpt lat="46.017031989040774" lon="13.308208478517193"><ele>74.66666666666667</ele><time>2026-04-11T12:17:34.999Z</time></trkpt><trkpt lat="46.01699385086281" lon="13.308467997768007"><ele>75.0</ele><time>2026-04-11T12:17:35.999Z</time></trkpt><trkpt lat="46.016957689754484" lon="13.308735608367078"><ele>74.66666666666667</ele><time>2026-04-11T12:17:36.999Z</time></trkpt><trkpt lat="46.01691830544527" lon="13.308993967225994"><ele>74.33333333333334</ele><time>2026-04-11T12:17:37.999Z</time></trkpt><trkpt lat="46.01688022049077" lon="13.309249317563495"><ele>74.0</ele><time>2026-04-11T12:17:38.999Z</time></trkpt><trkpt lat="46.01684538783473" lon="13.309495409738284"><ele>74.0</ele><time>2026-04-11T12:17:39.999Z</time></trkpt><trkpt lat="46.016810702609135" lon="13.309736392422584"><ele>74.0</ele><time>2026-04-11T12:17:40.999Z</time></trkpt><trkpt lat="46.016775043628975" lon="13.309973576804355"><ele>74.0</ele><time>2026-04-11T12:17:41.999Z</time></trkpt><trkpt lat="46.016743389691015" lon="13.310211615768207"><ele>74.33333333333334</ele><time>2026-04-11T12:17:42.999Z</time></trkpt><trkpt lat="46.01670199372855" lon="13.3104735534477"><ele>74.66666666666667</ele><time>2026-04-11T12:17:43.999Z</time></trkpt><trkpt lat="46.01666143222443" lon="13.31074041715318"><ele>75.0</ele><time>2026-04-11T12:17:44.999Z</time></trkpt><trkpt lat="46.01661919511309" lon="13.311002169488859"><ele>73.33333333333333</ele><time>2026-04-11T12:17:45.999Z</time></trkpt><trkpt lat="46.01657774902908" lon="13.311266829625554"><ele>71.66666666666666</ele><time>2026-04-11T12:17:46.999Z</time></trkpt><trkpt lat="46.01653881208396" lon="13.311532685197557"><ele>70.0</ele><time>2026-04-11T12:17:47.999Z</time></trkpt><trkpt lat="46.016500519895786" lon="13.311798825698416"><ele>70.0</ele><time>2026-04-11T12:17:48.999Z</time></trkpt><trkpt lat="46.01646015494781" lon="13.312065061554406"><ele>70.0</ele><time>2026-04-11T12:17:49.999Z</time></trkpt><trkpt lat="46.01641815989126" lon="13.312332581023577"><ele>70.0</ele><time>2026-04-11T12:17:50.999Z</time></trkpt><trkpt lat="46.016377463355695" lon="13.312602750286732"><ele>70.33333333333333</ele><time>2026-04-11T12:17:51.999Z</time></trkpt><trkpt lat="46.0163386164402" lon="13.312871981458697"><ele>70.66666666666667</ele><time>2026-04-11T12:17:52.999Z</time></trkpt><trkpt lat="46.01630011830297" lon="13.313135691408908"><ele>71.0</ele><time>2026-04-11T12:17:53.999Z</time></trkpt><trkpt lat="46.016261132138354" lon="13.313395019500518"><ele>71.66666666666667</ele><time>2026-04-11T12:17:54.999Z</time></trkpt><trkpt lat="46.01622169131984" lon="13.313652295898997"><ele>72.33333333333333</ele><time>2026-04-11T12:17:55.999Z</time></trkpt><trkpt lat="46.01618265326057" lon="13.313908211667302"><ele>73.0</ele><time>2026-04-11T12:17:56.999Z</time></trkpt><trkpt lat="46.01614371875452" lon="13.314166621783496"><ele>74.33333333333333</ele><time>2026-04-11T12:17:57.999Z</time></trkpt><trkpt lat="46.016104619519254" lon="13.314426351220542"><ele>75.66666666666667</ele><time>2026-04-11T12:17:58.999Z</time></trkpt><trkpt lat="46.01606520564355" lon="13.314687125098088"><ele>77.0</ele><time>2026-04-11T12:17:59.999Z</time></trkpt><trkpt lat="46.0160254185041" lon="13.314952220081153"><ele>77.0</ele><time>2026-04-11T12:18:00.999Z</time></trkpt><trkpt lat="46.01598889752429" lon="13.3152103747595"><ele>77.0</ele><time>2026-04-11T12:18:01.999Z</time></trkpt><trkpt lat="46.01595213503061" lon="13.31546655194066"><ele>77.0</ele><time>2026-04-11T12:18:02.999Z</time></trkpt><trkpt lat="46.01591427766831" lon="13.31573013863969"><ele>76.33333333333334</ele><time>2026-04-11T12:18:03.999Z</time></trkpt><trkpt lat="46.0158742424307" lon="13.315994903178545"><ele>75.66666666666667</ele><time>2026-04-11T12:18:04.999Z</time></trkpt><trkpt lat="46.01583390701513" lon="13.316255590693686"><ele>75.0</ele><time>2026-04-11T12:18:05.999Z</time></trkpt><trkpt lat="46.01578887938818" lon="13.316523537100212"><ele>74.33333333333333</ele><time>2026-04-11T12:18:06.999Z</time></trkpt><trkpt lat="46.01574051872098" lon="13.316792819605972"><ele>73.66666666666666</ele><time>2026-04-11T12:18:07.999Z</time></trkpt><trkpt lat="46.01567841294591" lon="13.317058420336682"><ele>73.0</ele><time>2026-04-11T12:18:08.999Z</time></trkpt><trkpt lat="46.01560682075699" lon="13.317315945955434"><ele>73.0</ele><time>2026-04-11T12:18:09.999Z</time></trkpt><trkpt lat="46.01553101276988" lon="13.317565517655959"><ele>73.0</ele><time>2026-04-11T12:18:10.999Z</time></trkpt><trkpt lat="46.01545341196428" lon="13.31781035965315"><ele>73.0</ele><time>2026-04-11T12:18:11.999Z</time></trkpt><trkpt lat="46.0153672050599" lon="13.318043681683767"><ele>73.33333333333333</ele><time>2026-04-11T12:18:12.999Z</time></trkpt><trkpt lat="46.01527650274483" lon="13.318265998072851"><ele>73.66666666666667</ele><time>2026-04-11T12:18:13.999Z</time></trkpt><trkpt lat="46.01518767517648" lon="13.318462049406483"><ele>74.0</ele><time>2026-04-11T12:18:14.999Z</time></trkpt><trkpt lat="46.01509740341332" lon="13.318650813785892"><ele>74.0</ele><time>2026-04-11T12:18:15.999Z</time></trkpt><trkpt lat="46.015001394952236" lon="13.318838113475447"><ele>74.0</ele><time>2026-04-11T12:18:16.999Z</time></trkpt><trkpt lat="46.014909096769024" lon="13.319011124590855"><ele>74.0</ele><time>2026-04-11T12:18:17.999Z</time></trkpt><trkpt lat="46.01482341448975" lon="13.319170851916962"><ele>73.25</ele><time>2026-04-11T12:18:18.999Z</time></trkpt><trkpt lat="46.014734392902774" lon="13.319339565118893"><ele>72.5</ele><time>2026-04-11T12:18:19.999Z</time></trkpt><trkpt lat="46.01465298665768" lon="13.319492942399744"><ele>71.75</ele><time>2026-04-11T12:18:21Z</time></trkpt><trkpt lat="46.0145761705563" lon="13.319636323875876"><ele>71.0</ele><time>2026-04-11T12:18:22Z</time></trkpt><trkpt lat="46.01449530367224" lon="13.31977788992203"><ele>71.0</ele><time>2026-04-11T12:18:23Z</time></trkpt><trkpt lat="46.01439590606438" lon="13.31992010071446"><ele>71.0</ele><time>2026-04-11T12:18:24Z</time></trkpt><trkpt lat="46.01430461465672" lon="13.320028971490505"><ele>71.0</ele><time>2026-04-11T12:18:25Z</time></trkpt><trkpt lat="46.01420592447753" lon="13.320126615043506"><ele>71.0</ele><time>2026-04-11T12:18:26Z</time></trkpt><trkpt lat="46.01408681443503" lon="13.320192624984248"><ele>71.25</ele><time>2026-04-11T12:18:27Z</time></trkpt><trkpt lat="46.01395563213737" lon="13.320288590193227"><ele>71.5</ele><time>2026-04-11T12:18:28Z</time></trkpt><trkpt lat="46.01383836024252" lon="13.32040545842271"><ele>71.75</ele><time>2026-04-11T12:18:29Z</time></trkpt><trkpt lat="46.01370892652841" lon="13.320525510406155"><ele>72.0</ele><time>2026-04-11T12:18:30Z</time></trkpt><trkpt lat="46.01356019876143" lon="13.320613885405388"><ele>72.0</ele><time>2026-04-11T12:18:31Z</time></trkpt><trkpt lat="46.013425514755426" lon="13.32077763113045"><ele>72.0</ele><time>2026-04-11T12:18:32Z</time></trkpt><trkpt lat="46.01326779148128" lon="13.320943070773918"><ele>72.0</ele><time>2026-04-11T12:18:33Z</time></trkpt><trkpt lat="46.013091490843685" lon="13.321128416012565"><ele>72.5</ele><time>2026-04-11T12:18:34Z</time></trkpt><trkpt lat="46.01290509863193" lon="13.321316922938133"><ele>73.0</ele><time>2026-04-11T12:18:35Z</time></trkpt><trkpt lat="46.01271781695041" lon="13.321508760032941"><ele>73.0</ele><time>2026-04-11T12:18:36Z</time></trkpt><trkpt lat="46.01253167259696" lon="13.321700404548567"><ele>73.0</ele><time>2026-04-11T12:18:37Z</time></trkpt><trkpt lat="46.01234717480221" lon="13.321889541961575"><ele>73.0</ele><time>2026-04-11T12:18:38Z</time></trkpt><trkpt lat="46.012164943645544" lon="13.322075399264772"><ele>73.0</ele><time>2026-04-11T12:18:39Z</time></trkpt><trkpt lat="46.01198456022518" lon="13.322251708713493"><ele>73.0</ele><time>2026-04-11T12:18:40Z</time></trkpt><trkpt lat="46.01180446710268" lon="13.322419757578109"><ele>72.0</ele><time>2026-04-11T12:18:41Z</time></trkpt><trkpt lat="46.01162975898293" lon="13.322577773221997"><ele>71.0</ele><time>2026-04-11T12:18:42Z</time></trkpt><trkpt lat="46.01147409814299" lon="13.322720212163263"><ele>70.0</ele><time>2026-04-11T12:18:43Z</time></trkpt><trkpt lat="46.01133002978976" lon="13.322849771740508"><ele>70.0</ele><time>2026-04-11T12:18:44Z</time></trkpt><trkpt lat="46.01119614982077" lon="13.322971487480581"><ele>70.0</ele><time>2026-04-11T12:18:45Z</time></trkpt><trkpt lat="46.011072873842295" lon="13.32308460570946"><ele>70.0</ele><time>2026-04-11T12:18:46Z</time></trkpt><trkpt lat="46.010968688805434" lon="13.323183118475768"><ele>70.0</ele><time>2026-04-11T12:18:47Z</time></trkpt><trkpt lat="46.010880229397614" lon="13.323264190700554"><ele>70.4</ele><time>2026-04-11T12:18:48Z</time></trkpt><trkpt lat="46.01080756243591" lon="13.323328467848517"><ele>70.8</ele><time>2026-04-11T12:18:49Z</time></trkpt><trkpt lat="46.01070678290831" lon="13.323356198799141"><ele>71.2</ele><time>2026-04-11T12:18:50Z</time></trkpt><trkpt lat="46.01060288452534" lon="13.323431320268467"><ele>71.6</ele><time>2026-04-11T12:18:51Z</time></trkpt><trkpt lat="46.010488698584865" lon="13.323528862856072"><ele>72.0</ele><time>2026-04-11T12:18:52Z</time></trkpt><trkpt lat="46.01034410105846" lon="13.323599029391914"><ele>72.0</ele><time>2026-04-11T12:18:53Z</time></trkpt><trkpt lat="46.01018692371507" lon="13.323679849271995"><ele>72.0</ele><time>2026-04-11T12:18:54Z</time></trkpt><trkpt lat="46.01001968366214" lon="13.32376693427517"><ele>72.0</ele><time>2026-04-11T12:18:55Z</time></trkpt><trkpt lat="46.00980134889828" lon="13.323880322487009"><ele>70.5</ele><time>2026-04-11T12:18:56Z</time></trkpt><trkpt lat="46.00951601155552" lon="13.324028486107414"><ele>69.0</ele><time>2026-04-11T12:18:57Z</time></trkpt><trkpt lat="46.009189505378345" lon="13.324195846382281"><ele>69.0</ele><time>2026-04-11T12:18:58Z</time></trkpt><trkpt lat="46.00883062525272" lon="13.324379736479623"><ele>69.0</ele><time>2026-04-11T12:18:59Z</time></trkpt><trkpt lat="46.00847102038048" lon="13.324564545458822"><ele>70.0</ele><time>2026-04-11T12:19:00Z</time></trkpt><trkpt lat="46.008154949228505" lon="13.324747973635393"><ele>71.0</ele><time>2026-04-11T12:19:01Z</time></trkpt><trkpt lat="46.007858379577776" lon="13.324879103211737"><ele>71.0</ele><time>2026-04-11T12:19:02Z</time></trkpt><trkpt lat="46.00757253905659" lon="13.324980714186816"><ele>71.0</ele><time>2026-04-11T12:19:03Z</time></trkpt><trkpt lat="46.00728708935588" lon="13.325056128204583"><ele>69.0</ele><time>2026-04-11T12:19:04Z</time></trkpt><trkpt lat="46.006995087876284" lon="13.325109137039155"><ele>67.0</ele><time>2026-04-11T12:19:05Z</time></trkpt><trkpt lat="46.006704853101716" lon="13.32521633973601"><ele>66.0</ele><time>2026-04-11T12:19:06Z</time></trkpt><trkpt lat="46.006432008185506" lon="13.3254114539937"><ele>65.0</ele><time>2026-04-11T12:19:07Z</time></trkpt><trkpt lat="46.00613219665382" lon="13.325554878378805"><ele>65.0</ele><time>2026-04-11T12:19:08Z</time></trkpt><trkpt lat="46.005816262452264" lon="13.325700121746058"><ele>65.0</ele><time>2026-04-11T12:19:09Z</time></trkpt><trkpt lat="46.00549048049656" lon="13.325850230294483"><ele>65.0</ele><time>2026-04-11T12:19:10Z</time></trkpt><trkpt lat="46.00518813277938" lon="13.325991751338659"><ele>65.0</ele><time>2026-04-11T12:19:10.999Z</time></trkpt><trkpt lat="46.00491411731295" lon="13.326120010834199"><ele>65.0</ele><time>2026-04-11T12:19:11.999Z</time></trkpt><trkpt lat="46.004689744663" lon="13.326245059092658"><ele>65.0</ele><time>2026-04-11T12:19:12.999Z</time></trkpt><trkpt lat="46.004504055203455" lon="13.326329711642616"><ele>65.0</ele><time>2026-04-11T12:19:13.999Z</time></trkpt><trkpt lat="46.00435052027013" lon="13.326405126521461"><ele>65.33333333333334</ele><time>2026-04-11T12:19:14.999Z</time></trkpt><trkpt lat="46.00421186194816" lon="13.326451926932897"><ele>65.66666666666667</ele><time>2026-04-11T12:19:15.999Z</time></trkpt><trkpt lat="46.004086227182015" lon="13.326558548917944"><ele>66.0</ele><time>2026-04-11T12:19:16.999Z</time></trkpt><trkpt lat="46.00398219505075" lon="13.326763761498501"><ele>66.0</ele><time>2026-04-11T12:19:17.999Z</time></trkpt><trkpt lat="46.003870858363506" lon="13.326986383305442"><ele>66.0</ele><time>2026-04-11T12:19:18.999Z</time></trkpt><trkpt lat="46.00372743528398" lon="13.327263137328186"><ele>66.0</ele><time>2026-04-11T12:19:19.999Z</time></trkpt><trkpt lat="46.00352548622063" lon="13.327631327671643"><ele>64.5</ele><time>2026-04-11T12:19:20.999Z</time></trkpt><trkpt lat="46.00331564670401" lon="13.328004014750634"><ele>63.0</ele><time>2026-04-11T12:19:21.999Z</time></trkpt><trkpt lat="46.0031566983466" lon="13.328300813305924"><ele>63.0</ele><time>2026-04-11T12:19:22.999Z</time></trkpt><trkpt lat="46.003037218907636" lon="13.328572364408533"><ele>63.0</ele><time>2026-04-11T12:19:23.999Z</time></trkpt><trkpt lat="46.0029350003745" lon="13.32885717731322"><ele>63.0</ele><time>2026-04-11T12:19:24.999Z</time></trkpt><trkpt lat="46.00283801006084" lon="13.329161577331705"><ele>63.0</ele><time>2026-04-11T12:19:25.999Z</time></trkpt><trkpt lat="46.002744351894734" lon="13.329477277303175"><ele>63.0</ele><time>2026-04-11T12:19:26.999Z</time></trkpt><trkpt lat="46.002649856321284" lon="13.329801774762535"><ele>63.0</ele><time>2026-04-11T12:19:27.999Z</time></trkpt><trkpt lat="46.002554969779084" lon="13.330123878351758"><ele>63.0</ele><time>2026-04-11T12:19:28.999Z</time></trkpt><trkpt lat="46.002470987399775" lon="13.330408415554006"><ele>63.66666666666667</ele><time>2026-04-11T12:19:29.999Z</time></trkpt><trkpt lat="46.00239384431785" lon="13.33065887326743"><ele>64.33333333333334</ele><time>2026-04-11T12:19:30.999Z</time></trkpt><trkpt lat="46.00233577591217" lon="13.330862912096954"><ele>65.0</ele><time>2026-04-11T12:19:31.999Z</time></trkpt><trkpt lat="46.00228742998956" lon="13.33104573244394"><ele>65.0</ele><time>2026-04-11T12:19:32.999Z</time></trkpt><trkpt lat="46.00224500942225" lon="13.331188615469056"><ele>65.0</ele><time>2026-04-11T12:19:33.999Z</time></trkpt><trkpt lat="46.002213674704876" lon="13.331312872819462"><ele>65.0</ele><time>2026-04-11T12:19:34.999Z</time></trkpt><trkpt lat="46.00216495527089" lon="13.33142274959105"><ele>65.0</ele><time>2026-04-11T12:19:35.999Z</time></trkpt><trkpt lat="46.00220019404482" lon="13.331644953632782"><ele>65.0</ele><time>2026-04-11T12:19:36.999Z</time></trkpt><trkpt lat="46.00225578849676" lon="13.331905171868478"><ele>66.0</ele><time>2026-04-11T12:19:37.999Z</time></trkpt><trkpt lat="46.0023041342914" lon="13.332226528050077"><ele>67.0</ele><time>2026-04-11T12:19:38.999Z</time></trkpt><trkpt lat="46.00236585749408" lon="13.332592534989569"><ele>67.0</ele><time>2026-04-11T12:19:39.999Z</time></trkpt><trkpt lat="46.00241460327338" lon="13.332883734177742"><ele>67.0</ele><time>2026-04-11T12:19:40.999Z</time></trkpt><trkpt lat="46.00245562613267" lon="13.333126882538506"><ele>67.0</ele><time>2026-04-11T12:19:41.999Z</time></trkpt><trkpt lat="46.00248990539231" lon="13.33330986321203"><ele>67.0</ele><time>2026-04-11T12:19:42.999Z</time></trkpt><trkpt lat="46.00252862388039" lon="13.333461745693466"><ele>67.0</ele><time>2026-04-11T12:19:43.999Z</time></trkpt><trkpt lat="46.00258240119413" lon="13.333573291383514"><ele>67.0</ele><time>2026-04-11T12:19:44.999Z</time></trkpt><trkpt lat="46.00264898924417" lon="13.333665712044564"><ele>67.0</ele><time>2026-04-11T12:19:45.999Z</time></trkpt><trkpt lat="46.00272616029454" lon="13.33374883167897"><ele>67.0</ele><time>2026-04-11T12:19:46.999Z</time></trkpt><trkpt lat="46.00274736018909" lon="13.333885519882216"><ele>67.2</ele><time>2026-04-11T12:19:47.999Z</time></trkpt><trkpt lat="46.0027330000015" lon="13.334008651653626"><ele>67.4</ele><time>2026-04-11T12:19:48.999Z</time></trkpt><trkpt lat="46.00268256146854" lon="13.3341073806565"><ele>67.6</ele><time>2026-04-11T12:19:49.999Z</time></trkpt><trkpt lat="46.002627341009436" lon="13.334198465273783"><ele>67.8</ele><time>2026-04-11T12:19:50.999Z</time></trkpt><trkpt lat="46.00248749631167" lon="13.334225644546319"><ele>68.0</ele><time>2026-04-11T12:19:51.999Z</time></trkpt><trkpt lat="46.00233332027221" lon="13.33426141234302"><ele>67.33333333333334</ele><time>2026-04-11T12:19:52.999Z</time></trkpt><trkpt lat="46.00214943210069" lon="13.334332829932066"><ele>66.66666666666667</ele><time>2026-04-11T12:19:53.999Z</time></trkpt><trkpt lat="46.00194499198408" lon="13.334412229277916"><ele>66.0</ele><time>2026-04-11T12:19:54.999Z</time></trkpt><trkpt lat="46.001724859081484" lon="13.33449772338989"><ele>64.5</ele><time>2026-04-11T12:19:55.999Z</time></trkpt><trkpt lat="46.001487354952914" lon="13.334590250032544"><ele>63.0</ele><time>2026-04-11T12:19:56.999Z</time></trkpt><trkpt lat="46.00124798998701" lon="13.334683827899788"><ele>63.5</ele><time>2026-04-11T12:19:57.999Z</time></trkpt><trkpt lat="46.00101673381242" lon="13.33477423384863"><ele>64.0</ele><time>2026-04-11T12:19:58.999Z</time></trkpt><trkpt lat="46.00080922827021" lon="13.334855354943548"><ele>64.0</ele><time>2026-04-11T12:19:59.999Z</time></trkpt><trkpt lat="46.00062484989349" lon="13.334929302376567"><ele>64.0</ele><time>2026-04-11T12:20:00.999Z</time></trkpt><trkpt lat="46.00046839773033" lon="13.334992240112374"><ele>64.0</ele><time>2026-04-11T12:20:01.999Z</time></trkpt><trkpt lat="46.00033686704775" lon="13.335045152388046"><ele>64.0</ele><time>2026-04-11T12:20:02.999Z</time></trkpt><trkpt lat="46.00022457777788" lon="13.33509032420708"><ele>64.0</ele><time>2026-04-11T12:20:03.999Z</time></trkpt><trkpt lat="46.00013533852146" lon="13.335126223563012"><ele>64.0</ele><time>2026-04-11T12:20:04.999Z</time></trkpt><trkpt lat="46.00006908397405" lon="13.335164217915262"><ele>64.0</ele><time>2026-04-11T12:20:05.999Z</time></trkpt><trkpt lat="46.00003496453738" lon="13.33527383370216"><ele>64.0</ele><time>2026-04-11T12:20:06.999Z</time></trkpt><trkpt lat="46.000027548215236" lon="13.33541454525824"><ele>64.33333333333333</ele><time>2026-04-11T12:20:07.999Z</time></trkpt><trkpt lat="46.000049841543714" lon="13.335607731253779"><ele>64.66666666666667</ele><time>2026-04-11T12:20:08.999Z</time></trkpt><trkpt lat="46.0000905894223" lon="13.335878868540323"><ele>65.0</ele><time>2026-04-11T12:20:09.999Z</time></trkpt><trkpt lat="46.00013479291028" lon="13.336150361211551"><ele>65.0</ele><time>2026-04-11T12:20:10.999Z</time></trkpt><trkpt lat="46.00017665704101" lon="13.336360292937059"><ele>65.0</ele><time>2026-04-11T12:20:11.999Z</time></trkpt><trkpt lat="46.0002046794736" lon="13.33654460716111"><ele>65.0</ele><time>2026-04-11T12:20:12.999Z</time></trkpt><trkpt lat="46.000211070201786" lon="13.336735989024914"><ele>65.0</ele><time>2026-04-11T12:20:13.999Z</time></trkpt><trkpt lat="46.00018463080995" lon="13.33691671116902"><ele>65.25</ele><time>2026-04-11T12:20:14.999Z</time></trkpt><trkpt lat="46.00013982010385" lon="13.337098843421154"><ele>65.5</ele><time>2026-04-11T12:20:15.999Z</time></trkpt><trkpt lat="46.00010934373604" lon="13.337309225863107"><ele>65.75</ele><time>2026-04-11T12:20:16.999Z</time></trkpt><trkpt lat="46.00009089246643" lon="13.337530646835765"><ele>66.0</ele><time>2026-04-11T12:20:17.999Z</time></trkpt><trkpt lat="46.00008448338527" lon="13.337732941806399"><ele>65.8</ele><time>2026-04-11T12:20:18.999Z</time></trkpt><trkpt lat="46.00007842793801" lon="13.337903255708936"><ele>65.6</ele><time>2026-04-11T12:20:19.999Z</time></trkpt><trkpt lat="46.0000760269285" lon="13.338039824769258"><ele>65.4</ele><time>2026-04-11T12:20:20.999Z</time></trkpt><trkpt lat="46.000072951754866" lon="13.338147150254942"><ele>65.2</ele><time>2026-04-11T12:20:21.999Z</time></trkpt><trkpt lat="46.0000474501741" lon="13.338282340511729"><ele>65.0</ele><time>2026-04-11T12:20:23.999Z</time></trkpt><trkpt lat="45.99991583349485" lon="13.338286228606371"><ele>65.0</ele><time>2026-04-11T12:20:24.999Z</time></trkpt><trkpt lat="45.99986714433052" lon="13.338420987028867"><ele>65.0</ele><time>2026-04-11T12:20:25.999Z</time></trkpt><trkpt lat="45.999812958065704" lon="13.338581687828071"><ele>65.0</ele><time>2026-04-11T12:20:27Z</time></trkpt><trkpt lat="45.99976123191128" lon="13.338755866006593"><ele>65.0</ele><time>2026-04-11T12:20:28Z</time></trkpt><trkpt lat="45.999723456293204" lon="13.33888917606432"><ele>65.25</ele><time>2026-04-11T12:20:29Z</time></trkpt><trkpt lat="45.99966700486628" lon="13.339020307184684"><ele>65.5</ele><time>2026-04-11T12:20:30Z</time></trkpt><trkpt lat="45.999587368882246" lon="13.339164908616956"><ele>65.75</ele><time>2026-04-11T12:20:31Z</time></trkpt><trkpt lat="45.99947904201435" lon="13.33925887753797"><ele>66.0</ele><time>2026-04-11T12:20:32Z</time></trkpt><trkpt lat="45.99936115461005" lon="13.339348242200666"><ele>66.0</ele><time>2026-04-11T12:20:33Z</time></trkpt><trkpt lat="45.99922939563939" lon="13.339462887109832"><ele>66.0</ele><time>2026-04-11T12:20:34Z</time></trkpt><trkpt lat="45.999075265973296" lon="13.339547947988084"><ele>66.0</ele><time>2026-04-11T12:20:35Z</time></trkpt><trkpt lat="45.998940953974895" lon="13.339662603878295"><ele>65.75</ele><time>2026-04-11T12:20:36Z</time></trkpt><trkpt lat="45.99879634774552" lon="13.339713455037575"><ele>65.5</ele><time>2026-04-11T12:20:37Z</time></trkpt><trkpt lat="45.99865172110631" lon="13.339769790903015"><ele>65.25</ele><time>2026-04-11T12:20:38Z</time></trkpt><trkpt lat="45.99850944075522" lon="13.339731382546956"><ele>65.0</ele><time>2026-04-11T12:20:39Z</time></trkpt><trkpt lat="45.998357531972545" lon="13.339693668343045"><ele>64.5</ele><time>2026-04-11T12:20:40Z</time></trkpt><trkpt lat="45.998193453146364" lon="13.339661815661948"><ele>64.0</ele><time>2026-04-11T12:20:41Z</time></trkpt><trkpt lat="45.998046289459786" lon="13.339629062138101"><ele>63.5</ele><time>2026-04-11T12:20:42Z</time></trkpt><trkpt lat="45.99792660574594" lon="13.339598603240422"><ele>63.0</ele><time>2026-04-11T12:20:43Z</time></trkpt><trkpt lat="45.99783277553998" lon="13.339635378599601"><ele>63.0</ele><time>2026-04-11T12:20:44Z</time></trkpt><trkpt lat="45.99776040856962" lon="13.339685909179451"><ele>63.0</ele><time>2026-04-11T12:20:45Z</time></trkpt><trkpt lat="45.99769936857813" lon="13.339771171052982"><ele>63.0</ele><time>2026-04-11T12:20:46Z</time></trkpt><trkpt lat="45.99764318123489" lon="13.339909873143796"><ele>63.0</ele><time>2026-04-11T12:20:47Z</time></trkpt><trkpt lat="45.99758308327202" lon="13.340080840696087"><ele>63.0</ele><time>2026-04-11T12:20:48Z</time></trkpt><trkpt lat="45.99749730653828" lon="13.3402531314447"><ele>63.2</ele><time>2026-04-11T12:20:49Z</time></trkpt><trkpt lat="45.9974373471904" lon="13.34037683046428"><ele>63.4</ele><time>2026-04-11T12:20:50Z</time></trkpt><trkpt lat="45.99736214348166" lon="13.34047564181135"><ele>63.60000000000001</ele><time>2026-04-11T12:20:51Z</time></trkpt><trkpt lat="45.99726310956209" lon="13.3405225089022"><ele>63.800000000000004</ele><time>2026-04-11T12:20:52Z</time></trkpt><trkpt lat="45.99713897207195" lon="13.340546988586317"><ele>64.0</ele><time>2026-04-11T12:20:53Z</time></trkpt><trkpt lat="45.996998875120845" lon="13.340522161314796"><ele>64.0</ele><time>2026-04-11T12:20:54Z</time></trkpt><trkpt lat="45.99686001713526" lon="13.340436017272172"><ele>64.0</ele><time>2026-04-11T12:20:55Z</time></trkpt><trkpt lat="45.99671238071734" lon="13.340332690078062"><ele>64.0</ele><time>2026-04-11T12:20:56Z</time></trkpt><trkpt lat="45.996579963600524" lon="13.340239886268993"><ele>64.0</ele><time>2026-04-11T12:20:57Z</time></trkpt><trkpt lat="45.99650770765071" lon="13.340189287692978"><ele>64.0</ele><time>2026-04-11T12:20:58Z</time></trkpt><trkpt lat="45.996439801986966" lon="13.340141577118928"><ele>64.0</ele><time>2026-04-11T12:20:59Z</time></trkpt><trkpt lat="45.996347960938564" lon="13.340077007900646"><ele>64.0</ele><time>2026-04-11T12:21:00Z</time></trkpt><trkpt lat="45.996218693223895" lon="13.339993335542804"><ele>64.0</ele><time>2026-04-11T12:21:01Z</time></trkpt><trkpt lat="45.996078074731656" lon="13.339930209785477"><ele>64.0</ele><time>2026-04-11T12:21:02Z</time></trkpt><trkpt lat="45.9959078805257" lon="13.339899613341606"><ele>64.0</ele><time>2026-04-11T12:21:03Z</time></trkpt><trkpt lat="45.99573603962273" lon="13.339924046573495"><ele>64.0</ele><time>2026-04-11T12:21:04Z</time></trkpt><trkpt lat="45.995562551476475" lon="13.340012268176425"><ele>63.33333333333333</ele><time>2026-04-11T12:21:05Z</time></trkpt><trkpt lat="45.99537168084788" lon="13.340125575669365"><ele>62.66666666666667</ele><time>2026-04-11T12:21:06Z</time></trkpt><trkpt lat="45.995151038332764" lon="13.340258886283802"><ele>62.0</ele><time>2026-04-11T12:21:07Z</time></trkpt><trkpt lat="45.994915698575966" lon="13.340405131703516"><ele>62.0</ele><time>2026-04-11T12:21:08Z</time></trkpt><trkpt lat="45.994667201949134" lon="13.340559672379683"><ele>62.0</ele><time>2026-04-11T12:21:09Z</time></trkpt><trkpt lat="45.99442134870638" lon="13.34071256914621"><ele>62.0</ele><time>2026-04-11T12:21:10Z</time></trkpt><trkpt lat="45.9941878449191" lon="13.340857785653153"><ele>62.0</ele><time>2026-04-11T12:21:11Z</time></trkpt><trkpt lat="45.993970644262575" lon="13.341006094456617"><ele>62.0</ele><time>2026-04-11T12:21:12Z</time></trkpt><trkpt lat="45.9937404270689" lon="13.341071152118085"><ele>62.0</ele><time>2026-04-11T12:21:13Z</time></trkpt><trkpt lat="45.993493433388046" lon="13.341139788844307"><ele>61.0</ele><time>2026-04-11T12:21:14Z</time></trkpt><trkpt lat="45.99321892415362" lon="13.341219351396026"><ele>60.0</ele><time>2026-04-11T12:21:14.999Z</time></trkpt><trkpt lat="45.992929845806195" lon="13.341307855449237"><ele>60.0</ele><time>2026-04-11T12:21:15.999Z</time></trkpt><trkpt lat="45.99264085755132" lon="13.341409521527265"><ele>60.0</ele><time>2026-04-11T12:21:16.999Z</time></trkpt><trkpt lat="45.99235537042693" lon="13.341514677520792"><ele>59.5</ele><time>2026-04-11T12:21:17.999Z</time></trkpt><trkpt lat="45.99207760485334" lon="13.341617078626001"><ele>59.0</ele><time>2026-04-11T12:21:18.999Z</time></trkpt><trkpt lat="45.99181400834983" lon="13.34171425821281"><ele>58.0</ele><time>2026-04-11T12:21:19.999Z</time></trkpt><trkpt lat="45.991561073198376" lon="13.341807552731801"><ele>57.0</ele><time>2026-04-11T12:21:20.999Z</time></trkpt><trkpt lat="45.99132103678146" lon="13.34189802109089"><ele>57.0</ele><time>2026-04-11T12:21:21.999Z</time></trkpt><trkpt lat="45.991091585764906" lon="13.341984669772621"><ele>57.0</ele><time>2026-04-11T12:21:22.999Z</time></trkpt><trkpt lat="45.990867364820815" lon="13.342068850687019"><ele>57.0</ele><time>2026-04-11T12:21:23.999Z</time></trkpt><trkpt lat="45.99064262518405" lon="13.342151884563451"><ele>57.0</ele><time>2026-04-11T12:21:24.999Z</time></trkpt><trkpt lat="45.990421184566166" lon="13.342233699555894"><ele>57.0</ele><time>2026-04-11T12:21:25.999Z</time></trkpt><trkpt lat="45.990203324272564" lon="13.342314193649749"><ele>57.0</ele><time>2026-04-11T12:21:26.999Z</time></trkpt><trkpt lat="45.98999133139583" lon="13.342388436858345"><ele>57.0</ele><time>2026-04-11T12:21:27.999Z</time></trkpt><trkpt lat="45.98978150967444" lon="13.342445620676923"><ele>57.33333333333333</ele><time>2026-04-11T12:21:28.999Z</time></trkpt><trkpt lat="45.989574472853924" lon="13.3424838297933"><ele>57.666666666666664</ele><time>2026-04-11T12:21:29.999Z</time></trkpt><trkpt lat="45.98936461667608" lon="13.3425137052036"><ele>58.0</ele><time>2026-04-11T12:21:30.999Z</time></trkpt><trkpt lat="45.98914892659212" lon="13.342538183019322"><ele>58.33333333333333</ele><time>2026-04-11T12:21:31.999Z</time></trkpt><trkpt lat="45.988928510504145" lon="13.342563794603118"><ele>58.66666666666667</ele><time>2026-04-11T12:21:32.999Z</time></trkpt><trkpt lat="45.98870632353437" lon="13.342588878518919"><ele>59.0</ele><time>2026-04-11T12:21:33.999Z</time></trkpt><trkpt lat="45.98848231445103" lon="13.34262397243651"><ele>58.66666666666667</ele><time>2026-04-11T12:21:34.999Z</time></trkpt><trkpt lat="45.988261916291655" lon="13.342672978990315"><ele>58.33333333333333</ele><time>2026-04-11T12:21:35.999Z</time></trkpt><trkpt lat="45.98804625162045" lon="13.342738322564445"><ele>58.0</ele><time>2026-04-11T12:21:36.999Z</time></trkpt><trkpt lat="45.98783062928687" lon="13.342811322809586"><ele>58.0</ele><time>2026-04-11T12:21:37.999Z</time></trkpt><trkpt lat="45.9876184026762" lon="13.34290518606276"><ele>58.0</ele><time>2026-04-11T12:21:38.999Z</time></trkpt><trkpt lat="45.98741048057192" lon="13.343006531362287"><ele>58.0</ele><time>2026-04-11T12:21:39.999Z</time></trkpt><trkpt lat="45.98720638627663" lon="13.343111562730412"><ele>57.666666666666664</ele><time>2026-04-11T12:21:40.999Z</time></trkpt><trkpt lat="45.98700634986888" lon="13.343217387672999"><ele>57.33333333333333</ele><time>2026-04-11T12:21:41.999Z</time></trkpt><trkpt lat="45.9868135416863" lon="13.343327254220956"><ele>57.0</ele><time>2026-04-11T12:21:42.999Z</time></trkpt><trkpt lat="45.9866320534039" lon="13.343453836011367"><ele>57.0</ele><time>2026-04-11T12:21:43.999Z</time></trkpt><trkpt lat="45.98645891292076" lon="13.343549804538311"><ele>57.0</ele><time>2026-04-11T12:21:44.999Z</time></trkpt><trkpt lat="45.986292930257974" lon="13.343616004200996"><ele>57.0</ele><time>2026-04-11T12:21:45.999Z</time></trkpt><trkpt lat="45.9861461792328" lon="13.343695240137377"><ele>57.0</ele><time>2026-04-11T12:21:46.999Z</time></trkpt><trkpt lat="45.98601175011997" lon="13.343767823171012"><ele>57.0</ele><time>2026-04-11T12:21:47.999Z</time></trkpt><trkpt lat="45.985885553638546" lon="13.34383574285128"><ele>57.0</ele><time>2026-04-11T12:21:48.999Z</time></trkpt><trkpt lat="45.98578129663712" lon="13.343891673577808"><ele>57.0</ele><time>2026-04-11T12:21:49.999Z</time></trkpt><trkpt lat="45.98569315049509" lon="13.343937072718226"><ele>57.0</ele><time>2026-04-11T12:21:50.999Z</time></trkpt><trkpt lat="45.98561886267764" lon="13.343975689865802"><ele>57.0</ele><time>2026-04-11T12:21:51.999Z</time></trkpt><trkpt lat="45.985543732060385" lon="13.343942400342696"><ele>57.0</ele><time>2026-04-11T12:21:52.999Z</time></trkpt><trkpt lat="45.98548432985585" lon="13.343819589826763"><ele>57.0</ele><time>2026-04-11T12:21:53.999Z</time></trkpt><trkpt lat="45.98539163059909" lon="13.343716491145152"><ele>57.0</ele><time>2026-04-11T12:21:54.999Z</time></trkpt><trkpt lat="45.985276859605335" lon="13.343597566286101"><ele>57.0</ele><time>2026-04-11T12:21:55.999Z</time></trkpt><trkpt lat="45.98515213105229" lon="13.343503823198384"><ele>57.0</ele><time>2026-04-11T12:21:56.999Z</time></trkpt><trkpt lat="45.985059791472246" lon="13.343402449345096"><ele>57.0</ele><time>2026-04-11T12:21:57.999Z</time></trkpt><trkpt lat="45.98496105572079" lon="13.343358587104666"><ele>57.0</ele><time>2026-04-11T12:21:58.999Z</time></trkpt><trkpt lat="45.98486140934447" lon="13.34333706625467"><ele>57.5</ele><time>2026-04-11T12:21:59.999Z</time></trkpt><trkpt lat="45.98475817327344" lon="13.3433679950308"><ele>58.0</ele><time>2026-04-11T12:22:00.999Z</time></trkpt><trkpt lat="45.984661237299335" lon="13.343500991458344"><ele>58.5</ele><time>2026-04-11T12:22:01.999Z</time></trkpt><trkpt lat="45.98456404832442" lon="13.34362345870712"><ele>59.0</ele><time>2026-04-11T12:22:02.999Z</time></trkpt><trkpt lat="45.984466632330125" lon="13.343730359823128"><ele>59.0</ele><time>2026-04-11T12:22:03.999Z</time></trkpt><trkpt lat="45.98433621436138" lon="13.3438007375623"><ele>59.0</ele><time>2026-04-11T12:22:04.999Z</time></trkpt><trkpt lat="45.98418414267552" lon="13.34387374228069"><ele>59.0</ele><time>2026-04-11T12:22:05.999Z</time></trkpt><trkpt lat="45.9840439032233" lon="13.343947954414341"><ele>59.0</ele><time>2026-04-11T12:22:06.999Z</time></trkpt><trkpt lat="45.98392022088083" lon="13.344042153820412"><ele>58.400000000000006</ele><time>2026-04-11T12:22:07.999Z</time></trkpt><trkpt lat="45.98382962068663" lon="13.344122362126498"><ele>57.800000000000004</ele><time>2026-04-11T12:22:08.999Z</time></trkpt><trkpt lat="45.983762150225445" lon="13.344182781066303"><ele>57.199999999999996</ele><time>2026-04-11T12:22:09.999Z</time></trkpt><trkpt lat="45.98367007032389" lon="13.344232363045048"><ele>56.599999999999994</ele><time>2026-04-11T12:22:11.999Z</time></trkpt><trkpt lat="45.983633930201805" lon="13.344075417050227"><ele>56.0</ele><time>2026-04-11T12:22:12.999Z</time></trkpt><trkpt lat="45.9835772833813" lon="13.343920637641316"><ele>56.0</ele><time>2026-04-11T12:22:13.999Z</time></trkpt><trkpt lat="45.98351554794277" lon="13.343740869701366"><ele>56.0</ele><time>2026-04-11T12:22:14.999Z</time></trkpt><trkpt lat="45.983440435501805" lon="13.343546312684643"><ele>56.0</ele><time>2026-04-11T12:22:15.999Z</time></trkpt><trkpt lat="45.983363724148056" lon="13.34337594209216"><ele>56.0</ele><time>2026-04-11T12:22:16.999Z</time></trkpt><trkpt lat="45.98327256611095" lon="13.343241655212362"><ele>56.0</ele><time>2026-04-11T12:22:17.999Z</time></trkpt><trkpt lat="45.98320740437737" lon="13.343105289479837"><ele>56.0</ele><time>2026-04-11T12:22:18.999Z</time></trkpt><trkpt lat="45.98311269792506" lon="13.34301801470304"><ele>56.0</ele><time>2026-04-11T12:22:19.999Z</time></trkpt><trkpt lat="45.98299373626566" lon="13.342981510821005"><ele>56.0</ele><time>2026-04-11T12:22:20.999Z</time></trkpt><trkpt lat="45.982857759189585" lon="13.343046230721152"><ele>56.0</ele><time>2026-04-11T12:22:21.999Z</time></trkpt><trkpt lat="45.982722135878625" lon="13.343097141638435"><ele>56.0</ele><time>2026-04-11T12:22:22.999Z</time></trkpt><trkpt lat="45.98259594047208" lon="13.343142160792205"><ele>56.0</ele><time>2026-04-11T12:22:23.999Z</time></trkpt><trkpt lat="45.98247531568041" lon="13.343122316449477"><ele>56.0</ele><time>2026-04-11T12:22:24.999Z</time></trkpt><trkpt lat="45.98236752058315" lon="13.34301249319729"><ele>55.4</ele><time>2026-04-11T12:22:25.999Z</time></trkpt><trkpt lat="45.98226387201866" lon="13.34294048938668"><ele>54.8</ele><time>2026-04-11T12:22:26.999Z</time></trkpt><trkpt lat="45.98217982245341" lon="13.34289752893046"><ele>54.199999999999996</ele><time>2026-04-11T12:22:27.999Z</time></trkpt><trkpt lat="45.98214153064083" lon="13.342824103551402"><ele>53.599999999999994</ele><time>2026-04-11T12:22:28.999Z</time></trkpt><trkpt lat="45.9820915632855" lon="13.342612787114026"><ele>53.0</ele><time>2026-04-11T12:22:30.999Z</time></trkpt><trkpt lat="45.98203841022503" lon="13.342433068055593"><ele>53.0</ele><time>2026-04-11T12:22:31.999Z</time></trkpt><trkpt lat="45.98196618645311" lon="13.342185318435737"><ele>53.0</ele><time>2026-04-11T12:22:33Z</time></trkpt><trkpt lat="45.9818672977042" lon="13.341856777258213"><ele>53.0</ele><time>2026-04-11T12:22:34Z</time></trkpt><trkpt lat="45.981747879793744" lon="13.341463820053574"><ele>53.5</ele><time>2026-04-11T12:22:35Z</time></trkpt><trkpt lat="45.98161854156204" lon="13.341025958973292"><ele>54.0</ele><time>2026-04-11T12:22:36Z</time></trkpt><trkpt lat="45.981513671855204" lon="13.34061001284378"><ele>53.5</ele><time>2026-04-11T12:22:37Z</time></trkpt><trkpt lat="45.98136695677906" lon="13.340241341033042"><ele>53.0</ele><time>2026-04-11T12:22:38Z</time></trkpt><trkpt lat="45.9811866668601" lon="13.339909468502203"><ele>53.5</ele><time>2026-04-11T12:22:39Z</time></trkpt><trkpt lat="45.98102734182356" lon="13.339548513053558"><ele>54.0</ele><time>2026-04-11T12:22:40Z</time></trkpt><trkpt lat="45.98085405984333" lon="13.339198907127082"><ele>55.5</ele><time>2026-04-11T12:22:41Z</time></trkpt><trkpt lat="45.980679125964706" lon="13.338847725864039"><ele>57.0</ele><time>2026-04-11T12:22:42Z</time></trkpt><trkpt lat="45.9805025847114" lon="13.338493318017283"><ele>57.0</ele><time>2026-04-11T12:22:43Z</time></trkpt><trkpt lat="45.98032616270085" lon="13.338138543659726"><ele>57.0</ele><time>2026-04-11T12:22:44Z</time></trkpt><trkpt lat="45.980148428974104" lon="13.337777940618011"><ele>57.0</ele><time>2026-04-11T12:22:45Z</time></trkpt><trkpt lat="45.979985619620265" lon="13.337447617716952"><ele>57.0</ele><time>2026-04-11T12:22:46Z</time></trkpt><trkpt lat="45.97979771307717" lon="13.337059414014174"><ele>57.0</ele><time>2026-04-11T12:22:47Z</time></trkpt><trkpt lat="45.97959392532683" lon="13.336631878991149"><ele>57.0</ele><time>2026-04-11T12:22:48Z</time></trkpt><trkpt lat="45.97938558667703" lon="13.336187567885863"><ele>57.0</ele><time>2026-04-11T12:22:49Z</time></trkpt><trkpt lat="45.97921393487468" lon="13.335801090020013"><ele>57.0</ele><time>2026-04-11T12:22:50Z</time></trkpt><trkpt lat="45.97906258994234" lon="13.335460332783777"><ele>58.0</ele><time>2026-04-11T12:22:51Z</time></trkpt><trkpt lat="45.978904679268986" lon="13.335146978923072"><ele>59.0</ele><time>2026-04-11T12:22:52Z</time></trkpt><trkpt lat="45.978775216321736" lon="13.334851476112236"><ele>59.0</ele><time>2026-04-11T12:22:53Z</time></trkpt><trkpt lat="45.97865182932806" lon="13.334567739420995"><ele>59.0</ele><time>2026-04-11T12:22:54Z</time></trkpt><trkpt lat="45.97852819112273" lon="13.334280665944107"><ele>59.0</ele><time>2026-04-11T12:22:55Z</time></trkpt><trkpt lat="45.97840316092126" lon="13.333995309648712"><ele>59.0</ele><time>2026-04-11T12:22:56Z</time></trkpt><trkpt lat="45.97827703637333" lon="13.333708627945096"><ele>56.5</ele><time>2026-04-11T12:22:57Z</time></trkpt><trkpt lat="45.97814770238219" lon="13.333418251541367"><ele>54.0</ele><time>2026-04-11T12:22:58Z</time></trkpt><trkpt lat="45.97803692244047" lon="13.333120526900414"><ele>54.5</ele><time>2026-04-11T12:22:59Z</time></trkpt><trkpt lat="45.977912054805195" lon="13.33283438814018"><ele>55.0</ele><time>2026-04-11T12:23:00Z</time></trkpt><trkpt lat="45.977788293314" lon="13.332550784283198"><ele>55.0</ele><time>2026-04-11T12:23:01Z</time></trkpt><trkpt lat="45.977659659249795" lon="13.332256014489703"><ele>55.0</ele><time>2026-04-11T12:23:02Z</time></trkpt><trkpt lat="45.97752900128936" lon="13.331955771886298"><ele>56.0</ele><time>2026-04-11T12:23:03Z</time></trkpt><trkpt lat="45.97739791802458" lon="13.331652744304034"><ele>57.0</ele><time>2026-04-11T12:23:04Z</time></trkpt><trkpt lat="45.977269701822436" lon="13.331355982192497"><ele>57.0</ele><time>2026-04-11T12:23:05Z</time></trkpt><trkpt lat="45.97714505734239" lon="13.331068605050094"><ele>57.0</ele><time>2026-04-11T12:23:06Z</time></trkpt><trkpt lat="45.9770224347933" lon="13.330789549721045"><ele>57.66666666666667</ele><time>2026-04-11T12:23:07Z</time></trkpt><trkpt lat="45.97690797033733" lon="13.33052905954069"><ele>58.333333333333336</ele><time>2026-04-11T12:23:08Z</time></trkpt><trkpt lat="45.97677359926366" lon="13.33029749092647"><ele>59.0</ele><time>2026-04-11T12:23:09Z</time></trkpt><trkpt lat="45.97666542682672" lon="13.33004967402134"><ele>59.0</ele><time>2026-04-11T12:23:10Z</time></trkpt><trkpt lat="45.97657228010565" lon="13.329812847875765"><ele>59.0</ele><time>2026-04-11T12:23:11Z</time></trkpt><trkpt lat="45.97649498685092" lon="13.329592161198642"><ele>59.0</ele><time>2026-04-11T12:23:12Z</time></trkpt><trkpt lat="45.97644868476659" lon="13.329365826361403"><ele>59.0</ele><time>2026-04-11T12:23:13Z</time></trkpt><trkpt lat="45.976389404030705" lon="13.329149506195282"><ele>59.0</ele><time>2026-04-11T12:23:14Z</time></trkpt><trkpt lat="45.97633437262854" lon="13.328945553815371"><ele>59.0</ele><time>2026-04-11T12:23:15Z</time></trkpt><trkpt lat="45.97628336624429" lon="13.328756518517649"><ele>58.75</ele><time>2026-04-11T12:23:16Z</time></trkpt><trkpt lat="45.9762382230691" lon="13.328590136585353"><ele>58.5</ele><time>2026-04-11T12:23:17Z</time></trkpt><trkpt lat="45.97619586530413" lon="13.32843402364646"><ele>58.25</ele><time>2026-04-11T12:23:18Z</time></trkpt><trkpt lat="45.97615703493779" lon="13.328290911512157"><ele>58.0</ele><time>2026-04-11T12:23:18.999Z</time></trkpt><trkpt lat="45.97607597180727" lon="13.32819459090591"><ele>58.00000000000001</ele><time>2026-04-11T12:23:19.999Z</time></trkpt><trkpt lat="45.976033200977064" lon="13.32810703209207"><ele>58.0</ele><time>2026-04-11T12:23:20.999Z</time></trkpt><trkpt lat="45.976010115196715" lon="13.328020746691477"><ele>58.00000000000001</ele><time>2026-04-11T12:23:21.999Z</time></trkpt><trkpt lat="45.97596940794868" lon="13.32794830062368"><ele>58.00000000000001</ele><time>2026-04-11T12:23:22.999Z</time></trkpt><trkpt lat="45.97595908801845" lon="13.327842124436895"><ele>58.0</ele><time>2026-04-11T12:23:23.999Z</time></trkpt><trkpt lat="45.97594609603784" lon="13.327736042682151"><ele>58.00000000000001</ele><time>2026-04-11T12:23:24.999Z</time></trkpt><trkpt lat="45.97590513642445" lon="13.32766012759169"><ele>58.00000000000001</ele><time>2026-04-11T12:23:25.999Z</time></trkpt><trkpt lat="45.97584131285974" lon="13.327622949729983"><ele>58.5</ele><time>2026-04-11T12:23:26.999Z</time></trkpt><trkpt lat="45.975760559684" lon="13.327646439953579"><ele>59.0</ele><time>2026-04-11T12:23:27.999Z</time></trkpt><trkpt lat="45.97566772209474" lon="13.327718200384675"><ele>59.5</ele><time>2026-04-11T12:23:28.999Z</time></trkpt><trkpt lat="45.975541679058075" lon="13.327788372764061"><ele>60.0</ele><time>2026-04-11T12:23:29.999Z</time></trkpt><trkpt lat="45.975389842187916" lon="13.327831003372676"><ele>60.0</ele><time>2026-04-11T12:23:30.999Z</time></trkpt><trkpt lat="45.975223668220586" lon="13.327891976864308"><ele>60.0</ele><time>2026-04-11T12:23:31.999Z</time></trkpt><trkpt lat="45.97505416516009" lon="13.327994468679591"><ele>60.0</ele><time>2026-04-11T12:23:32.999Z</time></trkpt><trkpt lat="45.97487781205254" lon="13.328110807761838"><ele>59.0</ele><time>2026-04-11T12:23:33.999Z</time></trkpt><trkpt lat="45.974695720597005" lon="13.328239440113094"><ele>58.0</ele><time>2026-04-11T12:23:34.999Z</time></trkpt><trkpt lat="45.97451425424171" lon="13.328362466452075"><ele>57.0</ele><time>2026-04-11T12:23:35.999Z</time></trkpt><trkpt lat="45.97433089760735" lon="13.328475055779068"><ele>56.66666666666667</ele><time>2026-04-11T12:23:36.999Z</time></trkpt><trkpt lat="45.974148560102506" lon="13.328599130117132"><ele>56.333333333333336</ele><time>2026-04-11T12:23:37.999Z</time></trkpt><trkpt lat="45.97396374963823" lon="13.32872579505835"><ele>56.0</ele><time>2026-04-11T12:23:38.999Z</time></trkpt><trkpt lat="45.973775045691006" lon="13.328854291616294"><ele>56.0</ele><time>2026-04-11T12:23:39.999Z</time></trkpt><trkpt lat="45.97358891676232" lon="13.328982031673819"><ele>56.0</ele><time>2026-04-11T12:23:40.999Z</time></trkpt><trkpt lat="45.97340794619057" lon="13.32910315617849"><ele>56.0</ele><time>2026-04-11T12:23:41.999Z</time></trkpt><trkpt lat="45.97322851929433" lon="13.329222202330564"><ele>55.333333333333336</ele><time>2026-04-11T12:23:42.999Z</time></trkpt><trkpt lat="45.97305433853666" lon="13.329338909164246"><ele>54.66666666666667</ele><time>2026-04-11T12:23:43.999Z</time></trkpt><trkpt lat="45.97288324815275" lon="13.329457606061986"><ele>54.0</ele><time>2026-04-11T12:23:44.999Z</time></trkpt><trkpt lat="45.97270873004312" lon="13.329554423822945"><ele>54.0</ele><time>2026-04-11T12:23:45.999Z</time></trkpt><trkpt lat="45.97254285557779" lon="13.329666215607126"><ele>54.0</ele><time>2026-04-11T12:23:46.999Z</time></trkpt><trkpt lat="45.97237839384309" lon="13.329777537357025"><ele>54.0</ele><time>2026-04-11T12:23:47.999Z</time></trkpt><trkpt lat="45.97221308215222" lon="13.329889407514253"><ele>54.66666666666667</ele><time>2026-04-11T12:23:48.999Z</time></trkpt><trkpt lat="45.97204674368497" lon="13.330001970559266"><ele>55.333333333333336</ele><time>2026-04-11T12:23:49.999Z</time></trkpt><trkpt lat="45.97187946483711" lon="13.330113796235292"><ele>56.0</ele><time>2026-04-11T12:23:50.999Z</time></trkpt><trkpt lat="45.971702596682704" lon="13.330228724515047"><ele>55.66666666666667</ele><time>2026-04-11T12:23:51.999Z</time></trkpt><trkpt lat="45.97152068194335" lon="13.330358259044083"><ele>55.33333333333333</ele><time>2026-04-11T12:23:52.999Z</time></trkpt><trkpt lat="45.97132048066679" lon="13.330439226648686"><ele>55.0</ele><time>2026-04-11T12:23:53.999Z</time></trkpt><trkpt lat="45.971107909696826" lon="13.330500246037772"><ele>54.5</ele><time>2026-04-11T12:23:54.999Z</time></trkpt><trkpt lat="45.97088233744003" lon="13.330558701260573"><ele>54.0</ele><time>2026-04-11T12:23:55.999Z</time></trkpt><trkpt lat="45.970647254072944" lon="13.330620780493533"><ele>54.0</ele><time>2026-04-11T12:23:56.999Z</time></trkpt><trkpt lat="45.97040238532695" lon="13.330661959447735"><ele>54.0</ele><time>2026-04-11T12:23:57.999Z</time></trkpt><trkpt lat="45.97015070136426" lon="13.330727428119477"><ele>53.5</ele><time>2026-04-11T12:23:58.999Z</time></trkpt><trkpt lat="45.96989266216702" lon="13.33079454442228"><ele>53.0</ele><time>2026-04-11T12:23:59.999Z</time></trkpt><trkpt lat="45.96962616751012" lon="13.330863860004353"><ele>53.0</ele><time>2026-04-11T12:24:00.999Z</time></trkpt><trkpt lat="45.96935327219428" lon="13.330934840863177"><ele>53.0</ele><time>2026-04-11T12:24:01.999Z</time></trkpt><trkpt lat="45.969075607906134" lon="13.331007136827662"><ele>53.0</ele><time>2026-04-11T12:24:02.999Z</time></trkpt><trkpt lat="45.96881105838553" lon="13.3310764898644"><ele>53.0</ele><time>2026-04-11T12:24:03.999Z</time></trkpt><trkpt lat="45.96857414062543" lon="13.331138599157072"><ele>54.0</ele><time>2026-04-11T12:24:04.999Z</time></trkpt><trkpt lat="45.96835460744927" lon="13.331196152404589"><ele>55.0</ele><time>2026-04-11T12:24:05.999Z</time></trkpt><trkpt lat="45.96812329831675" lon="13.331254478306455"><ele>55.0</ele><time>2026-04-11T12:24:06.999Z</time></trkpt><trkpt lat="45.96788342708308" lon="13.331317328379104"><ele>55.0</ele><time>2026-04-11T12:24:07.999Z</time></trkpt><trkpt lat="45.96764741423498" lon="13.331379441280925"><ele>54.0</ele><time>2026-04-11T12:24:08.999Z</time></trkpt><trkpt lat="45.967426546053915" lon="13.331465790497704"><ele>53.0</ele><time>2026-04-11T12:24:09.999Z</time></trkpt><trkpt lat="45.96721287194047" lon="13.331517688124507"><ele>52.0</ele><time>2026-04-11T12:24:10.999Z</time></trkpt><trkpt lat="45.96701246056484" lon="13.331568826016461"><ele>52.0</ele><time>2026-04-11T12:24:11.999Z</time></trkpt><trkpt lat="45.966822024614956" lon="13.331620754232064"><ele>52.0</ele><time>2026-04-11T12:24:12.999Z</time></trkpt><trkpt lat="45.966639889011425" lon="13.331642773279082"><ele>52.0</ele><time>2026-04-11T12:24:13.999Z</time></trkpt><trkpt lat="45.966470259245035" lon="13.331687163232191"><ele>51.75</ele><time>2026-04-11T12:24:14.999Z</time></trkpt><trkpt lat="45.96632027165412" lon="13.33172650245935"><ele>51.5</ele><time>2026-04-11T12:24:15.999Z</time></trkpt><trkpt lat="45.966185178525485" lon="13.331765062021962"><ele>51.25</ele><time>2026-04-11T12:24:16.999Z</time></trkpt><trkpt lat="45.966059771459754" lon="13.331829706312654"><ele>51.0</ele><time>2026-04-11T12:24:17.999Z</time></trkpt><trkpt lat="45.96593223547373" lon="13.33187472923524"><ele>51.0</ele><time>2026-04-11T12:24:18.999Z</time></trkpt><trkpt lat="45.965802924565594" lon="13.331934723696893"><ele>51.0</ele><time>2026-04-11T12:24:19.999Z</time></trkpt><trkpt lat="45.96567212209892" lon="13.331988093725318"><ele>51.0</ele><time>2026-04-11T12:24:20.999Z</time></trkpt><trkpt lat="45.9655407574709" lon="13.332066644357042"><ele>51.0</ele><time>2026-04-11T12:24:21.999Z</time></trkpt><trkpt lat="45.96541469286095" lon="13.332144665226421"><ele>51.0</ele><time>2026-04-11T12:24:22.999Z</time></trkpt><trkpt lat="45.965246583700925" lon="13.332248707285565"><ele>51.0</ele><time>2026-04-11T12:24:23.999Z</time></trkpt><trkpt lat="45.96501548344642" lon="13.332394015554607"><ele>51.0</ele><time>2026-04-11T12:24:24.999Z</time></trkpt><trkpt lat="45.96474233104406" lon="13.332566076191883"><ele>51.5</ele><time>2026-04-11T12:24:25.999Z</time></trkpt><trkpt lat="45.96445226680354" lon="13.332748789921448"><ele>52.0</ele><time>2026-04-11T12:24:26.999Z</time></trkpt><trkpt lat="45.964169272973706" lon="13.332927050138318"><ele>50.5</ele><time>2026-04-11T12:24:27.999Z</time></trkpt><trkpt lat="45.96389636081458" lon="13.333124522359814"><ele>49.0</ele><time>2026-04-11T12:24:28.999Z</time></trkpt><trkpt lat="45.96361664750062" lon="13.333297946440291"><ele>49.0</ele><time>2026-04-11T12:24:29.999Z</time></trkpt><trkpt lat="45.96334327170279" lon="13.33347173929774"><ele>49.0</ele><time>2026-04-11T12:24:30.999Z</time></trkpt><trkpt lat="45.963075023491434" lon="13.333642063811729"><ele>49.0</ele><time>2026-04-11T12:24:31.999Z</time></trkpt><trkpt lat="45.96281638366575" lon="13.333805383996927"><ele>49.0</ele><time>2026-04-11T12:24:32.999Z</time></trkpt><trkpt lat="45.96256102004988" lon="13.333945042091688"><ele>48.0</ele><time>2026-04-11T12:24:33.999Z</time></trkpt><trkpt lat="45.96231871843172" lon="13.334099542001525"><ele>47.0</ele><time>2026-04-11T12:24:34.999Z</time></trkpt><trkpt lat="45.96208081308838" lon="13.334250142450387"><ele>47.0</ele><time>2026-04-11T12:24:35.999Z</time></trkpt><trkpt lat="45.961846823673866" lon="13.334397046324654"><ele>47.0</ele><time>2026-04-11T12:24:36.999Z</time></trkpt><trkpt lat="45.96161293370167" lon="13.334540797796334"><ele>47.0</ele><time>2026-04-11T12:24:37.999Z</time></trkpt><trkpt lat="45.9613783562691" lon="13.334669568156903"><ele>47.0</ele><time>2026-04-11T12:24:39Z</time></trkpt><trkpt lat="45.96113989192703" lon="13.334769105252363"><ele>47.0</ele><time>2026-04-11T12:24:40Z</time></trkpt><trkpt lat="45.96089632720353" lon="13.33486799088529"><ele>47.0</ele><time>2026-04-11T12:24:41Z</time></trkpt><trkpt lat="45.96064161265914" lon="13.334918914076978"><ele>48.0</ele><time>2026-04-11T12:24:42Z</time></trkpt><trkpt lat="45.960386071001516" lon="13.334994886945259"><ele>49.0</ele><time>2026-04-11T12:24:43Z</time></trkpt><trkpt lat="45.9601291471781" lon="13.33510254823655"><ele>47.5</ele><time>2026-04-11T12:24:44Z</time></trkpt><trkpt lat="45.959864528026706" lon="13.335179025967166"><ele>46.0</ele><time>2026-04-11T12:24:45Z</time></trkpt><trkpt lat="45.9595950051954" lon="13.335255673547035"><ele>46.0</ele><time>2026-04-11T12:24:46Z</time></trkpt><trkpt lat="45.95932010560999" lon="13.335332533594215"><ele>46.0</ele><time>2026-04-11T12:24:47Z</time></trkpt><trkpt lat="45.95904345263581" lon="13.335412673435876"><ele>45.5</ele><time>2026-04-11T12:24:48Z</time></trkpt><trkpt lat="45.95876433215132" lon="13.335472253546966"><ele>45.0</ele><time>2026-04-11T12:24:49Z</time></trkpt><trkpt lat="45.95849206906361" lon="13.33555702751387"><ele>46.0</ele><time>2026-04-11T12:24:50Z</time></trkpt><trkpt lat="45.95822856241605" lon="13.335680709578162"><ele>47.0</ele><time>2026-04-11T12:24:51Z</time></trkpt><trkpt lat="45.95798453559972" lon="13.335852752341111"><ele>47.0</ele><time>2026-04-11T12:24:52Z</time></trkpt><trkpt lat="45.95772482944432" lon="13.335982302266682"><ele>47.0</ele><time>2026-04-11T12:24:53Z</time></trkpt><trkpt lat="45.9574779232971" lon="13.336155068161492"><ele>47.5</ele><time>2026-04-11T12:24:54Z</time></trkpt><trkpt lat="45.957229522268" lon="13.336313040660023"><ele>48.0</ele><time>2026-04-11T12:24:55Z</time></trkpt><trkpt lat="45.95698736503648" lon="13.336478912328527"><ele>48.0</ele><time>2026-04-11T12:24:56Z</time></trkpt><trkpt lat="45.95675318051028" lon="13.336651718085879"><ele>48.0</ele><time>2026-04-11T12:24:57Z</time></trkpt><trkpt lat="45.95651939794027" lon="13.33682575054036"><ele>47.5</ele><time>2026-04-11T12:24:58Z</time></trkpt><trkpt lat="45.95627137993381" lon="13.336974959407705"><ele>47.0</ele><time>2026-04-11T12:24:59Z</time></trkpt><trkpt lat="45.95602701409374" lon="13.337144805587458"><ele>47.0</ele><time>2026-04-11T12:25:00Z</time></trkpt><trkpt lat="45.95578635667463" lon="13.337338168744989"><ele>47.0</ele><time>2026-04-11T12:25:01Z</time></trkpt><trkpt lat="45.95553075983776" lon="13.33748923011536"><ele>47.0</ele><time>2026-04-11T12:25:02Z</time></trkpt><trkpt lat="45.95528130371474" lon="13.337663172249417"><ele>47.0</ele><time>2026-04-11T12:25:03Z</time></trkpt><trkpt lat="45.95503627517758" lon="13.33783397111797"><ele>46.5</ele><time>2026-04-11T12:25:04Z</time></trkpt><trkpt lat="45.9548132318441" lon="13.33798884365658"><ele>46.0</ele><time>2026-04-11T12:25:05Z</time></trkpt><trkpt lat="45.95460190077591" lon="13.338135691781352"><ele>45.66666666666667</ele><time>2026-04-11T12:25:06Z</time></trkpt><trkpt lat="45.954405099355114" lon="13.338272443580642"><ele>45.333333333333336</ele><time>2026-04-11T12:25:07Z</time></trkpt><trkpt lat="45.95422174087712" lon="13.338399729862937"><ele>45.0</ele><time>2026-04-11T12:25:08Z</time></trkpt><trkpt lat="45.954052112327716" lon="13.338517423043012"><ele>45.666666666666664</ele><time>2026-04-11T12:25:09Z</time></trkpt><trkpt lat="45.95389004795659" lon="13.338629867824704"><ele>46.33333333333333</ele><time>2026-04-11T12:25:10Z</time></trkpt><trkpt lat="45.95374775598706" lon="13.338766742242973"><ele>47.0</ele><time>2026-04-11T12:25:11Z</time></trkpt><trkpt lat="45.953602337533525" lon="13.33886518474769"><ele>47.0</ele><time>2026-04-11T12:25:12Z</time></trkpt><trkpt lat="45.95346305242616" lon="13.33895555733625"><ele>47.0</ele><time>2026-04-11T12:25:13Z</time></trkpt><trkpt lat="45.95332613761508" lon="13.339049911546848"><ele>47.0</ele><time>2026-04-11T12:25:14Z</time></trkpt><trkpt lat="45.95316467535727" lon="13.33916044574459"><ele>47.0</ele><time>2026-04-11T12:25:15Z</time></trkpt><trkpt lat="45.95298648315973" lon="13.33928040292424"><ele>47.0</ele><time>2026-04-11T12:25:15.999Z</time></trkpt><trkpt lat="45.95280008372665" lon="13.339409796453952"><ele>47.0</ele><time>2026-04-11T12:25:16.999Z</time></trkpt><trkpt lat="45.952603084004444" lon="13.339550258842568"><ele>47.5</ele><time>2026-04-11T12:25:17.999Z</time></trkpt><trkpt lat="45.95239960517201" lon="13.339688158367446"><ele>48.0</ele><time>2026-04-11T12:25:18.999Z</time></trkpt><trkpt lat="45.95219598196005" lon="13.33982878285203"><ele>47.333333333333336</ele><time>2026-04-11T12:25:19.999Z</time></trkpt><trkpt lat="45.95199269941914" lon="13.339969573910214"><ele>46.66666666666667</ele><time>2026-04-11T12:25:20.999Z</time></trkpt><trkpt lat="45.95179186512944" lon="13.340109103809752"><ele>46.0</ele><time>2026-04-11T12:25:21.999Z</time></trkpt><trkpt lat="45.95159372266312" lon="13.340250684194418"><ele>46.0</ele><time>2026-04-11T12:25:22.999Z</time></trkpt><trkpt lat="45.95139592003195" lon="13.340391390938816"><ele>46.0</ele><time>2026-04-11T12:25:23.999Z</time></trkpt><trkpt lat="45.951203806811534" lon="13.340537677263473"><ele>46.0</ele><time>2026-04-11T12:25:24.999Z</time></trkpt><trkpt lat="45.95101267136715" lon="13.340698815717413"><ele>46.0</ele><time>2026-04-11T12:25:25.999Z</time></trkpt><trkpt lat="45.950830448083344" lon="13.340867372354976"><ele>46.0</ele><time>2026-04-11T12:25:26.999Z</time></trkpt><trkpt lat="45.95065371748264" lon="13.341038538340662"><ele>46.0</ele><time>2026-04-11T12:25:27.999Z</time></trkpt><trkpt lat="45.9504820094989" lon="13.34120752107118"><ele>46.333333333333336</ele><time>2026-04-11T12:25:28.999Z</time></trkpt><trkpt lat="45.95030903456608" lon="13.34138512129932"><ele>46.666666666666664</ele><time>2026-04-11T12:25:29.999Z</time></trkpt><trkpt lat="45.950135678475384" lon="13.341565031866823"><ele>47.0</ele><time>2026-04-11T12:25:30.999Z</time></trkpt><trkpt lat="45.949962259892196" lon="13.341743188336233"><ele>46.33333333333333</ele><time>2026-04-11T12:25:31.999Z</time></trkpt><trkpt lat="45.9497898218383" lon="13.341923917253085"><ele>45.666666666666664</ele><time>2026-04-11T12:25:32.999Z</time></trkpt><trkpt lat="45.949615847850936" lon="13.34211642339363"><ele>45.0</ele><time>2026-04-11T12:25:33.999Z</time></trkpt><trkpt lat="45.94945212723415" lon="13.34232995481332"><ele>45.0</ele><time>2026-04-11T12:25:34.999Z</time></trkpt><trkpt lat="45.94929549115503" lon="13.342556627269067"><ele>45.0</ele><time>2026-04-11T12:25:35.999Z</time></trkpt><trkpt lat="45.94914442016897" lon="13.342811764307593"><ele>44.0</ele><time>2026-04-11T12:25:36.999Z</time></trkpt><trkpt lat="45.94899665992368" lon="13.343083450932092"><ele>43.0</ele><time>2026-04-11T12:25:37.999Z</time></trkpt><trkpt lat="45.94884817506575" lon="13.343372250280359"><ele>43.0</ele><time>2026-04-11T12:25:38.999Z</time></trkpt><trkpt lat="45.9486926184158" lon="13.343673246802359"><ele>43.0</ele><time>2026-04-11T12:25:39.999Z</time></trkpt><trkpt lat="45.94852682530688" lon="13.34398812759663"><ele>43.5</ele><time>2026-04-11T12:25:40.999Z</time></trkpt><trkpt lat="45.948354440992574" lon="13.344309897474227"><ele>44.0</ele><time>2026-04-11T12:25:41.999Z</time></trkpt><trkpt lat="45.948177017516215" lon="13.344651954158408"><ele>43.0</ele><time>2026-04-11T12:25:42.999Z</time></trkpt><trkpt lat="45.94800398722045" lon="13.34498381909115"><ele>42.0</ele><time>2026-04-11T12:25:43.999Z</time></trkpt><trkpt lat="45.947847945760614" lon="13.345283553783972"><ele>41.5</ele><time>2026-04-11T12:25:44.999Z</time></trkpt><trkpt lat="45.947698949556425" lon="13.345566240318544"><ele>41.0</ele><time>2026-04-11T12:25:45.999Z</time></trkpt><trkpt lat="45.947554681340314" lon="13.345813200731873"><ele>41.0</ele><time>2026-04-11T12:25:46.999Z</time></trkpt><trkpt lat="45.94739811596661" lon="13.346034174318094"><ele>41.0</ele><time>2026-04-11T12:25:47.999Z</time></trkpt><trkpt lat="45.94721177440599" lon="13.346224192446613"><ele>41.0</ele><time>2026-04-11T12:25:48.999Z</time></trkpt><trkpt lat="45.94700660641786" lon="13.346385828019988"><ele>41.5</ele><time>2026-04-11T12:25:49.999Z</time></trkpt><trkpt lat="45.94677276377115" lon="13.346489858867413"><ele>42.0</ele><time>2026-04-11T12:25:50.999Z</time></trkpt><trkpt lat="45.94652275246719" lon="13.34663452341008"><ele>42.0</ele><time>2026-04-11T12:25:51.999Z</time></trkpt><trkpt lat="45.946248936316934" lon="13.346768856436508"><ele>42.0</ele><time>2026-04-11T12:25:52.999Z</time></trkpt><trkpt lat="45.94596231660927" lon="13.346907538893529"><ele>41.5</ele><time>2026-04-11T12:25:53.999Z</time></trkpt><trkpt lat="45.94566464344615" lon="13.34702685248316"><ele>41.0</ele><time>2026-04-11T12:25:54.999Z</time></trkpt><trkpt lat="45.94537354585244" lon="13.34717186246433"><ele>41.5</ele><time>2026-04-11T12:25:55.999Z</time></trkpt><trkpt lat="45.94508327001855" lon="13.347316463148063"><ele>42.0</ele><time>2026-04-11T12:25:56.999Z</time></trkpt><trkpt lat="45.9447925737744" lon="13.347459009288599"><ele>42.0</ele><time>2026-04-11T12:25:57.999Z</time></trkpt><trkpt lat="45.94450257193006" lon="13.347602142750501"><ele>42.0</ele><time>2026-04-11T12:25:58.999Z</time></trkpt><trkpt lat="45.944219796482784" lon="13.34776596736352"><ele>42.0</ele><time>2026-04-11T12:25:59.999Z</time></trkpt><trkpt lat="45.94393526315475" lon="13.347898206674166"><ele>42.0</ele><time>2026-04-11T12:26:00.999Z</time></trkpt><trkpt lat="45.94366873753717" lon="13.348025628478373"><ele>42.0</ele><time>2026-04-11T12:26:01.999Z</time></trkpt><trkpt lat="45.94342208196268" lon="13.348145687579681"><ele>42.0</ele><time>2026-04-11T12:26:02.999Z</time></trkpt><trkpt lat="45.94318897516299" lon="13.348258224062937"><ele>41.5</ele><time>2026-04-11T12:26:03.999Z</time></trkpt><trkpt lat="45.94296611262999" lon="13.348365742217942"><ele>41.0</ele><time>2026-04-11T12:26:04.999Z</time></trkpt><trkpt lat="45.94276008196149" lon="13.348466526446181"><ele>41.0</ele><time>2026-04-11T12:26:05.999Z</time></trkpt><trkpt lat="45.94257096865357" lon="13.34856754315684"><ele>41.0</ele><time>2026-04-11T12:26:06.999Z</time></trkpt><trkpt lat="45.94240023555135" lon="13.348677698636568"><ele>41.0</ele><time>2026-04-11T12:26:07.999Z</time></trkpt><trkpt lat="45.942229520045764" lon="13.348826366264836"><ele>40.33333333333333</ele><time>2026-04-11T12:26:08.999Z</time></trkpt><trkpt lat="45.94207350676233" lon="13.349012254193884"><ele>39.666666666666664</ele><time>2026-04-11T12:26:09.999Z</time></trkpt><trkpt lat="45.941931207969354" lon="13.349235890126256"><ele>39.0</ele><time>2026-04-11T12:26:10.999Z</time></trkpt><trkpt lat="45.941805862254824" lon="13.349495552575167"><ele>39.0</ele><time>2026-04-11T12:26:11.999Z</time></trkpt><trkpt lat="45.941709215910755" lon="13.34979543445944"><ele>39.0</ele><time>2026-04-11T12:26:12.999Z</time></trkpt><trkpt lat="45.94163947526508" lon="13.350140958562498"><ele>39.0</ele><time>2026-04-11T12:26:13.999Z</time></trkpt><trkpt lat="45.94157955041893" lon="13.350536614663202"><ele>39.0</ele><time>2026-04-11T12:26:14.999Z</time></trkpt><trkpt lat="45.94150752329318" lon="13.3509755270209"><ele>40.0</ele><time>2026-04-11T12:26:15.999Z</time></trkpt><trkpt lat="45.94142795521287" lon="13.351445241686848"><ele>41.0</ele><time>2026-04-11T12:26:16.999Z</time></trkpt><trkpt lat="45.94134329738721" lon="13.351928016450145"><ele>40.5</ele><time>2026-04-11T12:26:17.999Z</time></trkpt><trkpt lat="45.94126048928136" lon="13.35240741802172"><ele>40.0</ele><time>2026-04-11T12:26:18.999Z</time></trkpt><trkpt lat="45.94118362386609" lon="13.352861772952142"><ele>39.5</ele><time>2026-04-11T12:26:19.999Z</time></trkpt><trkpt lat="45.94111337337841" lon="13.353277249866212"><ele>39.0</ele><time>2026-04-11T12:26:20.999Z</time></trkpt><trkpt lat="45.941035087519786" lon="13.353669769102614"><ele>39.0</ele><time>2026-04-11T12:26:21.999Z</time></trkpt><trkpt lat="45.940941129460846" lon="13.354043758730931"><ele>39.0</ele><time>2026-04-11T12:26:22.999Z</time></trkpt><trkpt lat="45.940806369497324" lon="13.354386142459408"><ele>38.5</ele><time>2026-04-11T12:26:23.999Z</time></trkpt><trkpt lat="45.940667053385575" lon="13.354721224161743"><ele>38.0</ele><time>2026-04-11T12:26:24.999Z</time></trkpt><trkpt lat="45.940548559304546" lon="13.35505052491692"><ele>38.0</ele><time>2026-04-11T12:26:25.999Z</time></trkpt><trkpt lat="45.94042464979302" lon="13.355337574142808"><ele>38.0</ele><time>2026-04-11T12:26:26.999Z</time></trkpt><trkpt lat="45.94030873723015" lon="13.355602796977648"><ele>38.33333333333333</ele><time>2026-04-11T12:26:27.999Z</time></trkpt><trkpt lat="45.94018636627808" lon="13.355846227452426"><ele>38.666666666666664</ele><time>2026-04-11T12:26:28.999Z</time></trkpt><trkpt lat="45.94005949362308" lon="13.356056110060619"><ele>39.0</ele><time>2026-04-11T12:26:29.999Z</time></trkpt><trkpt lat="45.93992139759526" lon="13.35623873782606"><ele>39.0</ele><time>2026-04-11T12:26:30.999Z</time></trkpt><trkpt lat="45.93976095797396" lon="13.35637608381553"><ele>39.0</ele><time>2026-04-11T12:26:31.999Z</time></trkpt><trkpt lat="45.939592794211414" lon="13.356545193616379"><ele>39.0</ele><time>2026-04-11T12:26:32.999Z</time></trkpt><trkpt lat="45.93941731029287" lon="13.356730449967088"><ele>39.0</ele><time>2026-04-11T12:26:33.999Z</time></trkpt><trkpt lat="45.93923792503152" lon="13.356936628799264"><ele>39.0</ele><time>2026-04-11T12:26:34.999Z</time></trkpt><trkpt lat="45.939071285624244" lon="13.357186171122988"><ele>38.5</ele><time>2026-04-11T12:26:35.999Z</time></trkpt><trkpt lat="45.93891021310108" lon="13.357490659425379"><ele>38.0</ele><time>2026-04-11T12:26:36.999Z</time></trkpt><trkpt lat="45.938755201391054" lon="13.357870796458867"><ele>38.5</ele><time>2026-04-11T12:26:37.999Z</time></trkpt><trkpt lat="45.93862266129664" lon="13.358321642998268"><ele>39.0</ele><time>2026-04-11T12:26:38.999Z</time></trkpt><trkpt lat="45.93847113194214" lon="13.35881225188972"><ele>39.0</ele><time>2026-04-11T12:26:39.999Z</time></trkpt><trkpt lat="45.938309662589255" lon="13.35931407703616"><ele>39.0</ele><time>2026-04-11T12:26:40.999Z</time></trkpt><trkpt lat="45.93815613955726" lon="13.359783659654164"><ele>39.0</ele><time>2026-04-11T12:26:41.999Z</time></trkpt><trkpt lat="45.937994905888594" lon="13.360237085634227"><ele>39.0</ele><time>2026-04-11T12:26:42.999Z</time></trkpt><trkpt lat="45.937857349950406" lon="13.360696598267849"><ele>38.5</ele><time>2026-04-11T12:26:43.999Z</time></trkpt><trkpt lat="45.93776721919693" lon="13.361166564546647"><ele>38.0</ele><time>2026-04-11T12:26:45Z</time></trkpt><trkpt lat="45.937672224930914" lon="13.361628521419076"><ele>38.0</ele><time>2026-04-11T12:26:46Z</time></trkpt><trkpt lat="45.93758589287815" lon="13.362087466477718"><ele>38.0</ele><time>2026-04-11T12:26:47Z</time></trkpt><trkpt lat="45.937504175772794" lon="13.36251989549867"><ele>38.0</ele><time>2026-04-11T12:26:48Z</time></trkpt><trkpt lat="45.93742801699258" lon="13.362917447214853"><ele>38.0</ele><time>2026-04-11T12:26:49Z</time></trkpt><trkpt lat="45.93735882822137" lon="13.363287464704756"><ele>38.0</ele><time>2026-04-11T12:26:50Z</time></trkpt><trkpt lat="45.937300163080664" lon="13.363613439239371"><ele>38.0</ele><time>2026-04-11T12:26:51Z</time></trkpt><trkpt lat="45.93723377323087" lon="13.363888948876816"><ele>38.0</ele><time>2026-04-11T12:26:52Z</time></trkpt><trkpt lat="45.93714884038585" lon="13.36413035453414"><ele>39.0</ele><time>2026-04-11T12:26:53Z</time></trkpt><trkpt lat="45.9370408059938" lon="13.364329363927578"><ele>40.0</ele><time>2026-04-11T12:26:54Z</time></trkpt><trkpt lat="45.936918593558396" lon="13.36449471446831"><ele>41.0</ele><time>2026-04-11T12:26:55Z</time></trkpt><trkpt lat="45.93677422905913" lon="13.36463312268634"><ele>40.0</ele><time>2026-04-11T12:26:56Z</time></trkpt><trkpt lat="45.93660408362057" lon="13.364748207336469"><ele>39.0</ele><time>2026-04-11T12:26:57Z</time></trkpt><trkpt lat="45.93640284999917" lon="13.364791547008975"><ele>38.0</ele><time>2026-04-11T12:26:58Z</time></trkpt><trkpt lat="45.93617300070653" lon="13.364834180412025"><ele>38.0</ele><time>2026-04-11T12:26:59Z</time></trkpt><trkpt lat="45.935915338630636" lon="13.36488093584941"><ele>38.0</ele><time>2026-04-11T12:27:00Z</time></trkpt><trkpt lat="45.93563112951445" lon="13.364931776097208"><ele>37.5</ele><time>2026-04-11T12:27:01Z</time></trkpt><trkpt lat="45.935297481368096" lon="13.364990864473675"><ele>37.0</ele><time>2026-04-11T12:27:02Z</time></trkpt><trkpt lat="45.93492236281959" lon="13.365055717239768"><ele>37.0</ele><time>2026-04-11T12:27:03Z</time></trkpt><trkpt lat="45.93452204282737" lon="13.365127028967873"><ele>37.0</ele><time>2026-04-11T12:27:04Z</time></trkpt><trkpt lat="45.93413147239422" lon="13.36519450393063"><ele>37.0</ele><time>2026-04-11T12:27:05Z</time></trkpt><trkpt lat="45.933760589336806" lon="13.365259306597975"><ele>37.0</ele><time>2026-04-11T12:27:06Z</time></trkpt><trkpt lat="45.933400266970224" lon="13.365323454272387"><ele>36.0</ele><time>2026-04-11T12:27:07Z</time></trkpt><trkpt lat="45.93306457168847" lon="13.365382656847082"><ele>35.0</ele><time>2026-04-11T12:27:08Z</time></trkpt><trkpt lat="45.932743105614236" lon="13.365440033336904"><ele>35.0</ele><time>2026-04-11T12:27:09Z</time></trkpt><trkpt lat="45.932437777359944" lon="13.365494529466883"><ele>35.0</ele><time>2026-04-11T12:27:10Z</time></trkpt><trkpt lat="45.93213730694127" lon="13.365562540956839"><ele>35.0</ele><time>2026-04-11T12:27:11Z</time></trkpt><trkpt lat="45.93184062897095" lon="13.365687433008835"><ele>35.0</ele><time>2026-04-11T12:27:12Z</time></trkpt><trkpt lat="45.93154301138658" lon="13.365820417017973"><ele>35.0</ele><time>2026-04-11T12:27:13Z</time></trkpt><trkpt lat="45.93124290799918" lon="13.365954511764464"><ele>35.0</ele><time>2026-04-11T12:27:14Z</time></trkpt><trkpt lat="45.9309411393063" lon="13.366089350637674"><ele>35.0</ele><time>2026-04-11T12:27:15Z</time></trkpt><trkpt lat="45.930635357556945" lon="13.366225850993995"><ele>35.0</ele><time>2026-04-11T12:27:16Z</time></trkpt><trkpt lat="45.930328815559335" lon="13.36636378752355"><ele>35.0</ele><time>2026-04-11T12:27:17Z</time></trkpt><trkpt lat="45.93002290465793" lon="13.366502584185502"><ele>35.0</ele><time>2026-04-11T12:27:18Z</time></trkpt><trkpt lat="45.929717845876034" lon="13.366636383885167"><ele>35.0</ele><time>2026-04-11T12:27:19Z</time></trkpt><trkpt lat="45.92941899770965" lon="13.366767992117044"><ele>35.0</ele><time>2026-04-11T12:27:20Z</time></trkpt><trkpt lat="45.929130902268795" lon="13.366896315935692"><ele>34.5</ele><time>2026-04-11T12:27:21Z</time></trkpt><trkpt lat="45.92885545889897" lon="13.36701900447859"><ele>34.0</ele><time>2026-04-11T12:27:22Z</time></trkpt><trkpt lat="45.92859648618244" lon="13.367157250129482"><ele>34.0</ele><time>2026-04-11T12:27:23Z</time></trkpt><trkpt lat="45.928341406047664" lon="13.367252232270163"><ele>34.0</ele><time>2026-04-11T12:27:24Z</time></trkpt><trkpt lat="45.92809934880256" lon="13.367379634697423"><ele>34.0</ele><time>2026-04-11T12:27:25Z</time></trkpt><trkpt lat="45.927867972368816" lon="13.367535332713826"><ele>34.0</ele><time>2026-04-11T12:27:25.999Z</time></trkpt><trkpt lat="45.927642974537505" lon="13.367710210958167"><ele>34.0</ele><time>2026-04-11T12:27:26.999Z</time></trkpt><trkpt lat="45.92743312709417" lon="13.367932626648024"><ele>34.0</ele><time>2026-04-11T12:27:27.999Z</time></trkpt><trkpt lat="45.92721295820214" lon="13.368141296911352"><ele>34.0</ele><time>2026-04-11T12:27:28.999Z</time></trkpt><trkpt lat="45.92699158356832" lon="13.368351050649913"><ele>34.0</ele><time>2026-04-11T12:27:29.999Z</time></trkpt><trkpt lat="45.92676986180906" lon="13.368562265396664"><ele>34.0</ele><time>2026-04-11T12:27:30.999Z</time></trkpt><trkpt lat="45.92654783397292" lon="13.368771698690228"><ele>34.0</ele><time>2026-04-11T12:27:31.999Z</time></trkpt><trkpt lat="45.92632214472597" lon="13.368976285748118"><ele>34.0</ele><time>2026-04-11T12:27:32.999Z</time></trkpt><trkpt lat="45.926095057561675" lon="13.369178624206851"><ele>34.0</ele><time>2026-04-11T12:27:33.999Z</time></trkpt><trkpt lat="45.92586586002775" lon="13.369380783434732"><ele>34.0</ele><time>2026-04-11T12:27:34.999Z</time></trkpt><trkpt lat="45.92563571855842" lon="13.369584324018847"><ele>34.0</ele><time>2026-04-11T12:27:35.999Z</time></trkpt><trkpt lat="45.92540195148315" lon="13.369791197788883"><ele>34.0</ele><time>2026-04-11T12:27:36.999Z</time></trkpt><trkpt lat="45.925167030911055" lon="13.369996723538174"><ele>34.0</ele><time>2026-04-11T12:27:37.999Z</time></trkpt><trkpt lat="45.92493440193904" lon="13.370205877915668"><ele>33.5</ele><time>2026-04-11T12:27:38.999Z</time></trkpt><trkpt lat="45.924704514480844" lon="13.37041391014722"><ele>33.0</ele><time>2026-04-11T12:27:39.999Z</time></trkpt><trkpt lat="45.924474750238176" lon="13.370618242937795"><ele>33.0</ele><time>2026-04-11T12:27:40.999Z</time></trkpt><trkpt lat="45.92424786400689" lon="13.370818843429563"><ele>33.0</ele><time>2026-04-11T12:27:41.999Z</time></trkpt><trkpt lat="45.92402137569286" lon="13.371015363044762"><ele>33.0</ele><time>2026-04-11T12:27:42.999Z</time></trkpt><trkpt lat="45.9238022055842" lon="13.371208423326953"><ele>33.0</ele><time>2026-04-11T12:27:43.999Z</time></trkpt><trkpt lat="45.92357684204749" lon="13.371374652503146"><ele>33.0</ele><time>2026-04-11T12:27:44.999Z</time></trkpt><trkpt lat="45.92336484786518" lon="13.371558939907583"><ele>33.0</ele><time>2026-04-11T12:27:45.999Z</time></trkpt><trkpt lat="45.92316641165567" lon="13.371760580929363"><ele>33.0</ele><time>2026-04-11T12:27:46.999Z</time></trkpt><trkpt lat="45.92296741638744" lon="13.371935392702953"><ele>33.0</ele><time>2026-04-11T12:27:47.999Z</time></trkpt><trkpt lat="45.922784718065905" lon="13.372094088542768"><ele>33.0</ele><time>2026-04-11T12:27:48.999Z</time></trkpt><trkpt lat="45.922615112952336" lon="13.372240847029131"><ele>33.333333333333336</ele><time>2026-04-11T12:27:49.999Z</time></trkpt><trkpt lat="45.922461069165024" lon="13.372374906807615"><ele>33.66666666666667</ele><time>2026-04-11T12:27:50.999Z</time></trkpt><trkpt lat="45.922322327871285" lon="13.37249870938291"><ele>34.0</ele><time>2026-04-11T12:27:51.999Z</time></trkpt><trkpt lat="45.9221823107127" lon="13.37262235980114"><ele>34.0</ele><time>2026-04-11T12:27:52.999Z</time></trkpt><trkpt lat="45.922034918470665" lon="13.372752313797648"><ele>34.0</ele><time>2026-04-11T12:27:53.999Z</time></trkpt><trkpt lat="45.921901610646394" lon="13.372863089753727"><ele>34.0</ele><time>2026-04-11T12:27:54.999Z</time></trkpt><trkpt lat="45.921781668711915" lon="13.37294508771639"><ele>34.0</ele><time>2026-04-11T12:27:55.999Z</time></trkpt><trkpt lat="45.921672149657404" lon="13.372994370460574"><ele>34.0</ele><time>2026-04-11T12:27:56.999Z</time></trkpt><trkpt lat="45.921567775360245" lon="13.373006162078212"><ele>34.0</ele><time>2026-04-11T12:27:57.999Z</time></trkpt><trkpt lat="45.9214737281284" lon="13.373040344850606"><ele>34.0</ele><time>2026-04-11T12:27:58.999Z</time></trkpt><trkpt lat="45.9213865948608" lon="13.373119492374302"><ele>34.0</ele><time>2026-04-11T12:27:59.999Z</time></trkpt><trkpt lat="45.92131159205656" lon="13.373252090552349"><ele>33.333333333333336</ele><time>2026-04-11T12:28:00.999Z</time></trkpt><trkpt lat="45.92121345390406" lon="13.3734067180267"><ele>32.666666666666664</ele><time>2026-04-11T12:28:01.999Z</time></trkpt><trkpt lat="45.92108122133481" lon="13.373557369734284"><ele>32.0</ele><time>2026-04-11T12:28:02.999Z</time></trkpt><trkpt lat="45.92091875519968" lon="13.373714523186647"><ele>32.0</ele><time>2026-04-11T12:28:03.999Z</time></trkpt><trkpt lat="45.92072177733575" lon="13.373881769372442"><ele>32.0</ele><time>2026-04-11T12:28:04.999Z</time></trkpt><trkpt lat="45.920497957343315" lon="13.374082931679222"><ele>32.0</ele><time>2026-04-11T12:28:05.999Z</time></trkpt><trkpt lat="45.92023978890835" lon="13.374300328996648"><ele>32.0</ele><time>2026-04-11T12:28:06.999Z</time></trkpt><trkpt lat="45.91997950647341" lon="13.374552931717139"><ele>31.5</ele><time>2026-04-11T12:28:07.999Z</time></trkpt><trkpt lat="45.919736742399046" lon="13.37480596163077"><ele>31.0</ele><time>2026-04-11T12:28:08.999Z</time></trkpt><trkpt lat="45.91950510552717" lon="13.375051258173691"><ele>31.0</ele><time>2026-04-11T12:28:09.999Z</time></trkpt><trkpt lat="45.91930184287705" lon="13.375288324501746"><ele>31.0</ele><time>2026-04-11T12:28:10.999Z</time></trkpt><trkpt lat="45.91909399029185" lon="13.375478283178756"><ele>31.5</ele><time>2026-04-11T12:28:11.999Z</time></trkpt><trkpt lat="45.91887388692286" lon="13.375636500555041"><ele>32.0</ele><time>2026-04-11T12:28:12.999Z</time></trkpt><trkpt lat="45.91864341026762" lon="13.37576374720913"><ele>32.0</ele><time>2026-04-11T12:28:13.999Z</time></trkpt><trkpt lat="45.91840107790148" lon="13.37582261726091"><ele>32.0</ele><time>2026-04-11T12:28:14.999Z</time></trkpt><trkpt lat="45.91815431438275" lon="13.375896591559167"><ele>32.0</ele><time>2026-04-11T12:28:15.999Z</time></trkpt><trkpt lat="45.91790038456465" lon="13.375936860261096"><ele>32.0</ele><time>2026-04-11T12:28:16.999Z</time></trkpt><trkpt lat="45.917651253810455" lon="13.375987022744852"><ele>31.0</ele><time>2026-04-11T12:28:17.999Z</time></trkpt><trkpt lat="45.9174051961543" lon="13.376012304392283"><ele>30.0</ele><time>2026-04-11T12:28:18.999Z</time></trkpt><trkpt lat="45.917165552483794" lon="13.376056241132753"><ele>30.0</ele><time>2026-04-11T12:28:19.999Z</time></trkpt><trkpt lat="45.91693526323" lon="13.376098882162387"><ele>30.0</ele><time>2026-04-11T12:28:20.999Z</time></trkpt><trkpt lat="45.916723718003205" lon="13.376154955093497"><ele>30.0</ele><time>2026-04-11T12:28:21.999Z</time></trkpt><trkpt lat="45.9165235038015" lon="13.376146288891299"><ele>31.0</ele><time>2026-04-11T12:28:22.999Z</time></trkpt><trkpt lat="45.916339535741855" lon="13.376149324848575"><ele>32.0</ele><time>2026-04-11T12:28:23.999Z</time></trkpt><trkpt lat="45.91616426496118" lon="13.376149979015455"><ele>33.0</ele><time>2026-04-11T12:28:24.999Z</time></trkpt><trkpt lat="45.91599656625523" lon="13.376150604920236"><ele>33.333333333333336</ele><time>2026-04-11T12:28:25.999Z</time></trkpt><trkpt lat="45.915823635261596" lon="13.376155051099696"><ele>33.66666666666667</ele><time>2026-04-11T12:28:26.999Z</time></trkpt><trkpt lat="45.915653942674446" lon="13.376166531851899"><ele>34.0</ele><time>2026-04-11T12:28:27.999Z</time></trkpt><trkpt lat="45.91548048729173" lon="13.376191461732892"><ele>34.0</ele><time>2026-04-11T12:28:28.999Z</time></trkpt><trkpt lat="45.91530798292168" lon="13.376221518006977"><ele>34.0</ele><time>2026-04-11T12:28:29.999Z</time></trkpt><trkpt lat="45.91513442640383" lon="13.376254743282512"><ele>34.0</ele><time>2026-04-11T12:28:30.999Z</time></trkpt><trkpt lat="45.914960355700366" lon="13.376287520587965"><ele>33.66666666666667</ele><time>2026-04-11T12:28:31.999Z</time></trkpt><trkpt lat="45.91478444278811" lon="13.376318090307233"><ele>33.333333333333336</ele><time>2026-04-11T12:28:32.999Z</time></trkpt><trkpt lat="45.914608394138256" lon="13.376348683611058"><ele>33.0</ele><time>2026-04-11T12:28:33.999Z</time></trkpt><trkpt lat="45.91443178094958" lon="13.37638316637891"><ele>33.0</ele><time>2026-04-11T12:28:34.999Z</time></trkpt><trkpt lat="45.91425400018052" lon="13.376427925270788"><ele>33.0</ele><time>2026-04-11T12:28:35.999Z</time></trkpt><trkpt lat="45.91407698295648" lon="13.376480319609895"><ele>33.0</ele><time>2026-04-11T12:28:36.999Z</time></trkpt><trkpt lat="45.91390450913018" lon="13.37654764048171"><ele>33.0</ele><time>2026-04-11T12:28:37.999Z</time></trkpt><trkpt lat="45.9137327630592" lon="13.376621010061804"><ele>33.0</ele><time>2026-04-11T12:28:38.999Z</time></trkpt><trkpt lat="45.91356616372841" lon="13.37672359108359"><ele>33.0</ele><time>2026-04-11T12:28:39.999Z</time></trkpt><trkpt lat="45.91340196437456" lon="13.376777160939213"><ele>33.25</ele><time>2026-04-11T12:28:40.999Z</time></trkpt><trkpt lat="45.913255387719715" lon="13.376827247669535"><ele>33.5</ele><time>2026-04-11T12:28:41.999Z</time></trkpt><trkpt lat="45.91312076574712" lon="13.37688984407215"><ele>33.75</ele><time>2026-04-11T12:28:42.999Z</time></trkpt><trkpt lat="45.91297574475679" lon="13.376957167064216"><ele>34.0</ele><time>2026-04-11T12:28:43.999Z</time></trkpt><trkpt lat="45.91283698588927" lon="13.377088755421184"><ele>33.66666666666667</ele><time>2026-04-11T12:28:44.999Z</time></trkpt><trkpt lat="45.912674688869814" lon="13.37725839072188"><ele>33.333333333333336</ele><time>2026-04-11T12:28:45.999Z</time></trkpt><trkpt lat="45.91249647529779" lon="13.377444950076388"><ele>33.0</ele><time>2026-04-11T12:28:46.999Z</time></trkpt><trkpt lat="45.912297897164045" lon="13.377646936280929"><ele>32.5</ele><time>2026-04-11T12:28:47.999Z</time></trkpt><trkpt lat="45.91208790916715" lon="13.377858321977305"><ele>32.0</ele><time>2026-04-11T12:28:48.999Z</time></trkpt><trkpt lat="45.911884724455774" lon="13.378070462269799"><ele>31.5</ele><time>2026-04-11T12:28:50Z</time></trkpt><trkpt lat="45.91168561504149" lon="13.378257031448"><ele>31.0</ele><time>2026-04-11T12:28:51Z</time></trkpt><trkpt lat="45.911483864892034" lon="13.378416274604469"><ele>31.0</ele><time>2026-04-11T12:28:52Z</time></trkpt><trkpt lat="45.911263873327286" lon="13.378534003299395"><ele>31.0</ele><time>2026-04-11T12:28:53Z</time></trkpt><trkpt lat="45.91102937477728" lon="13.378619767914973"><ele>30.5</ele><time>2026-04-11T12:28:54Z</time></trkpt><trkpt lat="45.91078589324005" lon="13.378666232257718"><ele>30.0</ele><time>2026-04-11T12:28:55Z</time></trkpt><trkpt lat="45.91053369563587" lon="13.378667040394125"><ele>30.0</ele><time>2026-04-11T12:28:56Z</time></trkpt><trkpt lat="45.91026178587837" lon="13.37864534719219"><ele>30.0</ele><time>2026-04-11T12:28:57Z</time></trkpt><trkpt lat="45.90997425891125" lon="13.378626974086615"><ele>29.0</ele><time>2026-04-11T12:28:58Z</time></trkpt><trkpt lat="45.90967025563132" lon="13.37862385515529"><ele>28.0</ele><time>2026-04-11T12:28:59Z</time></trkpt><trkpt lat="45.90935570974336" lon="13.378633268653237"><ele>28.5</ele><time>2026-04-11T12:29:00Z</time></trkpt><trkpt lat="45.90903272441359" lon="13.37866444308117"><ele>29.0</ele><time>2026-04-11T12:29:01Z</time></trkpt><trkpt lat="45.90871395695147" lon="13.378712210979579"><ele>28.5</ele><time>2026-04-11T12:29:02Z</time></trkpt><trkpt lat="45.90839781048233" lon="13.378765919389895"><ele>28.0</ele><time>2026-04-11T12:29:03Z</time></trkpt><trkpt lat="45.908086949930805" lon="13.378841115749552"><ele>28.5</ele><time>2026-04-11T12:29:04Z</time></trkpt><trkpt lat="45.907779074650975" lon="13.378940770180874"><ele>29.0</ele><time>2026-04-11T12:29:05Z</time></trkpt><trkpt lat="45.90746503409118" lon="13.379068215610124"><ele>29.0</ele><time>2026-04-11T12:29:06Z</time></trkpt><trkpt lat="45.907139526079234" lon="13.379200684108532"><ele>29.0</ele><time>2026-04-11T12:29:07Z</time></trkpt><trkpt lat="45.906834753431426" lon="13.37930286069837"><ele>29.0</ele><time>2026-04-11T12:29:08Z</time></trkpt><trkpt lat="45.9065378083033" lon="13.379354465412376"><ele>29.0</ele><time>2026-04-11T12:29:09Z</time></trkpt><trkpt lat="45.90624922566866" lon="13.379389860578597"><ele>29.0</ele><time>2026-04-11T12:29:10Z</time></trkpt><trkpt lat="45.905970130805144" lon="13.379422911650297"><ele>29.0</ele><time>2026-04-11T12:29:11Z</time></trkpt><trkpt lat="45.90570289589232" lon="13.37945455620264"><ele>28.5</ele><time>2026-04-11T12:29:12Z</time></trkpt><trkpt lat="45.90544551382403" lon="13.379485034098694"><ele>28.0</ele><time>2026-04-11T12:29:13Z</time></trkpt><trkpt lat="45.90519782773635" lon="13.37951484009444"><ele>27.0</ele><time>2026-04-11T12:29:14Z</time></trkpt><trkpt lat="45.904964396571586" lon="13.379543586144491"><ele>26.0</ele><time>2026-04-11T12:29:15Z</time></trkpt><trkpt lat="45.90474798416742" lon="13.37957259183528"><ele>26.0</ele><time>2026-04-11T12:29:16Z</time></trkpt><trkpt lat="45.90454582004751" lon="13.379605916296203"><ele>26.0</ele><time>2026-04-11T12:29:17Z</time></trkpt><trkpt lat="45.90434453698656" lon="13.379640222675883"><ele>26.0</ele><time>2026-04-11T12:29:18Z</time></trkpt><trkpt lat="45.904136942701825" lon="13.379681322727853"><ele>26.333333333333332</ele><time>2026-04-11T12:29:19Z</time></trkpt><trkpt lat="45.903925772211835" lon="13.379728659587371"><ele>26.666666666666664</ele><time>2026-04-11T12:29:20Z</time></trkpt><trkpt lat="45.90372114134369" lon="13.379774334675913"><ele>27.0</ele><time>2026-04-11T12:29:21Z</time></trkpt><trkpt lat="45.90352469874299" lon="13.379817249179446"><ele>27.0</ele><time>2026-04-11T12:29:22Z</time></trkpt><trkpt lat="45.903335478628286" lon="13.379858585846904"><ele>27.0</ele><time>2026-04-11T12:29:23Z</time></trkpt><trkpt lat="45.9031498869607" lon="13.379899129875808"><ele>27.0</ele><time>2026-04-11T12:29:24Z</time></trkpt><trkpt lat="45.90296493774129" lon="13.379939533564698"><ele>27.0</ele><time>2026-04-11T12:29:25Z</time></trkpt><trkpt lat="45.90278061415301" lon="13.379982262137643"><ele>27.0</ele><time>2026-04-11T12:29:26Z</time></trkpt><trkpt lat="45.902599772398005" lon="13.380048207684464"><ele>27.0</ele><time>2026-04-11T12:29:26.999Z</time></trkpt><trkpt lat="45.9024154797292" lon="13.380089622913971"><ele>26.666666666666664</ele><time>2026-04-11T12:29:27.999Z</time></trkpt><trkpt lat="45.90222616227086" lon="13.38010755961931"><ele>26.333333333333332</ele><time>2026-04-11T12:29:28.999Z</time></trkpt><trkpt lat="45.90203857650563" lon="13.380147941452947"><ele>26.0</ele><time>2026-04-11T12:29:29.999Z</time></trkpt><trkpt lat="45.90184973381735" lon="13.380184471234628"><ele>25.666666666666664</ele><time>2026-04-11T12:29:30.999Z</time></trkpt><trkpt lat="45.90166153873427" lon="13.380216657518087"><ele>25.333333333333336</ele><time>2026-04-11T12:29:31.999Z</time></trkpt><trkpt lat="45.901478031175195" lon="13.380245085269676"><ele>25.0</ele><time>2026-04-11T12:29:32.999Z</time></trkpt><trkpt lat="45.90130779026864" lon="13.38026819949604"><ele>25.0</ele><time>2026-04-11T12:29:33.999Z</time></trkpt><trkpt lat="45.90113563034886" lon="13.38029089554536"><ele>25.0</ele><time>2026-04-11T12:29:34.999Z</time></trkpt><trkpt lat="45.90096644509574" lon="13.380313199448217"><ele>25.0</ele><time>2026-04-11T12:29:35.999Z</time></trkpt><trkpt lat="45.9007966463784" lon="13.380335584223214"><ele>25.333333333333336</ele><time>2026-04-11T12:29:36.999Z</time></trkpt><trkpt lat="45.900622034105155" lon="13.380358603580051"><ele>25.666666666666664</ele><time>2026-04-11T12:29:37.999Z</time></trkpt><trkpt lat="45.900445998107436" lon="13.380382631927574"><ele>26.0</ele><time>2026-04-11T12:29:38.999Z</time></trkpt><trkpt lat="45.900270657735184" lon="13.380407527207757"><ele>26.0</ele><time>2026-04-11T12:29:39.999Z</time></trkpt><trkpt lat="45.90009855023464" lon="13.380431963467215"><ele>26.0</ele><time>2026-04-11T12:29:40.999Z</time></trkpt><trkpt lat="45.89992884097312" lon="13.380459060596197"><ele>26.0</ele><time>2026-04-11T12:29:41.999Z</time></trkpt><trkpt lat="45.899757898339764" lon="13.380488888946784"><ele>26.0</ele><time>2026-04-11T12:29:42.999Z</time></trkpt><trkpt lat="45.899590643444554" lon="13.38052174068792"><ele>26.0</ele><time>2026-04-11T12:29:43.999Z</time></trkpt><trkpt lat="45.89943939332822" lon="13.380557081129016"><ele>26.0</ele><time>2026-04-11T12:29:44.999Z</time></trkpt><trkpt lat="45.89929930820464" lon="13.380591206424963"><ele>25.6</ele><time>2026-04-11T12:29:45.999Z</time></trkpt><trkpt lat="45.89917795936006" lon="13.38062410574376"><ele>25.200000000000003</ele><time>2026-04-11T12:29:46.999Z</time></trkpt><trkpt lat="45.89907482303444" lon="13.380656859191085"><ele>24.799999999999997</ele><time>2026-04-11T12:29:47.999Z</time></trkpt><trkpt lat="45.89899371510772" lon="13.380685079271986"><ele>24.4</ele><time>2026-04-11T12:29:48.999Z</time></trkpt><trkpt lat="45.89892115864205" lon="13.380712531042983"><ele>24.0</ele><time>2026-04-11T12:29:49.999Z</time></trkpt><trkpt lat="45.89880659319644" lon="13.380756022668072"><ele>24.0</ele><time>2026-04-11T12:29:51.999Z</time></trkpt><trkpt lat="45.89873365938584" lon="13.380783709999681"><ele>24.0</ele><time>2026-04-11T12:29:53.999Z</time></trkpt><trkpt lat="45.89867253657363" lon="13.380830353306981"><ele>24.0</ele><time>2026-04-11T12:29:56.999Z</time></trkpt><trkpt lat="45.89860303841853" lon="13.380835172707501"><ele>24.0</ele><time>2026-04-11T12:30:15.999Z</time></trkpt><trkpt lat="45.898536926659155" lon="13.380861282605673"><ele>24.0</ele><time>2026-04-11T12:30:16.999Z</time></trkpt><trkpt lat="45.89845329103911" lon="13.380894313177851"><ele>24.0</ele><time>2026-04-11T12:30:17.999Z</time></trkpt><trkpt lat="45.89834044334472" lon="13.380941518896533"><ele>24.666666666666664</ele><time>2026-04-11T12:30:18.999Z</time></trkpt><trkpt lat="45.89818404118459" lon="13.381005524572497"><ele>25.333333333333332</ele><time>2026-04-11T12:30:19.999Z</time></trkpt><trkpt lat="45.89798824665587" lon="13.381107674209705"><ele>26.0</ele><time>2026-04-11T12:30:20.999Z</time></trkpt><trkpt lat="45.89774692581619" lon="13.381202416065083"><ele>26.0</ele><time>2026-04-11T12:30:21.999Z</time></trkpt><trkpt lat="45.89749331416269" lon="13.381304315582916"><ele>26.0</ele><time>2026-04-11T12:30:22.999Z</time></trkpt><trkpt lat="45.89724328286762" lon="13.38141507084588"><ele>26.0</ele><time>2026-04-11T12:30:23.999Z</time></trkpt><trkpt lat="45.897005769431686" lon="13.381519512856146"><ele>26.0</ele><time>2026-04-11T12:30:24.999Z</time></trkpt><trkpt lat="45.89678129996556" lon="13.381595279606847"><ele>26.0</ele><time>2026-04-11T12:30:25.999Z</time></trkpt><trkpt lat="45.89657798753919" lon="13.381686904827408"><ele>26.0</ele><time>2026-04-11T12:30:26.999Z</time></trkpt><trkpt lat="45.89639476644149" lon="13.381770869417153"><ele>26.0</ele><time>2026-04-11T12:30:27.999Z</time></trkpt><trkpt lat="45.89622521422026" lon="13.38184841571606"><ele>26.0</ele><time>2026-04-11T12:30:28.999Z</time></trkpt><trkpt lat="45.8960757404968" lon="13.38191514390136"><ele>26.0</ele><time>2026-04-11T12:30:29.999Z</time></trkpt><trkpt lat="45.895955182963135" lon="13.38196742244711"><ele>26.0</ele><time>2026-04-11T12:30:30.999Z</time></trkpt><trkpt lat="45.895869650761426" lon="13.382003539641495"><ele>26.0</ele><time>2026-04-11T12:30:31.999Z</time></trkpt><trkpt lat="45.895805476801456" lon="13.382030638063572"><ele>26.0</ele><time>2026-04-11T12:30:32.999Z</time></trkpt><trkpt lat="45.89574327241268" lon="13.381999054962183"><ele>26.166666666666664</ele><time>2026-04-11T12:30:35.999Z</time></trkpt><trkpt lat="45.89578322191547" lon="13.381918449422368"><ele>26.333333333333332</ele><time>2026-04-11T12:30:37.999Z</time></trkpt><trkpt lat="45.89578805958471" lon="13.381800957021765"><ele>26.5</ele><time>2026-04-11T12:30:39.999Z</time></trkpt><trkpt lat="45.89581467213034" lon="13.381673668589183"><ele>26.666666666666664</ele><time>2026-04-11T12:30:41.999Z</time></trkpt><trkpt lat="45.89585584860525" lon="13.381560143587475"><ele>26.833333333333332</ele><time>2026-04-11T12:30:43.999Z</time></trkpt><trkpt lat="45.89588204233776" lon="13.381439922501244"><ele>27.0</ele><time>2026-04-11T12:30:45.999Z</time></trkpt><trkpt lat="45.895904582260805" lon="13.381337619975842"><ele>25.0</ele><time>2026-04-11T12:30:47.999Z</time></trkpt><trkpt lat="45.8959398993686" lon="13.381255245046805"><ele>26.0</ele><time>2026-04-11T12:31:03Z</time></trkpt></trkseg></trk></gpx>